<?xml version="1.0" encoding="UTF-8" standalone="no" ?>
<gpx xmlns="http://www.topografix.com/GPX/1/1" xmlns:xsi="http://www.w3.org/2001/XMLSchema-instance" xsi:schemaLocation="http://www.topografix.com/GPX/1/1 http://www.topografix.com/GPX/1/1/gpx.xsd" version="1.1" creator="VisuGPX - https://www.visugpx.com">
  <metadata>
    <name>St Pierre d'alvey -St Pierre de Curtille </name>
    <desc><![CDATA[Étape 1 aller
Sans difficulté particulière 
Superbe point de vue sur le lac du Bourget ]]></desc>
  </metadata>
  <trk>
    <name><![CDATA[St Pierre d'alvey -St Pierre de Curtille _1]]></name>
    <trkseg>
      <trkpt lat="45.6265" lon="5.72626">
        <ele>653</ele>
        <time>2018-09-01T09:33:19Z</time>
      </trkpt>
      <trkpt lat="45.62652" lon="5.72626">
        <ele>653</ele>
        <time>2018-09-01T09:33:19Z</time>
      </trkpt>
      <trkpt lat="45.62651" lon="5.72625">
        <ele>653</ele>
        <time>2018-09-01T09:33:19Z</time>
      </trkpt>
      <trkpt lat="45.62651" lon="5.72624">
        <ele>669</ele>
        <time>2018-09-01T09:33:19Z</time>
      </trkpt>
      <trkpt lat="45.62651" lon="5.7262">
        <ele>669</ele>
        <time>2018-09-01T09:33:19Z</time>
      </trkpt>
      <trkpt lat="45.62652" lon="5.72618">
        <ele>669</ele>
        <time>2018-09-01T09:33:35Z</time>
      </trkpt>
      <trkpt lat="45.62652" lon="5.72617">
        <ele>669</ele>
        <time>2018-09-01T09:33:35Z</time>
      </trkpt>
      <trkpt lat="45.62648" lon="5.72614">
        <ele>669</ele>
        <time>2018-09-01T09:33:35Z</time>
      </trkpt>
      <trkpt lat="45.62643" lon="5.72614">
        <ele>669</ele>
        <time>2018-09-01T09:33:35Z</time>
      </trkpt>
      <trkpt lat="45.62639" lon="5.72616">
        <ele>669</ele>
        <time>2018-09-01T09:33:51Z</time>
      </trkpt>
      <trkpt lat="45.62635" lon="5.72619">
        <ele>669</ele>
        <time>2018-09-01T09:33:51Z</time>
      </trkpt>
      <trkpt lat="45.62631" lon="5.72621">
        <ele>669</ele>
        <time>2018-09-01T09:33:51Z</time>
      </trkpt>
      <trkpt lat="45.62625" lon="5.72623">
        <ele>669</ele>
        <time>2018-09-01T09:33:51Z</time>
      </trkpt>
      <trkpt lat="45.6262" lon="5.72623">
        <ele>679</ele>
        <time>2018-09-01T09:34:07Z</time>
      </trkpt>
      <trkpt lat="45.62615" lon="5.72625">
        <ele>679</ele>
        <time>2018-09-01T09:34:07Z</time>
      </trkpt>
      <trkpt lat="45.6261" lon="5.72625">
        <ele>659</ele>
        <time>2018-09-01T09:34:07Z</time>
      </trkpt>
      <trkpt lat="45.62605" lon="5.72626">
        <ele>659</ele>
        <time>2018-09-01T09:34:07Z</time>
      </trkpt>
      <trkpt lat="45.626" lon="5.72628">
        <ele>659</ele>
        <time>2018-09-01T09:34:23Z</time>
      </trkpt>
      <trkpt lat="45.62595" lon="5.72629">
        <ele>659</ele>
        <time>2018-09-01T09:34:23Z</time>
      </trkpt>
      <trkpt lat="45.62591" lon="5.72629">
        <ele>659</ele>
        <time>2018-09-01T09:34:23Z</time>
      </trkpt>
      <trkpt lat="45.62586" lon="5.7263">
        <ele>659</ele>
        <time>2018-09-01T09:34:23Z</time>
      </trkpt>
      <trkpt lat="45.62581" lon="5.72631">
        <ele>659</ele>
        <time>2018-09-01T09:34:39Z</time>
      </trkpt>
      <trkpt lat="45.62576" lon="5.72632">
        <ele>659</ele>
        <time>2018-09-01T09:34:39Z</time>
      </trkpt>
      <trkpt lat="45.62571" lon="5.72633">
        <ele>659</ele>
        <time>2018-09-01T09:34:39Z</time>
      </trkpt>
      <trkpt lat="45.62566" lon="5.72634">
        <ele>659</ele>
        <time>2018-09-01T09:34:39Z</time>
      </trkpt>
      <trkpt lat="45.62561" lon="5.72636">
        <ele>659</ele>
        <time>2018-09-01T09:34:55Z</time>
      </trkpt>
      <trkpt lat="45.62556" lon="5.72637">
        <ele>659</ele>
        <time>2018-09-01T09:34:55Z</time>
      </trkpt>
      <trkpt lat="45.6255" lon="5.72637">
        <ele>659</ele>
        <time>2018-09-01T09:34:55Z</time>
      </trkpt>
      <trkpt lat="45.62548" lon="5.72633">
        <ele>659</ele>
        <time>2018-09-01T09:34:55Z</time>
      </trkpt>
      <trkpt lat="45.6255" lon="5.72631">
        <ele>659</ele>
        <time>2018-09-01T09:35:15Z</time>
      </trkpt>
      <trkpt lat="45.62553" lon="5.72628">
        <ele>659</ele>
        <time>2018-09-01T09:35:15Z</time>
      </trkpt>
      <trkpt lat="45.62555" lon="5.72624">
        <ele>679</ele>
        <time>2018-09-01T09:35:15Z</time>
      </trkpt>
      <trkpt lat="45.62557" lon="5.72623">
        <ele>679</ele>
        <time>2018-09-01T09:35:15Z</time>
      </trkpt>
      <trkpt lat="45.62558" lon="5.72623">
        <ele>679</ele>
        <time>2018-09-01T09:35:15Z</time>
      </trkpt>
      <trkpt lat="45.62563" lon="5.72622">
        <ele>679</ele>
        <time>2018-09-01T09:35:55Z</time>
      </trkpt>
      <trkpt lat="45.62564" lon="5.72621">
        <ele>679</ele>
        <time>2018-09-01T09:35:55Z</time>
      </trkpt>
      <trkpt lat="45.62565" lon="5.7262">
        <ele>679</ele>
        <time>2018-09-01T09:35:55Z</time>
      </trkpt>
      <trkpt lat="45.62566" lon="5.72619">
        <ele>679</ele>
        <time>2018-09-01T09:35:55Z</time>
      </trkpt>
      <trkpt lat="45.62567" lon="5.72618">
        <ele>679</ele>
        <time>2018-09-01T09:35:55Z</time>
      </trkpt>
      <trkpt lat="45.62569" lon="5.72614">
        <ele>679</ele>
        <time>2018-09-01T09:36:47Z</time>
      </trkpt>
      <trkpt lat="45.62569" lon="5.72614">
        <ele>679</ele>
        <time>2018-09-01T09:36:47Z</time>
      </trkpt>
      <trkpt lat="45.62569" lon="5.72614">
        <ele>679</ele>
        <time>2018-09-01T09:36:47Z</time>
      </trkpt>
      <trkpt lat="45.62572" lon="5.72611">
        <ele>679</ele>
        <time>2018-09-01T09:36:47Z</time>
      </trkpt>
      <trkpt lat="45.62576" lon="5.72607">
        <ele>679</ele>
        <time>2018-09-01T09:36:47Z</time>
      </trkpt>
      <trkpt lat="45.62581" lon="5.72604">
        <ele>679</ele>
        <time>2018-09-01T09:37:03Z</time>
      </trkpt>
      <trkpt lat="45.62585" lon="5.72599">
        <ele>679</ele>
        <time>2018-09-01T09:37:03Z</time>
      </trkpt>
      <trkpt lat="45.6259" lon="5.72596">
        <ele>679</ele>
        <time>2018-09-01T09:37:03Z</time>
      </trkpt>
      <trkpt lat="45.62594" lon="5.72593">
        <ele>679</ele>
        <time>2018-09-01T09:37:03Z</time>
      </trkpt>
      <trkpt lat="45.62599" lon="5.72589">
        <ele>679</ele>
        <time>2018-09-01T09:37:19Z</time>
      </trkpt>
      <trkpt lat="45.62602" lon="5.72586">
        <ele>679</ele>
        <time>2018-09-01T09:37:19Z</time>
      </trkpt>
      <trkpt lat="45.62606" lon="5.72584">
        <ele>679</ele>
        <time>2018-09-01T09:37:19Z</time>
      </trkpt>
      <trkpt lat="45.62609" lon="5.72581">
        <ele>679</ele>
        <time>2018-09-01T09:37:19Z</time>
      </trkpt>
      <trkpt lat="45.62615" lon="5.72577">
        <ele>679</ele>
        <time>2018-09-01T09:37:35Z</time>
      </trkpt>
      <trkpt lat="45.62621" lon="5.72576">
        <ele>679</ele>
        <time>2018-09-01T09:37:35Z</time>
      </trkpt>
      <trkpt lat="45.62626" lon="5.72572">
        <ele>669</ele>
        <time>2018-09-01T09:37:35Z</time>
      </trkpt>
      <trkpt lat="45.6263" lon="5.72573">
        <ele>669</ele>
        <time>2018-09-01T09:37:35Z</time>
      </trkpt>
      <trkpt lat="45.62633" lon="5.72569">
        <ele>669</ele>
        <time>2018-09-01T09:37:51Z</time>
      </trkpt>
      <trkpt lat="45.62636" lon="5.72565">
        <ele>669</ele>
        <time>2018-09-01T09:37:51Z</time>
      </trkpt>
      <trkpt lat="45.62637" lon="5.72562">
        <ele>669</ele>
        <time>2018-09-01T09:37:51Z</time>
      </trkpt>
      <trkpt lat="45.62639" lon="5.72558">
        <ele>669</ele>
        <time>2018-09-01T09:37:51Z</time>
      </trkpt>
      <trkpt lat="45.62643" lon="5.72554">
        <ele>669</ele>
        <time>2018-09-01T09:38:07Z</time>
      </trkpt>
      <trkpt lat="45.62647" lon="5.72549">
        <ele>669</ele>
        <time>2018-09-01T09:38:07Z</time>
      </trkpt>
      <trkpt lat="45.62651" lon="5.72545">
        <ele>669</ele>
        <time>2018-09-01T09:38:07Z</time>
      </trkpt>
      <trkpt lat="45.62656" lon="5.72542">
        <ele>669</ele>
        <time>2018-09-01T09:38:07Z</time>
      </trkpt>
      <trkpt lat="45.6266" lon="5.72538">
        <ele>686</ele>
        <time>2018-09-01T09:38:23Z</time>
      </trkpt>
      <trkpt lat="45.62665" lon="5.72534">
        <ele>686</ele>
        <time>2018-09-01T09:38:23Z</time>
      </trkpt>
      <trkpt lat="45.62668" lon="5.72531">
        <ele>686</ele>
        <time>2018-09-01T09:38:23Z</time>
      </trkpt>
      <trkpt lat="45.62673" lon="5.72528">
        <ele>686</ele>
        <time>2018-09-01T09:38:23Z</time>
      </trkpt>
      <trkpt lat="45.62677" lon="5.72523">
        <ele>686</ele>
        <time>2018-09-01T09:38:39Z</time>
      </trkpt>
      <trkpt lat="45.62681" lon="5.72518">
        <ele>686</ele>
        <time>2018-09-01T09:38:39Z</time>
      </trkpt>
      <trkpt lat="45.62684" lon="5.72515">
        <ele>686</ele>
        <time>2018-09-01T09:38:39Z</time>
      </trkpt>
      <trkpt lat="45.62688" lon="5.72511">
        <ele>686</ele>
        <time>2018-09-01T09:38:39Z</time>
      </trkpt>
      <trkpt lat="45.62693" lon="5.72506">
        <ele>686</ele>
        <time>2018-09-01T09:38:55Z</time>
      </trkpt>
      <trkpt lat="45.62698" lon="5.72501">
        <ele>686</ele>
        <time>2018-09-01T09:38:55Z</time>
      </trkpt>
      <trkpt lat="45.62704" lon="5.72497">
        <ele>686</ele>
        <time>2018-09-01T09:38:55Z</time>
      </trkpt>
      <trkpt lat="45.62708" lon="5.72493">
        <ele>675</ele>
        <time>2018-09-01T09:38:55Z</time>
      </trkpt>
      <trkpt lat="45.62713" lon="5.72489">
        <ele>675</ele>
        <time>2018-09-01T09:39:11Z</time>
      </trkpt>
      <trkpt lat="45.62718" lon="5.72485">
        <ele>675</ele>
        <time>2018-09-01T09:39:11Z</time>
      </trkpt>
      <trkpt lat="45.62723" lon="5.72482">
        <ele>675</ele>
        <time>2018-09-01T09:39:11Z</time>
      </trkpt>
      <trkpt lat="45.62728" lon="5.72478">
        <ele>675</ele>
        <time>2018-09-01T09:39:11Z</time>
      </trkpt>
      <trkpt lat="45.62733" lon="5.72474">
        <ele>675</ele>
        <time>2018-09-01T09:39:27Z</time>
      </trkpt>
      <trkpt lat="45.62741" lon="5.72471">
        <ele>675</ele>
        <time>2018-09-01T09:39:27Z</time>
      </trkpt>
      <trkpt lat="45.62748" lon="5.72466">
        <ele>675</ele>
        <time>2018-09-01T09:39:27Z</time>
      </trkpt>
      <trkpt lat="45.62756" lon="5.72463">
        <ele>675</ele>
        <time>2018-09-01T09:39:27Z</time>
      </trkpt>
      <trkpt lat="45.6276" lon="5.72464">
        <ele>675</ele>
        <time>2018-09-01T09:39:43Z</time>
      </trkpt>
      <trkpt lat="45.62765" lon="5.72462">
        <ele>675</ele>
        <time>2018-09-01T09:39:43Z</time>
      </trkpt>
      <trkpt lat="45.6277" lon="5.7246">
        <ele>675</ele>
        <time>2018-09-01T09:39:43Z</time>
      </trkpt>
      <trkpt lat="45.62777" lon="5.72455">
        <ele>689</ele>
        <time>2018-09-01T09:39:43Z</time>
      </trkpt>
      <trkpt lat="45.62783" lon="5.72451">
        <ele>689</ele>
        <time>2018-09-01T09:39:59Z</time>
      </trkpt>
      <trkpt lat="45.62788" lon="5.72448">
        <ele>689</ele>
        <time>2018-09-01T09:39:59Z</time>
      </trkpt>
      <trkpt lat="45.62794" lon="5.72447">
        <ele>677</ele>
        <time>2018-09-01T09:39:59Z</time>
      </trkpt>
      <trkpt lat="45.628" lon="5.72443">
        <ele>677</ele>
        <time>2018-09-01T09:39:59Z</time>
      </trkpt>
      <trkpt lat="45.62805" lon="5.72438">
        <ele>677</ele>
        <time>2018-09-01T09:40:15Z</time>
      </trkpt>
      <trkpt lat="45.6281" lon="5.72434">
        <ele>677</ele>
        <time>2018-09-01T09:40:15Z</time>
      </trkpt>
      <trkpt lat="45.62815" lon="5.72431">
        <ele>677</ele>
        <time>2018-09-01T09:40:15Z</time>
      </trkpt>
      <trkpt lat="45.62819" lon="5.72426">
        <ele>677</ele>
        <time>2018-09-01T09:40:15Z</time>
      </trkpt>
      <trkpt lat="45.62823" lon="5.72422">
        <ele>677</ele>
        <time>2018-09-01T09:40:31Z</time>
      </trkpt>
      <trkpt lat="45.62827" lon="5.72416">
        <ele>677</ele>
        <time>2018-09-01T09:40:31Z</time>
      </trkpt>
      <trkpt lat="45.62831" lon="5.7241">
        <ele>677</ele>
        <time>2018-09-01T09:40:31Z</time>
      </trkpt>
      <trkpt lat="45.62836" lon="5.72405">
        <ele>677</ele>
        <time>2018-09-01T09:40:31Z</time>
      </trkpt>
      <trkpt lat="45.62841" lon="5.72399">
        <ele>677</ele>
        <time>2018-09-01T09:40:47Z</time>
      </trkpt>
      <trkpt lat="45.62846" lon="5.72391">
        <ele>677</ele>
        <time>2018-09-01T09:40:47Z</time>
      </trkpt>
      <trkpt lat="45.62851" lon="5.72384">
        <ele>677</ele>
        <time>2018-09-01T09:40:47Z</time>
      </trkpt>
      <trkpt lat="45.62854" lon="5.72376">
        <ele>677</ele>
        <time>2018-09-01T09:40:47Z</time>
      </trkpt>
      <trkpt lat="45.62858" lon="5.72369">
        <ele>691</ele>
        <time>2018-09-01T09:41:03Z</time>
      </trkpt>
      <trkpt lat="45.62866" lon="5.72361">
        <ele>691</ele>
        <time>2018-09-01T09:41:03Z</time>
      </trkpt>
      <trkpt lat="45.62874" lon="5.72356">
        <ele>691</ele>
        <time>2018-09-01T09:41:03Z</time>
      </trkpt>
      <trkpt lat="45.62877" lon="5.72353">
        <ele>680</ele>
        <time>2018-09-01T09:41:03Z</time>
      </trkpt>
      <trkpt lat="45.62881" lon="5.72348">
        <ele>680</ele>
        <time>2018-09-01T09:41:19Z</time>
      </trkpt>
      <trkpt lat="45.62887" lon="5.72344">
        <ele>680</ele>
        <time>2018-09-01T09:41:19Z</time>
      </trkpt>
      <trkpt lat="45.62893" lon="5.72342">
        <ele>680</ele>
        <time>2018-09-01T09:41:19Z</time>
      </trkpt>
      <trkpt lat="45.62894" lon="5.72341">
        <ele>680</ele>
        <time>2018-09-01T09:41:19Z</time>
      </trkpt>
      <trkpt lat="45.62896" lon="5.72339">
        <ele>680</ele>
        <time>2018-09-01T09:41:35Z</time>
      </trkpt>
      <trkpt lat="45.62901" lon="5.72335">
        <ele>680</ele>
        <time>2018-09-01T09:41:35Z</time>
      </trkpt>
      <trkpt lat="45.62908" lon="5.72333">
        <ele>680</ele>
        <time>2018-09-01T09:41:35Z</time>
      </trkpt>
      <trkpt lat="45.62912" lon="5.72333">
        <ele>680</ele>
        <time>2018-09-01T09:41:35Z</time>
      </trkpt>
      <trkpt lat="45.62917" lon="5.72331">
        <ele>680</ele>
        <time>2018-09-01T09:41:51Z</time>
      </trkpt>
      <trkpt lat="45.62924" lon="5.7233">
        <ele>680</ele>
        <time>2018-09-01T09:41:51Z</time>
      </trkpt>
      <trkpt lat="45.6293" lon="5.7233">
        <ele>680</ele>
        <time>2018-09-01T09:41:51Z</time>
      </trkpt>
      <trkpt lat="45.62936" lon="5.7233">
        <ele>680</ele>
        <time>2018-09-01T09:41:51Z</time>
      </trkpt>
      <trkpt lat="45.62942" lon="5.72331">
        <ele>680</ele>
        <time>2018-09-01T09:42:07Z</time>
      </trkpt>
      <trkpt lat="45.62946" lon="5.72334">
        <ele>680</ele>
        <time>2018-09-01T09:42:07Z</time>
      </trkpt>
      <trkpt lat="45.62951" lon="5.72335">
        <ele>680</ele>
        <time>2018-09-01T09:42:07Z</time>
      </trkpt>
      <trkpt lat="45.62957" lon="5.72336">
        <ele>680</ele>
        <time>2018-09-01T09:42:07Z</time>
      </trkpt>
      <trkpt lat="45.62963" lon="5.72338">
        <ele>671</ele>
        <time>2018-09-01T09:42:23Z</time>
      </trkpt>
      <trkpt lat="45.62973" lon="5.72339">
        <ele>671</ele>
        <time>2018-09-01T09:42:23Z</time>
      </trkpt>
      <trkpt lat="45.6298" lon="5.72337">
        <ele>671</ele>
        <time>2018-09-01T09:42:23Z</time>
      </trkpt>
      <trkpt lat="45.62986" lon="5.72332">
        <ele>671</ele>
        <time>2018-09-01T09:42:23Z</time>
      </trkpt>
      <trkpt lat="45.62991" lon="5.72329">
        <ele>671</ele>
        <time>2018-09-01T09:42:39Z</time>
      </trkpt>
      <trkpt lat="45.62995" lon="5.72325">
        <ele>671</ele>
        <time>2018-09-01T09:42:39Z</time>
      </trkpt>
      <trkpt lat="45.62999" lon="5.72323">
        <ele>671</ele>
        <time>2018-09-01T09:42:39Z</time>
      </trkpt>
      <trkpt lat="45.63005" lon="5.72321">
        <ele>671</ele>
        <time>2018-09-01T09:42:39Z</time>
      </trkpt>
      <trkpt lat="45.63012" lon="5.7232">
        <ele>671</ele>
        <time>2018-09-01T09:42:55Z</time>
      </trkpt>
      <trkpt lat="45.63016" lon="5.72315">
        <ele>671</ele>
        <time>2018-09-01T09:42:55Z</time>
      </trkpt>
      <trkpt lat="45.63021" lon="5.72314">
        <ele>671</ele>
        <time>2018-09-01T09:42:55Z</time>
      </trkpt>
      <trkpt lat="45.63024" lon="5.72311">
        <ele>671</ele>
        <time>2018-09-01T09:42:55Z</time>
      </trkpt>
      <trkpt lat="45.63028" lon="5.72308">
        <ele>671</ele>
        <time>2018-09-01T09:43:11Z</time>
      </trkpt>
      <trkpt lat="45.63032" lon="5.72304">
        <ele>671</ele>
        <time>2018-09-01T09:43:11Z</time>
      </trkpt>
      <trkpt lat="45.63039" lon="5.72298">
        <ele>671</ele>
        <time>2018-09-01T09:43:11Z</time>
      </trkpt>
      <trkpt lat="45.63047" lon="5.72294">
        <ele>665</ele>
        <time>2018-09-01T09:43:11Z</time>
      </trkpt>
      <trkpt lat="45.63053" lon="5.72293">
        <ele>665</ele>
        <time>2018-09-01T09:43:27Z</time>
      </trkpt>
      <trkpt lat="45.63058" lon="5.72291">
        <ele>682</ele>
        <time>2018-09-01T09:43:27Z</time>
      </trkpt>
      <trkpt lat="45.63063" lon="5.72292">
        <ele>665</ele>
        <time>2018-09-01T09:43:27Z</time>
      </trkpt>
      <trkpt lat="45.63069" lon="5.72293">
        <ele>665</ele>
        <time>2018-09-01T09:43:27Z</time>
      </trkpt>
      <trkpt lat="45.63075" lon="5.72293">
        <ele>665</ele>
        <time>2018-09-01T09:43:43Z</time>
      </trkpt>
      <trkpt lat="45.63083" lon="5.72293">
        <ele>665</ele>
        <time>2018-09-01T09:43:43Z</time>
      </trkpt>
      <trkpt lat="45.63089" lon="5.72293">
        <ele>665</ele>
        <time>2018-09-01T09:43:43Z</time>
      </trkpt>
      <trkpt lat="45.63094" lon="5.72294">
        <ele>665</ele>
        <time>2018-09-01T09:43:43Z</time>
      </trkpt>
      <trkpt lat="45.63098" lon="5.72294">
        <ele>665</ele>
        <time>2018-09-01T09:43:59Z</time>
      </trkpt>
      <trkpt lat="45.63103" lon="5.72294">
        <ele>665</ele>
        <time>2018-09-01T09:43:59Z</time>
      </trkpt>
      <trkpt lat="45.63106" lon="5.72293">
        <ele>665</ele>
        <time>2018-09-01T09:43:59Z</time>
      </trkpt>
      <trkpt lat="45.63111" lon="5.72291">
        <ele>682</ele>
        <time>2018-09-01T09:43:59Z</time>
      </trkpt>
      <trkpt lat="45.63115" lon="5.72288">
        <ele>682</ele>
        <time>2018-09-01T09:44:15Z</time>
      </trkpt>
      <trkpt lat="45.63117" lon="5.72286">
        <ele>682</ele>
        <time>2018-09-01T09:44:15Z</time>
      </trkpt>
      <trkpt lat="45.6312" lon="5.72285">
        <ele>682</ele>
        <time>2018-09-01T09:44:15Z</time>
      </trkpt>
      <trkpt lat="45.63127" lon="5.72284">
        <ele>677</ele>
        <time>2018-09-01T09:44:15Z</time>
      </trkpt>
      <trkpt lat="45.63135" lon="5.72283">
        <ele>677</ele>
        <time>2018-09-01T09:44:31Z</time>
      </trkpt>
      <trkpt lat="45.63143" lon="5.72285">
        <ele>677</ele>
        <time>2018-09-01T09:44:31Z</time>
      </trkpt>
      <trkpt lat="45.63152" lon="5.72288">
        <ele>677</ele>
        <time>2018-09-01T09:44:31Z</time>
      </trkpt>
      <trkpt lat="45.63159" lon="5.72289">
        <ele>677</ele>
        <time>2018-09-01T09:44:31Z</time>
      </trkpt>
      <trkpt lat="45.63167" lon="5.72288">
        <ele>677</ele>
        <time>2018-09-01T09:44:47Z</time>
      </trkpt>
      <trkpt lat="45.63174" lon="5.72288">
        <ele>677</ele>
        <time>2018-09-01T09:44:47Z</time>
      </trkpt>
      <trkpt lat="45.6318" lon="5.72288">
        <ele>677</ele>
        <time>2018-09-01T09:44:47Z</time>
      </trkpt>
      <trkpt lat="45.63185" lon="5.72288">
        <ele>677</ele>
        <time>2018-09-01T09:44:47Z</time>
      </trkpt>
      <trkpt lat="45.63187" lon="5.72287">
        <ele>677</ele>
        <time>2018-09-01T09:45:03Z</time>
      </trkpt>
      <trkpt lat="45.6319" lon="5.72286">
        <ele>677</ele>
        <time>2018-09-01T09:45:03Z</time>
      </trkpt>
      <trkpt lat="45.63195" lon="5.72287">
        <ele>677</ele>
        <time>2018-09-01T09:45:03Z</time>
      </trkpt>
      <trkpt lat="45.632" lon="5.72287">
        <ele>677</ele>
        <time>2018-09-01T09:45:03Z</time>
      </trkpt>
      <trkpt lat="45.63205" lon="5.72288">
        <ele>677</ele>
        <time>2018-09-01T09:45:19Z</time>
      </trkpt>
      <trkpt lat="45.63211" lon="5.72287">
        <ele>672</ele>
        <time>2018-09-01T09:45:19Z</time>
      </trkpt>
      <trkpt lat="45.63217" lon="5.7229">
        <ele>672</ele>
        <time>2018-09-01T09:45:19Z</time>
      </trkpt>
      <trkpt lat="45.63223" lon="5.72292">
        <ele>672</ele>
        <time>2018-09-01T09:45:19Z</time>
      </trkpt>
      <trkpt lat="45.6323" lon="5.7229">
        <ele>672</ele>
        <time>2018-09-01T09:45:35Z</time>
      </trkpt>
      <trkpt lat="45.63238" lon="5.72289">
        <ele>672</ele>
        <time>2018-09-01T09:45:35Z</time>
      </trkpt>
      <trkpt lat="45.63244" lon="5.72285">
        <ele>672</ele>
        <time>2018-09-01T09:45:35Z</time>
      </trkpt>
      <trkpt lat="45.6325" lon="5.72283">
        <ele>672</ele>
        <time>2018-09-01T09:45:35Z</time>
      </trkpt>
      <trkpt lat="45.63256" lon="5.7228">
        <ele>672</ele>
        <time>2018-09-01T09:45:51Z</time>
      </trkpt>
      <trkpt lat="45.63263" lon="5.72278">
        <ele>672</ele>
        <time>2018-09-01T09:45:51Z</time>
      </trkpt>
      <trkpt lat="45.6327" lon="5.72277">
        <ele>672</ele>
        <time>2018-09-01T09:45:51Z</time>
      </trkpt>
      <trkpt lat="45.63275" lon="5.72274">
        <ele>672</ele>
        <time>2018-09-01T09:45:51Z</time>
      </trkpt>
      <trkpt lat="45.6328" lon="5.72271">
        <ele>672</ele>
        <time>2018-09-01T09:46:07Z</time>
      </trkpt>
      <trkpt lat="45.63286" lon="5.7227">
        <ele>672</ele>
        <time>2018-09-01T09:46:07Z</time>
      </trkpt>
      <trkpt lat="45.63292" lon="5.72271">
        <ele>662</ele>
        <time>2018-09-01T09:46:07Z</time>
      </trkpt>
      <trkpt lat="45.63297" lon="5.72271">
        <ele>662</ele>
        <time>2018-09-01T09:46:07Z</time>
      </trkpt>
      <trkpt lat="45.63303" lon="5.72274">
        <ele>662</ele>
        <time>2018-09-01T09:46:23Z</time>
      </trkpt>
      <trkpt lat="45.63307" lon="5.72275">
        <ele>662</ele>
        <time>2018-09-01T09:46:23Z</time>
      </trkpt>
      <trkpt lat="45.63312" lon="5.72276">
        <ele>662</ele>
        <time>2018-09-01T09:46:23Z</time>
      </trkpt>
      <trkpt lat="45.63316" lon="5.72276">
        <ele>662</ele>
        <time>2018-09-01T09:46:23Z</time>
      </trkpt>
      <trkpt lat="45.63321" lon="5.72273">
        <ele>662</ele>
        <time>2018-09-01T09:46:39Z</time>
      </trkpt>
      <trkpt lat="45.63326" lon="5.7227">
        <ele>662</ele>
        <time>2018-09-01T09:46:39Z</time>
      </trkpt>
      <trkpt lat="45.6333" lon="5.72267">
        <ele>662</ele>
        <time>2018-09-01T09:46:39Z</time>
      </trkpt>
      <trkpt lat="45.63335" lon="5.72264">
        <ele>662</ele>
        <time>2018-09-01T09:46:39Z</time>
      </trkpt>
      <trkpt lat="45.63339" lon="5.72261">
        <ele>662</ele>
        <time>2018-09-01T09:46:55Z</time>
      </trkpt>
      <trkpt lat="45.63343" lon="5.72258">
        <ele>662</ele>
        <time>2018-09-01T09:46:55Z</time>
      </trkpt>
      <trkpt lat="45.63346" lon="5.72256">
        <ele>662</ele>
        <time>2018-09-01T09:46:55Z</time>
      </trkpt>
      <trkpt lat="45.63348" lon="5.72255">
        <ele>662</ele>
        <time>2018-09-01T09:46:55Z</time>
      </trkpt>
      <trkpt lat="45.6335" lon="5.72256">
        <ele>662</ele>
        <time>2018-09-01T09:47:15Z</time>
      </trkpt>
      <trkpt lat="45.63353" lon="5.72257">
        <ele>662</ele>
        <time>2018-09-01T09:47:15Z</time>
      </trkpt>
      <trkpt lat="45.63356" lon="5.72257">
        <ele>662</ele>
        <time>2018-09-01T09:47:15Z</time>
      </trkpt>
      <trkpt lat="45.63357" lon="5.72256">
        <ele>662</ele>
        <time>2018-09-01T09:47:15Z</time>
      </trkpt>
      <trkpt lat="45.6336" lon="5.72252">
        <ele>662</ele>
        <time>2018-09-01T09:47:15Z</time>
      </trkpt>
      <trkpt lat="45.63365" lon="5.72249">
        <ele>662</ele>
        <time>2018-09-01T09:47:31Z</time>
      </trkpt>
      <trkpt lat="45.63371" lon="5.72249">
        <ele>662</ele>
        <time>2018-09-01T09:47:31Z</time>
      </trkpt>
      <trkpt lat="45.63378" lon="5.72246">
        <ele>658</ele>
        <time>2018-09-01T09:47:31Z</time>
      </trkpt>
      <trkpt lat="45.63381" lon="5.72242">
        <ele>658</ele>
        <time>2018-09-01T09:47:31Z</time>
      </trkpt>
      <trkpt lat="45.63385" lon="5.72236">
        <ele>658</ele>
        <time>2018-09-01T09:47:47Z</time>
      </trkpt>
      <trkpt lat="45.63391" lon="5.72232">
        <ele>658</ele>
        <time>2018-09-01T09:47:47Z</time>
      </trkpt>
      <trkpt lat="45.63394" lon="5.72228">
        <ele>658</ele>
        <time>2018-09-01T09:47:47Z</time>
      </trkpt>
      <trkpt lat="45.63399" lon="5.72223">
        <ele>658</ele>
        <time>2018-09-01T09:47:47Z</time>
      </trkpt>
      <trkpt lat="45.63405" lon="5.72215">
        <ele>658</ele>
        <time>2018-09-01T09:48:15Z</time>
      </trkpt>
      <trkpt lat="45.63406" lon="5.72214">
        <ele>658</ele>
        <time>2018-09-01T09:48:15Z</time>
      </trkpt>
      <trkpt lat="45.63407" lon="5.72213">
        <ele>658</ele>
        <time>2018-09-01T09:48:15Z</time>
      </trkpt>
      <trkpt lat="45.63409" lon="5.72215">
        <ele>658</ele>
        <time>2018-09-01T09:48:15Z</time>
      </trkpt>
      <trkpt lat="45.63415" lon="5.72221">
        <ele>658</ele>
        <time>2018-09-01T09:48:15Z</time>
      </trkpt>
      <trkpt lat="45.63422" lon="5.72224">
        <ele>658</ele>
        <time>2018-09-01T09:48:59Z</time>
      </trkpt>
      <trkpt lat="45.63425" lon="5.72226">
        <ele>658</ele>
        <time>2018-09-01T09:48:59Z</time>
      </trkpt>
      <trkpt lat="45.63427" lon="5.72229">
        <ele>658</ele>
        <time>2018-09-01T09:48:59Z</time>
      </trkpt>
      <trkpt lat="45.63428" lon="5.72231">
        <ele>658</ele>
        <time>2018-09-01T09:48:59Z</time>
      </trkpt>
      <trkpt lat="45.63431" lon="5.72237">
        <ele>658</ele>
        <time>2018-09-01T09:48:59Z</time>
      </trkpt>
      <trkpt lat="45.63434" lon="5.72241">
        <ele>658</ele>
        <time>2018-09-01T09:49:15Z</time>
      </trkpt>
      <trkpt lat="45.63433" lon="5.72247">
        <ele>658</ele>
        <time>2018-09-01T09:49:15Z</time>
      </trkpt>
      <trkpt lat="45.63438" lon="5.72251">
        <ele>658</ele>
        <time>2018-09-01T09:49:15Z</time>
      </trkpt>
      <trkpt lat="45.6344" lon="5.72256">
        <ele>658</ele>
        <time>2018-09-01T09:49:15Z</time>
      </trkpt>
      <trkpt lat="45.63443" lon="5.72258">
        <ele>658</ele>
        <time>2018-09-01T09:49:31Z</time>
      </trkpt>
      <trkpt lat="45.63446" lon="5.72258">
        <ele>658</ele>
        <time>2018-09-01T09:49:31Z</time>
      </trkpt>
      <trkpt lat="45.63451" lon="5.72258">
        <ele>658</ele>
        <time>2018-09-01T09:49:31Z</time>
      </trkpt>
      <trkpt lat="45.63459" lon="5.72258">
        <ele>668</ele>
        <time>2018-09-01T09:49:31Z</time>
      </trkpt>
      <trkpt lat="45.63465" lon="5.72256">
        <ele>668</ele>
        <time>2018-09-01T09:49:47Z</time>
      </trkpt>
      <trkpt lat="45.63476" lon="5.72254">
        <ele>668</ele>
        <time>2018-09-01T09:49:47Z</time>
      </trkpt>
      <trkpt lat="45.63484" lon="5.72257">
        <ele>668</ele>
        <time>2018-09-01T09:49:47Z</time>
      </trkpt>
      <trkpt lat="45.6349" lon="5.72264">
        <ele>668</ele>
        <time>2018-09-01T09:49:47Z</time>
      </trkpt>
      <trkpt lat="45.63496" lon="5.72269">
        <ele>668</ele>
        <time>2018-09-01T09:50:03Z</time>
      </trkpt>
      <trkpt lat="45.635" lon="5.72275">
        <ele>668</ele>
        <time>2018-09-01T09:50:03Z</time>
      </trkpt>
      <trkpt lat="45.63503" lon="5.72282">
        <ele>668</ele>
        <time>2018-09-01T09:50:03Z</time>
      </trkpt>
      <trkpt lat="45.63505" lon="5.7229">
        <ele>668</ele>
        <time>2018-09-01T09:50:03Z</time>
      </trkpt>
      <trkpt lat="45.63507" lon="5.72297">
        <ele>653</ele>
        <time>2018-09-01T09:50:19Z</time>
      </trkpt>
      <trkpt lat="45.63509" lon="5.72305">
        <ele>653</ele>
        <time>2018-09-01T09:50:19Z</time>
      </trkpt>
      <trkpt lat="45.63513" lon="5.72313">
        <ele>653</ele>
        <time>2018-09-01T09:50:19Z</time>
      </trkpt>
      <trkpt lat="45.63517" lon="5.72319">
        <ele>653</ele>
        <time>2018-09-01T09:50:19Z</time>
      </trkpt>
      <trkpt lat="45.63521" lon="5.72325">
        <ele>653</ele>
        <time>2018-09-01T09:50:35Z</time>
      </trkpt>
      <trkpt lat="45.63524" lon="5.72329">
        <ele>653</ele>
        <time>2018-09-01T09:50:35Z</time>
      </trkpt>
      <trkpt lat="45.63528" lon="5.72333">
        <ele>653</ele>
        <time>2018-09-01T09:50:35Z</time>
      </trkpt>
      <trkpt lat="45.63532" lon="5.72336">
        <ele>653</ele>
        <time>2018-09-01T09:50:35Z</time>
      </trkpt>
      <trkpt lat="45.63536" lon="5.72341">
        <ele>653</ele>
        <time>2018-09-01T09:50:51Z</time>
      </trkpt>
      <trkpt lat="45.6354" lon="5.72345">
        <ele>653</ele>
        <time>2018-09-01T09:50:51Z</time>
      </trkpt>
      <trkpt lat="45.63545" lon="5.72348">
        <ele>654</ele>
        <time>2018-09-01T09:50:51Z</time>
      </trkpt>
      <trkpt lat="45.63552" lon="5.72349">
        <ele>654</ele>
        <time>2018-09-01T09:50:51Z</time>
      </trkpt>
      <trkpt lat="45.63564" lon="5.72347">
        <ele>654</ele>
        <time>2018-09-01T09:51:07Z</time>
      </trkpt>
      <trkpt lat="45.6357" lon="5.72351">
        <ele>654</ele>
        <time>2018-09-01T09:51:07Z</time>
      </trkpt>
      <trkpt lat="45.63576" lon="5.72353">
        <ele>654</ele>
        <time>2018-09-01T09:51:07Z</time>
      </trkpt>
      <trkpt lat="45.63581" lon="5.72352">
        <ele>654</ele>
        <time>2018-09-01T09:51:07Z</time>
      </trkpt>
      <trkpt lat="45.63587" lon="5.72351">
        <ele>654</ele>
        <time>2018-09-01T09:51:23Z</time>
      </trkpt>
      <trkpt lat="45.63592" lon="5.72349">
        <ele>654</ele>
        <time>2018-09-01T09:51:23Z</time>
      </trkpt>
      <trkpt lat="45.63597" lon="5.72345">
        <ele>654</ele>
        <time>2018-09-01T09:51:23Z</time>
      </trkpt>
      <trkpt lat="45.636" lon="5.72344">
        <ele>654</ele>
        <time>2018-09-01T09:51:23Z</time>
      </trkpt>
      <trkpt lat="45.63604" lon="5.72343">
        <ele>654</ele>
        <time>2018-09-01T09:51:39Z</time>
      </trkpt>
      <trkpt lat="45.63609" lon="5.72344">
        <ele>654</ele>
        <time>2018-09-01T09:51:39Z</time>
      </trkpt>
      <trkpt lat="45.6362" lon="5.72345">
        <ele>654</ele>
        <time>2018-09-01T09:51:39Z</time>
      </trkpt>
      <trkpt lat="45.63633" lon="5.72344">
        <ele>655</ele>
        <time>2018-09-01T09:51:39Z</time>
      </trkpt>
      <trkpt lat="45.6365" lon="5.72338">
        <ele>655</ele>
        <time>2018-09-01T09:51:55Z</time>
      </trkpt>
      <trkpt lat="45.63671" lon="5.72333">
        <ele>655</ele>
        <time>2018-09-01T09:51:55Z</time>
      </trkpt>
      <trkpt lat="45.63696" lon="5.72328">
        <ele>655</ele>
        <time>2018-09-01T09:51:55Z</time>
      </trkpt>
      <trkpt lat="45.63719" lon="5.72325">
        <ele>656</ele>
        <time>2018-09-01T09:51:55Z</time>
      </trkpt>
      <trkpt lat="45.63736" lon="5.72322">
        <ele>656</ele>
        <time>2018-09-01T09:52:11Z</time>
      </trkpt>
      <trkpt lat="45.63749" lon="5.72322">
        <ele>656</ele>
        <time>2018-09-01T09:52:11Z</time>
      </trkpt>
      <trkpt lat="45.63754" lon="5.72323">
        <ele>656</ele>
        <time>2018-09-01T09:52:11Z</time>
      </trkpt>
      <trkpt lat="45.63759" lon="5.72324">
        <ele>656</ele>
        <time>2018-09-01T09:52:11Z</time>
      </trkpt>
      <trkpt lat="45.63765" lon="5.72322">
        <ele>656</ele>
        <time>2018-09-01T09:52:27Z</time>
      </trkpt>
      <trkpt lat="45.63771" lon="5.72322">
        <ele>656</ele>
        <time>2018-09-01T09:52:27Z</time>
      </trkpt>
      <trkpt lat="45.63778" lon="5.72323">
        <ele>656</ele>
        <time>2018-09-01T09:52:27Z</time>
      </trkpt>
      <trkpt lat="45.63784" lon="5.72324">
        <ele>656</ele>
        <time>2018-09-01T09:52:27Z</time>
      </trkpt>
      <trkpt lat="45.63789" lon="5.72323">
        <ele>656</ele>
        <time>2018-09-01T09:52:43Z</time>
      </trkpt>
      <trkpt lat="45.63795" lon="5.72321">
        <ele>655</ele>
        <time>2018-09-01T09:52:43Z</time>
      </trkpt>
      <trkpt lat="45.63801" lon="5.72319">
        <ele>655</ele>
        <time>2018-09-01T09:52:43Z</time>
      </trkpt>
      <trkpt lat="45.63806" lon="5.7232">
        <ele>655</ele>
        <time>2018-09-01T09:52:43Z</time>
      </trkpt>
      <trkpt lat="45.63812" lon="5.72323">
        <ele>655</ele>
        <time>2018-09-01T09:52:59Z</time>
      </trkpt>
      <trkpt lat="45.63817" lon="5.72324">
        <ele>655</ele>
        <time>2018-09-01T09:52:59Z</time>
      </trkpt>
      <trkpt lat="45.63821" lon="5.7232">
        <ele>655</ele>
        <time>2018-09-01T09:52:59Z</time>
      </trkpt>
      <trkpt lat="45.63826" lon="5.72317">
        <ele>655</ele>
        <time>2018-09-01T09:52:59Z</time>
      </trkpt>
      <trkpt lat="45.63832" lon="5.72316">
        <ele>655</ele>
        <time>2018-09-01T09:53:15Z</time>
      </trkpt>
      <trkpt lat="45.63838" lon="5.72314">
        <ele>655</ele>
        <time>2018-09-01T09:53:15Z</time>
      </trkpt>
      <trkpt lat="45.63844" lon="5.72314">
        <ele>655</ele>
        <time>2018-09-01T09:53:15Z</time>
      </trkpt>
      <trkpt lat="45.6385" lon="5.72316">
        <ele>655</ele>
        <time>2018-09-01T09:53:15Z</time>
      </trkpt>
      <trkpt lat="45.63856" lon="5.72319">
        <ele>655</ele>
        <time>2018-09-01T09:53:31Z</time>
      </trkpt>
      <trkpt lat="45.63861" lon="5.72322">
        <ele>655</ele>
        <time>2018-09-01T09:53:31Z</time>
      </trkpt>
      <trkpt lat="45.63866" lon="5.72325">
        <ele>655</ele>
        <time>2018-09-01T09:53:31Z</time>
      </trkpt>
      <trkpt lat="45.6387" lon="5.72324">
        <ele>655</ele>
        <time>2018-09-01T09:53:31Z</time>
      </trkpt>
      <trkpt lat="45.63874" lon="5.72321">
        <ele>655</ele>
        <time>2018-09-01T09:53:47Z</time>
      </trkpt>
      <trkpt lat="45.63877" lon="5.72315">
        <ele>659</ele>
        <time>2018-09-01T09:53:47Z</time>
      </trkpt>
      <trkpt lat="45.63882" lon="5.72314">
        <ele>659</ele>
        <time>2018-09-01T09:53:47Z</time>
      </trkpt>
      <trkpt lat="45.63887" lon="5.72312">
        <ele>659</ele>
        <time>2018-09-01T09:53:47Z</time>
      </trkpt>
      <trkpt lat="45.63891" lon="5.7231">
        <ele>659</ele>
        <time>2018-09-01T09:54:03Z</time>
      </trkpt>
      <trkpt lat="45.63896" lon="5.7231">
        <ele>659</ele>
        <time>2018-09-01T09:54:03Z</time>
      </trkpt>
      <trkpt lat="45.63901" lon="5.7231">
        <ele>659</ele>
        <time>2018-09-01T09:54:03Z</time>
      </trkpt>
      <trkpt lat="45.63906" lon="5.7231">
        <ele>659</ele>
        <time>2018-09-01T09:54:03Z</time>
      </trkpt>
      <trkpt lat="45.63912" lon="5.72311">
        <ele>659</ele>
        <time>2018-09-01T09:54:19Z</time>
      </trkpt>
      <trkpt lat="45.63917" lon="5.72317">
        <ele>659</ele>
        <time>2018-09-01T09:54:19Z</time>
      </trkpt>
      <trkpt lat="45.63921" lon="5.72318">
        <ele>659</ele>
        <time>2018-09-01T09:54:19Z</time>
      </trkpt>
      <trkpt lat="45.63928" lon="5.72317">
        <ele>659</ele>
        <time>2018-09-01T09:54:19Z</time>
      </trkpt>
      <trkpt lat="45.63934" lon="5.72318">
        <ele>659</ele>
        <time>2018-09-01T09:54:35Z</time>
      </trkpt>
      <trkpt lat="45.63939" lon="5.72317">
        <ele>659</ele>
        <time>2018-09-01T09:54:35Z</time>
      </trkpt>
      <trkpt lat="45.63945" lon="5.72315">
        <ele>659</ele>
        <time>2018-09-01T09:54:35Z</time>
      </trkpt>
      <trkpt lat="45.6395" lon="5.72313">
        <ele>659</ele>
        <time>2018-09-01T09:54:35Z</time>
      </trkpt>
      <trkpt lat="45.63957" lon="5.72311">
        <ele>659</ele>
        <time>2018-09-01T09:54:51Z</time>
      </trkpt>
      <trkpt lat="45.63961" lon="5.7231">
        <ele>660</ele>
        <time>2018-09-01T09:54:51Z</time>
      </trkpt>
      <trkpt lat="45.63964" lon="5.7231">
        <ele>660</ele>
        <time>2018-09-01T09:54:51Z</time>
      </trkpt>
      <trkpt lat="45.63967" lon="5.72308">
        <ele>660</ele>
        <time>2018-09-01T09:54:51Z</time>
      </trkpt>
      <trkpt lat="45.63977" lon="5.72306">
        <ele>660</ele>
        <time>2018-09-01T09:55:07Z</time>
      </trkpt>
      <trkpt lat="45.63983" lon="5.72305">
        <ele>660</ele>
        <time>2018-09-01T09:55:07Z</time>
      </trkpt>
      <trkpt lat="45.6399" lon="5.72306">
        <ele>660</ele>
        <time>2018-09-01T09:55:07Z</time>
      </trkpt>
      <trkpt lat="45.63995" lon="5.72308">
        <ele>660</ele>
        <time>2018-09-01T09:55:07Z</time>
      </trkpt>
      <trkpt lat="45.64" lon="5.7231">
        <ele>660</ele>
        <time>2018-09-01T09:55:23Z</time>
      </trkpt>
      <trkpt lat="45.64006" lon="5.72314">
        <ele>660</ele>
        <time>2018-09-01T09:55:23Z</time>
      </trkpt>
      <trkpt lat="45.64013" lon="5.72316">
        <ele>660</ele>
        <time>2018-09-01T09:55:23Z</time>
      </trkpt>
      <trkpt lat="45.64021" lon="5.72318">
        <ele>660</ele>
        <time>2018-09-01T09:55:23Z</time>
      </trkpt>
      <trkpt lat="45.64034" lon="5.72325">
        <ele>660</ele>
        <time>2018-09-01T09:56:07Z</time>
      </trkpt>
      <trkpt lat="45.64034" lon="5.72325">
        <ele>660</ele>
        <time>2018-09-01T09:56:07Z</time>
      </trkpt>
      <trkpt lat="45.64035" lon="5.72327">
        <ele>660</ele>
        <time>2018-09-01T09:56:07Z</time>
      </trkpt>
      <trkpt lat="45.64039" lon="5.72331">
        <ele>660</ele>
        <time>2018-09-01T09:56:07Z</time>
      </trkpt>
      <trkpt lat="45.64044" lon="5.72334">
        <ele>662</ele>
        <time>2018-09-01T09:56:07Z</time>
      </trkpt>
      <trkpt lat="45.64048" lon="5.72338">
        <ele>662</ele>
        <time>2018-09-01T09:56:23Z</time>
      </trkpt>
      <trkpt lat="45.64052" lon="5.72343">
        <ele>662</ele>
        <time>2018-09-01T09:56:23Z</time>
      </trkpt>
      <trkpt lat="45.64056" lon="5.72348">
        <ele>662</ele>
        <time>2018-09-01T09:56:23Z</time>
      </trkpt>
      <trkpt lat="45.6406" lon="5.72353">
        <ele>662</ele>
        <time>2018-09-01T09:56:23Z</time>
      </trkpt>
      <trkpt lat="45.64063" lon="5.72358">
        <ele>662</ele>
        <time>2018-09-01T09:56:39Z</time>
      </trkpt>
      <trkpt lat="45.64069" lon="5.72361">
        <ele>662</ele>
        <time>2018-09-01T09:56:39Z</time>
      </trkpt>
      <trkpt lat="45.64075" lon="5.72361">
        <ele>662</ele>
        <time>2018-09-01T09:56:39Z</time>
      </trkpt>
      <trkpt lat="45.64079" lon="5.72362">
        <ele>662</ele>
        <time>2018-09-01T09:56:39Z</time>
      </trkpt>
      <trkpt lat="45.64084" lon="5.72364">
        <ele>662</ele>
        <time>2018-09-01T09:56:55Z</time>
      </trkpt>
      <trkpt lat="45.64089" lon="5.72369">
        <ele>662</ele>
        <time>2018-09-01T09:56:55Z</time>
      </trkpt>
      <trkpt lat="45.64093" lon="5.72372">
        <ele>662</ele>
        <time>2018-09-01T09:56:55Z</time>
      </trkpt>
      <trkpt lat="45.64097" lon="5.72375">
        <ele>662</ele>
        <time>2018-09-01T09:56:55Z</time>
      </trkpt>
      <trkpt lat="45.641" lon="5.72377">
        <ele>651</ele>
        <time>2018-09-01T09:57:11Z</time>
      </trkpt>
      <trkpt lat="45.64104" lon="5.7238">
        <ele>651</ele>
        <time>2018-09-01T09:57:11Z</time>
      </trkpt>
      <trkpt lat="45.64108" lon="5.72381">
        <ele>651</ele>
        <time>2018-09-01T09:57:11Z</time>
      </trkpt>
      <trkpt lat="45.64111" lon="5.72384">
        <ele>651</ele>
        <time>2018-09-01T09:57:11Z</time>
      </trkpt>
      <trkpt lat="45.64115" lon="5.72387">
        <ele>651</ele>
        <time>2018-09-01T09:57:27Z</time>
      </trkpt>
      <trkpt lat="45.64118" lon="5.7239">
        <ele>651</ele>
        <time>2018-09-01T09:57:27Z</time>
      </trkpt>
      <trkpt lat="45.64122" lon="5.72392">
        <ele>651</ele>
        <time>2018-09-01T09:57:27Z</time>
      </trkpt>
      <trkpt lat="45.64126" lon="5.72391">
        <ele>655</ele>
        <time>2018-09-01T09:57:27Z</time>
      </trkpt>
      <trkpt lat="45.64133" lon="5.72395">
        <ele>655</ele>
        <time>2018-09-01T09:58:27Z</time>
      </trkpt>
      <trkpt lat="45.64134" lon="5.72394">
        <ele>655</ele>
        <time>2018-09-01T09:58:27Z</time>
      </trkpt>
      <trkpt lat="45.64136" lon="5.72394">
        <ele>655</ele>
        <time>2018-09-01T09:58:27Z</time>
      </trkpt>
      <trkpt lat="45.64138" lon="5.72395">
        <ele>655</ele>
        <time>2018-09-01T09:58:27Z</time>
      </trkpt>
      <trkpt lat="45.64138" lon="5.72396">
        <ele>655</ele>
        <time>2018-09-01T09:58:27Z</time>
      </trkpt>
      <trkpt lat="45.64143" lon="5.72396">
        <ele>655</ele>
        <time>2018-09-01T09:58:59Z</time>
      </trkpt>
      <trkpt lat="45.64144" lon="5.72394">
        <ele>655</ele>
        <time>2018-09-01T09:58:59Z</time>
      </trkpt>
      <trkpt lat="45.64147" lon="5.72395">
        <ele>655</ele>
        <time>2018-09-01T09:58:59Z</time>
      </trkpt>
      <trkpt lat="45.64148" lon="5.72397">
        <ele>655</ele>
        <time>2018-09-01T09:58:59Z</time>
      </trkpt>
      <trkpt lat="45.64149" lon="5.72398">
        <ele>655</ele>
        <time>2018-09-01T09:58:59Z</time>
      </trkpt>
      <trkpt lat="45.64152" lon="5.724">
        <ele>655</ele>
        <time>2018-09-01T09:59:15Z</time>
      </trkpt>
      <trkpt lat="45.64156" lon="5.72399">
        <ele>655</ele>
        <time>2018-09-01T09:59:15Z</time>
      </trkpt>
      <trkpt lat="45.6416" lon="5.724">
        <ele>655</ele>
        <time>2018-09-01T09:59:15Z</time>
      </trkpt>
      <trkpt lat="45.64166" lon="5.724">
        <ele>655</ele>
        <time>2018-09-01T09:59:15Z</time>
      </trkpt>
      <trkpt lat="45.64172" lon="5.72401">
        <ele>655</ele>
        <time>2018-09-01T09:59:31Z</time>
      </trkpt>
      <trkpt lat="45.64176" lon="5.72401">
        <ele>655</ele>
        <time>2018-09-01T09:59:31Z</time>
      </trkpt>
      <trkpt lat="45.6418" lon="5.724">
        <ele>655</ele>
        <time>2018-09-01T09:59:31Z</time>
      </trkpt>
      <trkpt lat="45.64186" lon="5.724">
        <ele>655</ele>
        <time>2018-09-01T09:59:31Z</time>
      </trkpt>
      <trkpt lat="45.64193" lon="5.72399">
        <ele>655</ele>
        <time>2018-09-01T09:59:47Z</time>
      </trkpt>
      <trkpt lat="45.64198" lon="5.72398">
        <ele>655</ele>
        <time>2018-09-01T09:59:47Z</time>
      </trkpt>
      <trkpt lat="45.64203" lon="5.72397">
        <ele>655</ele>
        <time>2018-09-01T09:59:47Z</time>
      </trkpt>
      <trkpt lat="45.64209" lon="5.72396">
        <ele>661</ele>
        <time>2018-09-01T09:59:47Z</time>
      </trkpt>
      <trkpt lat="45.64216" lon="5.72396">
        <ele>661</ele>
        <time>2018-09-01T10:00:03Z</time>
      </trkpt>
      <trkpt lat="45.64222" lon="5.72396">
        <ele>661</ele>
        <time>2018-09-01T10:00:03Z</time>
      </trkpt>
      <trkpt lat="45.64228" lon="5.72396">
        <ele>661</ele>
        <time>2018-09-01T10:00:03Z</time>
      </trkpt>
      <trkpt lat="45.64235" lon="5.72397">
        <ele>661</ele>
        <time>2018-09-01T10:00:03Z</time>
      </trkpt>
      <trkpt lat="45.64242" lon="5.72398">
        <ele>661</ele>
        <time>2018-09-01T10:00:19Z</time>
      </trkpt>
      <trkpt lat="45.64249" lon="5.72398">
        <ele>661</ele>
        <time>2018-09-01T10:00:19Z</time>
      </trkpt>
      <trkpt lat="45.64253" lon="5.72398">
        <ele>661</ele>
        <time>2018-09-01T10:00:19Z</time>
      </trkpt>
      <trkpt lat="45.64254" lon="5.72398">
        <ele>661</ele>
        <time>2018-09-01T10:00:19Z</time>
      </trkpt>
      <trkpt lat="45.64262" lon="5.72401">
        <ele>661</ele>
        <time>2018-09-01T10:00:35Z</time>
      </trkpt>
      <trkpt lat="45.64274" lon="5.72405">
        <ele>661</ele>
        <time>2018-09-01T10:00:35Z</time>
      </trkpt>
      <trkpt lat="45.64281" lon="5.72407">
        <ele>661</ele>
        <time>2018-09-01T10:00:35Z</time>
      </trkpt>
      <trkpt lat="45.64287" lon="5.72409">
        <ele>661</ele>
        <time>2018-09-01T10:00:35Z</time>
      </trkpt>
      <trkpt lat="45.64295" lon="5.72412">
        <ele>664</ele>
        <time>2018-09-01T10:00:51Z</time>
      </trkpt>
      <trkpt lat="45.643" lon="5.72413">
        <ele>664</ele>
        <time>2018-09-01T10:00:51Z</time>
      </trkpt>
      <trkpt lat="45.64306" lon="5.72414">
        <ele>664</ele>
        <time>2018-09-01T10:00:51Z</time>
      </trkpt>
      <trkpt lat="45.6431" lon="5.72415">
        <ele>664</ele>
        <time>2018-09-01T10:00:51Z</time>
      </trkpt>
      <trkpt lat="45.64316" lon="5.72416">
        <ele>664</ele>
        <time>2018-09-01T10:01:07Z</time>
      </trkpt>
      <trkpt lat="45.64324" lon="5.72418">
        <ele>664</ele>
        <time>2018-09-01T10:01:07Z</time>
      </trkpt>
      <trkpt lat="45.64331" lon="5.72419">
        <ele>664</ele>
        <time>2018-09-01T10:01:07Z</time>
      </trkpt>
      <trkpt lat="45.64336" lon="5.7242">
        <ele>664</ele>
        <time>2018-09-01T10:01:07Z</time>
      </trkpt>
      <trkpt lat="45.64342" lon="5.72422">
        <ele>664</ele>
        <time>2018-09-01T10:01:23Z</time>
      </trkpt>
      <trkpt lat="45.64346" lon="5.72423">
        <ele>664</ele>
        <time>2018-09-01T10:01:23Z</time>
      </trkpt>
      <trkpt lat="45.64351" lon="5.72426">
        <ele>664</ele>
        <time>2018-09-01T10:01:23Z</time>
      </trkpt>
      <trkpt lat="45.64355" lon="5.72427">
        <ele>664</ele>
        <time>2018-09-01T10:01:23Z</time>
      </trkpt>
      <trkpt lat="45.6436" lon="5.72429">
        <ele>664</ele>
        <time>2018-09-01T10:01:39Z</time>
      </trkpt>
      <trkpt lat="45.64365" lon="5.72432">
        <ele>664</ele>
        <time>2018-09-01T10:01:39Z</time>
      </trkpt>
      <trkpt lat="45.6437" lon="5.72434">
        <ele>664</ele>
        <time>2018-09-01T10:01:39Z</time>
      </trkpt>
      <trkpt lat="45.64375" lon="5.72435">
        <ele>661</ele>
        <time>2018-09-01T10:01:39Z</time>
      </trkpt>
      <trkpt lat="45.64381" lon="5.72439">
        <ele>661</ele>
        <time>2018-09-01T10:01:55Z</time>
      </trkpt>
      <trkpt lat="45.64386" lon="5.72442">
        <ele>661</ele>
        <time>2018-09-01T10:01:55Z</time>
      </trkpt>
      <trkpt lat="45.64392" lon="5.72445">
        <ele>661</ele>
        <time>2018-09-01T10:01:55Z</time>
      </trkpt>
      <trkpt lat="45.64398" lon="5.72449">
        <ele>661</ele>
        <time>2018-09-01T10:01:55Z</time>
      </trkpt>
      <trkpt lat="45.64403" lon="5.72453">
        <ele>661</ele>
        <time>2018-09-01T10:02:11Z</time>
      </trkpt>
      <trkpt lat="45.64408" lon="5.72456">
        <ele>661</ele>
        <time>2018-09-01T10:02:11Z</time>
      </trkpt>
      <trkpt lat="45.64414" lon="5.72459">
        <ele>650</ele>
        <time>2018-09-01T10:02:11Z</time>
      </trkpt>
      <trkpt lat="45.64419" lon="5.72462">
        <ele>650</ele>
        <time>2018-09-01T10:02:11Z</time>
      </trkpt>
      <trkpt lat="45.64425" lon="5.72463">
        <ele>650</ele>
        <time>2018-09-01T10:02:27Z</time>
      </trkpt>
      <trkpt lat="45.64431" lon="5.72465">
        <ele>650</ele>
        <time>2018-09-01T10:02:27Z</time>
      </trkpt>
      <trkpt lat="45.64437" lon="5.72468">
        <ele>650</ele>
        <time>2018-09-01T10:02:27Z</time>
      </trkpt>
      <trkpt lat="45.64442" lon="5.72472">
        <ele>650</ele>
        <time>2018-09-01T10:02:27Z</time>
      </trkpt>
      <trkpt lat="45.64448" lon="5.72475">
        <ele>650</ele>
        <time>2018-09-01T10:02:43Z</time>
      </trkpt>
      <trkpt lat="45.64454" lon="5.72477">
        <ele>650</ele>
        <time>2018-09-01T10:02:43Z</time>
      </trkpt>
      <trkpt lat="45.6446" lon="5.7248">
        <ele>653</ele>
        <time>2018-09-01T10:02:43Z</time>
      </trkpt>
      <trkpt lat="45.64466" lon="5.72483">
        <ele>653</ele>
        <time>2018-09-01T10:02:43Z</time>
      </trkpt>
      <trkpt lat="45.64473" lon="5.72486">
        <ele>653</ele>
        <time>2018-09-01T10:02:59Z</time>
      </trkpt>
      <trkpt lat="45.64479" lon="5.72487">
        <ele>653</ele>
        <time>2018-09-01T10:02:59Z</time>
      </trkpt>
      <trkpt lat="45.64484" lon="5.72489">
        <ele>653</ele>
        <time>2018-09-01T10:02:59Z</time>
      </trkpt>
      <trkpt lat="45.6449" lon="5.72489">
        <ele>653</ele>
        <time>2018-09-01T10:02:59Z</time>
      </trkpt>
      <trkpt lat="45.64496" lon="5.72489">
        <ele>653</ele>
        <time>2018-09-01T10:03:15Z</time>
      </trkpt>
      <trkpt lat="45.64503" lon="5.7249">
        <ele>653</ele>
        <time>2018-09-01T10:03:15Z</time>
      </trkpt>
      <trkpt lat="45.64509" lon="5.72491">
        <ele>653</ele>
        <time>2018-09-01T10:03:15Z</time>
      </trkpt>
      <trkpt lat="45.64515" lon="5.72492">
        <ele>653</ele>
        <time>2018-09-01T10:03:15Z</time>
      </trkpt>
      <trkpt lat="45.64522" lon="5.72492">
        <ele>653</ele>
        <time>2018-09-01T10:03:31Z</time>
      </trkpt>
      <trkpt lat="45.64528" lon="5.72492">
        <ele>653</ele>
        <time>2018-09-01T10:03:31Z</time>
      </trkpt>
      <trkpt lat="45.64534" lon="5.72491">
        <ele>653</ele>
        <time>2018-09-01T10:03:31Z</time>
      </trkpt>
      <trkpt lat="45.6454" lon="5.72492">
        <ele>653</ele>
        <time>2018-09-01T10:03:31Z</time>
      </trkpt>
      <trkpt lat="45.64547" lon="5.7249">
        <ele>643</ele>
        <time>2018-09-01T10:03:47Z</time>
      </trkpt>
      <trkpt lat="45.64553" lon="5.72489">
        <ele>643</ele>
        <time>2018-09-01T10:03:47Z</time>
      </trkpt>
      <trkpt lat="45.64559" lon="5.72487">
        <ele>643</ele>
        <time>2018-09-01T10:03:47Z</time>
      </trkpt>
      <trkpt lat="45.64566" lon="5.72486">
        <ele>643</ele>
        <time>2018-09-01T10:03:47Z</time>
      </trkpt>
      <trkpt lat="45.64572" lon="5.72486">
        <ele>643</ele>
        <time>2018-09-01T10:04:03Z</time>
      </trkpt>
      <trkpt lat="45.64578" lon="5.72486">
        <ele>643</ele>
        <time>2018-09-01T10:04:03Z</time>
      </trkpt>
      <trkpt lat="45.64585" lon="5.72481">
        <ele>643</ele>
        <time>2018-09-01T10:04:03Z</time>
      </trkpt>
      <trkpt lat="45.6459" lon="5.72474">
        <ele>643</ele>
        <time>2018-09-01T10:04:03Z</time>
      </trkpt>
      <trkpt lat="45.64593" lon="5.72469">
        <ele>643</ele>
        <time>2018-09-01T10:04:19Z</time>
      </trkpt>
      <trkpt lat="45.64592" lon="5.72464">
        <ele>643</ele>
        <time>2018-09-01T10:04:19Z</time>
      </trkpt>
      <trkpt lat="45.64591" lon="5.72456">
        <ele>653</ele>
        <time>2018-09-01T10:04:19Z</time>
      </trkpt>
      <trkpt lat="45.6459" lon="5.72449">
        <ele>653</ele>
        <time>2018-09-01T10:04:19Z</time>
      </trkpt>
      <trkpt lat="45.64589" lon="5.72442">
        <ele>653</ele>
        <time>2018-09-01T10:04:35Z</time>
      </trkpt>
      <trkpt lat="45.64588" lon="5.72435">
        <ele>653</ele>
        <time>2018-09-01T10:04:35Z</time>
      </trkpt>
      <trkpt lat="45.64586" lon="5.7243">
        <ele>653</ele>
        <time>2018-09-01T10:04:35Z</time>
      </trkpt>
      <trkpt lat="45.64588" lon="5.72423">
        <ele>653</ele>
        <time>2018-09-01T10:04:35Z</time>
      </trkpt>
      <trkpt lat="45.64592" lon="5.72414">
        <ele>653</ele>
        <time>2018-09-01T10:04:51Z</time>
      </trkpt>
      <trkpt lat="45.64593" lon="5.72406">
        <ele>653</ele>
        <time>2018-09-01T10:04:51Z</time>
      </trkpt>
      <trkpt lat="45.64595" lon="5.72397">
        <ele>653</ele>
        <time>2018-09-01T10:04:51Z</time>
      </trkpt>
      <trkpt lat="45.64595" lon="5.7239">
        <ele>653</ele>
        <time>2018-09-01T10:04:51Z</time>
      </trkpt>
      <trkpt lat="45.64598" lon="5.72383">
        <ele>653</ele>
        <time>2018-09-01T10:05:07Z</time>
      </trkpt>
      <trkpt lat="45.646" lon="5.7238">
        <ele>653</ele>
        <time>2018-09-01T10:05:07Z</time>
      </trkpt>
      <trkpt lat="45.64602" lon="5.72374">
        <ele>663</ele>
        <time>2018-09-01T10:05:07Z</time>
      </trkpt>
      <trkpt lat="45.64606" lon="5.72368">
        <ele>663</ele>
        <time>2018-09-01T10:05:07Z</time>
      </trkpt>
      <trkpt lat="45.6461" lon="5.72365">
        <ele>663</ele>
        <time>2018-09-01T10:05:23Z</time>
      </trkpt>
      <trkpt lat="45.64616" lon="5.72359">
        <ele>663</ele>
        <time>2018-09-01T10:05:23Z</time>
      </trkpt>
      <trkpt lat="45.64622" lon="5.72354">
        <ele>663</ele>
        <time>2018-09-01T10:05:23Z</time>
      </trkpt>
      <trkpt lat="45.64627" lon="5.7235">
        <ele>662</ele>
        <time>2018-09-01T10:05:23Z</time>
      </trkpt>
      <trkpt lat="45.64632" lon="5.72345">
        <ele>662</ele>
        <time>2018-09-01T10:05:39Z</time>
      </trkpt>
      <trkpt lat="45.64636" lon="5.72339">
        <ele>662</ele>
        <time>2018-09-01T10:05:39Z</time>
      </trkpt>
      <trkpt lat="45.6464" lon="5.72332">
        <ele>662</ele>
        <time>2018-09-01T10:05:39Z</time>
      </trkpt>
      <trkpt lat="45.64644" lon="5.72326">
        <ele>662</ele>
        <time>2018-09-01T10:05:39Z</time>
      </trkpt>
      <trkpt lat="45.64649" lon="5.7232">
        <ele>662</ele>
        <time>2018-09-01T10:05:55Z</time>
      </trkpt>
      <trkpt lat="45.64655" lon="5.72315">
        <ele>662</ele>
        <time>2018-09-01T10:05:55Z</time>
      </trkpt>
      <trkpt lat="45.6466" lon="5.7231">
        <ele>662</ele>
        <time>2018-09-01T10:05:55Z</time>
      </trkpt>
      <trkpt lat="45.64665" lon="5.72307">
        <ele>662</ele>
        <time>2018-09-01T10:05:55Z</time>
      </trkpt>
      <trkpt lat="45.64671" lon="5.72305">
        <ele>662</ele>
        <time>2018-09-01T10:06:11Z</time>
      </trkpt>
      <trkpt lat="45.64676" lon="5.72301">
        <ele>662</ele>
        <time>2018-09-01T10:06:11Z</time>
      </trkpt>
      <trkpt lat="45.64681" lon="5.72297">
        <ele>662</ele>
        <time>2018-09-01T10:06:11Z</time>
      </trkpt>
      <trkpt lat="45.64686" lon="5.72293">
        <ele>662</ele>
        <time>2018-09-01T10:06:11Z</time>
      </trkpt>
      <trkpt lat="45.64691" lon="5.72289">
        <ele>674</ele>
        <time>2018-09-01T10:06:27Z</time>
      </trkpt>
      <trkpt lat="45.64696" lon="5.72286">
        <ele>674</ele>
        <time>2018-09-01T10:06:27Z</time>
      </trkpt>
      <trkpt lat="45.647" lon="5.72279">
        <ele>674</ele>
        <time>2018-09-01T10:06:27Z</time>
      </trkpt>
      <trkpt lat="45.64702" lon="5.72273">
        <ele>674</ele>
        <time>2018-09-01T10:06:27Z</time>
      </trkpt>
      <trkpt lat="45.64706" lon="5.7227">
        <ele>674</ele>
        <time>2018-09-01T10:06:43Z</time>
      </trkpt>
      <trkpt lat="45.64711" lon="5.72268">
        <ele>669</ele>
        <time>2018-09-01T10:06:43Z</time>
      </trkpt>
      <trkpt lat="45.64714" lon="5.72267">
        <ele>669</ele>
        <time>2018-09-01T10:06:43Z</time>
      </trkpt>
      <trkpt lat="45.64719" lon="5.72266">
        <ele>669</ele>
        <time>2018-09-01T10:06:43Z</time>
      </trkpt>
      <trkpt lat="45.64724" lon="5.72264">
        <ele>669</ele>
        <time>2018-09-01T10:06:59Z</time>
      </trkpt>
      <trkpt lat="45.6473" lon="5.72263">
        <ele>669</ele>
        <time>2018-09-01T10:06:59Z</time>
      </trkpt>
      <trkpt lat="45.64735" lon="5.72262">
        <ele>669</ele>
        <time>2018-09-01T10:06:59Z</time>
      </trkpt>
      <trkpt lat="45.6474" lon="5.72263">
        <ele>669</ele>
        <time>2018-09-01T10:06:59Z</time>
      </trkpt>
      <trkpt lat="45.64745" lon="5.72262">
        <ele>669</ele>
        <time>2018-09-01T10:07:15Z</time>
      </trkpt>
      <trkpt lat="45.64749" lon="5.7226">
        <ele>669</ele>
        <time>2018-09-01T10:07:15Z</time>
      </trkpt>
      <trkpt lat="45.64754" lon="5.72259">
        <ele>669</ele>
        <time>2018-09-01T10:07:15Z</time>
      </trkpt>
      <trkpt lat="45.64758" lon="5.72259">
        <ele>669</ele>
        <time>2018-09-01T10:07:15Z</time>
      </trkpt>
      <trkpt lat="45.64763" lon="5.7226">
        <ele>669</ele>
        <time>2018-09-01T10:07:31Z</time>
      </trkpt>
      <trkpt lat="45.64767" lon="5.72261">
        <ele>669</ele>
        <time>2018-09-01T10:07:31Z</time>
      </trkpt>
      <trkpt lat="45.64771" lon="5.7226">
        <ele>669</ele>
        <time>2018-09-01T10:07:31Z</time>
      </trkpt>
      <trkpt lat="45.64775" lon="5.72262">
        <ele>669</ele>
        <time>2018-09-01T10:07:31Z</time>
      </trkpt>
      <trkpt lat="45.64777" lon="5.72263">
        <ele>669</ele>
        <time>2018-09-01T10:07:47Z</time>
      </trkpt>
      <trkpt lat="45.64781" lon="5.72263">
        <ele>669</ele>
        <time>2018-09-01T10:07:47Z</time>
      </trkpt>
      <trkpt lat="45.64787" lon="5.72261">
        <ele>669</ele>
        <time>2018-09-01T10:07:47Z</time>
      </trkpt>
      <trkpt lat="45.64791" lon="5.72259">
        <ele>669</ele>
        <time>2018-09-01T10:07:47Z</time>
      </trkpt>
      <trkpt lat="45.64796" lon="5.72254">
        <ele>669</ele>
        <time>2018-09-01T10:08:03Z</time>
      </trkpt>
      <trkpt lat="45.64802" lon="5.7225">
        <ele>669</ele>
        <time>2018-09-01T10:08:03Z</time>
      </trkpt>
      <trkpt lat="45.64807" lon="5.72248">
        <ele>669</ele>
        <time>2018-09-01T10:08:03Z</time>
      </trkpt>
      <trkpt lat="45.64812" lon="5.72247">
        <ele>669</ele>
        <time>2018-09-01T10:08:03Z</time>
      </trkpt>
      <trkpt lat="45.64816" lon="5.72245">
        <ele>669</ele>
        <time>2018-09-01T10:08:19Z</time>
      </trkpt>
      <trkpt lat="45.6482" lon="5.72242">
        <ele>669</ele>
        <time>2018-09-01T10:08:19Z</time>
      </trkpt>
      <trkpt lat="45.64826" lon="5.72241">
        <ele>669</ele>
        <time>2018-09-01T10:08:19Z</time>
      </trkpt>
      <trkpt lat="45.64831" lon="5.72237">
        <ele>669</ele>
        <time>2018-09-01T10:08:19Z</time>
      </trkpt>
      <trkpt lat="45.64836" lon="5.72231">
        <ele>669</ele>
        <time>2018-09-01T10:08:35Z</time>
      </trkpt>
      <trkpt lat="45.64841" lon="5.72226">
        <ele>669</ele>
        <time>2018-09-01T10:08:35Z</time>
      </trkpt>
      <trkpt lat="45.64845" lon="5.72221">
        <ele>669</ele>
        <time>2018-09-01T10:08:35Z</time>
      </trkpt>
      <trkpt lat="45.64852" lon="5.72218">
        <ele>669</ele>
        <time>2018-09-01T10:08:35Z</time>
      </trkpt>
      <trkpt lat="45.64858" lon="5.72216">
        <ele>669</ele>
        <time>2018-09-01T10:08:51Z</time>
      </trkpt>
      <trkpt lat="45.64862" lon="5.72212">
        <ele>669</ele>
        <time>2018-09-01T10:08:51Z</time>
      </trkpt>
      <trkpt lat="45.64868" lon="5.72209">
        <ele>669</ele>
        <time>2018-09-01T10:08:51Z</time>
      </trkpt>
      <trkpt lat="45.64877" lon="5.72205">
        <ele>686</ele>
        <time>2018-09-01T10:08:51Z</time>
      </trkpt>
      <trkpt lat="45.64886" lon="5.72201">
        <ele>686</ele>
        <time>2018-09-01T10:09:07Z</time>
      </trkpt>
      <trkpt lat="45.64892" lon="5.72198">
        <ele>686</ele>
        <time>2018-09-01T10:09:07Z</time>
      </trkpt>
      <trkpt lat="45.64899" lon="5.72199">
        <ele>686</ele>
        <time>2018-09-01T10:09:07Z</time>
      </trkpt>
      <trkpt lat="45.64904" lon="5.72203">
        <ele>686</ele>
        <time>2018-09-01T10:09:07Z</time>
      </trkpt>
      <trkpt lat="45.6491" lon="5.72207">
        <ele>686</ele>
        <time>2018-09-01T10:09:23Z</time>
      </trkpt>
      <trkpt lat="45.64916" lon="5.72209">
        <ele>675</ele>
        <time>2018-09-01T10:09:23Z</time>
      </trkpt>
      <trkpt lat="45.64922" lon="5.72212">
        <ele>675</ele>
        <time>2018-09-01T10:09:23Z</time>
      </trkpt>
      <trkpt lat="45.64928" lon="5.72214">
        <ele>675</ele>
        <time>2018-09-01T10:09:23Z</time>
      </trkpt>
      <trkpt lat="45.64934" lon="5.72216">
        <ele>675</ele>
        <time>2018-09-01T10:09:39Z</time>
      </trkpt>
      <trkpt lat="45.64939" lon="5.72217">
        <ele>675</ele>
        <time>2018-09-01T10:09:39Z</time>
      </trkpt>
      <trkpt lat="45.64944" lon="5.72219">
        <ele>675</ele>
        <time>2018-09-01T10:09:39Z</time>
      </trkpt>
      <trkpt lat="45.64964" lon="5.72219">
        <ele>675</ele>
        <time>2018-09-01T10:09:39Z</time>
      </trkpt>
      <trkpt lat="45.64988" lon="5.72218">
        <ele>675</ele>
        <time>2018-09-01T10:09:55Z</time>
      </trkpt>
      <trkpt lat="45.65008" lon="5.72214">
        <ele>675</ele>
        <time>2018-09-01T10:09:55Z</time>
      </trkpt>
      <trkpt lat="45.65025" lon="5.72203">
        <ele>686</ele>
        <time>2018-09-01T10:09:55Z</time>
      </trkpt>
      <trkpt lat="45.65037" lon="5.72197">
        <ele>686</ele>
        <time>2018-09-01T10:09:55Z</time>
      </trkpt>
      <trkpt lat="45.65044" lon="5.72195">
        <ele>681</ele>
        <time>2018-09-01T10:10:11Z</time>
      </trkpt>
      <trkpt lat="45.65048" lon="5.72193">
        <ele>681</ele>
        <time>2018-09-01T10:10:11Z</time>
      </trkpt>
      <trkpt lat="45.65052" lon="5.72191">
        <ele>681</ele>
        <time>2018-09-01T10:10:11Z</time>
      </trkpt>
      <trkpt lat="45.65058" lon="5.72192">
        <ele>681</ele>
        <time>2018-09-01T10:10:11Z</time>
      </trkpt>
      <trkpt lat="45.65065" lon="5.72193">
        <ele>681</ele>
        <time>2018-09-01T10:10:27Z</time>
      </trkpt>
      <trkpt lat="45.65071" lon="5.72192">
        <ele>681</ele>
        <time>2018-09-01T10:10:27Z</time>
      </trkpt>
      <trkpt lat="45.65077" lon="5.72192">
        <ele>681</ele>
        <time>2018-09-01T10:10:27Z</time>
      </trkpt>
      <trkpt lat="45.65083" lon="5.72193">
        <ele>681</ele>
        <time>2018-09-01T10:10:27Z</time>
      </trkpt>
      <trkpt lat="45.65089" lon="5.72193">
        <ele>681</ele>
        <time>2018-09-01T10:10:43Z</time>
      </trkpt>
      <trkpt lat="45.65095" lon="5.72193">
        <ele>681</ele>
        <time>2018-09-01T10:10:43Z</time>
      </trkpt>
      <trkpt lat="45.65102" lon="5.72193">
        <ele>681</ele>
        <time>2018-09-01T10:10:43Z</time>
      </trkpt>
      <trkpt lat="45.65107" lon="5.72191">
        <ele>681</ele>
        <time>2018-09-01T10:10:43Z</time>
      </trkpt>
      <trkpt lat="45.65111" lon="5.7219">
        <ele>681</ele>
        <time>2018-09-01T10:10:59Z</time>
      </trkpt>
      <trkpt lat="45.65115" lon="5.7219">
        <ele>681</ele>
        <time>2018-09-01T10:10:59Z</time>
      </trkpt>
      <trkpt lat="45.65123" lon="5.7219">
        <ele>681</ele>
        <time>2018-09-01T10:10:59Z</time>
      </trkpt>
      <trkpt lat="45.65129" lon="5.72188">
        <ele>674</ele>
        <time>2018-09-01T10:10:59Z</time>
      </trkpt>
      <trkpt lat="45.65135" lon="5.72187">
        <ele>674</ele>
        <time>2018-09-01T10:11:15Z</time>
      </trkpt>
      <trkpt lat="45.65142" lon="5.72187">
        <ele>674</ele>
        <time>2018-09-01T10:11:15Z</time>
      </trkpt>
      <trkpt lat="45.65149" lon="5.72184">
        <ele>674</ele>
        <time>2018-09-01T10:11:15Z</time>
      </trkpt>
      <trkpt lat="45.65156" lon="5.72183">
        <ele>674</ele>
        <time>2018-09-01T10:11:15Z</time>
      </trkpt>
      <trkpt lat="45.65163" lon="5.72181">
        <ele>674</ele>
        <time>2018-09-01T10:11:31Z</time>
      </trkpt>
      <trkpt lat="45.6517" lon="5.72179">
        <ele>674</ele>
        <time>2018-09-01T10:11:31Z</time>
      </trkpt>
      <trkpt lat="45.65176" lon="5.72175">
        <ele>674</ele>
        <time>2018-09-01T10:11:31Z</time>
      </trkpt>
      <trkpt lat="45.65181" lon="5.7217">
        <ele>674</ele>
        <time>2018-09-01T10:11:31Z</time>
      </trkpt>
      <trkpt lat="45.65186" lon="5.72168">
        <ele>674</ele>
        <time>2018-09-01T10:11:47Z</time>
      </trkpt>
      <trkpt lat="45.65192" lon="5.72165">
        <ele>674</ele>
        <time>2018-09-01T10:11:47Z</time>
      </trkpt>
      <trkpt lat="45.65198" lon="5.72164">
        <ele>674</ele>
        <time>2018-09-01T10:11:47Z</time>
      </trkpt>
      <trkpt lat="45.65204" lon="5.72163">
        <ele>674</ele>
        <time>2018-09-01T10:11:47Z</time>
      </trkpt>
      <trkpt lat="45.6521" lon="5.72165">
        <ele>666</ele>
        <time>2018-09-01T10:12:03Z</time>
      </trkpt>
      <trkpt lat="45.65216" lon="5.72167">
        <ele>666</ele>
        <time>2018-09-01T10:12:03Z</time>
      </trkpt>
      <trkpt lat="45.65222" lon="5.72168">
        <ele>666</ele>
        <time>2018-09-01T10:12:03Z</time>
      </trkpt>
      <trkpt lat="45.65228" lon="5.72167">
        <ele>666</ele>
        <time>2018-09-01T10:12:03Z</time>
      </trkpt>
      <trkpt lat="45.65234" lon="5.72166">
        <ele>666</ele>
        <time>2018-09-01T10:12:19Z</time>
      </trkpt>
      <trkpt lat="45.6524" lon="5.72167">
        <ele>666</ele>
        <time>2018-09-01T10:12:19Z</time>
      </trkpt>
      <trkpt lat="45.65247" lon="5.72171">
        <ele>666</ele>
        <time>2018-09-01T10:12:19Z</time>
      </trkpt>
      <trkpt lat="45.65254" lon="5.72171">
        <ele>666</ele>
        <time>2018-09-01T10:12:19Z</time>
      </trkpt>
      <trkpt lat="45.65261" lon="5.72172">
        <ele>666</ele>
        <time>2018-09-01T10:12:35Z</time>
      </trkpt>
      <trkpt lat="45.65269" lon="5.7218">
        <ele>666</ele>
        <time>2018-09-01T10:12:35Z</time>
      </trkpt>
      <trkpt lat="45.65275" lon="5.72192">
        <ele>666</ele>
        <time>2018-09-01T10:12:35Z</time>
      </trkpt>
      <trkpt lat="45.65277" lon="5.72204">
        <ele>666</ele>
        <time>2018-09-01T10:12:35Z</time>
      </trkpt>
      <trkpt lat="45.65279" lon="5.72212">
        <ele>656</ele>
        <time>2018-09-01T10:12:51Z</time>
      </trkpt>
      <trkpt lat="45.6528" lon="5.7222">
        <ele>656</ele>
        <time>2018-09-01T10:12:51Z</time>
      </trkpt>
      <trkpt lat="45.6528" lon="5.72229">
        <ele>656</ele>
        <time>2018-09-01T10:12:51Z</time>
      </trkpt>
      <trkpt lat="45.65282" lon="5.72236">
        <ele>656</ele>
        <time>2018-09-01T10:12:51Z</time>
      </trkpt>
      <trkpt lat="45.65285" lon="5.72241">
        <ele>656</ele>
        <time>2018-09-01T10:13:07Z</time>
      </trkpt>
      <trkpt lat="45.65285" lon="5.72252">
        <ele>656</ele>
        <time>2018-09-01T10:13:07Z</time>
      </trkpt>
      <trkpt lat="45.65284" lon="5.72262">
        <ele>656</ele>
        <time>2018-09-01T10:13:07Z</time>
      </trkpt>
      <trkpt lat="45.65282" lon="5.72272">
        <ele>656</ele>
        <time>2018-09-01T10:13:07Z</time>
      </trkpt>
      <trkpt lat="45.65282" lon="5.72282">
        <ele>656</ele>
        <time>2018-09-01T10:13:23Z</time>
      </trkpt>
      <trkpt lat="45.65283" lon="5.7229">
        <ele>656</ele>
        <time>2018-09-01T10:13:23Z</time>
      </trkpt>
      <trkpt lat="45.65284" lon="5.72299">
        <ele>647</ele>
        <time>2018-09-01T10:13:23Z</time>
      </trkpt>
      <trkpt lat="45.65284" lon="5.72309">
        <ele>647</ele>
        <time>2018-09-01T10:13:23Z</time>
      </trkpt>
      <trkpt lat="45.65283" lon="5.72317">
        <ele>647</ele>
        <time>2018-09-01T10:13:39Z</time>
      </trkpt>
      <trkpt lat="45.65283" lon="5.72325">
        <ele>647</ele>
        <time>2018-09-01T10:13:39Z</time>
      </trkpt>
      <trkpt lat="45.65287" lon="5.72331">
        <ele>647</ele>
        <time>2018-09-01T10:13:39Z</time>
      </trkpt>
      <trkpt lat="45.65292" lon="5.72335">
        <ele>640</ele>
        <time>2018-09-01T10:13:39Z</time>
      </trkpt>
      <trkpt lat="45.65298" lon="5.72339">
        <ele>640</ele>
        <time>2018-09-01T10:13:55Z</time>
      </trkpt>
      <trkpt lat="45.65302" lon="5.72346">
        <ele>640</ele>
        <time>2018-09-01T10:13:55Z</time>
      </trkpt>
      <trkpt lat="45.65301" lon="5.72355">
        <ele>640</ele>
        <time>2018-09-01T10:13:55Z</time>
      </trkpt>
      <trkpt lat="45.65298" lon="5.72363">
        <ele>640</ele>
        <time>2018-09-01T10:13:55Z</time>
      </trkpt>
      <trkpt lat="45.65295" lon="5.7237">
        <ele>640</ele>
        <time>2018-09-01T10:14:11Z</time>
      </trkpt>
      <trkpt lat="45.65296" lon="5.72379">
        <ele>630</ele>
        <time>2018-09-01T10:14:11Z</time>
      </trkpt>
      <trkpt lat="45.65297" lon="5.72388">
        <ele>630</ele>
        <time>2018-09-01T10:14:11Z</time>
      </trkpt>
      <trkpt lat="45.65299" lon="5.72397">
        <ele>630</ele>
        <time>2018-09-01T10:14:11Z</time>
      </trkpt>
      <trkpt lat="45.653" lon="5.72406">
        <ele>630</ele>
        <time>2018-09-01T10:14:27Z</time>
      </trkpt>
      <trkpt lat="45.65301" lon="5.72416">
        <ele>630</ele>
        <time>2018-09-01T10:14:27Z</time>
      </trkpt>
      <trkpt lat="45.65302" lon="5.72423">
        <ele>630</ele>
        <time>2018-09-01T10:14:27Z</time>
      </trkpt>
      <trkpt lat="45.65303" lon="5.72431">
        <ele>630</ele>
        <time>2018-09-01T10:14:27Z</time>
      </trkpt>
      <trkpt lat="45.65303" lon="5.72441">
        <ele>630</ele>
        <time>2018-09-01T10:14:43Z</time>
      </trkpt>
      <trkpt lat="45.65304" lon="5.7245">
        <ele>630</ele>
        <time>2018-09-01T10:14:43Z</time>
      </trkpt>
      <trkpt lat="45.65306" lon="5.72458">
        <ele>630</ele>
        <time>2018-09-01T10:14:43Z</time>
      </trkpt>
      <trkpt lat="45.65309" lon="5.72465">
        <ele>628</ele>
        <time>2018-09-01T10:14:43Z</time>
      </trkpt>
      <trkpt lat="45.65312" lon="5.72473">
        <ele>628</ele>
        <time>2018-09-01T10:14:59Z</time>
      </trkpt>
      <trkpt lat="45.65315" lon="5.7248">
        <ele>628</ele>
        <time>2018-09-01T10:14:59Z</time>
      </trkpt>
      <trkpt lat="45.65319" lon="5.72488">
        <ele>628</ele>
        <time>2018-09-01T10:14:59Z</time>
      </trkpt>
      <trkpt lat="45.65323" lon="5.72495">
        <ele>628</ele>
        <time>2018-09-01T10:14:59Z</time>
      </trkpt>
      <trkpt lat="45.65328" lon="5.72503">
        <ele>628</ele>
        <time>2018-09-01T10:15:15Z</time>
      </trkpt>
      <trkpt lat="45.65331" lon="5.72511">
        <ele>628</ele>
        <time>2018-09-01T10:15:15Z</time>
      </trkpt>
      <trkpt lat="45.65335" lon="5.72519">
        <ele>628</ele>
        <time>2018-09-01T10:15:15Z</time>
      </trkpt>
      <trkpt lat="45.6534" lon="5.72525">
        <ele>628</ele>
        <time>2018-09-01T10:15:15Z</time>
      </trkpt>
      <trkpt lat="45.65344" lon="5.72531">
        <ele>628</ele>
        <time>2018-09-01T10:15:31Z</time>
      </trkpt>
      <trkpt lat="45.65349" lon="5.72537">
        <ele>628</ele>
        <time>2018-09-01T10:15:31Z</time>
      </trkpt>
      <trkpt lat="45.65353" lon="5.72544">
        <ele>630</ele>
        <time>2018-09-01T10:15:31Z</time>
      </trkpt>
      <trkpt lat="45.65357" lon="5.72553">
        <ele>630</ele>
        <time>2018-09-01T10:15:31Z</time>
      </trkpt>
      <trkpt lat="45.65362" lon="5.72562">
        <ele>630</ele>
        <time>2018-09-01T10:15:47Z</time>
      </trkpt>
      <trkpt lat="45.65368" lon="5.72572">
        <ele>630</ele>
        <time>2018-09-01T10:15:47Z</time>
      </trkpt>
      <trkpt lat="45.65375" lon="5.72579">
        <ele>623</ele>
        <time>2018-09-01T10:15:47Z</time>
      </trkpt>
      <trkpt lat="45.65386" lon="5.72587">
        <ele>623</ele>
        <time>2018-09-01T10:15:47Z</time>
      </trkpt>
      <trkpt lat="45.65397" lon="5.72591">
        <ele>623</ele>
        <time>2018-09-01T10:16:03Z</time>
      </trkpt>
      <trkpt lat="45.65405" lon="5.72596">
        <ele>623</ele>
        <time>2018-09-01T10:16:03Z</time>
      </trkpt>
      <trkpt lat="45.6541" lon="5.72598">
        <ele>623</ele>
        <time>2018-09-01T10:16:03Z</time>
      </trkpt>
      <trkpt lat="45.65416" lon="5.72599">
        <ele>623</ele>
        <time>2018-09-01T10:16:03Z</time>
      </trkpt>
      <trkpt lat="45.65423" lon="5.72603">
        <ele>623</ele>
        <time>2018-09-01T10:16:19Z</time>
      </trkpt>
      <trkpt lat="45.65428" lon="5.72609">
        <ele>623</ele>
        <time>2018-09-01T10:16:19Z</time>
      </trkpt>
      <trkpt lat="45.65434" lon="5.72612">
        <ele>623</ele>
        <time>2018-09-01T10:16:19Z</time>
      </trkpt>
      <trkpt lat="45.65441" lon="5.72617">
        <ele>623</ele>
        <time>2018-09-01T10:16:19Z</time>
      </trkpt>
      <trkpt lat="45.65446" lon="5.72621">
        <ele>623</ele>
        <time>2018-09-01T10:16:35Z</time>
      </trkpt>
      <trkpt lat="45.65452" lon="5.72626">
        <ele>634</ele>
        <time>2018-09-01T10:16:35Z</time>
      </trkpt>
      <trkpt lat="45.65454" lon="5.72632">
        <ele>634</ele>
        <time>2018-09-01T10:16:35Z</time>
      </trkpt>
      <trkpt lat="45.65459" lon="5.72637">
        <ele>621</ele>
        <time>2018-09-01T10:16:35Z</time>
      </trkpt>
      <trkpt lat="45.65463" lon="5.72643">
        <ele>621</ele>
        <time>2018-09-01T10:16:51Z</time>
      </trkpt>
      <trkpt lat="45.65469" lon="5.72645">
        <ele>621</ele>
        <time>2018-09-01T10:16:51Z</time>
      </trkpt>
      <trkpt lat="45.65476" lon="5.7265">
        <ele>621</ele>
        <time>2018-09-01T10:16:51Z</time>
      </trkpt>
      <trkpt lat="45.65483" lon="5.72653">
        <ele>621</ele>
        <time>2018-09-01T10:16:51Z</time>
      </trkpt>
      <trkpt lat="45.65488" lon="5.72658">
        <ele>621</ele>
        <time>2018-09-01T10:17:07Z</time>
      </trkpt>
      <trkpt lat="45.65493" lon="5.72665">
        <ele>621</ele>
        <time>2018-09-01T10:17:07Z</time>
      </trkpt>
      <trkpt lat="45.65497" lon="5.72671">
        <ele>621</ele>
        <time>2018-09-01T10:17:07Z</time>
      </trkpt>
      <trkpt lat="45.65502" lon="5.72676">
        <ele>621</ele>
        <time>2018-09-01T10:17:07Z</time>
      </trkpt>
      <trkpt lat="45.65507" lon="5.72681">
        <ele>621</ele>
        <time>2018-09-01T10:17:23Z</time>
      </trkpt>
      <trkpt lat="45.65513" lon="5.72687">
        <ele>621</ele>
        <time>2018-09-01T10:17:23Z</time>
      </trkpt>
      <trkpt lat="45.65522" lon="5.72695">
        <ele>621</ele>
        <time>2018-09-01T10:17:23Z</time>
      </trkpt>
      <trkpt lat="45.65526" lon="5.72699">
        <ele>621</ele>
        <time>2018-09-01T10:17:23Z</time>
      </trkpt>
      <trkpt lat="45.65531" lon="5.72701">
        <ele>621</ele>
        <time>2018-09-01T10:17:39Z</time>
      </trkpt>
      <trkpt lat="45.65537" lon="5.72703">
        <ele>621</ele>
        <time>2018-09-01T10:17:39Z</time>
      </trkpt>
      <trkpt lat="45.65543" lon="5.72705">
        <ele>608</ele>
        <time>2018-09-01T10:17:39Z</time>
      </trkpt>
      <trkpt lat="45.65547" lon="5.7271">
        <ele>621</ele>
        <time>2018-09-01T10:17:39Z</time>
      </trkpt>
      <trkpt lat="45.65551" lon="5.72714">
        <ele>621</ele>
        <time>2018-09-01T10:17:55Z</time>
      </trkpt>
      <trkpt lat="45.65556" lon="5.72719">
        <ele>621</ele>
        <time>2018-09-01T10:17:55Z</time>
      </trkpt>
      <trkpt lat="45.6556" lon="5.72724">
        <ele>621</ele>
        <time>2018-09-01T10:17:55Z</time>
      </trkpt>
      <trkpt lat="45.65563" lon="5.72731">
        <ele>621</ele>
        <time>2018-09-01T10:17:55Z</time>
      </trkpt>
      <trkpt lat="45.6557" lon="5.72748">
        <ele>621</ele>
        <time>2018-09-01T10:18:27Z</time>
      </trkpt>
      <trkpt lat="45.65569" lon="5.72748">
        <ele>621</ele>
        <time>2018-09-01T10:18:27Z</time>
      </trkpt>
      <trkpt lat="45.6557" lon="5.7275">
        <ele>621</ele>
        <time>2018-09-01T10:18:27Z</time>
      </trkpt>
      <trkpt lat="45.65573" lon="5.72755">
        <ele>621</ele>
        <time>2018-09-01T10:18:27Z</time>
      </trkpt>
      <trkpt lat="45.65576" lon="5.72762">
        <ele>621</ele>
        <time>2018-09-01T10:18:27Z</time>
      </trkpt>
      <trkpt lat="45.6558" lon="5.72769">
        <ele>621</ele>
        <time>2018-09-01T10:18:43Z</time>
      </trkpt>
      <trkpt lat="45.65585" lon="5.72776">
        <ele>621</ele>
        <time>2018-09-01T10:18:43Z</time>
      </trkpt>
      <trkpt lat="45.65589" lon="5.72782">
        <ele>621</ele>
        <time>2018-09-01T10:18:43Z</time>
      </trkpt>
      <trkpt lat="45.65594" lon="5.72789">
        <ele>621</ele>
        <time>2018-09-01T10:18:43Z</time>
      </trkpt>
      <trkpt lat="45.65603" lon="5.72801">
        <ele>623</ele>
        <time>2018-09-01T10:18:59Z</time>
      </trkpt>
      <trkpt lat="45.65608" lon="5.7281">
        <ele>623</ele>
        <time>2018-09-01T10:18:59Z</time>
      </trkpt>
      <trkpt lat="45.65611" lon="5.72817">
        <ele>623</ele>
        <time>2018-09-01T10:18:59Z</time>
      </trkpt>
      <trkpt lat="45.65614" lon="5.72822">
        <ele>623</ele>
        <time>2018-09-01T10:18:59Z</time>
      </trkpt>
      <trkpt lat="45.65617" lon="5.72828">
        <ele>623</ele>
        <time>2018-09-01T10:19:15Z</time>
      </trkpt>
      <trkpt lat="45.65622" lon="5.72832">
        <ele>623</ele>
        <time>2018-09-01T10:19:15Z</time>
      </trkpt>
      <trkpt lat="45.65623" lon="5.72835">
        <ele>623</ele>
        <time>2018-09-01T10:19:15Z</time>
      </trkpt>
      <trkpt lat="45.65624" lon="5.72842">
        <ele>623</ele>
        <time>2018-09-01T10:19:15Z</time>
      </trkpt>
      <trkpt lat="45.65626" lon="5.72849">
        <ele>611</ele>
        <time>2018-09-01T10:19:31Z</time>
      </trkpt>
      <trkpt lat="45.65629" lon="5.72856">
        <ele>611</ele>
        <time>2018-09-01T10:19:31Z</time>
      </trkpt>
      <trkpt lat="45.65632" lon="5.72864">
        <ele>611</ele>
        <time>2018-09-01T10:19:31Z</time>
      </trkpt>
      <trkpt lat="45.65636" lon="5.72873">
        <ele>611</ele>
        <time>2018-09-01T10:19:31Z</time>
      </trkpt>
      <trkpt lat="45.6564" lon="5.72881">
        <ele>609</ele>
        <time>2018-09-01T10:19:47Z</time>
      </trkpt>
      <trkpt lat="45.65643" lon="5.72889">
        <ele>609</ele>
        <time>2018-09-01T10:19:47Z</time>
      </trkpt>
      <trkpt lat="45.65646" lon="5.72897">
        <ele>609</ele>
        <time>2018-09-01T10:19:47Z</time>
      </trkpt>
      <trkpt lat="45.65649" lon="5.72905">
        <ele>609</ele>
        <time>2018-09-01T10:19:47Z</time>
      </trkpt>
      <trkpt lat="45.65652" lon="5.72913">
        <ele>609</ele>
        <time>2018-09-01T10:20:03Z</time>
      </trkpt>
      <trkpt lat="45.65654" lon="5.7292">
        <ele>609</ele>
        <time>2018-09-01T10:20:03Z</time>
      </trkpt>
      <trkpt lat="45.65657" lon="5.72927">
        <ele>609</ele>
        <time>2018-09-01T10:20:03Z</time>
      </trkpt>
      <trkpt lat="45.65659" lon="5.72934">
        <ele>609</ele>
        <time>2018-09-01T10:20:03Z</time>
      </trkpt>
      <trkpt lat="45.65662" lon="5.72942">
        <ele>609</ele>
        <time>2018-09-01T10:20:19Z</time>
      </trkpt>
      <trkpt lat="45.65664" lon="5.72949">
        <ele>609</ele>
        <time>2018-09-01T10:20:19Z</time>
      </trkpt>
      <trkpt lat="45.65668" lon="5.72955">
        <ele>609</ele>
        <time>2018-09-01T10:20:19Z</time>
      </trkpt>
      <trkpt lat="45.65672" lon="5.72961">
        <ele>606</ele>
        <time>2018-09-01T10:20:19Z</time>
      </trkpt>
      <trkpt lat="45.65676" lon="5.72966">
        <ele>606</ele>
        <time>2018-09-01T10:20:35Z</time>
      </trkpt>
      <trkpt lat="45.65681" lon="5.7297">
        <ele>606</ele>
        <time>2018-09-01T10:20:35Z</time>
      </trkpt>
      <trkpt lat="45.65684" lon="5.72975">
        <ele>606</ele>
        <time>2018-09-01T10:20:35Z</time>
      </trkpt>
      <trkpt lat="45.65688" lon="5.7298">
        <ele>606</ele>
        <time>2018-09-01T10:20:35Z</time>
      </trkpt>
      <trkpt lat="45.65691" lon="5.72986">
        <ele>606</ele>
        <time>2018-09-01T10:20:51Z</time>
      </trkpt>
      <trkpt lat="45.65695" lon="5.72992">
        <ele>606</ele>
        <time>2018-09-01T10:20:51Z</time>
      </trkpt>
      <trkpt lat="45.65699" lon="5.72998">
        <ele>606</ele>
        <time>2018-09-01T10:20:51Z</time>
      </trkpt>
      <trkpt lat="45.65704" lon="5.73003">
        <ele>606</ele>
        <time>2018-09-01T10:20:51Z</time>
      </trkpt>
      <trkpt lat="45.65708" lon="5.73009">
        <ele>606</ele>
        <time>2018-09-01T10:21:07Z</time>
      </trkpt>
      <trkpt lat="45.65713" lon="5.73014">
        <ele>601</ele>
        <time>2018-09-01T10:21:07Z</time>
      </trkpt>
      <trkpt lat="45.65716" lon="5.73018">
        <ele>601</ele>
        <time>2018-09-01T10:21:07Z</time>
      </trkpt>
      <trkpt lat="45.6572" lon="5.73021">
        <ele>601</ele>
        <time>2018-09-01T10:21:07Z</time>
      </trkpt>
      <trkpt lat="45.65723" lon="5.73024">
        <ele>601</ele>
        <time>2018-09-01T10:21:23Z</time>
      </trkpt>
      <trkpt lat="45.65728" lon="5.73032">
        <ele>601</ele>
        <time>2018-09-01T10:21:23Z</time>
      </trkpt>
      <trkpt lat="45.65733" lon="5.73038">
        <ele>601</ele>
        <time>2018-09-01T10:21:23Z</time>
      </trkpt>
      <trkpt lat="45.65737" lon="5.73044">
        <ele>600</ele>
        <time>2018-09-01T10:21:23Z</time>
      </trkpt>
      <trkpt lat="45.65741" lon="5.73047">
        <ele>600</ele>
        <time>2018-09-01T10:21:39Z</time>
      </trkpt>
      <trkpt lat="45.65744" lon="5.73051">
        <ele>600</ele>
        <time>2018-09-01T10:21:39Z</time>
      </trkpt>
      <trkpt lat="45.65749" lon="5.73055">
        <ele>600</ele>
        <time>2018-09-01T10:21:39Z</time>
      </trkpt>
      <trkpt lat="45.65753" lon="5.73061">
        <ele>600</ele>
        <time>2018-09-01T10:21:39Z</time>
      </trkpt>
      <trkpt lat="45.65757" lon="5.73067">
        <ele>600</ele>
        <time>2018-09-01T10:21:55Z</time>
      </trkpt>
      <trkpt lat="45.65761" lon="5.73073">
        <ele>600</ele>
        <time>2018-09-01T10:21:55Z</time>
      </trkpt>
      <trkpt lat="45.65766" lon="5.73077">
        <ele>600</ele>
        <time>2018-09-01T10:21:55Z</time>
      </trkpt>
      <trkpt lat="45.65771" lon="5.73083">
        <ele>600</ele>
        <time>2018-09-01T10:21:55Z</time>
      </trkpt>
      <trkpt lat="45.65776" lon="5.73087">
        <ele>600</ele>
        <time>2018-09-01T10:22:11Z</time>
      </trkpt>
      <trkpt lat="45.65779" lon="5.73092">
        <ele>600</ele>
        <time>2018-09-01T10:22:11Z</time>
      </trkpt>
      <trkpt lat="45.65784" lon="5.73094">
        <ele>600</ele>
        <time>2018-09-01T10:22:11Z</time>
      </trkpt>
      <trkpt lat="45.65789" lon="5.73096">
        <ele>600</ele>
        <time>2018-09-01T10:22:11Z</time>
      </trkpt>
      <trkpt lat="45.65794" lon="5.73099">
        <ele>600</ele>
        <time>2018-09-01T10:22:27Z</time>
      </trkpt>
      <trkpt lat="45.65799" lon="5.73102">
        <ele>600</ele>
        <time>2018-09-01T10:22:27Z</time>
      </trkpt>
      <trkpt lat="45.65806" lon="5.73106">
        <ele>600</ele>
        <time>2018-09-01T10:22:27Z</time>
      </trkpt>
      <trkpt lat="45.65811" lon="5.7311">
        <ele>600</ele>
        <time>2018-09-01T10:22:27Z</time>
      </trkpt>
      <trkpt lat="45.65816" lon="5.73114">
        <ele>600</ele>
        <time>2018-09-01T10:22:43Z</time>
      </trkpt>
      <trkpt lat="45.6582" lon="5.73116">
        <ele>600</ele>
        <time>2018-09-01T10:22:43Z</time>
      </trkpt>
      <trkpt lat="45.65825" lon="5.73119">
        <ele>600</ele>
        <time>2018-09-01T10:22:43Z</time>
      </trkpt>
      <trkpt lat="45.65832" lon="5.73122">
        <ele>600</ele>
        <time>2018-09-01T10:22:43Z</time>
      </trkpt>
      <trkpt lat="45.65835" lon="5.73124">
        <ele>600</ele>
        <time>2018-09-01T10:22:59Z</time>
      </trkpt>
      <trkpt lat="45.6584" lon="5.73127">
        <ele>600</ele>
        <time>2018-09-01T10:22:59Z</time>
      </trkpt>
      <trkpt lat="45.65845" lon="5.73129">
        <ele>600</ele>
        <time>2018-09-01T10:22:59Z</time>
      </trkpt>
      <trkpt lat="45.6585" lon="5.73132">
        <ele>600</ele>
        <time>2018-09-01T10:22:59Z</time>
      </trkpt>
      <trkpt lat="45.65857" lon="5.73135">
        <ele>600</ele>
        <time>2018-09-01T10:23:15Z</time>
      </trkpt>
      <trkpt lat="45.65862" lon="5.73138">
        <ele>600</ele>
        <time>2018-09-01T10:23:15Z</time>
      </trkpt>
      <trkpt lat="45.65866" lon="5.7314">
        <ele>600</ele>
        <time>2018-09-01T10:23:15Z</time>
      </trkpt>
      <trkpt lat="45.65872" lon="5.73142">
        <ele>600</ele>
        <time>2018-09-01T10:23:15Z</time>
      </trkpt>
      <trkpt lat="45.65877" lon="5.73146">
        <ele>598</ele>
        <time>2018-09-01T10:23:31Z</time>
      </trkpt>
      <trkpt lat="45.65882" lon="5.73148">
        <ele>598</ele>
        <time>2018-09-01T10:23:31Z</time>
      </trkpt>
      <trkpt lat="45.65889" lon="5.73148">
        <ele>598</ele>
        <time>2018-09-01T10:23:31Z</time>
      </trkpt>
      <trkpt lat="45.65893" lon="5.73154">
        <ele>598</ele>
        <time>2018-09-01T10:23:31Z</time>
      </trkpt>
      <trkpt lat="45.65896" lon="5.73158">
        <ele>598</ele>
        <time>2018-09-01T10:23:47Z</time>
      </trkpt>
      <trkpt lat="45.65901" lon="5.73164">
        <ele>598</ele>
        <time>2018-09-01T10:23:47Z</time>
      </trkpt>
      <trkpt lat="45.65907" lon="5.73171">
        <ele>598</ele>
        <time>2018-09-01T10:23:47Z</time>
      </trkpt>
      <trkpt lat="45.6591" lon="5.73176">
        <ele>598</ele>
        <time>2018-09-01T10:23:47Z</time>
      </trkpt>
      <trkpt lat="45.65914" lon="5.73182">
        <ele>598</ele>
        <time>2018-09-01T10:24:03Z</time>
      </trkpt>
      <trkpt lat="45.65919" lon="5.7319">
        <ele>598</ele>
        <time>2018-09-01T10:24:03Z</time>
      </trkpt>
      <trkpt lat="45.65922" lon="5.73197">
        <ele>598</ele>
        <time>2018-09-01T10:24:03Z</time>
      </trkpt>
      <trkpt lat="45.65926" lon="5.73203">
        <ele>598</ele>
        <time>2018-09-01T10:24:03Z</time>
      </trkpt>
      <trkpt lat="45.65929" lon="5.73208">
        <ele>598</ele>
        <time>2018-09-01T10:24:19Z</time>
      </trkpt>
      <trkpt lat="45.65933" lon="5.73217">
        <ele>600</ele>
        <time>2018-09-01T10:24:19Z</time>
      </trkpt>
      <trkpt lat="45.65935" lon="5.73225">
        <ele>600</ele>
        <time>2018-09-01T10:24:19Z</time>
      </trkpt>
      <trkpt lat="45.65937" lon="5.73231">
        <ele>600</ele>
        <time>2018-09-01T10:24:19Z</time>
      </trkpt>
      <trkpt lat="45.6594" lon="5.7324">
        <ele>600</ele>
        <time>2018-09-01T10:24:35Z</time>
      </trkpt>
      <trkpt lat="45.65942" lon="5.73245">
        <ele>600</ele>
        <time>2018-09-01T10:24:35Z</time>
      </trkpt>
      <trkpt lat="45.65944" lon="5.73252">
        <ele>600</ele>
        <time>2018-09-01T10:24:35Z</time>
      </trkpt>
      <trkpt lat="45.65947" lon="5.73257">
        <ele>600</ele>
        <time>2018-09-01T10:24:35Z</time>
      </trkpt>
      <trkpt lat="45.65951" lon="5.73262">
        <ele>600</ele>
        <time>2018-09-01T10:24:51Z</time>
      </trkpt>
      <trkpt lat="45.65955" lon="5.73269">
        <ele>600</ele>
        <time>2018-09-01T10:24:51Z</time>
      </trkpt>
      <trkpt lat="45.65961" lon="5.73274">
        <ele>592</ele>
        <time>2018-09-01T10:24:51Z</time>
      </trkpt>
      <trkpt lat="45.65965" lon="5.7328">
        <ele>592</ele>
        <time>2018-09-01T10:24:51Z</time>
      </trkpt>
      <trkpt lat="45.65968" lon="5.73284">
        <ele>592</ele>
        <time>2018-09-01T10:25:11Z</time>
      </trkpt>
      <trkpt lat="45.65969" lon="5.73287">
        <ele>592</ele>
        <time>2018-09-01T10:25:11Z</time>
      </trkpt>
      <trkpt lat="45.6597" lon="5.73287">
        <ele>592</ele>
        <time>2018-09-01T10:25:11Z</time>
      </trkpt>
      <trkpt lat="45.65972" lon="5.73291">
        <ele>592</ele>
        <time>2018-09-01T10:25:11Z</time>
      </trkpt>
      <trkpt lat="45.65973" lon="5.73295">
        <ele>588</ele>
        <time>2018-09-01T10:25:11Z</time>
      </trkpt>
      <trkpt lat="45.65976" lon="5.73302">
        <ele>588</ele>
        <time>2018-09-01T10:25:27Z</time>
      </trkpt>
      <trkpt lat="45.65977" lon="5.73305">
        <ele>588</ele>
        <time>2018-09-01T10:25:27Z</time>
      </trkpt>
      <trkpt lat="45.65979" lon="5.7331">
        <ele>588</ele>
        <time>2018-09-01T10:25:27Z</time>
      </trkpt>
      <trkpt lat="45.65983" lon="5.73318">
        <ele>588</ele>
        <time>2018-09-01T10:25:27Z</time>
      </trkpt>
      <trkpt lat="45.65987" lon="5.73327">
        <ele>588</ele>
        <time>2018-09-01T10:25:43Z</time>
      </trkpt>
      <trkpt lat="45.6599" lon="5.73331">
        <ele>588</ele>
        <time>2018-09-01T10:25:43Z</time>
      </trkpt>
      <trkpt lat="45.65993" lon="5.73338">
        <ele>588</ele>
        <time>2018-09-01T10:25:43Z</time>
      </trkpt>
      <trkpt lat="45.65998" lon="5.73346">
        <ele>588</ele>
        <time>2018-09-01T10:25:43Z</time>
      </trkpt>
      <trkpt lat="45.66002" lon="5.7335">
        <ele>588</ele>
        <time>2018-09-01T10:25:59Z</time>
      </trkpt>
      <trkpt lat="45.66006" lon="5.73352">
        <ele>588</ele>
        <time>2018-09-01T10:25:59Z</time>
      </trkpt>
      <trkpt lat="45.66012" lon="5.73359">
        <ele>588</ele>
        <time>2018-09-01T10:25:59Z</time>
      </trkpt>
      <trkpt lat="45.66016" lon="5.73362">
        <ele>588</ele>
        <time>2018-09-01T10:25:59Z</time>
      </trkpt>
      <trkpt lat="45.66021" lon="5.73366">
        <ele>588</ele>
        <time>2018-09-01T10:26:15Z</time>
      </trkpt>
      <trkpt lat="45.66027" lon="5.7337">
        <ele>588</ele>
        <time>2018-09-01T10:26:15Z</time>
      </trkpt>
      <trkpt lat="45.66032" lon="5.73369">
        <ele>588</ele>
        <time>2018-09-01T10:26:15Z</time>
      </trkpt>
      <trkpt lat="45.66037" lon="5.73366">
        <ele>588</ele>
        <time>2018-09-01T10:26:15Z</time>
      </trkpt>
      <trkpt lat="45.66046" lon="5.7336">
        <ele>581</ele>
        <time>2018-09-01T10:26:31Z</time>
      </trkpt>
      <trkpt lat="45.66053" lon="5.73352">
        <ele>581</ele>
        <time>2018-09-01T10:26:31Z</time>
      </trkpt>
      <trkpt lat="45.66059" lon="5.73345">
        <ele>581</ele>
        <time>2018-09-01T10:26:31Z</time>
      </trkpt>
      <trkpt lat="45.66062" lon="5.73341">
        <ele>581</ele>
        <time>2018-09-01T10:26:31Z</time>
      </trkpt>
      <trkpt lat="45.66066" lon="5.73335">
        <ele>581</ele>
        <time>2018-09-01T10:26:47Z</time>
      </trkpt>
      <trkpt lat="45.66071" lon="5.7333">
        <ele>581</ele>
        <time>2018-09-01T10:26:47Z</time>
      </trkpt>
      <trkpt lat="45.66081" lon="5.73319">
        <ele>581</ele>
        <time>2018-09-01T10:26:47Z</time>
      </trkpt>
      <trkpt lat="45.66086" lon="5.73316">
        <ele>581</ele>
        <time>2018-09-01T10:26:47Z</time>
      </trkpt>
      <trkpt lat="45.6609" lon="5.73313">
        <ele>581</ele>
        <time>2018-09-01T10:27:03Z</time>
      </trkpt>
      <trkpt lat="45.66095" lon="5.73309">
        <ele>581</ele>
        <time>2018-09-01T10:27:03Z</time>
      </trkpt>
      <trkpt lat="45.66102" lon="5.73303">
        <ele>581</ele>
        <time>2018-09-01T10:27:03Z</time>
      </trkpt>
      <trkpt lat="45.66106" lon="5.733">
        <ele>581</ele>
        <time>2018-09-01T10:27:03Z</time>
      </trkpt>
      <trkpt lat="45.66111" lon="5.73296">
        <ele>581</ele>
        <time>2018-09-01T10:27:19Z</time>
      </trkpt>
      <trkpt lat="45.66116" lon="5.73291">
        <ele>583</ele>
        <time>2018-09-01T10:27:19Z</time>
      </trkpt>
      <trkpt lat="45.6612" lon="5.73283">
        <ele>583</ele>
        <time>2018-09-01T10:27:19Z</time>
      </trkpt>
      <trkpt lat="45.66125" lon="5.73283">
        <ele>583</ele>
        <time>2018-09-01T10:27:19Z</time>
      </trkpt>
      <trkpt lat="45.66129" lon="5.73286">
        <ele>570</ele>
        <time>2018-09-01T10:27:35Z</time>
      </trkpt>
      <trkpt lat="45.66135" lon="5.73295">
        <ele>568</ele>
        <time>2018-09-01T10:27:35Z</time>
      </trkpt>
      <trkpt lat="45.66139" lon="5.73301">
        <ele>568</ele>
        <time>2018-09-01T10:27:35Z</time>
      </trkpt>
      <trkpt lat="45.66143" lon="5.73305">
        <ele>568</ele>
        <time>2018-09-01T10:27:35Z</time>
      </trkpt>
      <trkpt lat="45.66149" lon="5.73311">
        <ele>568</ele>
        <time>2018-09-01T10:27:51Z</time>
      </trkpt>
      <trkpt lat="45.66152" lon="5.73314">
        <ele>568</ele>
        <time>2018-09-01T10:27:51Z</time>
      </trkpt>
      <trkpt lat="45.66157" lon="5.7332">
        <ele>568</ele>
        <time>2018-09-01T10:27:51Z</time>
      </trkpt>
      <trkpt lat="45.6616" lon="5.73324">
        <ele>568</ele>
        <time>2018-09-01T10:27:51Z</time>
      </trkpt>
      <trkpt lat="45.66164" lon="5.73334">
        <ele>568</ele>
        <time>2018-09-01T10:28:07Z</time>
      </trkpt>
      <trkpt lat="45.66165" lon="5.73339">
        <ele>568</ele>
        <time>2018-09-01T10:28:07Z</time>
      </trkpt>
      <trkpt lat="45.66165" lon="5.73347">
        <ele>568</ele>
        <time>2018-09-01T10:28:07Z</time>
      </trkpt>
      <trkpt lat="45.66164" lon="5.73356">
        <ele>568</ele>
        <time>2018-09-01T10:28:07Z</time>
      </trkpt>
      <trkpt lat="45.66163" lon="5.73363">
        <ele>568</ele>
        <time>2018-09-01T10:28:23Z</time>
      </trkpt>
      <trkpt lat="45.66164" lon="5.73371">
        <ele>568</ele>
        <time>2018-09-01T10:28:23Z</time>
      </trkpt>
      <trkpt lat="45.66167" lon="5.73375">
        <ele>568</ele>
        <time>2018-09-01T10:28:23Z</time>
      </trkpt>
      <trkpt lat="45.66171" lon="5.73375">
        <ele>568</ele>
        <time>2018-09-01T10:28:23Z</time>
      </trkpt>
      <trkpt lat="45.66178" lon="5.73374">
        <ele>568</ele>
        <time>2018-09-01T10:28:39Z</time>
      </trkpt>
      <trkpt lat="45.66183" lon="5.73375">
        <ele>568</ele>
        <time>2018-09-01T10:28:39Z</time>
      </trkpt>
      <trkpt lat="45.66189" lon="5.73373">
        <ele>568</ele>
        <time>2018-09-01T10:28:39Z</time>
      </trkpt>
      <trkpt lat="45.66195" lon="5.73371">
        <ele>568</ele>
        <time>2018-09-01T10:28:39Z</time>
      </trkpt>
      <trkpt lat="45.662" lon="5.73369">
        <ele>568</ele>
        <time>2018-09-01T10:28:55Z</time>
      </trkpt>
      <trkpt lat="45.66205" lon="5.73369">
        <ele>568</ele>
        <time>2018-09-01T10:28:55Z</time>
      </trkpt>
      <trkpt lat="45.66212" lon="5.7337">
        <ele>561</ele>
        <time>2018-09-01T10:28:55Z</time>
      </trkpt>
      <trkpt lat="45.66219" lon="5.73372">
        <ele>561</ele>
        <time>2018-09-01T10:28:55Z</time>
      </trkpt>
      <trkpt lat="45.66225" lon="5.73373">
        <ele>561</ele>
        <time>2018-09-01T10:29:11Z</time>
      </trkpt>
      <trkpt lat="45.6623" lon="5.73372">
        <ele>561</ele>
        <time>2018-09-01T10:29:11Z</time>
      </trkpt>
      <trkpt lat="45.66241" lon="5.73363">
        <ele>561</ele>
        <time>2018-09-01T10:29:11Z</time>
      </trkpt>
      <trkpt lat="45.66244" lon="5.73355">
        <ele>561</ele>
        <time>2018-09-01T10:29:11Z</time>
      </trkpt>
      <trkpt lat="45.66246" lon="5.73346">
        <ele>561</ele>
        <time>2018-09-01T10:29:27Z</time>
      </trkpt>
      <trkpt lat="45.66247" lon="5.73338">
        <ele>561</ele>
        <time>2018-09-01T10:29:27Z</time>
      </trkpt>
      <trkpt lat="45.66248" lon="5.7333">
        <ele>561</ele>
        <time>2018-09-01T10:29:27Z</time>
      </trkpt>
      <trkpt lat="45.66249" lon="5.73323">
        <ele>561</ele>
        <time>2018-09-01T10:29:27Z</time>
      </trkpt>
      <trkpt lat="45.66252" lon="5.73318">
        <ele>561</ele>
        <time>2018-09-01T10:29:43Z</time>
      </trkpt>
      <trkpt lat="45.66258" lon="5.73317">
        <ele>561</ele>
        <time>2018-09-01T10:29:43Z</time>
      </trkpt>
      <trkpt lat="45.66265" lon="5.73318">
        <ele>561</ele>
        <time>2018-09-01T10:29:43Z</time>
      </trkpt>
      <trkpt lat="45.66272" lon="5.7332">
        <ele>561</ele>
        <time>2018-09-01T10:29:43Z</time>
      </trkpt>
      <trkpt lat="45.66284" lon="5.73321">
        <ele>561</ele>
        <time>2018-09-01T10:30:27Z</time>
      </trkpt>
      <trkpt lat="45.66284" lon="5.73321">
        <ele>561</ele>
        <time>2018-09-01T10:30:27Z</time>
      </trkpt>
      <trkpt lat="45.66284" lon="5.73321">
        <ele>561</ele>
        <time>2018-09-01T10:30:27Z</time>
      </trkpt>
      <trkpt lat="45.66287" lon="5.73321">
        <ele>561</ele>
        <time>2018-09-01T10:30:27Z</time>
      </trkpt>
      <trkpt lat="45.66293" lon="5.73321">
        <ele>558</ele>
        <time>2018-09-01T10:30:27Z</time>
      </trkpt>
      <trkpt lat="45.66298" lon="5.73319">
        <ele>558</ele>
        <time>2018-09-01T10:30:43Z</time>
      </trkpt>
      <trkpt lat="45.66307" lon="5.73319">
        <ele>558</ele>
        <time>2018-09-01T10:30:43Z</time>
      </trkpt>
      <trkpt lat="45.66314" lon="5.73321">
        <ele>558</ele>
        <time>2018-09-01T10:30:43Z</time>
      </trkpt>
      <trkpt lat="45.6632" lon="5.73321">
        <ele>558</ele>
        <time>2018-09-01T10:30:43Z</time>
      </trkpt>
      <trkpt lat="45.66327" lon="5.73322">
        <ele>558</ele>
        <time>2018-09-01T10:30:59Z</time>
      </trkpt>
      <trkpt lat="45.66334" lon="5.73323">
        <ele>558</ele>
        <time>2018-09-01T10:30:59Z</time>
      </trkpt>
      <trkpt lat="45.6635" lon="5.73327">
        <ele>558</ele>
        <time>2018-09-01T10:30:59Z</time>
      </trkpt>
      <trkpt lat="45.66357" lon="5.73326">
        <ele>558</ele>
        <time>2018-09-01T10:30:59Z</time>
      </trkpt>
      <trkpt lat="45.66362" lon="5.7332">
        <ele>558</ele>
        <time>2018-09-01T10:31:51Z</time>
      </trkpt>
      <trkpt lat="45.66356" lon="5.73322">
        <ele>558</ele>
        <time>2018-09-01T10:31:51Z</time>
      </trkpt>
      <trkpt lat="45.66334" lon="5.73324">
        <ele>558</ele>
        <time>2018-09-01T10:31:51Z</time>
      </trkpt>
      <trkpt lat="45.66303" lon="5.73321">
        <ele>558</ele>
        <time>2018-09-01T10:31:51Z</time>
      </trkpt>
      <trkpt lat="45.6628" lon="5.73321">
        <ele>561</ele>
        <time>2018-09-01T10:31:51Z</time>
      </trkpt>
      <trkpt lat="45.66264" lon="5.73321">
        <ele>561</ele>
        <time>2018-09-01T10:32:07Z</time>
      </trkpt>
      <trkpt lat="45.66249" lon="5.73336">
        <ele>561</ele>
        <time>2018-09-01T10:32:07Z</time>
      </trkpt>
      <trkpt lat="45.66239" lon="5.73367">
        <ele>561</ele>
        <time>2018-09-01T10:32:07Z</time>
      </trkpt>
      <trkpt lat="45.66224" lon="5.73379">
        <ele>560</ele>
        <time>2018-09-01T10:32:07Z</time>
      </trkpt>
      <trkpt lat="45.66197" lon="5.73378">
        <ele>565</ele>
        <time>2018-09-01T10:32:23Z</time>
      </trkpt>
      <trkpt lat="45.6617" lon="5.73379">
        <ele>565</ele>
        <time>2018-09-01T10:32:23Z</time>
      </trkpt>
      <trkpt lat="45.66158" lon="5.7338">
        <ele>565</ele>
        <time>2018-09-01T10:32:23Z</time>
      </trkpt>
      <trkpt lat="45.66155" lon="5.73388">
        <ele>565</ele>
        <time>2018-09-01T10:32:23Z</time>
      </trkpt>
      <trkpt lat="45.66156" lon="5.73397">
        <ele>565</ele>
        <time>2018-09-01T10:32:39Z</time>
      </trkpt>
      <trkpt lat="45.66157" lon="5.73405">
        <ele>565</ele>
        <time>2018-09-01T10:32:39Z</time>
      </trkpt>
      <trkpt lat="45.66159" lon="5.73411">
        <ele>565</ele>
        <time>2018-09-01T10:32:39Z</time>
      </trkpt>
      <trkpt lat="45.66162" lon="5.73418">
        <ele>565</ele>
        <time>2018-09-01T10:32:39Z</time>
      </trkpt>
      <trkpt lat="45.66166" lon="5.73425">
        <ele>565</ele>
        <time>2018-09-01T10:32:55Z</time>
      </trkpt>
      <trkpt lat="45.66169" lon="5.73432">
        <ele>565</ele>
        <time>2018-09-01T10:32:55Z</time>
      </trkpt>
      <trkpt lat="45.66173" lon="5.73439">
        <ele>565</ele>
        <time>2018-09-01T10:32:55Z</time>
      </trkpt>
      <trkpt lat="45.66178" lon="5.73449">
        <ele>565</ele>
        <time>2018-09-01T10:32:55Z</time>
      </trkpt>
      <trkpt lat="45.66179" lon="5.73456">
        <ele>565</ele>
        <time>2018-09-01T10:33:11Z</time>
      </trkpt>
      <trkpt lat="45.66181" lon="5.73464">
        <ele>562</ele>
        <time>2018-09-01T10:33:11Z</time>
      </trkpt>
      <trkpt lat="45.66182" lon="5.73468">
        <ele>562</ele>
        <time>2018-09-01T10:33:11Z</time>
      </trkpt>
      <trkpt lat="45.66184" lon="5.73476">
        <ele>562</ele>
        <time>2018-09-01T10:33:11Z</time>
      </trkpt>
      <trkpt lat="45.66187" lon="5.73484">
        <ele>562</ele>
        <time>2018-09-01T10:33:27Z</time>
      </trkpt>
      <trkpt lat="45.66192" lon="5.73498">
        <ele>562</ele>
        <time>2018-09-01T10:33:27Z</time>
      </trkpt>
      <trkpt lat="45.66195" lon="5.73508">
        <ele>562</ele>
        <time>2018-09-01T10:33:27Z</time>
      </trkpt>
      <trkpt lat="45.66197" lon="5.73517">
        <ele>562</ele>
        <time>2018-09-01T10:33:27Z</time>
      </trkpt>
      <trkpt lat="45.662" lon="5.73525">
        <ele>562</ele>
        <time>2018-09-01T10:33:43Z</time>
      </trkpt>
      <trkpt lat="45.66202" lon="5.73534">
        <ele>562</ele>
        <time>2018-09-01T10:33:43Z</time>
      </trkpt>
      <trkpt lat="45.66204" lon="5.73542">
        <ele>557</ele>
        <time>2018-09-01T10:33:43Z</time>
      </trkpt>
      <trkpt lat="45.66207" lon="5.73551">
        <ele>557</ele>
        <time>2018-09-01T10:33:43Z</time>
      </trkpt>
      <trkpt lat="45.6621" lon="5.73555">
        <ele>550</ele>
        <time>2018-09-01T10:33:59Z</time>
      </trkpt>
      <trkpt lat="45.66214" lon="5.73561">
        <ele>550</ele>
        <time>2018-09-01T10:33:59Z</time>
      </trkpt>
      <trkpt lat="45.66218" lon="5.73568">
        <ele>550</ele>
        <time>2018-09-01T10:33:59Z</time>
      </trkpt>
      <trkpt lat="45.6622" lon="5.73574">
        <ele>550</ele>
        <time>2018-09-01T10:33:59Z</time>
      </trkpt>
      <trkpt lat="45.66223" lon="5.73584">
        <ele>550</ele>
        <time>2018-09-01T10:34:15Z</time>
      </trkpt>
      <trkpt lat="45.66225" lon="5.73592">
        <ele>550</ele>
        <time>2018-09-01T10:34:15Z</time>
      </trkpt>
      <trkpt lat="45.66227" lon="5.736">
        <ele>550</ele>
        <time>2018-09-01T10:34:15Z</time>
      </trkpt>
      <trkpt lat="45.66229" lon="5.73607">
        <ele>550</ele>
        <time>2018-09-01T10:34:15Z</time>
      </trkpt>
      <trkpt lat="45.66231" lon="5.73617">
        <ele>550</ele>
        <time>2018-09-01T10:34:31Z</time>
      </trkpt>
      <trkpt lat="45.66233" lon="5.73626">
        <ele>544</ele>
        <time>2018-09-01T10:34:31Z</time>
      </trkpt>
      <trkpt lat="45.66234" lon="5.73634">
        <ele>544</ele>
        <time>2018-09-01T10:34:31Z</time>
      </trkpt>
      <trkpt lat="45.66235" lon="5.7364">
        <ele>544</ele>
        <time>2018-09-01T10:34:31Z</time>
      </trkpt>
      <trkpt lat="45.66234" lon="5.73652">
        <ele>544</ele>
        <time>2018-09-01T10:34:47Z</time>
      </trkpt>
      <trkpt lat="45.66233" lon="5.7366">
        <ele>544</ele>
        <time>2018-09-01T10:34:47Z</time>
      </trkpt>
      <trkpt lat="45.66233" lon="5.73667">
        <ele>544</ele>
        <time>2018-09-01T10:34:47Z</time>
      </trkpt>
      <trkpt lat="45.66233" lon="5.73673">
        <ele>544</ele>
        <time>2018-09-01T10:34:47Z</time>
      </trkpt>
      <trkpt lat="45.6623" lon="5.73682">
        <ele>544</ele>
        <time>2018-09-01T10:35:03Z</time>
      </trkpt>
      <trkpt lat="45.66229" lon="5.73689">
        <ele>544</ele>
        <time>2018-09-01T10:35:03Z</time>
      </trkpt>
      <trkpt lat="45.66221" lon="5.73721">
        <ele>539</ele>
        <time>2018-09-01T10:35:03Z</time>
      </trkpt>
      <trkpt lat="45.66221" lon="5.7376">
        <ele>539</ele>
        <time>2018-09-01T10:35:03Z</time>
      </trkpt>
      <trkpt lat="45.66229" lon="5.73791">
        <ele>539</ele>
        <time>2018-09-01T10:35:19Z</time>
      </trkpt>
      <trkpt lat="45.66225" lon="5.73819">
        <ele>536</ele>
        <time>2018-09-01T10:35:19Z</time>
      </trkpt>
      <trkpt lat="45.66222" lon="5.73861">
        <ele>536</ele>
        <time>2018-09-01T10:35:19Z</time>
      </trkpt>
      <trkpt lat="45.66217" lon="5.73897">
        <ele>533</ele>
        <time>2018-09-01T10:35:19Z</time>
      </trkpt>
      <trkpt lat="45.66208" lon="5.73925">
        <ele>541</ele>
        <time>2018-09-01T10:35:35Z</time>
      </trkpt>
      <trkpt lat="45.66197" lon="5.73945">
        <ele>541</ele>
        <time>2018-09-01T10:35:35Z</time>
      </trkpt>
      <trkpt lat="45.66191" lon="5.73956">
        <ele>541</ele>
        <time>2018-09-01T10:35:35Z</time>
      </trkpt>
      <trkpt lat="45.6619" lon="5.73964">
        <ele>540</ele>
        <time>2018-09-01T10:35:35Z</time>
      </trkpt>
      <trkpt lat="45.66185" lon="5.73973">
        <ele>540</ele>
        <time>2018-09-01T10:36:47Z</time>
      </trkpt>
      <trkpt lat="45.66182" lon="5.73976">
        <ele>540</ele>
        <time>2018-09-01T10:36:47Z</time>
      </trkpt>
      <trkpt lat="45.6618" lon="5.73978">
        <ele>540</ele>
        <time>2018-09-01T10:36:47Z</time>
      </trkpt>
      <trkpt lat="45.66178" lon="5.7398">
        <ele>540</ele>
        <time>2018-09-01T10:36:47Z</time>
      </trkpt>
      <trkpt lat="45.66175" lon="5.73984">
        <ele>540</ele>
        <time>2018-09-01T10:36:47Z</time>
      </trkpt>
      <trkpt lat="45.66173" lon="5.73988">
        <ele>540</ele>
        <time>2018-09-01T10:37:03Z</time>
      </trkpt>
      <trkpt lat="45.66169" lon="5.73992">
        <ele>540</ele>
        <time>2018-09-01T10:37:03Z</time>
      </trkpt>
      <trkpt lat="45.66165" lon="5.73997">
        <ele>540</ele>
        <time>2018-09-01T10:37:03Z</time>
      </trkpt>
      <trkpt lat="45.6616" lon="5.74002">
        <ele>540</ele>
        <time>2018-09-01T10:37:03Z</time>
      </trkpt>
      <trkpt lat="45.66156" lon="5.74005">
        <ele>540</ele>
        <time>2018-09-01T10:37:19Z</time>
      </trkpt>
      <trkpt lat="45.66151" lon="5.74008">
        <ele>540</ele>
        <time>2018-09-01T10:37:19Z</time>
      </trkpt>
      <trkpt lat="45.66148" lon="5.74011">
        <ele>540</ele>
        <time>2018-09-01T10:37:19Z</time>
      </trkpt>
      <trkpt lat="45.66143" lon="5.74013">
        <ele>540</ele>
        <time>2018-09-01T10:37:19Z</time>
      </trkpt>
      <trkpt lat="45.66142" lon="5.74015">
        <ele>540</ele>
        <time>2018-09-01T10:38:15Z</time>
      </trkpt>
      <trkpt lat="45.66141" lon="5.74015">
        <ele>540</ele>
        <time>2018-09-01T10:38:15Z</time>
      </trkpt>
      <trkpt lat="45.6614" lon="5.74015">
        <ele>540</ele>
        <time>2018-09-01T10:38:15Z</time>
      </trkpt>
      <trkpt lat="45.66136" lon="5.74017">
        <ele>540</ele>
        <time>2018-09-01T10:38:15Z</time>
      </trkpt>
      <trkpt lat="45.66132" lon="5.7402">
        <ele>540</ele>
        <time>2018-09-01T10:38:15Z</time>
      </trkpt>
      <trkpt lat="45.66129" lon="5.74022">
        <ele>540</ele>
        <time>2018-09-01T10:38:31Z</time>
      </trkpt>
      <trkpt lat="45.66126" lon="5.74024">
        <ele>540</ele>
        <time>2018-09-01T10:38:31Z</time>
      </trkpt>
      <trkpt lat="45.66123" lon="5.74025">
        <ele>540</ele>
        <time>2018-09-01T10:38:31Z</time>
      </trkpt>
      <trkpt lat="45.66121" lon="5.74028">
        <ele>540</ele>
        <time>2018-09-01T10:38:31Z</time>
      </trkpt>
      <trkpt lat="45.66117" lon="5.74032">
        <ele>540</ele>
        <time>2018-09-01T10:38:47Z</time>
      </trkpt>
      <trkpt lat="45.66113" lon="5.74035">
        <ele>540</ele>
        <time>2018-09-01T10:38:47Z</time>
      </trkpt>
      <trkpt lat="45.66112" lon="5.74036">
        <ele>540</ele>
        <time>2018-09-01T10:38:47Z</time>
      </trkpt>
      <trkpt lat="45.66108" lon="5.74038">
        <ele>540</ele>
        <time>2018-09-01T10:38:47Z</time>
      </trkpt>
      <trkpt lat="45.66102" lon="5.74042">
        <ele>527</ele>
        <time>2018-09-01T10:39:03Z</time>
      </trkpt>
      <trkpt lat="45.66097" lon="5.74045">
        <ele>527</ele>
        <time>2018-09-01T10:39:03Z</time>
      </trkpt>
      <trkpt lat="45.66091" lon="5.74048">
        <ele>527</ele>
        <time>2018-09-01T10:39:03Z</time>
      </trkpt>
      <trkpt lat="45.66085" lon="5.74049">
        <ele>527</ele>
        <time>2018-09-01T10:39:03Z</time>
      </trkpt>
      <trkpt lat="45.66075" lon="5.74055">
        <ele>527</ele>
        <time>2018-09-01T10:40:11Z</time>
      </trkpt>
      <trkpt lat="45.66075" lon="5.74055">
        <ele>527</ele>
        <time>2018-09-01T10:40:11Z</time>
      </trkpt>
      <trkpt lat="45.66075" lon="5.74055">
        <ele>527</ele>
        <time>2018-09-01T10:40:11Z</time>
      </trkpt>
      <trkpt lat="45.66073" lon="5.74057">
        <ele>527</ele>
        <time>2018-09-01T10:40:11Z</time>
      </trkpt>
      <trkpt lat="45.66069" lon="5.7406">
        <ele>527</ele>
        <time>2018-09-01T10:40:11Z</time>
      </trkpt>
      <trkpt lat="45.66066" lon="5.74064">
        <ele>527</ele>
        <time>2018-09-01T10:40:27Z</time>
      </trkpt>
      <trkpt lat="45.66061" lon="5.7407">
        <ele>527</ele>
        <time>2018-09-01T10:40:27Z</time>
      </trkpt>
      <trkpt lat="45.66059" lon="5.74075">
        <ele>527</ele>
        <time>2018-09-01T10:40:27Z</time>
      </trkpt>
      <trkpt lat="45.66055" lon="5.74082">
        <ele>527</ele>
        <time>2018-09-01T10:40:27Z</time>
      </trkpt>
      <trkpt lat="45.66052" lon="5.74087">
        <ele>527</ele>
        <time>2018-09-01T10:40:43Z</time>
      </trkpt>
      <trkpt lat="45.66048" lon="5.74095">
        <ele>527</ele>
        <time>2018-09-01T10:40:43Z</time>
      </trkpt>
      <trkpt lat="45.66047" lon="5.74103">
        <ele>527</ele>
        <time>2018-09-01T10:40:43Z</time>
      </trkpt>
      <trkpt lat="45.66046" lon="5.74109">
        <ele>527</ele>
        <time>2018-09-01T10:40:43Z</time>
      </trkpt>
      <trkpt lat="45.66045" lon="5.74118">
        <ele>527</ele>
        <time>2018-09-01T10:40:59Z</time>
      </trkpt>
      <trkpt lat="45.66044" lon="5.74124">
        <ele>527</ele>
        <time>2018-09-01T10:40:59Z</time>
      </trkpt>
      <trkpt lat="45.66042" lon="5.74132">
        <ele>520</ele>
        <time>2018-09-01T10:40:59Z</time>
      </trkpt>
      <trkpt lat="45.66041" lon="5.74139">
        <ele>519</ele>
        <time>2018-09-01T10:40:59Z</time>
      </trkpt>
      <trkpt lat="45.66038" lon="5.74145">
        <ele>519</ele>
        <time>2018-09-01T10:41:15Z</time>
      </trkpt>
      <trkpt lat="45.66037" lon="5.74152">
        <ele>519</ele>
        <time>2018-09-01T10:41:15Z</time>
      </trkpt>
      <trkpt lat="45.66037" lon="5.74159">
        <ele>519</ele>
        <time>2018-09-01T10:41:15Z</time>
      </trkpt>
      <trkpt lat="45.66036" lon="5.74165">
        <ele>519</ele>
        <time>2018-09-01T10:41:15Z</time>
      </trkpt>
      <trkpt lat="45.66035" lon="5.74169">
        <ele>519</ele>
        <time>2018-09-01T10:41:31Z</time>
      </trkpt>
      <trkpt lat="45.66035" lon="5.74172">
        <ele>519</ele>
        <time>2018-09-01T10:41:31Z</time>
      </trkpt>
      <trkpt lat="45.66034" lon="5.7418">
        <ele>519</ele>
        <time>2018-09-01T10:41:31Z</time>
      </trkpt>
      <trkpt lat="45.66034" lon="5.74185">
        <ele>519</ele>
        <time>2018-09-01T10:41:31Z</time>
      </trkpt>
      <trkpt lat="45.66032" lon="5.7419">
        <ele>519</ele>
        <time>2018-09-01T10:41:47Z</time>
      </trkpt>
      <trkpt lat="45.66028" lon="5.74191">
        <ele>519</ele>
        <time>2018-09-01T10:41:47Z</time>
      </trkpt>
      <trkpt lat="45.66026" lon="5.74197">
        <ele>519</ele>
        <time>2018-09-01T10:41:47Z</time>
      </trkpt>
      <trkpt lat="45.66026" lon="5.74201">
        <ele>519</ele>
        <time>2018-09-01T10:41:47Z</time>
      </trkpt>
      <trkpt lat="45.66024" lon="5.74208">
        <ele>519</ele>
        <time>2018-09-01T10:42:03Z</time>
      </trkpt>
      <trkpt lat="45.66023" lon="5.74215">
        <ele>513</ele>
        <time>2018-09-01T10:42:03Z</time>
      </trkpt>
      <trkpt lat="45.66022" lon="5.7422">
        <ele>513</ele>
        <time>2018-09-01T10:42:03Z</time>
      </trkpt>
      <trkpt lat="45.6602" lon="5.74227">
        <ele>513</ele>
        <time>2018-09-01T10:42:03Z</time>
      </trkpt>
      <trkpt lat="45.66018" lon="5.74235">
        <ele>513</ele>
        <time>2018-09-01T10:42:19Z</time>
      </trkpt>
      <trkpt lat="45.66015" lon="5.74245">
        <ele>513</ele>
        <time>2018-09-01T10:42:19Z</time>
      </trkpt>
      <trkpt lat="45.66014" lon="5.74251">
        <ele>513</ele>
        <time>2018-09-01T10:42:19Z</time>
      </trkpt>
      <trkpt lat="45.66011" lon="5.74257">
        <ele>513</ele>
        <time>2018-09-01T10:42:19Z</time>
      </trkpt>
      <trkpt lat="45.66011" lon="5.74259">
        <ele>513</ele>
        <time>2018-09-01T10:42:35Z</time>
      </trkpt>
      <trkpt lat="45.6601" lon="5.74263">
        <ele>513</ele>
        <time>2018-09-01T10:42:35Z</time>
      </trkpt>
      <trkpt lat="45.66008" lon="5.7427">
        <ele>513</ele>
        <time>2018-09-01T10:42:35Z</time>
      </trkpt>
      <trkpt lat="45.66005" lon="5.74278">
        <ele>513</ele>
        <time>2018-09-01T10:42:35Z</time>
      </trkpt>
      <trkpt lat="45.66003" lon="5.74287">
        <ele>513</ele>
        <time>2018-09-01T10:42:51Z</time>
      </trkpt>
      <trkpt lat="45.66" lon="5.74295">
        <ele>502</ele>
        <time>2018-09-01T10:42:51Z</time>
      </trkpt>
      <trkpt lat="45.65999" lon="5.74304">
        <ele>502</ele>
        <time>2018-09-01T10:42:51Z</time>
      </trkpt>
      <trkpt lat="45.65995" lon="5.74309">
        <ele>502</ele>
        <time>2018-09-01T10:42:51Z</time>
      </trkpt>
      <trkpt lat="45.65986" lon="5.74327">
        <ele>502</ele>
        <time>2018-09-01T10:43:31Z</time>
      </trkpt>
      <trkpt lat="45.65986" lon="5.74328">
        <ele>502</ele>
        <time>2018-09-01T10:43:31Z</time>
      </trkpt>
      <trkpt lat="45.65986" lon="5.74328">
        <ele>502</ele>
        <time>2018-09-01T10:43:31Z</time>
      </trkpt>
      <trkpt lat="45.65984" lon="5.74333">
        <ele>502</ele>
        <time>2018-09-01T10:43:31Z</time>
      </trkpt>
      <trkpt lat="45.6598" lon="5.7434">
        <ele>502</ele>
        <time>2018-09-01T10:43:31Z</time>
      </trkpt>
      <trkpt lat="45.65977" lon="5.74343">
        <ele>502</ele>
        <time>2018-09-01T10:43:47Z</time>
      </trkpt>
      <trkpt lat="45.65973" lon="5.7435">
        <ele>502</ele>
        <time>2018-09-01T10:43:47Z</time>
      </trkpt>
      <trkpt lat="45.65967" lon="5.74357">
        <ele>502</ele>
        <time>2018-09-01T10:43:47Z</time>
      </trkpt>
      <trkpt lat="45.65962" lon="5.74362">
        <ele>502</ele>
        <time>2018-09-01T10:43:47Z</time>
      </trkpt>
      <trkpt lat="45.65956" lon="5.74366">
        <ele>490</ele>
        <time>2018-09-01T10:44:03Z</time>
      </trkpt>
      <trkpt lat="45.6595" lon="5.74369">
        <ele>490</ele>
        <time>2018-09-01T10:44:03Z</time>
      </trkpt>
      <trkpt lat="45.65945" lon="5.74372">
        <ele>490</ele>
        <time>2018-09-01T10:44:03Z</time>
      </trkpt>
      <trkpt lat="45.65942" lon="5.74374">
        <ele>490</ele>
        <time>2018-09-01T10:44:03Z</time>
      </trkpt>
      <trkpt lat="45.65941" lon="5.74376">
        <ele>480</ele>
        <time>2018-09-01T10:44:55Z</time>
      </trkpt>
      <trkpt lat="45.65941" lon="5.74377">
        <ele>480</ele>
        <time>2018-09-01T10:44:55Z</time>
      </trkpt>
      <trkpt lat="45.65939" lon="5.7438">
        <ele>480</ele>
        <time>2018-09-01T10:44:55Z</time>
      </trkpt>
      <trkpt lat="45.65937" lon="5.74385">
        <ele>480</ele>
        <time>2018-09-01T10:44:55Z</time>
      </trkpt>
      <trkpt lat="45.65937" lon="5.74393">
        <ele>480</ele>
        <time>2018-09-01T10:44:55Z</time>
      </trkpt>
      <trkpt lat="45.65937" lon="5.74399">
        <ele>480</ele>
        <time>2018-09-01T10:45:11Z</time>
      </trkpt>
      <trkpt lat="45.65938" lon="5.74408">
        <ele>480</ele>
        <time>2018-09-01T10:45:11Z</time>
      </trkpt>
      <trkpt lat="45.6594" lon="5.74415">
        <ele>480</ele>
        <time>2018-09-01T10:45:11Z</time>
      </trkpt>
      <trkpt lat="45.65944" lon="5.74422">
        <ele>480</ele>
        <time>2018-09-01T10:45:11Z</time>
      </trkpt>
      <trkpt lat="45.65948" lon="5.74429">
        <ele>480</ele>
        <time>2018-09-01T10:45:27Z</time>
      </trkpt>
      <trkpt lat="45.65949" lon="5.74435">
        <ele>480</ele>
        <time>2018-09-01T10:45:27Z</time>
      </trkpt>
      <trkpt lat="45.65952" lon="5.74438">
        <ele>480</ele>
        <time>2018-09-01T10:45:27Z</time>
      </trkpt>
      <trkpt lat="45.65956" lon="5.74443">
        <ele>480</ele>
        <time>2018-09-01T10:45:27Z</time>
      </trkpt>
      <trkpt lat="45.65959" lon="5.74449">
        <ele>491</ele>
        <time>2018-09-01T10:45:43Z</time>
      </trkpt>
      <trkpt lat="45.65962" lon="5.74456">
        <ele>491</ele>
        <time>2018-09-01T10:45:43Z</time>
      </trkpt>
      <trkpt lat="45.65964" lon="5.74463">
        <ele>481</ele>
        <time>2018-09-01T10:45:43Z</time>
      </trkpt>
      <trkpt lat="45.65969" lon="5.74471">
        <ele>481</ele>
        <time>2018-09-01T10:45:43Z</time>
      </trkpt>
      <trkpt lat="45.65973" lon="5.74476">
        <ele>481</ele>
        <time>2018-09-01T10:45:59Z</time>
      </trkpt>
      <trkpt lat="45.65977" lon="5.74482">
        <ele>481</ele>
        <time>2018-09-01T10:45:59Z</time>
      </trkpt>
      <trkpt lat="45.65982" lon="5.74489">
        <ele>481</ele>
        <time>2018-09-01T10:45:59Z</time>
      </trkpt>
      <trkpt lat="45.65986" lon="5.74493">
        <ele>481</ele>
        <time>2018-09-01T10:45:59Z</time>
      </trkpt>
      <trkpt lat="45.6599" lon="5.74498">
        <ele>481</ele>
        <time>2018-09-01T10:46:15Z</time>
      </trkpt>
      <trkpt lat="45.65997" lon="5.74505">
        <ele>481</ele>
        <time>2018-09-01T10:46:15Z</time>
      </trkpt>
      <trkpt lat="45.66004" lon="5.74509">
        <ele>481</ele>
        <time>2018-09-01T10:46:15Z</time>
      </trkpt>
      <trkpt lat="45.66009" lon="5.74512">
        <ele>481</ele>
        <time>2018-09-01T10:46:15Z</time>
      </trkpt>
      <trkpt lat="45.66015" lon="5.74514">
        <ele>481</ele>
        <time>2018-09-01T10:46:31Z</time>
      </trkpt>
      <trkpt lat="45.66023" lon="5.74515">
        <ele>481</ele>
        <time>2018-09-01T10:46:31Z</time>
      </trkpt>
      <trkpt lat="45.66035" lon="5.74516">
        <ele>481</ele>
        <time>2018-09-01T10:46:31Z</time>
      </trkpt>
      <trkpt lat="45.66041" lon="5.74517">
        <ele>481</ele>
        <time>2018-09-01T10:46:31Z</time>
      </trkpt>
      <trkpt lat="45.66048" lon="5.74518">
        <ele>492</ele>
        <time>2018-09-01T10:46:47Z</time>
      </trkpt>
      <trkpt lat="45.66052" lon="5.74516">
        <ele>492</ele>
        <time>2018-09-01T10:46:47Z</time>
      </trkpt>
      <trkpt lat="45.66057" lon="5.74515">
        <ele>492</ele>
        <time>2018-09-01T10:46:47Z</time>
      </trkpt>
      <trkpt lat="45.66062" lon="5.74515">
        <ele>492</ele>
        <time>2018-09-01T10:46:47Z</time>
      </trkpt>
      <trkpt lat="45.66067" lon="5.74515">
        <ele>492</ele>
        <time>2018-09-01T10:47:03Z</time>
      </trkpt>
      <trkpt lat="45.66073" lon="5.74516">
        <ele>492</ele>
        <time>2018-09-01T10:47:03Z</time>
      </trkpt>
      <trkpt lat="45.66077" lon="5.74518">
        <ele>492</ele>
        <time>2018-09-01T10:47:03Z</time>
      </trkpt>
      <trkpt lat="45.66083" lon="5.7452">
        <ele>492</ele>
        <time>2018-09-01T10:47:03Z</time>
      </trkpt>
      <trkpt lat="45.66086" lon="5.7452">
        <ele>492</ele>
        <time>2018-09-01T10:47:19Z</time>
      </trkpt>
      <trkpt lat="45.6609" lon="5.7452">
        <ele>492</ele>
        <time>2018-09-01T10:47:19Z</time>
      </trkpt>
      <trkpt lat="45.66095" lon="5.74522">
        <ele>492</ele>
        <time>2018-09-01T10:47:19Z</time>
      </trkpt>
      <trkpt lat="45.66103" lon="5.74525">
        <ele>492</ele>
        <time>2018-09-01T10:47:19Z</time>
      </trkpt>
      <trkpt lat="45.6611" lon="5.74528">
        <ele>492</ele>
        <time>2018-09-01T10:47:35Z</time>
      </trkpt>
      <trkpt lat="45.66117" lon="5.74532">
        <ele>492</ele>
        <time>2018-09-01T10:47:35Z</time>
      </trkpt>
      <trkpt lat="45.66123" lon="5.74533">
        <ele>492</ele>
        <time>2018-09-01T10:47:35Z</time>
      </trkpt>
      <trkpt lat="45.66129" lon="5.74534">
        <ele>497</ele>
        <time>2018-09-01T10:47:35Z</time>
      </trkpt>
      <trkpt lat="45.66135" lon="5.74536">
        <ele>497</ele>
        <time>2018-09-01T10:47:51Z</time>
      </trkpt>
      <trkpt lat="45.66142" lon="5.74539">
        <ele>497</ele>
        <time>2018-09-01T10:47:51Z</time>
      </trkpt>
      <trkpt lat="45.66146" lon="5.7454">
        <ele>497</ele>
        <time>2018-09-01T10:47:51Z</time>
      </trkpt>
      <trkpt lat="45.66153" lon="5.74542">
        <ele>489</ele>
        <time>2018-09-01T10:47:51Z</time>
      </trkpt>
      <trkpt lat="45.66158" lon="5.74542">
        <ele>489</ele>
        <time>2018-09-01T10:48:07Z</time>
      </trkpt>
      <trkpt lat="45.66163" lon="5.74543">
        <ele>489</ele>
        <time>2018-09-01T10:48:07Z</time>
      </trkpt>
      <trkpt lat="45.66168" lon="5.74544">
        <ele>489</ele>
        <time>2018-09-01T10:48:07Z</time>
      </trkpt>
      <trkpt lat="45.66174" lon="5.74544">
        <ele>489</ele>
        <time>2018-09-01T10:48:07Z</time>
      </trkpt>
      <trkpt lat="45.6618" lon="5.74544">
        <ele>489</ele>
        <time>2018-09-01T10:48:23Z</time>
      </trkpt>
      <trkpt lat="45.66186" lon="5.74546">
        <ele>489</ele>
        <time>2018-09-01T10:48:23Z</time>
      </trkpt>
      <trkpt lat="45.66191" lon="5.74546">
        <ele>489</ele>
        <time>2018-09-01T10:48:23Z</time>
      </trkpt>
      <trkpt lat="45.66196" lon="5.74546">
        <ele>489</ele>
        <time>2018-09-01T10:48:23Z</time>
      </trkpt>
      <trkpt lat="45.66202" lon="5.74549">
        <ele>489</ele>
        <time>2018-09-01T10:48:39Z</time>
      </trkpt>
      <trkpt lat="45.66208" lon="5.74549">
        <ele>489</ele>
        <time>2018-09-01T10:48:39Z</time>
      </trkpt>
      <trkpt lat="45.66215" lon="5.74549">
        <ele>487</ele>
        <time>2018-09-01T10:48:39Z</time>
      </trkpt>
      <trkpt lat="45.6622" lon="5.7455">
        <ele>487</ele>
        <time>2018-09-01T10:48:39Z</time>
      </trkpt>
      <trkpt lat="45.66226" lon="5.74551">
        <ele>487</ele>
        <time>2018-09-01T10:48:55Z</time>
      </trkpt>
      <trkpt lat="45.66231" lon="5.74551">
        <ele>487</ele>
        <time>2018-09-01T10:48:55Z</time>
      </trkpt>
      <trkpt lat="45.66236" lon="5.74551">
        <ele>487</ele>
        <time>2018-09-01T10:48:55Z</time>
      </trkpt>
      <trkpt lat="45.66244" lon="5.74552">
        <ele>487</ele>
        <time>2018-09-01T10:48:55Z</time>
      </trkpt>
      <trkpt lat="45.66248" lon="5.74553">
        <ele>487</ele>
        <time>2018-09-01T10:49:11Z</time>
      </trkpt>
      <trkpt lat="45.66254" lon="5.74554">
        <ele>487</ele>
        <time>2018-09-01T10:49:11Z</time>
      </trkpt>
      <trkpt lat="45.66262" lon="5.74556">
        <ele>487</ele>
        <time>2018-09-01T10:49:11Z</time>
      </trkpt>
      <trkpt lat="45.66268" lon="5.74557">
        <ele>487</ele>
        <time>2018-09-01T10:49:11Z</time>
      </trkpt>
      <trkpt lat="45.66272" lon="5.74556">
        <ele>487</ele>
        <time>2018-09-01T10:49:27Z</time>
      </trkpt>
      <trkpt lat="45.66277" lon="5.74554">
        <ele>487</ele>
        <time>2018-09-01T10:49:27Z</time>
      </trkpt>
      <trkpt lat="45.66282" lon="5.7455">
        <ele>487</ele>
        <time>2018-09-01T10:49:27Z</time>
      </trkpt>
      <trkpt lat="45.66286" lon="5.74545">
        <ele>487</ele>
        <time>2018-09-01T10:49:27Z</time>
      </trkpt>
      <trkpt lat="45.66293" lon="5.74541">
        <ele>489</ele>
        <time>2018-09-01T10:49:43Z</time>
      </trkpt>
      <trkpt lat="45.66295" lon="5.74536">
        <ele>489</ele>
        <time>2018-09-01T10:49:43Z</time>
      </trkpt>
      <trkpt lat="45.663" lon="5.74531">
        <ele>489</ele>
        <time>2018-09-01T10:49:43Z</time>
      </trkpt>
      <trkpt lat="45.66305" lon="5.74525">
        <ele>489</ele>
        <time>2018-09-01T10:49:43Z</time>
      </trkpt>
      <trkpt lat="45.66309" lon="5.74522">
        <ele>489</ele>
        <time>2018-09-01T10:49:59Z</time>
      </trkpt>
      <trkpt lat="45.66313" lon="5.74516">
        <ele>489</ele>
        <time>2018-09-01T10:49:59Z</time>
      </trkpt>
      <trkpt lat="45.66318" lon="5.7451">
        <ele>489</ele>
        <time>2018-09-01T10:49:59Z</time>
      </trkpt>
      <trkpt lat="45.66323" lon="5.74502">
        <ele>489</ele>
        <time>2018-09-01T10:49:59Z</time>
      </trkpt>
      <trkpt lat="45.66326" lon="5.74498">
        <ele>489</ele>
        <time>2018-09-01T10:50:15Z</time>
      </trkpt>
      <trkpt lat="45.66331" lon="5.7449">
        <ele>489</ele>
        <time>2018-09-01T10:50:15Z</time>
      </trkpt>
      <trkpt lat="45.66334" lon="5.74483">
        <ele>489</ele>
        <time>2018-09-01T10:50:15Z</time>
      </trkpt>
      <trkpt lat="45.66337" lon="5.74478">
        <ele>489</ele>
        <time>2018-09-01T10:50:15Z</time>
      </trkpt>
      <trkpt lat="45.66341" lon="5.74471">
        <ele>489</ele>
        <time>2018-09-01T10:50:31Z</time>
      </trkpt>
      <trkpt lat="45.66343" lon="5.74464">
        <ele>489</ele>
        <time>2018-09-01T10:50:31Z</time>
      </trkpt>
      <trkpt lat="45.66346" lon="5.74456">
        <ele>496</ele>
        <time>2018-09-01T10:50:31Z</time>
      </trkpt>
      <trkpt lat="45.66348" lon="5.74448">
        <ele>496</ele>
        <time>2018-09-01T10:50:31Z</time>
      </trkpt>
      <trkpt lat="45.66351" lon="5.74441">
        <ele>496</ele>
        <time>2018-09-01T10:50:47Z</time>
      </trkpt>
      <trkpt lat="45.66353" lon="5.74433">
        <ele>496</ele>
        <time>2018-09-01T10:50:47Z</time>
      </trkpt>
      <trkpt lat="45.66355" lon="5.74425">
        <ele>496</ele>
        <time>2018-09-01T10:50:47Z</time>
      </trkpt>
      <trkpt lat="45.66357" lon="5.74415">
        <ele>496</ele>
        <time>2018-09-01T10:50:47Z</time>
      </trkpt>
      <trkpt lat="45.66357" lon="5.74409">
        <ele>496</ele>
        <time>2018-09-01T10:51:03Z</time>
      </trkpt>
      <trkpt lat="45.66359" lon="5.74399">
        <ele>496</ele>
        <time>2018-09-01T10:51:03Z</time>
      </trkpt>
      <trkpt lat="45.66361" lon="5.74394">
        <ele>496</ele>
        <time>2018-09-01T10:51:03Z</time>
      </trkpt>
      <trkpt lat="45.66364" lon="5.74388">
        <ele>496</ele>
        <time>2018-09-01T10:51:03Z</time>
      </trkpt>
      <trkpt lat="45.6637" lon="5.74386">
        <ele>496</ele>
        <time>2018-09-01T10:51:19Z</time>
      </trkpt>
      <trkpt lat="45.66375" lon="5.74391">
        <ele>496</ele>
        <time>2018-09-01T10:51:19Z</time>
      </trkpt>
      <trkpt lat="45.66378" lon="5.74397">
        <ele>499</ele>
        <time>2018-09-01T10:51:19Z</time>
      </trkpt>
      <trkpt lat="45.66383" lon="5.74401">
        <ele>499</ele>
        <time>2018-09-01T10:51:19Z</time>
      </trkpt>
      <trkpt lat="45.66386" lon="5.74404">
        <ele>499</ele>
        <time>2018-09-01T10:51:35Z</time>
      </trkpt>
      <trkpt lat="45.6639" lon="5.7441">
        <ele>499</ele>
        <time>2018-09-01T10:51:35Z</time>
      </trkpt>
      <trkpt lat="45.66396" lon="5.74417">
        <ele>499</ele>
        <time>2018-09-01T10:51:35Z</time>
      </trkpt>
      <trkpt lat="45.66401" lon="5.74423">
        <ele>499</ele>
        <time>2018-09-01T10:51:35Z</time>
      </trkpt>
      <trkpt lat="45.66404" lon="5.74427">
        <ele>499</ele>
        <time>2018-09-01T10:51:51Z</time>
      </trkpt>
      <trkpt lat="45.66409" lon="5.74433">
        <ele>499</ele>
        <time>2018-09-01T10:51:51Z</time>
      </trkpt>
      <trkpt lat="45.66414" lon="5.74441">
        <ele>499</ele>
        <time>2018-09-01T10:51:51Z</time>
      </trkpt>
      <trkpt lat="45.66418" lon="5.74447">
        <ele>499</ele>
        <time>2018-09-01T10:51:51Z</time>
      </trkpt>
      <trkpt lat="45.6642" lon="5.74451">
        <ele>499</ele>
        <time>2018-09-01T10:52:07Z</time>
      </trkpt>
      <trkpt lat="45.66423" lon="5.74456">
        <ele>499</ele>
        <time>2018-09-01T10:52:07Z</time>
      </trkpt>
      <trkpt lat="45.66426" lon="5.74464">
        <ele>492</ele>
        <time>2018-09-01T10:52:07Z</time>
      </trkpt>
      <trkpt lat="45.66429" lon="5.7447">
        <ele>492</ele>
        <time>2018-09-01T10:52:07Z</time>
      </trkpt>
      <trkpt lat="45.66431" lon="5.74477">
        <ele>492</ele>
        <time>2018-09-01T10:52:23Z</time>
      </trkpt>
      <trkpt lat="45.66433" lon="5.74482">
        <ele>492</ele>
        <time>2018-09-01T10:52:23Z</time>
      </trkpt>
      <trkpt lat="45.66435" lon="5.7449">
        <ele>492</ele>
        <time>2018-09-01T10:52:23Z</time>
      </trkpt>
      <trkpt lat="45.66437" lon="5.74498">
        <ele>492</ele>
        <time>2018-09-01T10:52:23Z</time>
      </trkpt>
      <trkpt lat="45.66437" lon="5.74504">
        <ele>492</ele>
        <time>2018-09-01T10:52:39Z</time>
      </trkpt>
      <trkpt lat="45.66437" lon="5.74512">
        <ele>492</ele>
        <time>2018-09-01T10:52:39Z</time>
      </trkpt>
      <trkpt lat="45.66438" lon="5.74523">
        <ele>492</ele>
        <time>2018-09-01T10:52:39Z</time>
      </trkpt>
      <trkpt lat="45.66438" lon="5.74529">
        <ele>492</ele>
        <time>2018-09-01T10:52:39Z</time>
      </trkpt>
      <trkpt lat="45.66439" lon="5.74538">
        <ele>492</ele>
        <time>2018-09-01T10:52:55Z</time>
      </trkpt>
      <trkpt lat="45.6644" lon="5.74543">
        <ele>484</ele>
        <time>2018-09-01T10:52:55Z</time>
      </trkpt>
      <trkpt lat="45.66442" lon="5.74551">
        <ele>484</ele>
        <time>2018-09-01T10:52:55Z</time>
      </trkpt>
      <trkpt lat="45.66444" lon="5.74558">
        <ele>484</ele>
        <time>2018-09-01T10:52:55Z</time>
      </trkpt>
      <trkpt lat="45.66447" lon="5.74566">
        <ele>484</ele>
        <time>2018-09-01T10:53:11Z</time>
      </trkpt>
      <trkpt lat="45.66449" lon="5.74573">
        <ele>484</ele>
        <time>2018-09-01T10:53:11Z</time>
      </trkpt>
      <trkpt lat="45.66452" lon="5.74581">
        <ele>484</ele>
        <time>2018-09-01T10:53:11Z</time>
      </trkpt>
      <trkpt lat="45.66457" lon="5.74589">
        <ele>484</ele>
        <time>2018-09-01T10:53:11Z</time>
      </trkpt>
      <trkpt lat="45.66461" lon="5.74594">
        <ele>488</ele>
        <time>2018-09-01T10:53:27Z</time>
      </trkpt>
      <trkpt lat="45.66464" lon="5.74598">
        <ele>488</ele>
        <time>2018-09-01T10:53:27Z</time>
      </trkpt>
      <trkpt lat="45.66469" lon="5.74603">
        <ele>488</ele>
        <time>2018-09-01T10:53:27Z</time>
      </trkpt>
      <trkpt lat="45.66474" lon="5.74608">
        <ele>488</ele>
        <time>2018-09-01T10:53:27Z</time>
      </trkpt>
      <trkpt lat="45.66478" lon="5.74614">
        <ele>488</ele>
        <time>2018-09-01T10:53:43Z</time>
      </trkpt>
      <trkpt lat="45.66483" lon="5.74619">
        <ele>488</ele>
        <time>2018-09-01T10:53:43Z</time>
      </trkpt>
      <trkpt lat="45.66487" lon="5.74623">
        <ele>488</ele>
        <time>2018-09-01T10:53:43Z</time>
      </trkpt>
      <trkpt lat="45.66492" lon="5.74625">
        <ele>481</ele>
        <time>2018-09-01T10:53:43Z</time>
      </trkpt>
      <trkpt lat="45.66497" lon="5.74628">
        <ele>481</ele>
        <time>2018-09-01T10:53:59Z</time>
      </trkpt>
      <trkpt lat="45.66503" lon="5.74632">
        <ele>481</ele>
        <time>2018-09-01T10:53:59Z</time>
      </trkpt>
      <trkpt lat="45.66512" lon="5.74638">
        <ele>481</ele>
        <time>2018-09-01T10:53:59Z</time>
      </trkpt>
      <trkpt lat="45.66514" lon="5.74647">
        <ele>481</ele>
        <time>2018-09-01T10:53:59Z</time>
      </trkpt>
      <trkpt lat="45.66512" lon="5.74654">
        <ele>481</ele>
        <time>2018-09-01T10:54:15Z</time>
      </trkpt>
      <trkpt lat="45.66512" lon="5.74662">
        <ele>481</ele>
        <time>2018-09-01T10:54:15Z</time>
      </trkpt>
      <trkpt lat="45.66513" lon="5.74671">
        <ele>481</ele>
        <time>2018-09-01T10:54:15Z</time>
      </trkpt>
      <trkpt lat="45.66513" lon="5.74683">
        <ele>481</ele>
        <time>2018-09-01T10:54:15Z</time>
      </trkpt>
      <trkpt lat="45.66514" lon="5.74689">
        <ele>481</ele>
        <time>2018-09-01T10:54:31Z</time>
      </trkpt>
      <trkpt lat="45.66514" lon="5.74697">
        <ele>481</ele>
        <time>2018-09-01T10:54:31Z</time>
      </trkpt>
      <trkpt lat="45.66513" lon="5.74705">
        <ele>481</ele>
        <time>2018-09-01T10:54:31Z</time>
      </trkpt>
      <trkpt lat="45.66511" lon="5.74712">
        <ele>475</ele>
        <time>2018-09-01T10:54:31Z</time>
      </trkpt>
      <trkpt lat="45.66511" lon="5.7472">
        <ele>475</ele>
        <time>2018-09-01T10:54:47Z</time>
      </trkpt>
      <trkpt lat="45.66511" lon="5.74727">
        <ele>475</ele>
        <time>2018-09-01T10:54:47Z</time>
      </trkpt>
      <trkpt lat="45.66512" lon="5.74735">
        <ele>475</ele>
        <time>2018-09-01T10:54:47Z</time>
      </trkpt>
      <trkpt lat="45.66512" lon="5.74743">
        <ele>475</ele>
        <time>2018-09-01T10:54:47Z</time>
      </trkpt>
      <trkpt lat="45.66512" lon="5.74751">
        <ele>475</ele>
        <time>2018-09-01T10:55:03Z</time>
      </trkpt>
      <trkpt lat="45.66514" lon="5.74759">
        <ele>475</ele>
        <time>2018-09-01T10:55:03Z</time>
      </trkpt>
      <trkpt lat="45.66516" lon="5.74767">
        <ele>475</ele>
        <time>2018-09-01T10:55:03Z</time>
      </trkpt>
      <trkpt lat="45.66517" lon="5.74774">
        <ele>475</ele>
        <time>2018-09-01T10:55:03Z</time>
      </trkpt>
      <trkpt lat="45.66517" lon="5.74784">
        <ele>475</ele>
        <time>2018-09-01T10:55:19Z</time>
      </trkpt>
      <trkpt lat="45.66517" lon="5.74792">
        <ele>470</ele>
        <time>2018-09-01T10:55:19Z</time>
      </trkpt>
      <trkpt lat="45.66518" lon="5.74797">
        <ele>470</ele>
        <time>2018-09-01T10:55:19Z</time>
      </trkpt>
      <trkpt lat="45.66517" lon="5.74804">
        <ele>470</ele>
        <time>2018-09-01T10:55:19Z</time>
      </trkpt>
      <trkpt lat="45.66516" lon="5.74812">
        <ele>470</ele>
        <time>2018-09-01T10:55:35Z</time>
      </trkpt>
      <trkpt lat="45.66516" lon="5.74822">
        <ele>470</ele>
        <time>2018-09-01T10:55:35Z</time>
      </trkpt>
      <trkpt lat="45.66515" lon="5.74829">
        <ele>470</ele>
        <time>2018-09-01T10:55:35Z</time>
      </trkpt>
      <trkpt lat="45.66517" lon="5.74837">
        <ele>470</ele>
        <time>2018-09-01T10:55:35Z</time>
      </trkpt>
      <trkpt lat="45.66518" lon="5.74845">
        <ele>470</ele>
        <time>2018-09-01T10:55:51Z</time>
      </trkpt>
      <trkpt lat="45.66517" lon="5.74854">
        <ele>470</ele>
        <time>2018-09-01T10:55:51Z</time>
      </trkpt>
      <trkpt lat="45.66518" lon="5.74862">
        <ele>470</ele>
        <time>2018-09-01T10:55:51Z</time>
      </trkpt>
      <trkpt lat="45.66522" lon="5.74871">
        <ele>470</ele>
        <time>2018-09-01T10:55:51Z</time>
      </trkpt>
      <trkpt lat="45.66523" lon="5.74876">
        <ele>464</ele>
        <time>2018-09-01T10:56:07Z</time>
      </trkpt>
      <trkpt lat="45.66526" lon="5.74884">
        <ele>464</ele>
        <time>2018-09-01T10:56:07Z</time>
      </trkpt>
      <trkpt lat="45.66528" lon="5.74889">
        <ele>464</ele>
        <time>2018-09-01T10:56:07Z</time>
      </trkpt>
      <trkpt lat="45.66529" lon="5.74899">
        <ele>464</ele>
        <time>2018-09-01T10:56:07Z</time>
      </trkpt>
      <trkpt lat="45.6653" lon="5.74905">
        <ele>464</ele>
        <time>2018-09-01T10:56:23Z</time>
      </trkpt>
      <trkpt lat="45.6653" lon="5.74913">
        <ele>464</ele>
        <time>2018-09-01T10:56:23Z</time>
      </trkpt>
      <trkpt lat="45.6653" lon="5.74922">
        <ele>464</ele>
        <time>2018-09-01T10:56:23Z</time>
      </trkpt>
      <trkpt lat="45.6653" lon="5.7493">
        <ele>464</ele>
        <time>2018-09-01T10:56:23Z</time>
      </trkpt>
      <trkpt lat="45.6653" lon="5.74938">
        <ele>464</ele>
        <time>2018-09-01T10:56:39Z</time>
      </trkpt>
      <trkpt lat="45.6653" lon="5.74948">
        <ele>464</ele>
        <time>2018-09-01T10:56:39Z</time>
      </trkpt>
      <trkpt lat="45.66531" lon="5.74955">
        <ele>464</ele>
        <time>2018-09-01T10:56:39Z</time>
      </trkpt>
      <trkpt lat="45.66532" lon="5.74963">
        <ele>459</ele>
        <time>2018-09-01T10:56:39Z</time>
      </trkpt>
      <trkpt lat="45.66533" lon="5.74971">
        <ele>459</ele>
        <time>2018-09-01T10:56:55Z</time>
      </trkpt>
      <trkpt lat="45.66535" lon="5.7498">
        <ele>459</ele>
        <time>2018-09-01T10:56:55Z</time>
      </trkpt>
      <trkpt lat="45.66535" lon="5.74986">
        <ele>459</ele>
        <time>2018-09-01T10:56:55Z</time>
      </trkpt>
      <trkpt lat="45.66539" lon="5.74993">
        <ele>459</ele>
        <time>2018-09-01T10:56:55Z</time>
      </trkpt>
      <trkpt lat="45.66542" lon="5.75001">
        <ele>459</ele>
        <time>2018-09-01T10:57:11Z</time>
      </trkpt>
      <trkpt lat="45.66545" lon="5.75007">
        <ele>464</ele>
        <time>2018-09-01T10:57:11Z</time>
      </trkpt>
      <trkpt lat="45.66549" lon="5.75013">
        <ele>464</ele>
        <time>2018-09-01T10:57:11Z</time>
      </trkpt>
      <trkpt lat="45.66552" lon="5.7502">
        <ele>464</ele>
        <time>2018-09-01T10:57:11Z</time>
      </trkpt>
      <trkpt lat="45.66557" lon="5.75028">
        <ele>464</ele>
        <time>2018-09-01T10:57:27Z</time>
      </trkpt>
      <trkpt lat="45.66561" lon="5.75035">
        <ele>464</ele>
        <time>2018-09-01T10:57:27Z</time>
      </trkpt>
      <trkpt lat="45.66565" lon="5.75042">
        <ele>459</ele>
        <time>2018-09-01T10:57:27Z</time>
      </trkpt>
      <trkpt lat="45.66568" lon="5.75048">
        <ele>459</ele>
        <time>2018-09-01T10:57:27Z</time>
      </trkpt>
      <trkpt lat="45.66571" lon="5.75057">
        <ele>459</ele>
        <time>2018-09-01T10:57:43Z</time>
      </trkpt>
      <trkpt lat="45.66573" lon="5.75063">
        <ele>459</ele>
        <time>2018-09-01T10:57:43Z</time>
      </trkpt>
      <trkpt lat="45.66576" lon="5.75068">
        <ele>459</ele>
        <time>2018-09-01T10:57:43Z</time>
      </trkpt>
      <trkpt lat="45.66579" lon="5.75076">
        <ele>459</ele>
        <time>2018-09-01T10:57:43Z</time>
      </trkpt>
      <trkpt lat="45.66582" lon="5.75078">
        <ele>459</ele>
        <time>2018-09-01T10:57:59Z</time>
      </trkpt>
      <trkpt lat="45.66586" lon="5.75084">
        <ele>459</ele>
        <time>2018-09-01T10:57:59Z</time>
      </trkpt>
      <trkpt lat="45.6659" lon="5.75089">
        <ele>459</ele>
        <time>2018-09-01T10:57:59Z</time>
      </trkpt>
      <trkpt lat="45.66592" lon="5.75091">
        <ele>459</ele>
        <time>2018-09-01T10:57:59Z</time>
      </trkpt>
      <trkpt lat="45.66591" lon="5.75089">
        <ele>459</ele>
        <time>2018-09-01T10:58:35Z</time>
      </trkpt>
      <trkpt lat="45.66592" lon="5.75092">
        <ele>459</ele>
        <time>2018-09-01T10:58:35Z</time>
      </trkpt>
      <trkpt lat="45.66594" lon="5.75095">
        <ele>459</ele>
        <time>2018-09-01T10:58:35Z</time>
      </trkpt>
      <trkpt lat="45.66596" lon="5.751">
        <ele>459</ele>
        <time>2018-09-01T10:58:35Z</time>
      </trkpt>
      <trkpt lat="45.66597" lon="5.75106">
        <ele>459</ele>
        <time>2018-09-01T10:58:35Z</time>
      </trkpt>
      <trkpt lat="45.66594" lon="5.75109">
        <ele>459</ele>
        <time>2018-09-01T11:05:43Z</time>
      </trkpt>
      <trkpt lat="45.66595" lon="5.7511">
        <ele>459</ele>
        <time>2018-09-01T11:05:43Z</time>
      </trkpt>
      <trkpt lat="45.66592" lon="5.75111">
        <ele>459</ele>
        <time>2018-09-01T11:05:43Z</time>
      </trkpt>
      <trkpt lat="45.66592" lon="5.75117">
        <ele>459</ele>
        <time>2018-09-01T11:05:43Z</time>
      </trkpt>
      <trkpt lat="45.66592" lon="5.75118">
        <ele>459</ele>
        <time>2018-09-01T11:05:43Z</time>
      </trkpt>
      <trkpt lat="45.66591" lon="5.75115">
        <ele>459</ele>
        <time>2018-09-01T11:06:47Z</time>
      </trkpt>
      <trkpt lat="45.6659" lon="5.75117">
        <ele>459</ele>
        <time>2018-09-01T11:06:47Z</time>
      </trkpt>
      <trkpt lat="45.66589" lon="5.75118">
        <ele>459</ele>
        <time>2018-09-01T11:06:47Z</time>
      </trkpt>
      <trkpt lat="45.66585" lon="5.75119">
        <ele>459</ele>
        <time>2018-09-01T11:06:47Z</time>
      </trkpt>
      <trkpt lat="45.66582" lon="5.75125">
        <ele>455</ele>
        <time>2018-09-01T11:06:47Z</time>
      </trkpt>
      <trkpt lat="45.66582" lon="5.75126">
        <ele>455</ele>
        <time>2018-09-01T11:09:15Z</time>
      </trkpt>
      <trkpt lat="45.66579" lon="5.75124">
        <ele>459</ele>
        <time>2018-09-01T11:09:15Z</time>
      </trkpt>
      <trkpt lat="45.66575" lon="5.75121">
        <ele>459</ele>
        <time>2018-09-01T11:09:15Z</time>
      </trkpt>
      <trkpt lat="45.6657" lon="5.75116">
        <ele>459</ele>
        <time>2018-09-01T11:09:15Z</time>
      </trkpt>
      <trkpt lat="45.66567" lon="5.75111">
        <ele>459</ele>
        <time>2018-09-01T11:09:15Z</time>
      </trkpt>
      <trkpt lat="45.66563" lon="5.75105">
        <ele>459</ele>
        <time>2018-09-01T11:11:03Z</time>
      </trkpt>
      <trkpt lat="45.66564" lon="5.75111">
        <ele>459</ele>
        <time>2018-09-01T11:11:03Z</time>
      </trkpt>
      <trkpt lat="45.66568" lon="5.75114">
        <ele>459</ele>
        <time>2018-09-01T11:11:03Z</time>
      </trkpt>
      <trkpt lat="45.66574" lon="5.75115">
        <ele>459</ele>
        <time>2018-09-01T11:11:03Z</time>
      </trkpt>
      <trkpt lat="45.66576" lon="5.75116">
        <ele>459</ele>
        <time>2018-09-01T11:11:03Z</time>
      </trkpt>
      <trkpt lat="45.66577" lon="5.75114">
        <ele>459</ele>
        <time>2018-09-01T11:11:31Z</time>
      </trkpt>
      <trkpt lat="45.66576" lon="5.75114">
        <ele>459</ele>
        <time>2018-09-01T11:11:31Z</time>
      </trkpt>
      <trkpt lat="45.66573" lon="5.75112">
        <ele>459</ele>
        <time>2018-09-01T11:11:31Z</time>
      </trkpt>
      <trkpt lat="45.6657" lon="5.7511">
        <ele>459</ele>
        <time>2018-09-01T11:11:31Z</time>
      </trkpt>
      <trkpt lat="45.66567" lon="5.75106">
        <ele>459</ele>
        <time>2018-09-01T11:11:31Z</time>
      </trkpt>
      <trkpt lat="45.66565" lon="5.75107">
        <ele>459</ele>
        <time>2018-09-01T11:13:19Z</time>
      </trkpt>
      <trkpt lat="45.66562" lon="5.75103">
        <ele>459</ele>
        <time>2018-09-01T11:13:19Z</time>
      </trkpt>
      <trkpt lat="45.66561" lon="5.75097">
        <ele>459</ele>
        <time>2018-09-01T11:13:19Z</time>
      </trkpt>
      <trkpt lat="45.66561" lon="5.75093">
        <ele>459</ele>
        <time>2018-09-01T11:13:19Z</time>
      </trkpt>
      <trkpt lat="45.6656" lon="5.75093">
        <ele>459</ele>
        <time>2018-09-01T11:13:19Z</time>
      </trkpt>
      <trkpt lat="45.66562" lon="5.75104">
        <ele>459</ele>
        <time>2018-09-01T11:17:07Z</time>
      </trkpt>
      <trkpt lat="45.66561" lon="5.75104">
        <ele>459</ele>
        <time>2018-09-01T11:17:07Z</time>
      </trkpt>
      <trkpt lat="45.66561" lon="5.75105">
        <ele>459</ele>
        <time>2018-09-01T11:17:07Z</time>
      </trkpt>
      <trkpt lat="45.66561" lon="5.75107">
        <ele>459</ele>
        <time>2018-09-01T11:17:07Z</time>
      </trkpt>
      <trkpt lat="45.66561" lon="5.75108">
        <ele>459</ele>
        <time>2018-09-01T11:17:07Z</time>
      </trkpt>
      <trkpt lat="45.66563" lon="5.75095">
        <ele>459</ele>
        <time>2018-09-01T11:30:27Z</time>
      </trkpt>
      <trkpt lat="45.66563" lon="5.75095">
        <ele>459</ele>
        <time>2018-09-01T11:30:27Z</time>
      </trkpt>
      <trkpt lat="45.66563" lon="5.75095">
        <ele>459</ele>
        <time>2018-09-01T11:30:27Z</time>
      </trkpt>
      <trkpt lat="45.66563" lon="5.75095">
        <ele>459</ele>
        <time>2018-09-01T11:30:27Z</time>
      </trkpt>
      <trkpt lat="45.66563" lon="5.75095">
        <ele>459</ele>
        <time>2018-09-01T11:30:27Z</time>
      </trkpt>
      <trkpt lat="45.66561" lon="5.751">
        <ele>459</ele>
        <time>2018-09-01T11:44:47Z</time>
      </trkpt>
      <trkpt lat="45.66561" lon="5.75101">
        <ele>459</ele>
        <time>2018-09-01T11:44:47Z</time>
      </trkpt>
      <trkpt lat="45.66563" lon="5.75103">
        <ele>459</ele>
        <time>2018-09-01T11:44:47Z</time>
      </trkpt>
      <trkpt lat="45.66568" lon="5.75104">
        <ele>459</ele>
        <time>2018-09-01T11:44:47Z</time>
      </trkpt>
      <trkpt lat="45.66572" lon="5.75106">
        <ele>459</ele>
        <time>2018-09-01T11:44:47Z</time>
      </trkpt>
      <trkpt lat="45.66573" lon="5.75113">
        <ele>459</ele>
        <time>2018-09-01T11:47:59Z</time>
      </trkpt>
      <trkpt lat="45.66574" lon="5.75114">
        <ele>459</ele>
        <time>2018-09-01T11:47:59Z</time>
      </trkpt>
      <trkpt lat="45.66576" lon="5.75117">
        <ele>459</ele>
        <time>2018-09-01T11:47:59Z</time>
      </trkpt>
      <trkpt lat="45.66579" lon="5.7512">
        <ele>459</ele>
        <time>2018-09-01T11:47:59Z</time>
      </trkpt>
      <trkpt lat="45.66581" lon="5.7512">
        <ele>459</ele>
        <time>2018-09-01T11:47:59Z</time>
      </trkpt>
      <trkpt lat="45.66581" lon="5.75127">
        <ele>455</ele>
        <time>2018-09-01T11:52:39Z</time>
      </trkpt>
      <trkpt lat="45.66583" lon="5.75127">
        <ele>455</ele>
        <time>2018-09-01T11:52:39Z</time>
      </trkpt>
      <trkpt lat="45.66583" lon="5.7513">
        <ele>455</ele>
        <time>2018-09-01T11:52:39Z</time>
      </trkpt>
      <trkpt lat="45.66581" lon="5.7513">
        <ele>455</ele>
        <time>2018-09-01T11:52:39Z</time>
      </trkpt>
      <trkpt lat="45.66579" lon="5.75132">
        <ele>455</ele>
        <time>2018-09-01T11:52:39Z</time>
      </trkpt>
      <trkpt lat="45.66578" lon="5.75134">
        <ele>455</ele>
        <time>2018-09-01T11:52:55Z</time>
      </trkpt>
      <trkpt lat="45.66579" lon="5.75136">
        <ele>455</ele>
        <time>2018-09-01T11:52:55Z</time>
      </trkpt>
      <trkpt lat="45.66578" lon="5.75141">
        <ele>455</ele>
        <time>2018-09-01T11:52:55Z</time>
      </trkpt>
      <trkpt lat="45.66576" lon="5.75147">
        <ele>455</ele>
        <time>2018-09-01T11:52:55Z</time>
      </trkpt>
      <trkpt lat="45.66577" lon="5.75153">
        <ele>455</ele>
        <time>2018-09-01T11:53:11Z</time>
      </trkpt>
      <trkpt lat="45.66579" lon="5.75158">
        <ele>455</ele>
        <time>2018-09-01T11:53:11Z</time>
      </trkpt>
      <trkpt lat="45.66581" lon="5.75167">
        <ele>455</ele>
        <time>2018-09-01T11:53:11Z</time>
      </trkpt>
      <trkpt lat="45.66583" lon="5.75175">
        <ele>455</ele>
        <time>2018-09-01T11:53:11Z</time>
      </trkpt>
      <trkpt lat="45.66584" lon="5.75184">
        <ele>455</ele>
        <time>2018-09-01T11:53:27Z</time>
      </trkpt>
      <trkpt lat="45.66585" lon="5.75192">
        <ele>455</ele>
        <time>2018-09-01T11:53:27Z</time>
      </trkpt>
      <trkpt lat="45.66586" lon="5.752">
        <ele>455</ele>
        <time>2018-09-01T11:53:27Z</time>
      </trkpt>
      <trkpt lat="45.66587" lon="5.75208">
        <ele>455</ele>
        <time>2018-09-01T11:53:27Z</time>
      </trkpt>
      <trkpt lat="45.66589" lon="5.75215">
        <ele>451</ele>
        <time>2018-09-01T11:53:43Z</time>
      </trkpt>
      <trkpt lat="45.66592" lon="5.75222">
        <ele>451</ele>
        <time>2018-09-01T11:53:43Z</time>
      </trkpt>
      <trkpt lat="45.66595" lon="5.75228">
        <ele>451</ele>
        <time>2018-09-01T11:53:43Z</time>
      </trkpt>
      <trkpt lat="45.66599" lon="5.75233">
        <ele>451</ele>
        <time>2018-09-01T11:53:43Z</time>
      </trkpt>
      <trkpt lat="45.66602" lon="5.7524">
        <ele>451</ele>
        <time>2018-09-01T11:53:59Z</time>
      </trkpt>
      <trkpt lat="45.66606" lon="5.75245">
        <ele>451</ele>
        <time>2018-09-01T11:53:59Z</time>
      </trkpt>
      <trkpt lat="45.66609" lon="5.75251">
        <ele>451</ele>
        <time>2018-09-01T11:53:59Z</time>
      </trkpt>
      <trkpt lat="45.66611" lon="5.75258">
        <ele>451</ele>
        <time>2018-09-01T11:53:59Z</time>
      </trkpt>
      <trkpt lat="45.66614" lon="5.75263">
        <ele>451</ele>
        <time>2018-09-01T11:54:15Z</time>
      </trkpt>
      <trkpt lat="45.6661" lon="5.75268">
        <ele>451</ele>
        <time>2018-09-01T11:54:15Z</time>
      </trkpt>
      <trkpt lat="45.66604" lon="5.75266">
        <ele>451</ele>
        <time>2018-09-01T11:54:15Z</time>
      </trkpt>
      <trkpt lat="45.66598" lon="5.75264">
        <ele>451</ele>
        <time>2018-09-01T11:54:15Z</time>
      </trkpt>
      <trkpt lat="45.66592" lon="5.75263">
        <ele>451</ele>
        <time>2018-09-01T11:54:31Z</time>
      </trkpt>
      <trkpt lat="45.66587" lon="5.75262">
        <ele>451</ele>
        <time>2018-09-01T11:54:31Z</time>
      </trkpt>
      <trkpt lat="45.66584" lon="5.7526">
        <ele>451</ele>
        <time>2018-09-01T11:54:31Z</time>
      </trkpt>
      <trkpt lat="45.66581" lon="5.75259">
        <ele>451</ele>
        <time>2018-09-01T11:54:31Z</time>
      </trkpt>
      <trkpt lat="45.66576" lon="5.75258">
        <ele>451</ele>
        <time>2018-09-01T11:54:47Z</time>
      </trkpt>
      <trkpt lat="45.66571" lon="5.75256">
        <ele>451</ele>
        <time>2018-09-01T11:54:47Z</time>
      </trkpt>
      <trkpt lat="45.66567" lon="5.75255">
        <ele>451</ele>
        <time>2018-09-01T11:54:47Z</time>
      </trkpt>
      <trkpt lat="45.66563" lon="5.75255">
        <ele>451</ele>
        <time>2018-09-01T11:54:47Z</time>
      </trkpt>
      <trkpt lat="45.66562" lon="5.75259">
        <ele>451</ele>
        <time>2018-09-01T11:56:07Z</time>
      </trkpt>
      <trkpt lat="45.66565" lon="5.75261">
        <ele>451</ele>
        <time>2018-09-01T11:56:07Z</time>
      </trkpt>
      <trkpt lat="45.66568" lon="5.75264">
        <ele>451</ele>
        <time>2018-09-01T11:56:07Z</time>
      </trkpt>
      <trkpt lat="45.66569" lon="5.75271">
        <ele>451</ele>
        <time>2018-09-01T11:56:07Z</time>
      </trkpt>
      <trkpt lat="45.66565" lon="5.75275">
        <ele>451</ele>
        <time>2018-09-01T11:56:07Z</time>
      </trkpt>
      <trkpt lat="45.6656" lon="5.75277">
        <ele>451</ele>
        <time>2018-09-01T11:56:23Z</time>
      </trkpt>
      <trkpt lat="45.66555" lon="5.75279">
        <ele>451</ele>
        <time>2018-09-01T11:56:23Z</time>
      </trkpt>
      <trkpt lat="45.6655" lon="5.75282">
        <ele>451</ele>
        <time>2018-09-01T11:56:23Z</time>
      </trkpt>
      <trkpt lat="45.66548" lon="5.75281">
        <ele>451</ele>
        <time>2018-09-01T11:56:23Z</time>
      </trkpt>
      <trkpt lat="45.66544" lon="5.75284">
        <ele>451</ele>
        <time>2018-09-01T11:56:39Z</time>
      </trkpt>
      <trkpt lat="45.6654" lon="5.75289">
        <ele>449</ele>
        <time>2018-09-01T11:56:39Z</time>
      </trkpt>
      <trkpt lat="45.66537" lon="5.75295">
        <ele>446</ele>
        <time>2018-09-01T11:56:39Z</time>
      </trkpt>
      <trkpt lat="45.66534" lon="5.75301">
        <ele>446</ele>
        <time>2018-09-01T11:56:39Z</time>
      </trkpt>
      <trkpt lat="45.66532" lon="5.75308">
        <ele>446</ele>
        <time>2018-09-01T11:56:55Z</time>
      </trkpt>
      <trkpt lat="45.66531" lon="5.75316">
        <ele>446</ele>
        <time>2018-09-01T11:56:55Z</time>
      </trkpt>
      <trkpt lat="45.66529" lon="5.75324">
        <ele>446</ele>
        <time>2018-09-01T11:56:55Z</time>
      </trkpt>
      <trkpt lat="45.66527" lon="5.75332">
        <ele>446</ele>
        <time>2018-09-01T11:56:55Z</time>
      </trkpt>
      <trkpt lat="45.66525" lon="5.7534">
        <ele>446</ele>
        <time>2018-09-01T11:57:11Z</time>
      </trkpt>
      <trkpt lat="45.66522" lon="5.75348">
        <ele>446</ele>
        <time>2018-09-01T11:57:11Z</time>
      </trkpt>
      <trkpt lat="45.66519" lon="5.75354">
        <ele>446</ele>
        <time>2018-09-01T11:57:11Z</time>
      </trkpt>
      <trkpt lat="45.66517" lon="5.75361">
        <ele>446</ele>
        <time>2018-09-01T11:57:11Z</time>
      </trkpt>
      <trkpt lat="45.66514" lon="5.75369">
        <ele>446</ele>
        <time>2018-09-01T11:57:27Z</time>
      </trkpt>
      <trkpt lat="45.66512" lon="5.75376">
        <ele>443</ele>
        <time>2018-09-01T11:57:27Z</time>
      </trkpt>
      <trkpt lat="45.66509" lon="5.75384">
        <ele>443</ele>
        <time>2018-09-01T11:57:27Z</time>
      </trkpt>
      <trkpt lat="45.66507" lon="5.75391">
        <ele>443</ele>
        <time>2018-09-01T11:57:27Z</time>
      </trkpt>
      <trkpt lat="45.66504" lon="5.75398">
        <ele>443</ele>
        <time>2018-09-01T11:57:43Z</time>
      </trkpt>
      <trkpt lat="45.66501" lon="5.75405">
        <ele>443</ele>
        <time>2018-09-01T11:57:43Z</time>
      </trkpt>
      <trkpt lat="45.66499" lon="5.75412">
        <ele>443</ele>
        <time>2018-09-01T11:57:43Z</time>
      </trkpt>
      <trkpt lat="45.66496" lon="5.7542">
        <ele>443</ele>
        <time>2018-09-01T11:57:43Z</time>
      </trkpt>
      <trkpt lat="45.66493" lon="5.75426">
        <ele>443</ele>
        <time>2018-09-01T11:57:59Z</time>
      </trkpt>
      <trkpt lat="45.6649" lon="5.75433">
        <ele>443</ele>
        <time>2018-09-01T11:57:59Z</time>
      </trkpt>
      <trkpt lat="45.66487" lon="5.7544">
        <ele>443</ele>
        <time>2018-09-01T11:57:59Z</time>
      </trkpt>
      <trkpt lat="45.66485" lon="5.75447">
        <ele>443</ele>
        <time>2018-09-01T11:57:59Z</time>
      </trkpt>
      <trkpt lat="45.66482" lon="5.75454">
        <ele>443</ele>
        <time>2018-09-01T11:58:15Z</time>
      </trkpt>
      <trkpt lat="45.66479" lon="5.75461">
        <ele>437</ele>
        <time>2018-09-01T11:58:15Z</time>
      </trkpt>
      <trkpt lat="45.66475" lon="5.75467">
        <ele>437</ele>
        <time>2018-09-01T11:58:15Z</time>
      </trkpt>
      <trkpt lat="45.6647" lon="5.7547">
        <ele>437</ele>
        <time>2018-09-01T11:58:15Z</time>
      </trkpt>
      <trkpt lat="45.66465" lon="5.75473">
        <ele>437</ele>
        <time>2018-09-01T11:58:31Z</time>
      </trkpt>
      <trkpt lat="45.66459" lon="5.75474">
        <ele>437</ele>
        <time>2018-09-01T11:58:31Z</time>
      </trkpt>
      <trkpt lat="45.66454" lon="5.75472">
        <ele>438</ele>
        <time>2018-09-01T11:58:31Z</time>
      </trkpt>
      <trkpt lat="45.66449" lon="5.7547">
        <ele>438</ele>
        <time>2018-09-01T11:58:31Z</time>
      </trkpt>
      <trkpt lat="45.66443" lon="5.75469">
        <ele>438</ele>
        <time>2018-09-01T11:58:47Z</time>
      </trkpt>
      <trkpt lat="45.66438" lon="5.75466">
        <ele>438</ele>
        <time>2018-09-01T11:58:47Z</time>
      </trkpt>
      <trkpt lat="45.66434" lon="5.75462">
        <ele>438</ele>
        <time>2018-09-01T11:58:47Z</time>
      </trkpt>
      <trkpt lat="45.66429" lon="5.75459">
        <ele>438</ele>
        <time>2018-09-01T11:58:47Z</time>
      </trkpt>
      <trkpt lat="45.66424" lon="5.75457">
        <ele>441</ele>
        <time>2018-09-01T11:59:03Z</time>
      </trkpt>
      <trkpt lat="45.6642" lon="5.75455">
        <ele>441</ele>
        <time>2018-09-01T11:59:03Z</time>
      </trkpt>
      <trkpt lat="45.66414" lon="5.75452">
        <ele>441</ele>
        <time>2018-09-01T11:59:03Z</time>
      </trkpt>
      <trkpt lat="45.6641" lon="5.75451">
        <ele>441</ele>
        <time>2018-09-01T11:59:03Z</time>
      </trkpt>
      <trkpt lat="45.66406" lon="5.75447">
        <ele>441</ele>
        <time>2018-09-01T11:59:19Z</time>
      </trkpt>
      <trkpt lat="45.66401" lon="5.75443">
        <ele>441</ele>
        <time>2018-09-01T11:59:19Z</time>
      </trkpt>
      <trkpt lat="45.66396" lon="5.7544">
        <ele>441</ele>
        <time>2018-09-01T11:59:19Z</time>
      </trkpt>
      <trkpt lat="45.66391" lon="5.75437">
        <ele>441</ele>
        <time>2018-09-01T11:59:19Z</time>
      </trkpt>
      <trkpt lat="45.66386" lon="5.75433">
        <ele>441</ele>
        <time>2018-09-01T11:59:35Z</time>
      </trkpt>
      <trkpt lat="45.66381" lon="5.7543">
        <ele>441</ele>
        <time>2018-09-01T11:59:35Z</time>
      </trkpt>
      <trkpt lat="45.66376" lon="5.75427">
        <ele>441</ele>
        <time>2018-09-01T11:59:35Z</time>
      </trkpt>
      <trkpt lat="45.66372" lon="5.75424">
        <ele>429</ele>
        <time>2018-09-01T11:59:35Z</time>
      </trkpt>
      <trkpt lat="45.66367" lon="5.75422">
        <ele>429</ele>
        <time>2018-09-01T11:59:51Z</time>
      </trkpt>
      <trkpt lat="45.66362" lon="5.75419">
        <ele>429</ele>
        <time>2018-09-01T11:59:51Z</time>
      </trkpt>
      <trkpt lat="45.66357" lon="5.75416">
        <ele>429</ele>
        <time>2018-09-01T11:59:51Z</time>
      </trkpt>
      <trkpt lat="45.66352" lon="5.75414">
        <ele>429</ele>
        <time>2018-09-01T11:59:51Z</time>
      </trkpt>
      <trkpt lat="45.66347" lon="5.75411">
        <ele>429</ele>
        <time>2018-09-01T12:00:07Z</time>
      </trkpt>
      <trkpt lat="45.66341" lon="5.7541">
        <ele>429</ele>
        <time>2018-09-01T12:00:07Z</time>
      </trkpt>
      <trkpt lat="45.66336" lon="5.7541">
        <ele>429</ele>
        <time>2018-09-01T12:00:07Z</time>
      </trkpt>
      <trkpt lat="45.66331" lon="5.75408">
        <ele>429</ele>
        <time>2018-09-01T12:00:07Z</time>
      </trkpt>
      <trkpt lat="45.66325" lon="5.75409">
        <ele>429</ele>
        <time>2018-09-01T12:00:23Z</time>
      </trkpt>
      <trkpt lat="45.66319" lon="5.75408">
        <ele>429</ele>
        <time>2018-09-01T12:00:23Z</time>
      </trkpt>
      <trkpt lat="45.66314" lon="5.75408">
        <ele>429</ele>
        <time>2018-09-01T12:00:23Z</time>
      </trkpt>
      <trkpt lat="45.66308" lon="5.75407">
        <ele>429</ele>
        <time>2018-09-01T12:00:23Z</time>
      </trkpt>
      <trkpt lat="45.66302" lon="5.75407">
        <ele>429</ele>
        <time>2018-09-01T12:00:39Z</time>
      </trkpt>
      <trkpt lat="45.66297" lon="5.75407">
        <ele>429</ele>
        <time>2018-09-01T12:00:39Z</time>
      </trkpt>
      <trkpt lat="45.66291" lon="5.75407">
        <ele>422</ele>
        <time>2018-09-01T12:00:39Z</time>
      </trkpt>
      <trkpt lat="45.66286" lon="5.75407">
        <ele>422</ele>
        <time>2018-09-01T12:00:39Z</time>
      </trkpt>
      <trkpt lat="45.66281" lon="5.75407">
        <ele>422</ele>
        <time>2018-09-01T12:00:55Z</time>
      </trkpt>
      <trkpt lat="45.66276" lon="5.75408">
        <ele>422</ele>
        <time>2018-09-01T12:00:55Z</time>
      </trkpt>
      <trkpt lat="45.66271" lon="5.75408">
        <ele>422</ele>
        <time>2018-09-01T12:00:55Z</time>
      </trkpt>
      <trkpt lat="45.66266" lon="5.7541">
        <ele>422</ele>
        <time>2018-09-01T12:00:55Z</time>
      </trkpt>
      <trkpt lat="45.66262" lon="5.75415">
        <ele>422</ele>
        <time>2018-09-01T12:01:11Z</time>
      </trkpt>
      <trkpt lat="45.66261" lon="5.75422">
        <ele>422</ele>
        <time>2018-09-01T12:01:11Z</time>
      </trkpt>
      <trkpt lat="45.66261" lon="5.7543">
        <ele>422</ele>
        <time>2018-09-01T12:01:11Z</time>
      </trkpt>
      <trkpt lat="45.66262" lon="5.75436">
        <ele>422</ele>
        <time>2018-09-01T12:01:11Z</time>
      </trkpt>
      <trkpt lat="45.66265" lon="5.75441">
        <ele>422</ele>
        <time>2018-09-01T12:01:27Z</time>
      </trkpt>
      <trkpt lat="45.66268" lon="5.75446">
        <ele>422</ele>
        <time>2018-09-01T12:01:27Z</time>
      </trkpt>
      <trkpt lat="45.66272" lon="5.7545">
        <ele>422</ele>
        <time>2018-09-01T12:01:27Z</time>
      </trkpt>
      <trkpt lat="45.66276" lon="5.75455">
        <ele>422</ele>
        <time>2018-09-01T12:01:27Z</time>
      </trkpt>
      <trkpt lat="45.66279" lon="5.75462">
        <ele>410</ele>
        <time>2018-09-01T12:01:43Z</time>
      </trkpt>
      <trkpt lat="45.66281" lon="5.75468">
        <ele>410</ele>
        <time>2018-09-01T12:01:43Z</time>
      </trkpt>
      <trkpt lat="45.66283" lon="5.75475">
        <ele>410</ele>
        <time>2018-09-01T12:01:43Z</time>
      </trkpt>
      <trkpt lat="45.66285" lon="5.75481">
        <ele>410</ele>
        <time>2018-09-01T12:01:43Z</time>
      </trkpt>
      <trkpt lat="45.66286" lon="5.75487">
        <ele>410</ele>
        <time>2018-09-01T12:01:59Z</time>
      </trkpt>
      <trkpt lat="45.66287" lon="5.7549">
        <ele>410</ele>
        <time>2018-09-01T12:01:59Z</time>
      </trkpt>
      <trkpt lat="45.66287" lon="5.75494">
        <ele>410</ele>
        <time>2018-09-01T12:01:59Z</time>
      </trkpt>
      <trkpt lat="45.66289" lon="5.75501">
        <ele>410</ele>
        <time>2018-09-01T12:01:59Z</time>
      </trkpt>
      <trkpt lat="45.66291" lon="5.75507">
        <ele>410</ele>
        <time>2018-09-01T12:02:15Z</time>
      </trkpt>
      <trkpt lat="45.66293" lon="5.75512">
        <ele>424</ele>
        <time>2018-09-01T12:02:15Z</time>
      </trkpt>
      <trkpt lat="45.66296" lon="5.75518">
        <ele>424</ele>
        <time>2018-09-01T12:02:15Z</time>
      </trkpt>
      <trkpt lat="45.66296" lon="5.75525">
        <ele>424</ele>
        <time>2018-09-01T12:02:15Z</time>
      </trkpt>
      <trkpt lat="45.66295" lon="5.75531">
        <ele>424</ele>
        <time>2018-09-01T12:02:31Z</time>
      </trkpt>
      <trkpt lat="45.66295" lon="5.75539">
        <ele>424</ele>
        <time>2018-09-01T12:02:31Z</time>
      </trkpt>
      <trkpt lat="45.66298" lon="5.75546">
        <ele>410</ele>
        <time>2018-09-01T12:02:31Z</time>
      </trkpt>
      <trkpt lat="45.66301" lon="5.75554">
        <ele>410</ele>
        <time>2018-09-01T12:02:31Z</time>
      </trkpt>
      <trkpt lat="45.66306" lon="5.7556">
        <ele>410</ele>
        <time>2018-09-01T12:02:47Z</time>
      </trkpt>
      <trkpt lat="45.66309" lon="5.75567">
        <ele>410</ele>
        <time>2018-09-01T12:02:47Z</time>
      </trkpt>
      <trkpt lat="45.6631" lon="5.75574">
        <ele>410</ele>
        <time>2018-09-01T12:02:47Z</time>
      </trkpt>
      <trkpt lat="45.66312" lon="5.7558">
        <ele>410</ele>
        <time>2018-09-01T12:02:47Z</time>
      </trkpt>
      <trkpt lat="45.66314" lon="5.75585">
        <ele>410</ele>
        <time>2018-09-01T12:03:03Z</time>
      </trkpt>
      <trkpt lat="45.66318" lon="5.75591">
        <ele>410</ele>
        <time>2018-09-01T12:03:03Z</time>
      </trkpt>
      <trkpt lat="45.66321" lon="5.75596">
        <ele>410</ele>
        <time>2018-09-01T12:03:03Z</time>
      </trkpt>
      <trkpt lat="45.66325" lon="5.756">
        <ele>410</ele>
        <time>2018-09-01T12:03:03Z</time>
      </trkpt>
      <trkpt lat="45.66329" lon="5.75604">
        <ele>410</ele>
        <time>2018-09-01T12:03:19Z</time>
      </trkpt>
      <trkpt lat="45.66333" lon="5.75609">
        <ele>410</ele>
        <time>2018-09-01T12:03:19Z</time>
      </trkpt>
      <trkpt lat="45.66336" lon="5.75613">
        <ele>410</ele>
        <time>2018-09-01T12:03:19Z</time>
      </trkpt>
      <trkpt lat="45.6634" lon="5.75617">
        <ele>410</ele>
        <time>2018-09-01T12:03:19Z</time>
      </trkpt>
      <trkpt lat="45.66343" lon="5.75621">
        <ele>410</ele>
        <time>2018-09-01T12:03:35Z</time>
      </trkpt>
      <trkpt lat="45.66347" lon="5.75626">
        <ele>390</ele>
        <time>2018-09-01T12:03:35Z</time>
      </trkpt>
      <trkpt lat="45.66348" lon="5.75627">
        <ele>390</ele>
        <time>2018-09-01T12:03:35Z</time>
      </trkpt>
      <trkpt lat="45.66351" lon="5.75632">
        <ele>390</ele>
        <time>2018-09-01T12:03:35Z</time>
      </trkpt>
      <trkpt lat="45.66355" lon="5.75636">
        <ele>390</ele>
        <time>2018-09-01T12:03:51Z</time>
      </trkpt>
      <trkpt lat="45.66358" lon="5.75641">
        <ele>390</ele>
        <time>2018-09-01T12:03:51Z</time>
      </trkpt>
      <trkpt lat="45.66362" lon="5.75646">
        <ele>390</ele>
        <time>2018-09-01T12:03:51Z</time>
      </trkpt>
      <trkpt lat="45.66366" lon="5.75651">
        <ele>390</ele>
        <time>2018-09-01T12:03:51Z</time>
      </trkpt>
      <trkpt lat="45.6637" lon="5.75655">
        <ele>390</ele>
        <time>2018-09-01T12:04:07Z</time>
      </trkpt>
      <trkpt lat="45.66374" lon="5.7566">
        <ele>390</ele>
        <time>2018-09-01T12:04:07Z</time>
      </trkpt>
      <trkpt lat="45.66376" lon="5.75665">
        <ele>398</ele>
        <time>2018-09-01T12:04:07Z</time>
      </trkpt>
      <trkpt lat="45.66378" lon="5.75668">
        <ele>398</ele>
        <time>2018-09-01T12:04:07Z</time>
      </trkpt>
      <trkpt lat="45.66382" lon="5.75671">
        <ele>398</ele>
        <time>2018-09-01T12:04:23Z</time>
      </trkpt>
      <trkpt lat="45.66385" lon="5.75674">
        <ele>398</ele>
        <time>2018-09-01T12:04:23Z</time>
      </trkpt>
      <trkpt lat="45.66389" lon="5.75678">
        <ele>398</ele>
        <time>2018-09-01T12:04:23Z</time>
      </trkpt>
      <trkpt lat="45.66393" lon="5.75681">
        <ele>398</ele>
        <time>2018-09-01T12:04:23Z</time>
      </trkpt>
      <trkpt lat="45.66398" lon="5.75683">
        <ele>398</ele>
        <time>2018-09-01T12:04:39Z</time>
      </trkpt>
      <trkpt lat="45.66402" lon="5.75685">
        <ele>398</ele>
        <time>2018-09-01T12:04:39Z</time>
      </trkpt>
      <trkpt lat="45.66409" lon="5.7569">
        <ele>398</ele>
        <time>2018-09-01T12:04:39Z</time>
      </trkpt>
      <trkpt lat="45.66415" lon="5.75693">
        <ele>398</ele>
        <time>2018-09-01T12:04:39Z</time>
      </trkpt>
      <trkpt lat="45.66421" lon="5.75698">
        <ele>398</ele>
        <time>2018-09-01T12:04:55Z</time>
      </trkpt>
      <trkpt lat="45.66426" lon="5.75702">
        <ele>398</ele>
        <time>2018-09-01T12:04:55Z</time>
      </trkpt>
      <trkpt lat="45.6643" lon="5.75706">
        <ele>398</ele>
        <time>2018-09-01T12:04:55Z</time>
      </trkpt>
      <trkpt lat="45.66434" lon="5.75709">
        <ele>383</ele>
        <time>2018-09-01T12:04:55Z</time>
      </trkpt>
      <trkpt lat="45.66437" lon="5.75715">
        <ele>383</ele>
        <time>2018-09-01T12:05:11Z</time>
      </trkpt>
      <trkpt lat="45.6644" lon="5.75719">
        <ele>383</ele>
        <time>2018-09-01T12:05:11Z</time>
      </trkpt>
      <trkpt lat="45.66443" lon="5.75723">
        <ele>383</ele>
        <time>2018-09-01T12:05:11Z</time>
      </trkpt>
      <trkpt lat="45.66447" lon="5.75727">
        <ele>383</ele>
        <time>2018-09-01T12:05:11Z</time>
      </trkpt>
      <trkpt lat="45.66451" lon="5.75732">
        <ele>383</ele>
        <time>2018-09-01T12:05:27Z</time>
      </trkpt>
      <trkpt lat="45.66456" lon="5.75735">
        <ele>383</ele>
        <time>2018-09-01T12:05:27Z</time>
      </trkpt>
      <trkpt lat="45.6646" lon="5.75735">
        <ele>395</ele>
        <time>2018-09-01T12:05:27Z</time>
      </trkpt>
      <trkpt lat="45.66464" lon="5.75732">
        <ele>395</ele>
        <time>2018-09-01T12:05:27Z</time>
      </trkpt>
      <trkpt lat="45.66468" lon="5.75729">
        <ele>395</ele>
        <time>2018-09-01T12:05:43Z</time>
      </trkpt>
      <trkpt lat="45.66473" lon="5.75729">
        <ele>395</ele>
        <time>2018-09-01T12:05:43Z</time>
      </trkpt>
      <trkpt lat="45.66477" lon="5.7573">
        <ele>395</ele>
        <time>2018-09-01T12:05:43Z</time>
      </trkpt>
      <trkpt lat="45.66481" lon="5.75733">
        <ele>395</ele>
        <time>2018-09-01T12:05:43Z</time>
      </trkpt>
      <trkpt lat="45.66485" lon="5.75736">
        <ele>395</ele>
        <time>2018-09-01T12:05:59Z</time>
      </trkpt>
      <trkpt lat="45.66488" lon="5.75739">
        <ele>395</ele>
        <time>2018-09-01T12:05:59Z</time>
      </trkpt>
      <trkpt lat="45.66492" lon="5.75742">
        <ele>395</ele>
        <time>2018-09-01T12:05:59Z</time>
      </trkpt>
      <trkpt lat="45.66497" lon="5.75745">
        <ele>395</ele>
        <time>2018-09-01T12:05:59Z</time>
      </trkpt>
      <trkpt lat="45.66502" lon="5.75748">
        <ele>395</ele>
        <time>2018-09-01T12:06:15Z</time>
      </trkpt>
      <trkpt lat="45.66508" lon="5.75751">
        <ele>395</ele>
        <time>2018-09-01T12:06:15Z</time>
      </trkpt>
      <trkpt lat="45.66513" lon="5.75755">
        <ele>395</ele>
        <time>2018-09-01T12:06:15Z</time>
      </trkpt>
      <trkpt lat="45.66518" lon="5.75759">
        <ele>395</ele>
        <time>2018-09-01T12:06:15Z</time>
      </trkpt>
      <trkpt lat="45.66528" lon="5.75774">
        <ele>395</ele>
        <time>2018-09-01T12:07:23Z</time>
      </trkpt>
      <trkpt lat="45.66528" lon="5.75774">
        <ele>395</ele>
        <time>2018-09-01T12:07:23Z</time>
      </trkpt>
      <trkpt lat="45.66529" lon="5.75774">
        <ele>395</ele>
        <time>2018-09-01T12:07:23Z</time>
      </trkpt>
      <trkpt lat="45.66529" lon="5.75777">
        <ele>395</ele>
        <time>2018-09-01T12:07:23Z</time>
      </trkpt>
      <trkpt lat="45.66532" lon="5.75782">
        <ele>395</ele>
        <time>2018-09-01T12:07:23Z</time>
      </trkpt>
      <trkpt lat="45.66534" lon="5.75789">
        <ele>395</ele>
        <time>2018-09-01T12:07:39Z</time>
      </trkpt>
      <trkpt lat="45.66534" lon="5.75797">
        <ele>383</ele>
        <time>2018-09-01T12:07:39Z</time>
      </trkpt>
      <trkpt lat="45.66532" lon="5.75802">
        <ele>383</ele>
        <time>2018-09-01T12:07:39Z</time>
      </trkpt>
      <trkpt lat="45.66532" lon="5.7581">
        <ele>383</ele>
        <time>2018-09-01T12:07:39Z</time>
      </trkpt>
      <trkpt lat="45.66535" lon="5.75817">
        <ele>383</ele>
        <time>2018-09-01T12:07:55Z</time>
      </trkpt>
      <trkpt lat="45.66538" lon="5.75824">
        <ele>383</ele>
        <time>2018-09-01T12:07:55Z</time>
      </trkpt>
      <trkpt lat="45.66541" lon="5.7583">
        <ele>383</ele>
        <time>2018-09-01T12:07:55Z</time>
      </trkpt>
      <trkpt lat="45.66543" lon="5.75837">
        <ele>396</ele>
        <time>2018-09-01T12:07:55Z</time>
      </trkpt>
      <trkpt lat="45.66547" lon="5.75843">
        <ele>396</ele>
        <time>2018-09-01T12:08:11Z</time>
      </trkpt>
      <trkpt lat="45.6655" lon="5.75849">
        <ele>396</ele>
        <time>2018-09-01T12:08:11Z</time>
      </trkpt>
      <trkpt lat="45.66553" lon="5.75854">
        <ele>396</ele>
        <time>2018-09-01T12:08:11Z</time>
      </trkpt>
      <trkpt lat="45.66555" lon="5.7586">
        <ele>396</ele>
        <time>2018-09-01T12:08:11Z</time>
      </trkpt>
      <trkpt lat="45.66556" lon="5.75862">
        <ele>396</ele>
        <time>2018-09-01T12:08:27Z</time>
      </trkpt>
      <trkpt lat="45.66558" lon="5.75865">
        <ele>396</ele>
        <time>2018-09-01T12:08:27Z</time>
      </trkpt>
      <trkpt lat="45.6656" lon="5.7587">
        <ele>396</ele>
        <time>2018-09-01T12:08:27Z</time>
      </trkpt>
      <trkpt lat="45.66562" lon="5.75875">
        <ele>384</ele>
        <time>2018-09-01T12:08:27Z</time>
      </trkpt>
      <trkpt lat="45.66564" lon="5.75882">
        <ele>384</ele>
        <time>2018-09-01T12:08:43Z</time>
      </trkpt>
      <trkpt lat="45.66567" lon="5.75889">
        <ele>384</ele>
        <time>2018-09-01T12:08:43Z</time>
      </trkpt>
      <trkpt lat="45.66569" lon="5.75897">
        <ele>384</ele>
        <time>2018-09-01T12:08:43Z</time>
      </trkpt>
      <trkpt lat="45.66571" lon="5.75904">
        <ele>384</ele>
        <time>2018-09-01T12:08:43Z</time>
      </trkpt>
      <trkpt lat="45.66571" lon="5.75912">
        <ele>384</ele>
        <time>2018-09-01T12:08:59Z</time>
      </trkpt>
      <trkpt lat="45.66572" lon="5.7592">
        <ele>384</ele>
        <time>2018-09-01T12:08:59Z</time>
      </trkpt>
      <trkpt lat="45.66571" lon="5.75927">
        <ele>384</ele>
        <time>2018-09-01T12:08:59Z</time>
      </trkpt>
      <trkpt lat="45.66571" lon="5.75934">
        <ele>384</ele>
        <time>2018-09-01T12:08:59Z</time>
      </trkpt>
      <trkpt lat="45.6657" lon="5.75941">
        <ele>384</ele>
        <time>2018-09-01T12:09:15Z</time>
      </trkpt>
      <trkpt lat="45.66569" lon="5.75948">
        <ele>384</ele>
        <time>2018-09-01T12:09:15Z</time>
      </trkpt>
      <trkpt lat="45.66568" lon="5.75953">
        <ele>384</ele>
        <time>2018-09-01T12:09:15Z</time>
      </trkpt>
      <trkpt lat="45.66568" lon="5.75961">
        <ele>371</ele>
        <time>2018-09-01T12:09:15Z</time>
      </trkpt>
      <trkpt lat="45.66567" lon="5.75968">
        <ele>371</ele>
        <time>2018-09-01T12:09:31Z</time>
      </trkpt>
      <trkpt lat="45.66567" lon="5.75975">
        <ele>371</ele>
        <time>2018-09-01T12:09:31Z</time>
      </trkpt>
      <trkpt lat="45.66567" lon="5.75981">
        <ele>371</ele>
        <time>2018-09-01T12:09:31Z</time>
      </trkpt>
      <trkpt lat="45.66566" lon="5.75989">
        <ele>371</ele>
        <time>2018-09-01T12:09:31Z</time>
      </trkpt>
      <trkpt lat="45.66566" lon="5.75997">
        <ele>371</ele>
        <time>2018-09-01T12:09:47Z</time>
      </trkpt>
      <trkpt lat="45.66566" lon="5.76005">
        <ele>371</ele>
        <time>2018-09-01T12:09:47Z</time>
      </trkpt>
      <trkpt lat="45.66566" lon="5.76013">
        <ele>371</ele>
        <time>2018-09-01T12:09:47Z</time>
      </trkpt>
      <trkpt lat="45.66567" lon="5.7602">
        <ele>371</ele>
        <time>2018-09-01T12:09:47Z</time>
      </trkpt>
      <trkpt lat="45.6657" lon="5.76026">
        <ele>371</ele>
        <time>2018-09-01T12:10:03Z</time>
      </trkpt>
      <trkpt lat="45.66573" lon="5.76031">
        <ele>371</ele>
        <time>2018-09-01T12:10:03Z</time>
      </trkpt>
      <trkpt lat="45.66578" lon="5.76035">
        <ele>371</ele>
        <time>2018-09-01T12:10:03Z</time>
      </trkpt>
      <trkpt lat="45.66582" lon="5.76038">
        <ele>371</ele>
        <time>2018-09-01T12:10:03Z</time>
      </trkpt>
      <trkpt lat="45.66588" lon="5.7604">
        <ele>371</ele>
        <time>2018-09-01T12:10:19Z</time>
      </trkpt>
      <trkpt lat="45.66593" lon="5.76044">
        <ele>357</ele>
        <time>2018-09-01T12:10:19Z</time>
      </trkpt>
      <trkpt lat="45.66597" lon="5.76047">
        <ele>357</ele>
        <time>2018-09-01T12:10:19Z</time>
      </trkpt>
      <trkpt lat="45.66601" lon="5.7605">
        <ele>357</ele>
        <time>2018-09-01T12:10:19Z</time>
      </trkpt>
      <trkpt lat="45.66606" lon="5.76053">
        <ele>357</ele>
        <time>2018-09-01T12:10:35Z</time>
      </trkpt>
      <trkpt lat="45.66612" lon="5.76056">
        <ele>357</ele>
        <time>2018-09-01T12:10:35Z</time>
      </trkpt>
      <trkpt lat="45.66618" lon="5.76059">
        <ele>357</ele>
        <time>2018-09-01T12:10:35Z</time>
      </trkpt>
      <trkpt lat="45.66624" lon="5.76059">
        <ele>357</ele>
        <time>2018-09-01T12:10:35Z</time>
      </trkpt>
      <trkpt lat="45.66629" lon="5.76059">
        <ele>364</ele>
        <time>2018-09-01T12:10:55Z</time>
      </trkpt>
      <trkpt lat="45.66632" lon="5.76059">
        <ele>364</ele>
        <time>2018-09-01T12:10:55Z</time>
      </trkpt>
      <trkpt lat="45.66633" lon="5.76059">
        <ele>364</ele>
        <time>2018-09-01T12:10:55Z</time>
      </trkpt>
      <trkpt lat="45.66634" lon="5.76059">
        <ele>364</ele>
        <time>2018-09-01T12:10:55Z</time>
      </trkpt>
      <trkpt lat="45.66638" lon="5.76057">
        <ele>364</ele>
        <time>2018-09-01T12:10:55Z</time>
      </trkpt>
      <trkpt lat="45.66642" lon="5.76056">
        <ele>364</ele>
        <time>2018-09-01T12:11:15Z</time>
      </trkpt>
      <trkpt lat="45.66643" lon="5.76056">
        <ele>364</ele>
        <time>2018-09-01T12:11:15Z</time>
      </trkpt>
      <trkpt lat="45.66646" lon="5.76056">
        <ele>364</ele>
        <time>2018-09-01T12:11:15Z</time>
      </trkpt>
      <trkpt lat="45.66648" lon="5.76054">
        <ele>364</ele>
        <time>2018-09-01T12:11:15Z</time>
      </trkpt>
      <trkpt lat="45.66654" lon="5.76053">
        <ele>364</ele>
        <time>2018-09-01T12:11:15Z</time>
      </trkpt>
      <trkpt lat="45.6666" lon="5.76053">
        <ele>364</ele>
        <time>2018-09-01T12:11:31Z</time>
      </trkpt>
      <trkpt lat="45.66665" lon="5.76056">
        <ele>364</ele>
        <time>2018-09-01T12:11:31Z</time>
      </trkpt>
      <trkpt lat="45.66669" lon="5.7606">
        <ele>364</ele>
        <time>2018-09-01T12:11:31Z</time>
      </trkpt>
      <trkpt lat="45.66673" lon="5.76064">
        <ele>364</ele>
        <time>2018-09-01T12:11:31Z</time>
      </trkpt>
      <trkpt lat="45.66675" lon="5.7607">
        <ele>364</ele>
        <time>2018-09-01T12:11:47Z</time>
      </trkpt>
      <trkpt lat="45.66677" lon="5.76077">
        <ele>364</ele>
        <time>2018-09-01T12:11:47Z</time>
      </trkpt>
      <trkpt lat="45.66677" lon="5.76085">
        <ele>364</ele>
        <time>2018-09-01T12:11:47Z</time>
      </trkpt>
      <trkpt lat="45.66678" lon="5.76093">
        <ele>364</ele>
        <time>2018-09-01T12:11:47Z</time>
      </trkpt>
      <trkpt lat="45.66678" lon="5.76099">
        <ele>364</ele>
        <time>2018-09-01T12:12:03Z</time>
      </trkpt>
      <trkpt lat="45.66677" lon="5.76106">
        <ele>364</ele>
        <time>2018-09-01T12:12:03Z</time>
      </trkpt>
      <trkpt lat="45.66677" lon="5.76113">
        <ele>364</ele>
        <time>2018-09-01T12:12:03Z</time>
      </trkpt>
      <trkpt lat="45.66676" lon="5.76121">
        <ele>364</ele>
        <time>2018-09-01T12:12:03Z</time>
      </trkpt>
      <trkpt lat="45.66678" lon="5.76128">
        <ele>351</ele>
        <time>2018-09-01T12:12:19Z</time>
      </trkpt>
      <trkpt lat="45.66679" lon="5.76136">
        <ele>351</ele>
        <time>2018-09-01T12:12:19Z</time>
      </trkpt>
      <trkpt lat="45.66681" lon="5.76142">
        <ele>351</ele>
        <time>2018-09-01T12:12:19Z</time>
      </trkpt>
      <trkpt lat="45.66683" lon="5.76148">
        <ele>351</ele>
        <time>2018-09-01T12:12:19Z</time>
      </trkpt>
      <trkpt lat="45.66686" lon="5.76154">
        <ele>351</ele>
        <time>2018-09-01T12:12:35Z</time>
      </trkpt>
      <trkpt lat="45.6669" lon="5.76159">
        <ele>351</ele>
        <time>2018-09-01T12:12:35Z</time>
      </trkpt>
      <trkpt lat="45.66693" lon="5.76164">
        <ele>351</ele>
        <time>2018-09-01T12:12:35Z</time>
      </trkpt>
      <trkpt lat="45.66697" lon="5.76168">
        <ele>351</ele>
        <time>2018-09-01T12:12:35Z</time>
      </trkpt>
      <trkpt lat="45.66702" lon="5.76173">
        <ele>351</ele>
        <time>2018-09-01T12:12:51Z</time>
      </trkpt>
      <trkpt lat="45.66708" lon="5.76177">
        <ele>351</ele>
        <time>2018-09-01T12:12:51Z</time>
      </trkpt>
      <trkpt lat="45.66713" lon="5.76181">
        <ele>359</ele>
        <time>2018-09-01T12:12:51Z</time>
      </trkpt>
      <trkpt lat="45.66717" lon="5.76185">
        <ele>359</ele>
        <time>2018-09-01T12:12:51Z</time>
      </trkpt>
      <trkpt lat="45.66721" lon="5.76188">
        <ele>359</ele>
        <time>2018-09-01T12:13:07Z</time>
      </trkpt>
      <trkpt lat="45.66725" lon="5.76192">
        <ele>359</ele>
        <time>2018-09-01T12:13:07Z</time>
      </trkpt>
      <trkpt lat="45.6673" lon="5.76195">
        <ele>359</ele>
        <time>2018-09-01T12:13:07Z</time>
      </trkpt>
      <trkpt lat="45.66735" lon="5.76198">
        <ele>359</ele>
        <time>2018-09-01T12:13:07Z</time>
      </trkpt>
      <trkpt lat="45.6674" lon="5.76202">
        <ele>359</ele>
        <time>2018-09-01T12:13:23Z</time>
      </trkpt>
      <trkpt lat="45.66746" lon="5.76206">
        <ele>359</ele>
        <time>2018-09-01T12:13:23Z</time>
      </trkpt>
      <trkpt lat="45.66751" lon="5.7621">
        <ele>341</ele>
        <time>2018-09-01T12:13:23Z</time>
      </trkpt>
      <trkpt lat="45.66755" lon="5.76215">
        <ele>341</ele>
        <time>2018-09-01T12:13:23Z</time>
      </trkpt>
      <trkpt lat="45.6676" lon="5.76219">
        <ele>341</ele>
        <time>2018-09-01T12:13:39Z</time>
      </trkpt>
      <trkpt lat="45.66766" lon="5.76223">
        <ele>341</ele>
        <time>2018-09-01T12:13:39Z</time>
      </trkpt>
      <trkpt lat="45.66771" lon="5.76224">
        <ele>341</ele>
        <time>2018-09-01T12:13:39Z</time>
      </trkpt>
      <trkpt lat="45.66776" lon="5.76224">
        <ele>341</ele>
        <time>2018-09-01T12:13:39Z</time>
      </trkpt>
      <trkpt lat="45.66781" lon="5.76222">
        <ele>341</ele>
        <time>2018-09-01T12:13:55Z</time>
      </trkpt>
      <trkpt lat="45.66785" lon="5.76217">
        <ele>341</ele>
        <time>2018-09-01T12:13:55Z</time>
      </trkpt>
      <trkpt lat="45.6679" lon="5.76213">
        <ele>341</ele>
        <time>2018-09-01T12:13:55Z</time>
      </trkpt>
      <trkpt lat="45.66793" lon="5.7621">
        <ele>345</ele>
        <time>2018-09-01T12:13:55Z</time>
      </trkpt>
      <trkpt lat="45.66798" lon="5.76201">
        <ele>356</ele>
        <time>2018-09-01T12:14:43Z</time>
      </trkpt>
      <trkpt lat="45.66798" lon="5.762">
        <ele>356</ele>
        <time>2018-09-01T12:14:43Z</time>
      </trkpt>
      <trkpt lat="45.66801" lon="5.76198">
        <ele>356</ele>
        <time>2018-09-01T12:14:43Z</time>
      </trkpt>
      <trkpt lat="45.66807" lon="5.76196">
        <ele>356</ele>
        <time>2018-09-01T12:14:43Z</time>
      </trkpt>
      <trkpt lat="45.66812" lon="5.76198">
        <ele>356</ele>
        <time>2018-09-01T12:14:43Z</time>
      </trkpt>
      <trkpt lat="45.66817" lon="5.762">
        <ele>356</ele>
        <time>2018-09-01T12:14:59Z</time>
      </trkpt>
      <trkpt lat="45.66821" lon="5.76203">
        <ele>356</ele>
        <time>2018-09-01T12:14:59Z</time>
      </trkpt>
      <trkpt lat="45.66825" lon="5.76208">
        <ele>345</ele>
        <time>2018-09-01T12:14:59Z</time>
      </trkpt>
      <trkpt lat="45.66829" lon="5.76214">
        <ele>345</ele>
        <time>2018-09-01T12:14:59Z</time>
      </trkpt>
      <trkpt lat="45.66832" lon="5.76219">
        <ele>345</ele>
        <time>2018-09-01T12:15:15Z</time>
      </trkpt>
      <trkpt lat="45.66834" lon="5.76221">
        <ele>345</ele>
        <time>2018-09-01T12:15:15Z</time>
      </trkpt>
      <trkpt lat="45.66836" lon="5.76223">
        <ele>345</ele>
        <time>2018-09-01T12:15:15Z</time>
      </trkpt>
      <trkpt lat="45.66839" lon="5.76229">
        <ele>345</ele>
        <time>2018-09-01T12:15:15Z</time>
      </trkpt>
      <trkpt lat="45.66844" lon="5.76234">
        <ele>345</ele>
        <time>2018-09-01T12:15:31Z</time>
      </trkpt>
      <trkpt lat="45.66848" lon="5.76238">
        <ele>345</ele>
        <time>2018-09-01T12:15:31Z</time>
      </trkpt>
      <trkpt lat="45.66852" lon="5.76244">
        <ele>345</ele>
        <time>2018-09-01T12:15:31Z</time>
      </trkpt>
      <trkpt lat="45.66855" lon="5.7625">
        <ele>345</ele>
        <time>2018-09-01T12:15:31Z</time>
      </trkpt>
      <trkpt lat="45.66859" lon="5.76256">
        <ele>345</ele>
        <time>2018-09-01T12:15:47Z</time>
      </trkpt>
      <trkpt lat="45.66863" lon="5.76262">
        <ele>345</ele>
        <time>2018-09-01T12:15:47Z</time>
      </trkpt>
      <trkpt lat="45.66866" lon="5.76268">
        <ele>345</ele>
        <time>2018-09-01T12:15:47Z</time>
      </trkpt>
      <trkpt lat="45.6687" lon="5.76274">
        <ele>345</ele>
        <time>2018-09-01T12:15:47Z</time>
      </trkpt>
      <trkpt lat="45.66873" lon="5.76279">
        <ele>345</ele>
        <time>2018-09-01T12:16:03Z</time>
      </trkpt>
      <trkpt lat="45.66876" lon="5.76283">
        <ele>352</ele>
        <time>2018-09-01T12:16:03Z</time>
      </trkpt>
      <trkpt lat="45.66879" lon="5.76287">
        <ele>352</ele>
        <time>2018-09-01T12:16:03Z</time>
      </trkpt>
      <trkpt lat="45.66883" lon="5.76291">
        <ele>352</ele>
        <time>2018-09-01T12:16:03Z</time>
      </trkpt>
      <trkpt lat="45.66887" lon="5.76297">
        <ele>335</ele>
        <time>2018-09-01T12:16:19Z</time>
      </trkpt>
      <trkpt lat="45.66892" lon="5.76302">
        <ele>335</ele>
        <time>2018-09-01T12:16:19Z</time>
      </trkpt>
      <trkpt lat="45.66897" lon="5.76307">
        <ele>335</ele>
        <time>2018-09-01T12:16:19Z</time>
      </trkpt>
      <trkpt lat="45.66902" lon="5.7631">
        <ele>335</ele>
        <time>2018-09-01T12:16:19Z</time>
      </trkpt>
      <trkpt lat="45.66906" lon="5.7631">
        <ele>335</ele>
        <time>2018-09-01T12:16:35Z</time>
      </trkpt>
      <trkpt lat="45.6691" lon="5.7631">
        <ele>335</ele>
        <time>2018-09-01T12:16:35Z</time>
      </trkpt>
      <trkpt lat="45.66914" lon="5.76306">
        <ele>335</ele>
        <time>2018-09-01T12:16:35Z</time>
      </trkpt>
      <trkpt lat="45.66917" lon="5.76301">
        <ele>335</ele>
        <time>2018-09-01T12:16:35Z</time>
      </trkpt>
      <trkpt lat="45.66921" lon="5.76296">
        <ele>335</ele>
        <time>2018-09-01T12:16:51Z</time>
      </trkpt>
      <trkpt lat="45.66924" lon="5.7629">
        <ele>352</ele>
        <time>2018-09-01T12:16:51Z</time>
      </trkpt>
      <trkpt lat="45.66928" lon="5.76286">
        <ele>352</ele>
        <time>2018-09-01T12:16:51Z</time>
      </trkpt>
      <trkpt lat="45.66934" lon="5.76287">
        <ele>352</ele>
        <time>2018-09-01T12:16:51Z</time>
      </trkpt>
      <trkpt lat="45.66937" lon="5.76294">
        <ele>335</ele>
        <time>2018-09-01T12:17:07Z</time>
      </trkpt>
      <trkpt lat="45.66938" lon="5.76302">
        <ele>335</ele>
        <time>2018-09-01T12:17:07Z</time>
      </trkpt>
      <trkpt lat="45.66937" lon="5.7631">
        <ele>335</ele>
        <time>2018-09-01T12:17:07Z</time>
      </trkpt>
      <trkpt lat="45.66935" lon="5.76316">
        <ele>335</ele>
        <time>2018-09-01T12:17:07Z</time>
      </trkpt>
      <trkpt lat="45.66934" lon="5.76321">
        <ele>335</ele>
        <time>2018-09-01T12:17:23Z</time>
      </trkpt>
      <trkpt lat="45.66932" lon="5.76326">
        <ele>335</ele>
        <time>2018-09-01T12:17:23Z</time>
      </trkpt>
      <trkpt lat="45.6693" lon="5.76332">
        <ele>335</ele>
        <time>2018-09-01T12:17:23Z</time>
      </trkpt>
      <trkpt lat="45.66927" lon="5.76338">
        <ele>335</ele>
        <time>2018-09-01T12:17:23Z</time>
      </trkpt>
      <trkpt lat="45.66924" lon="5.76344">
        <ele>335</ele>
        <time>2018-09-01T12:17:39Z</time>
      </trkpt>
      <trkpt lat="45.66918" lon="5.76351">
        <ele>335</ele>
        <time>2018-09-01T12:17:39Z</time>
      </trkpt>
      <trkpt lat="45.66911" lon="5.76354">
        <ele>335</ele>
        <time>2018-09-01T12:17:39Z</time>
      </trkpt>
      <trkpt lat="45.66904" lon="5.76355">
        <ele>335</ele>
        <time>2018-09-01T12:17:39Z</time>
      </trkpt>
      <trkpt lat="45.66898" lon="5.76353">
        <ele>335</ele>
        <time>2018-09-01T12:17:55Z</time>
      </trkpt>
      <trkpt lat="45.66893" lon="5.76349">
        <ele>335</ele>
        <time>2018-09-01T12:17:55Z</time>
      </trkpt>
      <trkpt lat="45.66887" lon="5.76344">
        <ele>335</ele>
        <time>2018-09-01T12:17:55Z</time>
      </trkpt>
      <trkpt lat="45.66883" lon="5.76337">
        <ele>335</ele>
        <time>2018-09-01T12:17:55Z</time>
      </trkpt>
      <trkpt lat="45.66879" lon="5.76334">
        <ele>335</ele>
        <time>2018-09-01T12:18:11Z</time>
      </trkpt>
      <trkpt lat="45.66874" lon="5.76331">
        <ele>324</ele>
        <time>2018-09-01T12:18:11Z</time>
      </trkpt>
      <trkpt lat="45.66869" lon="5.76329">
        <ele>324</ele>
        <time>2018-09-01T12:18:11Z</time>
      </trkpt>
      <trkpt lat="45.66865" lon="5.76328">
        <ele>324</ele>
        <time>2018-09-01T12:18:11Z</time>
      </trkpt>
      <trkpt lat="45.6686" lon="5.76328">
        <ele>324</ele>
        <time>2018-09-01T12:18:27Z</time>
      </trkpt>
      <trkpt lat="45.66855" lon="5.76328">
        <ele>324</ele>
        <time>2018-09-01T12:18:27Z</time>
      </trkpt>
      <trkpt lat="45.66851" lon="5.76328">
        <ele>324</ele>
        <time>2018-09-01T12:18:27Z</time>
      </trkpt>
      <trkpt lat="45.66846" lon="5.76327">
        <ele>324</ele>
        <time>2018-09-01T12:18:27Z</time>
      </trkpt>
      <trkpt lat="45.66836" lon="5.76329">
        <ele>324</ele>
        <time>2018-09-01T12:19:03Z</time>
      </trkpt>
      <trkpt lat="45.66835" lon="5.76328">
        <ele>324</ele>
        <time>2018-09-01T12:19:03Z</time>
      </trkpt>
      <trkpt lat="45.66833" lon="5.76326">
        <ele>324</ele>
        <time>2018-09-01T12:19:03Z</time>
      </trkpt>
      <trkpt lat="45.6683" lon="5.76324">
        <ele>324</ele>
        <time>2018-09-01T12:19:03Z</time>
      </trkpt>
      <trkpt lat="45.66828" lon="5.76325">
        <ele>324</ele>
        <time>2018-09-01T12:19:03Z</time>
      </trkpt>
      <trkpt lat="45.66822" lon="5.76331">
        <ele>324</ele>
        <time>2018-09-01T12:20:31Z</time>
      </trkpt>
      <trkpt lat="45.66826" lon="5.76337">
        <ele>324</ele>
        <time>2018-09-01T12:20:31Z</time>
      </trkpt>
      <trkpt lat="45.66829" lon="5.76343">
        <ele>324</ele>
        <time>2018-09-01T12:20:31Z</time>
      </trkpt>
      <trkpt lat="45.66833" lon="5.76349">
        <ele>324</ele>
        <time>2018-09-01T12:20:31Z</time>
      </trkpt>
      <trkpt lat="45.66836" lon="5.76355">
        <ele>324</ele>
        <time>2018-09-01T12:20:31Z</time>
      </trkpt>
      <trkpt lat="45.6684" lon="5.7636">
        <ele>324</ele>
        <time>2018-09-01T12:20:47Z</time>
      </trkpt>
      <trkpt lat="45.66843" lon="5.76365">
        <ele>324</ele>
        <time>2018-09-01T12:20:47Z</time>
      </trkpt>
      <trkpt lat="45.66847" lon="5.76371">
        <ele>324</ele>
        <time>2018-09-01T12:20:47Z</time>
      </trkpt>
      <trkpt lat="45.6685" lon="5.76379">
        <ele>309</ele>
        <time>2018-09-01T12:20:47Z</time>
      </trkpt>
      <trkpt lat="45.66853" lon="5.76387">
        <ele>309</ele>
        <time>2018-09-01T12:21:03Z</time>
      </trkpt>
      <trkpt lat="45.66856" lon="5.76394">
        <ele>309</ele>
        <time>2018-09-01T12:21:03Z</time>
      </trkpt>
      <trkpt lat="45.66858" lon="5.76401">
        <ele>309</ele>
        <time>2018-09-01T12:21:03Z</time>
      </trkpt>
      <trkpt lat="45.66859" lon="5.76405">
        <ele>309</ele>
        <time>2018-09-01T12:21:03Z</time>
      </trkpt>
      <trkpt lat="45.66858" lon="5.7641">
        <ele>309</ele>
        <time>2018-09-01T12:21:19Z</time>
      </trkpt>
      <trkpt lat="45.66857" lon="5.76416">
        <ele>309</ele>
        <time>2018-09-01T12:21:19Z</time>
      </trkpt>
      <trkpt lat="45.66855" lon="5.76422">
        <ele>309</ele>
        <time>2018-09-01T12:21:19Z</time>
      </trkpt>
      <trkpt lat="45.66852" lon="5.76428">
        <ele>309</ele>
        <time>2018-09-01T12:21:19Z</time>
      </trkpt>
      <trkpt lat="45.66848" lon="5.76437">
        <ele>309</ele>
        <time>2018-09-01T12:21:35Z</time>
      </trkpt>
      <trkpt lat="45.66845" lon="5.76444">
        <ele>309</ele>
        <time>2018-09-01T12:21:35Z</time>
      </trkpt>
      <trkpt lat="45.66842" lon="5.76453">
        <ele>309</ele>
        <time>2018-09-01T12:21:35Z</time>
      </trkpt>
      <trkpt lat="45.6684" lon="5.7646">
        <ele>308</ele>
        <time>2018-09-01T12:21:35Z</time>
      </trkpt>
      <trkpt lat="45.66839" lon="5.76468">
        <ele>308</ele>
        <time>2018-09-01T12:21:51Z</time>
      </trkpt>
      <trkpt lat="45.66838" lon="5.7648">
        <ele>308</ele>
        <time>2018-09-01T12:21:51Z</time>
      </trkpt>
      <trkpt lat="45.66834" lon="5.76498">
        <ele>308</ele>
        <time>2018-09-01T12:21:51Z</time>
      </trkpt>
      <trkpt lat="45.66834" lon="5.76505">
        <ele>308</ele>
        <time>2018-09-01T12:21:51Z</time>
      </trkpt>
      <trkpt lat="45.66832" lon="5.76512">
        <ele>308</ele>
        <time>2018-09-01T12:22:07Z</time>
      </trkpt>
      <trkpt lat="45.66831" lon="5.76517">
        <ele>308</ele>
        <time>2018-09-01T12:22:07Z</time>
      </trkpt>
      <trkpt lat="45.66833" lon="5.76523">
        <ele>308</ele>
        <time>2018-09-01T12:22:07Z</time>
      </trkpt>
      <trkpt lat="45.66834" lon="5.76529">
        <ele>308</ele>
        <time>2018-09-01T12:22:07Z</time>
      </trkpt>
      <trkpt lat="45.66832" lon="5.76545">
        <ele>327</ele>
        <time>2018-09-01T12:22:59Z</time>
      </trkpt>
      <trkpt lat="45.66832" lon="5.76545">
        <ele>327</ele>
        <time>2018-09-01T12:22:59Z</time>
      </trkpt>
      <trkpt lat="45.6683" lon="5.76545">
        <ele>327</ele>
        <time>2018-09-01T12:22:59Z</time>
      </trkpt>
      <trkpt lat="45.66829" lon="5.76545">
        <ele>327</ele>
        <time>2018-09-01T12:22:59Z</time>
      </trkpt>
      <trkpt lat="45.66828" lon="5.76546">
        <ele>327</ele>
        <time>2018-09-01T12:22:59Z</time>
      </trkpt>
      <trkpt lat="45.66821" lon="5.76538">
        <ele>308</ele>
        <time>2018-09-01T12:24:07Z</time>
      </trkpt>
      <trkpt lat="45.66821" lon="5.76538">
        <ele>308</ele>
        <time>2018-09-01T12:24:07Z</time>
      </trkpt>
      <trkpt lat="45.66821" lon="5.76538">
        <ele>308</ele>
        <time>2018-09-01T12:24:07Z</time>
      </trkpt>
      <trkpt lat="45.66821" lon="5.76538">
        <ele>308</ele>
        <time>2018-09-01T12:24:07Z</time>
      </trkpt>
      <trkpt lat="45.66821" lon="5.76538">
        <ele>308</ele>
        <time>2018-09-01T12:24:07Z</time>
      </trkpt>
      <trkpt lat="45.6682" lon="5.76537">
        <ele>308</ele>
        <time>2018-09-01T12:24:51Z</time>
      </trkpt>
      <trkpt lat="45.6682" lon="5.76537">
        <ele>308</ele>
        <time>2018-09-01T12:24:51Z</time>
      </trkpt>
      <trkpt lat="45.6682" lon="5.7653">
        <ele>308</ele>
        <time>2018-09-01T12:24:51Z</time>
      </trkpt>
      <trkpt lat="45.66822" lon="5.76518">
        <ele>308</ele>
        <time>2018-09-01T12:24:51Z</time>
      </trkpt>
      <trkpt lat="45.66841" lon="5.76479">
        <ele>308</ele>
        <time>2018-09-01T12:24:51Z</time>
      </trkpt>
      <trkpt lat="45.66856" lon="5.76454">
        <ele>309</ele>
        <time>2018-09-01T12:25:07Z</time>
      </trkpt>
      <trkpt lat="45.66872" lon="5.7644">
        <ele>309</ele>
        <time>2018-09-01T12:25:07Z</time>
      </trkpt>
      <trkpt lat="45.66877" lon="5.76433">
        <ele>313</ele>
        <time>2018-09-01T12:25:07Z</time>
      </trkpt>
      <trkpt lat="45.66883" lon="5.76437">
        <ele>313</ele>
        <time>2018-09-01T12:25:07Z</time>
      </trkpt>
      <trkpt lat="45.66888" lon="5.76439">
        <ele>313</ele>
        <time>2018-09-01T12:25:23Z</time>
      </trkpt>
      <trkpt lat="45.66893" lon="5.76441">
        <ele>313</ele>
        <time>2018-09-01T12:25:23Z</time>
      </trkpt>
      <trkpt lat="45.66899" lon="5.76442">
        <ele>313</ele>
        <time>2018-09-01T12:25:23Z</time>
      </trkpt>
      <trkpt lat="45.66905" lon="5.76444">
        <ele>313</ele>
        <time>2018-09-01T12:25:23Z</time>
      </trkpt>
      <trkpt lat="45.66911" lon="5.76445">
        <ele>313</ele>
        <time>2018-09-01T12:25:39Z</time>
      </trkpt>
      <trkpt lat="45.66917" lon="5.76446">
        <ele>313</ele>
        <time>2018-09-01T12:25:39Z</time>
      </trkpt>
      <trkpt lat="45.66922" lon="5.76443">
        <ele>313</ele>
        <time>2018-09-01T12:25:39Z</time>
      </trkpt>
      <trkpt lat="45.66926" lon="5.7644">
        <ele>313</ele>
        <time>2018-09-01T12:25:39Z</time>
      </trkpt>
      <trkpt lat="45.66931" lon="5.76438">
        <ele>313</ele>
        <time>2018-09-01T12:25:55Z</time>
      </trkpt>
      <trkpt lat="45.66936" lon="5.76434">
        <ele>313</ele>
        <time>2018-09-01T12:25:55Z</time>
      </trkpt>
      <trkpt lat="45.66941" lon="5.76429">
        <ele>313</ele>
        <time>2018-09-01T12:25:55Z</time>
      </trkpt>
      <trkpt lat="45.66946" lon="5.76425">
        <ele>313</ele>
        <time>2018-09-01T12:25:55Z</time>
      </trkpt>
      <trkpt lat="45.6695" lon="5.7642">
        <ele>313</ele>
        <time>2018-09-01T12:26:11Z</time>
      </trkpt>
      <trkpt lat="45.66954" lon="5.76415">
        <ele>313</ele>
        <time>2018-09-01T12:26:11Z</time>
      </trkpt>
      <trkpt lat="45.66958" lon="5.76409">
        <ele>313</ele>
        <time>2018-09-01T12:26:11Z</time>
      </trkpt>
      <trkpt lat="45.66963" lon="5.76404">
        <ele>312</ele>
        <time>2018-09-01T12:26:11Z</time>
      </trkpt>
      <trkpt lat="45.66968" lon="5.764">
        <ele>312</ele>
        <time>2018-09-01T12:26:27Z</time>
      </trkpt>
      <trkpt lat="45.66974" lon="5.76399">
        <ele>312</ele>
        <time>2018-09-01T12:26:27Z</time>
      </trkpt>
      <trkpt lat="45.6698" lon="5.76397">
        <ele>312</ele>
        <time>2018-09-01T12:26:27Z</time>
      </trkpt>
      <trkpt lat="45.66986" lon="5.76396">
        <ele>312</ele>
        <time>2018-09-01T12:26:27Z</time>
      </trkpt>
      <trkpt lat="45.66992" lon="5.76396">
        <ele>312</ele>
        <time>2018-09-01T12:26:43Z</time>
      </trkpt>
      <trkpt lat="45.66998" lon="5.76397">
        <ele>312</ele>
        <time>2018-09-01T12:26:43Z</time>
      </trkpt>
      <trkpt lat="45.67004" lon="5.76398">
        <ele>312</ele>
        <time>2018-09-01T12:26:43Z</time>
      </trkpt>
      <trkpt lat="45.67011" lon="5.76399">
        <ele>312</ele>
        <time>2018-09-01T12:26:43Z</time>
      </trkpt>
      <trkpt lat="45.67016" lon="5.764">
        <ele>312</ele>
        <time>2018-09-01T12:26:59Z</time>
      </trkpt>
      <trkpt lat="45.67021" lon="5.76404">
        <ele>312</ele>
        <time>2018-09-01T12:26:59Z</time>
      </trkpt>
      <trkpt lat="45.67027" lon="5.76406">
        <ele>312</ele>
        <time>2018-09-01T12:26:59Z</time>
      </trkpt>
      <trkpt lat="45.67033" lon="5.76407">
        <ele>312</ele>
        <time>2018-09-01T12:26:59Z</time>
      </trkpt>
      <trkpt lat="45.67037" lon="5.76411">
        <ele>312</ele>
        <time>2018-09-01T12:27:15Z</time>
      </trkpt>
      <trkpt lat="45.67042" lon="5.76415">
        <ele>314</ele>
        <time>2018-09-01T12:27:15Z</time>
      </trkpt>
      <trkpt lat="45.67048" lon="5.7642">
        <ele>314</ele>
        <time>2018-09-01T12:27:15Z</time>
      </trkpt>
      <trkpt lat="45.67053" lon="5.76427">
        <ele>314</ele>
        <time>2018-09-01T12:27:15Z</time>
      </trkpt>
      <trkpt lat="45.67059" lon="5.76436">
        <ele>314</ele>
        <time>2018-09-01T12:27:31Z</time>
      </trkpt>
      <trkpt lat="45.67065" lon="5.76439">
        <ele>314</ele>
        <time>2018-09-01T12:27:31Z</time>
      </trkpt>
      <trkpt lat="45.67068" lon="5.76444">
        <ele>314</ele>
        <time>2018-09-01T12:27:31Z</time>
      </trkpt>
      <trkpt lat="45.67072" lon="5.76446">
        <ele>314</ele>
        <time>2018-09-01T12:27:31Z</time>
      </trkpt>
      <trkpt lat="45.67075" lon="5.76449">
        <ele>314</ele>
        <time>2018-09-01T12:27:47Z</time>
      </trkpt>
      <trkpt lat="45.67079" lon="5.76453">
        <ele>314</ele>
        <time>2018-09-01T12:27:47Z</time>
      </trkpt>
      <trkpt lat="45.67084" lon="5.76456">
        <ele>314</ele>
        <time>2018-09-01T12:27:47Z</time>
      </trkpt>
      <trkpt lat="45.67089" lon="5.7646">
        <ele>304</ele>
        <time>2018-09-01T12:27:47Z</time>
      </trkpt>
      <trkpt lat="45.67094" lon="5.76462">
        <ele>304</ele>
        <time>2018-09-01T12:28:03Z</time>
      </trkpt>
      <trkpt lat="45.671" lon="5.76465">
        <ele>304</ele>
        <time>2018-09-01T12:28:03Z</time>
      </trkpt>
      <trkpt lat="45.67105" lon="5.76467">
        <ele>304</ele>
        <time>2018-09-01T12:28:03Z</time>
      </trkpt>
      <trkpt lat="45.67111" lon="5.7647">
        <ele>304</ele>
        <time>2018-09-01T12:28:03Z</time>
      </trkpt>
      <trkpt lat="45.67117" lon="5.76474">
        <ele>304</ele>
        <time>2018-09-01T12:28:19Z</time>
      </trkpt>
      <trkpt lat="45.67122" lon="5.76477">
        <ele>304</ele>
        <time>2018-09-01T12:28:19Z</time>
      </trkpt>
      <trkpt lat="45.67127" lon="5.7648">
        <ele>298</ele>
        <time>2018-09-01T12:28:19Z</time>
      </trkpt>
      <trkpt lat="45.67132" lon="5.76483">
        <ele>298</ele>
        <time>2018-09-01T12:28:19Z</time>
      </trkpt>
      <trkpt lat="45.67137" lon="5.76486">
        <ele>298</ele>
        <time>2018-09-01T12:28:35Z</time>
      </trkpt>
      <trkpt lat="45.67142" lon="5.76489">
        <ele>298</ele>
        <time>2018-09-01T12:28:35Z</time>
      </trkpt>
      <trkpt lat="45.67147" lon="5.76494">
        <ele>298</ele>
        <time>2018-09-01T12:28:35Z</time>
      </trkpt>
      <trkpt lat="45.67153" lon="5.76498">
        <ele>298</ele>
        <time>2018-09-01T12:28:35Z</time>
      </trkpt>
      <trkpt lat="45.67158" lon="5.765">
        <ele>298</ele>
        <time>2018-09-01T12:28:51Z</time>
      </trkpt>
      <trkpt lat="45.67164" lon="5.76503">
        <ele>298</ele>
        <time>2018-09-01T12:28:51Z</time>
      </trkpt>
      <trkpt lat="45.67169" lon="5.76505">
        <ele>298</ele>
        <time>2018-09-01T12:28:51Z</time>
      </trkpt>
      <trkpt lat="45.67175" lon="5.76506">
        <ele>298</ele>
        <time>2018-09-01T12:28:51Z</time>
      </trkpt>
      <trkpt lat="45.67181" lon="5.76508">
        <ele>298</ele>
        <time>2018-09-01T12:29:07Z</time>
      </trkpt>
      <trkpt lat="45.67187" lon="5.76511">
        <ele>298</ele>
        <time>2018-09-01T12:29:07Z</time>
      </trkpt>
      <trkpt lat="45.67192" lon="5.76514">
        <ele>298</ele>
        <time>2018-09-01T12:29:07Z</time>
      </trkpt>
      <trkpt lat="45.67198" lon="5.76516">
        <ele>298</ele>
        <time>2018-09-01T12:29:07Z</time>
      </trkpt>
      <trkpt lat="45.67203" lon="5.76519">
        <ele>298</ele>
        <time>2018-09-01T12:29:23Z</time>
      </trkpt>
      <trkpt lat="45.67208" lon="5.76522">
        <ele>298</ele>
        <time>2018-09-01T12:29:23Z</time>
      </trkpt>
      <trkpt lat="45.67213" lon="5.76525">
        <ele>300</ele>
        <time>2018-09-01T12:29:23Z</time>
      </trkpt>
      <trkpt lat="45.67218" lon="5.76527">
        <ele>300</ele>
        <time>2018-09-01T12:29:23Z</time>
      </trkpt>
      <trkpt lat="45.67223" lon="5.76529">
        <ele>300</ele>
        <time>2018-09-01T12:29:39Z</time>
      </trkpt>
      <trkpt lat="45.67229" lon="5.76532">
        <ele>300</ele>
        <time>2018-09-01T12:29:39Z</time>
      </trkpt>
      <trkpt lat="45.67235" lon="5.76532">
        <ele>300</ele>
        <time>2018-09-01T12:29:39Z</time>
      </trkpt>
      <trkpt lat="45.67239" lon="5.76531">
        <ele>300</ele>
        <time>2018-09-01T12:29:39Z</time>
      </trkpt>
      <trkpt lat="45.67243" lon="5.76531">
        <ele>300</ele>
        <time>2018-09-01T12:29:55Z</time>
      </trkpt>
      <trkpt lat="45.67248" lon="5.76532">
        <ele>300</ele>
        <time>2018-09-01T12:29:55Z</time>
      </trkpt>
      <trkpt lat="45.67253" lon="5.76534">
        <ele>300</ele>
        <time>2018-09-01T12:29:55Z</time>
      </trkpt>
      <trkpt lat="45.67259" lon="5.76536">
        <ele>300</ele>
        <time>2018-09-01T12:29:55Z</time>
      </trkpt>
      <trkpt lat="45.67265" lon="5.76536">
        <ele>300</ele>
        <time>2018-09-01T12:30:11Z</time>
      </trkpt>
      <trkpt lat="45.6727" lon="5.76537">
        <ele>300</ele>
        <time>2018-09-01T12:30:11Z</time>
      </trkpt>
      <trkpt lat="45.67276" lon="5.7654">
        <ele>300</ele>
        <time>2018-09-01T12:30:11Z</time>
      </trkpt>
      <trkpt lat="45.67283" lon="5.76544">
        <ele>304</ele>
        <time>2018-09-01T12:30:11Z</time>
      </trkpt>
      <trkpt lat="45.67289" lon="5.76549">
        <ele>304</ele>
        <time>2018-09-01T12:30:27Z</time>
      </trkpt>
      <trkpt lat="45.67294" lon="5.76552">
        <ele>298</ele>
        <time>2018-09-01T12:30:27Z</time>
      </trkpt>
      <trkpt lat="45.673" lon="5.76553">
        <ele>298</ele>
        <time>2018-09-01T12:30:27Z</time>
      </trkpt>
      <trkpt lat="45.67305" lon="5.76557">
        <ele>298</ele>
        <time>2018-09-01T12:30:27Z</time>
      </trkpt>
      <trkpt lat="45.67311" lon="5.7656">
        <ele>298</ele>
        <time>2018-09-01T12:30:43Z</time>
      </trkpt>
      <trkpt lat="45.67316" lon="5.76562">
        <ele>298</ele>
        <time>2018-09-01T12:30:43Z</time>
      </trkpt>
      <trkpt lat="45.67322" lon="5.76566">
        <ele>298</ele>
        <time>2018-09-01T12:30:43Z</time>
      </trkpt>
      <trkpt lat="45.67327" lon="5.76571">
        <ele>298</ele>
        <time>2018-09-01T12:30:43Z</time>
      </trkpt>
      <trkpt lat="45.67332" lon="5.76574">
        <ele>298</ele>
        <time>2018-09-01T12:30:59Z</time>
      </trkpt>
      <trkpt lat="45.67337" lon="5.76578">
        <ele>298</ele>
        <time>2018-09-01T12:30:59Z</time>
      </trkpt>
      <trkpt lat="45.67342" lon="5.76582">
        <ele>298</ele>
        <time>2018-09-01T12:30:59Z</time>
      </trkpt>
      <trkpt lat="45.67348" lon="5.76585">
        <ele>298</ele>
        <time>2018-09-01T12:30:59Z</time>
      </trkpt>
      <trkpt lat="45.67354" lon="5.76589">
        <ele>298</ele>
        <time>2018-09-01T12:31:15Z</time>
      </trkpt>
      <trkpt lat="45.67364" lon="5.76593">
        <ele>298</ele>
        <time>2018-09-01T12:31:15Z</time>
      </trkpt>
      <trkpt lat="45.67377" lon="5.76598">
        <ele>295</ele>
        <time>2018-09-01T12:31:15Z</time>
      </trkpt>
      <trkpt lat="45.67384" lon="5.76599">
        <ele>295</ele>
        <time>2018-09-01T12:31:15Z</time>
      </trkpt>
      <trkpt lat="45.6739" lon="5.766">
        <ele>295</ele>
        <time>2018-09-01T12:31:31Z</time>
      </trkpt>
      <trkpt lat="45.67396" lon="5.76602">
        <ele>295</ele>
        <time>2018-09-01T12:31:31Z</time>
      </trkpt>
      <trkpt lat="45.67402" lon="5.76605">
        <ele>295</ele>
        <time>2018-09-01T12:31:31Z</time>
      </trkpt>
      <trkpt lat="45.67411" lon="5.76608">
        <ele>295</ele>
        <time>2018-09-01T12:31:31Z</time>
      </trkpt>
      <trkpt lat="45.67425" lon="5.76616">
        <ele>295</ele>
        <time>2018-09-01T12:31:47Z</time>
      </trkpt>
      <trkpt lat="45.67432" lon="5.76618">
        <ele>295</ele>
        <time>2018-09-01T12:31:47Z</time>
      </trkpt>
      <trkpt lat="45.67437" lon="5.76618">
        <ele>295</ele>
        <time>2018-09-01T12:31:47Z</time>
      </trkpt>
      <trkpt lat="45.67442" lon="5.76618">
        <ele>295</ele>
        <time>2018-09-01T12:31:47Z</time>
      </trkpt>
      <trkpt lat="45.67447" lon="5.76616">
        <ele>295</ele>
        <time>2018-09-01T12:32:03Z</time>
      </trkpt>
      <trkpt lat="45.67452" lon="5.76613">
        <ele>295</ele>
        <time>2018-09-01T12:32:03Z</time>
      </trkpt>
      <trkpt lat="45.67457" lon="5.76612">
        <ele>295</ele>
        <time>2018-09-01T12:32:03Z</time>
      </trkpt>
      <trkpt lat="45.67464" lon="5.76615">
        <ele>292</ele>
        <time>2018-09-01T12:32:03Z</time>
      </trkpt>
      <trkpt lat="45.67468" lon="5.76613">
        <ele>292</ele>
        <time>2018-09-01T12:32:19Z</time>
      </trkpt>
      <trkpt lat="45.67474" lon="5.76613">
        <ele>292</ele>
        <time>2018-09-01T12:32:19Z</time>
      </trkpt>
      <trkpt lat="45.67479" lon="5.76612">
        <ele>292</ele>
        <time>2018-09-01T12:32:19Z</time>
      </trkpt>
      <trkpt lat="45.67486" lon="5.76615">
        <ele>292</ele>
        <time>2018-09-01T12:32:19Z</time>
      </trkpt>
      <trkpt lat="45.67493" lon="5.76623">
        <ele>292</ele>
        <time>2018-09-01T12:32:35Z</time>
      </trkpt>
      <trkpt lat="45.67497" lon="5.76624">
        <ele>292</ele>
        <time>2018-09-01T12:32:35Z</time>
      </trkpt>
      <trkpt lat="45.67503" lon="5.76625">
        <ele>292</ele>
        <time>2018-09-01T12:32:35Z</time>
      </trkpt>
      <trkpt lat="45.67509" lon="5.76626">
        <ele>306</ele>
        <time>2018-09-01T12:32:35Z</time>
      </trkpt>
      <trkpt lat="45.67515" lon="5.76628">
        <ele>306</ele>
        <time>2018-09-01T12:32:51Z</time>
      </trkpt>
      <trkpt lat="45.67521" lon="5.76627">
        <ele>306</ele>
        <time>2018-09-01T12:32:51Z</time>
      </trkpt>
      <trkpt lat="45.67528" lon="5.76626">
        <ele>306</ele>
        <time>2018-09-01T12:32:51Z</time>
      </trkpt>
      <trkpt lat="45.67534" lon="5.76625">
        <ele>292</ele>
        <time>2018-09-01T12:32:51Z</time>
      </trkpt>
      <trkpt lat="45.6754" lon="5.76623">
        <ele>292</ele>
        <time>2018-09-01T12:33:07Z</time>
      </trkpt>
      <trkpt lat="45.67546" lon="5.76621">
        <ele>290</ele>
        <time>2018-09-01T12:33:07Z</time>
      </trkpt>
      <trkpt lat="45.67551" lon="5.76619">
        <ele>290</ele>
        <time>2018-09-01T12:33:07Z</time>
      </trkpt>
      <trkpt lat="45.67557" lon="5.76616">
        <ele>290</ele>
        <time>2018-09-01T12:33:07Z</time>
      </trkpt>
      <trkpt lat="45.67562" lon="5.76613">
        <ele>290</ele>
        <time>2018-09-01T12:33:23Z</time>
      </trkpt>
      <trkpt lat="45.67568" lon="5.7661">
        <ele>290</ele>
        <time>2018-09-01T12:33:23Z</time>
      </trkpt>
      <trkpt lat="45.67573" lon="5.76608">
        <ele>290</ele>
        <time>2018-09-01T12:33:23Z</time>
      </trkpt>
      <trkpt lat="45.67578" lon="5.76604">
        <ele>290</ele>
        <time>2018-09-01T12:33:23Z</time>
      </trkpt>
      <trkpt lat="45.67582" lon="5.766">
        <ele>290</ele>
        <time>2018-09-01T12:33:39Z</time>
      </trkpt>
      <trkpt lat="45.67587" lon="5.76595">
        <ele>290</ele>
        <time>2018-09-01T12:33:39Z</time>
      </trkpt>
      <trkpt lat="45.67593" lon="5.76592">
        <ele>290</ele>
        <time>2018-09-01T12:33:39Z</time>
      </trkpt>
      <trkpt lat="45.67595" lon="5.76601">
        <ele>290</ele>
        <time>2018-09-01T12:33:39Z</time>
      </trkpt>
      <trkpt lat="45.67591" lon="5.76613">
        <ele>290</ele>
        <time>2018-09-01T12:33:55Z</time>
      </trkpt>
      <trkpt lat="45.67588" lon="5.76619">
        <ele>290</ele>
        <time>2018-09-01T12:33:55Z</time>
      </trkpt>
      <trkpt lat="45.67582" lon="5.76626">
        <ele>306</ele>
        <time>2018-09-01T12:33:55Z</time>
      </trkpt>
      <trkpt lat="45.67577" lon="5.76632">
        <ele>306</ele>
        <time>2018-09-01T12:33:55Z</time>
      </trkpt>
      <trkpt lat="45.67573" lon="5.76638">
        <ele>306</ele>
        <time>2018-09-01T12:34:11Z</time>
      </trkpt>
      <trkpt lat="45.67569" lon="5.76644">
        <ele>306</ele>
        <time>2018-09-01T12:34:11Z</time>
      </trkpt>
      <trkpt lat="45.67566" lon="5.76651">
        <ele>306</ele>
        <time>2018-09-01T12:34:11Z</time>
      </trkpt>
      <trkpt lat="45.67563" lon="5.76658">
        <ele>306</ele>
        <time>2018-09-01T12:34:11Z</time>
      </trkpt>
      <trkpt lat="45.67559" lon="5.76662">
        <ele>306</ele>
        <time>2018-09-01T12:34:39Z</time>
      </trkpt>
      <trkpt lat="45.67555" lon="5.76663">
        <ele>306</ele>
        <time>2018-09-01T12:34:39Z</time>
      </trkpt>
      <trkpt lat="45.6755" lon="5.76669">
        <ele>306</ele>
        <time>2018-09-01T12:34:39Z</time>
      </trkpt>
      <trkpt lat="45.67544" lon="5.76673">
        <ele>306</ele>
        <time>2018-09-01T12:34:39Z</time>
      </trkpt>
      <trkpt lat="45.67539" lon="5.76678">
        <ele>306</ele>
        <time>2018-09-01T12:34:39Z</time>
      </trkpt>
      <trkpt lat="45.67534" lon="5.76681">
        <ele>306</ele>
        <time>2018-09-01T12:34:55Z</time>
      </trkpt>
      <trkpt lat="45.67529" lon="5.76683">
        <ele>306</ele>
        <time>2018-09-01T12:34:55Z</time>
      </trkpt>
      <trkpt lat="45.67525" lon="5.76686">
        <ele>306</ele>
        <time>2018-09-01T12:34:55Z</time>
      </trkpt>
      <trkpt lat="45.6752" lon="5.76688">
        <ele>306</ele>
        <time>2018-09-01T12:34:55Z</time>
      </trkpt>
      <trkpt lat="45.67516" lon="5.76689">
        <ele>306</ele>
        <time>2018-09-01T12:35:11Z</time>
      </trkpt>
      <trkpt lat="45.67512" lon="5.7669">
        <ele>306</ele>
        <time>2018-09-01T12:35:11Z</time>
      </trkpt>
      <trkpt lat="45.6751" lon="5.76692">
        <ele>306</ele>
        <time>2018-09-01T12:35:11Z</time>
      </trkpt>
      <trkpt lat="45.67506" lon="5.76693">
        <ele>306</ele>
        <time>2018-09-01T12:35:11Z</time>
      </trkpt>
      <trkpt lat="45.67503" lon="5.76695">
        <ele>306</ele>
        <time>2018-09-01T12:35:27Z</time>
      </trkpt>
      <trkpt lat="45.67498" lon="5.76696">
        <ele>306</ele>
        <time>2018-09-01T12:35:27Z</time>
      </trkpt>
      <trkpt lat="45.67493" lon="5.76698">
        <ele>306</ele>
        <time>2018-09-01T12:35:27Z</time>
      </trkpt>
      <trkpt lat="45.67489" lon="5.767">
        <ele>306</ele>
        <time>2018-09-01T12:35:27Z</time>
      </trkpt>
      <trkpt lat="45.67483" lon="5.76701">
        <ele>306</ele>
        <time>2018-09-01T12:35:47Z</time>
      </trkpt>
      <trkpt lat="45.67481" lon="5.76701">
        <ele>306</ele>
        <time>2018-09-01T12:35:47Z</time>
      </trkpt>
      <trkpt lat="45.67478" lon="5.76702">
        <ele>306</ele>
        <time>2018-09-01T12:35:47Z</time>
      </trkpt>
      <trkpt lat="45.67476" lon="5.76701">
        <ele>306</ele>
        <time>2018-09-01T12:35:47Z</time>
      </trkpt>
      <trkpt lat="45.6747" lon="5.76699">
        <ele>306</ele>
        <time>2018-09-01T12:35:47Z</time>
      </trkpt>
      <trkpt lat="45.6746" lon="5.76697">
        <ele>306</ele>
        <time>2018-09-01T12:36:03Z</time>
      </trkpt>
      <trkpt lat="45.67451" lon="5.76698">
        <ele>311</ele>
        <time>2018-09-01T12:36:03Z</time>
      </trkpt>
      <trkpt lat="45.67444" lon="5.76696">
        <ele>311</ele>
        <time>2018-09-01T12:36:03Z</time>
      </trkpt>
      <trkpt lat="45.67439" lon="5.76693">
        <ele>311</ele>
        <time>2018-09-01T12:36:03Z</time>
      </trkpt>
      <trkpt lat="45.67434" lon="5.76701">
        <ele>311</ele>
        <time>2018-09-01T12:36:31Z</time>
      </trkpt>
      <trkpt lat="45.67438" lon="5.76701">
        <ele>311</ele>
        <time>2018-09-01T12:36:31Z</time>
      </trkpt>
      <trkpt lat="45.67442" lon="5.76706">
        <ele>311</ele>
        <time>2018-09-01T12:36:31Z</time>
      </trkpt>
      <trkpt lat="45.67448" lon="5.76711">
        <ele>335</ele>
        <time>2018-09-01T12:36:31Z</time>
      </trkpt>
      <trkpt lat="45.67451" lon="5.76715">
        <ele>335</ele>
        <time>2018-09-01T12:36:31Z</time>
      </trkpt>
      <trkpt lat="45.67455" lon="5.76717">
        <ele>335</ele>
        <time>2018-09-01T12:36:47Z</time>
      </trkpt>
      <trkpt lat="45.67458" lon="5.76718">
        <ele>335</ele>
        <time>2018-09-01T12:36:47Z</time>
      </trkpt>
      <trkpt lat="45.67461" lon="5.76723">
        <ele>323</ele>
        <time>2018-09-01T12:36:47Z</time>
      </trkpt>
      <trkpt lat="45.67463" lon="5.7673">
        <ele>323</ele>
        <time>2018-09-01T12:36:47Z</time>
      </trkpt>
      <trkpt lat="45.67467" lon="5.76735">
        <ele>323</ele>
        <time>2018-09-01T12:37:03Z</time>
      </trkpt>
      <trkpt lat="45.67471" lon="5.76738">
        <ele>323</ele>
        <time>2018-09-01T12:37:03Z</time>
      </trkpt>
      <trkpt lat="45.67475" lon="5.76745">
        <ele>323</ele>
        <time>2018-09-01T12:37:03Z</time>
      </trkpt>
      <trkpt lat="45.67478" lon="5.76753">
        <ele>323</ele>
        <time>2018-09-01T12:37:03Z</time>
      </trkpt>
      <trkpt lat="45.67481" lon="5.76764">
        <ele>323</ele>
        <time>2018-09-01T12:37:19Z</time>
      </trkpt>
      <trkpt lat="45.67485" lon="5.76777">
        <ele>323</ele>
        <time>2018-09-01T12:37:19Z</time>
      </trkpt>
      <trkpt lat="45.67487" lon="5.76788">
        <ele>323</ele>
        <time>2018-09-01T12:37:19Z</time>
      </trkpt>
      <trkpt lat="45.6749" lon="5.76797">
        <ele>334</ele>
        <time>2018-09-01T12:37:19Z</time>
      </trkpt>
      <trkpt lat="45.67492" lon="5.76805">
        <ele>334</ele>
        <time>2018-09-01T12:37:35Z</time>
      </trkpt>
      <trkpt lat="45.67496" lon="5.76811">
        <ele>334</ele>
        <time>2018-09-01T12:37:35Z</time>
      </trkpt>
      <trkpt lat="45.675" lon="5.76817">
        <ele>334</ele>
        <time>2018-09-01T12:37:35Z</time>
      </trkpt>
      <trkpt lat="45.67506" lon="5.76819">
        <ele>334</ele>
        <time>2018-09-01T12:37:35Z</time>
      </trkpt>
      <trkpt lat="45.67512" lon="5.76822">
        <ele>334</ele>
        <time>2018-09-01T12:37:51Z</time>
      </trkpt>
      <trkpt lat="45.67518" lon="5.76827">
        <ele>334</ele>
        <time>2018-09-01T12:37:51Z</time>
      </trkpt>
      <trkpt lat="45.67525" lon="5.76831">
        <ele>334</ele>
        <time>2018-09-01T12:37:51Z</time>
      </trkpt>
      <trkpt lat="45.67531" lon="5.76835">
        <ele>334</ele>
        <time>2018-09-01T12:37:51Z</time>
      </trkpt>
      <trkpt lat="45.67537" lon="5.76837">
        <ele>334</ele>
        <time>2018-09-01T12:38:11Z</time>
      </trkpt>
      <trkpt lat="45.67537" lon="5.76838">
        <ele>334</ele>
        <time>2018-09-01T12:38:11Z</time>
      </trkpt>
      <trkpt lat="45.67538" lon="5.76839">
        <ele>334</ele>
        <time>2018-09-01T12:38:11Z</time>
      </trkpt>
      <trkpt lat="45.67542" lon="5.7684">
        <ele>337</ele>
        <time>2018-09-01T12:38:11Z</time>
      </trkpt>
      <trkpt lat="45.67548" lon="5.76843">
        <ele>337</ele>
        <time>2018-09-01T12:38:11Z</time>
      </trkpt>
      <trkpt lat="45.67554" lon="5.76845">
        <ele>337</ele>
        <time>2018-09-01T12:38:27Z</time>
      </trkpt>
      <trkpt lat="45.6756" lon="5.76848">
        <ele>337</ele>
        <time>2018-09-01T12:38:27Z</time>
      </trkpt>
      <trkpt lat="45.67565" lon="5.76848">
        <ele>337</ele>
        <time>2018-09-01T12:38:27Z</time>
      </trkpt>
      <trkpt lat="45.67571" lon="5.76849">
        <ele>337</ele>
        <time>2018-09-01T12:38:27Z</time>
      </trkpt>
      <trkpt lat="45.67577" lon="5.76848">
        <ele>337</ele>
        <time>2018-09-01T12:38:43Z</time>
      </trkpt>
      <trkpt lat="45.67582" lon="5.76848">
        <ele>337</ele>
        <time>2018-09-01T12:38:43Z</time>
      </trkpt>
      <trkpt lat="45.67587" lon="5.76849">
        <ele>337</ele>
        <time>2018-09-01T12:38:43Z</time>
      </trkpt>
      <trkpt lat="45.6759" lon="5.76848">
        <ele>337</ele>
        <time>2018-09-01T12:38:43Z</time>
      </trkpt>
      <trkpt lat="45.67595" lon="5.76848">
        <ele>337</ele>
        <time>2018-09-01T12:38:59Z</time>
      </trkpt>
      <trkpt lat="45.676" lon="5.76847">
        <ele>337</ele>
        <time>2018-09-01T12:38:59Z</time>
      </trkpt>
      <trkpt lat="45.67605" lon="5.76846">
        <ele>337</ele>
        <time>2018-09-01T12:38:59Z</time>
      </trkpt>
      <trkpt lat="45.67611" lon="5.76844">
        <ele>337</ele>
        <time>2018-09-01T12:38:59Z</time>
      </trkpt>
      <trkpt lat="45.67616" lon="5.76841">
        <ele>337</ele>
        <time>2018-09-01T12:39:15Z</time>
      </trkpt>
      <trkpt lat="45.67622" lon="5.76839">
        <ele>337</ele>
        <time>2018-09-01T12:39:15Z</time>
      </trkpt>
      <trkpt lat="45.67628" lon="5.76835">
        <ele>347</ele>
        <time>2018-09-01T12:39:15Z</time>
      </trkpt>
      <trkpt lat="45.67633" lon="5.76831">
        <ele>347</ele>
        <time>2018-09-01T12:39:15Z</time>
      </trkpt>
      <trkpt lat="45.67638" lon="5.76827">
        <ele>347</ele>
        <time>2018-09-01T12:39:31Z</time>
      </trkpt>
      <trkpt lat="45.67644" lon="5.76824">
        <ele>347</ele>
        <time>2018-09-01T12:39:31Z</time>
      </trkpt>
      <trkpt lat="45.6765" lon="5.76821">
        <ele>347</ele>
        <time>2018-09-01T12:39:31Z</time>
      </trkpt>
      <trkpt lat="45.67655" lon="5.76819">
        <ele>347</ele>
        <time>2018-09-01T12:39:31Z</time>
      </trkpt>
      <trkpt lat="45.6766" lon="5.76816">
        <ele>347</ele>
        <time>2018-09-01T12:39:47Z</time>
      </trkpt>
      <trkpt lat="45.67665" lon="5.76814">
        <ele>347</ele>
        <time>2018-09-01T12:39:47Z</time>
      </trkpt>
      <trkpt lat="45.67672" lon="5.76811">
        <ele>347</ele>
        <time>2018-09-01T12:39:47Z</time>
      </trkpt>
      <trkpt lat="45.67679" lon="5.76806">
        <ele>347</ele>
        <time>2018-09-01T12:39:47Z</time>
      </trkpt>
      <trkpt lat="45.67682" lon="5.76802">
        <ele>347</ele>
        <time>2018-09-01T12:40:03Z</time>
      </trkpt>
      <trkpt lat="45.67685" lon="5.76799">
        <ele>347</ele>
        <time>2018-09-01T12:40:03Z</time>
      </trkpt>
      <trkpt lat="45.6769" lon="5.76791">
        <ele>335</ele>
        <time>2018-09-01T12:40:03Z</time>
      </trkpt>
      <trkpt lat="45.67694" lon="5.76791">
        <ele>335</ele>
        <time>2018-09-01T12:40:03Z</time>
      </trkpt>
      <trkpt lat="45.67697" lon="5.76789">
        <ele>335</ele>
        <time>2018-09-01T12:40:19Z</time>
      </trkpt>
      <trkpt lat="45.67699" lon="5.76787">
        <ele>335</ele>
        <time>2018-09-01T12:40:19Z</time>
      </trkpt>
      <trkpt lat="45.67703" lon="5.76781">
        <ele>335</ele>
        <time>2018-09-01T12:40:19Z</time>
      </trkpt>
      <trkpt lat="45.67706" lon="5.76775">
        <ele>335</ele>
        <time>2018-09-01T12:40:19Z</time>
      </trkpt>
      <trkpt lat="45.67715" lon="5.76764">
        <ele>344</ele>
        <time>2018-09-01T12:40:35Z</time>
      </trkpt>
      <trkpt lat="45.67722" lon="5.76757">
        <ele>344</ele>
        <time>2018-09-01T12:40:35Z</time>
      </trkpt>
      <trkpt lat="45.67727" lon="5.76758">
        <ele>344</ele>
        <time>2018-09-01T12:40:35Z</time>
      </trkpt>
      <trkpt lat="45.6773" lon="5.76763">
        <ele>344</ele>
        <time>2018-09-01T12:40:35Z</time>
      </trkpt>
      <trkpt lat="45.67736" lon="5.76768">
        <ele>344</ele>
        <time>2018-09-01T12:40:51Z</time>
      </trkpt>
      <trkpt lat="45.67742" lon="5.76771">
        <ele>344</ele>
        <time>2018-09-01T12:40:51Z</time>
      </trkpt>
      <trkpt lat="45.67747" lon="5.76775">
        <ele>344</ele>
        <time>2018-09-01T12:40:51Z</time>
      </trkpt>
      <trkpt lat="45.67752" lon="5.76779">
        <ele>344</ele>
        <time>2018-09-01T12:40:51Z</time>
      </trkpt>
      <trkpt lat="45.67757" lon="5.76782">
        <ele>344</ele>
        <time>2018-09-01T12:41:07Z</time>
      </trkpt>
      <trkpt lat="45.6776" lon="5.76784">
        <ele>344</ele>
        <time>2018-09-01T12:41:07Z</time>
      </trkpt>
      <trkpt lat="45.67763" lon="5.76787">
        <ele>344</ele>
        <time>2018-09-01T12:41:07Z</time>
      </trkpt>
      <trkpt lat="45.67768" lon="5.76791">
        <ele>344</ele>
        <time>2018-09-01T12:41:07Z</time>
      </trkpt>
      <trkpt lat="45.67773" lon="5.76794">
        <ele>351</ele>
        <time>2018-09-01T12:41:23Z</time>
      </trkpt>
      <trkpt lat="45.67778" lon="5.76795">
        <ele>351</ele>
        <time>2018-09-01T12:41:23Z</time>
      </trkpt>
      <trkpt lat="45.67783" lon="5.76798">
        <ele>351</ele>
        <time>2018-09-01T12:41:23Z</time>
      </trkpt>
      <trkpt lat="45.67789" lon="5.76801">
        <ele>351</ele>
        <time>2018-09-01T12:41:23Z</time>
      </trkpt>
      <trkpt lat="45.67795" lon="5.76805">
        <ele>360</ele>
        <time>2018-09-01T12:41:39Z</time>
      </trkpt>
      <trkpt lat="45.678" lon="5.76811">
        <ele>360</ele>
        <time>2018-09-01T12:41:39Z</time>
      </trkpt>
      <trkpt lat="45.67806" lon="5.76819">
        <ele>360</ele>
        <time>2018-09-01T12:41:39Z</time>
      </trkpt>
      <trkpt lat="45.67812" lon="5.76822">
        <ele>360</ele>
        <time>2018-09-01T12:41:39Z</time>
      </trkpt>
      <trkpt lat="45.67816" lon="5.76824">
        <ele>360</ele>
        <time>2018-09-01T12:41:55Z</time>
      </trkpt>
      <trkpt lat="45.67821" lon="5.76827">
        <ele>360</ele>
        <time>2018-09-01T12:41:55Z</time>
      </trkpt>
      <trkpt lat="45.67826" lon="5.7683">
        <ele>360</ele>
        <time>2018-09-01T12:41:55Z</time>
      </trkpt>
      <trkpt lat="45.67831" lon="5.76834">
        <ele>360</ele>
        <time>2018-09-01T12:41:55Z</time>
      </trkpt>
      <trkpt lat="45.67836" lon="5.76836">
        <ele>360</ele>
        <time>2018-09-01T12:42:11Z</time>
      </trkpt>
      <trkpt lat="45.67842" lon="5.76838">
        <ele>360</ele>
        <time>2018-09-01T12:42:11Z</time>
      </trkpt>
      <trkpt lat="45.67847" lon="5.76839">
        <ele>360</ele>
        <time>2018-09-01T12:42:11Z</time>
      </trkpt>
      <trkpt lat="45.67848" lon="5.76839">
        <ele>360</ele>
        <time>2018-09-01T12:42:11Z</time>
      </trkpt>
      <trkpt lat="45.6785" lon="5.7684">
        <ele>360</ele>
        <time>2018-09-01T12:42:27Z</time>
      </trkpt>
      <trkpt lat="45.67854" lon="5.76844">
        <ele>360</ele>
        <time>2018-09-01T12:42:27Z</time>
      </trkpt>
      <trkpt lat="45.67858" lon="5.76847">
        <ele>360</ele>
        <time>2018-09-01T12:42:27Z</time>
      </trkpt>
      <trkpt lat="45.67864" lon="5.76854">
        <ele>360</ele>
        <time>2018-09-01T12:42:27Z</time>
      </trkpt>
      <trkpt lat="45.6787" lon="5.76859">
        <ele>360</ele>
        <time>2018-09-01T12:42:43Z</time>
      </trkpt>
      <trkpt lat="45.67875" lon="5.76864">
        <ele>364</ele>
        <time>2018-09-01T12:42:43Z</time>
      </trkpt>
      <trkpt lat="45.6788" lon="5.76869">
        <ele>364</ele>
        <time>2018-09-01T12:42:43Z</time>
      </trkpt>
      <trkpt lat="45.67884" lon="5.76873">
        <ele>364</ele>
        <time>2018-09-01T12:42:43Z</time>
      </trkpt>
      <trkpt lat="45.67889" lon="5.76877">
        <ele>371</ele>
        <time>2018-09-01T12:42:59Z</time>
      </trkpt>
      <trkpt lat="45.67893" lon="5.76883">
        <ele>371</ele>
        <time>2018-09-01T12:42:59Z</time>
      </trkpt>
      <trkpt lat="45.67897" lon="5.7689">
        <ele>371</ele>
        <time>2018-09-01T12:42:59Z</time>
      </trkpt>
      <trkpt lat="45.67902" lon="5.76898">
        <ele>371</ele>
        <time>2018-09-01T12:42:59Z</time>
      </trkpt>
      <trkpt lat="45.67907" lon="5.76902">
        <ele>371</ele>
        <time>2018-09-01T12:43:15Z</time>
      </trkpt>
      <trkpt lat="45.67911" lon="5.76906">
        <ele>371</ele>
        <time>2018-09-01T12:43:15Z</time>
      </trkpt>
      <trkpt lat="45.67915" lon="5.76907">
        <ele>371</ele>
        <time>2018-09-01T12:43:15Z</time>
      </trkpt>
      <trkpt lat="45.67921" lon="5.7691">
        <ele>371</ele>
        <time>2018-09-01T12:43:15Z</time>
      </trkpt>
      <trkpt lat="45.67924" lon="5.76916">
        <ele>371</ele>
        <time>2018-09-01T12:43:31Z</time>
      </trkpt>
      <trkpt lat="45.67923" lon="5.76926">
        <ele>371</ele>
        <time>2018-09-01T12:43:31Z</time>
      </trkpt>
      <trkpt lat="45.67925" lon="5.76935">
        <ele>371</ele>
        <time>2018-09-01T12:43:31Z</time>
      </trkpt>
      <trkpt lat="45.67928" lon="5.76944">
        <ele>371</ele>
        <time>2018-09-01T12:43:31Z</time>
      </trkpt>
      <trkpt lat="45.6793" lon="5.76951">
        <ele>371</ele>
        <time>2018-09-01T12:43:47Z</time>
      </trkpt>
      <trkpt lat="45.67932" lon="5.7696">
        <ele>373</ele>
        <time>2018-09-01T12:43:47Z</time>
      </trkpt>
      <trkpt lat="45.67932" lon="5.76967">
        <ele>373</ele>
        <time>2018-09-01T12:43:47Z</time>
      </trkpt>
      <trkpt lat="45.6793" lon="5.76978">
        <ele>373</ele>
        <time>2018-09-01T12:43:47Z</time>
      </trkpt>
      <trkpt lat="45.67929" lon="5.76986">
        <ele>373</ele>
        <time>2018-09-01T12:44:03Z</time>
      </trkpt>
      <trkpt lat="45.67928" lon="5.76995">
        <ele>373</ele>
        <time>2018-09-01T12:44:03Z</time>
      </trkpt>
      <trkpt lat="45.67928" lon="5.77004">
        <ele>373</ele>
        <time>2018-09-01T12:44:03Z</time>
      </trkpt>
      <trkpt lat="45.67927" lon="5.77013">
        <ele>373</ele>
        <time>2018-09-01T12:44:03Z</time>
      </trkpt>
      <trkpt lat="45.67926" lon="5.77021">
        <ele>373</ele>
        <time>2018-09-01T12:44:19Z</time>
      </trkpt>
      <trkpt lat="45.67926" lon="5.77028">
        <ele>373</ele>
        <time>2018-09-01T12:44:19Z</time>
      </trkpt>
      <trkpt lat="45.67923" lon="5.77036">
        <ele>373</ele>
        <time>2018-09-01T12:44:19Z</time>
      </trkpt>
      <trkpt lat="45.6792" lon="5.77044">
        <ele>373</ele>
        <time>2018-09-01T12:44:19Z</time>
      </trkpt>
      <trkpt lat="45.67918" lon="5.77054">
        <ele>373</ele>
        <time>2018-09-01T12:44:35Z</time>
      </trkpt>
      <trkpt lat="45.67917" lon="5.77063">
        <ele>373</ele>
        <time>2018-09-01T12:44:35Z</time>
      </trkpt>
      <trkpt lat="45.67918" lon="5.77072">
        <ele>373</ele>
        <time>2018-09-01T12:44:35Z</time>
      </trkpt>
      <trkpt lat="45.67917" lon="5.7708">
        <ele>373</ele>
        <time>2018-09-01T12:44:35Z</time>
      </trkpt>
      <trkpt lat="45.67917" lon="5.77088">
        <ele>373</ele>
        <time>2018-09-01T12:44:51Z</time>
      </trkpt>
      <trkpt lat="45.67918" lon="5.77094">
        <ele>373</ele>
        <time>2018-09-01T12:44:51Z</time>
      </trkpt>
      <trkpt lat="45.67918" lon="5.771">
        <ele>373</ele>
        <time>2018-09-01T12:44:51Z</time>
      </trkpt>
      <trkpt lat="45.6792" lon="5.77105">
        <ele>373</ele>
        <time>2018-09-01T12:44:51Z</time>
      </trkpt>
      <trkpt lat="45.6792" lon="5.7711">
        <ele>373</ele>
        <time>2018-09-01T12:45:07Z</time>
      </trkpt>
      <trkpt lat="45.67921" lon="5.77117">
        <ele>373</ele>
        <time>2018-09-01T12:45:07Z</time>
      </trkpt>
      <trkpt lat="45.6792" lon="5.77125">
        <ele>373</ele>
        <time>2018-09-01T12:45:07Z</time>
      </trkpt>
      <trkpt lat="45.67918" lon="5.7713">
        <ele>371</ele>
        <time>2018-09-01T12:45:07Z</time>
      </trkpt>
      <trkpt lat="45.67915" lon="5.77134">
        <ele>371</ele>
        <time>2018-09-01T12:45:23Z</time>
      </trkpt>
      <trkpt lat="45.6791" lon="5.77137">
        <ele>371</ele>
        <time>2018-09-01T12:45:23Z</time>
      </trkpt>
      <trkpt lat="45.67904" lon="5.7714">
        <ele>371</ele>
        <time>2018-09-01T12:45:23Z</time>
      </trkpt>
      <trkpt lat="45.67899" lon="5.7714">
        <ele>371</ele>
        <time>2018-09-01T12:45:23Z</time>
      </trkpt>
      <trkpt lat="45.67894" lon="5.77142">
        <ele>371</ele>
        <time>2018-09-01T12:45:39Z</time>
      </trkpt>
      <trkpt lat="45.67893" lon="5.77146">
        <ele>371</ele>
        <time>2018-09-01T12:45:39Z</time>
      </trkpt>
      <trkpt lat="45.67889" lon="5.77147">
        <ele>371</ele>
        <time>2018-09-01T12:45:39Z</time>
      </trkpt>
      <trkpt lat="45.67883" lon="5.77146">
        <ele>371</ele>
        <time>2018-09-01T12:45:39Z</time>
      </trkpt>
      <trkpt lat="45.67881" lon="5.77144">
        <ele>371</ele>
        <time>2018-09-01T12:45:55Z</time>
      </trkpt>
      <trkpt lat="45.67879" lon="5.77142">
        <ele>371</ele>
        <time>2018-09-01T12:45:55Z</time>
      </trkpt>
      <trkpt lat="45.67872" lon="5.77144">
        <ele>373</ele>
        <time>2018-09-01T12:45:55Z</time>
      </trkpt>
      <trkpt lat="45.67862" lon="5.77151">
        <ele>373</ele>
        <time>2018-09-01T12:45:55Z</time>
      </trkpt>
      <trkpt lat="45.67854" lon="5.77153">
        <ele>373</ele>
        <time>2018-09-01T12:46:11Z</time>
      </trkpt>
      <trkpt lat="45.67849" lon="5.77154">
        <ele>373</ele>
        <time>2018-09-01T12:46:11Z</time>
      </trkpt>
      <trkpt lat="45.67841" lon="5.77156">
        <ele>373</ele>
        <time>2018-09-01T12:46:11Z</time>
      </trkpt>
      <trkpt lat="45.67834" lon="5.77154">
        <ele>373</ele>
        <time>2018-09-01T12:46:11Z</time>
      </trkpt>
      <trkpt lat="45.67827" lon="5.77149">
        <ele>373</ele>
        <time>2018-09-01T12:46:27Z</time>
      </trkpt>
      <trkpt lat="45.67819" lon="5.77145">
        <ele>373</ele>
        <time>2018-09-01T12:46:27Z</time>
      </trkpt>
      <trkpt lat="45.67812" lon="5.77142">
        <ele>373</ele>
        <time>2018-09-01T12:46:27Z</time>
      </trkpt>
      <trkpt lat="45.67806" lon="5.7714">
        <ele>373</ele>
        <time>2018-09-01T12:46:27Z</time>
      </trkpt>
      <trkpt lat="45.678" lon="5.77138">
        <ele>373</ele>
        <time>2018-09-01T12:46:47Z</time>
      </trkpt>
      <trkpt lat="45.67798" lon="5.77136">
        <ele>373</ele>
        <time>2018-09-01T12:46:47Z</time>
      </trkpt>
      <trkpt lat="45.67797" lon="5.77135">
        <ele>373</ele>
        <time>2018-09-01T12:46:47Z</time>
      </trkpt>
      <trkpt lat="45.67797" lon="5.77134">
        <ele>373</ele>
        <time>2018-09-01T12:46:47Z</time>
      </trkpt>
      <trkpt lat="45.67788" lon="5.77129">
        <ele>392</ele>
        <time>2018-09-01T12:46:47Z</time>
      </trkpt>
      <trkpt lat="45.67784" lon="5.77127">
        <ele>392</ele>
        <time>2018-09-01T12:47:03Z</time>
      </trkpt>
      <trkpt lat="45.67777" lon="5.77124">
        <ele>379</ele>
        <time>2018-09-01T12:47:03Z</time>
      </trkpt>
      <trkpt lat="45.67765" lon="5.77119">
        <ele>379</ele>
        <time>2018-09-01T12:47:03Z</time>
      </trkpt>
      <trkpt lat="45.67758" lon="5.77117">
        <ele>379</ele>
        <time>2018-09-01T12:47:03Z</time>
      </trkpt>
      <trkpt lat="45.67751" lon="5.77118">
        <ele>379</ele>
        <time>2018-09-01T12:47:19Z</time>
      </trkpt>
      <trkpt lat="45.67748" lon="5.77114">
        <ele>379</ele>
        <time>2018-09-01T12:47:19Z</time>
      </trkpt>
      <trkpt lat="45.67743" lon="5.77113">
        <ele>379</ele>
        <time>2018-09-01T12:47:19Z</time>
      </trkpt>
      <trkpt lat="45.67737" lon="5.77109">
        <ele>379</ele>
        <time>2018-09-01T12:47:19Z</time>
      </trkpt>
      <trkpt lat="45.67731" lon="5.77106">
        <ele>379</ele>
        <time>2018-09-01T12:47:35Z</time>
      </trkpt>
      <trkpt lat="45.67723" lon="5.77104">
        <ele>379</ele>
        <time>2018-09-01T12:47:35Z</time>
      </trkpt>
      <trkpt lat="45.67718" lon="5.771">
        <ele>379</ele>
        <time>2018-09-01T12:47:35Z</time>
      </trkpt>
      <trkpt lat="45.67711" lon="5.77097">
        <ele>379</ele>
        <time>2018-09-01T12:47:35Z</time>
      </trkpt>
      <trkpt lat="45.67705" lon="5.77096">
        <ele>391</ele>
        <time>2018-09-01T12:47:51Z</time>
      </trkpt>
      <trkpt lat="45.67698" lon="5.77095">
        <ele>391</ele>
        <time>2018-09-01T12:47:51Z</time>
      </trkpt>
      <trkpt lat="45.67695" lon="5.77092">
        <ele>391</ele>
        <time>2018-09-01T12:47:51Z</time>
      </trkpt>
      <trkpt lat="45.67689" lon="5.77092">
        <ele>391</ele>
        <time>2018-09-01T12:47:51Z</time>
      </trkpt>
      <trkpt lat="45.67685" lon="5.77091">
        <ele>391</ele>
        <time>2018-09-01T12:48:11Z</time>
      </trkpt>
      <trkpt lat="45.67684" lon="5.77091">
        <ele>391</ele>
        <time>2018-09-01T12:48:11Z</time>
      </trkpt>
      <trkpt lat="45.67682" lon="5.77091">
        <ele>391</ele>
        <time>2018-09-01T12:48:11Z</time>
      </trkpt>
      <trkpt lat="45.67677" lon="5.7709">
        <ele>391</ele>
        <time>2018-09-01T12:48:11Z</time>
      </trkpt>
      <trkpt lat="45.6767" lon="5.77089">
        <ele>391</ele>
        <time>2018-09-01T12:48:11Z</time>
      </trkpt>
      <trkpt lat="45.67665" lon="5.7709">
        <ele>391</ele>
        <time>2018-09-01T12:48:27Z</time>
      </trkpt>
      <trkpt lat="45.67662" lon="5.77092">
        <ele>391</ele>
        <time>2018-09-01T12:48:27Z</time>
      </trkpt>
      <trkpt lat="45.67658" lon="5.77093">
        <ele>391</ele>
        <time>2018-09-01T12:48:27Z</time>
      </trkpt>
      <trkpt lat="45.67652" lon="5.77091">
        <ele>391</ele>
        <time>2018-09-01T12:48:27Z</time>
      </trkpt>
      <trkpt lat="45.67646" lon="5.77094">
        <ele>391</ele>
        <time>2018-09-01T12:48:43Z</time>
      </trkpt>
      <trkpt lat="45.6764" lon="5.77096">
        <ele>391</ele>
        <time>2018-09-01T12:48:43Z</time>
      </trkpt>
      <trkpt lat="45.67632" lon="5.77098">
        <ele>391</ele>
        <time>2018-09-01T12:48:43Z</time>
      </trkpt>
      <trkpt lat="45.67621" lon="5.77101">
        <ele>383</ele>
        <time>2018-09-01T12:48:43Z</time>
      </trkpt>
      <trkpt lat="45.67615" lon="5.77104">
        <ele>383</ele>
        <time>2018-09-01T12:48:59Z</time>
      </trkpt>
      <trkpt lat="45.67608" lon="5.77106">
        <ele>383</ele>
        <time>2018-09-01T12:48:59Z</time>
      </trkpt>
      <trkpt lat="45.67602" lon="5.77107">
        <ele>383</ele>
        <time>2018-09-01T12:48:59Z</time>
      </trkpt>
      <trkpt lat="45.67599" lon="5.77105">
        <ele>383</ele>
        <time>2018-09-01T12:48:59Z</time>
      </trkpt>
      <trkpt lat="45.67598" lon="5.77105">
        <ele>383</ele>
        <time>2018-09-01T12:49:15Z</time>
      </trkpt>
      <trkpt lat="45.67594" lon="5.77104">
        <ele>383</ele>
        <time>2018-09-01T12:49:15Z</time>
      </trkpt>
      <trkpt lat="45.67588" lon="5.77105">
        <ele>383</ele>
        <time>2018-09-01T12:49:15Z</time>
      </trkpt>
      <trkpt lat="45.67583" lon="5.77108">
        <ele>383</ele>
        <time>2018-09-01T12:49:15Z</time>
      </trkpt>
      <trkpt lat="45.67576" lon="5.77109">
        <ele>383</ele>
        <time>2018-09-01T12:49:31Z</time>
      </trkpt>
      <trkpt lat="45.67567" lon="5.77112">
        <ele>383</ele>
        <time>2018-09-01T12:49:31Z</time>
      </trkpt>
      <trkpt lat="45.67561" lon="5.77114">
        <ele>383</ele>
        <time>2018-09-01T12:49:31Z</time>
      </trkpt>
      <trkpt lat="45.67555" lon="5.77114">
        <ele>383</ele>
        <time>2018-09-01T12:49:31Z</time>
      </trkpt>
      <trkpt lat="45.67545" lon="5.77115">
        <ele>383</ele>
        <time>2018-09-01T12:49:47Z</time>
      </trkpt>
      <trkpt lat="45.67536" lon="5.77112">
        <ele>379</ele>
        <time>2018-09-01T12:49:47Z</time>
      </trkpt>
      <trkpt lat="45.67529" lon="5.77106">
        <ele>379</ele>
        <time>2018-09-01T12:49:47Z</time>
      </trkpt>
      <trkpt lat="45.67519" lon="5.77104">
        <ele>379</ele>
        <time>2018-09-01T12:49:47Z</time>
      </trkpt>
      <trkpt lat="45.67511" lon="5.77103">
        <ele>379</ele>
        <time>2018-09-01T12:50:03Z</time>
      </trkpt>
      <trkpt lat="45.67505" lon="5.77099">
        <ele>379</ele>
        <time>2018-09-01T12:50:03Z</time>
      </trkpt>
      <trkpt lat="45.675" lon="5.77095">
        <ele>379</ele>
        <time>2018-09-01T12:50:03Z</time>
      </trkpt>
      <trkpt lat="45.67495" lon="5.77092">
        <ele>379</ele>
        <time>2018-09-01T12:50:03Z</time>
      </trkpt>
      <trkpt lat="45.67492" lon="5.7709">
        <ele>379</ele>
        <time>2018-09-01T12:50:19Z</time>
      </trkpt>
      <trkpt lat="45.67484" lon="5.77087">
        <ele>379</ele>
        <time>2018-09-01T12:50:19Z</time>
      </trkpt>
      <trkpt lat="45.67477" lon="5.77083">
        <ele>379</ele>
        <time>2018-09-01T12:50:19Z</time>
      </trkpt>
      <trkpt lat="45.67471" lon="5.77078">
        <ele>379</ele>
        <time>2018-09-01T12:50:19Z</time>
      </trkpt>
      <trkpt lat="45.67464" lon="5.77072">
        <ele>379</ele>
        <time>2018-09-01T12:50:35Z</time>
      </trkpt>
      <trkpt lat="45.6746" lon="5.77069">
        <ele>379</ele>
        <time>2018-09-01T12:50:35Z</time>
      </trkpt>
      <trkpt lat="45.67458" lon="5.77065">
        <ele>379</ele>
        <time>2018-09-01T12:50:35Z</time>
      </trkpt>
      <trkpt lat="45.67453" lon="5.77061">
        <ele>390</ele>
        <time>2018-09-01T12:50:35Z</time>
      </trkpt>
      <trkpt lat="45.67446" lon="5.77057">
        <ele>390</ele>
        <time>2018-09-01T12:50:51Z</time>
      </trkpt>
      <trkpt lat="45.67443" lon="5.77053">
        <ele>390</ele>
        <time>2018-09-01T12:50:51Z</time>
      </trkpt>
      <trkpt lat="45.6744" lon="5.77048">
        <ele>390</ele>
        <time>2018-09-01T12:50:51Z</time>
      </trkpt>
      <trkpt lat="45.67436" lon="5.77044">
        <ele>390</ele>
        <time>2018-09-01T12:50:51Z</time>
      </trkpt>
      <trkpt lat="45.67428" lon="5.77037">
        <ele>378</ele>
        <time>2018-09-01T12:51:07Z</time>
      </trkpt>
      <trkpt lat="45.67422" lon="5.77031">
        <ele>378</ele>
        <time>2018-09-01T12:51:07Z</time>
      </trkpt>
      <trkpt lat="45.67417" lon="5.77025">
        <ele>378</ele>
        <time>2018-09-01T12:51:07Z</time>
      </trkpt>
      <trkpt lat="45.67413" lon="5.7702">
        <ele>378</ele>
        <time>2018-09-01T12:51:07Z</time>
      </trkpt>
      <trkpt lat="45.6741" lon="5.77016">
        <ele>378</ele>
        <time>2018-09-01T12:51:23Z</time>
      </trkpt>
      <trkpt lat="45.67405" lon="5.77013">
        <ele>378</ele>
        <time>2018-09-01T12:51:23Z</time>
      </trkpt>
      <trkpt lat="45.674" lon="5.7701">
        <ele>378</ele>
        <time>2018-09-01T12:51:23Z</time>
      </trkpt>
      <trkpt lat="45.67395" lon="5.77005">
        <ele>378</ele>
        <time>2018-09-01T12:51:23Z</time>
      </trkpt>
      <trkpt lat="45.6739" lon="5.77">
        <ele>378</ele>
        <time>2018-09-01T12:51:39Z</time>
      </trkpt>
      <trkpt lat="45.67384" lon="5.76994">
        <ele>378</ele>
        <time>2018-09-01T12:51:39Z</time>
      </trkpt>
      <trkpt lat="45.6738" lon="5.76989">
        <ele>378</ele>
        <time>2018-09-01T12:51:39Z</time>
      </trkpt>
      <trkpt lat="45.67376" lon="5.76986">
        <ele>378</ele>
        <time>2018-09-01T12:51:39Z</time>
      </trkpt>
      <trkpt lat="45.67372" lon="5.76982">
        <ele>388</ele>
        <time>2018-09-01T12:51:55Z</time>
      </trkpt>
      <trkpt lat="45.67368" lon="5.76979">
        <ele>388</ele>
        <time>2018-09-01T12:51:55Z</time>
      </trkpt>
      <trkpt lat="45.67364" lon="5.76975">
        <ele>388</ele>
        <time>2018-09-01T12:51:55Z</time>
      </trkpt>
      <trkpt lat="45.6736" lon="5.76971">
        <ele>388</ele>
        <time>2018-09-01T12:51:55Z</time>
      </trkpt>
      <trkpt lat="45.67357" lon="5.76968">
        <ele>388</ele>
        <time>2018-09-01T12:52:11Z</time>
      </trkpt>
      <trkpt lat="45.67352" lon="5.76965">
        <ele>388</ele>
        <time>2018-09-01T12:52:11Z</time>
      </trkpt>
      <trkpt lat="45.67349" lon="5.76963">
        <ele>388</ele>
        <time>2018-09-01T12:52:11Z</time>
      </trkpt>
      <trkpt lat="45.67344" lon="5.76962">
        <ele>388</ele>
        <time>2018-09-01T12:52:11Z</time>
      </trkpt>
      <trkpt lat="45.67341" lon="5.76959">
        <ele>388</ele>
        <time>2018-09-01T12:52:27Z</time>
      </trkpt>
      <trkpt lat="45.67338" lon="5.76957">
        <ele>380</ele>
        <time>2018-09-01T12:52:27Z</time>
      </trkpt>
      <trkpt lat="45.67334" lon="5.76956">
        <ele>380</ele>
        <time>2018-09-01T12:52:27Z</time>
      </trkpt>
      <trkpt lat="45.67329" lon="5.76957">
        <ele>380</ele>
        <time>2018-09-01T12:52:27Z</time>
      </trkpt>
      <trkpt lat="45.67323" lon="5.76959">
        <ele>388</ele>
        <time>2018-09-01T12:52:43Z</time>
      </trkpt>
      <trkpt lat="45.67298" lon="5.76971">
        <ele>388</ele>
        <time>2018-09-01T12:52:43Z</time>
      </trkpt>
      <trkpt lat="45.67274" lon="5.76993">
        <ele>380</ele>
        <time>2018-09-01T12:52:43Z</time>
      </trkpt>
      <trkpt lat="45.67254" lon="5.77016">
        <ele>380</ele>
        <time>2018-09-01T12:52:43Z</time>
      </trkpt>
      <trkpt lat="45.67241" lon="5.77039">
        <ele>380</ele>
        <time>2018-09-01T12:52:59Z</time>
      </trkpt>
      <trkpt lat="45.67233" lon="5.77057">
        <ele>393</ele>
        <time>2018-09-01T12:52:59Z</time>
      </trkpt>
      <trkpt lat="45.6723" lon="5.77062">
        <ele>393</ele>
        <time>2018-09-01T12:52:59Z</time>
      </trkpt>
      <trkpt lat="45.67236" lon="5.77071">
        <ele>393</ele>
        <time>2018-09-01T12:52:59Z</time>
      </trkpt>
      <trkpt lat="45.67262" lon="5.77079">
        <ele>393</ele>
        <time>2018-09-01T12:53:15Z</time>
      </trkpt>
      <trkpt lat="45.67292" lon="5.77093">
        <ele>393</ele>
        <time>2018-09-01T12:53:15Z</time>
      </trkpt>
      <trkpt lat="45.67326" lon="5.77112">
        <ele>393</ele>
        <time>2018-09-01T12:53:15Z</time>
      </trkpt>
      <trkpt lat="45.67356" lon="5.77144">
        <ele>407</ele>
        <time>2018-09-01T12:53:15Z</time>
      </trkpt>
      <trkpt lat="45.67381" lon="5.77175">
        <ele>402</ele>
        <time>2018-09-01T12:53:31Z</time>
      </trkpt>
      <trkpt lat="45.67404" lon="5.77212">
        <ele>416</ele>
        <time>2018-09-01T12:53:31Z</time>
      </trkpt>
      <trkpt lat="45.67423" lon="5.77248">
        <ele>416</ele>
        <time>2018-09-01T12:53:31Z</time>
      </trkpt>
      <trkpt lat="45.67442" lon="5.77283">
        <ele>416</ele>
        <time>2018-09-01T12:53:31Z</time>
      </trkpt>
      <trkpt lat="45.67463" lon="5.77314">
        <ele>422</ele>
        <time>2018-09-01T12:53:47Z</time>
      </trkpt>
      <trkpt lat="45.67487" lon="5.77343">
        <ele>422</ele>
        <time>2018-09-01T12:53:47Z</time>
      </trkpt>
      <trkpt lat="45.6751" lon="5.77371">
        <ele>422</ele>
        <time>2018-09-01T12:53:47Z</time>
      </trkpt>
      <trkpt lat="45.67532" lon="5.77398">
        <ele>431</ele>
        <time>2018-09-01T12:53:47Z</time>
      </trkpt>
      <trkpt lat="45.67552" lon="5.77421">
        <ele>424</ele>
        <time>2018-09-01T12:54:03Z</time>
      </trkpt>
      <trkpt lat="45.67566" lon="5.77443">
        <ele>424</ele>
        <time>2018-09-01T12:54:03Z</time>
      </trkpt>
      <trkpt lat="45.67574" lon="5.77455">
        <ele>424</ele>
        <time>2018-09-01T12:54:03Z</time>
      </trkpt>
      <trkpt lat="45.67578" lon="5.7746">
        <ele>427</ele>
        <time>2018-09-01T12:54:03Z</time>
      </trkpt>
      <trkpt lat="45.67584" lon="5.77465">
        <ele>427</ele>
        <time>2018-09-01T12:54:19Z</time>
      </trkpt>
      <trkpt lat="45.67589" lon="5.77469">
        <ele>427</ele>
        <time>2018-09-01T12:54:19Z</time>
      </trkpt>
      <trkpt lat="45.67594" lon="5.77473">
        <ele>427</ele>
        <time>2018-09-01T12:54:19Z</time>
      </trkpt>
      <trkpt lat="45.67599" lon="5.77477">
        <ele>427</ele>
        <time>2018-09-01T12:54:19Z</time>
      </trkpt>
      <trkpt lat="45.67616" lon="5.77502">
        <ele>427</ele>
        <time>2018-09-01T12:54:35Z</time>
      </trkpt>
      <trkpt lat="45.67636" lon="5.77531">
        <ele>424</ele>
        <time>2018-09-01T12:54:35Z</time>
      </trkpt>
      <trkpt lat="45.67652" lon="5.77575">
        <ele>421</ele>
        <time>2018-09-01T12:54:35Z</time>
      </trkpt>
      <trkpt lat="45.67667" lon="5.77615">
        <ele>421</ele>
        <time>2018-09-01T12:54:35Z</time>
      </trkpt>
      <trkpt lat="45.67668" lon="5.77645">
        <ele>422</ele>
        <time>2018-09-01T12:54:51Z</time>
      </trkpt>
      <trkpt lat="45.67665" lon="5.77659">
        <ele>422</ele>
        <time>2018-09-01T12:54:51Z</time>
      </trkpt>
      <trkpt lat="45.67663" lon="5.77664">
        <ele>422</ele>
        <time>2018-09-01T12:54:51Z</time>
      </trkpt>
      <trkpt lat="45.67664" lon="5.77664">
        <ele>422</ele>
        <time>2018-09-01T12:54:51Z</time>
      </trkpt>
      <trkpt lat="45.67664" lon="5.77665">
        <ele>422</ele>
        <time>2018-09-01T12:55:07Z</time>
      </trkpt>
      <trkpt lat="45.67664" lon="5.77665">
        <ele>422</ele>
        <time>2018-09-01T12:55:07Z</time>
      </trkpt>
      <trkpt lat="45.67658" lon="5.77667">
        <ele>422</ele>
        <time>2018-09-01T12:55:07Z</time>
      </trkpt>
      <trkpt lat="45.67652" lon="5.77674">
        <ele>422</ele>
        <time>2018-09-01T12:55:07Z</time>
      </trkpt>
      <trkpt lat="45.67649" lon="5.77679">
        <ele>422</ele>
        <time>2018-09-01T12:55:43Z</time>
      </trkpt>
      <trkpt lat="45.67649" lon="5.77683">
        <ele>422</ele>
        <time>2018-09-01T12:55:43Z</time>
      </trkpt>
      <trkpt lat="45.67646" lon="5.77692">
        <ele>422</ele>
        <time>2018-09-01T12:55:43Z</time>
      </trkpt>
      <trkpt lat="45.67644" lon="5.77706">
        <ele>422</ele>
        <time>2018-09-01T12:55:43Z</time>
      </trkpt>
      <trkpt lat="45.67643" lon="5.77717">
        <ele>424</ele>
        <time>2018-09-01T12:55:43Z</time>
      </trkpt>
      <trkpt lat="45.67643" lon="5.77717">
        <ele>424</ele>
        <time>2018-09-01T12:56:39Z</time>
      </trkpt>
      <trkpt lat="45.67644" lon="5.7771">
        <ele>424</ele>
        <time>2018-09-01T12:56:39Z</time>
      </trkpt>
      <trkpt lat="45.67644" lon="5.77704">
        <ele>422</ele>
        <time>2018-09-01T12:56:39Z</time>
      </trkpt>
      <trkpt lat="45.67645" lon="5.77699">
        <ele>422</ele>
        <time>2018-09-01T12:56:39Z</time>
      </trkpt>
      <trkpt lat="45.67646" lon="5.77694">
        <ele>422</ele>
        <time>2018-09-01T12:56:39Z</time>
      </trkpt>
      <trkpt lat="45.67649" lon="5.77686">
        <ele>422</ele>
        <time>2018-09-01T12:56:55Z</time>
      </trkpt>
      <trkpt lat="45.67653" lon="5.77679">
        <ele>422</ele>
        <time>2018-09-01T12:56:55Z</time>
      </trkpt>
      <trkpt lat="45.67657" lon="5.77674">
        <ele>422</ele>
        <time>2018-09-01T12:56:55Z</time>
      </trkpt>
      <trkpt lat="45.67661" lon="5.77671">
        <ele>422</ele>
        <time>2018-09-01T12:56:55Z</time>
      </trkpt>
      <trkpt lat="45.67665" lon="5.77667">
        <ele>422</ele>
        <time>2018-09-01T12:57:11Z</time>
      </trkpt>
      <trkpt lat="45.6767" lon="5.77663">
        <ele>422</ele>
        <time>2018-09-01T12:57:11Z</time>
      </trkpt>
      <trkpt lat="45.67674" lon="5.7766">
        <ele>422</ele>
        <time>2018-09-01T12:57:11Z</time>
      </trkpt>
      <trkpt lat="45.67679" lon="5.77653">
        <ele>422</ele>
        <time>2018-09-01T12:57:11Z</time>
      </trkpt>
      <trkpt lat="45.67684" lon="5.7765">
        <ele>422</ele>
        <time>2018-09-01T12:57:27Z</time>
      </trkpt>
      <trkpt lat="45.67689" lon="5.7765">
        <ele>422</ele>
        <time>2018-09-01T12:57:27Z</time>
      </trkpt>
      <trkpt lat="45.67692" lon="5.77658">
        <ele>422</ele>
        <time>2018-09-01T12:57:27Z</time>
      </trkpt>
      <trkpt lat="45.67695" lon="5.77667">
        <ele>422</ele>
        <time>2018-09-01T12:57:27Z</time>
      </trkpt>
      <trkpt lat="45.67698" lon="5.77675">
        <ele>422</ele>
        <time>2018-09-01T12:57:43Z</time>
      </trkpt>
      <trkpt lat="45.67701" lon="5.77682">
        <ele>422</ele>
        <time>2018-09-01T12:57:43Z</time>
      </trkpt>
      <trkpt lat="45.67703" lon="5.77688">
        <ele>422</ele>
        <time>2018-09-01T12:57:43Z</time>
      </trkpt>
      <trkpt lat="45.67707" lon="5.77696">
        <ele>422</ele>
        <time>2018-09-01T12:57:43Z</time>
      </trkpt>
      <trkpt lat="45.6771" lon="5.77703">
        <ele>413</ele>
        <time>2018-09-01T12:57:59Z</time>
      </trkpt>
      <trkpt lat="45.67712" lon="5.77711">
        <ele>414</ele>
        <time>2018-09-01T12:57:59Z</time>
      </trkpt>
      <trkpt lat="45.67716" lon="5.77718">
        <ele>414</ele>
        <time>2018-09-01T12:57:59Z</time>
      </trkpt>
      <trkpt lat="45.67719" lon="5.77725">
        <ele>414</ele>
        <time>2018-09-01T12:57:59Z</time>
      </trkpt>
      <trkpt lat="45.67722" lon="5.77733">
        <ele>414</ele>
        <time>2018-09-01T12:58:15Z</time>
      </trkpt>
      <trkpt lat="45.67725" lon="5.77739">
        <ele>414</ele>
        <time>2018-09-01T12:58:15Z</time>
      </trkpt>
      <trkpt lat="45.67728" lon="5.77745">
        <ele>414</ele>
        <time>2018-09-01T12:58:15Z</time>
      </trkpt>
      <trkpt lat="45.67731" lon="5.77751">
        <ele>414</ele>
        <time>2018-09-01T12:58:15Z</time>
      </trkpt>
      <trkpt lat="45.67734" lon="5.77757">
        <ele>414</ele>
        <time>2018-09-01T12:58:31Z</time>
      </trkpt>
      <trkpt lat="45.67737" lon="5.77763">
        <ele>414</ele>
        <time>2018-09-01T12:58:31Z</time>
      </trkpt>
      <trkpt lat="45.67741" lon="5.77769">
        <ele>414</ele>
        <time>2018-09-01T12:58:31Z</time>
      </trkpt>
      <trkpt lat="45.67746" lon="5.7777">
        <ele>414</ele>
        <time>2018-09-01T12:58:31Z</time>
      </trkpt>
      <trkpt lat="45.67753" lon="5.77773">
        <ele>414</ele>
        <time>2018-09-01T12:58:47Z</time>
      </trkpt>
      <trkpt lat="45.67758" lon="5.77778">
        <ele>414</ele>
        <time>2018-09-01T12:58:47Z</time>
      </trkpt>
      <trkpt lat="45.67761" lon="5.77787">
        <ele>414</ele>
        <time>2018-09-01T12:58:47Z</time>
      </trkpt>
      <trkpt lat="45.67763" lon="5.77795">
        <ele>416</ele>
        <time>2018-09-01T12:58:47Z</time>
      </trkpt>
      <trkpt lat="45.67766" lon="5.77804">
        <ele>416</ele>
        <time>2018-09-01T12:59:03Z</time>
      </trkpt>
      <trkpt lat="45.67768" lon="5.77812">
        <ele>416</ele>
        <time>2018-09-01T12:59:03Z</time>
      </trkpt>
      <trkpt lat="45.6777" lon="5.77821">
        <ele>416</ele>
        <time>2018-09-01T12:59:03Z</time>
      </trkpt>
      <trkpt lat="45.67773" lon="5.77829">
        <ele>416</ele>
        <time>2018-09-01T12:59:03Z</time>
      </trkpt>
      <trkpt lat="45.67774" lon="5.77837">
        <ele>416</ele>
        <time>2018-09-01T12:59:19Z</time>
      </trkpt>
      <trkpt lat="45.67776" lon="5.77845">
        <ele>416</ele>
        <time>2018-09-01T12:59:19Z</time>
      </trkpt>
      <trkpt lat="45.67778" lon="5.77853">
        <ele>416</ele>
        <time>2018-09-01T12:59:19Z</time>
      </trkpt>
      <trkpt lat="45.67781" lon="5.77861">
        <ele>416</ele>
        <time>2018-09-01T12:59:19Z</time>
      </trkpt>
      <trkpt lat="45.67783" lon="5.77868">
        <ele>416</ele>
        <time>2018-09-01T12:59:35Z</time>
      </trkpt>
      <trkpt lat="45.67785" lon="5.77876">
        <ele>419</ele>
        <time>2018-09-01T12:59:35Z</time>
      </trkpt>
      <trkpt lat="45.67787" lon="5.77884">
        <ele>419</ele>
        <time>2018-09-01T12:59:35Z</time>
      </trkpt>
      <trkpt lat="45.67789" lon="5.77892">
        <ele>419</ele>
        <time>2018-09-01T12:59:35Z</time>
      </trkpt>
      <trkpt lat="45.67791" lon="5.779">
        <ele>419</ele>
        <time>2018-09-01T12:59:51Z</time>
      </trkpt>
      <trkpt lat="45.67792" lon="5.77908">
        <ele>412</ele>
        <time>2018-09-01T12:59:51Z</time>
      </trkpt>
      <trkpt lat="45.67795" lon="5.77914">
        <ele>412</ele>
        <time>2018-09-01T12:59:51Z</time>
      </trkpt>
      <trkpt lat="45.67797" lon="5.77921">
        <ele>412</ele>
        <time>2018-09-01T12:59:51Z</time>
      </trkpt>
      <trkpt lat="45.67799" lon="5.77929">
        <ele>412</ele>
        <time>2018-09-01T13:00:07Z</time>
      </trkpt>
      <trkpt lat="45.678" lon="5.77936">
        <ele>412</ele>
        <time>2018-09-01T13:00:07Z</time>
      </trkpt>
      <trkpt lat="45.67802" lon="5.77945">
        <ele>412</ele>
        <time>2018-09-01T13:00:07Z</time>
      </trkpt>
      <trkpt lat="45.67803" lon="5.77953">
        <ele>412</ele>
        <time>2018-09-01T13:00:07Z</time>
      </trkpt>
      <trkpt lat="45.67805" lon="5.77962">
        <ele>412</ele>
        <time>2018-09-01T13:00:23Z</time>
      </trkpt>
      <trkpt lat="45.67807" lon="5.7797">
        <ele>412</ele>
        <time>2018-09-01T13:00:23Z</time>
      </trkpt>
      <trkpt lat="45.67809" lon="5.77979">
        <ele>412</ele>
        <time>2018-09-01T13:00:23Z</time>
      </trkpt>
      <trkpt lat="45.6781" lon="5.77989">
        <ele>412</ele>
        <time>2018-09-01T13:00:23Z</time>
      </trkpt>
      <trkpt lat="45.67813" lon="5.77999">
        <ele>412</ele>
        <time>2018-09-01T13:00:39Z</time>
      </trkpt>
      <trkpt lat="45.67814" lon="5.78015">
        <ele>412</ele>
        <time>2018-09-01T13:00:39Z</time>
      </trkpt>
      <trkpt lat="45.6781" lon="5.78033">
        <ele>412</ele>
        <time>2018-09-01T13:00:39Z</time>
      </trkpt>
      <trkpt lat="45.67808" lon="5.78044">
        <ele>409</ele>
        <time>2018-09-01T13:00:39Z</time>
      </trkpt>
      <trkpt lat="45.67807" lon="5.78054">
        <ele>409</ele>
        <time>2018-09-01T13:00:55Z</time>
      </trkpt>
      <trkpt lat="45.67806" lon="5.78064">
        <ele>409</ele>
        <time>2018-09-01T13:00:55Z</time>
      </trkpt>
      <trkpt lat="45.67804" lon="5.78072">
        <ele>409</ele>
        <time>2018-09-01T13:00:55Z</time>
      </trkpt>
      <trkpt lat="45.67799" lon="5.78079">
        <ele>409</ele>
        <time>2018-09-01T13:00:55Z</time>
      </trkpt>
      <trkpt lat="45.67793" lon="5.78083">
        <ele>409</ele>
        <time>2018-09-01T13:01:11Z</time>
      </trkpt>
      <trkpt lat="45.67789" lon="5.78087">
        <ele>426</ele>
        <time>2018-09-01T13:01:11Z</time>
      </trkpt>
      <trkpt lat="45.67784" lon="5.78091">
        <ele>426</ele>
        <time>2018-09-01T13:01:11Z</time>
      </trkpt>
      <trkpt lat="45.6778" lon="5.78094">
        <ele>426</ele>
        <time>2018-09-01T13:01:11Z</time>
      </trkpt>
      <trkpt lat="45.67776" lon="5.78098">
        <ele>426</ele>
        <time>2018-09-01T13:01:27Z</time>
      </trkpt>
      <trkpt lat="45.67772" lon="5.78103">
        <ele>426</ele>
        <time>2018-09-01T13:01:27Z</time>
      </trkpt>
      <trkpt lat="45.67769" lon="5.78109">
        <ele>426</ele>
        <time>2018-09-01T13:01:27Z</time>
      </trkpt>
      <trkpt lat="45.67762" lon="5.78116">
        <ele>426</ele>
        <time>2018-09-01T13:01:27Z</time>
      </trkpt>
      <trkpt lat="45.67756" lon="5.78122">
        <ele>426</ele>
        <time>2018-09-01T13:01:43Z</time>
      </trkpt>
      <trkpt lat="45.67752" lon="5.78129">
        <ele>425</ele>
        <time>2018-09-01T13:01:43Z</time>
      </trkpt>
      <trkpt lat="45.67748" lon="5.78136">
        <ele>425</ele>
        <time>2018-09-01T13:01:43Z</time>
      </trkpt>
      <trkpt lat="45.67745" lon="5.78144">
        <ele>425</ele>
        <time>2018-09-01T13:01:43Z</time>
      </trkpt>
      <trkpt lat="45.67742" lon="5.78151">
        <ele>425</ele>
        <time>2018-09-01T13:01:59Z</time>
      </trkpt>
      <trkpt lat="45.67741" lon="5.78159">
        <ele>425</ele>
        <time>2018-09-01T13:01:59Z</time>
      </trkpt>
      <trkpt lat="45.67741" lon="5.78166">
        <ele>425</ele>
        <time>2018-09-01T13:01:59Z</time>
      </trkpt>
      <trkpt lat="45.67741" lon="5.78173">
        <ele>425</ele>
        <time>2018-09-01T13:01:59Z</time>
      </trkpt>
      <trkpt lat="45.67741" lon="5.78178">
        <ele>425</ele>
        <time>2018-09-01T13:02:15Z</time>
      </trkpt>
      <trkpt lat="45.6774" lon="5.78186">
        <ele>425</ele>
        <time>2018-09-01T13:02:15Z</time>
      </trkpt>
      <trkpt lat="45.67741" lon="5.78195">
        <ele>425</ele>
        <time>2018-09-01T13:02:15Z</time>
      </trkpt>
      <trkpt lat="45.6774" lon="5.78202">
        <ele>425</ele>
        <time>2018-09-01T13:02:15Z</time>
      </trkpt>
      <trkpt lat="45.6774" lon="5.78211">
        <ele>428</ele>
        <time>2018-09-01T13:02:31Z</time>
      </trkpt>
      <trkpt lat="45.67741" lon="5.7822">
        <ele>428</ele>
        <time>2018-09-01T13:02:31Z</time>
      </trkpt>
      <trkpt lat="45.67744" lon="5.78227">
        <ele>428</ele>
        <time>2018-09-01T13:02:31Z</time>
      </trkpt>
      <trkpt lat="45.67745" lon="5.78235">
        <ele>428</ele>
        <time>2018-09-01T13:02:31Z</time>
      </trkpt>
      <trkpt lat="45.67745" lon="5.78243">
        <ele>428</ele>
        <time>2018-09-01T13:02:47Z</time>
      </trkpt>
      <trkpt lat="45.67744" lon="5.78251">
        <ele>428</ele>
        <time>2018-09-01T13:02:47Z</time>
      </trkpt>
      <trkpt lat="45.67743" lon="5.7826">
        <ele>428</ele>
        <time>2018-09-01T13:02:47Z</time>
      </trkpt>
      <trkpt lat="45.67744" lon="5.78268">
        <ele>428</ele>
        <time>2018-09-01T13:02:47Z</time>
      </trkpt>
      <trkpt lat="45.67746" lon="5.78275">
        <ele>428</ele>
        <time>2018-09-01T13:03:03Z</time>
      </trkpt>
      <trkpt lat="45.67747" lon="5.78283">
        <ele>428</ele>
        <time>2018-09-01T13:03:03Z</time>
      </trkpt>
      <trkpt lat="45.67746" lon="5.78292">
        <ele>433</ele>
        <time>2018-09-01T13:03:03Z</time>
      </trkpt>
      <trkpt lat="45.67746" lon="5.783">
        <ele>433</ele>
        <time>2018-09-01T13:03:03Z</time>
      </trkpt>
      <trkpt lat="45.67747" lon="5.78309">
        <ele>433</ele>
        <time>2018-09-01T13:03:19Z</time>
      </trkpt>
      <trkpt lat="45.67748" lon="5.78316">
        <ele>433</ele>
        <time>2018-09-01T13:03:19Z</time>
      </trkpt>
      <trkpt lat="45.67745" lon="5.78323">
        <ele>433</ele>
        <time>2018-09-01T13:03:19Z</time>
      </trkpt>
      <trkpt lat="45.67744" lon="5.7833">
        <ele>433</ele>
        <time>2018-09-01T13:03:19Z</time>
      </trkpt>
      <trkpt lat="45.67745" lon="5.78337">
        <ele>433</ele>
        <time>2018-09-01T13:03:35Z</time>
      </trkpt>
      <trkpt lat="45.67744" lon="5.78345">
        <ele>433</ele>
        <time>2018-09-01T13:03:35Z</time>
      </trkpt>
      <trkpt lat="45.67744" lon="5.78354">
        <ele>433</ele>
        <time>2018-09-01T13:03:35Z</time>
      </trkpt>
      <trkpt lat="45.67743" lon="5.78363">
        <ele>433</ele>
        <time>2018-09-01T13:03:35Z</time>
      </trkpt>
      <trkpt lat="45.67744" lon="5.78371">
        <ele>433</ele>
        <time>2018-09-01T13:03:51Z</time>
      </trkpt>
      <trkpt lat="45.67745" lon="5.78378">
        <ele>431</ele>
        <time>2018-09-01T13:03:51Z</time>
      </trkpt>
      <trkpt lat="45.67746" lon="5.78387">
        <ele>431</ele>
        <time>2018-09-01T13:03:51Z</time>
      </trkpt>
      <trkpt lat="45.67747" lon="5.78395">
        <ele>431</ele>
        <time>2018-09-01T13:03:51Z</time>
      </trkpt>
      <trkpt lat="45.67747" lon="5.78403">
        <ele>431</ele>
        <time>2018-09-01T13:04:07Z</time>
      </trkpt>
      <trkpt lat="45.67747" lon="5.7841">
        <ele>431</ele>
        <time>2018-09-01T13:04:07Z</time>
      </trkpt>
      <trkpt lat="45.67748" lon="5.78418">
        <ele>431</ele>
        <time>2018-09-01T13:04:07Z</time>
      </trkpt>
      <trkpt lat="45.67748" lon="5.78426">
        <ele>431</ele>
        <time>2018-09-01T13:04:07Z</time>
      </trkpt>
      <trkpt lat="45.67747" lon="5.78434">
        <ele>431</ele>
        <time>2018-09-01T13:04:23Z</time>
      </trkpt>
      <trkpt lat="45.67745" lon="5.78441">
        <ele>431</ele>
        <time>2018-09-01T13:04:23Z</time>
      </trkpt>
      <trkpt lat="45.67743" lon="5.78449">
        <ele>431</ele>
        <time>2018-09-01T13:04:23Z</time>
      </trkpt>
      <trkpt lat="45.67738" lon="5.78454">
        <ele>431</ele>
        <time>2018-09-01T13:04:23Z</time>
      </trkpt>
      <trkpt lat="45.67734" lon="5.78457">
        <ele>431</ele>
        <time>2018-09-01T13:04:59Z</time>
      </trkpt>
      <trkpt lat="45.67734" lon="5.7846">
        <ele>429</ele>
        <time>2018-09-01T13:04:59Z</time>
      </trkpt>
      <trkpt lat="45.67736" lon="5.78462">
        <ele>429</ele>
        <time>2018-09-01T13:04:59Z</time>
      </trkpt>
      <trkpt lat="45.67737" lon="5.78464">
        <ele>429</ele>
        <time>2018-09-01T13:04:59Z</time>
      </trkpt>
      <trkpt lat="45.6774" lon="5.78468">
        <ele>429</ele>
        <time>2018-09-01T13:04:59Z</time>
      </trkpt>
      <trkpt lat="45.67743" lon="5.7847">
        <ele>429</ele>
        <time>2018-09-01T13:05:15Z</time>
      </trkpt>
      <trkpt lat="45.67745" lon="5.78474">
        <ele>429</ele>
        <time>2018-09-01T13:05:15Z</time>
      </trkpt>
      <trkpt lat="45.67744" lon="5.7848">
        <ele>429</ele>
        <time>2018-09-01T13:05:15Z</time>
      </trkpt>
      <trkpt lat="45.67742" lon="5.78484">
        <ele>429</ele>
        <time>2018-09-01T13:05:15Z</time>
      </trkpt>
      <trkpt lat="45.67739" lon="5.78488">
        <ele>429</ele>
        <time>2018-09-01T13:05:31Z</time>
      </trkpt>
      <trkpt lat="45.67737" lon="5.78491">
        <ele>429</ele>
        <time>2018-09-01T13:05:31Z</time>
      </trkpt>
      <trkpt lat="45.67734" lon="5.78494">
        <ele>429</ele>
        <time>2018-09-01T13:05:31Z</time>
      </trkpt>
      <trkpt lat="45.6773" lon="5.78496">
        <ele>429</ele>
        <time>2018-09-01T13:05:31Z</time>
      </trkpt>
      <trkpt lat="45.67725" lon="5.78497">
        <ele>429</ele>
        <time>2018-09-01T13:05:47Z</time>
      </trkpt>
      <trkpt lat="45.67721" lon="5.78497">
        <ele>429</ele>
        <time>2018-09-01T13:05:47Z</time>
      </trkpt>
      <trkpt lat="45.67717" lon="5.78499">
        <ele>429</ele>
        <time>2018-09-01T13:05:47Z</time>
      </trkpt>
      <trkpt lat="45.67713" lon="5.78503">
        <ele>429</ele>
        <time>2018-09-01T13:05:47Z</time>
      </trkpt>
      <trkpt lat="45.67708" lon="5.78507">
        <ele>429</ele>
        <time>2018-09-01T13:06:03Z</time>
      </trkpt>
      <trkpt lat="45.67703" lon="5.7851">
        <ele>429</ele>
        <time>2018-09-01T13:06:03Z</time>
      </trkpt>
      <trkpt lat="45.67699" lon="5.78512">
        <ele>429</ele>
        <time>2018-09-01T13:06:03Z</time>
      </trkpt>
      <trkpt lat="45.67694" lon="5.78516">
        <ele>429</ele>
        <time>2018-09-01T13:06:03Z</time>
      </trkpt>
      <trkpt lat="45.6769" lon="5.78519">
        <ele>429</ele>
        <time>2018-09-01T13:06:19Z</time>
      </trkpt>
      <trkpt lat="45.67685" lon="5.78523">
        <ele>429</ele>
        <time>2018-09-01T13:06:19Z</time>
      </trkpt>
      <trkpt lat="45.67681" lon="5.78527">
        <ele>429</ele>
        <time>2018-09-01T13:06:19Z</time>
      </trkpt>
      <trkpt lat="45.67678" lon="5.78533">
        <ele>429</ele>
        <time>2018-09-01T13:06:19Z</time>
      </trkpt>
      <trkpt lat="45.67675" lon="5.78538">
        <ele>429</ele>
        <time>2018-09-01T13:06:35Z</time>
      </trkpt>
      <trkpt lat="45.67672" lon="5.78544">
        <ele>430</ele>
        <time>2018-09-01T13:06:35Z</time>
      </trkpt>
      <trkpt lat="45.67669" lon="5.7855">
        <ele>430</ele>
        <time>2018-09-01T13:06:35Z</time>
      </trkpt>
      <trkpt lat="45.67666" lon="5.78555">
        <ele>430</ele>
        <time>2018-09-01T13:06:35Z</time>
      </trkpt>
      <trkpt lat="45.67663" lon="5.78561">
        <ele>430</ele>
        <time>2018-09-01T13:06:51Z</time>
      </trkpt>
      <trkpt lat="45.6766" lon="5.78567">
        <ele>430</ele>
        <time>2018-09-01T13:06:51Z</time>
      </trkpt>
      <trkpt lat="45.67656" lon="5.78573">
        <ele>430</ele>
        <time>2018-09-01T13:06:51Z</time>
      </trkpt>
      <trkpt lat="45.67652" lon="5.7858">
        <ele>430</ele>
        <time>2018-09-01T13:06:51Z</time>
      </trkpt>
      <trkpt lat="45.6765" lon="5.78586">
        <ele>430</ele>
        <time>2018-09-01T13:07:07Z</time>
      </trkpt>
      <trkpt lat="45.67647" lon="5.78592">
        <ele>430</ele>
        <time>2018-09-01T13:07:07Z</time>
      </trkpt>
      <trkpt lat="45.67644" lon="5.78598">
        <ele>430</ele>
        <time>2018-09-01T13:07:07Z</time>
      </trkpt>
      <trkpt lat="45.6764" lon="5.78605">
        <ele>430</ele>
        <time>2018-09-01T13:07:07Z</time>
      </trkpt>
      <trkpt lat="45.67637" lon="5.78611">
        <ele>430</ele>
        <time>2018-09-01T13:07:23Z</time>
      </trkpt>
      <trkpt lat="45.67633" lon="5.78618">
        <ele>430</ele>
        <time>2018-09-01T13:07:23Z</time>
      </trkpt>
      <trkpt lat="45.67631" lon="5.78624">
        <ele>430</ele>
        <time>2018-09-01T13:07:23Z</time>
      </trkpt>
      <trkpt lat="45.67627" lon="5.78631">
        <ele>433</ele>
        <time>2018-09-01T13:07:23Z</time>
      </trkpt>
      <trkpt lat="45.67624" lon="5.78637">
        <ele>437</ele>
        <time>2018-09-01T13:07:39Z</time>
      </trkpt>
      <trkpt lat="45.67621" lon="5.78644">
        <ele>437</ele>
        <time>2018-09-01T13:07:39Z</time>
      </trkpt>
      <trkpt lat="45.6762" lon="5.7865">
        <ele>437</ele>
        <time>2018-09-01T13:07:39Z</time>
      </trkpt>
      <trkpt lat="45.6762" lon="5.78656">
        <ele>437</ele>
        <time>2018-09-01T13:07:39Z</time>
      </trkpt>
      <trkpt lat="45.67619" lon="5.78661">
        <ele>437</ele>
        <time>2018-09-01T13:07:55Z</time>
      </trkpt>
      <trkpt lat="45.67619" lon="5.78668">
        <ele>437</ele>
        <time>2018-09-01T13:07:55Z</time>
      </trkpt>
      <trkpt lat="45.67619" lon="5.78675">
        <ele>437</ele>
        <time>2018-09-01T13:07:55Z</time>
      </trkpt>
      <trkpt lat="45.6762" lon="5.78681">
        <ele>437</ele>
        <time>2018-09-01T13:07:55Z</time>
      </trkpt>
      <trkpt lat="45.67622" lon="5.78686">
        <ele>437</ele>
        <time>2018-09-01T13:08:11Z</time>
      </trkpt>
      <trkpt lat="45.67624" lon="5.78691">
        <ele>437</ele>
        <time>2018-09-01T13:08:11Z</time>
      </trkpt>
      <trkpt lat="45.67624" lon="5.78697">
        <ele>437</ele>
        <time>2018-09-01T13:08:11Z</time>
      </trkpt>
      <trkpt lat="45.67624" lon="5.78704">
        <ele>437</ele>
        <time>2018-09-01T13:08:11Z</time>
      </trkpt>
      <trkpt lat="45.67624" lon="5.78712">
        <ele>438</ele>
        <time>2018-09-01T13:08:27Z</time>
      </trkpt>
      <trkpt lat="45.67624" lon="5.78719">
        <ele>438</ele>
        <time>2018-09-01T13:08:27Z</time>
      </trkpt>
      <trkpt lat="45.67625" lon="5.78725">
        <ele>438</ele>
        <time>2018-09-01T13:08:27Z</time>
      </trkpt>
      <trkpt lat="45.67625" lon="5.78732">
        <ele>430</ele>
        <time>2018-09-01T13:08:27Z</time>
      </trkpt>
      <trkpt lat="45.67626" lon="5.78738">
        <ele>430</ele>
        <time>2018-09-01T13:08:43Z</time>
      </trkpt>
      <trkpt lat="45.67627" lon="5.78746">
        <ele>430</ele>
        <time>2018-09-01T13:08:43Z</time>
      </trkpt>
      <trkpt lat="45.67628" lon="5.78753">
        <ele>430</ele>
        <time>2018-09-01T13:08:43Z</time>
      </trkpt>
      <trkpt lat="45.67629" lon="5.78761">
        <ele>430</ele>
        <time>2018-09-01T13:08:43Z</time>
      </trkpt>
      <trkpt lat="45.67631" lon="5.78768">
        <ele>430</ele>
        <time>2018-09-01T13:08:59Z</time>
      </trkpt>
      <trkpt lat="45.67632" lon="5.78775">
        <ele>430</ele>
        <time>2018-09-01T13:08:59Z</time>
      </trkpt>
      <trkpt lat="45.67633" lon="5.78782">
        <ele>430</ele>
        <time>2018-09-01T13:08:59Z</time>
      </trkpt>
      <trkpt lat="45.67635" lon="5.78789">
        <ele>430</ele>
        <time>2018-09-01T13:08:59Z</time>
      </trkpt>
      <trkpt lat="45.67637" lon="5.78796">
        <ele>430</ele>
        <time>2018-09-01T13:09:15Z</time>
      </trkpt>
      <trkpt lat="45.67638" lon="5.78804">
        <ele>430</ele>
        <time>2018-09-01T13:09:15Z</time>
      </trkpt>
      <trkpt lat="45.67639" lon="5.78813">
        <ele>430</ele>
        <time>2018-09-01T13:09:15Z</time>
      </trkpt>
      <trkpt lat="45.67642" lon="5.78822">
        <ele>430</ele>
        <time>2018-09-01T13:09:15Z</time>
      </trkpt>
      <trkpt lat="45.67644" lon="5.7883">
        <ele>430</ele>
        <time>2018-09-01T13:09:31Z</time>
      </trkpt>
      <trkpt lat="45.67646" lon="5.78838">
        <ele>430</ele>
        <time>2018-09-01T13:09:31Z</time>
      </trkpt>
      <trkpt lat="45.67648" lon="5.78846">
        <ele>430</ele>
        <time>2018-09-01T13:09:31Z</time>
      </trkpt>
      <trkpt lat="45.6765" lon="5.78854">
        <ele>430</ele>
        <time>2018-09-01T13:09:31Z</time>
      </trkpt>
      <trkpt lat="45.67651" lon="5.78862">
        <ele>430</ele>
        <time>2018-09-01T13:09:47Z</time>
      </trkpt>
      <trkpt lat="45.67654" lon="5.78869">
        <ele>430</ele>
        <time>2018-09-01T13:09:47Z</time>
      </trkpt>
      <trkpt lat="45.67656" lon="5.78876">
        <ele>432</ele>
        <time>2018-09-01T13:09:47Z</time>
      </trkpt>
      <trkpt lat="45.67658" lon="5.78883">
        <ele>432</ele>
        <time>2018-09-01T13:09:47Z</time>
      </trkpt>
      <trkpt lat="45.67661" lon="5.78889">
        <ele>432</ele>
        <time>2018-09-01T13:10:03Z</time>
      </trkpt>
      <trkpt lat="45.67664" lon="5.78895">
        <ele>432</ele>
        <time>2018-09-01T13:10:03Z</time>
      </trkpt>
      <trkpt lat="45.67668" lon="5.78901">
        <ele>432</ele>
        <time>2018-09-01T13:10:03Z</time>
      </trkpt>
      <trkpt lat="45.67671" lon="5.78907">
        <ele>432</ele>
        <time>2018-09-01T13:10:03Z</time>
      </trkpt>
      <trkpt lat="45.67673" lon="5.78913">
        <ele>432</ele>
        <time>2018-09-01T13:10:19Z</time>
      </trkpt>
      <trkpt lat="45.67677" lon="5.78917">
        <ele>432</ele>
        <time>2018-09-01T13:10:19Z</time>
      </trkpt>
      <trkpt lat="45.67681" lon="5.78922">
        <ele>432</ele>
        <time>2018-09-01T13:10:19Z</time>
      </trkpt>
      <trkpt lat="45.67684" lon="5.78928">
        <ele>432</ele>
        <time>2018-09-01T13:10:19Z</time>
      </trkpt>
      <trkpt lat="45.67688" lon="5.78932">
        <ele>432</ele>
        <time>2018-09-01T13:10:35Z</time>
      </trkpt>
      <trkpt lat="45.67691" lon="5.78938">
        <ele>432</ele>
        <time>2018-09-01T13:10:35Z</time>
      </trkpt>
      <trkpt lat="45.67694" lon="5.78944">
        <ele>432</ele>
        <time>2018-09-01T13:10:35Z</time>
      </trkpt>
      <trkpt lat="45.67698" lon="5.78949">
        <ele>432</ele>
        <time>2018-09-01T13:10:35Z</time>
      </trkpt>
      <trkpt lat="45.67702" lon="5.78955">
        <ele>432</ele>
        <time>2018-09-01T13:10:51Z</time>
      </trkpt>
      <trkpt lat="45.67705" lon="5.7896">
        <ele>430</ele>
        <time>2018-09-01T13:10:51Z</time>
      </trkpt>
      <trkpt lat="45.67708" lon="5.78965">
        <ele>430</ele>
        <time>2018-09-01T13:10:51Z</time>
      </trkpt>
      <trkpt lat="45.67712" lon="5.7897">
        <ele>427</ele>
        <time>2018-09-01T13:10:51Z</time>
      </trkpt>
      <trkpt lat="45.67715" lon="5.78975">
        <ele>427</ele>
        <time>2018-09-01T13:11:07Z</time>
      </trkpt>
      <trkpt lat="45.67719" lon="5.7898">
        <ele>427</ele>
        <time>2018-09-01T13:11:07Z</time>
      </trkpt>
      <trkpt lat="45.67723" lon="5.78985">
        <ele>427</ele>
        <time>2018-09-01T13:11:07Z</time>
      </trkpt>
      <trkpt lat="45.67726" lon="5.78991">
        <ele>427</ele>
        <time>2018-09-01T13:11:07Z</time>
      </trkpt>
      <trkpt lat="45.67729" lon="5.78997">
        <ele>427</ele>
        <time>2018-09-01T13:11:23Z</time>
      </trkpt>
      <trkpt lat="45.67733" lon="5.79002">
        <ele>427</ele>
        <time>2018-09-01T13:11:23Z</time>
      </trkpt>
      <trkpt lat="45.67736" lon="5.79007">
        <ele>427</ele>
        <time>2018-09-01T13:11:23Z</time>
      </trkpt>
      <trkpt lat="45.6774" lon="5.79011">
        <ele>427</ele>
        <time>2018-09-01T13:11:23Z</time>
      </trkpt>
      <trkpt lat="45.67743" lon="5.79016">
        <ele>427</ele>
        <time>2018-09-01T13:11:39Z</time>
      </trkpt>
      <trkpt lat="45.67747" lon="5.79021">
        <ele>427</ele>
        <time>2018-09-01T13:11:39Z</time>
      </trkpt>
      <trkpt lat="45.6775" lon="5.79027">
        <ele>427</ele>
        <time>2018-09-01T13:11:39Z</time>
      </trkpt>
      <trkpt lat="45.67753" lon="5.79034">
        <ele>427</ele>
        <time>2018-09-01T13:11:39Z</time>
      </trkpt>
      <trkpt lat="45.67757" lon="5.7904">
        <ele>427</ele>
        <time>2018-09-01T13:11:55Z</time>
      </trkpt>
      <trkpt lat="45.67761" lon="5.79045">
        <ele>423</ele>
        <time>2018-09-01T13:11:55Z</time>
      </trkpt>
      <trkpt lat="45.67765" lon="5.7905">
        <ele>423</ele>
        <time>2018-09-01T13:11:55Z</time>
      </trkpt>
      <trkpt lat="45.67767" lon="5.79056">
        <ele>423</ele>
        <time>2018-09-01T13:11:55Z</time>
      </trkpt>
      <trkpt lat="45.67769" lon="5.79063">
        <ele>423</ele>
        <time>2018-09-01T13:12:11Z</time>
      </trkpt>
      <trkpt lat="45.6777" lon="5.79069">
        <ele>423</ele>
        <time>2018-09-01T13:12:11Z</time>
      </trkpt>
      <trkpt lat="45.67774" lon="5.79073">
        <ele>423</ele>
        <time>2018-09-01T13:12:11Z</time>
      </trkpt>
      <trkpt lat="45.67777" lon="5.79077">
        <ele>423</ele>
        <time>2018-09-01T13:12:11Z</time>
      </trkpt>
      <trkpt lat="45.67781" lon="5.79081">
        <ele>423</ele>
        <time>2018-09-01T13:12:27Z</time>
      </trkpt>
      <trkpt lat="45.67784" lon="5.79086">
        <ele>423</ele>
        <time>2018-09-01T13:12:27Z</time>
      </trkpt>
      <trkpt lat="45.67787" lon="5.79091">
        <ele>423</ele>
        <time>2018-09-01T13:12:27Z</time>
      </trkpt>
      <trkpt lat="45.67791" lon="5.79098">
        <ele>423</ele>
        <time>2018-09-01T13:12:27Z</time>
      </trkpt>
      <trkpt lat="45.67794" lon="5.79104">
        <ele>418</ele>
        <time>2018-09-01T13:12:43Z</time>
      </trkpt>
      <trkpt lat="45.67797" lon="5.79111">
        <ele>418</ele>
        <time>2018-09-01T13:12:43Z</time>
      </trkpt>
      <trkpt lat="45.678" lon="5.79116">
        <ele>418</ele>
        <time>2018-09-01T13:12:43Z</time>
      </trkpt>
      <trkpt lat="45.67804" lon="5.7912">
        <ele>418</ele>
        <time>2018-09-01T13:12:43Z</time>
      </trkpt>
      <trkpt lat="45.67806" lon="5.79126">
        <ele>417</ele>
        <time>2018-09-01T13:12:59Z</time>
      </trkpt>
      <trkpt lat="45.67808" lon="5.79133">
        <ele>417</ele>
        <time>2018-09-01T13:12:59Z</time>
      </trkpt>
      <trkpt lat="45.67809" lon="5.7914">
        <ele>417</ele>
        <time>2018-09-01T13:12:59Z</time>
      </trkpt>
      <trkpt lat="45.67811" lon="5.79146">
        <ele>417</ele>
        <time>2018-09-01T13:12:59Z</time>
      </trkpt>
      <trkpt lat="45.67812" lon="5.79153">
        <ele>417</ele>
        <time>2018-09-01T13:13:15Z</time>
      </trkpt>
      <trkpt lat="45.67812" lon="5.79161">
        <ele>417</ele>
        <time>2018-09-01T13:13:15Z</time>
      </trkpt>
      <trkpt lat="45.67813" lon="5.79167">
        <ele>417</ele>
        <time>2018-09-01T13:13:15Z</time>
      </trkpt>
      <trkpt lat="45.67814" lon="5.79174">
        <ele>417</ele>
        <time>2018-09-01T13:13:15Z</time>
      </trkpt>
      <trkpt lat="45.67815" lon="5.79181">
        <ele>417</ele>
        <time>2018-09-01T13:13:31Z</time>
      </trkpt>
      <trkpt lat="45.67816" lon="5.79188">
        <ele>417</ele>
        <time>2018-09-01T13:13:31Z</time>
      </trkpt>
      <trkpt lat="45.67817" lon="5.79195">
        <ele>417</ele>
        <time>2018-09-01T13:13:31Z</time>
      </trkpt>
      <trkpt lat="45.67817" lon="5.79202">
        <ele>417</ele>
        <time>2018-09-01T13:13:31Z</time>
      </trkpt>
      <trkpt lat="45.67818" lon="5.79209">
        <ele>415</ele>
        <time>2018-09-01T13:13:47Z</time>
      </trkpt>
      <trkpt lat="45.67819" lon="5.79217">
        <ele>415</ele>
        <time>2018-09-01T13:13:47Z</time>
      </trkpt>
      <trkpt lat="45.6782" lon="5.79225">
        <ele>415</ele>
        <time>2018-09-01T13:13:47Z</time>
      </trkpt>
      <trkpt lat="45.67821" lon="5.79232">
        <ele>415</ele>
        <time>2018-09-01T13:13:47Z</time>
      </trkpt>
      <trkpt lat="45.67822" lon="5.7924">
        <ele>415</ele>
        <time>2018-09-01T13:14:03Z</time>
      </trkpt>
      <trkpt lat="45.67823" lon="5.79247">
        <ele>415</ele>
        <time>2018-09-01T13:14:03Z</time>
      </trkpt>
      <trkpt lat="45.67825" lon="5.79255">
        <ele>415</ele>
        <time>2018-09-01T13:14:03Z</time>
      </trkpt>
      <trkpt lat="45.67827" lon="5.79263">
        <ele>415</ele>
        <time>2018-09-01T13:14:03Z</time>
      </trkpt>
      <trkpt lat="45.67828" lon="5.79271">
        <ele>415</ele>
        <time>2018-09-01T13:14:19Z</time>
      </trkpt>
      <trkpt lat="45.67829" lon="5.79278">
        <ele>415</ele>
        <time>2018-09-01T13:14:19Z</time>
      </trkpt>
      <trkpt lat="45.6783" lon="5.79285">
        <ele>415</ele>
        <time>2018-09-01T13:14:19Z</time>
      </trkpt>
      <trkpt lat="45.67831" lon="5.7929">
        <ele>415</ele>
        <time>2018-09-01T13:14:19Z</time>
      </trkpt>
      <trkpt lat="45.67831" lon="5.79292">
        <ele>416</ele>
        <time>2018-09-01T13:14:35Z</time>
      </trkpt>
      <trkpt lat="45.67833" lon="5.79299">
        <ele>416</ele>
        <time>2018-09-01T13:14:35Z</time>
      </trkpt>
      <trkpt lat="45.67836" lon="5.79305">
        <ele>416</ele>
        <time>2018-09-01T13:14:35Z</time>
      </trkpt>
      <trkpt lat="45.67838" lon="5.7931">
        <ele>416</ele>
        <time>2018-09-01T13:14:35Z</time>
      </trkpt>
      <trkpt lat="45.67841" lon="5.79316">
        <ele>416</ele>
        <time>2018-09-01T13:14:51Z</time>
      </trkpt>
      <trkpt lat="45.67845" lon="5.79324">
        <ele>416</ele>
        <time>2018-09-01T13:14:51Z</time>
      </trkpt>
      <trkpt lat="45.67849" lon="5.7933">
        <ele>416</ele>
        <time>2018-09-01T13:14:51Z</time>
      </trkpt>
      <trkpt lat="45.67852" lon="5.79333">
        <ele>416</ele>
        <time>2018-09-01T13:14:51Z</time>
      </trkpt>
      <trkpt lat="45.67854" lon="5.79337">
        <ele>416</ele>
        <time>2018-09-01T13:15:07Z</time>
      </trkpt>
      <trkpt lat="45.67856" lon="5.79343">
        <ele>416</ele>
        <time>2018-09-01T13:15:07Z</time>
      </trkpt>
      <trkpt lat="45.67859" lon="5.7935">
        <ele>416</ele>
        <time>2018-09-01T13:15:07Z</time>
      </trkpt>
      <trkpt lat="45.67862" lon="5.79357">
        <ele>416</ele>
        <time>2018-09-01T13:15:07Z</time>
      </trkpt>
      <trkpt lat="45.67869" lon="5.79373">
        <ele>416</ele>
        <time>2018-09-01T13:15:23Z</time>
      </trkpt>
      <trkpt lat="45.67882" lon="5.79403">
        <ele>412</ele>
        <time>2018-09-01T13:15:23Z</time>
      </trkpt>
      <trkpt lat="45.67894" lon="5.79428">
        <ele>412</ele>
        <time>2018-09-01T13:15:23Z</time>
      </trkpt>
      <trkpt lat="45.67909" lon="5.79451">
        <ele>412</ele>
        <time>2018-09-01T13:15:23Z</time>
      </trkpt>
      <trkpt lat="45.67923" lon="5.79478">
        <ele>418</ele>
        <time>2018-09-01T13:15:39Z</time>
      </trkpt>
      <trkpt lat="45.67925" lon="5.79492">
        <ele>418</ele>
        <time>2018-09-01T13:15:39Z</time>
      </trkpt>
      <trkpt lat="45.67926" lon="5.79496">
        <ele>418</ele>
        <time>2018-09-01T13:15:39Z</time>
      </trkpt>
      <trkpt lat="45.6793" lon="5.79503">
        <ele>418</ele>
        <time>2018-09-01T13:15:39Z</time>
      </trkpt>
      <trkpt lat="45.67931" lon="5.79506">
        <ele>418</ele>
        <time>2018-09-01T13:15:55Z</time>
      </trkpt>
      <trkpt lat="45.67932" lon="5.79509">
        <ele>418</ele>
        <time>2018-09-01T13:15:55Z</time>
      </trkpt>
      <trkpt lat="45.67935" lon="5.79511">
        <ele>418</ele>
        <time>2018-09-01T13:15:55Z</time>
      </trkpt>
      <trkpt lat="45.67939" lon="5.79513">
        <ele>418</ele>
        <time>2018-09-01T13:15:55Z</time>
      </trkpt>
      <trkpt lat="45.67942" lon="5.79516">
        <ele>418</ele>
        <time>2018-09-01T13:16:11Z</time>
      </trkpt>
      <trkpt lat="45.67945" lon="5.79519">
        <ele>418</ele>
        <time>2018-09-01T13:16:11Z</time>
      </trkpt>
      <trkpt lat="45.67949" lon="5.79523">
        <ele>418</ele>
        <time>2018-09-01T13:16:11Z</time>
      </trkpt>
      <trkpt lat="45.67951" lon="5.79528">
        <ele>418</ele>
        <time>2018-09-01T13:16:11Z</time>
      </trkpt>
      <trkpt lat="45.67954" lon="5.79531">
        <ele>418</ele>
        <time>2018-09-01T13:16:27Z</time>
      </trkpt>
      <trkpt lat="45.67956" lon="5.79537">
        <ele>418</ele>
        <time>2018-09-01T13:16:27Z</time>
      </trkpt>
      <trkpt lat="45.6796" lon="5.79541">
        <ele>407</ele>
        <time>2018-09-01T13:16:27Z</time>
      </trkpt>
      <trkpt lat="45.67965" lon="5.79546">
        <ele>415</ele>
        <time>2018-09-01T13:16:27Z</time>
      </trkpt>
      <trkpt lat="45.67971" lon="5.79553">
        <ele>415</ele>
        <time>2018-09-01T13:16:43Z</time>
      </trkpt>
      <trkpt lat="45.67975" lon="5.79557">
        <ele>415</ele>
        <time>2018-09-01T13:16:43Z</time>
      </trkpt>
      <trkpt lat="45.67978" lon="5.79561">
        <ele>415</ele>
        <time>2018-09-01T13:16:43Z</time>
      </trkpt>
      <trkpt lat="45.67983" lon="5.79566">
        <ele>415</ele>
        <time>2018-09-01T13:16:43Z</time>
      </trkpt>
      <trkpt lat="45.67985" lon="5.79569">
        <ele>415</ele>
        <time>2018-09-01T13:16:59Z</time>
      </trkpt>
      <trkpt lat="45.67989" lon="5.79573">
        <ele>415</ele>
        <time>2018-09-01T13:16:59Z</time>
      </trkpt>
      <trkpt lat="45.67993" lon="5.79577">
        <ele>415</ele>
        <time>2018-09-01T13:16:59Z</time>
      </trkpt>
      <trkpt lat="45.67995" lon="5.79579">
        <ele>415</ele>
        <time>2018-09-01T13:16:59Z</time>
      </trkpt>
      <trkpt lat="45.67999" lon="5.7958">
        <ele>415</ele>
        <time>2018-09-01T13:17:15Z</time>
      </trkpt>
      <trkpt lat="45.68005" lon="5.79584">
        <ele>415</ele>
        <time>2018-09-01T13:17:15Z</time>
      </trkpt>
      <trkpt lat="45.68009" lon="5.79588">
        <ele>415</ele>
        <time>2018-09-01T13:17:15Z</time>
      </trkpt>
      <trkpt lat="45.68015" lon="5.79593">
        <ele>415</ele>
        <time>2018-09-01T13:17:15Z</time>
      </trkpt>
      <trkpt lat="45.68019" lon="5.79597">
        <ele>415</ele>
        <time>2018-09-01T13:17:31Z</time>
      </trkpt>
      <trkpt lat="45.68025" lon="5.79603">
        <ele>415</ele>
        <time>2018-09-01T13:17:31Z</time>
      </trkpt>
      <trkpt lat="45.6803" lon="5.79605">
        <ele>415</ele>
        <time>2018-09-01T13:17:31Z</time>
      </trkpt>
      <trkpt lat="45.68036" lon="5.79607">
        <ele>415</ele>
        <time>2018-09-01T13:17:31Z</time>
      </trkpt>
      <trkpt lat="45.68043" lon="5.79606">
        <ele>404</ele>
        <time>2018-09-01T13:17:47Z</time>
      </trkpt>
      <trkpt lat="45.68048" lon="5.79603">
        <ele>404</ele>
        <time>2018-09-01T13:17:47Z</time>
      </trkpt>
      <trkpt lat="45.68052" lon="5.796">
        <ele>404</ele>
        <time>2018-09-01T13:17:47Z</time>
      </trkpt>
      <trkpt lat="45.68056" lon="5.79595">
        <ele>404</ele>
        <time>2018-09-01T13:17:47Z</time>
      </trkpt>
      <trkpt lat="45.68062" lon="5.79611">
        <ele>404</ele>
        <time>2018-09-01T13:20:59Z</time>
      </trkpt>
      <trkpt lat="45.68062" lon="5.79611">
        <ele>404</ele>
        <time>2018-09-01T13:20:59Z</time>
      </trkpt>
      <trkpt lat="45.6806" lon="5.79614">
        <ele>404</ele>
        <time>2018-09-01T13:20:59Z</time>
      </trkpt>
      <trkpt lat="45.6806" lon="5.79615">
        <ele>404</ele>
        <time>2018-09-01T13:20:59Z</time>
      </trkpt>
      <trkpt lat="45.68061" lon="5.79614">
        <ele>404</ele>
        <time>2018-09-01T13:20:59Z</time>
      </trkpt>
      <trkpt lat="45.68065" lon="5.79607">
        <ele>404</ele>
        <time>2018-09-01T13:24:11Z</time>
      </trkpt>
      <trkpt lat="45.68066" lon="5.79607">
        <ele>404</ele>
        <time>2018-09-01T13:24:11Z</time>
      </trkpt>
      <trkpt lat="45.68067" lon="5.79609">
        <ele>404</ele>
        <time>2018-09-01T13:24:11Z</time>
      </trkpt>
      <trkpt lat="45.6807" lon="5.79613">
        <ele>404</ele>
        <time>2018-09-01T13:24:11Z</time>
      </trkpt>
      <trkpt lat="45.68073" lon="5.79618">
        <ele>404</ele>
        <time>2018-09-01T13:24:11Z</time>
      </trkpt>
      <trkpt lat="45.6807" lon="5.79613">
        <ele>404</ele>
        <time>2018-09-01T13:26:51Z</time>
      </trkpt>
      <trkpt lat="45.6807" lon="5.79613">
        <ele>404</ele>
        <time>2018-09-01T13:26:51Z</time>
      </trkpt>
      <trkpt lat="45.68069" lon="5.79613">
        <ele>404</ele>
        <time>2018-09-01T13:26:51Z</time>
      </trkpt>
      <trkpt lat="45.68069" lon="5.79613">
        <ele>404</ele>
        <time>2018-09-01T13:26:51Z</time>
      </trkpt>
      <trkpt lat="45.68069" lon="5.79612">
        <ele>404</ele>
        <time>2018-09-01T13:26:51Z</time>
      </trkpt>
      <trkpt lat="45.68068" lon="5.79612">
        <ele>404</ele>
        <time>2018-09-01T14:12:47Z</time>
      </trkpt>
      <trkpt lat="45.68068" lon="5.79611">
        <ele>404</ele>
        <time>2018-09-01T14:12:47Z</time>
      </trkpt>
      <trkpt lat="45.68071" lon="5.79611">
        <ele>404</ele>
        <time>2018-09-01T14:12:47Z</time>
      </trkpt>
      <trkpt lat="45.68075" lon="5.79617">
        <ele>404</ele>
        <time>2018-09-01T14:12:47Z</time>
      </trkpt>
      <trkpt lat="45.68079" lon="5.79621">
        <ele>404</ele>
        <time>2018-09-01T14:12:47Z</time>
      </trkpt>
      <trkpt lat="45.68086" lon="5.79626">
        <ele>409</ele>
        <time>2018-09-01T14:13:39Z</time>
      </trkpt>
      <trkpt lat="45.68086" lon="5.79627">
        <ele>409</ele>
        <time>2018-09-01T14:13:39Z</time>
      </trkpt>
      <trkpt lat="45.68087" lon="5.79627">
        <ele>409</ele>
        <time>2018-09-01T14:13:39Z</time>
      </trkpt>
      <trkpt lat="45.68091" lon="5.79631">
        <ele>409</ele>
        <time>2018-09-01T14:13:39Z</time>
      </trkpt>
      <trkpt lat="45.68094" lon="5.79637">
        <ele>409</ele>
        <time>2018-09-01T14:13:39Z</time>
      </trkpt>
      <trkpt lat="45.68097" lon="5.79643">
        <ele>409</ele>
        <time>2018-09-01T14:13:55Z</time>
      </trkpt>
      <trkpt lat="45.68101" lon="5.79648">
        <ele>409</ele>
        <time>2018-09-01T14:13:55Z</time>
      </trkpt>
      <trkpt lat="45.68106" lon="5.79652">
        <ele>409</ele>
        <time>2018-09-01T14:13:55Z</time>
      </trkpt>
      <trkpt lat="45.68109" lon="5.79657">
        <ele>409</ele>
        <time>2018-09-01T14:13:55Z</time>
      </trkpt>
      <trkpt lat="45.68114" lon="5.79661">
        <ele>409</ele>
        <time>2018-09-01T14:14:11Z</time>
      </trkpt>
      <trkpt lat="45.68117" lon="5.79665">
        <ele>409</ele>
        <time>2018-09-01T14:14:11Z</time>
      </trkpt>
      <trkpt lat="45.68122" lon="5.79669">
        <ele>409</ele>
        <time>2018-09-01T14:14:11Z</time>
      </trkpt>
      <trkpt lat="45.68125" lon="5.79674">
        <ele>409</ele>
        <time>2018-09-01T14:14:11Z</time>
      </trkpt>
      <trkpt lat="45.68128" lon="5.79679">
        <ele>404</ele>
        <time>2018-09-01T14:14:27Z</time>
      </trkpt>
      <trkpt lat="45.68131" lon="5.79684">
        <ele>404</ele>
        <time>2018-09-01T14:14:27Z</time>
      </trkpt>
      <trkpt lat="45.68134" lon="5.79689">
        <ele>404</ele>
        <time>2018-09-01T14:14:27Z</time>
      </trkpt>
      <trkpt lat="45.68137" lon="5.79695">
        <ele>404</ele>
        <time>2018-09-01T14:14:27Z</time>
      </trkpt>
      <trkpt lat="45.68142" lon="5.797">
        <ele>404</ele>
        <time>2018-09-01T14:14:43Z</time>
      </trkpt>
      <trkpt lat="45.68146" lon="5.79705">
        <ele>404</ele>
        <time>2018-09-01T14:14:43Z</time>
      </trkpt>
      <trkpt lat="45.6815" lon="5.79711">
        <ele>406</ele>
        <time>2018-09-01T14:14:43Z</time>
      </trkpt>
      <trkpt lat="45.68153" lon="5.79716">
        <ele>406</ele>
        <time>2018-09-01T14:14:43Z</time>
      </trkpt>
      <trkpt lat="45.68157" lon="5.79722">
        <ele>406</ele>
        <time>2018-09-01T14:14:59Z</time>
      </trkpt>
      <trkpt lat="45.68159" lon="5.79728">
        <ele>406</ele>
        <time>2018-09-01T14:14:59Z</time>
      </trkpt>
      <trkpt lat="45.68161" lon="5.79734">
        <ele>406</ele>
        <time>2018-09-01T14:14:59Z</time>
      </trkpt>
      <trkpt lat="45.68164" lon="5.7974">
        <ele>406</ele>
        <time>2018-09-01T14:14:59Z</time>
      </trkpt>
      <trkpt lat="45.68166" lon="5.79744">
        <ele>406</ele>
        <time>2018-09-01T14:15:15Z</time>
      </trkpt>
      <trkpt lat="45.6817" lon="5.79749">
        <ele>406</ele>
        <time>2018-09-01T14:15:15Z</time>
      </trkpt>
      <trkpt lat="45.68175" lon="5.79755">
        <ele>406</ele>
        <time>2018-09-01T14:15:15Z</time>
      </trkpt>
      <trkpt lat="45.68181" lon="5.7976">
        <ele>406</ele>
        <time>2018-09-01T14:15:15Z</time>
      </trkpt>
      <trkpt lat="45.68187" lon="5.79766">
        <ele>406</ele>
        <time>2018-09-01T14:15:39Z</time>
      </trkpt>
      <trkpt lat="45.68188" lon="5.79766">
        <ele>406</ele>
        <time>2018-09-01T14:15:39Z</time>
      </trkpt>
      <trkpt lat="45.68188" lon="5.79767">
        <ele>406</ele>
        <time>2018-09-01T14:15:39Z</time>
      </trkpt>
      <trkpt lat="45.68191" lon="5.79771">
        <ele>406</ele>
        <time>2018-09-01T14:15:39Z</time>
      </trkpt>
      <trkpt lat="45.68194" lon="5.79774">
        <ele>406</ele>
        <time>2018-09-01T14:15:39Z</time>
      </trkpt>
      <trkpt lat="45.68198" lon="5.79777">
        <ele>406</ele>
        <time>2018-09-01T14:15:55Z</time>
      </trkpt>
      <trkpt lat="45.68203" lon="5.79781">
        <ele>406</ele>
        <time>2018-09-01T14:15:55Z</time>
      </trkpt>
      <trkpt lat="45.68208" lon="5.79786">
        <ele>406</ele>
        <time>2018-09-01T14:15:55Z</time>
      </trkpt>
      <trkpt lat="45.68212" lon="5.7979">
        <ele>403</ele>
        <time>2018-09-01T14:15:55Z</time>
      </trkpt>
      <trkpt lat="45.68216" lon="5.79794">
        <ele>405</ele>
        <time>2018-09-01T14:16:11Z</time>
      </trkpt>
      <trkpt lat="45.68219" lon="5.79801">
        <ele>405</ele>
        <time>2018-09-01T14:16:11Z</time>
      </trkpt>
      <trkpt lat="45.68226" lon="5.79814">
        <ele>405</ele>
        <time>2018-09-01T14:16:11Z</time>
      </trkpt>
      <trkpt lat="45.68231" lon="5.79821">
        <ele>405</ele>
        <time>2018-09-01T14:16:11Z</time>
      </trkpt>
      <trkpt lat="45.68234" lon="5.79829">
        <ele>405</ele>
        <time>2018-09-01T14:16:27Z</time>
      </trkpt>
      <trkpt lat="45.6825" lon="5.79851">
        <ele>405</ele>
        <time>2018-09-01T14:16:27Z</time>
      </trkpt>
      <trkpt lat="45.68264" lon="5.79868">
        <ele>405</ele>
        <time>2018-09-01T14:16:27Z</time>
      </trkpt>
      <trkpt lat="45.68281" lon="5.79886">
        <ele>405</ele>
        <time>2018-09-01T14:16:27Z</time>
      </trkpt>
      <trkpt lat="45.68292" lon="5.79901">
        <ele>404</ele>
        <time>2018-09-01T14:16:43Z</time>
      </trkpt>
      <trkpt lat="45.68296" lon="5.79907">
        <ele>404</ele>
        <time>2018-09-01T14:16:43Z</time>
      </trkpt>
      <trkpt lat="45.68299" lon="5.79912">
        <ele>404</ele>
        <time>2018-09-01T14:16:43Z</time>
      </trkpt>
      <trkpt lat="45.68298" lon="5.79913">
        <ele>404</ele>
        <time>2018-09-01T14:16:43Z</time>
      </trkpt>
      <trkpt lat="45.68301" lon="5.79918">
        <ele>404</ele>
        <time>2018-09-01T14:16:59Z</time>
      </trkpt>
      <trkpt lat="45.68306" lon="5.79924">
        <ele>404</ele>
        <time>2018-09-01T14:16:59Z</time>
      </trkpt>
      <trkpt lat="45.68312" lon="5.7993">
        <ele>404</ele>
        <time>2018-09-01T14:16:59Z</time>
      </trkpt>
      <trkpt lat="45.68317" lon="5.79935">
        <ele>404</ele>
        <time>2018-09-01T14:16:59Z</time>
      </trkpt>
      <trkpt lat="45.68322" lon="5.79941">
        <ele>404</ele>
        <time>2018-09-01T14:17:15Z</time>
      </trkpt>
      <trkpt lat="45.68327" lon="5.79946">
        <ele>404</ele>
        <time>2018-09-01T14:17:15Z</time>
      </trkpt>
      <trkpt lat="45.68332" lon="5.79948">
        <ele>404</ele>
        <time>2018-09-01T14:17:15Z</time>
      </trkpt>
      <trkpt lat="45.68337" lon="5.79952">
        <ele>404</ele>
        <time>2018-09-01T14:17:15Z</time>
      </trkpt>
      <trkpt lat="45.68343" lon="5.79956">
        <ele>404</ele>
        <time>2018-09-01T14:17:31Z</time>
      </trkpt>
      <trkpt lat="45.68348" lon="5.7996">
        <ele>402</ele>
        <time>2018-09-01T14:17:31Z</time>
      </trkpt>
      <trkpt lat="45.68352" lon="5.79964">
        <ele>402</ele>
        <time>2018-09-01T14:17:31Z</time>
      </trkpt>
      <trkpt lat="45.68357" lon="5.79969">
        <ele>402</ele>
        <time>2018-09-01T14:17:31Z</time>
      </trkpt>
      <trkpt lat="45.68359" lon="5.79975">
        <ele>402</ele>
        <time>2018-09-01T14:17:47Z</time>
      </trkpt>
      <trkpt lat="45.68362" lon="5.79981">
        <ele>402</ele>
        <time>2018-09-01T14:17:47Z</time>
      </trkpt>
      <trkpt lat="45.68365" lon="5.79987">
        <ele>402</ele>
        <time>2018-09-01T14:17:47Z</time>
      </trkpt>
      <trkpt lat="45.68369" lon="5.79994">
        <ele>402</ele>
        <time>2018-09-01T14:17:47Z</time>
      </trkpt>
      <trkpt lat="45.68372" lon="5.8">
        <ele>402</ele>
        <time>2018-09-01T14:18:03Z</time>
      </trkpt>
      <trkpt lat="45.68375" lon="5.80006">
        <ele>398</ele>
        <time>2018-09-01T14:18:03Z</time>
      </trkpt>
      <trkpt lat="45.68378" lon="5.80012">
        <ele>398</ele>
        <time>2018-09-01T14:18:03Z</time>
      </trkpt>
      <trkpt lat="45.68382" lon="5.80018">
        <ele>398</ele>
        <time>2018-09-01T14:18:03Z</time>
      </trkpt>
      <trkpt lat="45.68384" lon="5.80018">
        <ele>398</ele>
        <time>2018-09-01T14:18:19Z</time>
      </trkpt>
      <trkpt lat="45.68387" lon="5.80023">
        <ele>398</ele>
        <time>2018-09-01T14:18:19Z</time>
      </trkpt>
      <trkpt lat="45.68391" lon="5.80029">
        <ele>398</ele>
        <time>2018-09-01T14:18:19Z</time>
      </trkpt>
      <trkpt lat="45.68395" lon="5.80036">
        <ele>398</ele>
        <time>2018-09-01T14:18:19Z</time>
      </trkpt>
      <trkpt lat="45.68398" lon="5.80042">
        <ele>399</ele>
        <time>2018-09-01T14:18:35Z</time>
      </trkpt>
      <trkpt lat="45.684" lon="5.80049">
        <ele>399</ele>
        <time>2018-09-01T14:18:35Z</time>
      </trkpt>
      <trkpt lat="45.68403" lon="5.80055">
        <ele>399</ele>
        <time>2018-09-01T14:18:35Z</time>
      </trkpt>
      <trkpt lat="45.68406" lon="5.80062">
        <ele>399</ele>
        <time>2018-09-01T14:18:35Z</time>
      </trkpt>
      <trkpt lat="45.68409" lon="5.80069">
        <ele>399</ele>
        <time>2018-09-01T14:18:51Z</time>
      </trkpt>
      <trkpt lat="45.68412" lon="5.80076">
        <ele>399</ele>
        <time>2018-09-01T14:18:51Z</time>
      </trkpt>
      <trkpt lat="45.68415" lon="5.80083">
        <ele>399</ele>
        <time>2018-09-01T14:18:51Z</time>
      </trkpt>
      <trkpt lat="45.68418" lon="5.8009">
        <ele>399</ele>
        <time>2018-09-01T14:18:51Z</time>
      </trkpt>
      <trkpt lat="45.68421" lon="5.80096">
        <ele>399</ele>
        <time>2018-09-01T14:19:07Z</time>
      </trkpt>
      <trkpt lat="45.68424" lon="5.80103">
        <ele>399</ele>
        <time>2018-09-01T14:19:07Z</time>
      </trkpt>
      <trkpt lat="45.68427" lon="5.80109">
        <ele>399</ele>
        <time>2018-09-01T14:19:07Z</time>
      </trkpt>
      <trkpt lat="45.68431" lon="5.80115">
        <ele>399</ele>
        <time>2018-09-01T14:19:07Z</time>
      </trkpt>
      <trkpt lat="45.68435" lon="5.8012">
        <ele>399</ele>
        <time>2018-09-01T14:19:23Z</time>
      </trkpt>
      <trkpt lat="45.68439" lon="5.80126">
        <ele>398</ele>
        <time>2018-09-01T14:19:23Z</time>
      </trkpt>
      <trkpt lat="45.68444" lon="5.8013">
        <ele>398</ele>
        <time>2018-09-01T14:19:23Z</time>
      </trkpt>
      <trkpt lat="45.68448" lon="5.80134">
        <ele>398</ele>
        <time>2018-09-01T14:19:23Z</time>
      </trkpt>
      <trkpt lat="45.68452" lon="5.8014">
        <ele>398</ele>
        <time>2018-09-01T14:19:39Z</time>
      </trkpt>
      <trkpt lat="45.68456" lon="5.80146">
        <ele>398</ele>
        <time>2018-09-01T14:19:39Z</time>
      </trkpt>
      <trkpt lat="45.6846" lon="5.80152">
        <ele>394</ele>
        <time>2018-09-01T14:19:39Z</time>
      </trkpt>
      <trkpt lat="45.68464" lon="5.80158">
        <ele>394</ele>
        <time>2018-09-01T14:19:39Z</time>
      </trkpt>
      <trkpt lat="45.68467" lon="5.80164">
        <ele>394</ele>
        <time>2018-09-01T14:19:55Z</time>
      </trkpt>
      <trkpt lat="45.68472" lon="5.80169">
        <ele>394</ele>
        <time>2018-09-01T14:19:55Z</time>
      </trkpt>
      <trkpt lat="45.68477" lon="5.80173">
        <ele>394</ele>
        <time>2018-09-01T14:19:55Z</time>
      </trkpt>
      <trkpt lat="45.68481" lon="5.80178">
        <ele>394</ele>
        <time>2018-09-01T14:19:55Z</time>
      </trkpt>
      <trkpt lat="45.68486" lon="5.80183">
        <ele>394</ele>
        <time>2018-09-01T14:20:11Z</time>
      </trkpt>
      <trkpt lat="45.68489" lon="5.8019">
        <ele>394</ele>
        <time>2018-09-01T14:20:11Z</time>
      </trkpt>
      <trkpt lat="45.68492" lon="5.80198">
        <ele>394</ele>
        <time>2018-09-01T14:20:11Z</time>
      </trkpt>
      <trkpt lat="45.68495" lon="5.80204">
        <ele>394</ele>
        <time>2018-09-01T14:20:11Z</time>
      </trkpt>
      <trkpt lat="45.68498" lon="5.80209">
        <ele>395</ele>
        <time>2018-09-01T14:20:27Z</time>
      </trkpt>
      <trkpt lat="45.68502" lon="5.80213">
        <ele>395</ele>
        <time>2018-09-01T14:20:27Z</time>
      </trkpt>
      <trkpt lat="45.68505" lon="5.80217">
        <ele>395</ele>
        <time>2018-09-01T14:20:27Z</time>
      </trkpt>
      <trkpt lat="45.68508" lon="5.80223">
        <ele>395</ele>
        <time>2018-09-01T14:20:27Z</time>
      </trkpt>
      <trkpt lat="45.68512" lon="5.80229">
        <ele>395</ele>
        <time>2018-09-01T14:20:43Z</time>
      </trkpt>
      <trkpt lat="45.68516" lon="5.80235">
        <ele>395</ele>
        <time>2018-09-01T14:20:43Z</time>
      </trkpt>
      <trkpt lat="45.68519" lon="5.8024">
        <ele>395</ele>
        <time>2018-09-01T14:20:43Z</time>
      </trkpt>
      <trkpt lat="45.68523" lon="5.80245">
        <ele>395</ele>
        <time>2018-09-01T14:20:43Z</time>
      </trkpt>
      <trkpt lat="45.68526" lon="5.80249">
        <ele>395</ele>
        <time>2018-09-01T14:20:59Z</time>
      </trkpt>
      <trkpt lat="45.68529" lon="5.80252">
        <ele>395</ele>
        <time>2018-09-01T14:20:59Z</time>
      </trkpt>
      <trkpt lat="45.68532" lon="5.80258">
        <ele>395</ele>
        <time>2018-09-01T14:20:59Z</time>
      </trkpt>
      <trkpt lat="45.68537" lon="5.80263">
        <ele>395</ele>
        <time>2018-09-01T14:20:59Z</time>
      </trkpt>
      <trkpt lat="45.6854" lon="5.80269">
        <ele>395</ele>
        <time>2018-09-01T14:21:15Z</time>
      </trkpt>
      <trkpt lat="45.68544" lon="5.80274">
        <ele>388</ele>
        <time>2018-09-01T14:21:15Z</time>
      </trkpt>
      <trkpt lat="45.68549" lon="5.8028">
        <ele>388</ele>
        <time>2018-09-01T14:21:15Z</time>
      </trkpt>
      <trkpt lat="45.68553" lon="5.80287">
        <ele>388</ele>
        <time>2018-09-01T14:21:15Z</time>
      </trkpt>
      <trkpt lat="45.68557" lon="5.80293">
        <ele>389</ele>
        <time>2018-09-01T14:21:31Z</time>
      </trkpt>
      <trkpt lat="45.6856" lon="5.803">
        <ele>389</ele>
        <time>2018-09-01T14:21:31Z</time>
      </trkpt>
      <trkpt lat="45.68563" lon="5.80305">
        <ele>389</ele>
        <time>2018-09-01T14:21:31Z</time>
      </trkpt>
      <trkpt lat="45.68566" lon="5.80309">
        <ele>389</ele>
        <time>2018-09-01T14:21:31Z</time>
      </trkpt>
      <trkpt lat="45.68569" lon="5.80305">
        <ele>389</ele>
        <time>2018-09-01T14:21:47Z</time>
      </trkpt>
      <trkpt lat="45.6857" lon="5.80297">
        <ele>389</ele>
        <time>2018-09-01T14:21:47Z</time>
      </trkpt>
      <trkpt lat="45.68572" lon="5.80291">
        <ele>388</ele>
        <time>2018-09-01T14:21:47Z</time>
      </trkpt>
      <trkpt lat="45.68576" lon="5.80288">
        <ele>388</ele>
        <time>2018-09-01T14:21:47Z</time>
      </trkpt>
      <trkpt lat="45.68582" lon="5.80288">
        <ele>388</ele>
        <time>2018-09-01T14:22:03Z</time>
      </trkpt>
      <trkpt lat="45.68587" lon="5.8029">
        <ele>388</ele>
        <time>2018-09-01T14:22:03Z</time>
      </trkpt>
      <trkpt lat="45.6859" lon="5.80293">
        <ele>389</ele>
        <time>2018-09-01T14:22:03Z</time>
      </trkpt>
      <trkpt lat="45.68593" lon="5.80299">
        <ele>389</ele>
        <time>2018-09-01T14:22:03Z</time>
      </trkpt>
      <trkpt lat="45.68597" lon="5.80306">
        <ele>389</ele>
        <time>2018-09-01T14:22:19Z</time>
      </trkpt>
      <trkpt lat="45.686" lon="5.80313">
        <ele>389</ele>
        <time>2018-09-01T14:22:19Z</time>
      </trkpt>
      <trkpt lat="45.68604" lon="5.8032">
        <ele>389</ele>
        <time>2018-09-01T14:22:19Z</time>
      </trkpt>
      <trkpt lat="45.68605" lon="5.80328">
        <ele>389</ele>
        <time>2018-09-01T14:22:19Z</time>
      </trkpt>
      <trkpt lat="45.68606" lon="5.80335">
        <ele>389</ele>
        <time>2018-09-01T14:22:35Z</time>
      </trkpt>
      <trkpt lat="45.6861" lon="5.80342">
        <ele>389</ele>
        <time>2018-09-01T14:22:35Z</time>
      </trkpt>
      <trkpt lat="45.68614" lon="5.80347">
        <ele>389</ele>
        <time>2018-09-01T14:22:35Z</time>
      </trkpt>
      <trkpt lat="45.68618" lon="5.80351">
        <ele>389</ele>
        <time>2018-09-01T14:22:35Z</time>
      </trkpt>
      <trkpt lat="45.68623" lon="5.80351">
        <ele>389</ele>
        <time>2018-09-01T14:22:51Z</time>
      </trkpt>
      <trkpt lat="45.68629" lon="5.8035">
        <ele>375</ele>
        <time>2018-09-01T14:22:51Z</time>
      </trkpt>
      <trkpt lat="45.68635" lon="5.80349">
        <ele>375</ele>
        <time>2018-09-01T14:22:51Z</time>
      </trkpt>
      <trkpt lat="45.68641" lon="5.80346">
        <ele>375</ele>
        <time>2018-09-01T14:22:51Z</time>
      </trkpt>
      <trkpt lat="45.68646" lon="5.80343">
        <ele>375</ele>
        <time>2018-09-01T14:23:07Z</time>
      </trkpt>
      <trkpt lat="45.68652" lon="5.80341">
        <ele>375</ele>
        <time>2018-09-01T14:23:07Z</time>
      </trkpt>
      <trkpt lat="45.68657" lon="5.8034">
        <ele>375</ele>
        <time>2018-09-01T14:23:07Z</time>
      </trkpt>
      <trkpt lat="45.68663" lon="5.8034">
        <ele>375</ele>
        <time>2018-09-01T14:23:07Z</time>
      </trkpt>
      <trkpt lat="45.68668" lon="5.80337">
        <ele>375</ele>
        <time>2018-09-01T14:23:23Z</time>
      </trkpt>
      <trkpt lat="45.68673" lon="5.80334">
        <ele>375</ele>
        <time>2018-09-01T14:23:23Z</time>
      </trkpt>
      <trkpt lat="45.68677" lon="5.8033">
        <ele>375</ele>
        <time>2018-09-01T14:23:23Z</time>
      </trkpt>
      <trkpt lat="45.68681" lon="5.80327">
        <ele>375</ele>
        <time>2018-09-01T14:23:23Z</time>
      </trkpt>
      <trkpt lat="45.68685" lon="5.80324">
        <ele>375</ele>
        <time>2018-09-01T14:23:39Z</time>
      </trkpt>
      <trkpt lat="45.6869" lon="5.80321">
        <ele>375</ele>
        <time>2018-09-01T14:23:39Z</time>
      </trkpt>
      <trkpt lat="45.68696" lon="5.80318">
        <ele>375</ele>
        <time>2018-09-01T14:23:39Z</time>
      </trkpt>
      <trkpt lat="45.68702" lon="5.80316">
        <ele>375</ele>
        <time>2018-09-01T14:23:39Z</time>
      </trkpt>
      <trkpt lat="45.68708" lon="5.80314">
        <ele>375</ele>
        <time>2018-09-01T14:23:55Z</time>
      </trkpt>
      <trkpt lat="45.68714" lon="5.80312">
        <ele>373</ele>
        <time>2018-09-01T14:23:55Z</time>
      </trkpt>
      <trkpt lat="45.68719" lon="5.80309">
        <ele>373</ele>
        <time>2018-09-01T14:23:55Z</time>
      </trkpt>
      <trkpt lat="45.68725" lon="5.80308">
        <ele>373</ele>
        <time>2018-09-01T14:23:55Z</time>
      </trkpt>
      <trkpt lat="45.68731" lon="5.80306">
        <ele>373</ele>
        <time>2018-09-01T14:24:11Z</time>
      </trkpt>
      <trkpt lat="45.68737" lon="5.80305">
        <ele>373</ele>
        <time>2018-09-01T14:24:11Z</time>
      </trkpt>
      <trkpt lat="45.68743" lon="5.80307">
        <ele>373</ele>
        <time>2018-09-01T14:24:11Z</time>
      </trkpt>
      <trkpt lat="45.68748" lon="5.80306">
        <ele>373</ele>
        <time>2018-09-01T14:24:11Z</time>
      </trkpt>
      <trkpt lat="45.68752" lon="5.80305">
        <ele>373</ele>
        <time>2018-09-01T14:24:27Z</time>
      </trkpt>
      <trkpt lat="45.68756" lon="5.80304">
        <ele>373</ele>
        <time>2018-09-01T14:24:27Z</time>
      </trkpt>
      <trkpt lat="45.68761" lon="5.80304">
        <ele>373</ele>
        <time>2018-09-01T14:24:27Z</time>
      </trkpt>
      <trkpt lat="45.68766" lon="5.80304">
        <ele>373</ele>
        <time>2018-09-01T14:24:27Z</time>
      </trkpt>
      <trkpt lat="45.68771" lon="5.80304">
        <ele>373</ele>
        <time>2018-09-01T14:24:43Z</time>
      </trkpt>
      <trkpt lat="45.68776" lon="5.80304">
        <ele>373</ele>
        <time>2018-09-01T14:24:43Z</time>
      </trkpt>
      <trkpt lat="45.68782" lon="5.80304">
        <ele>373</ele>
        <time>2018-09-01T14:24:43Z</time>
      </trkpt>
      <trkpt lat="45.68787" lon="5.80305">
        <ele>373</ele>
        <time>2018-09-01T14:24:43Z</time>
      </trkpt>
      <trkpt lat="45.68793" lon="5.80305">
        <ele>370</ele>
        <time>2018-09-01T14:24:59Z</time>
      </trkpt>
      <trkpt lat="45.68798" lon="5.80306">
        <ele>370</ele>
        <time>2018-09-01T14:24:59Z</time>
      </trkpt>
      <trkpt lat="45.68803" lon="5.80308">
        <ele>370</ele>
        <time>2018-09-01T14:24:59Z</time>
      </trkpt>
      <trkpt lat="45.68808" lon="5.80311">
        <ele>370</ele>
        <time>2018-09-01T14:24:59Z</time>
      </trkpt>
      <trkpt lat="45.68813" lon="5.80313">
        <ele>370</ele>
        <time>2018-09-01T14:25:15Z</time>
      </trkpt>
      <trkpt lat="45.68817" lon="5.80315">
        <ele>370</ele>
        <time>2018-09-01T14:25:15Z</time>
      </trkpt>
      <trkpt lat="45.68821" lon="5.80316">
        <ele>370</ele>
        <time>2018-09-01T14:25:15Z</time>
      </trkpt>
      <trkpt lat="45.68825" lon="5.80317">
        <ele>370</ele>
        <time>2018-09-01T14:25:15Z</time>
      </trkpt>
      <trkpt lat="45.68829" lon="5.80321">
        <ele>370</ele>
        <time>2018-09-01T14:25:31Z</time>
      </trkpt>
      <trkpt lat="45.68836" lon="5.80323">
        <ele>370</ele>
        <time>2018-09-01T14:25:31Z</time>
      </trkpt>
      <trkpt lat="45.68841" lon="5.80323">
        <ele>370</ele>
        <time>2018-09-01T14:25:31Z</time>
      </trkpt>
      <trkpt lat="45.68845" lon="5.80324">
        <ele>370</ele>
        <time>2018-09-01T14:25:31Z</time>
      </trkpt>
      <trkpt lat="45.6885" lon="5.8033">
        <ele>370</ele>
        <time>2018-09-01T14:26:11Z</time>
      </trkpt>
      <trkpt lat="45.68851" lon="5.8033">
        <ele>370</ele>
        <time>2018-09-01T14:26:11Z</time>
      </trkpt>
      <trkpt lat="45.68856" lon="5.80331">
        <ele>370</ele>
        <time>2018-09-01T14:26:11Z</time>
      </trkpt>
      <trkpt lat="45.6886" lon="5.80334">
        <ele>370</ele>
        <time>2018-09-01T14:26:11Z</time>
      </trkpt>
      <trkpt lat="45.68864" lon="5.80338">
        <ele>370</ele>
        <time>2018-09-01T14:26:11Z</time>
      </trkpt>
      <trkpt lat="45.68864" lon="5.80338">
        <ele>370</ele>
        <time>2018-09-01T14:26:27Z</time>
      </trkpt>
      <trkpt lat="45.68866" lon="5.8034">
        <ele>370</ele>
        <time>2018-09-01T14:26:27Z</time>
      </trkpt>
      <trkpt lat="45.68871" lon="5.80342">
        <ele>370</ele>
        <time>2018-09-01T14:26:27Z</time>
      </trkpt>
      <trkpt lat="45.68875" lon="5.80343">
        <ele>370</ele>
        <time>2018-09-01T14:26:27Z</time>
      </trkpt>
      <trkpt lat="45.68879" lon="5.80345">
        <ele>363</ele>
        <time>2018-09-01T14:26:43Z</time>
      </trkpt>
      <trkpt lat="45.68884" lon="5.80348">
        <ele>363</ele>
        <time>2018-09-01T14:26:43Z</time>
      </trkpt>
      <trkpt lat="45.68888" lon="5.80351">
        <ele>363</ele>
        <time>2018-09-01T14:26:43Z</time>
      </trkpt>
      <trkpt lat="45.68893" lon="5.80354">
        <ele>363</ele>
        <time>2018-09-01T14:26:43Z</time>
      </trkpt>
      <trkpt lat="45.68911" lon="5.80369">
        <ele>363</ele>
        <time>2018-09-01T14:27:31Z</time>
      </trkpt>
      <trkpt lat="45.68911" lon="5.80369">
        <ele>363</ele>
        <time>2018-09-01T14:27:31Z</time>
      </trkpt>
      <trkpt lat="45.68912" lon="5.8037">
        <ele>363</ele>
        <time>2018-09-01T14:27:31Z</time>
      </trkpt>
      <trkpt lat="45.68912" lon="5.8037">
        <ele>363</ele>
        <time>2018-09-01T14:27:31Z</time>
      </trkpt>
      <trkpt lat="45.68912" lon="5.8037">
        <ele>363</ele>
        <time>2018-09-01T14:27:31Z</time>
      </trkpt>
      <trkpt lat="45.68914" lon="5.80371">
        <ele>363</ele>
        <time>2018-09-01T14:28:23Z</time>
      </trkpt>
      <trkpt lat="45.68915" lon="5.80371">
        <ele>363</ele>
        <time>2018-09-01T14:28:23Z</time>
      </trkpt>
      <trkpt lat="45.68916" lon="5.80371">
        <ele>363</ele>
        <time>2018-09-01T14:28:23Z</time>
      </trkpt>
      <trkpt lat="45.68919" lon="5.80372">
        <ele>363</ele>
        <time>2018-09-01T14:28:23Z</time>
      </trkpt>
      <trkpt lat="45.68923" lon="5.80373">
        <ele>363</ele>
        <time>2018-09-01T14:28:23Z</time>
      </trkpt>
      <trkpt lat="45.68927" lon="5.80376">
        <ele>357</ele>
        <time>2018-09-01T14:28:39Z</time>
      </trkpt>
      <trkpt lat="45.68931" lon="5.80378">
        <ele>357</ele>
        <time>2018-09-01T14:28:39Z</time>
      </trkpt>
      <trkpt lat="45.68936" lon="5.8038">
        <ele>357</ele>
        <time>2018-09-01T14:28:39Z</time>
      </trkpt>
      <trkpt lat="45.6894" lon="5.80381">
        <ele>357</ele>
        <time>2018-09-01T14:28:39Z</time>
      </trkpt>
      <trkpt lat="45.68945" lon="5.80383">
        <ele>357</ele>
        <time>2018-09-01T14:28:55Z</time>
      </trkpt>
      <trkpt lat="45.6895" lon="5.80385">
        <ele>357</ele>
        <time>2018-09-01T14:28:55Z</time>
      </trkpt>
      <trkpt lat="45.68955" lon="5.80387">
        <ele>357</ele>
        <time>2018-09-01T14:28:55Z</time>
      </trkpt>
      <trkpt lat="45.68961" lon="5.80389">
        <ele>348</ele>
        <time>2018-09-01T14:28:55Z</time>
      </trkpt>
      <trkpt lat="45.68967" lon="5.8039">
        <ele>348</ele>
        <time>2018-09-01T14:29:11Z</time>
      </trkpt>
      <trkpt lat="45.68972" lon="5.80391">
        <ele>348</ele>
        <time>2018-09-01T14:29:11Z</time>
      </trkpt>
      <trkpt lat="45.68977" lon="5.80392">
        <ele>348</ele>
        <time>2018-09-01T14:29:11Z</time>
      </trkpt>
      <trkpt lat="45.68982" lon="5.80393">
        <ele>348</ele>
        <time>2018-09-01T14:29:11Z</time>
      </trkpt>
      <trkpt lat="45.68987" lon="5.80394">
        <ele>348</ele>
        <time>2018-09-01T14:29:27Z</time>
      </trkpt>
      <trkpt lat="45.68992" lon="5.80397">
        <ele>348</ele>
        <time>2018-09-01T14:29:27Z</time>
      </trkpt>
      <trkpt lat="45.68996" lon="5.80399">
        <ele>348</ele>
        <time>2018-09-01T14:29:27Z</time>
      </trkpt>
      <trkpt lat="45.69" lon="5.80401">
        <ele>348</ele>
        <time>2018-09-01T14:29:27Z</time>
      </trkpt>
      <trkpt lat="45.69004" lon="5.80402">
        <ele>348</ele>
        <time>2018-09-01T14:29:43Z</time>
      </trkpt>
      <trkpt lat="45.69009" lon="5.80405">
        <ele>348</ele>
        <time>2018-09-01T14:29:43Z</time>
      </trkpt>
      <trkpt lat="45.69013" lon="5.80408">
        <ele>348</ele>
        <time>2018-09-01T14:29:43Z</time>
      </trkpt>
      <trkpt lat="45.69018" lon="5.8041">
        <ele>348</ele>
        <time>2018-09-01T14:29:43Z</time>
      </trkpt>
      <trkpt lat="45.69023" lon="5.80412">
        <ele>348</ele>
        <time>2018-09-01T14:29:59Z</time>
      </trkpt>
      <trkpt lat="45.69028" lon="5.80416">
        <ele>348</ele>
        <time>2018-09-01T14:29:59Z</time>
      </trkpt>
      <trkpt lat="45.69033" lon="5.80419">
        <ele>348</ele>
        <time>2018-09-01T14:29:59Z</time>
      </trkpt>
      <trkpt lat="45.69038" lon="5.80423">
        <ele>348</ele>
        <time>2018-09-01T14:29:59Z</time>
      </trkpt>
      <trkpt lat="45.69043" lon="5.80426">
        <ele>337</ele>
        <time>2018-09-01T14:30:15Z</time>
      </trkpt>
      <trkpt lat="45.69048" lon="5.80427">
        <ele>337</ele>
        <time>2018-09-01T14:30:15Z</time>
      </trkpt>
      <trkpt lat="45.69054" lon="5.80427">
        <ele>337</ele>
        <time>2018-09-01T14:30:15Z</time>
      </trkpt>
      <trkpt lat="45.69059" lon="5.80425">
        <ele>337</ele>
        <time>2018-09-01T14:30:15Z</time>
      </trkpt>
      <trkpt lat="45.69064" lon="5.80422">
        <ele>337</ele>
        <time>2018-09-01T14:30:31Z</time>
      </trkpt>
      <trkpt lat="45.69068" lon="5.80417">
        <ele>337</ele>
        <time>2018-09-01T14:30:31Z</time>
      </trkpt>
      <trkpt lat="45.69072" lon="5.80413">
        <ele>337</ele>
        <time>2018-09-01T14:30:31Z</time>
      </trkpt>
      <trkpt lat="45.69076" lon="5.80423">
        <ele>337</ele>
        <time>2018-09-01T14:30:31Z</time>
      </trkpt>
      <trkpt lat="45.69079" lon="5.80453">
        <ele>337</ele>
        <time>2018-09-01T14:30:47Z</time>
      </trkpt>
      <trkpt lat="45.69082" lon="5.80485">
        <ele>338</ele>
        <time>2018-09-01T14:30:47Z</time>
      </trkpt>
      <trkpt lat="45.69083" lon="5.80521">
        <ele>338</ele>
        <time>2018-09-01T14:30:47Z</time>
      </trkpt>
      <trkpt lat="45.69085" lon="5.80556">
        <ele>339</ele>
        <time>2018-09-01T14:30:47Z</time>
      </trkpt>
      <trkpt lat="45.69086" lon="5.80592">
        <ele>339</ele>
        <time>2018-09-01T14:31:03Z</time>
      </trkpt>
      <trkpt lat="45.69093" lon="5.80627">
        <ele>342</ele>
        <time>2018-09-01T14:31:03Z</time>
      </trkpt>
      <trkpt lat="45.691" lon="5.80667">
        <ele>342</ele>
        <time>2018-09-01T14:31:03Z</time>
      </trkpt>
      <trkpt lat="45.691" lon="5.807">
        <ele>342</ele>
        <time>2018-09-01T14:31:03Z</time>
      </trkpt>
      <trkpt lat="45.69099" lon="5.80727">
        <ele>344</ele>
        <time>2018-09-01T14:31:19Z</time>
      </trkpt>
      <trkpt lat="45.69095" lon="5.80744">
        <ele>344</ele>
        <time>2018-09-01T14:31:19Z</time>
      </trkpt>
      <trkpt lat="45.69092" lon="5.80753">
        <ele>344</ele>
        <time>2018-09-01T14:31:19Z</time>
      </trkpt>
      <trkpt lat="45.69091" lon="5.80761">
        <ele>344</ele>
        <time>2018-09-01T14:31:19Z</time>
      </trkpt>
      <trkpt lat="45.69087" lon="5.80769">
        <ele>344</ele>
        <time>2018-09-01T14:31:35Z</time>
      </trkpt>
      <trkpt lat="45.69084" lon="5.80775">
        <ele>344</ele>
        <time>2018-09-01T14:31:35Z</time>
      </trkpt>
      <trkpt lat="45.6908" lon="5.8078">
        <ele>344</ele>
        <time>2018-09-01T14:31:35Z</time>
      </trkpt>
      <trkpt lat="45.69077" lon="5.80785">
        <ele>344</ele>
        <time>2018-09-01T14:31:35Z</time>
      </trkpt>
      <trkpt lat="45.69074" lon="5.8079">
        <ele>344</ele>
        <time>2018-09-01T14:31:51Z</time>
      </trkpt>
      <trkpt lat="45.6907" lon="5.80797">
        <ele>340</ele>
        <time>2018-09-01T14:31:51Z</time>
      </trkpt>
      <trkpt lat="45.69066" lon="5.80803">
        <ele>340</ele>
        <time>2018-09-01T14:31:51Z</time>
      </trkpt>
      <trkpt lat="45.69062" lon="5.80808">
        <ele>340</ele>
        <time>2018-09-01T14:31:51Z</time>
      </trkpt>
      <trkpt lat="45.69058" lon="5.80814">
        <ele>340</ele>
        <time>2018-09-01T14:32:07Z</time>
      </trkpt>
      <trkpt lat="45.69055" lon="5.80818">
        <ele>340</ele>
        <time>2018-09-01T14:32:07Z</time>
      </trkpt>
      <trkpt lat="45.69051" lon="5.80823">
        <ele>340</ele>
        <time>2018-09-01T14:32:07Z</time>
      </trkpt>
      <trkpt lat="45.69048" lon="5.80829">
        <ele>340</ele>
        <time>2018-09-01T14:32:07Z</time>
      </trkpt>
      <trkpt lat="45.69044" lon="5.80836">
        <ele>340</ele>
        <time>2018-09-01T14:32:23Z</time>
      </trkpt>
      <trkpt lat="45.69041" lon="5.80842">
        <ele>335</ele>
        <time>2018-09-01T14:32:23Z</time>
      </trkpt>
      <trkpt lat="45.69038" lon="5.80849">
        <ele>335</ele>
        <time>2018-09-01T14:32:23Z</time>
      </trkpt>
      <trkpt lat="45.69036" lon="5.80855">
        <ele>335</ele>
        <time>2018-09-01T14:32:23Z</time>
      </trkpt>
      <trkpt lat="45.69034" lon="5.80861">
        <ele>335</ele>
        <time>2018-09-01T14:32:39Z</time>
      </trkpt>
      <trkpt lat="45.69032" lon="5.80866">
        <ele>335</ele>
        <time>2018-09-01T14:32:39Z</time>
      </trkpt>
      <trkpt lat="45.69031" lon="5.80872">
        <ele>335</ele>
        <time>2018-09-01T14:32:39Z</time>
      </trkpt>
      <trkpt lat="45.6903" lon="5.80878">
        <ele>327</ele>
        <time>2018-09-01T14:32:39Z</time>
      </trkpt>
      <trkpt lat="45.69032" lon="5.80884">
        <ele>327</ele>
        <time>2018-09-01T14:32:55Z</time>
      </trkpt>
      <trkpt lat="45.69033" lon="5.8089">
        <ele>327</ele>
        <time>2018-09-01T14:32:55Z</time>
      </trkpt>
      <trkpt lat="45.69034" lon="5.80896">
        <ele>327</ele>
        <time>2018-09-01T14:32:55Z</time>
      </trkpt>
      <trkpt lat="45.69036" lon="5.80903">
        <ele>327</ele>
        <time>2018-09-01T14:32:55Z</time>
      </trkpt>
      <trkpt lat="45.69039" lon="5.80909">
        <ele>327</ele>
        <time>2018-09-01T14:33:11Z</time>
      </trkpt>
      <trkpt lat="45.69042" lon="5.80913">
        <ele>332</ele>
        <time>2018-09-01T14:33:11Z</time>
      </trkpt>
      <trkpt lat="45.69045" lon="5.80918">
        <ele>332</ele>
        <time>2018-09-01T14:33:11Z</time>
      </trkpt>
      <trkpt lat="45.69047" lon="5.80924">
        <ele>332</ele>
        <time>2018-09-01T14:33:11Z</time>
      </trkpt>
      <trkpt lat="45.69049" lon="5.8093">
        <ele>332</ele>
        <time>2018-09-01T14:33:27Z</time>
      </trkpt>
      <trkpt lat="45.6905" lon="5.80936">
        <ele>332</ele>
        <time>2018-09-01T14:33:27Z</time>
      </trkpt>
      <trkpt lat="45.69052" lon="5.80942">
        <ele>332</ele>
        <time>2018-09-01T14:33:27Z</time>
      </trkpt>
      <trkpt lat="45.69053" lon="5.80949">
        <ele>332</ele>
        <time>2018-09-01T14:33:27Z</time>
      </trkpt>
      <trkpt lat="45.69055" lon="5.80955">
        <ele>332</ele>
        <time>2018-09-01T14:33:43Z</time>
      </trkpt>
      <trkpt lat="45.69056" lon="5.80962">
        <ele>326</ele>
        <time>2018-09-01T14:33:43Z</time>
      </trkpt>
      <trkpt lat="45.69057" lon="5.80969">
        <ele>326</ele>
        <time>2018-09-01T14:33:43Z</time>
      </trkpt>
      <trkpt lat="45.69059" lon="5.80975">
        <ele>326</ele>
        <time>2018-09-01T14:33:43Z</time>
      </trkpt>
      <trkpt lat="45.6906" lon="5.80982">
        <ele>326</ele>
        <time>2018-09-01T14:33:59Z</time>
      </trkpt>
      <trkpt lat="45.69062" lon="5.80988">
        <ele>326</ele>
        <time>2018-09-01T14:33:59Z</time>
      </trkpt>
      <trkpt lat="45.69062" lon="5.80996">
        <ele>326</ele>
        <time>2018-09-01T14:33:59Z</time>
      </trkpt>
      <trkpt lat="45.69063" lon="5.81003">
        <ele>326</ele>
        <time>2018-09-01T14:33:59Z</time>
      </trkpt>
      <trkpt lat="45.69064" lon="5.81011">
        <ele>326</ele>
        <time>2018-09-01T14:34:15Z</time>
      </trkpt>
      <trkpt lat="45.69064" lon="5.81019">
        <ele>326</ele>
        <time>2018-09-01T14:34:15Z</time>
      </trkpt>
      <trkpt lat="45.69066" lon="5.81027">
        <ele>326</ele>
        <time>2018-09-01T14:34:15Z</time>
      </trkpt>
      <trkpt lat="45.69067" lon="5.81035">
        <ele>326</ele>
        <time>2018-09-01T14:34:15Z</time>
      </trkpt>
      <trkpt lat="45.69066" lon="5.81043">
        <ele>322</ele>
        <time>2018-09-01T14:34:31Z</time>
      </trkpt>
      <trkpt lat="45.69065" lon="5.81051">
        <ele>322</ele>
        <time>2018-09-01T14:34:31Z</time>
      </trkpt>
      <trkpt lat="45.69063" lon="5.81059">
        <ele>322</ele>
        <time>2018-09-01T14:34:31Z</time>
      </trkpt>
      <trkpt lat="45.69061" lon="5.81065">
        <ele>322</ele>
        <time>2018-09-01T14:34:31Z</time>
      </trkpt>
      <trkpt lat="45.69058" lon="5.81073">
        <ele>322</ele>
        <time>2018-09-01T14:34:47Z</time>
      </trkpt>
      <trkpt lat="45.69054" lon="5.8108">
        <ele>322</ele>
        <time>2018-09-01T14:34:47Z</time>
      </trkpt>
      <trkpt lat="45.69052" lon="5.81087">
        <ele>322</ele>
        <time>2018-09-01T14:34:47Z</time>
      </trkpt>
      <trkpt lat="45.69049" lon="5.81093">
        <ele>322</ele>
        <time>2018-09-01T14:34:47Z</time>
      </trkpt>
      <trkpt lat="45.69047" lon="5.81098">
        <ele>322</ele>
        <time>2018-09-01T14:35:03Z</time>
      </trkpt>
      <trkpt lat="45.69044" lon="5.81104">
        <ele>322</ele>
        <time>2018-09-01T14:35:03Z</time>
      </trkpt>
      <trkpt lat="45.69041" lon="5.8111">
        <ele>319</ele>
        <time>2018-09-01T14:35:03Z</time>
      </trkpt>
      <trkpt lat="45.69038" lon="5.81116">
        <ele>319</ele>
        <time>2018-09-01T14:35:03Z</time>
      </trkpt>
      <trkpt lat="45.69034" lon="5.81121">
        <ele>319</ele>
        <time>2018-09-01T14:35:19Z</time>
      </trkpt>
      <trkpt lat="45.6903" lon="5.81126">
        <ele>319</ele>
        <time>2018-09-01T14:35:19Z</time>
      </trkpt>
      <trkpt lat="45.69027" lon="5.81133">
        <ele>319</ele>
        <time>2018-09-01T14:35:19Z</time>
      </trkpt>
      <trkpt lat="45.69024" lon="5.81139">
        <ele>319</ele>
        <time>2018-09-01T14:35:19Z</time>
      </trkpt>
      <trkpt lat="45.6902" lon="5.81146">
        <ele>319</ele>
        <time>2018-09-01T14:35:35Z</time>
      </trkpt>
      <trkpt lat="45.69016" lon="5.81153">
        <ele>319</ele>
        <time>2018-09-01T14:35:35Z</time>
      </trkpt>
      <trkpt lat="45.69013" lon="5.8116">
        <ele>319</ele>
        <time>2018-09-01T14:35:35Z</time>
      </trkpt>
      <trkpt lat="45.6901" lon="5.81165">
        <ele>319</ele>
        <time>2018-09-01T14:35:35Z</time>
      </trkpt>
      <trkpt lat="45.69007" lon="5.81172">
        <ele>319</ele>
        <time>2018-09-01T14:35:51Z</time>
      </trkpt>
      <trkpt lat="45.69003" lon="5.81178">
        <ele>319</ele>
        <time>2018-09-01T14:35:51Z</time>
      </trkpt>
      <trkpt lat="45.68999" lon="5.81185">
        <ele>319</ele>
        <time>2018-09-01T14:35:51Z</time>
      </trkpt>
      <trkpt lat="45.68995" lon="5.81191">
        <ele>319</ele>
        <time>2018-09-01T14:35:51Z</time>
      </trkpt>
      <trkpt lat="45.68992" lon="5.81197">
        <ele>319</ele>
        <time>2018-09-01T14:36:07Z</time>
      </trkpt>
      <trkpt lat="45.68988" lon="5.81202">
        <ele>319</ele>
        <time>2018-09-01T14:36:07Z</time>
      </trkpt>
      <trkpt lat="45.68985" lon="5.81207">
        <ele>319</ele>
        <time>2018-09-01T14:36:07Z</time>
      </trkpt>
      <trkpt lat="45.68982" lon="5.81212">
        <ele>319</ele>
        <time>2018-09-01T14:36:07Z</time>
      </trkpt>
      <trkpt lat="45.6898" lon="5.8122">
        <ele>319</ele>
        <time>2018-09-01T14:36:23Z</time>
      </trkpt>
      <trkpt lat="45.68979" lon="5.81227">
        <ele>319</ele>
        <time>2018-09-01T14:36:23Z</time>
      </trkpt>
      <trkpt lat="45.68979" lon="5.81236">
        <ele>319</ele>
        <time>2018-09-01T14:36:23Z</time>
      </trkpt>
      <trkpt lat="45.68979" lon="5.81245">
        <ele>319</ele>
        <time>2018-09-01T14:36:23Z</time>
      </trkpt>
      <trkpt lat="45.68978" lon="5.81253">
        <ele>319</ele>
        <time>2018-09-01T14:36:39Z</time>
      </trkpt>
      <trkpt lat="45.68977" lon="5.8126">
        <ele>319</ele>
        <time>2018-09-01T14:36:39Z</time>
      </trkpt>
      <trkpt lat="45.68976" lon="5.81267">
        <ele>319</ele>
        <time>2018-09-01T14:36:39Z</time>
      </trkpt>
      <trkpt lat="45.68976" lon="5.81275">
        <ele>319</ele>
        <time>2018-09-01T14:36:39Z</time>
      </trkpt>
      <trkpt lat="45.68975" lon="5.81281">
        <ele>319</ele>
        <time>2018-09-01T14:36:59Z</time>
      </trkpt>
      <trkpt lat="45.68974" lon="5.81288">
        <ele>319</ele>
        <time>2018-09-01T14:36:59Z</time>
      </trkpt>
      <trkpt lat="45.68973" lon="5.81291">
        <ele>319</ele>
        <time>2018-09-01T14:36:59Z</time>
      </trkpt>
      <trkpt lat="45.68973" lon="5.81293">
        <ele>319</ele>
        <time>2018-09-01T14:36:59Z</time>
      </trkpt>
      <trkpt lat="45.68972" lon="5.81296">
        <ele>319</ele>
        <time>2018-09-01T14:36:59Z</time>
      </trkpt>
      <trkpt lat="45.68971" lon="5.81302">
        <ele>319</ele>
        <time>2018-09-01T14:39:03Z</time>
      </trkpt>
      <trkpt lat="45.68973" lon="5.81303">
        <ele>319</ele>
        <time>2018-09-01T14:39:03Z</time>
      </trkpt>
      <trkpt lat="45.68974" lon="5.81308">
        <ele>319</ele>
        <time>2018-09-01T14:39:03Z</time>
      </trkpt>
      <trkpt lat="45.68971" lon="5.81311">
        <ele>319</ele>
        <time>2018-09-01T14:39:03Z</time>
      </trkpt>
      <trkpt lat="45.68967" lon="5.81314">
        <ele>319</ele>
        <time>2018-09-01T14:39:03Z</time>
      </trkpt>
      <trkpt lat="45.68966" lon="5.81319">
        <ele>319</ele>
        <time>2018-09-01T14:39:19Z</time>
      </trkpt>
      <trkpt lat="45.68966" lon="5.81323">
        <ele>319</ele>
        <time>2018-09-01T14:39:19Z</time>
      </trkpt>
      <trkpt lat="45.68965" lon="5.81327">
        <ele>319</ele>
        <time>2018-09-01T14:39:19Z</time>
      </trkpt>
      <trkpt lat="45.68963" lon="5.81333">
        <ele>319</ele>
        <time>2018-09-01T14:39:19Z</time>
      </trkpt>
      <trkpt lat="45.68962" lon="5.81342">
        <ele>319</ele>
        <time>2018-09-01T14:39:35Z</time>
      </trkpt>
      <trkpt lat="45.6896" lon="5.81349">
        <ele>319</ele>
        <time>2018-09-01T14:39:35Z</time>
      </trkpt>
      <trkpt lat="45.68958" lon="5.81355">
        <ele>322</ele>
        <time>2018-09-01T14:39:35Z</time>
      </trkpt>
      <trkpt lat="45.68957" lon="5.81355">
        <ele>322</ele>
        <time>2018-09-01T14:39:35Z</time>
      </trkpt>
      <trkpt lat="45.68956" lon="5.81357">
        <ele>322</ele>
        <time>2018-09-01T14:40:11Z</time>
      </trkpt>
      <trkpt lat="45.68955" lon="5.81358">
        <ele>322</ele>
        <time>2018-09-01T14:40:11Z</time>
      </trkpt>
      <trkpt lat="45.68955" lon="5.81359">
        <ele>322</ele>
        <time>2018-09-01T14:40:11Z</time>
      </trkpt>
      <trkpt lat="45.68955" lon="5.81364">
        <ele>322</ele>
        <time>2018-09-01T14:40:11Z</time>
      </trkpt>
      <trkpt lat="45.68954" lon="5.81368">
        <ele>322</ele>
        <time>2018-09-01T14:40:11Z</time>
      </trkpt>
      <trkpt lat="45.68954" lon="5.81369">
        <ele>322</ele>
        <time>2018-09-01T14:40:27Z</time>
      </trkpt>
      <trkpt lat="45.68954" lon="5.8137">
        <ele>322</ele>
        <time>2018-09-01T14:40:27Z</time>
      </trkpt>
      <trkpt lat="45.68953" lon="5.81378">
        <ele>320</ele>
        <time>2018-09-01T14:40:27Z</time>
      </trkpt>
      <trkpt lat="45.68951" lon="5.81386">
        <ele>320</ele>
        <time>2018-09-01T14:40:27Z</time>
      </trkpt>
      <trkpt lat="45.6895" lon="5.81392">
        <ele>320</ele>
        <time>2018-09-01T14:40:43Z</time>
      </trkpt>
      <trkpt lat="45.68949" lon="5.81399">
        <ele>320</ele>
        <time>2018-09-01T14:40:43Z</time>
      </trkpt>
      <trkpt lat="45.68948" lon="5.81407">
        <ele>320</ele>
        <time>2018-09-01T14:40:43Z</time>
      </trkpt>
      <trkpt lat="45.68947" lon="5.81415">
        <ele>320</ele>
        <time>2018-09-01T14:40:43Z</time>
      </trkpt>
      <trkpt lat="45.68945" lon="5.81423">
        <ele>320</ele>
        <time>2018-09-01T14:40:59Z</time>
      </trkpt>
      <trkpt lat="45.68942" lon="5.8143">
        <ele>320</ele>
        <time>2018-09-01T14:40:59Z</time>
      </trkpt>
      <trkpt lat="45.68942" lon="5.81436">
        <ele>320</ele>
        <time>2018-09-01T14:40:59Z</time>
      </trkpt>
      <trkpt lat="45.68941" lon="5.81443">
        <ele>320</ele>
        <time>2018-09-01T14:40:59Z</time>
      </trkpt>
      <trkpt lat="45.6894" lon="5.81448">
        <ele>320</ele>
        <time>2018-09-01T14:41:15Z</time>
      </trkpt>
      <trkpt lat="45.68939" lon="5.81452">
        <ele>320</ele>
        <time>2018-09-01T14:41:15Z</time>
      </trkpt>
      <trkpt lat="45.68936" lon="5.81457">
        <ele>320</ele>
        <time>2018-09-01T14:41:15Z</time>
      </trkpt>
      <trkpt lat="45.68932" lon="5.81462">
        <ele>319</ele>
        <time>2018-09-01T14:41:15Z</time>
      </trkpt>
      <trkpt lat="45.68928" lon="5.81468">
        <ele>319</ele>
        <time>2018-09-01T14:41:31Z</time>
      </trkpt>
      <trkpt lat="45.68924" lon="5.81474">
        <ele>319</ele>
        <time>2018-09-01T14:41:31Z</time>
      </trkpt>
      <trkpt lat="45.68919" lon="5.8148">
        <ele>319</ele>
        <time>2018-09-01T14:41:31Z</time>
      </trkpt>
      <trkpt lat="45.68913" lon="5.81488">
        <ele>319</ele>
        <time>2018-09-01T14:41:31Z</time>
      </trkpt>
      <trkpt lat="45.68908" lon="5.81493">
        <ele>319</ele>
        <time>2018-09-01T14:41:47Z</time>
      </trkpt>
      <trkpt lat="45.68904" lon="5.81498">
        <ele>319</ele>
        <time>2018-09-01T14:41:47Z</time>
      </trkpt>
      <trkpt lat="45.689" lon="5.81503">
        <ele>319</ele>
        <time>2018-09-01T14:41:47Z</time>
      </trkpt>
      <trkpt lat="45.68896" lon="5.81509">
        <ele>319</ele>
        <time>2018-09-01T14:41:47Z</time>
      </trkpt>
      <trkpt lat="45.68892" lon="5.81513">
        <ele>319</ele>
        <time>2018-09-01T14:42:03Z</time>
      </trkpt>
      <trkpt lat="45.68888" lon="5.81519">
        <ele>319</ele>
        <time>2018-09-01T14:42:03Z</time>
      </trkpt>
      <trkpt lat="45.68884" lon="5.81523">
        <ele>319</ele>
        <time>2018-09-01T14:42:03Z</time>
      </trkpt>
      <trkpt lat="45.68881" lon="5.81526">
        <ele>319</ele>
        <time>2018-09-01T14:42:03Z</time>
      </trkpt>
      <trkpt lat="45.68877" lon="5.8153">
        <ele>319</ele>
        <time>2018-09-01T14:42:19Z</time>
      </trkpt>
      <trkpt lat="45.68874" lon="5.81535">
        <ele>341</ele>
        <time>2018-09-01T14:42:19Z</time>
      </trkpt>
      <trkpt lat="45.6887" lon="5.81539">
        <ele>341</ele>
        <time>2018-09-01T14:42:19Z</time>
      </trkpt>
      <trkpt lat="45.68867" lon="5.81545">
        <ele>357</ele>
        <time>2018-09-01T14:42:19Z</time>
      </trkpt>
      <trkpt lat="45.68871" lon="5.81558">
        <ele>357</ele>
        <time>2018-09-01T14:42:35Z</time>
      </trkpt>
      <trkpt lat="45.68875" lon="5.8157">
        <ele>323</ele>
        <time>2018-09-01T14:42:35Z</time>
      </trkpt>
      <trkpt lat="45.68879" lon="5.81576">
        <ele>323</ele>
        <time>2018-09-01T14:42:35Z</time>
      </trkpt>
      <trkpt lat="45.68882" lon="5.81583">
        <ele>323</ele>
        <time>2018-09-01T14:42:35Z</time>
      </trkpt>
      <trkpt lat="45.68886" lon="5.8159">
        <ele>323</ele>
        <time>2018-09-01T14:42:51Z</time>
      </trkpt>
      <trkpt lat="45.68891" lon="5.81597">
        <ele>323</ele>
        <time>2018-09-01T14:42:51Z</time>
      </trkpt>
      <trkpt lat="45.68894" lon="5.81604">
        <ele>323</ele>
        <time>2018-09-01T14:42:51Z</time>
      </trkpt>
      <trkpt lat="45.68895" lon="5.81611">
        <ele>323</ele>
        <time>2018-09-01T14:42:51Z</time>
      </trkpt>
      <trkpt lat="45.68895" lon="5.81613">
        <ele>323</ele>
        <time>2018-09-01T14:43:07Z</time>
      </trkpt>
      <trkpt lat="45.68894" lon="5.81613">
        <ele>323</ele>
        <time>2018-09-01T14:43:07Z</time>
      </trkpt>
      <trkpt lat="45.68894" lon="5.81618">
        <ele>323</ele>
        <time>2018-09-01T14:43:07Z</time>
      </trkpt>
      <trkpt lat="45.68895" lon="5.81627">
        <ele>332</ele>
        <time>2018-09-01T14:43:07Z</time>
      </trkpt>
      <trkpt lat="45.68898" lon="5.81635">
        <ele>332</ele>
        <time>2018-09-01T14:43:23Z</time>
      </trkpt>
      <trkpt lat="45.68901" lon="5.81643">
        <ele>332</ele>
        <time>2018-09-01T14:43:23Z</time>
      </trkpt>
      <trkpt lat="45.68903" lon="5.81651">
        <ele>332</ele>
        <time>2018-09-01T14:43:23Z</time>
      </trkpt>
      <trkpt lat="45.68905" lon="5.81658">
        <ele>332</ele>
        <time>2018-09-01T14:43:23Z</time>
      </trkpt>
      <trkpt lat="45.68909" lon="5.81665">
        <ele>332</ele>
        <time>2018-09-01T14:43:39Z</time>
      </trkpt>
      <trkpt lat="45.6891" lon="5.81673">
        <ele>332</ele>
        <time>2018-09-01T14:43:39Z</time>
      </trkpt>
      <trkpt lat="45.6891" lon="5.81679">
        <ele>332</ele>
        <time>2018-09-01T14:43:39Z</time>
      </trkpt>
      <trkpt lat="45.6891" lon="5.81686">
        <ele>332</ele>
        <time>2018-09-01T14:43:39Z</time>
      </trkpt>
      <trkpt lat="45.6891" lon="5.81693">
        <ele>332</ele>
        <time>2018-09-01T14:43:55Z</time>
      </trkpt>
      <trkpt lat="45.6891" lon="5.817">
        <ele>332</ele>
        <time>2018-09-01T14:43:55Z</time>
      </trkpt>
      <trkpt lat="45.6891" lon="5.81706">
        <ele>332</ele>
        <time>2018-09-01T14:43:55Z</time>
      </trkpt>
      <trkpt lat="45.6891" lon="5.81713">
        <ele>335</ele>
        <time>2018-09-01T14:43:55Z</time>
      </trkpt>
      <trkpt lat="45.6891" lon="5.81722">
        <ele>335</ele>
        <time>2018-09-01T14:44:11Z</time>
      </trkpt>
      <trkpt lat="45.68909" lon="5.81729">
        <ele>335</ele>
        <time>2018-09-01T14:44:11Z</time>
      </trkpt>
      <trkpt lat="45.68909" lon="5.81736">
        <ele>335</ele>
        <time>2018-09-01T14:44:11Z</time>
      </trkpt>
      <trkpt lat="45.68909" lon="5.81742">
        <ele>335</ele>
        <time>2018-09-01T14:44:11Z</time>
      </trkpt>
      <trkpt lat="45.68908" lon="5.81749">
        <ele>335</ele>
        <time>2018-09-01T14:44:27Z</time>
      </trkpt>
      <trkpt lat="45.68907" lon="5.81756">
        <ele>335</ele>
        <time>2018-09-01T14:44:27Z</time>
      </trkpt>
      <trkpt lat="45.68907" lon="5.81763">
        <ele>335</ele>
        <time>2018-09-01T14:44:27Z</time>
      </trkpt>
      <trkpt lat="45.68908" lon="5.81769">
        <ele>335</ele>
        <time>2018-09-01T14:44:27Z</time>
      </trkpt>
      <trkpt lat="45.68909" lon="5.81775">
        <ele>335</ele>
        <time>2018-09-01T14:44:43Z</time>
      </trkpt>
      <trkpt lat="45.68912" lon="5.8178">
        <ele>335</ele>
        <time>2018-09-01T14:44:43Z</time>
      </trkpt>
      <trkpt lat="45.68917" lon="5.81783">
        <ele>335</ele>
        <time>2018-09-01T14:44:43Z</time>
      </trkpt>
      <trkpt lat="45.68921" lon="5.81787">
        <ele>335</ele>
        <time>2018-09-01T14:44:43Z</time>
      </trkpt>
      <trkpt lat="45.68925" lon="5.81793">
        <ele>334</ele>
        <time>2018-09-01T14:44:59Z</time>
      </trkpt>
      <trkpt lat="45.68929" lon="5.81798">
        <ele>334</ele>
        <time>2018-09-01T14:44:59Z</time>
      </trkpt>
      <trkpt lat="45.68933" lon="5.81803">
        <ele>334</ele>
        <time>2018-09-01T14:44:59Z</time>
      </trkpt>
      <trkpt lat="45.68936" lon="5.81808">
        <ele>334</ele>
        <time>2018-09-01T14:44:59Z</time>
      </trkpt>
      <trkpt lat="45.68941" lon="5.81811">
        <ele>334</ele>
        <time>2018-09-01T14:45:15Z</time>
      </trkpt>
      <trkpt lat="45.68944" lon="5.81815">
        <ele>334</ele>
        <time>2018-09-01T14:45:15Z</time>
      </trkpt>
      <trkpt lat="45.68946" lon="5.81819">
        <ele>334</ele>
        <time>2018-09-01T14:45:15Z</time>
      </trkpt>
      <trkpt lat="45.68949" lon="5.81818">
        <ele>334</ele>
        <time>2018-09-01T14:45:15Z</time>
      </trkpt>
      <trkpt lat="45.68954" lon="5.81817">
        <ele>334</ele>
        <time>2018-09-01T14:45:31Z</time>
      </trkpt>
      <trkpt lat="45.68958" lon="5.81818">
        <ele>334</ele>
        <time>2018-09-01T14:45:31Z</time>
      </trkpt>
      <trkpt lat="45.68962" lon="5.81822">
        <ele>329</ele>
        <time>2018-09-01T14:45:31Z</time>
      </trkpt>
      <trkpt lat="45.68966" lon="5.81828">
        <ele>329</ele>
        <time>2018-09-01T14:45:31Z</time>
      </trkpt>
      <trkpt lat="45.68971" lon="5.81835">
        <ele>329</ele>
        <time>2018-09-01T14:45:47Z</time>
      </trkpt>
      <trkpt lat="45.68976" lon="5.81842">
        <ele>329</ele>
        <time>2018-09-01T14:45:47Z</time>
      </trkpt>
      <trkpt lat="45.68975" lon="5.81849">
        <ele>329</ele>
        <time>2018-09-01T14:45:47Z</time>
      </trkpt>
      <trkpt lat="45.68977" lon="5.81857">
        <ele>329</ele>
        <time>2018-09-01T14:45:47Z</time>
      </trkpt>
      <trkpt lat="45.68978" lon="5.81865">
        <ele>329</ele>
        <time>2018-09-01T14:46:03Z</time>
      </trkpt>
      <trkpt lat="45.68979" lon="5.81873">
        <ele>329</ele>
        <time>2018-09-01T14:46:03Z</time>
      </trkpt>
      <trkpt lat="45.6898" lon="5.81881">
        <ele>333</ele>
        <time>2018-09-01T14:46:03Z</time>
      </trkpt>
      <trkpt lat="45.68982" lon="5.81888">
        <ele>333</ele>
        <time>2018-09-01T14:46:03Z</time>
      </trkpt>
      <trkpt lat="45.68983" lon="5.81893">
        <ele>333</ele>
        <time>2018-09-01T14:46:19Z</time>
      </trkpt>
      <trkpt lat="45.68985" lon="5.819">
        <ele>333</ele>
        <time>2018-09-01T14:46:19Z</time>
      </trkpt>
      <trkpt lat="45.68988" lon="5.81909">
        <ele>333</ele>
        <time>2018-09-01T14:46:19Z</time>
      </trkpt>
      <trkpt lat="45.6899" lon="5.81919">
        <ele>333</ele>
        <time>2018-09-01T14:46:19Z</time>
      </trkpt>
      <trkpt lat="45.68993" lon="5.81927">
        <ele>333</ele>
        <time>2018-09-01T14:46:35Z</time>
      </trkpt>
      <trkpt lat="45.68997" lon="5.81934">
        <ele>333</ele>
        <time>2018-09-01T14:46:35Z</time>
      </trkpt>
      <trkpt lat="45.69001" lon="5.8194">
        <ele>333</ele>
        <time>2018-09-01T14:46:35Z</time>
      </trkpt>
      <trkpt lat="45.69004" lon="5.81947">
        <ele>333</ele>
        <time>2018-09-01T14:46:35Z</time>
      </trkpt>
      <trkpt lat="45.69006" lon="5.81953">
        <ele>333</ele>
        <time>2018-09-01T14:46:51Z</time>
      </trkpt>
      <trkpt lat="45.69008" lon="5.81959">
        <ele>333</ele>
        <time>2018-09-01T14:46:51Z</time>
      </trkpt>
      <trkpt lat="45.6901" lon="5.81966">
        <ele>333</ele>
        <time>2018-09-01T14:46:51Z</time>
      </trkpt>
      <trkpt lat="45.69012" lon="5.81973">
        <ele>333</ele>
        <time>2018-09-01T14:46:51Z</time>
      </trkpt>
      <trkpt lat="45.69014" lon="5.81979">
        <ele>333</ele>
        <time>2018-09-01T14:47:07Z</time>
      </trkpt>
      <trkpt lat="45.69015" lon="5.81987">
        <ele>333</ele>
        <time>2018-09-01T14:47:07Z</time>
      </trkpt>
      <trkpt lat="45.69014" lon="5.81994">
        <ele>333</ele>
        <time>2018-09-01T14:47:07Z</time>
      </trkpt>
      <trkpt lat="45.69012" lon="5.82003">
        <ele>333</ele>
        <time>2018-09-01T14:47:07Z</time>
      </trkpt>
      <trkpt lat="45.6901" lon="5.8201">
        <ele>333</ele>
        <time>2018-09-01T14:47:23Z</time>
      </trkpt>
      <trkpt lat="45.69007" lon="5.82017">
        <ele>333</ele>
        <time>2018-09-01T14:47:23Z</time>
      </trkpt>
      <trkpt lat="45.69004" lon="5.82024">
        <ele>333</ele>
        <time>2018-09-01T14:47:23Z</time>
      </trkpt>
      <trkpt lat="45.69003" lon="5.82027">
        <ele>333</ele>
        <time>2018-09-01T14:47:23Z</time>
      </trkpt>
      <trkpt lat="45.69001" lon="5.82032">
        <ele>333</ele>
        <time>2018-09-01T14:47:39Z</time>
      </trkpt>
      <trkpt lat="45.68999" lon="5.82039">
        <ele>333</ele>
        <time>2018-09-01T14:47:39Z</time>
      </trkpt>
      <trkpt lat="45.68998" lon="5.82046">
        <ele>334</ele>
        <time>2018-09-01T14:47:39Z</time>
      </trkpt>
      <trkpt lat="45.68995" lon="5.82053">
        <ele>334</ele>
        <time>2018-09-01T14:47:39Z</time>
      </trkpt>
      <trkpt lat="45.68992" lon="5.82059">
        <ele>334</ele>
        <time>2018-09-01T14:47:55Z</time>
      </trkpt>
      <trkpt lat="45.6899" lon="5.82065">
        <ele>334</ele>
        <time>2018-09-01T14:47:55Z</time>
      </trkpt>
      <trkpt lat="45.68987" lon="5.82071">
        <ele>334</ele>
        <time>2018-09-01T14:47:55Z</time>
      </trkpt>
      <trkpt lat="45.68984" lon="5.82077">
        <ele>334</ele>
        <time>2018-09-01T14:47:55Z</time>
      </trkpt>
      <trkpt lat="45.68981" lon="5.82083">
        <ele>334</ele>
        <time>2018-09-01T14:48:11Z</time>
      </trkpt>
      <trkpt lat="45.68978" lon="5.82089">
        <ele>334</ele>
        <time>2018-09-01T14:48:11Z</time>
      </trkpt>
      <trkpt lat="45.68974" lon="5.82095">
        <ele>334</ele>
        <time>2018-09-01T14:48:11Z</time>
      </trkpt>
      <trkpt lat="45.68971" lon="5.82101">
        <ele>334</ele>
        <time>2018-09-01T14:48:11Z</time>
      </trkpt>
      <trkpt lat="45.68968" lon="5.82107">
        <ele>334</ele>
        <time>2018-09-01T14:48:27Z</time>
      </trkpt>
      <trkpt lat="45.68964" lon="5.82114">
        <ele>334</ele>
        <time>2018-09-01T14:48:27Z</time>
      </trkpt>
      <trkpt lat="45.68961" lon="5.8212">
        <ele>334</ele>
        <time>2018-09-01T14:48:27Z</time>
      </trkpt>
      <trkpt lat="45.68958" lon="5.82127">
        <ele>348</ele>
        <time>2018-09-01T14:48:27Z</time>
      </trkpt>
      <trkpt lat="45.68954" lon="5.82134">
        <ele>348</ele>
        <time>2018-09-01T14:48:43Z</time>
      </trkpt>
      <trkpt lat="45.68951" lon="5.82141">
        <ele>348</ele>
        <time>2018-09-01T14:48:43Z</time>
      </trkpt>
      <trkpt lat="45.68948" lon="5.82147">
        <ele>348</ele>
        <time>2018-09-01T14:48:43Z</time>
      </trkpt>
      <trkpt lat="45.68945" lon="5.82153">
        <ele>348</ele>
        <time>2018-09-01T14:48:43Z</time>
      </trkpt>
      <trkpt lat="45.68942" lon="5.8216">
        <ele>348</ele>
        <time>2018-09-01T14:48:59Z</time>
      </trkpt>
      <trkpt lat="45.68939" lon="5.82167">
        <ele>348</ele>
        <time>2018-09-01T14:48:59Z</time>
      </trkpt>
      <trkpt lat="45.68936" lon="5.82172">
        <ele>348</ele>
        <time>2018-09-01T14:48:59Z</time>
      </trkpt>
      <trkpt lat="45.68933" lon="5.82178">
        <ele>348</ele>
        <time>2018-09-01T14:48:59Z</time>
      </trkpt>
      <trkpt lat="45.6893" lon="5.82183">
        <ele>348</ele>
        <time>2018-09-01T14:49:15Z</time>
      </trkpt>
      <trkpt lat="45.68927" lon="5.82191">
        <ele>348</ele>
        <time>2018-09-01T14:49:15Z</time>
      </trkpt>
      <trkpt lat="45.68924" lon="5.82198">
        <ele>348</ele>
        <time>2018-09-01T14:49:15Z</time>
      </trkpt>
      <trkpt lat="45.6892" lon="5.82205">
        <ele>348</ele>
        <time>2018-09-01T14:49:15Z</time>
      </trkpt>
      <trkpt lat="45.68917" lon="5.82211">
        <ele>344</ele>
        <time>2018-09-01T14:49:31Z</time>
      </trkpt>
      <trkpt lat="45.68914" lon="5.82217">
        <ele>344</ele>
        <time>2018-09-01T14:49:31Z</time>
      </trkpt>
      <trkpt lat="45.6891" lon="5.82222">
        <ele>344</ele>
        <time>2018-09-01T14:49:31Z</time>
      </trkpt>
      <trkpt lat="45.68907" lon="5.82228">
        <ele>344</ele>
        <time>2018-09-01T14:49:31Z</time>
      </trkpt>
      <trkpt lat="45.68904" lon="5.82233">
        <ele>344</ele>
        <time>2018-09-01T14:49:47Z</time>
      </trkpt>
      <trkpt lat="45.68901" lon="5.82239">
        <ele>344</ele>
        <time>2018-09-01T14:49:47Z</time>
      </trkpt>
      <trkpt lat="45.68899" lon="5.82245">
        <ele>344</ele>
        <time>2018-09-01T14:49:47Z</time>
      </trkpt>
      <trkpt lat="45.68895" lon="5.82251">
        <ele>344</ele>
        <time>2018-09-01T14:49:47Z</time>
      </trkpt>
      <trkpt lat="45.68894" lon="5.82258">
        <ele>344</ele>
        <time>2018-09-01T14:50:03Z</time>
      </trkpt>
      <trkpt lat="45.68891" lon="5.82266">
        <ele>344</ele>
        <time>2018-09-01T14:50:03Z</time>
      </trkpt>
      <trkpt lat="45.68889" lon="5.82272">
        <ele>344</ele>
        <time>2018-09-01T14:50:03Z</time>
      </trkpt>
      <trkpt lat="45.68886" lon="5.82278">
        <ele>344</ele>
        <time>2018-09-01T14:50:03Z</time>
      </trkpt>
      <trkpt lat="45.68883" lon="5.82285">
        <ele>344</ele>
        <time>2018-09-01T14:50:19Z</time>
      </trkpt>
      <trkpt lat="45.68881" lon="5.82291">
        <ele>344</ele>
        <time>2018-09-01T14:50:19Z</time>
      </trkpt>
      <trkpt lat="45.68878" lon="5.82298">
        <ele>346</ele>
        <time>2018-09-01T14:50:19Z</time>
      </trkpt>
      <trkpt lat="45.68876" lon="5.82304">
        <ele>346</ele>
        <time>2018-09-01T14:50:19Z</time>
      </trkpt>
      <trkpt lat="45.68874" lon="5.82311">
        <ele>358</ele>
        <time>2018-09-01T14:50:35Z</time>
      </trkpt>
      <trkpt lat="45.68873" lon="5.82318">
        <ele>358</ele>
        <time>2018-09-01T14:50:35Z</time>
      </trkpt>
      <trkpt lat="45.68872" lon="5.82325">
        <ele>358</ele>
        <time>2018-09-01T14:50:35Z</time>
      </trkpt>
      <trkpt lat="45.68872" lon="5.82333">
        <ele>358</ele>
        <time>2018-09-01T14:50:35Z</time>
      </trkpt>
      <trkpt lat="45.68871" lon="5.8234">
        <ele>358</ele>
        <time>2018-09-01T14:50:51Z</time>
      </trkpt>
      <trkpt lat="45.6887" lon="5.82348">
        <ele>358</ele>
        <time>2018-09-01T14:50:51Z</time>
      </trkpt>
      <trkpt lat="45.6887" lon="5.82354">
        <ele>358</ele>
        <time>2018-09-01T14:50:51Z</time>
      </trkpt>
      <trkpt lat="45.68869" lon="5.82361">
        <ele>358</ele>
        <time>2018-09-01T14:50:51Z</time>
      </trkpt>
      <trkpt lat="45.68871" lon="5.82367">
        <ele>358</ele>
        <time>2018-09-01T14:51:07Z</time>
      </trkpt>
      <trkpt lat="45.68873" lon="5.82374">
        <ele>358</ele>
        <time>2018-09-01T14:51:07Z</time>
      </trkpt>
      <trkpt lat="45.68877" lon="5.8238">
        <ele>350</ele>
        <time>2018-09-01T14:51:07Z</time>
      </trkpt>
      <trkpt lat="45.6888" lon="5.82387">
        <ele>350</ele>
        <time>2018-09-01T14:51:07Z</time>
      </trkpt>
      <trkpt lat="45.68883" lon="5.82394">
        <ele>350</ele>
        <time>2018-09-01T14:51:23Z</time>
      </trkpt>
      <trkpt lat="45.68887" lon="5.82401">
        <ele>350</ele>
        <time>2018-09-01T14:51:23Z</time>
      </trkpt>
      <trkpt lat="45.6889" lon="5.82408">
        <ele>350</ele>
        <time>2018-09-01T14:51:23Z</time>
      </trkpt>
      <trkpt lat="45.68892" lon="5.82416">
        <ele>350</ele>
        <time>2018-09-01T14:51:23Z</time>
      </trkpt>
      <trkpt lat="45.68893" lon="5.82423">
        <ele>350</ele>
        <time>2018-09-01T14:51:39Z</time>
      </trkpt>
      <trkpt lat="45.68894" lon="5.82431">
        <ele>350</ele>
        <time>2018-09-01T14:51:39Z</time>
      </trkpt>
      <trkpt lat="45.68894" lon="5.82438">
        <ele>350</ele>
        <time>2018-09-01T14:51:39Z</time>
      </trkpt>
      <trkpt lat="45.68893" lon="5.82444">
        <ele>350</ele>
        <time>2018-09-01T14:51:39Z</time>
      </trkpt>
      <trkpt lat="45.68891" lon="5.8245">
        <ele>350</ele>
        <time>2018-09-01T14:51:55Z</time>
      </trkpt>
      <trkpt lat="45.68889" lon="5.82457">
        <ele>350</ele>
        <time>2018-09-01T14:51:55Z</time>
      </trkpt>
      <trkpt lat="45.68886" lon="5.82465">
        <ele>355</ele>
        <time>2018-09-01T14:51:55Z</time>
      </trkpt>
      <trkpt lat="45.68882" lon="5.82472">
        <ele>355</ele>
        <time>2018-09-01T14:51:55Z</time>
      </trkpt>
      <trkpt lat="45.68879" lon="5.82479">
        <ele>355</ele>
        <time>2018-09-01T14:52:11Z</time>
      </trkpt>
      <trkpt lat="45.68878" lon="5.82488">
        <ele>355</ele>
        <time>2018-09-01T14:52:11Z</time>
      </trkpt>
      <trkpt lat="45.68876" lon="5.82491">
        <ele>355</ele>
        <time>2018-09-01T14:52:11Z</time>
      </trkpt>
      <trkpt lat="45.68875" lon="5.82496">
        <ele>377</ele>
        <time>2018-09-01T14:52:11Z</time>
      </trkpt>
      <trkpt lat="45.68875" lon="5.82501">
        <ele>377</ele>
        <time>2018-09-01T14:52:27Z</time>
      </trkpt>
      <trkpt lat="45.68875" lon="5.82506">
        <ele>377</ele>
        <time>2018-09-01T14:52:27Z</time>
      </trkpt>
      <trkpt lat="45.68874" lon="5.82513">
        <ele>377</ele>
        <time>2018-09-01T14:52:27Z</time>
      </trkpt>
      <trkpt lat="45.68873" lon="5.82521">
        <ele>377</ele>
        <time>2018-09-01T14:52:27Z</time>
      </trkpt>
      <trkpt lat="45.68872" lon="5.82529">
        <ele>377</ele>
        <time>2018-09-01T14:52:43Z</time>
      </trkpt>
      <trkpt lat="45.68872" lon="5.82537">
        <ele>377</ele>
        <time>2018-09-01T14:52:43Z</time>
      </trkpt>
      <trkpt lat="45.68871" lon="5.82545">
        <ele>377</ele>
        <time>2018-09-01T14:52:43Z</time>
      </trkpt>
      <trkpt lat="45.6887" lon="5.82551">
        <ele>377</ele>
        <time>2018-09-01T14:52:43Z</time>
      </trkpt>
      <trkpt lat="45.68869" lon="5.82557">
        <ele>377</ele>
        <time>2018-09-01T14:52:59Z</time>
      </trkpt>
      <trkpt lat="45.68869" lon="5.82564">
        <ele>377</ele>
        <time>2018-09-01T14:52:59Z</time>
      </trkpt>
      <trkpt lat="45.68869" lon="5.82571">
        <ele>377</ele>
        <time>2018-09-01T14:52:59Z</time>
      </trkpt>
      <trkpt lat="45.68869" lon="5.8258">
        <ele>377</ele>
        <time>2018-09-01T14:52:59Z</time>
      </trkpt>
      <trkpt lat="45.68869" lon="5.82589">
        <ele>377</ele>
        <time>2018-09-01T14:53:15Z</time>
      </trkpt>
      <trkpt lat="45.68867" lon="5.82598">
        <ele>377</ele>
        <time>2018-09-01T14:53:15Z</time>
      </trkpt>
      <trkpt lat="45.68866" lon="5.82606">
        <ele>377</ele>
        <time>2018-09-01T14:53:15Z</time>
      </trkpt>
      <trkpt lat="45.68865" lon="5.82613">
        <ele>377</ele>
        <time>2018-09-01T14:53:15Z</time>
      </trkpt>
      <trkpt lat="45.68864" lon="5.82622">
        <ele>377</ele>
        <time>2018-09-01T14:53:31Z</time>
      </trkpt>
      <trkpt lat="45.68865" lon="5.8263">
        <ele>382</ele>
        <time>2018-09-01T14:53:31Z</time>
      </trkpt>
      <trkpt lat="45.68865" lon="5.82638">
        <ele>382</ele>
        <time>2018-09-01T14:53:31Z</time>
      </trkpt>
      <trkpt lat="45.68865" lon="5.82647">
        <ele>382</ele>
        <time>2018-09-01T14:53:31Z</time>
      </trkpt>
      <trkpt lat="45.68866" lon="5.82654">
        <ele>382</ele>
        <time>2018-09-01T14:53:47Z</time>
      </trkpt>
      <trkpt lat="45.68866" lon="5.82662">
        <ele>382</ele>
        <time>2018-09-01T14:53:47Z</time>
      </trkpt>
      <trkpt lat="45.68867" lon="5.82668">
        <ele>382</ele>
        <time>2018-09-01T14:53:47Z</time>
      </trkpt>
      <trkpt lat="45.68865" lon="5.82675">
        <ele>382</ele>
        <time>2018-09-01T14:53:47Z</time>
      </trkpt>
      <trkpt lat="45.68864" lon="5.82681">
        <ele>382</ele>
        <time>2018-09-01T14:54:03Z</time>
      </trkpt>
      <trkpt lat="45.68863" lon="5.82688">
        <ele>382</ele>
        <time>2018-09-01T14:54:03Z</time>
      </trkpt>
      <trkpt lat="45.68863" lon="5.82695">
        <ele>382</ele>
        <time>2018-09-01T14:54:03Z</time>
      </trkpt>
      <trkpt lat="45.68863" lon="5.82703">
        <ele>382</ele>
        <time>2018-09-01T14:54:03Z</time>
      </trkpt>
      <trkpt lat="45.68862" lon="5.8271">
        <ele>388</ele>
        <time>2018-09-01T14:54:19Z</time>
      </trkpt>
      <trkpt lat="45.68862" lon="5.82718">
        <ele>388</ele>
        <time>2018-09-01T14:54:19Z</time>
      </trkpt>
      <trkpt lat="45.6886" lon="5.82725">
        <ele>388</ele>
        <time>2018-09-01T14:54:19Z</time>
      </trkpt>
      <trkpt lat="45.68857" lon="5.82733">
        <ele>388</ele>
        <time>2018-09-01T14:54:19Z</time>
      </trkpt>
      <trkpt lat="45.68857" lon="5.82745">
        <ele>388</ele>
        <time>2018-09-01T14:54:35Z</time>
      </trkpt>
      <trkpt lat="45.68858" lon="5.82757">
        <ele>388</ele>
        <time>2018-09-01T14:54:35Z</time>
      </trkpt>
      <trkpt lat="45.68859" lon="5.82766">
        <ele>388</ele>
        <time>2018-09-01T14:54:35Z</time>
      </trkpt>
      <trkpt lat="45.68859" lon="5.82775">
        <ele>388</ele>
        <time>2018-09-01T14:54:35Z</time>
      </trkpt>
      <trkpt lat="45.68859" lon="5.82783">
        <ele>388</ele>
        <time>2018-09-01T14:54:51Z</time>
      </trkpt>
      <trkpt lat="45.68859" lon="5.8279">
        <ele>388</ele>
        <time>2018-09-01T14:54:51Z</time>
      </trkpt>
      <trkpt lat="45.68859" lon="5.82798">
        <ele>388</ele>
        <time>2018-09-01T14:54:51Z</time>
      </trkpt>
      <trkpt lat="45.68859" lon="5.82805">
        <ele>388</ele>
        <time>2018-09-01T14:54:51Z</time>
      </trkpt>
      <trkpt lat="45.6886" lon="5.82813">
        <ele>388</ele>
        <time>2018-09-01T14:55:07Z</time>
      </trkpt>
      <trkpt lat="45.6886" lon="5.82821">
        <ele>388</ele>
        <time>2018-09-01T14:55:07Z</time>
      </trkpt>
      <trkpt lat="45.68861" lon="5.82829">
        <ele>388</ele>
        <time>2018-09-01T14:55:07Z</time>
      </trkpt>
      <trkpt lat="45.68861" lon="5.82836">
        <ele>388</ele>
        <time>2018-09-01T14:55:07Z</time>
      </trkpt>
      <trkpt lat="45.68862" lon="5.82843">
        <ele>388</ele>
        <time>2018-09-01T14:55:23Z</time>
      </trkpt>
      <trkpt lat="45.68865" lon="5.8285">
        <ele>388</ele>
        <time>2018-09-01T14:55:23Z</time>
      </trkpt>
      <trkpt lat="45.68865" lon="5.82858">
        <ele>388</ele>
        <time>2018-09-01T14:55:23Z</time>
      </trkpt>
      <trkpt lat="45.68865" lon="5.82866">
        <ele>388</ele>
        <time>2018-09-01T14:55:23Z</time>
      </trkpt>
      <trkpt lat="45.68865" lon="5.82874">
        <ele>388</ele>
        <time>2018-09-01T14:55:39Z</time>
      </trkpt>
      <trkpt lat="45.68863" lon="5.82883">
        <ele>393</ele>
        <time>2018-09-01T14:55:39Z</time>
      </trkpt>
      <trkpt lat="45.68862" lon="5.82891">
        <ele>393</ele>
        <time>2018-09-01T14:55:39Z</time>
      </trkpt>
      <trkpt lat="45.6886" lon="5.82899">
        <ele>393</ele>
        <time>2018-09-01T14:55:39Z</time>
      </trkpt>
      <trkpt lat="45.68857" lon="5.82915">
        <ele>393</ele>
        <time>2018-09-01T14:56:23Z</time>
      </trkpt>
      <trkpt lat="45.68857" lon="5.82915">
        <ele>393</ele>
        <time>2018-09-01T14:56:23Z</time>
      </trkpt>
      <trkpt lat="45.68857" lon="5.82915">
        <ele>393</ele>
        <time>2018-09-01T14:56:23Z</time>
      </trkpt>
      <trkpt lat="45.68857" lon="5.82917">
        <ele>393</ele>
        <time>2018-09-01T14:56:23Z</time>
      </trkpt>
      <trkpt lat="45.68856" lon="5.82926">
        <ele>393</ele>
        <time>2018-09-01T14:56:23Z</time>
      </trkpt>
      <trkpt lat="45.68856" lon="5.82935">
        <ele>393</ele>
        <time>2018-09-01T14:56:39Z</time>
      </trkpt>
      <trkpt lat="45.68856" lon="5.82943">
        <ele>393</ele>
        <time>2018-09-01T14:56:39Z</time>
      </trkpt>
      <trkpt lat="45.68856" lon="5.82951">
        <ele>393</ele>
        <time>2018-09-01T14:56:39Z</time>
      </trkpt>
      <trkpt lat="45.68857" lon="5.82959">
        <ele>404</ele>
        <time>2018-09-01T14:56:39Z</time>
      </trkpt>
      <trkpt lat="45.68858" lon="5.82966">
        <ele>404</ele>
        <time>2018-09-01T14:56:55Z</time>
      </trkpt>
      <trkpt lat="45.68858" lon="5.82973">
        <ele>404</ele>
        <time>2018-09-01T14:56:55Z</time>
      </trkpt>
      <trkpt lat="45.68859" lon="5.82981">
        <ele>404</ele>
        <time>2018-09-01T14:56:55Z</time>
      </trkpt>
      <trkpt lat="45.6886" lon="5.82988">
        <ele>404</ele>
        <time>2018-09-01T14:56:55Z</time>
      </trkpt>
      <trkpt lat="45.68861" lon="5.82996">
        <ele>404</ele>
        <time>2018-09-01T14:57:11Z</time>
      </trkpt>
      <trkpt lat="45.68862" lon="5.83004">
        <ele>404</ele>
        <time>2018-09-01T14:57:11Z</time>
      </trkpt>
      <trkpt lat="45.68862" lon="5.83012">
        <ele>404</ele>
        <time>2018-09-01T14:57:11Z</time>
      </trkpt>
      <trkpt lat="45.68862" lon="5.83019">
        <ele>404</ele>
        <time>2018-09-01T14:57:11Z</time>
      </trkpt>
      <trkpt lat="45.6886" lon="5.83026">
        <ele>404</ele>
        <time>2018-09-01T14:57:27Z</time>
      </trkpt>
      <trkpt lat="45.68859" lon="5.83033">
        <ele>404</ele>
        <time>2018-09-01T14:57:27Z</time>
      </trkpt>
      <trkpt lat="45.68859" lon="5.83042">
        <ele>414</ele>
        <time>2018-09-01T14:57:27Z</time>
      </trkpt>
      <trkpt lat="45.68859" lon="5.8305">
        <ele>414</ele>
        <time>2018-09-01T14:57:27Z</time>
      </trkpt>
      <trkpt lat="45.6886" lon="5.83058">
        <ele>414</ele>
        <time>2018-09-01T14:57:43Z</time>
      </trkpt>
      <trkpt lat="45.68863" lon="5.83066">
        <ele>414</ele>
        <time>2018-09-01T14:57:43Z</time>
      </trkpt>
      <trkpt lat="45.68864" lon="5.83074">
        <ele>414</ele>
        <time>2018-09-01T14:57:43Z</time>
      </trkpt>
      <trkpt lat="45.68866" lon="5.8308">
        <ele>414</ele>
        <time>2018-09-01T14:57:43Z</time>
      </trkpt>
      <trkpt lat="45.68868" lon="5.83087">
        <ele>414</ele>
        <time>2018-09-01T14:57:59Z</time>
      </trkpt>
      <trkpt lat="45.6887" lon="5.83094">
        <ele>414</ele>
        <time>2018-09-01T14:57:59Z</time>
      </trkpt>
      <trkpt lat="45.68872" lon="5.83101">
        <ele>414</ele>
        <time>2018-09-01T14:57:59Z</time>
      </trkpt>
      <trkpt lat="45.68873" lon="5.83108">
        <ele>414</ele>
        <time>2018-09-01T14:57:59Z</time>
      </trkpt>
      <trkpt lat="45.68875" lon="5.83114">
        <ele>414</ele>
        <time>2018-09-01T14:58:15Z</time>
      </trkpt>
      <trkpt lat="45.68875" lon="5.83121">
        <ele>402</ele>
        <time>2018-09-01T14:58:15Z</time>
      </trkpt>
      <trkpt lat="45.68875" lon="5.83127">
        <ele>408</ele>
        <time>2018-09-01T14:58:15Z</time>
      </trkpt>
      <trkpt lat="45.68875" lon="5.83134">
        <ele>408</ele>
        <time>2018-09-01T14:58:15Z</time>
      </trkpt>
      <trkpt lat="45.68875" lon="5.83142">
        <ele>408</ele>
        <time>2018-09-01T14:58:31Z</time>
      </trkpt>
      <trkpt lat="45.68877" lon="5.83148">
        <ele>408</ele>
        <time>2018-09-01T14:58:31Z</time>
      </trkpt>
      <trkpt lat="45.68877" lon="5.83152">
        <ele>408</ele>
        <time>2018-09-01T14:58:31Z</time>
      </trkpt>
      <trkpt lat="45.68877" lon="5.83157">
        <ele>408</ele>
        <time>2018-09-01T14:58:31Z</time>
      </trkpt>
      <trkpt lat="45.68876" lon="5.83165">
        <ele>408</ele>
        <time>2018-09-01T14:58:47Z</time>
      </trkpt>
      <trkpt lat="45.68879" lon="5.83174">
        <ele>408</ele>
        <time>2018-09-01T14:58:47Z</time>
      </trkpt>
      <trkpt lat="45.68881" lon="5.83183">
        <ele>408</ele>
        <time>2018-09-01T14:58:47Z</time>
      </trkpt>
      <trkpt lat="45.68882" lon="5.8319">
        <ele>408</ele>
        <time>2018-09-01T14:58:47Z</time>
      </trkpt>
      <trkpt lat="45.68885" lon="5.83196">
        <ele>408</ele>
        <time>2018-09-01T14:59:03Z</time>
      </trkpt>
      <trkpt lat="45.68889" lon="5.83201">
        <ele>408</ele>
        <time>2018-09-01T14:59:03Z</time>
      </trkpt>
      <trkpt lat="45.68893" lon="5.83209">
        <ele>425</ele>
        <time>2018-09-01T14:59:03Z</time>
      </trkpt>
      <trkpt lat="45.68894" lon="5.83216">
        <ele>425</ele>
        <time>2018-09-01T14:59:03Z</time>
      </trkpt>
      <trkpt lat="45.68894" lon="5.83219">
        <ele>425</ele>
        <time>2018-09-01T14:59:19Z</time>
      </trkpt>
      <trkpt lat="45.68896" lon="5.83224">
        <ele>425</ele>
        <time>2018-09-01T14:59:19Z</time>
      </trkpt>
      <trkpt lat="45.68898" lon="5.83233">
        <ele>425</ele>
        <time>2018-09-01T14:59:19Z</time>
      </trkpt>
      <trkpt lat="45.689" lon="5.83235">
        <ele>425</ele>
        <time>2018-09-01T14:59:19Z</time>
      </trkpt>
      <trkpt lat="45.68902" lon="5.8324">
        <ele>425</ele>
        <time>2018-09-01T14:59:35Z</time>
      </trkpt>
      <trkpt lat="45.68904" lon="5.83248">
        <ele>425</ele>
        <time>2018-09-01T14:59:35Z</time>
      </trkpt>
      <trkpt lat="45.68906" lon="5.83255">
        <ele>425</ele>
        <time>2018-09-01T14:59:35Z</time>
      </trkpt>
      <trkpt lat="45.68908" lon="5.83263">
        <ele>425</ele>
        <time>2018-09-01T14:59:35Z</time>
      </trkpt>
      <trkpt lat="45.68909" lon="5.83271">
        <ele>425</ele>
        <time>2018-09-01T14:59:51Z</time>
      </trkpt>
      <trkpt lat="45.68911" lon="5.83278">
        <ele>425</ele>
        <time>2018-09-01T14:59:51Z</time>
      </trkpt>
      <trkpt lat="45.68913" lon="5.83285">
        <ele>425</ele>
        <time>2018-09-01T14:59:51Z</time>
      </trkpt>
      <trkpt lat="45.68915" lon="5.8329">
        <ele>425</ele>
        <time>2018-09-01T14:59:51Z</time>
      </trkpt>
      <trkpt lat="45.68918" lon="5.83293">
        <ele>443</ele>
        <time>2018-09-01T15:00:27Z</time>
      </trkpt>
      <trkpt lat="45.68919" lon="5.83299">
        <ele>443</ele>
        <time>2018-09-01T15:00:27Z</time>
      </trkpt>
      <trkpt lat="45.68919" lon="5.83306">
        <ele>443</ele>
        <time>2018-09-01T15:00:27Z</time>
      </trkpt>
      <trkpt lat="45.6892" lon="5.83314">
        <ele>443</ele>
        <time>2018-09-01T15:00:27Z</time>
      </trkpt>
      <trkpt lat="45.68921" lon="5.83321">
        <ele>443</ele>
        <time>2018-09-01T15:00:27Z</time>
      </trkpt>
      <trkpt lat="45.68923" lon="5.8333">
        <ele>443</ele>
        <time>2018-09-01T15:00:43Z</time>
      </trkpt>
      <trkpt lat="45.68927" lon="5.83339">
        <ele>443</ele>
        <time>2018-09-01T15:00:43Z</time>
      </trkpt>
      <trkpt lat="45.6893" lon="5.83347">
        <ele>443</ele>
        <time>2018-09-01T15:00:43Z</time>
      </trkpt>
      <trkpt lat="45.68932" lon="5.83356">
        <ele>443</ele>
        <time>2018-09-01T15:00:43Z</time>
      </trkpt>
      <trkpt lat="45.68935" lon="5.83368">
        <ele>443</ele>
        <time>2018-09-01T15:01:11Z</time>
      </trkpt>
      <trkpt lat="45.68936" lon="5.83368">
        <ele>443</ele>
        <time>2018-09-01T15:01:11Z</time>
      </trkpt>
      <trkpt lat="45.68936" lon="5.83373">
        <ele>443</ele>
        <time>2018-09-01T15:01:11Z</time>
      </trkpt>
      <trkpt lat="45.68936" lon="5.83381">
        <ele>463</ele>
        <time>2018-09-01T15:01:11Z</time>
      </trkpt>
      <trkpt lat="45.68936" lon="5.83387">
        <ele>463</ele>
        <time>2018-09-01T15:01:11Z</time>
      </trkpt>
      <trkpt lat="45.68935" lon="5.83391">
        <ele>463</ele>
        <time>2018-09-01T15:01:27Z</time>
      </trkpt>
      <trkpt lat="45.68935" lon="5.83397">
        <ele>463</ele>
        <time>2018-09-01T15:01:27Z</time>
      </trkpt>
      <trkpt lat="45.68938" lon="5.83402">
        <ele>463</ele>
        <time>2018-09-01T15:01:27Z</time>
      </trkpt>
      <trkpt lat="45.68941" lon="5.8341">
        <ele>463</ele>
        <time>2018-09-01T15:01:27Z</time>
      </trkpt>
      <trkpt lat="45.68944" lon="5.83417">
        <ele>463</ele>
        <time>2018-09-01T15:01:43Z</time>
      </trkpt>
      <trkpt lat="45.68945" lon="5.83421">
        <ele>463</ele>
        <time>2018-09-01T15:01:43Z</time>
      </trkpt>
      <trkpt lat="45.68949" lon="5.83426">
        <ele>463</ele>
        <time>2018-09-01T15:01:43Z</time>
      </trkpt>
      <trkpt lat="45.68951" lon="5.83434">
        <ele>463</ele>
        <time>2018-09-01T15:01:43Z</time>
      </trkpt>
      <trkpt lat="45.68954" lon="5.83439">
        <ele>463</ele>
        <time>2018-09-01T15:02:03Z</time>
      </trkpt>
      <trkpt lat="45.68956" lon="5.83445">
        <ele>463</ele>
        <time>2018-09-01T15:02:03Z</time>
      </trkpt>
      <trkpt lat="45.68959" lon="5.83447">
        <ele>433</ele>
        <time>2018-09-01T15:02:03Z</time>
      </trkpt>
      <trkpt lat="45.68959" lon="5.83446">
        <ele>433</ele>
        <time>2018-09-01T15:02:03Z</time>
      </trkpt>
      <trkpt lat="45.68961" lon="5.8345">
        <ele>433</ele>
        <time>2018-09-01T15:02:03Z</time>
      </trkpt>
      <trkpt lat="45.68963" lon="5.83458">
        <ele>433</ele>
        <time>2018-09-01T15:02:19Z</time>
      </trkpt>
      <trkpt lat="45.68966" lon="5.83468">
        <ele>464</ele>
        <time>2018-09-01T15:02:19Z</time>
      </trkpt>
      <trkpt lat="45.6897" lon="5.83475">
        <ele>464</ele>
        <time>2018-09-01T15:02:19Z</time>
      </trkpt>
      <trkpt lat="45.68974" lon="5.83481">
        <ele>464</ele>
        <time>2018-09-01T15:02:19Z</time>
      </trkpt>
      <trkpt lat="45.68979" lon="5.83486">
        <ele>464</ele>
        <time>2018-09-01T15:02:35Z</time>
      </trkpt>
      <trkpt lat="45.68984" lon="5.8349">
        <ele>464</ele>
        <time>2018-09-01T15:02:35Z</time>
      </trkpt>
      <trkpt lat="45.6899" lon="5.83496">
        <ele>464</ele>
        <time>2018-09-01T15:02:35Z</time>
      </trkpt>
      <trkpt lat="45.69004" lon="5.83507">
        <ele>464</ele>
        <time>2018-09-01T15:02:35Z</time>
      </trkpt>
      <trkpt lat="45.69014" lon="5.83521">
        <ele>464</ele>
        <time>2018-09-01T15:03:15Z</time>
      </trkpt>
      <trkpt lat="45.69017" lon="5.83523">
        <ele>464</ele>
        <time>2018-09-01T15:03:15Z</time>
      </trkpt>
      <trkpt lat="45.69023" lon="5.83527">
        <ele>464</ele>
        <time>2018-09-01T15:03:15Z</time>
      </trkpt>
      <trkpt lat="45.69036" lon="5.8354">
        <ele>464</ele>
        <time>2018-09-01T15:03:15Z</time>
      </trkpt>
      <trkpt lat="45.69049" lon="5.83551">
        <ele>493</ele>
        <time>2018-09-01T15:03:15Z</time>
      </trkpt>
      <trkpt lat="45.69054" lon="5.83553">
        <ele>493</ele>
        <time>2018-09-01T15:03:35Z</time>
      </trkpt>
      <trkpt lat="45.69057" lon="5.83552">
        <ele>493</ele>
        <time>2018-09-01T15:03:35Z</time>
      </trkpt>
      <trkpt lat="45.69058" lon="5.83555">
        <ele>493</ele>
        <time>2018-09-01T15:03:35Z</time>
      </trkpt>
      <trkpt lat="45.69059" lon="5.83561">
        <ele>493</ele>
        <time>2018-09-01T15:03:35Z</time>
      </trkpt>
      <trkpt lat="45.69063" lon="5.83566">
        <ele>493</ele>
        <time>2018-09-01T15:03:35Z</time>
      </trkpt>
      <trkpt lat="45.69065" lon="5.83567">
        <ele>493</ele>
        <time>2018-09-01T15:03:51Z</time>
      </trkpt>
      <trkpt lat="45.69067" lon="5.83567">
        <ele>493</ele>
        <time>2018-09-01T15:03:51Z</time>
      </trkpt>
      <trkpt lat="45.6907" lon="5.8357">
        <ele>493</ele>
        <time>2018-09-01T15:03:51Z</time>
      </trkpt>
      <trkpt lat="45.69073" lon="5.83577">
        <ele>493</ele>
        <time>2018-09-01T15:03:51Z</time>
      </trkpt>
      <trkpt lat="45.69075" lon="5.83578">
        <ele>493</ele>
        <time>2018-09-01T15:04:07Z</time>
      </trkpt>
      <trkpt lat="45.69077" lon="5.83583">
        <ele>493</ele>
        <time>2018-09-01T15:04:07Z</time>
      </trkpt>
      <trkpt lat="45.69084" lon="5.83591">
        <ele>493</ele>
        <time>2018-09-01T15:04:07Z</time>
      </trkpt>
      <trkpt lat="45.69091" lon="5.83596">
        <ele>493</ele>
        <time>2018-09-01T15:04:07Z</time>
      </trkpt>
      <trkpt lat="45.69094" lon="5.83599">
        <ele>493</ele>
        <time>2018-09-01T15:04:23Z</time>
      </trkpt>
      <trkpt lat="45.69098" lon="5.83602">
        <ele>493</ele>
        <time>2018-09-01T15:04:23Z</time>
      </trkpt>
      <trkpt lat="45.69102" lon="5.83605">
        <ele>493</ele>
        <time>2018-09-01T15:04:23Z</time>
      </trkpt>
      <trkpt lat="45.69109" lon="5.83609">
        <ele>493</ele>
        <time>2018-09-01T15:04:23Z</time>
      </trkpt>
      <trkpt lat="45.69117" lon="5.83612">
        <ele>493</ele>
        <time>2018-09-01T15:04:39Z</time>
      </trkpt>
      <trkpt lat="45.69118" lon="5.8362">
        <ele>493</ele>
        <time>2018-09-01T15:04:39Z</time>
      </trkpt>
      <trkpt lat="45.69115" lon="5.83622">
        <ele>493</ele>
        <time>2018-09-01T15:04:39Z</time>
      </trkpt>
      <trkpt lat="45.69113" lon="5.83626">
        <ele>537</ele>
        <time>2018-09-01T15:04:39Z</time>
      </trkpt>
      <trkpt lat="45.69114" lon="5.83634">
        <ele>537</ele>
        <time>2018-09-01T15:04:55Z</time>
      </trkpt>
      <trkpt lat="45.6912" lon="5.83638">
        <ele>537</ele>
        <time>2018-09-01T15:04:55Z</time>
      </trkpt>
      <trkpt lat="45.6913" lon="5.83641">
        <ele>524</ele>
        <time>2018-09-01T15:04:55Z</time>
      </trkpt>
      <trkpt lat="45.6914" lon="5.83644">
        <ele>524</ele>
        <time>2018-09-01T15:04:55Z</time>
      </trkpt>
      <trkpt lat="45.69148" lon="5.83646">
        <ele>524</ele>
        <time>2018-09-01T15:05:11Z</time>
      </trkpt>
      <trkpt lat="45.69154" lon="5.83646">
        <ele>524</ele>
        <time>2018-09-01T15:05:11Z</time>
      </trkpt>
      <trkpt lat="45.69155" lon="5.83646">
        <ele>524</ele>
        <time>2018-09-01T15:05:11Z</time>
      </trkpt>
      <trkpt lat="45.6916" lon="5.83648">
        <ele>524</ele>
        <time>2018-09-01T15:05:11Z</time>
      </trkpt>
      <trkpt lat="45.69171" lon="5.83651">
        <ele>524</ele>
        <time>2018-09-01T15:05:27Z</time>
      </trkpt>
      <trkpt lat="45.69178" lon="5.83653">
        <ele>524</ele>
        <time>2018-09-01T15:05:27Z</time>
      </trkpt>
      <trkpt lat="45.6918" lon="5.83653">
        <ele>524</ele>
        <time>2018-09-01T15:05:27Z</time>
      </trkpt>
      <trkpt lat="45.69186" lon="5.83656">
        <ele>524</ele>
        <time>2018-09-01T15:05:27Z</time>
      </trkpt>
      <trkpt lat="45.69195" lon="5.83666">
        <ele>524</ele>
        <time>2018-09-01T15:05:51Z</time>
      </trkpt>
      <trkpt lat="45.69198" lon="5.83667">
        <ele>524</ele>
        <time>2018-09-01T15:05:51Z</time>
      </trkpt>
      <trkpt lat="45.69199" lon="5.83666">
        <ele>524</ele>
        <time>2018-09-01T15:05:51Z</time>
      </trkpt>
      <trkpt lat="45.69199" lon="5.83666">
        <ele>524</ele>
        <time>2018-09-01T15:05:51Z</time>
      </trkpt>
      <trkpt lat="45.69199" lon="5.83667">
        <ele>524</ele>
        <time>2018-09-01T15:05:51Z</time>
      </trkpt>
      <trkpt lat="45.69199" lon="5.83671">
        <ele>524</ele>
        <time>2018-09-01T15:06:11Z</time>
      </trkpt>
      <trkpt lat="45.69201" lon="5.83677">
        <ele>524</ele>
        <time>2018-09-01T15:06:11Z</time>
      </trkpt>
      <trkpt lat="45.69204" lon="5.83676">
        <ele>524</ele>
        <time>2018-09-01T15:06:11Z</time>
      </trkpt>
      <trkpt lat="45.69205" lon="5.83677">
        <ele>524</ele>
        <time>2018-09-01T15:06:11Z</time>
      </trkpt>
      <trkpt lat="45.69208" lon="5.83682">
        <ele>524</ele>
        <time>2018-09-01T15:06:11Z</time>
      </trkpt>
      <trkpt lat="45.69211" lon="5.83687">
        <ele>517</ele>
        <time>2018-09-01T15:06:27Z</time>
      </trkpt>
      <trkpt lat="45.69213" lon="5.83687">
        <ele>517</ele>
        <time>2018-09-01T15:06:27Z</time>
      </trkpt>
      <trkpt lat="45.69215" lon="5.8369">
        <ele>517</ele>
        <time>2018-09-01T15:06:27Z</time>
      </trkpt>
      <trkpt lat="45.6922" lon="5.83694">
        <ele>517</ele>
        <time>2018-09-01T15:06:27Z</time>
      </trkpt>
      <trkpt lat="45.69222" lon="5.83693">
        <ele>517</ele>
        <time>2018-09-01T15:06:43Z</time>
      </trkpt>
      <trkpt lat="45.69224" lon="5.83693">
        <ele>517</ele>
        <time>2018-09-01T15:06:43Z</time>
      </trkpt>
      <trkpt lat="45.69225" lon="5.83696">
        <ele>517</ele>
        <time>2018-09-01T15:06:43Z</time>
      </trkpt>
      <trkpt lat="45.69229" lon="5.83702">
        <ele>517</ele>
        <time>2018-09-01T15:06:43Z</time>
      </trkpt>
      <trkpt lat="45.69233" lon="5.83708">
        <ele>517</ele>
        <time>2018-09-01T15:06:59Z</time>
      </trkpt>
      <trkpt lat="45.69236" lon="5.83713">
        <ele>554</ele>
        <time>2018-09-01T15:06:59Z</time>
      </trkpt>
      <trkpt lat="45.69239" lon="5.83718">
        <ele>554</ele>
        <time>2018-09-01T15:06:59Z</time>
      </trkpt>
      <trkpt lat="45.69241" lon="5.83724">
        <ele>554</ele>
        <time>2018-09-01T15:06:59Z</time>
      </trkpt>
      <trkpt lat="45.69243" lon="5.83728">
        <ele>554</ele>
        <time>2018-09-01T15:07:15Z</time>
      </trkpt>
      <trkpt lat="45.69247" lon="5.83733">
        <ele>554</ele>
        <time>2018-09-01T15:07:15Z</time>
      </trkpt>
      <trkpt lat="45.6925" lon="5.83736">
        <ele>554</ele>
        <time>2018-09-01T15:07:15Z</time>
      </trkpt>
      <trkpt lat="45.69252" lon="5.83736">
        <ele>554</ele>
        <time>2018-09-01T15:07:15Z</time>
      </trkpt>
      <trkpt lat="45.69255" lon="5.83742">
        <ele>554</ele>
        <time>2018-09-01T15:07:31Z</time>
      </trkpt>
      <trkpt lat="45.69257" lon="5.83747">
        <ele>554</ele>
        <time>2018-09-01T15:07:31Z</time>
      </trkpt>
      <trkpt lat="45.69261" lon="5.83752">
        <ele>554</ele>
        <time>2018-09-01T15:07:31Z</time>
      </trkpt>
      <trkpt lat="45.69264" lon="5.83757">
        <ele>554</ele>
        <time>2018-09-01T15:07:31Z</time>
      </trkpt>
      <trkpt lat="45.69265" lon="5.83761">
        <ele>554</ele>
        <time>2018-09-01T15:07:47Z</time>
      </trkpt>
      <trkpt lat="45.69269" lon="5.83766">
        <ele>554</ele>
        <time>2018-09-01T15:07:47Z</time>
      </trkpt>
      <trkpt lat="45.69275" lon="5.8377">
        <ele>554</ele>
        <time>2018-09-01T15:07:47Z</time>
      </trkpt>
      <trkpt lat="45.69282" lon="5.83774">
        <ele>554</ele>
        <time>2018-09-01T15:07:47Z</time>
      </trkpt>
      <trkpt lat="45.69287" lon="5.83779">
        <ele>554</ele>
        <time>2018-09-01T15:08:03Z</time>
      </trkpt>
      <trkpt lat="45.69294" lon="5.83785">
        <ele>531</ele>
        <time>2018-09-01T15:08:03Z</time>
      </trkpt>
      <trkpt lat="45.693" lon="5.8379">
        <ele>531</ele>
        <time>2018-09-01T15:08:03Z</time>
      </trkpt>
      <trkpt lat="45.69305" lon="5.83795">
        <ele>570</ele>
        <time>2018-09-01T15:08:03Z</time>
      </trkpt>
      <trkpt lat="45.6931" lon="5.838">
        <ele>570</ele>
        <time>2018-09-01T15:08:19Z</time>
      </trkpt>
      <trkpt lat="45.69315" lon="5.83804">
        <ele>570</ele>
        <time>2018-09-01T15:08:19Z</time>
      </trkpt>
      <trkpt lat="45.69319" lon="5.8381">
        <ele>570</ele>
        <time>2018-09-01T15:08:19Z</time>
      </trkpt>
      <trkpt lat="45.69325" lon="5.83814">
        <ele>570</ele>
        <time>2018-09-01T15:08:19Z</time>
      </trkpt>
      <trkpt lat="45.69331" lon="5.83817">
        <ele>570</ele>
        <time>2018-09-01T15:08:35Z</time>
      </trkpt>
      <trkpt lat="45.69335" lon="5.83818">
        <ele>570</ele>
        <time>2018-09-01T15:08:35Z</time>
      </trkpt>
      <trkpt lat="45.6934" lon="5.83823">
        <ele>570</ele>
        <time>2018-09-01T15:08:35Z</time>
      </trkpt>
      <trkpt lat="45.69346" lon="5.83825">
        <ele>570</ele>
        <time>2018-09-01T15:08:35Z</time>
      </trkpt>
      <trkpt lat="45.69352" lon="5.8383">
        <ele>570</ele>
        <time>2018-09-01T15:08:51Z</time>
      </trkpt>
      <trkpt lat="45.69355" lon="5.83832">
        <ele>570</ele>
        <time>2018-09-01T15:08:51Z</time>
      </trkpt>
      <trkpt lat="45.69357" lon="5.83834">
        <ele>570</ele>
        <time>2018-09-01T15:08:51Z</time>
      </trkpt>
      <trkpt lat="45.69362" lon="5.83839">
        <ele>570</ele>
        <time>2018-09-01T15:08:51Z</time>
      </trkpt>
      <trkpt lat="45.69369" lon="5.83846">
        <ele>570</ele>
        <time>2018-09-01T15:09:07Z</time>
      </trkpt>
      <trkpt lat="45.69375" lon="5.83852">
        <ele>570</ele>
        <time>2018-09-01T15:09:07Z</time>
      </trkpt>
      <trkpt lat="45.69378" lon="5.83854">
        <ele>546</ele>
        <time>2018-09-01T15:09:07Z</time>
      </trkpt>
      <trkpt lat="45.69382" lon="5.83856">
        <ele>546</ele>
        <time>2018-09-01T15:09:07Z</time>
      </trkpt>
      <trkpt lat="45.69384" lon="5.83856">
        <ele>546</ele>
        <time>2018-09-01T15:09:23Z</time>
      </trkpt>
      <trkpt lat="45.69387" lon="5.83858">
        <ele>546</ele>
        <time>2018-09-01T15:09:23Z</time>
      </trkpt>
      <trkpt lat="45.69392" lon="5.83863">
        <ele>546</ele>
        <time>2018-09-01T15:09:23Z</time>
      </trkpt>
      <trkpt lat="45.69395" lon="5.83866">
        <ele>546</ele>
        <time>2018-09-01T15:09:23Z</time>
      </trkpt>
      <trkpt lat="45.694" lon="5.83869">
        <ele>546</ele>
        <time>2018-09-01T15:09:39Z</time>
      </trkpt>
      <trkpt lat="45.69406" lon="5.83874">
        <ele>546</ele>
        <time>2018-09-01T15:09:39Z</time>
      </trkpt>
      <trkpt lat="45.69412" lon="5.83879">
        <ele>580</ele>
        <time>2018-09-01T15:09:39Z</time>
      </trkpt>
      <trkpt lat="45.69419" lon="5.83883">
        <ele>580</ele>
        <time>2018-09-01T15:09:39Z</time>
      </trkpt>
      <trkpt lat="45.69426" lon="5.83887">
        <ele>580</ele>
        <time>2018-09-01T15:09:55Z</time>
      </trkpt>
      <trkpt lat="45.69433" lon="5.83893">
        <ele>580</ele>
        <time>2018-09-01T15:09:55Z</time>
      </trkpt>
      <trkpt lat="45.6944" lon="5.83898">
        <ele>580</ele>
        <time>2018-09-01T15:09:55Z</time>
      </trkpt>
      <trkpt lat="45.69446" lon="5.83902">
        <ele>580</ele>
        <time>2018-09-01T15:09:55Z</time>
      </trkpt>
      <trkpt lat="45.69452" lon="5.83905">
        <ele>580</ele>
        <time>2018-09-01T15:10:11Z</time>
      </trkpt>
      <trkpt lat="45.69458" lon="5.83909">
        <ele>580</ele>
        <time>2018-09-01T15:10:11Z</time>
      </trkpt>
      <trkpt lat="45.69462" lon="5.83913">
        <ele>567</ele>
        <time>2018-09-01T15:10:11Z</time>
      </trkpt>
      <trkpt lat="45.69471" lon="5.83919">
        <ele>567</ele>
        <time>2018-09-01T15:10:11Z</time>
      </trkpt>
      <trkpt lat="45.69478" lon="5.83922">
        <ele>567</ele>
        <time>2018-09-01T15:10:27Z</time>
      </trkpt>
      <trkpt lat="45.69484" lon="5.83927">
        <ele>567</ele>
        <time>2018-09-01T15:10:27Z</time>
      </trkpt>
      <trkpt lat="45.69487" lon="5.83928">
        <ele>567</ele>
        <time>2018-09-01T15:10:27Z</time>
      </trkpt>
      <trkpt lat="45.69491" lon="5.83928">
        <ele>567</ele>
        <time>2018-09-01T15:10:27Z</time>
      </trkpt>
      <trkpt lat="45.69495" lon="5.83928">
        <ele>567</ele>
        <time>2018-09-01T15:10:43Z</time>
      </trkpt>
      <trkpt lat="45.695" lon="5.83928">
        <ele>567</ele>
        <time>2018-09-01T15:10:43Z</time>
      </trkpt>
      <trkpt lat="45.69504" lon="5.83927">
        <ele>567</ele>
        <time>2018-09-01T15:10:43Z</time>
      </trkpt>
      <trkpt lat="45.6951" lon="5.83927">
        <ele>567</ele>
        <time>2018-09-01T15:10:43Z</time>
      </trkpt>
      <trkpt lat="45.69515" lon="5.83929">
        <ele>567</ele>
        <time>2018-09-01T15:10:59Z</time>
      </trkpt>
      <trkpt lat="45.6952" lon="5.83933">
        <ele>567</ele>
        <time>2018-09-01T15:10:59Z</time>
      </trkpt>
      <trkpt lat="45.69525" lon="5.83936">
        <ele>567</ele>
        <time>2018-09-01T15:10:59Z</time>
      </trkpt>
      <trkpt lat="45.69531" lon="5.83941">
        <ele>567</ele>
        <time>2018-09-01T15:10:59Z</time>
      </trkpt>
      <trkpt lat="45.69537" lon="5.83945">
        <ele>567</ele>
        <time>2018-09-01T15:11:15Z</time>
      </trkpt>
      <trkpt lat="45.69541" lon="5.83951">
        <ele>567</ele>
        <time>2018-09-01T15:11:15Z</time>
      </trkpt>
      <trkpt lat="45.69547" lon="5.83956">
        <ele>563</ele>
        <time>2018-09-01T15:11:15Z</time>
      </trkpt>
      <trkpt lat="45.6955" lon="5.83957">
        <ele>563</ele>
        <time>2018-09-01T15:11:15Z</time>
      </trkpt>
      <trkpt lat="45.69553" lon="5.8396">
        <ele>571</ele>
        <time>2018-09-01T15:11:35Z</time>
      </trkpt>
      <trkpt lat="45.69556" lon="5.83962">
        <ele>571</ele>
        <time>2018-09-01T15:11:35Z</time>
      </trkpt>
      <trkpt lat="45.69558" lon="5.83961">
        <ele>571</ele>
        <time>2018-09-01T15:11:35Z</time>
      </trkpt>
      <trkpt lat="45.69559" lon="5.8396">
        <ele>571</ele>
        <time>2018-09-01T15:11:35Z</time>
      </trkpt>
      <trkpt lat="45.69563" lon="5.83962">
        <ele>571</ele>
        <time>2018-09-01T15:11:35Z</time>
      </trkpt>
      <trkpt lat="45.69564" lon="5.83973">
        <ele>571</ele>
        <time>2018-09-01T15:11:59Z</time>
      </trkpt>
      <trkpt lat="45.69563" lon="5.83976">
        <ele>571</ele>
        <time>2018-09-01T15:11:59Z</time>
      </trkpt>
      <trkpt lat="45.69563" lon="5.83979">
        <ele>571</ele>
        <time>2018-09-01T15:11:59Z</time>
      </trkpt>
      <trkpt lat="45.69562" lon="5.8398">
        <ele>571</ele>
        <time>2018-09-01T15:11:59Z</time>
      </trkpt>
      <trkpt lat="45.69561" lon="5.83984">
        <ele>571</ele>
        <time>2018-09-01T15:11:59Z</time>
      </trkpt>
      <trkpt lat="45.69562" lon="5.83984">
        <ele>571</ele>
        <time>2018-09-01T15:12:23Z</time>
      </trkpt>
      <trkpt lat="45.69561" lon="5.8399">
        <ele>571</ele>
        <time>2018-09-01T15:12:23Z</time>
      </trkpt>
      <trkpt lat="45.6956" lon="5.83995">
        <ele>571</ele>
        <time>2018-09-01T15:12:23Z</time>
      </trkpt>
      <trkpt lat="45.69561" lon="5.83998">
        <ele>571</ele>
        <time>2018-09-01T15:12:23Z</time>
      </trkpt>
      <trkpt lat="45.6956" lon="5.84001">
        <ele>571</ele>
        <time>2018-09-01T15:12:23Z</time>
      </trkpt>
      <trkpt lat="45.69558" lon="5.84005">
        <ele>571</ele>
        <time>2018-09-01T15:12:39Z</time>
      </trkpt>
      <trkpt lat="45.6956" lon="5.84001">
        <ele>571</ele>
        <time>2018-09-01T15:12:39Z</time>
      </trkpt>
      <trkpt lat="45.69563" lon="5.83999">
        <ele>571</ele>
        <time>2018-09-01T15:12:39Z</time>
      </trkpt>
      <trkpt lat="45.69566" lon="5.83996">
        <ele>571</ele>
        <time>2018-09-01T15:12:39Z</time>
      </trkpt>
      <trkpt lat="45.69568" lon="5.83995">
        <ele>571</ele>
        <time>2018-09-01T15:13:07Z</time>
      </trkpt>
      <trkpt lat="45.69569" lon="5.83995">
        <ele>571</ele>
        <time>2018-09-01T15:13:07Z</time>
      </trkpt>
      <trkpt lat="45.69569" lon="5.83995">
        <ele>571</ele>
        <time>2018-09-01T15:13:07Z</time>
      </trkpt>
      <trkpt lat="45.69569" lon="5.84001">
        <ele>571</ele>
        <time>2018-09-01T15:13:07Z</time>
      </trkpt>
      <trkpt lat="45.69571" lon="5.84008">
        <ele>571</ele>
        <time>2018-09-01T15:13:07Z</time>
      </trkpt>
      <trkpt lat="45.69574" lon="5.84013">
        <ele>571</ele>
        <time>2018-09-01T15:13:27Z</time>
      </trkpt>
      <trkpt lat="45.69576" lon="5.84015">
        <ele>571</ele>
        <time>2018-09-01T15:13:27Z</time>
      </trkpt>
      <trkpt lat="45.6958" lon="5.84013">
        <ele>571</ele>
        <time>2018-09-01T15:13:27Z</time>
      </trkpt>
      <trkpt lat="45.6958" lon="5.84019">
        <ele>571</ele>
        <time>2018-09-01T15:13:27Z</time>
      </trkpt>
      <trkpt lat="45.69581" lon="5.84025">
        <ele>571</ele>
        <time>2018-09-01T15:13:27Z</time>
      </trkpt>
      <trkpt lat="45.69581" lon="5.84031">
        <ele>571</ele>
        <time>2018-09-01T15:13:47Z</time>
      </trkpt>
      <trkpt lat="45.69582" lon="5.84035">
        <ele>571</ele>
        <time>2018-09-01T15:13:47Z</time>
      </trkpt>
      <trkpt lat="45.69581" lon="5.84037">
        <ele>571</ele>
        <time>2018-09-01T15:13:47Z</time>
      </trkpt>
      <trkpt lat="45.69582" lon="5.8404">
        <ele>571</ele>
        <time>2018-09-01T15:13:47Z</time>
      </trkpt>
      <trkpt lat="45.69584" lon="5.84044">
        <ele>578</ele>
        <time>2018-09-01T15:13:47Z</time>
      </trkpt>
      <trkpt lat="45.69586" lon="5.84049">
        <ele>578</ele>
        <time>2018-09-01T15:14:03Z</time>
      </trkpt>
      <trkpt lat="45.69587" lon="5.84054">
        <ele>578</ele>
        <time>2018-09-01T15:14:03Z</time>
      </trkpt>
      <trkpt lat="45.69588" lon="5.84059">
        <ele>578</ele>
        <time>2018-09-01T15:14:03Z</time>
      </trkpt>
      <trkpt lat="45.69588" lon="5.84065">
        <ele>578</ele>
        <time>2018-09-01T15:14:03Z</time>
      </trkpt>
      <trkpt lat="45.69587" lon="5.84071">
        <ele>578</ele>
        <time>2018-09-01T15:14:19Z</time>
      </trkpt>
      <trkpt lat="45.69586" lon="5.84077">
        <ele>578</ele>
        <time>2018-09-01T15:14:19Z</time>
      </trkpt>
      <trkpt lat="45.69587" lon="5.84082">
        <ele>578</ele>
        <time>2018-09-01T15:14:19Z</time>
      </trkpt>
      <trkpt lat="45.69587" lon="5.84087">
        <ele>578</ele>
        <time>2018-09-01T15:14:19Z</time>
      </trkpt>
      <trkpt lat="45.69585" lon="5.8409">
        <ele>578</ele>
        <time>2018-09-01T15:14:35Z</time>
      </trkpt>
      <trkpt lat="45.69584" lon="5.84095">
        <ele>578</ele>
        <time>2018-09-01T15:14:35Z</time>
      </trkpt>
      <trkpt lat="45.69582" lon="5.841">
        <ele>578</ele>
        <time>2018-09-01T15:14:35Z</time>
      </trkpt>
      <trkpt lat="45.69581" lon="5.84106">
        <ele>578</ele>
        <time>2018-09-01T15:14:35Z</time>
      </trkpt>
      <trkpt lat="45.6958" lon="5.84114">
        <ele>578</ele>
        <time>2018-09-01T15:15:51Z</time>
      </trkpt>
      <trkpt lat="45.6958" lon="5.84114">
        <ele>578</ele>
        <time>2018-09-01T15:15:51Z</time>
      </trkpt>
      <trkpt lat="45.6958" lon="5.84118">
        <ele>578</ele>
        <time>2018-09-01T15:15:51Z</time>
      </trkpt>
      <trkpt lat="45.6958" lon="5.84121">
        <ele>578</ele>
        <time>2018-09-01T15:15:51Z</time>
      </trkpt>
      <trkpt lat="45.69581" lon="5.84123">
        <ele>578</ele>
        <time>2018-09-01T15:15:51Z</time>
      </trkpt>
      <trkpt lat="45.69578" lon="5.8413">
        <ele>572</ele>
        <time>2018-09-01T15:16:19Z</time>
      </trkpt>
      <trkpt lat="45.69579" lon="5.84132">
        <ele>572</ele>
        <time>2018-09-01T15:16:19Z</time>
      </trkpt>
      <trkpt lat="45.69579" lon="5.84135">
        <ele>572</ele>
        <time>2018-09-01T15:16:19Z</time>
      </trkpt>
      <trkpt lat="45.69579" lon="5.84135">
        <ele>572</ele>
        <time>2018-09-01T15:16:19Z</time>
      </trkpt>
      <trkpt lat="45.69578" lon="5.84138">
        <ele>572</ele>
        <time>2018-09-01T15:16:19Z</time>
      </trkpt>
      <trkpt lat="45.69575" lon="5.8414">
        <ele>572</ele>
        <time>2018-09-01T15:16:39Z</time>
      </trkpt>
      <trkpt lat="45.69572" lon="5.84141">
        <ele>572</ele>
        <time>2018-09-01T15:16:39Z</time>
      </trkpt>
      <trkpt lat="45.69571" lon="5.84142">
        <ele>572</ele>
        <time>2018-09-01T15:16:39Z</time>
      </trkpt>
      <trkpt lat="45.6957" lon="5.84145">
        <ele>572</ele>
        <time>2018-09-01T15:16:39Z</time>
      </trkpt>
      <trkpt lat="45.69567" lon="5.84147">
        <ele>572</ele>
        <time>2018-09-01T15:16:39Z</time>
      </trkpt>
      <trkpt lat="45.69563" lon="5.84147">
        <ele>572</ele>
        <time>2018-09-01T15:16:55Z</time>
      </trkpt>
      <trkpt lat="45.69559" lon="5.84147">
        <ele>572</ele>
        <time>2018-09-01T15:16:55Z</time>
      </trkpt>
      <trkpt lat="45.69555" lon="5.84149">
        <ele>572</ele>
        <time>2018-09-01T15:16:55Z</time>
      </trkpt>
      <trkpt lat="45.6955" lon="5.84149">
        <ele>572</ele>
        <time>2018-09-01T15:16:55Z</time>
      </trkpt>
      <trkpt lat="45.69546" lon="5.84148">
        <ele>572</ele>
        <time>2018-09-01T15:17:11Z</time>
      </trkpt>
      <trkpt lat="45.69541" lon="5.84148">
        <ele>589</ele>
        <time>2018-09-01T15:17:11Z</time>
      </trkpt>
      <trkpt lat="45.69538" lon="5.84148">
        <ele>589</ele>
        <time>2018-09-01T15:17:11Z</time>
      </trkpt>
      <trkpt lat="45.69535" lon="5.84148">
        <ele>589</ele>
        <time>2018-09-01T15:17:11Z</time>
      </trkpt>
      <trkpt lat="45.6953" lon="5.8415">
        <ele>589</ele>
        <time>2018-09-01T15:17:27Z</time>
      </trkpt>
      <trkpt lat="45.69524" lon="5.8415">
        <ele>589</ele>
        <time>2018-09-01T15:17:27Z</time>
      </trkpt>
      <trkpt lat="45.6952" lon="5.8415">
        <ele>589</ele>
        <time>2018-09-01T15:17:27Z</time>
      </trkpt>
      <trkpt lat="45.69514" lon="5.84153">
        <ele>589</ele>
        <time>2018-09-01T15:17:27Z</time>
      </trkpt>
      <trkpt lat="45.69508" lon="5.84154">
        <ele>589</ele>
        <time>2018-09-01T15:17:43Z</time>
      </trkpt>
      <trkpt lat="45.69503" lon="5.84152">
        <ele>589</ele>
        <time>2018-09-01T15:17:43Z</time>
      </trkpt>
      <trkpt lat="45.69497" lon="5.84154">
        <ele>589</ele>
        <time>2018-09-01T15:17:43Z</time>
      </trkpt>
      <trkpt lat="45.69491" lon="5.84154">
        <ele>589</ele>
        <time>2018-09-01T15:17:43Z</time>
      </trkpt>
      <trkpt lat="45.69484" lon="5.84154">
        <ele>589</ele>
        <time>2018-09-01T15:17:59Z</time>
      </trkpt>
      <trkpt lat="45.69478" lon="5.84153">
        <ele>589</ele>
        <time>2018-09-01T15:17:59Z</time>
      </trkpt>
      <trkpt lat="45.69473" lon="5.84154">
        <ele>589</ele>
        <time>2018-09-01T15:17:59Z</time>
      </trkpt>
      <trkpt lat="45.6947" lon="5.84158">
        <ele>589</ele>
        <time>2018-09-01T15:17:59Z</time>
      </trkpt>
      <trkpt lat="45.69468" lon="5.84163">
        <ele>589</ele>
        <time>2018-09-01T15:18:15Z</time>
      </trkpt>
      <trkpt lat="45.69467" lon="5.84167">
        <ele>589</ele>
        <time>2018-09-01T15:18:15Z</time>
      </trkpt>
      <trkpt lat="45.69465" lon="5.8417">
        <ele>589</ele>
        <time>2018-09-01T15:18:15Z</time>
      </trkpt>
      <trkpt lat="45.69464" lon="5.84175">
        <ele>589</ele>
        <time>2018-09-01T15:18:15Z</time>
      </trkpt>
      <trkpt lat="45.69463" lon="5.84179">
        <ele>589</ele>
        <time>2018-09-01T15:18:31Z</time>
      </trkpt>
      <trkpt lat="45.69461" lon="5.84184">
        <ele>589</ele>
        <time>2018-09-01T15:18:31Z</time>
      </trkpt>
      <trkpt lat="45.69458" lon="5.84187">
        <ele>602</ele>
        <time>2018-09-01T15:18:31Z</time>
      </trkpt>
      <trkpt lat="45.69455" lon="5.84193">
        <ele>602</ele>
        <time>2018-09-01T15:18:31Z</time>
      </trkpt>
      <trkpt lat="45.69452" lon="5.84198">
        <ele>602</ele>
        <time>2018-09-01T15:18:47Z</time>
      </trkpt>
      <trkpt lat="45.69448" lon="5.84203">
        <ele>602</ele>
        <time>2018-09-01T15:18:47Z</time>
      </trkpt>
      <trkpt lat="45.69445" lon="5.84205">
        <ele>602</ele>
        <time>2018-09-01T15:18:47Z</time>
      </trkpt>
      <trkpt lat="45.69441" lon="5.84205">
        <ele>602</ele>
        <time>2018-09-01T15:18:47Z</time>
      </trkpt>
      <trkpt lat="45.69437" lon="5.84207">
        <ele>602</ele>
        <time>2018-09-01T15:19:03Z</time>
      </trkpt>
      <trkpt lat="45.69433" lon="5.84209">
        <ele>594</ele>
        <time>2018-09-01T15:19:03Z</time>
      </trkpt>
      <trkpt lat="45.69426" lon="5.84211">
        <ele>594</ele>
        <time>2018-09-01T15:19:03Z</time>
      </trkpt>
      <trkpt lat="45.69419" lon="5.84215">
        <ele>594</ele>
        <time>2018-09-01T15:19:03Z</time>
      </trkpt>
      <trkpt lat="45.69412" lon="5.84217">
        <ele>594</ele>
        <time>2018-09-01T15:19:19Z</time>
      </trkpt>
      <trkpt lat="45.69407" lon="5.84219">
        <ele>594</ele>
        <time>2018-09-01T15:19:19Z</time>
      </trkpt>
      <trkpt lat="45.69401" lon="5.84221">
        <ele>594</ele>
        <time>2018-09-01T15:19:19Z</time>
      </trkpt>
      <trkpt lat="45.69399" lon="5.84222">
        <ele>594</ele>
        <time>2018-09-01T15:19:19Z</time>
      </trkpt>
      <trkpt lat="45.69394" lon="5.84224">
        <ele>594</ele>
        <time>2018-09-01T15:19:35Z</time>
      </trkpt>
      <trkpt lat="45.69389" lon="5.84226">
        <ele>594</ele>
        <time>2018-09-01T15:19:35Z</time>
      </trkpt>
      <trkpt lat="45.69386" lon="5.8423">
        <ele>594</ele>
        <time>2018-09-01T15:19:35Z</time>
      </trkpt>
      <trkpt lat="45.69383" lon="5.84239">
        <ele>594</ele>
        <time>2018-09-01T15:19:35Z</time>
      </trkpt>
      <trkpt lat="45.6938" lon="5.84243">
        <ele>594</ele>
        <time>2018-09-01T15:19:51Z</time>
      </trkpt>
      <trkpt lat="45.69379" lon="5.84245">
        <ele>594</ele>
        <time>2018-09-01T15:19:51Z</time>
      </trkpt>
      <trkpt lat="45.69377" lon="5.84249">
        <ele>594</ele>
        <time>2018-09-01T15:19:51Z</time>
      </trkpt>
      <trkpt lat="45.69377" lon="5.84256">
        <ele>594</ele>
        <time>2018-09-01T15:19:51Z</time>
      </trkpt>
      <trkpt lat="45.69377" lon="5.84265">
        <ele>594</ele>
        <time>2018-09-01T15:20:07Z</time>
      </trkpt>
      <trkpt lat="45.69376" lon="5.84273">
        <ele>594</ele>
        <time>2018-09-01T15:20:07Z</time>
      </trkpt>
      <trkpt lat="45.69375" lon="5.84281">
        <ele>612</ele>
        <time>2018-09-01T15:20:07Z</time>
      </trkpt>
      <trkpt lat="45.69373" lon="5.84289">
        <ele>612</ele>
        <time>2018-09-01T15:20:07Z</time>
      </trkpt>
      <trkpt lat="45.6937" lon="5.84289">
        <ele>612</ele>
        <time>2018-09-01T15:20:23Z</time>
      </trkpt>
      <trkpt lat="45.69364" lon="5.84287">
        <ele>612</ele>
        <time>2018-09-01T15:20:23Z</time>
      </trkpt>
      <trkpt lat="45.6936" lon="5.84285">
        <ele>612</ele>
        <time>2018-09-01T15:20:23Z</time>
      </trkpt>
      <trkpt lat="45.69355" lon="5.84284">
        <ele>612</ele>
        <time>2018-09-01T15:20:23Z</time>
      </trkpt>
      <trkpt lat="45.69351" lon="5.84282">
        <ele>612</ele>
        <time>2018-09-01T15:20:39Z</time>
      </trkpt>
      <trkpt lat="45.69347" lon="5.84279">
        <ele>612</ele>
        <time>2018-09-01T15:20:39Z</time>
      </trkpt>
      <trkpt lat="45.69342" lon="5.84275">
        <ele>612</ele>
        <time>2018-09-01T15:20:39Z</time>
      </trkpt>
      <trkpt lat="45.69338" lon="5.84272">
        <ele>612</ele>
        <time>2018-09-01T15:20:39Z</time>
      </trkpt>
      <trkpt lat="45.69334" lon="5.84268">
        <ele>612</ele>
        <time>2018-09-01T15:20:55Z</time>
      </trkpt>
      <trkpt lat="45.69329" lon="5.84264">
        <ele>612</ele>
        <time>2018-09-01T15:20:55Z</time>
      </trkpt>
      <trkpt lat="45.69324" lon="5.84265">
        <ele>612</ele>
        <time>2018-09-01T15:20:55Z</time>
      </trkpt>
      <trkpt lat="45.69321" lon="5.84267">
        <ele>612</ele>
        <time>2018-09-01T15:20:55Z</time>
      </trkpt>
      <trkpt lat="45.69321" lon="5.84272">
        <ele>612</ele>
        <time>2018-09-01T15:21:11Z</time>
      </trkpt>
      <trkpt lat="45.69325" lon="5.84276">
        <ele>612</ele>
        <time>2018-09-01T15:21:11Z</time>
      </trkpt>
      <trkpt lat="45.69327" lon="5.84281">
        <ele>612</ele>
        <time>2018-09-01T15:21:11Z</time>
      </trkpt>
      <trkpt lat="45.69329" lon="5.84287">
        <ele>612</ele>
        <time>2018-09-01T15:21:11Z</time>
      </trkpt>
      <trkpt lat="45.69331" lon="5.84292">
        <ele>614</ele>
        <time>2018-09-01T15:21:27Z</time>
      </trkpt>
      <trkpt lat="45.69334" lon="5.84299">
        <ele>614</ele>
        <time>2018-09-01T15:21:27Z</time>
      </trkpt>
      <trkpt lat="45.69337" lon="5.84307">
        <ele>614</ele>
        <time>2018-09-01T15:21:27Z</time>
      </trkpt>
      <trkpt lat="45.69341" lon="5.84314">
        <ele>614</ele>
        <time>2018-09-01T15:21:27Z</time>
      </trkpt>
      <trkpt lat="45.69343" lon="5.84321">
        <ele>614</ele>
        <time>2018-09-01T15:21:43Z</time>
      </trkpt>
      <trkpt lat="45.69345" lon="5.84329">
        <ele>614</ele>
        <time>2018-09-01T15:21:43Z</time>
      </trkpt>
      <trkpt lat="45.69347" lon="5.84337">
        <ele>614</ele>
        <time>2018-09-01T15:21:43Z</time>
      </trkpt>
      <trkpt lat="45.69348" lon="5.84345">
        <ele>614</ele>
        <time>2018-09-01T15:21:43Z</time>
      </trkpt>
      <trkpt lat="45.69348" lon="5.84353">
        <ele>614</ele>
        <time>2018-09-01T15:21:59Z</time>
      </trkpt>
      <trkpt lat="45.69348" lon="5.84361">
        <ele>614</ele>
        <time>2018-09-01T15:21:59Z</time>
      </trkpt>
      <trkpt lat="45.69349" lon="5.84368">
        <ele>614</ele>
        <time>2018-09-01T15:21:59Z</time>
      </trkpt>
      <trkpt lat="45.6935" lon="5.84376">
        <ele>628</ele>
        <time>2018-09-01T15:21:59Z</time>
      </trkpt>
      <trkpt lat="45.69351" lon="5.84383">
        <ele>628</ele>
        <time>2018-09-01T15:22:15Z</time>
      </trkpt>
      <trkpt lat="45.69351" lon="5.84391">
        <ele>628</ele>
        <time>2018-09-01T15:22:15Z</time>
      </trkpt>
      <trkpt lat="45.69351" lon="5.84398">
        <ele>628</ele>
        <time>2018-09-01T15:22:15Z</time>
      </trkpt>
      <trkpt lat="45.69351" lon="5.84405">
        <ele>628</ele>
        <time>2018-09-01T15:22:15Z</time>
      </trkpt>
      <trkpt lat="45.69349" lon="5.84412">
        <ele>628</ele>
        <time>2018-09-01T15:22:31Z</time>
      </trkpt>
      <trkpt lat="45.69347" lon="5.8442">
        <ele>628</ele>
        <time>2018-09-01T15:22:31Z</time>
      </trkpt>
      <trkpt lat="45.69345" lon="5.84427">
        <ele>628</ele>
        <time>2018-09-01T15:22:31Z</time>
      </trkpt>
      <trkpt lat="45.69342" lon="5.84433">
        <ele>628</ele>
        <time>2018-09-01T15:22:31Z</time>
      </trkpt>
      <trkpt lat="45.6934" lon="5.84439">
        <ele>628</ele>
        <time>2018-09-01T15:22:47Z</time>
      </trkpt>
      <trkpt lat="45.69339" lon="5.84446">
        <ele>628</ele>
        <time>2018-09-01T15:22:47Z</time>
      </trkpt>
      <trkpt lat="45.69338" lon="5.84454">
        <ele>628</ele>
        <time>2018-09-01T15:22:47Z</time>
      </trkpt>
      <trkpt lat="45.69337" lon="5.84461">
        <ele>641</ele>
        <time>2018-09-01T15:22:47Z</time>
      </trkpt>
      <trkpt lat="45.69339" lon="5.84478">
        <ele>641</ele>
        <time>2018-09-01T15:23:19Z</time>
      </trkpt>
      <trkpt lat="45.6934" lon="5.8448">
        <ele>641</ele>
        <time>2018-09-01T15:23:19Z</time>
      </trkpt>
      <trkpt lat="45.69345" lon="5.84484">
        <ele>641</ele>
        <time>2018-09-01T15:23:19Z</time>
      </trkpt>
      <trkpt lat="45.69348" lon="5.84489">
        <ele>641</ele>
        <time>2018-09-01T15:23:19Z</time>
      </trkpt>
      <trkpt lat="45.69357" lon="5.84495">
        <ele>641</ele>
        <time>2018-09-01T15:23:19Z</time>
      </trkpt>
      <trkpt lat="45.69366" lon="5.84498">
        <ele>641</ele>
        <time>2018-09-01T15:23:35Z</time>
      </trkpt>
      <trkpt lat="45.69371" lon="5.84499">
        <ele>641</ele>
        <time>2018-09-01T15:23:35Z</time>
      </trkpt>
      <trkpt lat="45.69375" lon="5.845">
        <ele>641</ele>
        <time>2018-09-01T15:23:35Z</time>
      </trkpt>
      <trkpt lat="45.69376" lon="5.84505">
        <ele>624</ele>
        <time>2018-09-01T15:23:35Z</time>
      </trkpt>
      <trkpt lat="45.69377" lon="5.84512">
        <ele>624</ele>
        <time>2018-09-01T15:23:51Z</time>
      </trkpt>
      <trkpt lat="45.69376" lon="5.84518">
        <ele>624</ele>
        <time>2018-09-01T15:23:51Z</time>
      </trkpt>
      <trkpt lat="45.69375" lon="5.84525">
        <ele>624</ele>
        <time>2018-09-01T15:23:51Z</time>
      </trkpt>
      <trkpt lat="45.69373" lon="5.84531">
        <ele>641</ele>
        <time>2018-09-01T15:23:51Z</time>
      </trkpt>
      <trkpt lat="45.6937" lon="5.84536">
        <ele>641</ele>
        <time>2018-09-01T15:24:07Z</time>
      </trkpt>
      <trkpt lat="45.69369" lon="5.84541">
        <ele>641</ele>
        <time>2018-09-01T15:24:07Z</time>
      </trkpt>
      <trkpt lat="45.69367" lon="5.84545">
        <ele>645</ele>
        <time>2018-09-01T15:24:07Z</time>
      </trkpt>
      <trkpt lat="45.69364" lon="5.84549">
        <ele>645</ele>
        <time>2018-09-01T15:24:07Z</time>
      </trkpt>
      <trkpt lat="45.69361" lon="5.84555">
        <ele>645</ele>
        <time>2018-09-01T15:24:23Z</time>
      </trkpt>
      <trkpt lat="45.69359" lon="5.8456">
        <ele>645</ele>
        <time>2018-09-01T15:24:23Z</time>
      </trkpt>
      <trkpt lat="45.69356" lon="5.84565">
        <ele>645</ele>
        <time>2018-09-01T15:24:23Z</time>
      </trkpt>
      <trkpt lat="45.69352" lon="5.84571">
        <ele>645</ele>
        <time>2018-09-01T15:24:23Z</time>
      </trkpt>
      <trkpt lat="45.69348" lon="5.84576">
        <ele>645</ele>
        <time>2018-09-01T15:24:39Z</time>
      </trkpt>
      <trkpt lat="45.69344" lon="5.84582">
        <ele>645</ele>
        <time>2018-09-01T15:24:39Z</time>
      </trkpt>
      <trkpt lat="45.69341" lon="5.84589">
        <ele>645</ele>
        <time>2018-09-01T15:24:39Z</time>
      </trkpt>
      <trkpt lat="45.69338" lon="5.84595">
        <ele>645</ele>
        <time>2018-09-01T15:24:39Z</time>
      </trkpt>
      <trkpt lat="45.69335" lon="5.84602">
        <ele>645</ele>
        <time>2018-09-01T15:24:55Z</time>
      </trkpt>
      <trkpt lat="45.69331" lon="5.84607">
        <ele>645</ele>
        <time>2018-09-01T15:24:55Z</time>
      </trkpt>
      <trkpt lat="45.69328" lon="5.84614">
        <ele>645</ele>
        <time>2018-09-01T15:24:55Z</time>
      </trkpt>
      <trkpt lat="45.69326" lon="5.84621">
        <ele>645</ele>
        <time>2018-09-01T15:24:55Z</time>
      </trkpt>
      <trkpt lat="45.69323" lon="5.84629">
        <ele>649</ele>
        <time>2018-09-01T15:25:11Z</time>
      </trkpt>
      <trkpt lat="45.69319" lon="5.84637">
        <ele>649</ele>
        <time>2018-09-01T15:25:11Z</time>
      </trkpt>
      <trkpt lat="45.69317" lon="5.84645">
        <ele>649</ele>
        <time>2018-09-01T15:25:11Z</time>
      </trkpt>
      <trkpt lat="45.69314" lon="5.84652">
        <ele>649</ele>
        <time>2018-09-01T15:25:11Z</time>
      </trkpt>
      <trkpt lat="45.69313" lon="5.84661">
        <ele>649</ele>
        <time>2018-09-01T15:25:27Z</time>
      </trkpt>
      <trkpt lat="45.69312" lon="5.84669">
        <ele>649</ele>
        <time>2018-09-01T15:25:27Z</time>
      </trkpt>
      <trkpt lat="45.6931" lon="5.84675">
        <ele>649</ele>
        <time>2018-09-01T15:25:27Z</time>
      </trkpt>
      <trkpt lat="45.69308" lon="5.84681">
        <ele>649</ele>
        <time>2018-09-01T15:25:27Z</time>
      </trkpt>
      <trkpt lat="45.69307" lon="5.84688">
        <ele>649</ele>
        <time>2018-09-01T15:25:43Z</time>
      </trkpt>
      <trkpt lat="45.69305" lon="5.84694">
        <ele>649</ele>
        <time>2018-09-01T15:25:43Z</time>
      </trkpt>
      <trkpt lat="45.69303" lon="5.84699">
        <ele>649</ele>
        <time>2018-09-01T15:25:43Z</time>
      </trkpt>
      <trkpt lat="45.69301" lon="5.84704">
        <ele>649</ele>
        <time>2018-09-01T15:25:43Z</time>
      </trkpt>
      <trkpt lat="45.69299" lon="5.8471">
        <ele>669</ele>
        <time>2018-09-01T15:25:59Z</time>
      </trkpt>
      <trkpt lat="45.69296" lon="5.84716">
        <ele>669</ele>
        <time>2018-09-01T15:25:59Z</time>
      </trkpt>
      <trkpt lat="45.69294" lon="5.84722">
        <ele>669</ele>
        <time>2018-09-01T15:25:59Z</time>
      </trkpt>
      <trkpt lat="45.69293" lon="5.84727">
        <ele>669</ele>
        <time>2018-09-01T15:25:59Z</time>
      </trkpt>
      <trkpt lat="45.6929" lon="5.84733">
        <ele>658</ele>
        <time>2018-09-01T15:26:15Z</time>
      </trkpt>
      <trkpt lat="45.69286" lon="5.84737">
        <ele>658</ele>
        <time>2018-09-01T15:26:15Z</time>
      </trkpt>
      <trkpt lat="45.69282" lon="5.84742">
        <ele>658</ele>
        <time>2018-09-01T15:26:15Z</time>
      </trkpt>
      <trkpt lat="45.6928" lon="5.84746">
        <ele>658</ele>
        <time>2018-09-01T15:26:15Z</time>
      </trkpt>
      <trkpt lat="45.69278" lon="5.84752">
        <ele>658</ele>
        <time>2018-09-01T15:26:31Z</time>
      </trkpt>
      <trkpt lat="45.69277" lon="5.84759">
        <ele>658</ele>
        <time>2018-09-01T15:26:31Z</time>
      </trkpt>
      <trkpt lat="45.69277" lon="5.84766">
        <ele>658</ele>
        <time>2018-09-01T15:26:31Z</time>
      </trkpt>
      <trkpt lat="45.69279" lon="5.84773">
        <ele>658</ele>
        <time>2018-09-01T15:26:31Z</time>
      </trkpt>
      <trkpt lat="45.6928" lon="5.84779">
        <ele>658</ele>
        <time>2018-09-01T15:26:47Z</time>
      </trkpt>
      <trkpt lat="45.6928" lon="5.84785">
        <ele>658</ele>
        <time>2018-09-01T15:26:47Z</time>
      </trkpt>
      <trkpt lat="45.6928" lon="5.8479">
        <ele>658</ele>
        <time>2018-09-01T15:26:47Z</time>
      </trkpt>
      <trkpt lat="45.69279" lon="5.84797">
        <ele>647</ele>
        <time>2018-09-01T15:26:47Z</time>
      </trkpt>
      <trkpt lat="45.69279" lon="5.84803">
        <ele>647</ele>
        <time>2018-09-01T15:27:03Z</time>
      </trkpt>
      <trkpt lat="45.69279" lon="5.84809">
        <ele>647</ele>
        <time>2018-09-01T15:27:03Z</time>
      </trkpt>
      <trkpt lat="45.69279" lon="5.84814">
        <ele>647</ele>
        <time>2018-09-01T15:27:03Z</time>
      </trkpt>
      <trkpt lat="45.69279" lon="5.84819">
        <ele>647</ele>
        <time>2018-09-01T15:27:03Z</time>
      </trkpt>
      <trkpt lat="45.69277" lon="5.84825">
        <ele>647</ele>
        <time>2018-09-01T15:27:19Z</time>
      </trkpt>
      <trkpt lat="45.69276" lon="5.84833">
        <ele>647</ele>
        <time>2018-09-01T15:27:19Z</time>
      </trkpt>
      <trkpt lat="45.69275" lon="5.84838">
        <ele>647</ele>
        <time>2018-09-01T15:27:19Z</time>
      </trkpt>
      <trkpt lat="45.69275" lon="5.84845">
        <ele>647</ele>
        <time>2018-09-01T15:27:19Z</time>
      </trkpt>
      <trkpt lat="45.69275" lon="5.84854">
        <ele>647</ele>
        <time>2018-09-01T15:27:35Z</time>
      </trkpt>
      <trkpt lat="45.69276" lon="5.84862">
        <ele>647</ele>
        <time>2018-09-01T15:27:35Z</time>
      </trkpt>
      <trkpt lat="45.69276" lon="5.84869">
        <ele>647</ele>
        <time>2018-09-01T15:27:35Z</time>
      </trkpt>
      <trkpt lat="45.69277" lon="5.84875">
        <ele>647</ele>
        <time>2018-09-01T15:27:35Z</time>
      </trkpt>
      <trkpt lat="45.69276" lon="5.84882">
        <ele>645</ele>
        <time>2018-09-01T15:27:51Z</time>
      </trkpt>
      <trkpt lat="45.69278" lon="5.8489">
        <ele>645</ele>
        <time>2018-09-01T15:27:51Z</time>
      </trkpt>
      <trkpt lat="45.69279" lon="5.84898">
        <ele>645</ele>
        <time>2018-09-01T15:27:51Z</time>
      </trkpt>
      <trkpt lat="45.69278" lon="5.84905">
        <ele>645</ele>
        <time>2018-09-01T15:27:51Z</time>
      </trkpt>
      <trkpt lat="45.69278" lon="5.84907">
        <ele>645</ele>
        <time>2018-09-01T15:28:07Z</time>
      </trkpt>
      <trkpt lat="45.69279" lon="5.84911">
        <ele>645</ele>
        <time>2018-09-01T15:28:07Z</time>
      </trkpt>
      <trkpt lat="45.69281" lon="5.84919">
        <ele>645</ele>
        <time>2018-09-01T15:28:07Z</time>
      </trkpt>
      <trkpt lat="45.69282" lon="5.84925">
        <ele>645</ele>
        <time>2018-09-01T15:28:07Z</time>
      </trkpt>
      <trkpt lat="45.69283" lon="5.84933">
        <ele>645</ele>
        <time>2018-09-01T15:28:23Z</time>
      </trkpt>
      <trkpt lat="45.69283" lon="5.8494">
        <ele>645</ele>
        <time>2018-09-01T15:28:23Z</time>
      </trkpt>
      <trkpt lat="45.69284" lon="5.84946">
        <ele>645</ele>
        <time>2018-09-01T15:28:23Z</time>
      </trkpt>
      <trkpt lat="45.69283" lon="5.84953">
        <ele>645</ele>
        <time>2018-09-01T15:28:23Z</time>
      </trkpt>
      <trkpt lat="45.69282" lon="5.84971">
        <ele>644</ele>
        <time>2018-09-01T15:29:03Z</time>
      </trkpt>
      <trkpt lat="45.69282" lon="5.84972">
        <ele>644</ele>
        <time>2018-09-01T15:29:03Z</time>
      </trkpt>
      <trkpt lat="45.69282" lon="5.84972">
        <ele>644</ele>
        <time>2018-09-01T15:29:03Z</time>
      </trkpt>
      <trkpt lat="45.69282" lon="5.84972">
        <ele>644</ele>
        <time>2018-09-01T15:29:03Z</time>
      </trkpt>
      <trkpt lat="45.69282" lon="5.84975">
        <ele>644</ele>
        <time>2018-09-01T15:29:03Z</time>
      </trkpt>
      <trkpt lat="45.69283" lon="5.8498">
        <ele>644</ele>
        <time>2018-09-01T15:29:19Z</time>
      </trkpt>
      <trkpt lat="45.69285" lon="5.84986">
        <ele>644</ele>
        <time>2018-09-01T15:29:19Z</time>
      </trkpt>
      <trkpt lat="45.69288" lon="5.84991">
        <ele>644</ele>
        <time>2018-09-01T15:29:19Z</time>
      </trkpt>
      <trkpt lat="45.69291" lon="5.84993">
        <ele>644</ele>
        <time>2018-09-01T15:29:19Z</time>
      </trkpt>
      <trkpt lat="45.69293" lon="5.84996">
        <ele>668</ele>
        <time>2018-09-01T15:29:35Z</time>
      </trkpt>
      <trkpt lat="45.69297" lon="5.84998">
        <ele>668</ele>
        <time>2018-09-01T15:29:35Z</time>
      </trkpt>
      <trkpt lat="45.69301" lon="5.84999">
        <ele>668</ele>
        <time>2018-09-01T15:29:35Z</time>
      </trkpt>
      <trkpt lat="45.69305" lon="5.85001">
        <ele>668</ele>
        <time>2018-09-01T15:29:35Z</time>
      </trkpt>
      <trkpt lat="45.69309" lon="5.85002">
        <ele>668</ele>
        <time>2018-09-01T15:29:51Z</time>
      </trkpt>
      <trkpt lat="45.69313" lon="5.85004">
        <ele>668</ele>
        <time>2018-09-01T15:29:51Z</time>
      </trkpt>
      <trkpt lat="45.69317" lon="5.85002">
        <ele>668</ele>
        <time>2018-09-01T15:29:51Z</time>
      </trkpt>
      <trkpt lat="45.69319" lon="5.85">
        <ele>668</ele>
        <time>2018-09-01T15:29:51Z</time>
      </trkpt>
      <trkpt lat="45.6932" lon="5.84998">
        <ele>668</ele>
        <time>2018-09-01T15:30:11Z</time>
      </trkpt>
      <trkpt lat="45.6932" lon="5.84998">
        <ele>668</ele>
        <time>2018-09-01T15:30:11Z</time>
      </trkpt>
      <trkpt lat="45.69323" lon="5.84997">
        <ele>668</ele>
        <time>2018-09-01T15:30:11Z</time>
      </trkpt>
      <trkpt lat="45.69328" lon="5.84995">
        <ele>668</ele>
        <time>2018-09-01T15:30:11Z</time>
      </trkpt>
      <trkpt lat="45.69332" lon="5.84994">
        <ele>668</ele>
        <time>2018-09-01T15:30:11Z</time>
      </trkpt>
      <trkpt lat="45.69337" lon="5.84994">
        <ele>668</ele>
        <time>2018-09-01T15:30:27Z</time>
      </trkpt>
      <trkpt lat="45.69342" lon="5.84993">
        <ele>668</ele>
        <time>2018-09-01T15:30:27Z</time>
      </trkpt>
      <trkpt lat="45.69347" lon="5.84992">
        <ele>668</ele>
        <time>2018-09-01T15:30:27Z</time>
      </trkpt>
      <trkpt lat="45.69353" lon="5.84989">
        <ele>668</ele>
        <time>2018-09-01T15:30:27Z</time>
      </trkpt>
      <trkpt lat="45.6936" lon="5.8499">
        <ele>668</ele>
        <time>2018-09-01T15:30:43Z</time>
      </trkpt>
      <trkpt lat="45.69367" lon="5.8499">
        <ele>668</ele>
        <time>2018-09-01T15:30:43Z</time>
      </trkpt>
      <trkpt lat="45.69372" lon="5.84988">
        <ele>668</ele>
        <time>2018-09-01T15:30:43Z</time>
      </trkpt>
      <trkpt lat="45.69383" lon="5.84985">
        <ele>676</ele>
        <time>2018-09-01T15:30:43Z</time>
      </trkpt>
      <trkpt lat="45.69392" lon="5.84984">
        <ele>676</ele>
        <time>2018-09-01T15:30:59Z</time>
      </trkpt>
      <trkpt lat="45.69399" lon="5.84982">
        <ele>676</ele>
        <time>2018-09-01T15:30:59Z</time>
      </trkpt>
      <trkpt lat="45.69405" lon="5.8498">
        <ele>676</ele>
        <time>2018-09-01T15:30:59Z</time>
      </trkpt>
      <trkpt lat="45.6941" lon="5.84978">
        <ele>676</ele>
        <time>2018-09-01T15:30:59Z</time>
      </trkpt>
      <trkpt lat="45.69414" lon="5.84975">
        <ele>676</ele>
        <time>2018-09-01T15:31:15Z</time>
      </trkpt>
      <trkpt lat="45.69419" lon="5.84971">
        <ele>676</ele>
        <time>2018-09-01T15:31:15Z</time>
      </trkpt>
      <trkpt lat="45.69422" lon="5.84966">
        <ele>676</ele>
        <time>2018-09-01T15:31:15Z</time>
      </trkpt>
      <trkpt lat="45.69425" lon="5.84963">
        <ele>676</ele>
        <time>2018-09-01T15:31:15Z</time>
      </trkpt>
      <trkpt lat="45.69428" lon="5.84962">
        <ele>676</ele>
        <time>2018-09-01T15:31:31Z</time>
      </trkpt>
      <trkpt lat="45.69432" lon="5.8496">
        <ele>676</ele>
        <time>2018-09-01T15:31:31Z</time>
      </trkpt>
      <trkpt lat="45.69433" lon="5.84956">
        <ele>685</ele>
        <time>2018-09-01T15:31:31Z</time>
      </trkpt>
      <trkpt lat="45.69437" lon="5.84951">
        <ele>685</ele>
        <time>2018-09-01T15:31:31Z</time>
      </trkpt>
      <trkpt lat="45.69441" lon="5.84946">
        <ele>685</ele>
        <time>2018-09-01T15:31:47Z</time>
      </trkpt>
      <trkpt lat="45.69445" lon="5.84941">
        <ele>685</ele>
        <time>2018-09-01T15:31:47Z</time>
      </trkpt>
      <trkpt lat="45.69446" lon="5.84938">
        <ele>685</ele>
        <time>2018-09-01T15:31:47Z</time>
      </trkpt>
      <trkpt lat="45.69447" lon="5.84936">
        <ele>685</ele>
        <time>2018-09-01T15:31:47Z</time>
      </trkpt>
      <trkpt lat="45.69448" lon="5.84935">
        <ele>685</ele>
        <time>2018-09-01T15:32:03Z</time>
      </trkpt>
      <trkpt lat="45.69454" lon="5.84929">
        <ele>685</ele>
        <time>2018-09-01T15:32:03Z</time>
      </trkpt>
      <trkpt lat="45.69462" lon="5.84923">
        <ele>686</ele>
        <time>2018-09-01T15:32:03Z</time>
      </trkpt>
      <trkpt lat="45.69469" lon="5.84917">
        <ele>686</ele>
        <time>2018-09-01T15:32:03Z</time>
      </trkpt>
      <trkpt lat="45.6948" lon="5.84907">
        <ele>686</ele>
        <time>2018-09-01T15:32:19Z</time>
      </trkpt>
      <trkpt lat="45.69486" lon="5.84903">
        <ele>686</ele>
        <time>2018-09-01T15:32:19Z</time>
      </trkpt>
      <trkpt lat="45.69491" lon="5.84897">
        <ele>686</ele>
        <time>2018-09-01T15:32:19Z</time>
      </trkpt>
      <trkpt lat="45.69494" lon="5.84891">
        <ele>686</ele>
        <time>2018-09-01T15:32:19Z</time>
      </trkpt>
      <trkpt lat="45.69496" lon="5.84886">
        <ele>686</ele>
        <time>2018-09-01T15:32:35Z</time>
      </trkpt>
      <trkpt lat="45.695" lon="5.84881">
        <ele>686</ele>
        <time>2018-09-01T15:32:35Z</time>
      </trkpt>
      <trkpt lat="45.69501" lon="5.84878">
        <ele>686</ele>
        <time>2018-09-01T15:32:35Z</time>
      </trkpt>
      <trkpt lat="45.69502" lon="5.84873">
        <ele>692</ele>
        <time>2018-09-01T15:32:35Z</time>
      </trkpt>
      <trkpt lat="45.69505" lon="5.8487">
        <ele>692</ele>
        <time>2018-09-01T15:32:51Z</time>
      </trkpt>
      <trkpt lat="45.69509" lon="5.84869">
        <ele>692</ele>
        <time>2018-09-01T15:32:51Z</time>
      </trkpt>
      <trkpt lat="45.69513" lon="5.84866">
        <ele>692</ele>
        <time>2018-09-01T15:32:51Z</time>
      </trkpt>
      <trkpt lat="45.69516" lon="5.84863">
        <ele>692</ele>
        <time>2018-09-01T15:32:51Z</time>
      </trkpt>
      <trkpt lat="45.69519" lon="5.84859">
        <ele>692</ele>
        <time>2018-09-01T15:33:07Z</time>
      </trkpt>
      <trkpt lat="45.69522" lon="5.84856">
        <ele>692</ele>
        <time>2018-09-01T15:33:07Z</time>
      </trkpt>
      <trkpt lat="45.69524" lon="5.84853">
        <ele>692</ele>
        <time>2018-09-01T15:33:07Z</time>
      </trkpt>
      <trkpt lat="45.69526" lon="5.8485">
        <ele>692</ele>
        <time>2018-09-01T15:33:07Z</time>
      </trkpt>
      <trkpt lat="45.6953" lon="5.84846">
        <ele>692</ele>
        <time>2018-09-01T15:33:23Z</time>
      </trkpt>
      <trkpt lat="45.69534" lon="5.84839">
        <ele>692</ele>
        <time>2018-09-01T15:33:23Z</time>
      </trkpt>
      <trkpt lat="45.69538" lon="5.84833">
        <ele>692</ele>
        <time>2018-09-01T15:33:23Z</time>
      </trkpt>
      <trkpt lat="45.69542" lon="5.84828">
        <ele>693</ele>
        <time>2018-09-01T15:33:23Z</time>
      </trkpt>
      <trkpt lat="45.69546" lon="5.84824">
        <ele>693</ele>
        <time>2018-09-01T15:33:39Z</time>
      </trkpt>
      <trkpt lat="45.69552" lon="5.84819">
        <ele>693</ele>
        <time>2018-09-01T15:33:39Z</time>
      </trkpt>
      <trkpt lat="45.69556" lon="5.84812">
        <ele>693</ele>
        <time>2018-09-01T15:33:39Z</time>
      </trkpt>
      <trkpt lat="45.69559" lon="5.84807">
        <ele>693</ele>
        <time>2018-09-01T15:33:39Z</time>
      </trkpt>
      <trkpt lat="45.69559" lon="5.84799">
        <ele>693</ele>
        <time>2018-09-01T15:34:03Z</time>
      </trkpt>
      <trkpt lat="45.69562" lon="5.84796">
        <ele>693</ele>
        <time>2018-09-01T15:34:03Z</time>
      </trkpt>
      <trkpt lat="45.69565" lon="5.84796">
        <ele>693</ele>
        <time>2018-09-01T15:34:03Z</time>
      </trkpt>
      <trkpt lat="45.69567" lon="5.84797">
        <ele>693</ele>
        <time>2018-09-01T15:34:03Z</time>
      </trkpt>
      <trkpt lat="45.6957" lon="5.84797">
        <ele>693</ele>
        <time>2018-09-01T15:34:03Z</time>
      </trkpt>
      <trkpt lat="45.69573" lon="5.84799">
        <ele>693</ele>
        <time>2018-09-01T15:34:19Z</time>
      </trkpt>
      <trkpt lat="45.69577" lon="5.84802">
        <ele>693</ele>
        <time>2018-09-01T15:34:19Z</time>
      </trkpt>
      <trkpt lat="45.69581" lon="5.84807">
        <ele>693</ele>
        <time>2018-09-01T15:34:19Z</time>
      </trkpt>
      <trkpt lat="45.69587" lon="5.84808">
        <ele>693</ele>
        <time>2018-09-01T15:34:19Z</time>
      </trkpt>
      <trkpt lat="45.69591" lon="5.84808">
        <ele>693</ele>
        <time>2018-09-01T15:34:35Z</time>
      </trkpt>
      <trkpt lat="45.69593" lon="5.84808">
        <ele>693</ele>
        <time>2018-09-01T15:34:35Z</time>
      </trkpt>
      <trkpt lat="45.69595" lon="5.84808">
        <ele>693</ele>
        <time>2018-09-01T15:34:35Z</time>
      </trkpt>
      <trkpt lat="45.69599" lon="5.84812">
        <ele>693</ele>
        <time>2018-09-01T15:34:35Z</time>
      </trkpt>
      <trkpt lat="45.69603" lon="5.84815">
        <ele>693</ele>
        <time>2018-09-01T15:34:51Z</time>
      </trkpt>
      <trkpt lat="45.69607" lon="5.84813">
        <ele>693</ele>
        <time>2018-09-01T15:34:51Z</time>
      </trkpt>
      <trkpt lat="45.69611" lon="5.84811">
        <ele>693</ele>
        <time>2018-09-01T15:34:51Z</time>
      </trkpt>
      <trkpt lat="45.69616" lon="5.84808">
        <ele>693</ele>
        <time>2018-09-01T15:34:51Z</time>
      </trkpt>
      <trkpt lat="45.69623" lon="5.84805">
        <ele>693</ele>
        <time>2018-09-01T15:35:07Z</time>
      </trkpt>
      <trkpt lat="45.69629" lon="5.84802">
        <ele>697</ele>
        <time>2018-09-01T15:35:07Z</time>
      </trkpt>
      <trkpt lat="45.69634" lon="5.848">
        <ele>697</ele>
        <time>2018-09-01T15:35:07Z</time>
      </trkpt>
      <trkpt lat="45.69641" lon="5.84798">
        <ele>697</ele>
        <time>2018-09-01T15:35:07Z</time>
      </trkpt>
      <trkpt lat="45.6965" lon="5.84797">
        <ele>697</ele>
        <time>2018-09-01T15:35:23Z</time>
      </trkpt>
      <trkpt lat="45.69656" lon="5.84798">
        <ele>697</ele>
        <time>2018-09-01T15:35:23Z</time>
      </trkpt>
      <trkpt lat="45.6966" lon="5.84801">
        <ele>697</ele>
        <time>2018-09-01T15:35:23Z</time>
      </trkpt>
      <trkpt lat="45.69664" lon="5.84803">
        <ele>697</ele>
        <time>2018-09-01T15:35:23Z</time>
      </trkpt>
      <trkpt lat="45.69665" lon="5.84807">
        <ele>697</ele>
        <time>2018-09-01T15:35:43Z</time>
      </trkpt>
      <trkpt lat="45.69667" lon="5.84812">
        <ele>697</ele>
        <time>2018-09-01T15:35:43Z</time>
      </trkpt>
      <trkpt lat="45.69669" lon="5.84814">
        <ele>697</ele>
        <time>2018-09-01T15:35:43Z</time>
      </trkpt>
      <trkpt lat="45.69671" lon="5.84815">
        <ele>697</ele>
        <time>2018-09-01T15:35:43Z</time>
      </trkpt>
      <trkpt lat="45.69673" lon="5.84816">
        <ele>697</ele>
        <time>2018-09-01T15:35:43Z</time>
      </trkpt>
      <trkpt lat="45.69675" lon="5.84817">
        <ele>697</ele>
        <time>2018-09-01T15:35:59Z</time>
      </trkpt>
      <trkpt lat="45.69678" lon="5.84819">
        <ele>697</ele>
        <time>2018-09-01T15:35:59Z</time>
      </trkpt>
      <trkpt lat="45.69681" lon="5.84823">
        <ele>697</ele>
        <time>2018-09-01T15:35:59Z</time>
      </trkpt>
      <trkpt lat="45.69685" lon="5.84828">
        <ele>697</ele>
        <time>2018-09-01T15:35:59Z</time>
      </trkpt>
      <trkpt lat="45.6969" lon="5.84833">
        <ele>697</ele>
        <time>2018-09-01T15:36:15Z</time>
      </trkpt>
      <trkpt lat="45.69695" lon="5.84838">
        <ele>697</ele>
        <time>2018-09-01T15:36:15Z</time>
      </trkpt>
      <trkpt lat="45.69699" lon="5.84842">
        <ele>697</ele>
        <time>2018-09-01T15:36:15Z</time>
      </trkpt>
      <trkpt lat="45.69702" lon="5.84843">
        <ele>697</ele>
        <time>2018-09-01T15:36:15Z</time>
      </trkpt>
      <trkpt lat="45.69706" lon="5.84846">
        <ele>697</ele>
        <time>2018-09-01T15:36:31Z</time>
      </trkpt>
      <trkpt lat="45.6971" lon="5.84847">
        <ele>714</ele>
        <time>2018-09-01T15:36:31Z</time>
      </trkpt>
      <trkpt lat="45.69716" lon="5.84847">
        <ele>714</ele>
        <time>2018-09-01T15:36:31Z</time>
      </trkpt>
      <trkpt lat="45.69721" lon="5.84847">
        <ele>714</ele>
        <time>2018-09-01T15:36:31Z</time>
      </trkpt>
      <trkpt lat="45.69727" lon="5.84849">
        <ele>714</ele>
        <time>2018-09-01T15:36:47Z</time>
      </trkpt>
      <trkpt lat="45.69734" lon="5.84853">
        <ele>714</ele>
        <time>2018-09-01T15:36:47Z</time>
      </trkpt>
      <trkpt lat="45.69742" lon="5.84858">
        <ele>714</ele>
        <time>2018-09-01T15:36:47Z</time>
      </trkpt>
      <trkpt lat="45.69749" lon="5.84866">
        <ele>714</ele>
        <time>2018-09-01T15:36:47Z</time>
      </trkpt>
      <trkpt lat="45.69754" lon="5.84873">
        <ele>714</ele>
        <time>2018-09-01T15:37:03Z</time>
      </trkpt>
      <trkpt lat="45.69757" lon="5.84877">
        <ele>697</ele>
        <time>2018-09-01T15:37:03Z</time>
      </trkpt>
      <trkpt lat="45.69761" lon="5.84881">
        <ele>697</ele>
        <time>2018-09-01T15:37:03Z</time>
      </trkpt>
      <trkpt lat="45.69765" lon="5.84885">
        <ele>697</ele>
        <time>2018-09-01T15:37:03Z</time>
      </trkpt>
      <trkpt lat="45.69767" lon="5.84889">
        <ele>697</ele>
        <time>2018-09-01T15:37:19Z</time>
      </trkpt>
      <trkpt lat="45.69771" lon="5.8489">
        <ele>697</ele>
        <time>2018-09-01T15:37:19Z</time>
      </trkpt>
      <trkpt lat="45.69775" lon="5.84893">
        <ele>697</ele>
        <time>2018-09-01T15:37:19Z</time>
      </trkpt>
      <trkpt lat="45.69778" lon="5.84899">
        <ele>697</ele>
        <time>2018-09-01T15:37:19Z</time>
      </trkpt>
      <trkpt lat="45.69781" lon="5.84905">
        <ele>697</ele>
        <time>2018-09-01T15:37:35Z</time>
      </trkpt>
      <trkpt lat="45.69784" lon="5.84911">
        <ele>697</ele>
        <time>2018-09-01T15:37:35Z</time>
      </trkpt>
      <trkpt lat="45.69786" lon="5.84915">
        <ele>697</ele>
        <time>2018-09-01T15:37:35Z</time>
      </trkpt>
      <trkpt lat="45.69788" lon="5.84919">
        <ele>697</ele>
        <time>2018-09-01T15:37:35Z</time>
      </trkpt>
      <trkpt lat="45.69792" lon="5.84924">
        <ele>697</ele>
        <time>2018-09-01T15:37:51Z</time>
      </trkpt>
      <trkpt lat="45.69794" lon="5.8493">
        <ele>728</ele>
        <time>2018-09-01T15:37:51Z</time>
      </trkpt>
      <trkpt lat="45.69795" lon="5.84937">
        <ele>728</ele>
        <time>2018-09-01T15:37:51Z</time>
      </trkpt>
      <trkpt lat="45.69797" lon="5.84944">
        <ele>728</ele>
        <time>2018-09-01T15:37:51Z</time>
      </trkpt>
      <trkpt lat="45.69799" lon="5.84949">
        <ele>728</ele>
        <time>2018-09-01T15:38:07Z</time>
      </trkpt>
      <trkpt lat="45.69799" lon="5.84955">
        <ele>728</ele>
        <time>2018-09-01T15:38:07Z</time>
      </trkpt>
      <trkpt lat="45.69799" lon="5.84961">
        <ele>712</ele>
        <time>2018-09-01T15:38:07Z</time>
      </trkpt>
      <trkpt lat="45.69801" lon="5.84968">
        <ele>712</ele>
        <time>2018-09-01T15:38:07Z</time>
      </trkpt>
      <trkpt lat="45.69803" lon="5.84976">
        <ele>712</ele>
        <time>2018-09-01T15:38:23Z</time>
      </trkpt>
      <trkpt lat="45.69804" lon="5.84983">
        <ele>712</ele>
        <time>2018-09-01T15:38:23Z</time>
      </trkpt>
      <trkpt lat="45.69806" lon="5.84989">
        <ele>712</ele>
        <time>2018-09-01T15:38:23Z</time>
      </trkpt>
      <trkpt lat="45.69807" lon="5.84993">
        <ele>712</ele>
        <time>2018-09-01T15:38:23Z</time>
      </trkpt>
      <trkpt lat="45.69808" lon="5.84998">
        <ele>712</ele>
        <time>2018-09-01T15:38:39Z</time>
      </trkpt>
      <trkpt lat="45.6981" lon="5.85003">
        <ele>712</ele>
        <time>2018-09-01T15:38:39Z</time>
      </trkpt>
      <trkpt lat="45.69814" lon="5.85006">
        <ele>712</ele>
        <time>2018-09-01T15:38:39Z</time>
      </trkpt>
      <trkpt lat="45.69816" lon="5.85012">
        <ele>712</ele>
        <time>2018-09-01T15:38:39Z</time>
      </trkpt>
      <trkpt lat="45.69818" lon="5.85021">
        <ele>712</ele>
        <time>2018-09-01T15:38:55Z</time>
      </trkpt>
      <trkpt lat="45.69819" lon="5.85026">
        <ele>712</ele>
        <time>2018-09-01T15:38:55Z</time>
      </trkpt>
      <trkpt lat="45.69823" lon="5.85032">
        <ele>712</ele>
        <time>2018-09-01T15:38:55Z</time>
      </trkpt>
      <trkpt lat="45.69826" lon="5.85037">
        <ele>712</ele>
        <time>2018-09-01T15:38:55Z</time>
      </trkpt>
      <trkpt lat="45.6983" lon="5.85042">
        <ele>692</ele>
        <time>2018-09-01T15:39:11Z</time>
      </trkpt>
      <trkpt lat="45.69834" lon="5.85047">
        <ele>692</ele>
        <time>2018-09-01T15:39:11Z</time>
      </trkpt>
      <trkpt lat="45.69838" lon="5.85053">
        <ele>692</ele>
        <time>2018-09-01T15:39:11Z</time>
      </trkpt>
      <trkpt lat="45.6984" lon="5.85059">
        <ele>692</ele>
        <time>2018-09-01T15:39:11Z</time>
      </trkpt>
      <trkpt lat="45.69844" lon="5.85065">
        <ele>692</ele>
        <time>2018-09-01T15:39:27Z</time>
      </trkpt>
      <trkpt lat="45.69847" lon="5.85069">
        <ele>692</ele>
        <time>2018-09-01T15:39:27Z</time>
      </trkpt>
      <trkpt lat="45.6985" lon="5.8507">
        <ele>692</ele>
        <time>2018-09-01T15:39:27Z</time>
      </trkpt>
      <trkpt lat="45.69851" lon="5.85071">
        <ele>692</ele>
        <time>2018-09-01T15:39:27Z</time>
      </trkpt>
      <trkpt lat="45.69854" lon="5.85073">
        <ele>692</ele>
        <time>2018-09-01T15:39:47Z</time>
      </trkpt>
      <trkpt lat="45.69857" lon="5.85075">
        <ele>692</ele>
        <time>2018-09-01T15:39:47Z</time>
      </trkpt>
      <trkpt lat="45.69859" lon="5.85076">
        <ele>692</ele>
        <time>2018-09-01T15:39:47Z</time>
      </trkpt>
      <trkpt lat="45.69861" lon="5.85079">
        <ele>692</ele>
        <time>2018-09-01T15:39:47Z</time>
      </trkpt>
      <trkpt lat="45.69863" lon="5.85081">
        <ele>692</ele>
        <time>2018-09-01T15:39:47Z</time>
      </trkpt>
      <trkpt lat="45.69866" lon="5.85084">
        <ele>692</ele>
        <time>2018-09-01T15:40:07Z</time>
      </trkpt>
      <trkpt lat="45.69868" lon="5.85086">
        <ele>692</ele>
        <time>2018-09-01T15:40:07Z</time>
      </trkpt>
      <trkpt lat="45.6987" lon="5.8509">
        <ele>692</ele>
        <time>2018-09-01T15:40:07Z</time>
      </trkpt>
      <trkpt lat="45.69871" lon="5.85094">
        <ele>692</ele>
        <time>2018-09-01T15:40:07Z</time>
      </trkpt>
      <trkpt lat="45.69872" lon="5.85099">
        <ele>692</ele>
        <time>2018-09-01T15:40:07Z</time>
      </trkpt>
      <trkpt lat="45.69873" lon="5.85111">
        <ele>692</ele>
        <time>2018-09-01T15:40:23Z</time>
      </trkpt>
      <trkpt lat="45.69881" lon="5.85124">
        <ele>715</ele>
        <time>2018-09-01T15:40:23Z</time>
      </trkpt>
      <trkpt lat="45.69901" lon="5.85137">
        <ele>698</ele>
        <time>2018-09-01T15:40:23Z</time>
      </trkpt>
      <trkpt lat="45.69923" lon="5.85146">
        <ele>698</ele>
        <time>2018-09-01T15:40:23Z</time>
      </trkpt>
      <trkpt lat="45.69927" lon="5.85156">
        <ele>698</ele>
        <time>2018-09-01T15:40:39Z</time>
      </trkpt>
      <trkpt lat="45.69934" lon="5.85161">
        <ele>698</ele>
        <time>2018-09-01T15:40:39Z</time>
      </trkpt>
      <trkpt lat="45.69936" lon="5.85162">
        <ele>698</ele>
        <time>2018-09-01T15:40:39Z</time>
      </trkpt>
      <trkpt lat="45.6994" lon="5.85163">
        <ele>698</ele>
        <time>2018-09-01T15:40:39Z</time>
      </trkpt>
      <trkpt lat="45.69945" lon="5.85161">
        <ele>698</ele>
        <time>2018-09-01T15:40:55Z</time>
      </trkpt>
      <trkpt lat="45.69951" lon="5.85162">
        <ele>698</ele>
        <time>2018-09-01T15:40:55Z</time>
      </trkpt>
      <trkpt lat="45.69957" lon="5.85162">
        <ele>698</ele>
        <time>2018-09-01T15:40:55Z</time>
      </trkpt>
      <trkpt lat="45.69962" lon="5.85162">
        <ele>700</ele>
        <time>2018-09-01T15:40:55Z</time>
      </trkpt>
      <trkpt lat="45.69967" lon="5.85161">
        <ele>700</ele>
        <time>2018-09-01T15:41:11Z</time>
      </trkpt>
      <trkpt lat="45.69974" lon="5.85161">
        <ele>700</ele>
        <time>2018-09-01T15:41:11Z</time>
      </trkpt>
      <trkpt lat="45.69981" lon="5.85163">
        <ele>700</ele>
        <time>2018-09-01T15:41:11Z</time>
      </trkpt>
      <trkpt lat="45.6999" lon="5.85162">
        <ele>700</ele>
        <time>2018-09-01T15:41:11Z</time>
      </trkpt>
      <trkpt lat="45.69997" lon="5.85163">
        <ele>700</ele>
        <time>2018-09-01T15:41:27Z</time>
      </trkpt>
      <trkpt lat="45.70004" lon="5.85164">
        <ele>700</ele>
        <time>2018-09-01T15:41:27Z</time>
      </trkpt>
      <trkpt lat="45.7001" lon="5.85166">
        <ele>700</ele>
        <time>2018-09-01T15:41:27Z</time>
      </trkpt>
      <trkpt lat="45.70017" lon="5.85167">
        <ele>700</ele>
        <time>2018-09-01T15:41:27Z</time>
      </trkpt>
      <trkpt lat="45.70023" lon="5.85168">
        <ele>700</ele>
        <time>2018-09-01T15:41:43Z</time>
      </trkpt>
      <trkpt lat="45.70028" lon="5.85167">
        <ele>700</ele>
        <time>2018-09-01T15:41:43Z</time>
      </trkpt>
      <trkpt lat="45.70033" lon="5.85165">
        <ele>700</ele>
        <time>2018-09-01T15:41:43Z</time>
      </trkpt>
      <trkpt lat="45.70037" lon="5.85163">
        <ele>700</ele>
        <time>2018-09-01T15:41:43Z</time>
      </trkpt>
      <trkpt lat="45.7004" lon="5.85159">
        <ele>700</ele>
        <time>2018-09-01T15:41:59Z</time>
      </trkpt>
      <trkpt lat="45.70044" lon="5.85156">
        <ele>693</ele>
        <time>2018-09-01T15:41:59Z</time>
      </trkpt>
      <trkpt lat="45.70048" lon="5.85155">
        <ele>693</ele>
        <time>2018-09-01T15:41:59Z</time>
      </trkpt>
      <trkpt lat="45.70052" lon="5.85152">
        <ele>693</ele>
        <time>2018-09-01T15:41:59Z</time>
      </trkpt>
      <trkpt lat="45.70057" lon="5.85149">
        <ele>693</ele>
        <time>2018-09-01T15:42:15Z</time>
      </trkpt>
      <trkpt lat="45.70063" lon="5.85148">
        <ele>693</ele>
        <time>2018-09-01T15:42:15Z</time>
      </trkpt>
      <trkpt lat="45.70068" lon="5.85144">
        <ele>693</ele>
        <time>2018-09-01T15:42:15Z</time>
      </trkpt>
      <trkpt lat="45.70073" lon="5.85142">
        <ele>693</ele>
        <time>2018-09-01T15:42:15Z</time>
      </trkpt>
      <trkpt lat="45.70078" lon="5.8514">
        <ele>693</ele>
        <time>2018-09-01T15:42:31Z</time>
      </trkpt>
      <trkpt lat="45.70083" lon="5.8514">
        <ele>693</ele>
        <time>2018-09-01T15:42:31Z</time>
      </trkpt>
      <trkpt lat="45.70089" lon="5.85139">
        <ele>693</ele>
        <time>2018-09-01T15:42:31Z</time>
      </trkpt>
      <trkpt lat="45.70094" lon="5.85139">
        <ele>693</ele>
        <time>2018-09-01T15:42:31Z</time>
      </trkpt>
      <trkpt lat="45.70098" lon="5.85141">
        <ele>693</ele>
        <time>2018-09-01T15:42:47Z</time>
      </trkpt>
      <trkpt lat="45.70102" lon="5.85141">
        <ele>693</ele>
        <time>2018-09-01T15:42:47Z</time>
      </trkpt>
      <trkpt lat="45.70107" lon="5.85143">
        <ele>693</ele>
        <time>2018-09-01T15:42:47Z</time>
      </trkpt>
      <trkpt lat="45.70109" lon="5.85143">
        <ele>693</ele>
        <time>2018-09-01T15:42:47Z</time>
      </trkpt>
      <trkpt lat="45.70113" lon="5.85142">
        <ele>693</ele>
        <time>2018-09-01T15:43:03Z</time>
      </trkpt>
      <trkpt lat="45.70118" lon="5.85142">
        <ele>693</ele>
        <time>2018-09-01T15:43:03Z</time>
      </trkpt>
      <trkpt lat="45.70122" lon="5.85143">
        <ele>693</ele>
        <time>2018-09-01T15:43:03Z</time>
      </trkpt>
      <trkpt lat="45.70128" lon="5.85143">
        <ele>684</ele>
        <time>2018-09-01T15:43:03Z</time>
      </trkpt>
      <trkpt lat="45.70137" lon="5.85141">
        <ele>684</ele>
        <time>2018-09-01T15:43:19Z</time>
      </trkpt>
      <trkpt lat="45.70145" lon="5.85139">
        <ele>684</ele>
        <time>2018-09-01T15:43:19Z</time>
      </trkpt>
      <trkpt lat="45.7015" lon="5.85137">
        <ele>684</ele>
        <time>2018-09-01T15:43:19Z</time>
      </trkpt>
      <trkpt lat="45.70156" lon="5.85134">
        <ele>684</ele>
        <time>2018-09-01T15:43:19Z</time>
      </trkpt>
      <trkpt lat="45.70161" lon="5.85131">
        <ele>684</ele>
        <time>2018-09-01T15:43:35Z</time>
      </trkpt>
      <trkpt lat="45.70167" lon="5.85129">
        <ele>684</ele>
        <time>2018-09-01T15:43:35Z</time>
      </trkpt>
      <trkpt lat="45.70172" lon="5.85129">
        <ele>684</ele>
        <time>2018-09-01T15:43:35Z</time>
      </trkpt>
      <trkpt lat="45.70178" lon="5.85129">
        <ele>684</ele>
        <time>2018-09-01T15:43:35Z</time>
      </trkpt>
      <trkpt lat="45.70183" lon="5.85132">
        <ele>684</ele>
        <time>2018-09-01T15:43:51Z</time>
      </trkpt>
      <trkpt lat="45.70188" lon="5.85133">
        <ele>684</ele>
        <time>2018-09-01T15:43:51Z</time>
      </trkpt>
      <trkpt lat="45.70194" lon="5.85136">
        <ele>684</ele>
        <time>2018-09-01T15:43:51Z</time>
      </trkpt>
      <trkpt lat="45.70201" lon="5.85138">
        <ele>684</ele>
        <time>2018-09-01T15:43:51Z</time>
      </trkpt>
      <trkpt lat="45.70208" lon="5.8514">
        <ele>684</ele>
        <time>2018-09-01T15:44:07Z</time>
      </trkpt>
      <trkpt lat="45.70214" lon="5.85143">
        <ele>688</ele>
        <time>2018-09-01T15:44:07Z</time>
      </trkpt>
      <trkpt lat="45.70219" lon="5.85147">
        <ele>688</ele>
        <time>2018-09-01T15:44:07Z</time>
      </trkpt>
      <trkpt lat="45.70225" lon="5.85151">
        <ele>688</ele>
        <time>2018-09-01T15:44:07Z</time>
      </trkpt>
      <trkpt lat="45.70229" lon="5.85154">
        <ele>688</ele>
        <time>2018-09-01T15:44:23Z</time>
      </trkpt>
      <trkpt lat="45.70233" lon="5.85156">
        <ele>688</ele>
        <time>2018-09-01T15:44:23Z</time>
      </trkpt>
      <trkpt lat="45.70237" lon="5.85157">
        <ele>688</ele>
        <time>2018-09-01T15:44:23Z</time>
      </trkpt>
      <trkpt lat="45.70242" lon="5.8516">
        <ele>688</ele>
        <time>2018-09-01T15:44:23Z</time>
      </trkpt>
      <trkpt lat="45.70247" lon="5.85162">
        <ele>688</ele>
        <time>2018-09-01T15:44:39Z</time>
      </trkpt>
      <trkpt lat="45.70252" lon="5.85161">
        <ele>688</ele>
        <time>2018-09-01T15:44:39Z</time>
      </trkpt>
      <trkpt lat="45.70258" lon="5.85161">
        <ele>688</ele>
        <time>2018-09-01T15:44:39Z</time>
      </trkpt>
      <trkpt lat="45.70262" lon="5.85161">
        <ele>688</ele>
        <time>2018-09-01T15:44:39Z</time>
      </trkpt>
      <trkpt lat="45.70267" lon="5.8516">
        <ele>688</ele>
        <time>2018-09-01T15:44:55Z</time>
      </trkpt>
      <trkpt lat="45.70272" lon="5.85159">
        <ele>688</ele>
        <time>2018-09-01T15:44:55Z</time>
      </trkpt>
      <trkpt lat="45.70279" lon="5.85157">
        <ele>688</ele>
        <time>2018-09-01T15:44:55Z</time>
      </trkpt>
      <trkpt lat="45.70286" lon="5.85156">
        <ele>688</ele>
        <time>2018-09-01T15:44:55Z</time>
      </trkpt>
      <trkpt lat="45.70292" lon="5.85156">
        <ele>687</ele>
        <time>2018-09-01T15:45:11Z</time>
      </trkpt>
      <trkpt lat="45.70297" lon="5.85157">
        <ele>687</ele>
        <time>2018-09-01T15:45:11Z</time>
      </trkpt>
      <trkpt lat="45.70302" lon="5.85156">
        <ele>687</ele>
        <time>2018-09-01T15:45:11Z</time>
      </trkpt>
      <trkpt lat="45.70306" lon="5.85158">
        <ele>687</ele>
        <time>2018-09-01T15:45:11Z</time>
      </trkpt>
      <trkpt lat="45.70312" lon="5.85158">
        <ele>687</ele>
        <time>2018-09-01T15:45:27Z</time>
      </trkpt>
      <trkpt lat="45.70318" lon="5.8516">
        <ele>687</ele>
        <time>2018-09-01T15:45:27Z</time>
      </trkpt>
      <trkpt lat="45.70324" lon="5.85161">
        <ele>687</ele>
        <time>2018-09-01T15:45:27Z</time>
      </trkpt>
      <trkpt lat="45.7033" lon="5.85163">
        <ele>687</ele>
        <time>2018-09-01T15:45:27Z</time>
      </trkpt>
      <trkpt lat="45.70337" lon="5.85165">
        <ele>687</ele>
        <time>2018-09-01T15:45:43Z</time>
      </trkpt>
      <trkpt lat="45.70343" lon="5.85168">
        <ele>687</ele>
        <time>2018-09-01T15:45:43Z</time>
      </trkpt>
      <trkpt lat="45.70348" lon="5.8517">
        <ele>687</ele>
        <time>2018-09-01T15:45:43Z</time>
      </trkpt>
      <trkpt lat="45.70353" lon="5.85173">
        <ele>687</ele>
        <time>2018-09-01T15:45:43Z</time>
      </trkpt>
      <trkpt lat="45.70357" lon="5.85175">
        <ele>687</ele>
        <time>2018-09-01T15:45:59Z</time>
      </trkpt>
      <trkpt lat="45.70362" lon="5.85177">
        <ele>687</ele>
        <time>2018-09-01T15:45:59Z</time>
      </trkpt>
      <trkpt lat="45.70366" lon="5.85182">
        <ele>687</ele>
        <time>2018-09-01T15:45:59Z</time>
      </trkpt>
      <trkpt lat="45.7037" lon="5.85184">
        <ele>687</ele>
        <time>2018-09-01T15:45:59Z</time>
      </trkpt>
      <trkpt lat="45.70374" lon="5.85186">
        <ele>687</ele>
        <time>2018-09-01T15:46:15Z</time>
      </trkpt>
      <trkpt lat="45.7038" lon="5.85186">
        <ele>692</ele>
        <time>2018-09-01T15:46:15Z</time>
      </trkpt>
      <trkpt lat="45.70385" lon="5.85188">
        <ele>692</ele>
        <time>2018-09-01T15:46:15Z</time>
      </trkpt>
      <trkpt lat="45.7039" lon="5.85189">
        <ele>692</ele>
        <time>2018-09-01T15:46:15Z</time>
      </trkpt>
      <trkpt lat="45.70395" lon="5.8519">
        <ele>692</ele>
        <time>2018-09-01T15:46:31Z</time>
      </trkpt>
      <trkpt lat="45.70401" lon="5.85192">
        <ele>692</ele>
        <time>2018-09-01T15:46:31Z</time>
      </trkpt>
      <trkpt lat="45.70406" lon="5.85196">
        <ele>692</ele>
        <time>2018-09-01T15:46:31Z</time>
      </trkpt>
      <trkpt lat="45.70411" lon="5.85198">
        <ele>692</ele>
        <time>2018-09-01T15:46:31Z</time>
      </trkpt>
      <trkpt lat="45.70417" lon="5.852">
        <ele>692</ele>
        <time>2018-09-01T15:46:47Z</time>
      </trkpt>
      <trkpt lat="45.70423" lon="5.852">
        <ele>692</ele>
        <time>2018-09-01T15:46:47Z</time>
      </trkpt>
      <trkpt lat="45.70429" lon="5.852">
        <ele>692</ele>
        <time>2018-09-01T15:46:47Z</time>
      </trkpt>
      <trkpt lat="45.70434" lon="5.852">
        <ele>692</ele>
        <time>2018-09-01T15:46:47Z</time>
      </trkpt>
      <trkpt lat="45.70439" lon="5.85199">
        <ele>692</ele>
        <time>2018-09-01T15:47:03Z</time>
      </trkpt>
      <trkpt lat="45.70445" lon="5.85197">
        <ele>692</ele>
        <time>2018-09-01T15:47:03Z</time>
      </trkpt>
      <trkpt lat="45.70451" lon="5.85195">
        <ele>692</ele>
        <time>2018-09-01T15:47:03Z</time>
      </trkpt>
      <trkpt lat="45.70454" lon="5.85193">
        <ele>692</ele>
        <time>2018-09-01T15:47:03Z</time>
      </trkpt>
      <trkpt lat="45.70457" lon="5.85194">
        <ele>692</ele>
        <time>2018-09-01T15:47:19Z</time>
      </trkpt>
      <trkpt lat="45.70461" lon="5.85194">
        <ele>686</ele>
        <time>2018-09-01T15:47:19Z</time>
      </trkpt>
      <trkpt lat="45.70466" lon="5.85193">
        <ele>686</ele>
        <time>2018-09-01T15:47:19Z</time>
      </trkpt>
      <trkpt lat="45.7047" lon="5.85193">
        <ele>686</ele>
        <time>2018-09-01T15:47:19Z</time>
      </trkpt>
      <trkpt lat="45.70475" lon="5.85192">
        <ele>686</ele>
        <time>2018-09-01T15:47:35Z</time>
      </trkpt>
      <trkpt lat="45.7048" lon="5.85191">
        <ele>686</ele>
        <time>2018-09-01T15:47:35Z</time>
      </trkpt>
      <trkpt lat="45.70486" lon="5.85189">
        <ele>686</ele>
        <time>2018-09-01T15:47:35Z</time>
      </trkpt>
      <trkpt lat="45.7049" lon="5.85188">
        <ele>686</ele>
        <time>2018-09-01T15:47:35Z</time>
      </trkpt>
      <trkpt lat="45.70495" lon="5.85187">
        <ele>686</ele>
        <time>2018-09-01T15:47:51Z</time>
      </trkpt>
      <trkpt lat="45.70498" lon="5.85188">
        <ele>686</ele>
        <time>2018-09-01T15:47:51Z</time>
      </trkpt>
      <trkpt lat="45.70502" lon="5.85186">
        <ele>686</ele>
        <time>2018-09-01T15:47:51Z</time>
      </trkpt>
      <trkpt lat="45.70505" lon="5.85184">
        <ele>686</ele>
        <time>2018-09-01T15:47:51Z</time>
      </trkpt>
      <trkpt lat="45.70509" lon="5.85181">
        <ele>686</ele>
        <time>2018-09-01T15:48:07Z</time>
      </trkpt>
      <trkpt lat="45.70514" lon="5.8518">
        <ele>686</ele>
        <time>2018-09-01T15:48:07Z</time>
      </trkpt>
      <trkpt lat="45.70519" lon="5.85178">
        <ele>686</ele>
        <time>2018-09-01T15:48:07Z</time>
      </trkpt>
      <trkpt lat="45.70523" lon="5.85179">
        <ele>686</ele>
        <time>2018-09-01T15:48:07Z</time>
      </trkpt>
      <trkpt lat="45.70525" lon="5.85178">
        <ele>686</ele>
        <time>2018-09-01T15:48:23Z</time>
      </trkpt>
      <trkpt lat="45.70528" lon="5.85179">
        <ele>686</ele>
        <time>2018-09-01T15:48:23Z</time>
      </trkpt>
      <trkpt lat="45.70533" lon="5.85177">
        <ele>686</ele>
        <time>2018-09-01T15:48:23Z</time>
      </trkpt>
      <trkpt lat="45.70537" lon="5.85174">
        <ele>686</ele>
        <time>2018-09-01T15:48:23Z</time>
      </trkpt>
      <trkpt lat="45.70544" lon="5.85173">
        <ele>673</ele>
        <time>2018-09-01T15:48:39Z</time>
      </trkpt>
      <trkpt lat="45.70549" lon="5.85175">
        <ele>673</ele>
        <time>2018-09-01T15:48:39Z</time>
      </trkpt>
      <trkpt lat="45.70551" lon="5.85176">
        <ele>673</ele>
        <time>2018-09-01T15:48:39Z</time>
      </trkpt>
      <trkpt lat="45.70555" lon="5.85176">
        <ele>673</ele>
        <time>2018-09-01T15:48:39Z</time>
      </trkpt>
      <trkpt lat="45.70561" lon="5.85176">
        <ele>673</ele>
        <time>2018-09-01T15:48:55Z</time>
      </trkpt>
      <trkpt lat="45.70567" lon="5.85175">
        <ele>673</ele>
        <time>2018-09-01T15:48:55Z</time>
      </trkpt>
      <trkpt lat="45.70571" lon="5.85175">
        <ele>673</ele>
        <time>2018-09-01T15:48:55Z</time>
      </trkpt>
      <trkpt lat="45.70576" lon="5.85173">
        <ele>673</ele>
        <time>2018-09-01T15:48:55Z</time>
      </trkpt>
      <trkpt lat="45.70582" lon="5.85172">
        <ele>673</ele>
        <time>2018-09-01T15:49:11Z</time>
      </trkpt>
      <trkpt lat="45.70586" lon="5.85174">
        <ele>673</ele>
        <time>2018-09-01T15:49:11Z</time>
      </trkpt>
      <trkpt lat="45.70591" lon="5.85172">
        <ele>673</ele>
        <time>2018-09-01T15:49:11Z</time>
      </trkpt>
      <trkpt lat="45.70598" lon="5.8517">
        <ele>673</ele>
        <time>2018-09-01T15:49:11Z</time>
      </trkpt>
      <trkpt lat="45.70603" lon="5.85172">
        <ele>673</ele>
        <time>2018-09-01T15:49:27Z</time>
      </trkpt>
      <trkpt lat="45.70609" lon="5.85173">
        <ele>673</ele>
        <time>2018-09-01T15:49:27Z</time>
      </trkpt>
      <trkpt lat="45.70615" lon="5.85172">
        <ele>673</ele>
        <time>2018-09-01T15:49:27Z</time>
      </trkpt>
      <trkpt lat="45.70622" lon="5.85172">
        <ele>673</ele>
        <time>2018-09-01T15:49:27Z</time>
      </trkpt>
      <trkpt lat="45.70628" lon="5.8517">
        <ele>664</ele>
        <time>2018-09-01T15:49:43Z</time>
      </trkpt>
      <trkpt lat="45.70634" lon="5.85168">
        <ele>664</ele>
        <time>2018-09-01T15:49:43Z</time>
      </trkpt>
      <trkpt lat="45.7064" lon="5.85166">
        <ele>664</ele>
        <time>2018-09-01T15:49:43Z</time>
      </trkpt>
      <trkpt lat="45.70644" lon="5.85163">
        <ele>664</ele>
        <time>2018-09-01T15:49:43Z</time>
      </trkpt>
      <trkpt lat="45.70649" lon="5.85162">
        <ele>664</ele>
        <time>2018-09-01T15:49:59Z</time>
      </trkpt>
      <trkpt lat="45.70654" lon="5.85158">
        <ele>664</ele>
        <time>2018-09-01T15:49:59Z</time>
      </trkpt>
      <trkpt lat="45.7066" lon="5.85156">
        <ele>664</ele>
        <time>2018-09-01T15:49:59Z</time>
      </trkpt>
      <trkpt lat="45.70666" lon="5.85155">
        <ele>664</ele>
        <time>2018-09-01T15:49:59Z</time>
      </trkpt>
      <trkpt lat="45.70671" lon="5.85151">
        <ele>664</ele>
        <time>2018-09-01T15:50:15Z</time>
      </trkpt>
      <trkpt lat="45.70677" lon="5.85145">
        <ele>664</ele>
        <time>2018-09-01T15:50:15Z</time>
      </trkpt>
      <trkpt lat="45.70684" lon="5.85143">
        <ele>664</ele>
        <time>2018-09-01T15:50:15Z</time>
      </trkpt>
      <trkpt lat="45.7069" lon="5.8514">
        <ele>664</ele>
        <time>2018-09-01T15:50:15Z</time>
      </trkpt>
      <trkpt lat="45.70694" lon="5.85139">
        <ele>664</ele>
        <time>2018-09-01T15:50:31Z</time>
      </trkpt>
      <trkpt lat="45.70698" lon="5.85136">
        <ele>664</ele>
        <time>2018-09-01T15:50:31Z</time>
      </trkpt>
      <trkpt lat="45.70702" lon="5.85133">
        <ele>664</ele>
        <time>2018-09-01T15:50:31Z</time>
      </trkpt>
      <trkpt lat="45.70709" lon="5.85129">
        <ele>661</ele>
        <time>2018-09-01T15:50:31Z</time>
      </trkpt>
      <trkpt lat="45.70715" lon="5.85127">
        <ele>661</ele>
        <time>2018-09-01T15:50:47Z</time>
      </trkpt>
      <trkpt lat="45.70721" lon="5.85123">
        <ele>689</ele>
        <time>2018-09-01T15:50:47Z</time>
      </trkpt>
      <trkpt lat="45.70725" lon="5.85124">
        <ele>689</ele>
        <time>2018-09-01T15:50:47Z</time>
      </trkpt>
      <trkpt lat="45.7073" lon="5.85122">
        <ele>689</ele>
        <time>2018-09-01T15:50:47Z</time>
      </trkpt>
      <trkpt lat="45.70737" lon="5.85118">
        <ele>689</ele>
        <time>2018-09-01T15:51:03Z</time>
      </trkpt>
      <trkpt lat="45.70741" lon="5.85115">
        <ele>689</ele>
        <time>2018-09-01T15:51:03Z</time>
      </trkpt>
      <trkpt lat="45.70746" lon="5.85112">
        <ele>689</ele>
        <time>2018-09-01T15:51:03Z</time>
      </trkpt>
      <trkpt lat="45.70752" lon="5.85109">
        <ele>689</ele>
        <time>2018-09-01T15:51:03Z</time>
      </trkpt>
      <trkpt lat="45.70756" lon="5.85107">
        <ele>689</ele>
        <time>2018-09-01T15:51:19Z</time>
      </trkpt>
      <trkpt lat="45.70759" lon="5.85104">
        <ele>689</ele>
        <time>2018-09-01T15:51:19Z</time>
      </trkpt>
      <trkpt lat="45.70765" lon="5.851">
        <ele>689</ele>
        <time>2018-09-01T15:51:19Z</time>
      </trkpt>
      <trkpt lat="45.70768" lon="5.85098">
        <ele>689</ele>
        <time>2018-09-01T15:51:19Z</time>
      </trkpt>
      <trkpt lat="45.70773" lon="5.85095">
        <ele>689</ele>
        <time>2018-09-01T15:51:35Z</time>
      </trkpt>
      <trkpt lat="45.70776" lon="5.85094">
        <ele>689</ele>
        <time>2018-09-01T15:51:35Z</time>
      </trkpt>
      <trkpt lat="45.70782" lon="5.85094">
        <ele>689</ele>
        <time>2018-09-01T15:51:35Z</time>
      </trkpt>
      <trkpt lat="45.70789" lon="5.85093">
        <ele>689</ele>
        <time>2018-09-01T15:51:35Z</time>
      </trkpt>
      <trkpt lat="45.70795" lon="5.85094">
        <ele>691</ele>
        <time>2018-09-01T15:51:51Z</time>
      </trkpt>
      <trkpt lat="45.70802" lon="5.85093">
        <ele>691</ele>
        <time>2018-09-01T15:51:51Z</time>
      </trkpt>
      <trkpt lat="45.70807" lon="5.85093">
        <ele>691</ele>
        <time>2018-09-01T15:51:51Z</time>
      </trkpt>
      <trkpt lat="45.70813" lon="5.85092">
        <ele>691</ele>
        <time>2018-09-01T15:51:51Z</time>
      </trkpt>
      <trkpt lat="45.70818" lon="5.85091">
        <ele>691</ele>
        <time>2018-09-01T15:52:07Z</time>
      </trkpt>
      <trkpt lat="45.70823" lon="5.8509">
        <ele>691</ele>
        <time>2018-09-01T15:52:07Z</time>
      </trkpt>
      <trkpt lat="45.70829" lon="5.85088">
        <ele>691</ele>
        <time>2018-09-01T15:52:07Z</time>
      </trkpt>
      <trkpt lat="45.70834" lon="5.85088">
        <ele>691</ele>
        <time>2018-09-01T15:52:07Z</time>
      </trkpt>
      <trkpt lat="45.70838" lon="5.85088">
        <ele>691</ele>
        <time>2018-09-01T15:52:23Z</time>
      </trkpt>
      <trkpt lat="45.70842" lon="5.85086">
        <ele>691</ele>
        <time>2018-09-01T15:52:23Z</time>
      </trkpt>
      <trkpt lat="45.70846" lon="5.85084">
        <ele>691</ele>
        <time>2018-09-01T15:52:23Z</time>
      </trkpt>
      <trkpt lat="45.70851" lon="5.85082">
        <ele>691</ele>
        <time>2018-09-01T15:52:23Z</time>
      </trkpt>
      <trkpt lat="45.70856" lon="5.8508">
        <ele>691</ele>
        <time>2018-09-01T15:52:39Z</time>
      </trkpt>
      <trkpt lat="45.7086" lon="5.85076">
        <ele>691</ele>
        <time>2018-09-01T15:52:39Z</time>
      </trkpt>
      <trkpt lat="45.70866" lon="5.85074">
        <ele>691</ele>
        <time>2018-09-01T15:52:39Z</time>
      </trkpt>
      <trkpt lat="45.7087" lon="5.85073">
        <ele>691</ele>
        <time>2018-09-01T15:52:39Z</time>
      </trkpt>
      <trkpt lat="45.70874" lon="5.8507">
        <ele>691</ele>
        <time>2018-09-01T15:52:55Z</time>
      </trkpt>
      <trkpt lat="45.7088" lon="5.85067">
        <ele>684</ele>
        <time>2018-09-01T15:52:55Z</time>
      </trkpt>
      <trkpt lat="45.70884" lon="5.85067">
        <ele>684</ele>
        <time>2018-09-01T15:52:55Z</time>
      </trkpt>
      <trkpt lat="45.70887" lon="5.85064">
        <ele>684</ele>
        <time>2018-09-01T15:52:55Z</time>
      </trkpt>
      <trkpt lat="45.70892" lon="5.85063">
        <ele>684</ele>
        <time>2018-09-01T15:53:11Z</time>
      </trkpt>
      <trkpt lat="45.70896" lon="5.8506">
        <ele>684</ele>
        <time>2018-09-01T15:53:11Z</time>
      </trkpt>
      <trkpt lat="45.70898" lon="5.85059">
        <ele>684</ele>
        <time>2018-09-01T15:53:11Z</time>
      </trkpt>
      <trkpt lat="45.70901" lon="5.85057">
        <ele>684</ele>
        <time>2018-09-01T15:53:11Z</time>
      </trkpt>
      <trkpt lat="45.70908" lon="5.85055">
        <ele>684</ele>
        <time>2018-09-01T15:53:27Z</time>
      </trkpt>
      <trkpt lat="45.70911" lon="5.85054">
        <ele>684</ele>
        <time>2018-09-01T15:53:27Z</time>
      </trkpt>
      <trkpt lat="45.70914" lon="5.85053">
        <ele>684</ele>
        <time>2018-09-01T15:53:27Z</time>
      </trkpt>
      <trkpt lat="45.70917" lon="5.85052">
        <ele>684</ele>
        <time>2018-09-01T15:53:27Z</time>
      </trkpt>
      <trkpt lat="45.70924" lon="5.8505">
        <ele>684</ele>
        <time>2018-09-01T15:53:43Z</time>
      </trkpt>
      <trkpt lat="45.70931" lon="5.85048">
        <ele>684</ele>
        <time>2018-09-01T15:53:43Z</time>
      </trkpt>
      <trkpt lat="45.70938" lon="5.85045">
        <ele>684</ele>
        <time>2018-09-01T15:53:43Z</time>
      </trkpt>
      <trkpt lat="45.70945" lon="5.8504">
        <ele>720</ele>
        <time>2018-09-01T15:53:43Z</time>
      </trkpt>
      <trkpt lat="45.70952" lon="5.85038">
        <ele>720</ele>
        <time>2018-09-01T15:53:59Z</time>
      </trkpt>
      <trkpt lat="45.70959" lon="5.85036">
        <ele>709</ele>
        <time>2018-09-01T15:53:59Z</time>
      </trkpt>
      <trkpt lat="45.70965" lon="5.85036">
        <ele>709</ele>
        <time>2018-09-01T15:53:59Z</time>
      </trkpt>
      <trkpt lat="45.70971" lon="5.85034">
        <ele>709</ele>
        <time>2018-09-01T15:53:59Z</time>
      </trkpt>
      <trkpt lat="45.70978" lon="5.85034">
        <ele>709</ele>
        <time>2018-09-01T15:54:15Z</time>
      </trkpt>
      <trkpt lat="45.70983" lon="5.85035">
        <ele>709</ele>
        <time>2018-09-01T15:54:15Z</time>
      </trkpt>
      <trkpt lat="45.70989" lon="5.85033">
        <ele>709</ele>
        <time>2018-09-01T15:54:15Z</time>
      </trkpt>
      <trkpt lat="45.70993" lon="5.85032">
        <ele>709</ele>
        <time>2018-09-01T15:54:15Z</time>
      </trkpt>
      <trkpt lat="45.70997" lon="5.85031">
        <ele>709</ele>
        <time>2018-09-01T15:54:31Z</time>
      </trkpt>
      <trkpt lat="45.71002" lon="5.85028">
        <ele>709</ele>
        <time>2018-09-01T15:54:31Z</time>
      </trkpt>
      <trkpt lat="45.71008" lon="5.85024">
        <ele>709</ele>
        <time>2018-09-01T15:54:31Z</time>
      </trkpt>
      <trkpt lat="45.71013" lon="5.85021">
        <ele>709</ele>
        <time>2018-09-01T15:54:31Z</time>
      </trkpt>
      <trkpt lat="45.71017" lon="5.85018">
        <ele>709</ele>
        <time>2018-09-01T15:54:47Z</time>
      </trkpt>
      <trkpt lat="45.71022" lon="5.85017">
        <ele>709</ele>
        <time>2018-09-01T15:54:47Z</time>
      </trkpt>
      <trkpt lat="45.71027" lon="5.85014">
        <ele>709</ele>
        <time>2018-09-01T15:54:47Z</time>
      </trkpt>
      <trkpt lat="45.71031" lon="5.85009">
        <ele>709</ele>
        <time>2018-09-01T15:54:47Z</time>
      </trkpt>
      <trkpt lat="45.71035" lon="5.85005">
        <ele>709</ele>
        <time>2018-09-01T15:55:03Z</time>
      </trkpt>
      <trkpt lat="45.71038" lon="5.85001">
        <ele>709</ele>
        <time>2018-09-01T15:55:03Z</time>
      </trkpt>
      <trkpt lat="45.71041" lon="5.84999">
        <ele>709</ele>
        <time>2018-09-01T15:55:03Z</time>
      </trkpt>
      <trkpt lat="45.71045" lon="5.84998">
        <ele>704</ele>
        <time>2018-09-01T15:55:03Z</time>
      </trkpt>
      <trkpt lat="45.71049" lon="5.84997">
        <ele>704</ele>
        <time>2018-09-01T15:55:19Z</time>
      </trkpt>
      <trkpt lat="45.71053" lon="5.84994">
        <ele>704</ele>
        <time>2018-09-01T15:55:19Z</time>
      </trkpt>
      <trkpt lat="45.71056" lon="5.8499">
        <ele>704</ele>
        <time>2018-09-01T15:55:19Z</time>
      </trkpt>
      <trkpt lat="45.71062" lon="5.84988">
        <ele>704</ele>
        <time>2018-09-01T15:55:19Z</time>
      </trkpt>
      <trkpt lat="45.71068" lon="5.84986">
        <ele>704</ele>
        <time>2018-09-01T15:55:35Z</time>
      </trkpt>
      <trkpt lat="45.71075" lon="5.84983">
        <ele>704</ele>
        <time>2018-09-01T15:55:35Z</time>
      </trkpt>
      <trkpt lat="45.7108" lon="5.8498">
        <ele>704</ele>
        <time>2018-09-01T15:55:35Z</time>
      </trkpt>
      <trkpt lat="45.7108" lon="5.8498">
        <ele>704</ele>
        <time>2018-09-01T15:55:35Z</time>
      </trkpt>
      <trkpt lat="45.71082" lon="5.8498">
        <ele>704</ele>
        <time>2018-09-01T15:55:51Z</time>
      </trkpt>
      <trkpt lat="45.71083" lon="5.84979">
        <ele>704</ele>
        <time>2018-09-01T15:55:51Z</time>
      </trkpt>
      <trkpt lat="45.71087" lon="5.84978">
        <ele>704</ele>
        <time>2018-09-01T15:55:51Z</time>
      </trkpt>
      <trkpt lat="45.71091" lon="5.84977">
        <ele>704</ele>
        <time>2018-09-01T15:55:51Z</time>
      </trkpt>
      <trkpt lat="45.71097" lon="5.84975">
        <ele>704</ele>
        <time>2018-09-01T15:56:07Z</time>
      </trkpt>
      <trkpt lat="45.71104" lon="5.84971">
        <ele>704</ele>
        <time>2018-09-01T15:56:07Z</time>
      </trkpt>
      <trkpt lat="45.7111" lon="5.84969">
        <ele>704</ele>
        <time>2018-09-01T15:56:07Z</time>
      </trkpt>
      <trkpt lat="45.71117" lon="5.84969">
        <ele>704</ele>
        <time>2018-09-01T15:56:07Z</time>
      </trkpt>
      <trkpt lat="45.71123" lon="5.84966">
        <ele>704</ele>
        <time>2018-09-01T15:56:23Z</time>
      </trkpt>
      <trkpt lat="45.71129" lon="5.84964">
        <ele>712</ele>
        <time>2018-09-01T15:56:23Z</time>
      </trkpt>
      <trkpt lat="45.71136" lon="5.84964">
        <ele>712</ele>
        <time>2018-09-01T15:56:23Z</time>
      </trkpt>
      <trkpt lat="45.71141" lon="5.84963">
        <ele>712</ele>
        <time>2018-09-01T15:56:23Z</time>
      </trkpt>
      <trkpt lat="45.71146" lon="5.84963">
        <ele>712</ele>
        <time>2018-09-01T15:56:39Z</time>
      </trkpt>
      <trkpt lat="45.71151" lon="5.84964">
        <ele>712</ele>
        <time>2018-09-01T15:56:39Z</time>
      </trkpt>
      <trkpt lat="45.71154" lon="5.84964">
        <ele>712</ele>
        <time>2018-09-01T15:56:39Z</time>
      </trkpt>
      <trkpt lat="45.71158" lon="5.84964">
        <ele>712</ele>
        <time>2018-09-01T15:56:39Z</time>
      </trkpt>
      <trkpt lat="45.71161" lon="5.84963">
        <ele>712</ele>
        <time>2018-09-01T15:56:55Z</time>
      </trkpt>
      <trkpt lat="45.71164" lon="5.84962">
        <ele>712</ele>
        <time>2018-09-01T15:56:55Z</time>
      </trkpt>
      <trkpt lat="45.71171" lon="5.84959">
        <ele>712</ele>
        <time>2018-09-01T15:56:55Z</time>
      </trkpt>
      <trkpt lat="45.71179" lon="5.84957">
        <ele>738</ele>
        <time>2018-09-01T15:56:55Z</time>
      </trkpt>
      <trkpt lat="45.71183" lon="5.84956">
        <ele>738</ele>
        <time>2018-09-01T15:57:11Z</time>
      </trkpt>
      <trkpt lat="45.71184" lon="5.84955">
        <ele>738</ele>
        <time>2018-09-01T15:57:11Z</time>
      </trkpt>
      <trkpt lat="45.71187" lon="5.84954">
        <ele>738</ele>
        <time>2018-09-01T15:57:11Z</time>
      </trkpt>
      <trkpt lat="45.71192" lon="5.84952">
        <ele>738</ele>
        <time>2018-09-01T15:57:11Z</time>
      </trkpt>
      <trkpt lat="45.71197" lon="5.84949">
        <ele>738</ele>
        <time>2018-09-01T15:57:27Z</time>
      </trkpt>
      <trkpt lat="45.71201" lon="5.84948">
        <ele>738</ele>
        <time>2018-09-01T15:57:27Z</time>
      </trkpt>
      <trkpt lat="45.71205" lon="5.84946">
        <ele>738</ele>
        <time>2018-09-01T15:57:27Z</time>
      </trkpt>
      <trkpt lat="45.7121" lon="5.84943">
        <ele>735</ele>
        <time>2018-09-01T15:57:27Z</time>
      </trkpt>
      <trkpt lat="45.71214" lon="5.84944">
        <ele>735</ele>
        <time>2018-09-01T15:57:43Z</time>
      </trkpt>
      <trkpt lat="45.71221" lon="5.84941">
        <ele>735</ele>
        <time>2018-09-01T15:57:43Z</time>
      </trkpt>
      <trkpt lat="45.71225" lon="5.84943">
        <ele>735</ele>
        <time>2018-09-01T15:57:43Z</time>
      </trkpt>
      <trkpt lat="45.71226" lon="5.84945">
        <ele>735</ele>
        <time>2018-09-01T15:57:43Z</time>
      </trkpt>
      <trkpt lat="45.71228" lon="5.84948">
        <ele>735</ele>
        <time>2018-09-01T15:58:03Z</time>
      </trkpt>
      <trkpt lat="45.71231" lon="5.84951">
        <ele>735</ele>
        <time>2018-09-01T15:58:03Z</time>
      </trkpt>
      <trkpt lat="45.71233" lon="5.84953">
        <ele>735</ele>
        <time>2018-09-01T15:58:03Z</time>
      </trkpt>
      <trkpt lat="45.71233" lon="5.84956">
        <ele>735</ele>
        <time>2018-09-01T15:58:03Z</time>
      </trkpt>
      <trkpt lat="45.71234" lon="5.84961">
        <ele>716</ele>
        <time>2018-09-01T15:58:03Z</time>
      </trkpt>
      <trkpt lat="45.7124" lon="5.84972">
        <ele>716</ele>
        <time>2018-09-01T15:58:43Z</time>
      </trkpt>
      <trkpt lat="45.7124" lon="5.84972">
        <ele>716</ele>
        <time>2018-09-01T15:58:43Z</time>
      </trkpt>
      <trkpt lat="45.7124" lon="5.84972">
        <ele>716</ele>
        <time>2018-09-01T15:58:43Z</time>
      </trkpt>
      <trkpt lat="45.7124" lon="5.84972">
        <ele>716</ele>
        <time>2018-09-01T15:58:43Z</time>
      </trkpt>
      <trkpt lat="45.71239" lon="5.84978">
        <ele>716</ele>
        <time>2018-09-01T15:58:43Z</time>
      </trkpt>
      <trkpt lat="45.71238" lon="5.84985">
        <ele>716</ele>
        <time>2018-09-01T15:58:59Z</time>
      </trkpt>
      <trkpt lat="45.71237" lon="5.84992">
        <ele>716</ele>
        <time>2018-09-01T15:58:59Z</time>
      </trkpt>
      <trkpt lat="45.71234" lon="5.84995">
        <ele>716</ele>
        <time>2018-09-01T15:58:59Z</time>
      </trkpt>
      <trkpt lat="45.71231" lon="5.84999">
        <ele>716</ele>
        <time>2018-09-01T15:58:59Z</time>
      </trkpt>
      <trkpt lat="45.71229" lon="5.85004">
        <ele>716</ele>
        <time>2018-09-01T15:59:15Z</time>
      </trkpt>
      <trkpt lat="45.71231" lon="5.85008">
        <ele>716</ele>
        <time>2018-09-01T15:59:15Z</time>
      </trkpt>
      <trkpt lat="45.71234" lon="5.85011">
        <ele>716</ele>
        <time>2018-09-01T15:59:15Z</time>
      </trkpt>
      <trkpt lat="45.71236" lon="5.85016">
        <ele>716</ele>
        <time>2018-09-01T15:59:15Z</time>
      </trkpt>
      <trkpt lat="45.7124" lon="5.8502">
        <ele>716</ele>
        <time>2018-09-01T15:59:31Z</time>
      </trkpt>
      <trkpt lat="45.71243" lon="5.85023">
        <ele>716</ele>
        <time>2018-09-01T15:59:31Z</time>
      </trkpt>
      <trkpt lat="45.71245" lon="5.85027">
        <ele>716</ele>
        <time>2018-09-01T15:59:31Z</time>
      </trkpt>
      <trkpt lat="45.71247" lon="5.85028">
        <ele>716</ele>
        <time>2018-09-01T15:59:31Z</time>
      </trkpt>
      <trkpt lat="45.71254" lon="5.85029">
        <ele>716</ele>
        <time>2018-09-01T16:00:55Z</time>
      </trkpt>
      <trkpt lat="45.71255" lon="5.8503">
        <ele>716</ele>
        <time>2018-09-01T16:00:55Z</time>
      </trkpt>
      <trkpt lat="45.71256" lon="5.85032">
        <ele>716</ele>
        <time>2018-09-01T16:00:55Z</time>
      </trkpt>
      <trkpt lat="45.71257" lon="5.85037">
        <ele>716</ele>
        <time>2018-09-01T16:00:55Z</time>
      </trkpt>
      <trkpt lat="45.71258" lon="5.85039">
        <ele>716</ele>
        <time>2018-09-01T16:00:55Z</time>
      </trkpt>
      <trkpt lat="45.71259" lon="5.85034">
        <ele>716</ele>
        <time>2018-09-01T16:02:47Z</time>
      </trkpt>
      <trkpt lat="45.71262" lon="5.85034">
        <ele>716</ele>
        <time>2018-09-01T16:02:47Z</time>
      </trkpt>
      <trkpt lat="45.71266" lon="5.85034">
        <ele>716</ele>
        <time>2018-09-01T16:02:47Z</time>
      </trkpt>
      <trkpt lat="45.71271" lon="5.85033">
        <ele>716</ele>
        <time>2018-09-01T16:02:47Z</time>
      </trkpt>
      <trkpt lat="45.71274" lon="5.85032">
        <ele>716</ele>
        <time>2018-09-01T16:02:47Z</time>
      </trkpt>
      <trkpt lat="45.71282" lon="5.85034">
        <ele>716</ele>
        <time>2018-09-01T16:03:23Z</time>
      </trkpt>
      <trkpt lat="45.71282" lon="5.85034">
        <ele>716</ele>
        <time>2018-09-01T16:03:23Z</time>
      </trkpt>
      <trkpt lat="45.71282" lon="5.85034">
        <ele>716</ele>
        <time>2018-09-01T16:03:23Z</time>
      </trkpt>
      <trkpt lat="45.71284" lon="5.85032">
        <ele>716</ele>
        <time>2018-09-01T16:03:23Z</time>
      </trkpt>
      <trkpt lat="45.71288" lon="5.85032">
        <ele>716</ele>
        <time>2018-09-01T16:03:23Z</time>
      </trkpt>
      <trkpt lat="45.71293" lon="5.85029">
        <ele>697</ele>
        <time>2018-09-01T16:03:39Z</time>
      </trkpt>
      <trkpt lat="45.71297" lon="5.85027">
        <ele>697</ele>
        <time>2018-09-01T16:03:39Z</time>
      </trkpt>
      <trkpt lat="45.71302" lon="5.85029">
        <ele>697</ele>
        <time>2018-09-01T16:03:39Z</time>
      </trkpt>
      <trkpt lat="45.71306" lon="5.85032">
        <ele>697</ele>
        <time>2018-09-01T16:03:39Z</time>
      </trkpt>
      <trkpt lat="45.71312" lon="5.85034">
        <ele>697</ele>
        <time>2018-09-01T16:03:59Z</time>
      </trkpt>
      <trkpt lat="45.71315" lon="5.85034">
        <ele>697</ele>
        <time>2018-09-01T16:03:59Z</time>
      </trkpt>
      <trkpt lat="45.71316" lon="5.85031">
        <ele>697</ele>
        <time>2018-09-01T16:03:59Z</time>
      </trkpt>
      <trkpt lat="45.71318" lon="5.85027">
        <ele>697</ele>
        <time>2018-09-01T16:03:59Z</time>
      </trkpt>
      <trkpt lat="45.7132" lon="5.85021">
        <ele>697</ele>
        <time>2018-09-01T16:03:59Z</time>
      </trkpt>
      <trkpt lat="45.71327" lon="5.85017">
        <ele>697</ele>
        <time>2018-09-01T16:04:15Z</time>
      </trkpt>
      <trkpt lat="45.71332" lon="5.85011">
        <ele>697</ele>
        <time>2018-09-01T16:04:15Z</time>
      </trkpt>
      <trkpt lat="45.71337" lon="5.85006">
        <ele>697</ele>
        <time>2018-09-01T16:04:15Z</time>
      </trkpt>
      <trkpt lat="45.71338" lon="5.85007">
        <ele>697</ele>
        <time>2018-09-01T16:04:15Z</time>
      </trkpt>
      <trkpt lat="45.7134" lon="5.85002">
        <ele>697</ele>
        <time>2018-09-01T16:04:31Z</time>
      </trkpt>
      <trkpt lat="45.71344" lon="5.84995">
        <ele>697</ele>
        <time>2018-09-01T16:04:31Z</time>
      </trkpt>
      <trkpt lat="45.71349" lon="5.84991">
        <ele>697</ele>
        <time>2018-09-01T16:04:31Z</time>
      </trkpt>
      <trkpt lat="45.71352" lon="5.84987">
        <ele>697</ele>
        <time>2018-09-01T16:04:31Z</time>
      </trkpt>
      <trkpt lat="45.71357" lon="5.8498">
        <ele>697</ele>
        <time>2018-09-01T16:04:47Z</time>
      </trkpt>
      <trkpt lat="45.71364" lon="5.84972">
        <ele>697</ele>
        <time>2018-09-01T16:04:47Z</time>
      </trkpt>
      <trkpt lat="45.71369" lon="5.84964">
        <ele>697</ele>
        <time>2018-09-01T16:04:47Z</time>
      </trkpt>
      <trkpt lat="45.71374" lon="5.84958">
        <ele>697</ele>
        <time>2018-09-01T16:04:47Z</time>
      </trkpt>
      <trkpt lat="45.71377" lon="5.84954">
        <ele>692</ele>
        <time>2018-09-01T16:05:03Z</time>
      </trkpt>
      <trkpt lat="45.71383" lon="5.84952">
        <ele>692</ele>
        <time>2018-09-01T16:05:03Z</time>
      </trkpt>
      <trkpt lat="45.71386" lon="5.8495">
        <ele>692</ele>
        <time>2018-09-01T16:05:03Z</time>
      </trkpt>
      <trkpt lat="45.71391" lon="5.84946">
        <ele>692</ele>
        <time>2018-09-01T16:05:03Z</time>
      </trkpt>
      <trkpt lat="45.71395" lon="5.84944">
        <ele>692</ele>
        <time>2018-09-01T16:05:19Z</time>
      </trkpt>
      <trkpt lat="45.71402" lon="5.84942">
        <ele>692</ele>
        <time>2018-09-01T16:05:19Z</time>
      </trkpt>
      <trkpt lat="45.71409" lon="5.84939">
        <ele>692</ele>
        <time>2018-09-01T16:05:19Z</time>
      </trkpt>
      <trkpt lat="45.71414" lon="5.84937">
        <ele>692</ele>
        <time>2018-09-01T16:05:19Z</time>
      </trkpt>
      <trkpt lat="45.71421" lon="5.84935">
        <ele>692</ele>
        <time>2018-09-01T16:05:35Z</time>
      </trkpt>
      <trkpt lat="45.71429" lon="5.84933">
        <ele>692</ele>
        <time>2018-09-01T16:05:35Z</time>
      </trkpt>
      <trkpt lat="45.71436" lon="5.84932">
        <ele>692</ele>
        <time>2018-09-01T16:05:35Z</time>
      </trkpt>
      <trkpt lat="45.71438" lon="5.8493">
        <ele>692</ele>
        <time>2018-09-01T16:05:35Z</time>
      </trkpt>
      <trkpt lat="45.71441" lon="5.84929">
        <ele>692</ele>
        <time>2018-09-01T16:05:51Z</time>
      </trkpt>
      <trkpt lat="45.71447" lon="5.84928">
        <ele>692</ele>
        <time>2018-09-01T16:05:51Z</time>
      </trkpt>
      <trkpt lat="45.71453" lon="5.84923">
        <ele>692</ele>
        <time>2018-09-01T16:05:51Z</time>
      </trkpt>
      <trkpt lat="45.71458" lon="5.84918">
        <ele>692</ele>
        <time>2018-09-01T16:05:51Z</time>
      </trkpt>
      <trkpt lat="45.71465" lon="5.84915">
        <ele>665</ele>
        <time>2018-09-01T16:06:07Z</time>
      </trkpt>
      <trkpt lat="45.7147" lon="5.84913">
        <ele>665</ele>
        <time>2018-09-01T16:06:07Z</time>
      </trkpt>
      <trkpt lat="45.71476" lon="5.84911">
        <ele>665</ele>
        <time>2018-09-01T16:06:07Z</time>
      </trkpt>
      <trkpt lat="45.71482" lon="5.84907">
        <ele>665</ele>
        <time>2018-09-01T16:06:07Z</time>
      </trkpt>
      <trkpt lat="45.71487" lon="5.84905">
        <ele>665</ele>
        <time>2018-09-01T16:06:27Z</time>
      </trkpt>
      <trkpt lat="45.7149" lon="5.84906">
        <ele>665</ele>
        <time>2018-09-01T16:06:27Z</time>
      </trkpt>
      <trkpt lat="45.71491" lon="5.84908">
        <ele>665</ele>
        <time>2018-09-01T16:06:27Z</time>
      </trkpt>
      <trkpt lat="45.71496" lon="5.84906">
        <ele>665</ele>
        <time>2018-09-01T16:06:27Z</time>
      </trkpt>
      <trkpt lat="45.71497" lon="5.84904">
        <ele>665</ele>
        <time>2018-09-01T16:06:27Z</time>
      </trkpt>
      <trkpt lat="45.715" lon="5.84903">
        <ele>665</ele>
        <time>2018-09-01T16:06:55Z</time>
      </trkpt>
      <trkpt lat="45.715" lon="5.84903">
        <ele>665</ele>
        <time>2018-09-01T16:06:55Z</time>
      </trkpt>
      <trkpt lat="45.715" lon="5.84903">
        <ele>665</ele>
        <time>2018-09-01T16:06:55Z</time>
      </trkpt>
      <trkpt lat="45.71505" lon="5.849">
        <ele>665</ele>
        <time>2018-09-01T16:06:55Z</time>
      </trkpt>
      <trkpt lat="45.71511" lon="5.84894">
        <ele>665</ele>
        <time>2018-09-01T16:06:55Z</time>
      </trkpt>
      <trkpt lat="45.71515" lon="5.84887">
        <ele>665</ele>
        <time>2018-09-01T16:07:11Z</time>
      </trkpt>
      <trkpt lat="45.71517" lon="5.84885">
        <ele>665</ele>
        <time>2018-09-01T16:07:11Z</time>
      </trkpt>
      <trkpt lat="45.7152" lon="5.84881">
        <ele>665</ele>
        <time>2018-09-01T16:07:11Z</time>
      </trkpt>
      <trkpt lat="45.71525" lon="5.84876">
        <ele>665</ele>
        <time>2018-09-01T16:07:11Z</time>
      </trkpt>
      <trkpt lat="45.71531" lon="5.8487">
        <ele>689</ele>
        <time>2018-09-01T16:07:27Z</time>
      </trkpt>
      <trkpt lat="45.71536" lon="5.84863">
        <ele>689</ele>
        <time>2018-09-01T16:07:27Z</time>
      </trkpt>
      <trkpt lat="45.71542" lon="5.84856">
        <ele>665</ele>
        <time>2018-09-01T16:07:27Z</time>
      </trkpt>
      <trkpt lat="45.71543" lon="5.84855">
        <ele>665</ele>
        <time>2018-09-01T16:07:27Z</time>
      </trkpt>
      <trkpt lat="45.71545" lon="5.84856">
        <ele>665</ele>
        <time>2018-09-01T16:07:47Z</time>
      </trkpt>
      <trkpt lat="45.71546" lon="5.84856">
        <ele>665</ele>
        <time>2018-09-01T16:07:47Z</time>
      </trkpt>
      <trkpt lat="45.71549" lon="5.84853">
        <ele>665</ele>
        <time>2018-09-01T16:07:47Z</time>
      </trkpt>
      <trkpt lat="45.71551" lon="5.84851">
        <ele>665</ele>
        <time>2018-09-01T16:07:47Z</time>
      </trkpt>
      <trkpt lat="45.71556" lon="5.8485">
        <ele>665</ele>
        <time>2018-09-01T16:07:47Z</time>
      </trkpt>
      <trkpt lat="45.71558" lon="5.84849">
        <ele>665</ele>
        <time>2018-09-01T16:08:03Z</time>
      </trkpt>
      <trkpt lat="45.7156" lon="5.84848">
        <ele>665</ele>
        <time>2018-09-01T16:08:03Z</time>
      </trkpt>
      <trkpt lat="45.71563" lon="5.84846">
        <ele>665</ele>
        <time>2018-09-01T16:08:03Z</time>
      </trkpt>
      <trkpt lat="45.71567" lon="5.84844">
        <ele>665</ele>
        <time>2018-09-01T16:08:03Z</time>
      </trkpt>
      <trkpt lat="45.71572" lon="5.84843">
        <ele>665</ele>
        <time>2018-09-01T16:08:19Z</time>
      </trkpt>
      <trkpt lat="45.71579" lon="5.84842">
        <ele>665</ele>
        <time>2018-09-01T16:08:19Z</time>
      </trkpt>
      <trkpt lat="45.71582" lon="5.84841">
        <ele>665</ele>
        <time>2018-09-01T16:08:19Z</time>
      </trkpt>
      <trkpt lat="45.71585" lon="5.8484">
        <ele>665</ele>
        <time>2018-09-01T16:08:19Z</time>
      </trkpt>
      <trkpt lat="45.71587" lon="5.84839">
        <ele>665</ele>
        <time>2018-09-01T16:08:39Z</time>
      </trkpt>
      <trkpt lat="45.71589" lon="5.84837">
        <ele>665</ele>
        <time>2018-09-01T16:08:39Z</time>
      </trkpt>
      <trkpt lat="45.71593" lon="5.84837">
        <ele>665</ele>
        <time>2018-09-01T16:08:39Z</time>
      </trkpt>
      <trkpt lat="45.71596" lon="5.84837">
        <ele>665</ele>
        <time>2018-09-01T16:08:39Z</time>
      </trkpt>
      <trkpt lat="45.71599" lon="5.84836">
        <ele>665</ele>
        <time>2018-09-01T16:08:39Z</time>
      </trkpt>
      <trkpt lat="45.71601" lon="5.84836">
        <ele>665</ele>
        <time>2018-09-01T16:08:55Z</time>
      </trkpt>
      <trkpt lat="45.71604" lon="5.84835">
        <ele>665</ele>
        <time>2018-09-01T16:08:55Z</time>
      </trkpt>
      <trkpt lat="45.71607" lon="5.84834">
        <ele>665</ele>
        <time>2018-09-01T16:08:55Z</time>
      </trkpt>
      <trkpt lat="45.7161" lon="5.84833">
        <ele>665</ele>
        <time>2018-09-01T16:08:55Z</time>
      </trkpt>
      <trkpt lat="45.71613" lon="5.84832">
        <ele>665</ele>
        <time>2018-09-01T16:09:11Z</time>
      </trkpt>
      <trkpt lat="45.71619" lon="5.84831">
        <ele>665</ele>
        <time>2018-09-01T16:09:11Z</time>
      </trkpt>
      <trkpt lat="45.71626" lon="5.84827">
        <ele>641</ele>
        <time>2018-09-01T16:09:11Z</time>
      </trkpt>
      <trkpt lat="45.71633" lon="5.84824">
        <ele>641</ele>
        <time>2018-09-01T16:09:11Z</time>
      </trkpt>
      <trkpt lat="45.71641" lon="5.84825">
        <ele>641</ele>
        <time>2018-09-01T16:09:27Z</time>
      </trkpt>
      <trkpt lat="45.71649" lon="5.84825">
        <ele>641</ele>
        <time>2018-09-01T16:09:27Z</time>
      </trkpt>
      <trkpt lat="45.71655" lon="5.84823">
        <ele>641</ele>
        <time>2018-09-01T16:09:27Z</time>
      </trkpt>
      <trkpt lat="45.71659" lon="5.84823">
        <ele>641</ele>
        <time>2018-09-01T16:09:27Z</time>
      </trkpt>
      <trkpt lat="45.7167" lon="5.84826">
        <ele>641</ele>
        <time>2018-09-01T16:09:43Z</time>
      </trkpt>
      <trkpt lat="45.71678" lon="5.84829">
        <ele>641</ele>
        <time>2018-09-01T16:09:43Z</time>
      </trkpt>
      <trkpt lat="45.71686" lon="5.84828">
        <ele>641</ele>
        <time>2018-09-01T16:09:43Z</time>
      </trkpt>
      <trkpt lat="45.7169" lon="5.8483">
        <ele>641</ele>
        <time>2018-09-01T16:09:43Z</time>
      </trkpt>
      <trkpt lat="45.71696" lon="5.8483">
        <ele>641</ele>
        <time>2018-09-01T16:09:59Z</time>
      </trkpt>
      <trkpt lat="45.71702" lon="5.84829">
        <ele>641</ele>
        <time>2018-09-01T16:09:59Z</time>
      </trkpt>
      <trkpt lat="45.71708" lon="5.84829">
        <ele>641</ele>
        <time>2018-09-01T16:09:59Z</time>
      </trkpt>
      <trkpt lat="45.71711" lon="5.84826">
        <ele>624</ele>
        <time>2018-09-01T16:09:59Z</time>
      </trkpt>
      <trkpt lat="45.71715" lon="5.84824">
        <ele>624</ele>
        <time>2018-09-01T16:10:19Z</time>
      </trkpt>
      <trkpt lat="45.71717" lon="5.84825">
        <ele>624</ele>
        <time>2018-09-01T16:10:19Z</time>
      </trkpt>
      <trkpt lat="45.71718" lon="5.84826">
        <ele>624</ele>
        <time>2018-09-01T16:10:19Z</time>
      </trkpt>
      <trkpt lat="45.71722" lon="5.84825">
        <ele>624</ele>
        <time>2018-09-01T16:10:19Z</time>
      </trkpt>
      <trkpt lat="45.71726" lon="5.84826">
        <ele>624</ele>
        <time>2018-09-01T16:10:19Z</time>
      </trkpt>
      <trkpt lat="45.71731" lon="5.84826">
        <ele>624</ele>
        <time>2018-09-01T16:10:35Z</time>
      </trkpt>
      <trkpt lat="45.71736" lon="5.84826">
        <ele>624</ele>
        <time>2018-09-01T16:10:35Z</time>
      </trkpt>
      <trkpt lat="45.7174" lon="5.84825">
        <ele>624</ele>
        <time>2018-09-01T16:10:35Z</time>
      </trkpt>
      <trkpt lat="45.71743" lon="5.84825">
        <ele>624</ele>
        <time>2018-09-01T16:10:35Z</time>
      </trkpt>
      <trkpt lat="45.71747" lon="5.84826">
        <ele>624</ele>
        <time>2018-09-01T16:10:51Z</time>
      </trkpt>
      <trkpt lat="45.7175" lon="5.84825">
        <ele>624</ele>
        <time>2018-09-01T16:10:51Z</time>
      </trkpt>
      <trkpt lat="45.71758" lon="5.84822">
        <ele>624</ele>
        <time>2018-09-01T16:10:51Z</time>
      </trkpt>
      <trkpt lat="45.71762" lon="5.8482">
        <ele>624</ele>
        <time>2018-09-01T16:10:51Z</time>
      </trkpt>
      <trkpt lat="45.71767" lon="5.84822">
        <ele>624</ele>
        <time>2018-09-01T16:11:07Z</time>
      </trkpt>
      <trkpt lat="45.71772" lon="5.84824">
        <ele>624</ele>
        <time>2018-09-01T16:11:07Z</time>
      </trkpt>
      <trkpt lat="45.71776" lon="5.84822">
        <ele>624</ele>
        <time>2018-09-01T16:11:07Z</time>
      </trkpt>
      <trkpt lat="45.7178" lon="5.84823">
        <ele>624</ele>
        <time>2018-09-01T16:11:07Z</time>
      </trkpt>
      <trkpt lat="45.71782" lon="5.84824">
        <ele>624</ele>
        <time>2018-09-01T16:11:31Z</time>
      </trkpt>
      <trkpt lat="45.71784" lon="5.84824">
        <ele>624</ele>
        <time>2018-09-01T16:11:31Z</time>
      </trkpt>
      <trkpt lat="45.71788" lon="5.84825">
        <ele>624</ele>
        <time>2018-09-01T16:11:31Z</time>
      </trkpt>
      <trkpt lat="45.7179" lon="5.84826">
        <ele>624</ele>
        <time>2018-09-01T16:11:31Z</time>
      </trkpt>
      <trkpt lat="45.71791" lon="5.84826">
        <ele>624</ele>
        <time>2018-09-01T16:11:31Z</time>
      </trkpt>
      <trkpt lat="45.71791" lon="5.84826">
        <ele>624</ele>
        <time>2018-09-01T16:12:31Z</time>
      </trkpt>
      <trkpt lat="45.71791" lon="5.84826">
        <ele>624</ele>
        <time>2018-09-01T16:12:31Z</time>
      </trkpt>
      <trkpt lat="45.71793" lon="5.84822">
        <ele>600</ele>
        <time>2018-09-01T16:12:31Z</time>
      </trkpt>
      <trkpt lat="45.71795" lon="5.84817">
        <ele>600</ele>
        <time>2018-09-01T16:12:31Z</time>
      </trkpt>
      <trkpt lat="45.71795" lon="5.84814">
        <ele>600</ele>
        <time>2018-09-01T16:12:31Z</time>
      </trkpt>
      <trkpt lat="45.71796" lon="5.84813">
        <ele>600</ele>
        <time>2018-09-01T16:12:47Z</time>
      </trkpt>
      <trkpt lat="45.71797" lon="5.84811">
        <ele>600</ele>
        <time>2018-09-01T16:12:47Z</time>
      </trkpt>
      <trkpt lat="45.71802" lon="5.84803">
        <ele>600</ele>
        <time>2018-09-01T16:12:47Z</time>
      </trkpt>
      <trkpt lat="45.71809" lon="5.848">
        <ele>600</ele>
        <time>2018-09-01T16:12:47Z</time>
      </trkpt>
      <trkpt lat="45.71815" lon="5.84798">
        <ele>600</ele>
        <time>2018-09-01T16:13:03Z</time>
      </trkpt>
      <trkpt lat="45.7182" lon="5.84791">
        <ele>630</ele>
        <time>2018-09-01T16:13:03Z</time>
      </trkpt>
      <trkpt lat="45.71825" lon="5.84787">
        <ele>630</ele>
        <time>2018-09-01T16:13:03Z</time>
      </trkpt>
      <trkpt lat="45.71831" lon="5.84781">
        <ele>630</ele>
        <time>2018-09-01T16:13:03Z</time>
      </trkpt>
      <trkpt lat="45.71838" lon="5.84773">
        <ele>630</ele>
        <time>2018-09-01T16:13:19Z</time>
      </trkpt>
      <trkpt lat="45.71843" lon="5.84768">
        <ele>630</ele>
        <time>2018-09-01T16:13:19Z</time>
      </trkpt>
      <trkpt lat="45.71846" lon="5.84763">
        <ele>630</ele>
        <time>2018-09-01T16:13:19Z</time>
      </trkpt>
      <trkpt lat="45.71847" lon="5.84759">
        <ele>630</ele>
        <time>2018-09-01T16:13:19Z</time>
      </trkpt>
      <trkpt lat="45.7185" lon="5.84754">
        <ele>630</ele>
        <time>2018-09-01T16:13:39Z</time>
      </trkpt>
      <trkpt lat="45.71851" lon="5.84751">
        <ele>630</ele>
        <time>2018-09-01T16:13:39Z</time>
      </trkpt>
      <trkpt lat="45.71853" lon="5.84748">
        <ele>630</ele>
        <time>2018-09-01T16:13:39Z</time>
      </trkpt>
      <trkpt lat="45.71855" lon="5.84746">
        <ele>630</ele>
        <time>2018-09-01T16:13:39Z</time>
      </trkpt>
      <trkpt lat="45.7186" lon="5.84744">
        <ele>630</ele>
        <time>2018-09-01T16:13:39Z</time>
      </trkpt>
      <trkpt lat="45.71864" lon="5.8474">
        <ele>630</ele>
        <time>2018-09-01T16:13:55Z</time>
      </trkpt>
      <trkpt lat="45.71866" lon="5.84736">
        <ele>630</ele>
        <time>2018-09-01T16:13:55Z</time>
      </trkpt>
      <trkpt lat="45.71869" lon="5.84732">
        <ele>630</ele>
        <time>2018-09-01T16:13:55Z</time>
      </trkpt>
      <trkpt lat="45.71874" lon="5.8473">
        <ele>630</ele>
        <time>2018-09-01T16:13:55Z</time>
      </trkpt>
      <trkpt lat="45.71879" lon="5.84727">
        <ele>615</ele>
        <time>2018-09-01T16:14:11Z</time>
      </trkpt>
      <trkpt lat="45.71885" lon="5.84723">
        <ele>615</ele>
        <time>2018-09-01T16:14:11Z</time>
      </trkpt>
      <trkpt lat="45.71887" lon="5.84722">
        <ele>615</ele>
        <time>2018-09-01T16:14:11Z</time>
      </trkpt>
      <trkpt lat="45.71889" lon="5.84721">
        <ele>615</ele>
        <time>2018-09-01T16:14:11Z</time>
      </trkpt>
      <trkpt lat="45.71894" lon="5.84717">
        <ele>615</ele>
        <time>2018-09-01T16:14:27Z</time>
      </trkpt>
      <trkpt lat="45.71898" lon="5.84716">
        <ele>615</ele>
        <time>2018-09-01T16:14:27Z</time>
      </trkpt>
      <trkpt lat="45.71903" lon="5.84711">
        <ele>615</ele>
        <time>2018-09-01T16:14:27Z</time>
      </trkpt>
      <trkpt lat="45.71907" lon="5.84708">
        <ele>615</ele>
        <time>2018-09-01T16:14:27Z</time>
      </trkpt>
      <trkpt lat="45.71913" lon="5.84706">
        <ele>650</ele>
        <time>2018-09-01T16:14:43Z</time>
      </trkpt>
      <trkpt lat="45.71916" lon="5.84704">
        <ele>650</ele>
        <time>2018-09-01T16:14:43Z</time>
      </trkpt>
      <trkpt lat="45.71921" lon="5.84701">
        <ele>650</ele>
        <time>2018-09-01T16:14:43Z</time>
      </trkpt>
      <trkpt lat="45.71926" lon="5.84697">
        <ele>650</ele>
        <time>2018-09-01T16:14:43Z</time>
      </trkpt>
      <trkpt lat="45.7193" lon="5.84695">
        <ele>650</ele>
        <time>2018-09-01T16:14:59Z</time>
      </trkpt>
      <trkpt lat="45.71934" lon="5.84691">
        <ele>650</ele>
        <time>2018-09-01T16:14:59Z</time>
      </trkpt>
      <trkpt lat="45.71938" lon="5.84687">
        <ele>650</ele>
        <time>2018-09-01T16:14:59Z</time>
      </trkpt>
      <trkpt lat="45.7194" lon="5.84686">
        <ele>650</ele>
        <time>2018-09-01T16:14:59Z</time>
      </trkpt>
      <trkpt lat="45.71944" lon="5.84684">
        <ele>650</ele>
        <time>2018-09-01T16:15:15Z</time>
      </trkpt>
      <trkpt lat="45.71951" lon="5.84678">
        <ele>650</ele>
        <time>2018-09-01T16:15:15Z</time>
      </trkpt>
      <trkpt lat="45.71957" lon="5.84672">
        <ele>650</ele>
        <time>2018-09-01T16:15:15Z</time>
      </trkpt>
      <trkpt lat="45.71961" lon="5.84669">
        <ele>636</ele>
        <time>2018-09-01T16:15:15Z</time>
      </trkpt>
      <trkpt lat="45.71964" lon="5.84668">
        <ele>636</ele>
        <time>2018-09-01T16:15:31Z</time>
      </trkpt>
      <trkpt lat="45.71965" lon="5.84666">
        <ele>636</ele>
        <time>2018-09-01T16:15:31Z</time>
      </trkpt>
      <trkpt lat="45.71968" lon="5.84662">
        <ele>636</ele>
        <time>2018-09-01T16:15:31Z</time>
      </trkpt>
      <trkpt lat="45.71972" lon="5.84658">
        <ele>636</ele>
        <time>2018-09-01T16:15:31Z</time>
      </trkpt>
      <trkpt lat="45.71978" lon="5.84653">
        <ele>636</ele>
        <time>2018-09-01T16:15:47Z</time>
      </trkpt>
      <trkpt lat="45.71983" lon="5.84649">
        <ele>636</ele>
        <time>2018-09-01T16:15:47Z</time>
      </trkpt>
      <trkpt lat="45.71987" lon="5.84645">
        <ele>636</ele>
        <time>2018-09-01T16:15:47Z</time>
      </trkpt>
      <trkpt lat="45.71992" lon="5.84641">
        <ele>636</ele>
        <time>2018-09-01T16:15:47Z</time>
      </trkpt>
      <trkpt lat="45.71998" lon="5.84636">
        <ele>636</ele>
        <time>2018-09-01T16:16:03Z</time>
      </trkpt>
      <trkpt lat="45.72005" lon="5.84633">
        <ele>636</ele>
        <time>2018-09-01T16:16:03Z</time>
      </trkpt>
      <trkpt lat="45.72009" lon="5.8463">
        <ele>636</ele>
        <time>2018-09-01T16:16:03Z</time>
      </trkpt>
      <trkpt lat="45.72013" lon="5.84629">
        <ele>636</ele>
        <time>2018-09-01T16:16:03Z</time>
      </trkpt>
      <trkpt lat="45.72017" lon="5.84628">
        <ele>636</ele>
        <time>2018-09-01T16:16:19Z</time>
      </trkpt>
      <trkpt lat="45.72023" lon="5.84626">
        <ele>636</ele>
        <time>2018-09-01T16:16:19Z</time>
      </trkpt>
      <trkpt lat="45.72027" lon="5.84626">
        <ele>636</ele>
        <time>2018-09-01T16:16:19Z</time>
      </trkpt>
      <trkpt lat="45.72028" lon="5.84626">
        <ele>636</ele>
        <time>2018-09-01T16:16:19Z</time>
      </trkpt>
      <trkpt lat="45.7203" lon="5.84628">
        <ele>636</ele>
        <time>2018-09-01T16:16:35Z</time>
      </trkpt>
      <trkpt lat="45.72036" lon="5.84628">
        <ele>636</ele>
        <time>2018-09-01T16:16:35Z</time>
      </trkpt>
      <trkpt lat="45.72042" lon="5.84629">
        <ele>626</ele>
        <time>2018-09-01T16:16:35Z</time>
      </trkpt>
      <trkpt lat="45.72048" lon="5.84629">
        <ele>626</ele>
        <time>2018-09-01T16:16:35Z</time>
      </trkpt>
      <trkpt lat="45.72053" lon="5.84629">
        <ele>626</ele>
        <time>2018-09-01T16:16:51Z</time>
      </trkpt>
      <trkpt lat="45.72059" lon="5.84626">
        <ele>626</ele>
        <time>2018-09-01T16:16:51Z</time>
      </trkpt>
      <trkpt lat="45.72064" lon="5.84622">
        <ele>654</ele>
        <time>2018-09-01T16:16:51Z</time>
      </trkpt>
      <trkpt lat="45.7207" lon="5.8462">
        <ele>654</ele>
        <time>2018-09-01T16:16:51Z</time>
      </trkpt>
      <trkpt lat="45.72074" lon="5.84617">
        <ele>654</ele>
        <time>2018-09-01T16:17:07Z</time>
      </trkpt>
      <trkpt lat="45.72079" lon="5.84614">
        <ele>654</ele>
        <time>2018-09-01T16:17:07Z</time>
      </trkpt>
      <trkpt lat="45.72083" lon="5.8461">
        <ele>654</ele>
        <time>2018-09-01T16:17:07Z</time>
      </trkpt>
      <trkpt lat="45.72087" lon="5.84606">
        <ele>654</ele>
        <time>2018-09-01T16:17:07Z</time>
      </trkpt>
      <trkpt lat="45.72093" lon="5.84603">
        <ele>654</ele>
        <time>2018-09-01T16:17:23Z</time>
      </trkpt>
      <trkpt lat="45.72099" lon="5.84599">
        <ele>654</ele>
        <time>2018-09-01T16:17:23Z</time>
      </trkpt>
      <trkpt lat="45.72103" lon="5.84596">
        <ele>654</ele>
        <time>2018-09-01T16:17:23Z</time>
      </trkpt>
      <trkpt lat="45.72107" lon="5.84593">
        <ele>654</ele>
        <time>2018-09-01T16:17:23Z</time>
      </trkpt>
      <trkpt lat="45.72112" lon="5.84589">
        <ele>654</ele>
        <time>2018-09-01T16:17:39Z</time>
      </trkpt>
      <trkpt lat="45.72117" lon="5.84584">
        <ele>654</ele>
        <time>2018-09-01T16:17:39Z</time>
      </trkpt>
      <trkpt lat="45.72122" lon="5.84579">
        <ele>654</ele>
        <time>2018-09-01T16:17:39Z</time>
      </trkpt>
      <trkpt lat="45.72127" lon="5.84575">
        <ele>638</ele>
        <time>2018-09-01T16:17:39Z</time>
      </trkpt>
      <trkpt lat="45.72133" lon="5.84571">
        <ele>638</ele>
        <time>2018-09-01T16:17:55Z</time>
      </trkpt>
      <trkpt lat="45.72138" lon="5.84568">
        <ele>638</ele>
        <time>2018-09-01T16:17:55Z</time>
      </trkpt>
      <trkpt lat="45.72144" lon="5.84566">
        <ele>638</ele>
        <time>2018-09-01T16:17:55Z</time>
      </trkpt>
      <trkpt lat="45.72148" lon="5.84562">
        <ele>638</ele>
        <time>2018-09-01T16:17:55Z</time>
      </trkpt>
      <trkpt lat="45.72153" lon="5.8456">
        <ele>638</ele>
        <time>2018-09-01T16:18:11Z</time>
      </trkpt>
      <trkpt lat="45.72158" lon="5.84556">
        <ele>638</ele>
        <time>2018-09-01T16:18:11Z</time>
      </trkpt>
      <trkpt lat="45.72163" lon="5.84553">
        <ele>638</ele>
        <time>2018-09-01T16:18:11Z</time>
      </trkpt>
      <trkpt lat="45.72165" lon="5.84551">
        <ele>638</ele>
        <time>2018-09-01T16:18:11Z</time>
      </trkpt>
      <trkpt lat="45.72166" lon="5.84552">
        <ele>638</ele>
        <time>2018-09-01T16:18:27Z</time>
      </trkpt>
      <trkpt lat="45.72167" lon="5.84551">
        <ele>638</ele>
        <time>2018-09-01T16:18:27Z</time>
      </trkpt>
      <trkpt lat="45.72172" lon="5.84547">
        <ele>638</ele>
        <time>2018-09-01T16:18:27Z</time>
      </trkpt>
      <trkpt lat="45.72178" lon="5.84544">
        <ele>638</ele>
        <time>2018-09-01T16:18:27Z</time>
      </trkpt>
      <trkpt lat="45.72183" lon="5.8454">
        <ele>666</ele>
        <time>2018-09-01T16:18:43Z</time>
      </trkpt>
      <trkpt lat="45.72188" lon="5.84536">
        <ele>666</ele>
        <time>2018-09-01T16:18:43Z</time>
      </trkpt>
      <trkpt lat="45.72193" lon="5.84534">
        <ele>666</ele>
        <time>2018-09-01T16:18:43Z</time>
      </trkpt>
      <trkpt lat="45.72198" lon="5.84532">
        <ele>666</ele>
        <time>2018-09-01T16:18:43Z</time>
      </trkpt>
      <trkpt lat="45.72203" lon="5.84529">
        <ele>666</ele>
        <time>2018-09-01T16:18:59Z</time>
      </trkpt>
      <trkpt lat="45.72208" lon="5.84525">
        <ele>647</ele>
        <time>2018-09-01T16:18:59Z</time>
      </trkpt>
      <trkpt lat="45.72214" lon="5.84521">
        <ele>647</ele>
        <time>2018-09-01T16:18:59Z</time>
      </trkpt>
      <trkpt lat="45.7222" lon="5.84516">
        <ele>647</ele>
        <time>2018-09-01T16:18:59Z</time>
      </trkpt>
      <trkpt lat="45.72226" lon="5.84512">
        <ele>647</ele>
        <time>2018-09-01T16:19:15Z</time>
      </trkpt>
      <trkpt lat="45.72233" lon="5.8451">
        <ele>647</ele>
        <time>2018-09-01T16:19:15Z</time>
      </trkpt>
      <trkpt lat="45.72238" lon="5.84507">
        <ele>647</ele>
        <time>2018-09-01T16:19:15Z</time>
      </trkpt>
      <trkpt lat="45.7224" lon="5.84505">
        <ele>647</ele>
        <time>2018-09-01T16:19:15Z</time>
      </trkpt>
      <trkpt lat="45.72245" lon="5.84502">
        <ele>647</ele>
        <time>2018-09-01T16:19:35Z</time>
      </trkpt>
      <trkpt lat="45.72247" lon="5.845">
        <ele>647</ele>
        <time>2018-09-01T16:19:35Z</time>
      </trkpt>
      <trkpt lat="45.7225" lon="5.84497">
        <ele>647</ele>
        <time>2018-09-01T16:19:35Z</time>
      </trkpt>
      <trkpt lat="45.72252" lon="5.84495">
        <ele>647</ele>
        <time>2018-09-01T16:19:35Z</time>
      </trkpt>
      <trkpt lat="45.72253" lon="5.84494">
        <ele>647</ele>
        <time>2018-09-01T16:19:35Z</time>
      </trkpt>
      <trkpt lat="45.72256" lon="5.84492">
        <ele>647</ele>
        <time>2018-09-01T16:19:51Z</time>
      </trkpt>
      <trkpt lat="45.72261" lon="5.84486">
        <ele>647</ele>
        <time>2018-09-01T16:19:51Z</time>
      </trkpt>
      <trkpt lat="45.72264" lon="5.84483">
        <ele>647</ele>
        <time>2018-09-01T16:19:51Z</time>
      </trkpt>
      <trkpt lat="45.72268" lon="5.8448">
        <ele>647</ele>
        <time>2018-09-01T16:19:51Z</time>
      </trkpt>
      <trkpt lat="45.72272" lon="5.84475">
        <ele>647</ele>
        <time>2018-09-01T16:20:07Z</time>
      </trkpt>
      <trkpt lat="45.72278" lon="5.84469">
        <ele>647</ele>
        <time>2018-09-01T16:20:07Z</time>
      </trkpt>
      <trkpt lat="45.72281" lon="5.84466">
        <ele>647</ele>
        <time>2018-09-01T16:20:07Z</time>
      </trkpt>
      <trkpt lat="45.72284" lon="5.84463">
        <ele>647</ele>
        <time>2018-09-01T16:20:07Z</time>
      </trkpt>
      <trkpt lat="45.72288" lon="5.84458">
        <ele>683</ele>
        <time>2018-09-01T16:20:23Z</time>
      </trkpt>
      <trkpt lat="45.72293" lon="5.84451">
        <ele>655</ele>
        <time>2018-09-01T16:20:23Z</time>
      </trkpt>
      <trkpt lat="45.72297" lon="5.84444">
        <ele>655</ele>
        <time>2018-09-01T16:20:23Z</time>
      </trkpt>
      <trkpt lat="45.72302" lon="5.84438">
        <ele>655</ele>
        <time>2018-09-01T16:20:23Z</time>
      </trkpt>
      <trkpt lat="45.72307" lon="5.84434">
        <ele>655</ele>
        <time>2018-09-01T16:20:39Z</time>
      </trkpt>
      <trkpt lat="45.72311" lon="5.8443">
        <ele>655</ele>
        <time>2018-09-01T16:20:39Z</time>
      </trkpt>
      <trkpt lat="45.72313" lon="5.84426">
        <ele>655</ele>
        <time>2018-09-01T16:20:39Z</time>
      </trkpt>
      <trkpt lat="45.72315" lon="5.84424">
        <ele>655</ele>
        <time>2018-09-01T16:20:39Z</time>
      </trkpt>
      <trkpt lat="45.72317" lon="5.84422">
        <ele>655</ele>
        <time>2018-09-01T16:20:55Z</time>
      </trkpt>
      <trkpt lat="45.72318" lon="5.84421">
        <ele>655</ele>
        <time>2018-09-01T16:20:55Z</time>
      </trkpt>
      <trkpt lat="45.72322" lon="5.84418">
        <ele>655</ele>
        <time>2018-09-01T16:20:55Z</time>
      </trkpt>
      <trkpt lat="45.72329" lon="5.84411">
        <ele>655</ele>
        <time>2018-09-01T16:20:55Z</time>
      </trkpt>
      <trkpt lat="45.72335" lon="5.84403">
        <ele>655</ele>
        <time>2018-09-01T16:21:11Z</time>
      </trkpt>
      <trkpt lat="45.72339" lon="5.84397">
        <ele>655</ele>
        <time>2018-09-01T16:21:11Z</time>
      </trkpt>
      <trkpt lat="45.72341" lon="5.84391">
        <ele>655</ele>
        <time>2018-09-01T16:21:11Z</time>
      </trkpt>
      <trkpt lat="45.72349" lon="5.84386">
        <ele>655</ele>
        <time>2018-09-01T16:21:11Z</time>
      </trkpt>
      <trkpt lat="45.72356" lon="5.84382">
        <ele>655</ele>
        <time>2018-09-01T16:21:31Z</time>
      </trkpt>
      <trkpt lat="45.72357" lon="5.84382">
        <ele>655</ele>
        <time>2018-09-01T16:21:31Z</time>
      </trkpt>
      <trkpt lat="45.72359" lon="5.84381">
        <ele>655</ele>
        <time>2018-09-01T16:21:31Z</time>
      </trkpt>
      <trkpt lat="45.72363" lon="5.8438">
        <ele>655</ele>
        <time>2018-09-01T16:21:31Z</time>
      </trkpt>
      <trkpt lat="45.72365" lon="5.84378">
        <ele>655</ele>
        <time>2018-09-01T16:21:31Z</time>
      </trkpt>
      <trkpt lat="45.72367" lon="5.84377">
        <ele>655</ele>
        <time>2018-09-01T16:21:47Z</time>
      </trkpt>
      <trkpt lat="45.72368" lon="5.84377">
        <ele>655</ele>
        <time>2018-09-01T16:21:47Z</time>
      </trkpt>
      <trkpt lat="45.72371" lon="5.84374">
        <ele>681</ele>
        <time>2018-09-01T16:21:47Z</time>
      </trkpt>
      <trkpt lat="45.72379" lon="5.8437">
        <ele>669</ele>
        <time>2018-09-01T16:21:47Z</time>
      </trkpt>
      <trkpt lat="45.72382" lon="5.84368">
        <ele>669</ele>
        <time>2018-09-01T16:22:03Z</time>
      </trkpt>
      <trkpt lat="45.72384" lon="5.84366">
        <ele>669</ele>
        <time>2018-09-01T16:22:03Z</time>
      </trkpt>
      <trkpt lat="45.7239" lon="5.84363">
        <ele>669</ele>
        <time>2018-09-01T16:22:03Z</time>
      </trkpt>
      <trkpt lat="45.72395" lon="5.8436">
        <ele>669</ele>
        <time>2018-09-01T16:22:03Z</time>
      </trkpt>
      <trkpt lat="45.72401" lon="5.84358">
        <ele>669</ele>
        <time>2018-09-01T16:22:19Z</time>
      </trkpt>
      <trkpt lat="45.72405" lon="5.84355">
        <ele>669</ele>
        <time>2018-09-01T16:22:19Z</time>
      </trkpt>
      <trkpt lat="45.72409" lon="5.84351">
        <ele>669</ele>
        <time>2018-09-01T16:22:19Z</time>
      </trkpt>
      <trkpt lat="45.72412" lon="5.84349">
        <ele>669</ele>
        <time>2018-09-01T16:22:19Z</time>
      </trkpt>
      <trkpt lat="45.72414" lon="5.84348">
        <ele>669</ele>
        <time>2018-09-01T16:22:39Z</time>
      </trkpt>
      <trkpt lat="45.72415" lon="5.84348">
        <ele>669</ele>
        <time>2018-09-01T16:22:39Z</time>
      </trkpt>
      <trkpt lat="45.72416" lon="5.84347">
        <ele>669</ele>
        <time>2018-09-01T16:22:39Z</time>
      </trkpt>
      <trkpt lat="45.72422" lon="5.84342">
        <ele>669</ele>
        <time>2018-09-01T16:22:39Z</time>
      </trkpt>
      <trkpt lat="45.72429" lon="5.84335">
        <ele>669</ele>
        <time>2018-09-01T16:22:39Z</time>
      </trkpt>
      <trkpt lat="45.72433" lon="5.84331">
        <ele>669</ele>
        <time>2018-09-01T16:22:55Z</time>
      </trkpt>
      <trkpt lat="45.72436" lon="5.84325">
        <ele>669</ele>
        <time>2018-09-01T16:22:55Z</time>
      </trkpt>
      <trkpt lat="45.7244" lon="5.84321">
        <ele>669</ele>
        <time>2018-09-01T16:22:55Z</time>
      </trkpt>
      <trkpt lat="45.72446" lon="5.84316">
        <ele>669</ele>
        <time>2018-09-01T16:22:55Z</time>
      </trkpt>
      <trkpt lat="45.72449" lon="5.84311">
        <ele>669</ele>
        <time>2018-09-01T16:23:11Z</time>
      </trkpt>
      <trkpt lat="45.72454" lon="5.84302">
        <ele>669</ele>
        <time>2018-09-01T16:23:11Z</time>
      </trkpt>
      <trkpt lat="45.72457" lon="5.84296">
        <ele>669</ele>
        <time>2018-09-01T16:23:11Z</time>
      </trkpt>
      <trkpt lat="45.72462" lon="5.84291">
        <ele>689</ele>
        <time>2018-09-01T16:23:11Z</time>
      </trkpt>
      <trkpt lat="45.72468" lon="5.84287">
        <ele>689</ele>
        <time>2018-09-01T16:23:27Z</time>
      </trkpt>
      <trkpt lat="45.72473" lon="5.84282">
        <ele>689</ele>
        <time>2018-09-01T16:23:27Z</time>
      </trkpt>
      <trkpt lat="45.72476" lon="5.84277">
        <ele>689</ele>
        <time>2018-09-01T16:23:27Z</time>
      </trkpt>
      <trkpt lat="45.72478" lon="5.84274">
        <ele>689</ele>
        <time>2018-09-01T16:23:27Z</time>
      </trkpt>
      <trkpt lat="45.72481" lon="5.84271">
        <ele>689</ele>
        <time>2018-09-01T16:23:43Z</time>
      </trkpt>
      <trkpt lat="45.72485" lon="5.84269">
        <ele>689</ele>
        <time>2018-09-01T16:23:43Z</time>
      </trkpt>
      <trkpt lat="45.72489" lon="5.84265">
        <ele>689</ele>
        <time>2018-09-01T16:23:43Z</time>
      </trkpt>
      <trkpt lat="45.72492" lon="5.84261">
        <ele>689</ele>
        <time>2018-09-01T16:23:43Z</time>
      </trkpt>
      <trkpt lat="45.72495" lon="5.84259">
        <ele>689</ele>
        <time>2018-09-01T16:23:59Z</time>
      </trkpt>
      <trkpt lat="45.72498" lon="5.84257">
        <ele>689</ele>
        <time>2018-09-01T16:23:59Z</time>
      </trkpt>
      <trkpt lat="45.72501" lon="5.84253">
        <ele>689</ele>
        <time>2018-09-01T16:23:59Z</time>
      </trkpt>
      <trkpt lat="45.72506" lon="5.84249">
        <ele>689</ele>
        <time>2018-09-01T16:23:59Z</time>
      </trkpt>
      <trkpt lat="45.72511" lon="5.84246">
        <ele>689</ele>
        <time>2018-09-01T16:24:15Z</time>
      </trkpt>
      <trkpt lat="45.72515" lon="5.84243">
        <ele>689</ele>
        <time>2018-09-01T16:24:15Z</time>
      </trkpt>
      <trkpt lat="45.72518" lon="5.84238">
        <ele>689</ele>
        <time>2018-09-01T16:24:15Z</time>
      </trkpt>
      <trkpt lat="45.72521" lon="5.84233">
        <ele>689</ele>
        <time>2018-09-01T16:24:15Z</time>
      </trkpt>
      <trkpt lat="45.72523" lon="5.84225">
        <ele>689</ele>
        <time>2018-09-01T16:24:31Z</time>
      </trkpt>
      <trkpt lat="45.72526" lon="5.84218">
        <ele>689</ele>
        <time>2018-09-01T16:24:31Z</time>
      </trkpt>
      <trkpt lat="45.72529" lon="5.84212">
        <ele>689</ele>
        <time>2018-09-01T16:24:31Z</time>
      </trkpt>
      <trkpt lat="45.72533" lon="5.84207">
        <ele>724</ele>
        <time>2018-09-01T16:24:31Z</time>
      </trkpt>
      <trkpt lat="45.72535" lon="5.84204">
        <ele>724</ele>
        <time>2018-09-01T16:24:47Z</time>
      </trkpt>
      <trkpt lat="45.72535" lon="5.84203">
        <ele>724</ele>
        <time>2018-09-01T16:24:47Z</time>
      </trkpt>
      <trkpt lat="45.72537" lon="5.84197">
        <ele>724</ele>
        <time>2018-09-01T16:24:47Z</time>
      </trkpt>
      <trkpt lat="45.72542" lon="5.8419">
        <ele>698</ele>
        <time>2018-09-01T16:24:47Z</time>
      </trkpt>
      <trkpt lat="45.72547" lon="5.84181">
        <ele>698</ele>
        <time>2018-09-01T16:25:03Z</time>
      </trkpt>
      <trkpt lat="45.72551" lon="5.84175">
        <ele>698</ele>
        <time>2018-09-01T16:25:03Z</time>
      </trkpt>
      <trkpt lat="45.72556" lon="5.84173">
        <ele>698</ele>
        <time>2018-09-01T16:25:03Z</time>
      </trkpt>
      <trkpt lat="45.72561" lon="5.8417">
        <ele>698</ele>
        <time>2018-09-01T16:25:03Z</time>
      </trkpt>
      <trkpt lat="45.72568" lon="5.84169">
        <ele>698</ele>
        <time>2018-09-01T16:25:19Z</time>
      </trkpt>
      <trkpt lat="45.72576" lon="5.84167">
        <ele>698</ele>
        <time>2018-09-01T16:25:19Z</time>
      </trkpt>
      <trkpt lat="45.7258" lon="5.84165">
        <ele>698</ele>
        <time>2018-09-01T16:25:19Z</time>
      </trkpt>
      <trkpt lat="45.72584" lon="5.84163">
        <ele>698</ele>
        <time>2018-09-01T16:25:19Z</time>
      </trkpt>
      <trkpt lat="45.72589" lon="5.8416">
        <ele>698</ele>
        <time>2018-09-01T16:25:35Z</time>
      </trkpt>
      <trkpt lat="45.72593" lon="5.84158">
        <ele>698</ele>
        <time>2018-09-01T16:25:35Z</time>
      </trkpt>
      <trkpt lat="45.72598" lon="5.84155">
        <ele>698</ele>
        <time>2018-09-01T16:25:35Z</time>
      </trkpt>
      <trkpt lat="45.726" lon="5.84153">
        <ele>698</ele>
        <time>2018-09-01T16:25:35Z</time>
      </trkpt>
      <trkpt lat="45.72603" lon="5.84152">
        <ele>698</ele>
        <time>2018-09-01T16:25:51Z</time>
      </trkpt>
      <trkpt lat="45.72608" lon="5.84149">
        <ele>698</ele>
        <time>2018-09-01T16:25:51Z</time>
      </trkpt>
      <trkpt lat="45.72611" lon="5.84147">
        <ele>698</ele>
        <time>2018-09-01T16:25:51Z</time>
      </trkpt>
      <trkpt lat="45.72614" lon="5.84145">
        <ele>698</ele>
        <time>2018-09-01T16:25:51Z</time>
      </trkpt>
      <trkpt lat="45.72619" lon="5.84141">
        <ele>698</ele>
        <time>2018-09-01T16:26:07Z</time>
      </trkpt>
      <trkpt lat="45.72625" lon="5.84137">
        <ele>671</ele>
        <time>2018-09-01T16:26:07Z</time>
      </trkpt>
      <trkpt lat="45.72631" lon="5.84134">
        <ele>671</ele>
        <time>2018-09-01T16:26:07Z</time>
      </trkpt>
      <trkpt lat="45.72639" lon="5.8413">
        <ele>671</ele>
        <time>2018-09-01T16:26:07Z</time>
      </trkpt>
      <trkpt lat="45.72644" lon="5.84126">
        <ele>671</ele>
        <time>2018-09-01T16:26:23Z</time>
      </trkpt>
      <trkpt lat="45.72649" lon="5.84125">
        <ele>704</ele>
        <time>2018-09-01T16:26:23Z</time>
      </trkpt>
      <trkpt lat="45.72653" lon="5.84125">
        <ele>671</ele>
        <time>2018-09-01T16:26:23Z</time>
      </trkpt>
      <trkpt lat="45.72655" lon="5.84125">
        <ele>671</ele>
        <time>2018-09-01T16:26:23Z</time>
      </trkpt>
      <trkpt lat="45.72658" lon="5.84123">
        <ele>704</ele>
        <time>2018-09-01T16:26:39Z</time>
      </trkpt>
      <trkpt lat="45.72663" lon="5.84121">
        <ele>704</ele>
        <time>2018-09-01T16:26:39Z</time>
      </trkpt>
      <trkpt lat="45.72668" lon="5.84117">
        <ele>704</ele>
        <time>2018-09-01T16:26:39Z</time>
      </trkpt>
      <trkpt lat="45.72676" lon="5.84115">
        <ele>704</ele>
        <time>2018-09-01T16:26:39Z</time>
      </trkpt>
      <trkpt lat="45.72682" lon="5.84114">
        <ele>704</ele>
        <time>2018-09-01T16:26:55Z</time>
      </trkpt>
      <trkpt lat="45.72687" lon="5.84114">
        <ele>704</ele>
        <time>2018-09-01T16:26:55Z</time>
      </trkpt>
      <trkpt lat="45.72691" lon="5.84115">
        <ele>704</ele>
        <time>2018-09-01T16:26:55Z</time>
      </trkpt>
      <trkpt lat="45.72694" lon="5.84116">
        <ele>704</ele>
        <time>2018-09-01T16:26:55Z</time>
      </trkpt>
      <trkpt lat="45.727" lon="5.84116">
        <ele>704</ele>
        <time>2018-09-01T16:27:11Z</time>
      </trkpt>
      <trkpt lat="45.72705" lon="5.84116">
        <ele>704</ele>
        <time>2018-09-01T16:27:11Z</time>
      </trkpt>
      <trkpt lat="45.72709" lon="5.84117">
        <ele>689</ele>
        <time>2018-09-01T16:27:11Z</time>
      </trkpt>
      <trkpt lat="45.72714" lon="5.84117">
        <ele>689</ele>
        <time>2018-09-01T16:27:11Z</time>
      </trkpt>
      <trkpt lat="45.72719" lon="5.84119">
        <ele>689</ele>
        <time>2018-09-01T16:27:27Z</time>
      </trkpt>
      <trkpt lat="45.72727" lon="5.84116">
        <ele>689</ele>
        <time>2018-09-01T16:27:27Z</time>
      </trkpt>
      <trkpt lat="45.7273" lon="5.84114">
        <ele>689</ele>
        <time>2018-09-01T16:27:27Z</time>
      </trkpt>
      <trkpt lat="45.72733" lon="5.84114">
        <ele>689</ele>
        <time>2018-09-01T16:27:27Z</time>
      </trkpt>
      <trkpt lat="45.72736" lon="5.84113">
        <ele>689</ele>
        <time>2018-09-01T16:27:43Z</time>
      </trkpt>
      <trkpt lat="45.72738" lon="5.84112">
        <ele>689</ele>
        <time>2018-09-01T16:27:43Z</time>
      </trkpt>
      <trkpt lat="45.72742" lon="5.8411">
        <ele>689</ele>
        <time>2018-09-01T16:27:43Z</time>
      </trkpt>
      <trkpt lat="45.72744" lon="5.84105">
        <ele>689</ele>
        <time>2018-09-01T16:27:43Z</time>
      </trkpt>
      <trkpt lat="45.7275" lon="5.84102">
        <ele>689</ele>
        <time>2018-09-01T16:27:59Z</time>
      </trkpt>
      <trkpt lat="45.72755" lon="5.84098">
        <ele>689</ele>
        <time>2018-09-01T16:27:59Z</time>
      </trkpt>
      <trkpt lat="45.72761" lon="5.84097">
        <ele>689</ele>
        <time>2018-09-01T16:27:59Z</time>
      </trkpt>
      <trkpt lat="45.72768" lon="5.84094">
        <ele>689</ele>
        <time>2018-09-01T16:27:59Z</time>
      </trkpt>
      <trkpt lat="45.72777" lon="5.8409">
        <ele>689</ele>
        <time>2018-09-01T16:28:15Z</time>
      </trkpt>
      <trkpt lat="45.72783" lon="5.84085">
        <ele>689</ele>
        <time>2018-09-01T16:28:15Z</time>
      </trkpt>
      <trkpt lat="45.72789" lon="5.84082">
        <ele>689</ele>
        <time>2018-09-01T16:28:15Z</time>
      </trkpt>
      <trkpt lat="45.72792" lon="5.8408">
        <ele>664</ele>
        <time>2018-09-01T16:28:15Z</time>
      </trkpt>
      <trkpt lat="45.72797" lon="5.84075">
        <ele>664</ele>
        <time>2018-09-01T16:28:31Z</time>
      </trkpt>
      <trkpt lat="45.72803" lon="5.84071">
        <ele>664</ele>
        <time>2018-09-01T16:28:31Z</time>
      </trkpt>
      <trkpt lat="45.72808" lon="5.84068">
        <ele>664</ele>
        <time>2018-09-01T16:28:31Z</time>
      </trkpt>
      <trkpt lat="45.72813" lon="5.84065">
        <ele>664</ele>
        <time>2018-09-01T16:28:31Z</time>
      </trkpt>
      <trkpt lat="45.72821" lon="5.84061">
        <ele>664</ele>
        <time>2018-09-01T16:28:47Z</time>
      </trkpt>
      <trkpt lat="45.72825" lon="5.84059">
        <ele>664</ele>
        <time>2018-09-01T16:28:47Z</time>
      </trkpt>
      <trkpt lat="45.72828" lon="5.84056">
        <ele>664</ele>
        <time>2018-09-01T16:28:47Z</time>
      </trkpt>
      <trkpt lat="45.72834" lon="5.84053">
        <ele>664</ele>
        <time>2018-09-01T16:28:47Z</time>
      </trkpt>
      <trkpt lat="45.72842" lon="5.84047">
        <ele>664</ele>
        <time>2018-09-01T16:29:03Z</time>
      </trkpt>
      <trkpt lat="45.72847" lon="5.84043">
        <ele>664</ele>
        <time>2018-09-01T16:29:03Z</time>
      </trkpt>
      <trkpt lat="45.7285" lon="5.84042">
        <ele>664</ele>
        <time>2018-09-01T16:29:03Z</time>
      </trkpt>
      <trkpt lat="45.72854" lon="5.84042">
        <ele>664</ele>
        <time>2018-09-01T16:29:03Z</time>
      </trkpt>
      <trkpt lat="45.72857" lon="5.84041">
        <ele>707</ele>
        <time>2018-09-01T16:29:19Z</time>
      </trkpt>
      <trkpt lat="45.72862" lon="5.84038">
        <ele>707</ele>
        <time>2018-09-01T16:29:19Z</time>
      </trkpt>
      <trkpt lat="45.72865" lon="5.84037">
        <ele>707</ele>
        <time>2018-09-01T16:29:19Z</time>
      </trkpt>
      <trkpt lat="45.72867" lon="5.84036">
        <ele>707</ele>
        <time>2018-09-01T16:29:19Z</time>
      </trkpt>
      <trkpt lat="45.72872" lon="5.84032">
        <ele>707</ele>
        <time>2018-09-01T16:29:35Z</time>
      </trkpt>
      <trkpt lat="45.72878" lon="5.8403">
        <ele>676</ele>
        <time>2018-09-01T16:29:35Z</time>
      </trkpt>
      <trkpt lat="45.7288" lon="5.8403">
        <ele>676</ele>
        <time>2018-09-01T16:29:35Z</time>
      </trkpt>
      <trkpt lat="45.72883" lon="5.84029">
        <ele>676</ele>
        <time>2018-09-01T16:29:35Z</time>
      </trkpt>
      <trkpt lat="45.72888" lon="5.84026">
        <ele>676</ele>
        <time>2018-09-01T16:29:51Z</time>
      </trkpt>
      <trkpt lat="45.72895" lon="5.84023">
        <ele>676</ele>
        <time>2018-09-01T16:29:51Z</time>
      </trkpt>
      <trkpt lat="45.72904" lon="5.84021">
        <ele>676</ele>
        <time>2018-09-01T16:29:51Z</time>
      </trkpt>
      <trkpt lat="45.72911" lon="5.84018">
        <ele>676</ele>
        <time>2018-09-01T16:29:51Z</time>
      </trkpt>
      <trkpt lat="45.72915" lon="5.84016">
        <ele>676</ele>
        <time>2018-09-01T16:30:07Z</time>
      </trkpt>
      <trkpt lat="45.72919" lon="5.84015">
        <ele>676</ele>
        <time>2018-09-01T16:30:07Z</time>
      </trkpt>
      <trkpt lat="45.72921" lon="5.84014">
        <ele>676</ele>
        <time>2018-09-01T16:30:07Z</time>
      </trkpt>
      <trkpt lat="45.72924" lon="5.84012">
        <ele>676</ele>
        <time>2018-09-01T16:30:07Z</time>
      </trkpt>
      <trkpt lat="45.72928" lon="5.8401">
        <ele>676</ele>
        <time>2018-09-01T16:30:23Z</time>
      </trkpt>
      <trkpt lat="45.72933" lon="5.84008">
        <ele>676</ele>
        <time>2018-09-01T16:30:23Z</time>
      </trkpt>
      <trkpt lat="45.72942" lon="5.84007">
        <ele>676</ele>
        <time>2018-09-01T16:30:23Z</time>
      </trkpt>
      <trkpt lat="45.72952" lon="5.84003">
        <ele>676</ele>
        <time>2018-09-01T16:30:23Z</time>
      </trkpt>
      <trkpt lat="45.72962" lon="5.83998">
        <ele>672</ele>
        <time>2018-09-01T16:30:39Z</time>
      </trkpt>
      <trkpt lat="45.7297" lon="5.83994">
        <ele>672</ele>
        <time>2018-09-01T16:30:39Z</time>
      </trkpt>
      <trkpt lat="45.72976" lon="5.8399">
        <ele>672</ele>
        <time>2018-09-01T16:30:39Z</time>
      </trkpt>
      <trkpt lat="45.72984" lon="5.83987">
        <ele>672</ele>
        <time>2018-09-01T16:30:39Z</time>
      </trkpt>
      <trkpt lat="45.72989" lon="5.83981">
        <ele>672</ele>
        <time>2018-09-01T16:30:55Z</time>
      </trkpt>
      <trkpt lat="45.72992" lon="5.83976">
        <ele>672</ele>
        <time>2018-09-01T16:30:55Z</time>
      </trkpt>
      <trkpt lat="45.72996" lon="5.83973">
        <ele>672</ele>
        <time>2018-09-01T16:30:55Z</time>
      </trkpt>
      <trkpt lat="45.73001" lon="5.83969">
        <ele>672</ele>
        <time>2018-09-01T16:30:55Z</time>
      </trkpt>
      <trkpt lat="45.73006" lon="5.83967">
        <ele>672</ele>
        <time>2018-09-01T16:31:11Z</time>
      </trkpt>
      <trkpt lat="45.73008" lon="5.83966">
        <ele>672</ele>
        <time>2018-09-01T16:31:11Z</time>
      </trkpt>
      <trkpt lat="45.73009" lon="5.83965">
        <ele>672</ele>
        <time>2018-09-01T16:31:11Z</time>
      </trkpt>
      <trkpt lat="45.73016" lon="5.83964">
        <ele>672</ele>
        <time>2018-09-01T16:31:11Z</time>
      </trkpt>
      <trkpt lat="45.73023" lon="5.83961">
        <ele>672</ele>
        <time>2018-09-01T16:31:27Z</time>
      </trkpt>
      <trkpt lat="45.73028" lon="5.83957">
        <ele>699</ele>
        <time>2018-09-01T16:31:27Z</time>
      </trkpt>
      <trkpt lat="45.73035" lon="5.83954">
        <ele>699</ele>
        <time>2018-09-01T16:31:27Z</time>
      </trkpt>
      <trkpt lat="45.73041" lon="5.83955">
        <ele>699</ele>
        <time>2018-09-01T16:31:27Z</time>
      </trkpt>
      <trkpt lat="45.73047" lon="5.83957">
        <ele>686</ele>
        <time>2018-09-01T16:31:43Z</time>
      </trkpt>
      <trkpt lat="45.7305" lon="5.83955">
        <ele>686</ele>
        <time>2018-09-01T16:31:43Z</time>
      </trkpt>
      <trkpt lat="45.73052" lon="5.83954">
        <ele>686</ele>
        <time>2018-09-01T16:31:43Z</time>
      </trkpt>
      <trkpt lat="45.73057" lon="5.83952">
        <ele>686</ele>
        <time>2018-09-01T16:31:43Z</time>
      </trkpt>
      <trkpt lat="45.73063" lon="5.8395">
        <ele>686</ele>
        <time>2018-09-01T16:31:59Z</time>
      </trkpt>
      <trkpt lat="45.7307" lon="5.83945">
        <ele>686</ele>
        <time>2018-09-01T16:31:59Z</time>
      </trkpt>
      <trkpt lat="45.73077" lon="5.83941">
        <ele>686</ele>
        <time>2018-09-01T16:31:59Z</time>
      </trkpt>
      <trkpt lat="45.73079" lon="5.83938">
        <ele>686</ele>
        <time>2018-09-01T16:31:59Z</time>
      </trkpt>
      <trkpt lat="45.73081" lon="5.83936">
        <ele>686</ele>
        <time>2018-09-01T16:32:15Z</time>
      </trkpt>
      <trkpt lat="45.73082" lon="5.83934">
        <ele>686</ele>
        <time>2018-09-01T16:32:15Z</time>
      </trkpt>
      <trkpt lat="45.7309" lon="5.8393">
        <ele>686</ele>
        <time>2018-09-01T16:32:15Z</time>
      </trkpt>
      <trkpt lat="45.73099" lon="5.83927">
        <ele>686</ele>
        <time>2018-09-01T16:32:15Z</time>
      </trkpt>
      <trkpt lat="45.73106" lon="5.83925">
        <ele>686</ele>
        <time>2018-09-01T16:32:31Z</time>
      </trkpt>
      <trkpt lat="45.73112" lon="5.83924">
        <ele>686</ele>
        <time>2018-09-01T16:32:31Z</time>
      </trkpt>
      <trkpt lat="45.73117" lon="5.83924">
        <ele>686</ele>
        <time>2018-09-01T16:32:31Z</time>
      </trkpt>
      <trkpt lat="45.73122" lon="5.83925">
        <ele>686</ele>
        <time>2018-09-01T16:32:31Z</time>
      </trkpt>
      <trkpt lat="45.73127" lon="5.83926">
        <ele>681</ele>
        <time>2018-09-01T16:32:47Z</time>
      </trkpt>
      <trkpt lat="45.73135" lon="5.83924">
        <ele>681</ele>
        <time>2018-09-01T16:32:47Z</time>
      </trkpt>
      <trkpt lat="45.73143" lon="5.83923">
        <ele>681</ele>
        <time>2018-09-01T16:32:47Z</time>
      </trkpt>
      <trkpt lat="45.7315" lon="5.83923">
        <ele>681</ele>
        <time>2018-09-01T16:32:47Z</time>
      </trkpt>
      <trkpt lat="45.73156" lon="5.83924">
        <ele>681</ele>
        <time>2018-09-01T16:33:03Z</time>
      </trkpt>
      <trkpt lat="45.73162" lon="5.83923">
        <ele>681</ele>
        <time>2018-09-01T16:33:03Z</time>
      </trkpt>
      <trkpt lat="45.73168" lon="5.83922">
        <ele>681</ele>
        <time>2018-09-01T16:33:03Z</time>
      </trkpt>
      <trkpt lat="45.73174" lon="5.8392">
        <ele>681</ele>
        <time>2018-09-01T16:33:03Z</time>
      </trkpt>
      <trkpt lat="45.73179" lon="5.83919">
        <ele>681</ele>
        <time>2018-09-01T16:33:23Z</time>
      </trkpt>
      <trkpt lat="45.73183" lon="5.83916">
        <ele>681</ele>
        <time>2018-09-01T16:33:23Z</time>
      </trkpt>
      <trkpt lat="45.73185" lon="5.83913">
        <ele>681</ele>
        <time>2018-09-01T16:33:23Z</time>
      </trkpt>
      <trkpt lat="45.73186" lon="5.83913">
        <ele>681</ele>
        <time>2018-09-01T16:33:23Z</time>
      </trkpt>
      <trkpt lat="45.73189" lon="5.83912">
        <ele>681</ele>
        <time>2018-09-01T16:33:23Z</time>
      </trkpt>
      <trkpt lat="45.73194" lon="5.83911">
        <ele>681</ele>
        <time>2018-09-01T16:33:39Z</time>
      </trkpt>
      <trkpt lat="45.73199" lon="5.8391">
        <ele>681</ele>
        <time>2018-09-01T16:33:39Z</time>
      </trkpt>
      <trkpt lat="45.73207" lon="5.83909">
        <ele>681</ele>
        <time>2018-09-01T16:33:39Z</time>
      </trkpt>
      <trkpt lat="45.73215" lon="5.8391">
        <ele>675</ele>
        <time>2018-09-01T16:33:39Z</time>
      </trkpt>
      <trkpt lat="45.73222" lon="5.83911">
        <ele>675</ele>
        <time>2018-09-01T16:33:55Z</time>
      </trkpt>
      <trkpt lat="45.73229" lon="5.8391">
        <ele>675</ele>
        <time>2018-09-01T16:33:55Z</time>
      </trkpt>
      <trkpt lat="45.73236" lon="5.83909">
        <ele>675</ele>
        <time>2018-09-01T16:33:55Z</time>
      </trkpt>
      <trkpt lat="45.73242" lon="5.83907">
        <ele>675</ele>
        <time>2018-09-01T16:33:55Z</time>
      </trkpt>
      <trkpt lat="45.73247" lon="5.83907">
        <ele>675</ele>
        <time>2018-09-01T16:34:11Z</time>
      </trkpt>
      <trkpt lat="45.7325" lon="5.83905">
        <ele>675</ele>
        <time>2018-09-01T16:34:11Z</time>
      </trkpt>
      <trkpt lat="45.73255" lon="5.83903">
        <ele>675</ele>
        <time>2018-09-01T16:34:11Z</time>
      </trkpt>
      <trkpt lat="45.7326" lon="5.839">
        <ele>675</ele>
        <time>2018-09-01T16:34:11Z</time>
      </trkpt>
      <trkpt lat="45.73264" lon="5.83899">
        <ele>675</ele>
        <time>2018-09-01T16:34:27Z</time>
      </trkpt>
      <trkpt lat="45.73268" lon="5.839">
        <ele>675</ele>
        <time>2018-09-01T16:34:27Z</time>
      </trkpt>
      <trkpt lat="45.73273" lon="5.839">
        <ele>675</ele>
        <time>2018-09-01T16:34:27Z</time>
      </trkpt>
      <trkpt lat="45.73276" lon="5.839">
        <ele>675</ele>
        <time>2018-09-01T16:34:27Z</time>
      </trkpt>
      <trkpt lat="45.73283" lon="5.83899">
        <ele>675</ele>
        <time>2018-09-01T16:34:43Z</time>
      </trkpt>
      <trkpt lat="45.73292" lon="5.83899">
        <ele>675</ele>
        <time>2018-09-01T16:34:43Z</time>
      </trkpt>
      <trkpt lat="45.733" lon="5.83899">
        <ele>671</ele>
        <time>2018-09-01T16:34:43Z</time>
      </trkpt>
      <trkpt lat="45.73308" lon="5.83898">
        <ele>671</ele>
        <time>2018-09-01T16:34:43Z</time>
      </trkpt>
      <trkpt lat="45.7331" lon="5.83898">
        <ele>671</ele>
        <time>2018-09-01T16:34:59Z</time>
      </trkpt>
      <trkpt lat="45.73315" lon="5.83898">
        <ele>671</ele>
        <time>2018-09-01T16:34:59Z</time>
      </trkpt>
      <trkpt lat="45.73322" lon="5.83896">
        <ele>671</ele>
        <time>2018-09-01T16:34:59Z</time>
      </trkpt>
      <trkpt lat="45.73324" lon="5.83895">
        <ele>671</ele>
        <time>2018-09-01T16:34:59Z</time>
      </trkpt>
      <trkpt lat="45.73326" lon="5.83895">
        <ele>671</ele>
        <time>2018-09-01T16:35:15Z</time>
      </trkpt>
      <trkpt lat="45.73333" lon="5.83894">
        <ele>671</ele>
        <time>2018-09-01T16:35:15Z</time>
      </trkpt>
      <trkpt lat="45.73337" lon="5.83892">
        <ele>671</ele>
        <time>2018-09-01T16:35:15Z</time>
      </trkpt>
      <trkpt lat="45.73342" lon="5.8389">
        <ele>671</ele>
        <time>2018-09-01T16:35:15Z</time>
      </trkpt>
      <trkpt lat="45.73349" lon="5.83888">
        <ele>671</ele>
        <time>2018-09-01T16:35:31Z</time>
      </trkpt>
      <trkpt lat="45.73362" lon="5.83887">
        <ele>671</ele>
        <time>2018-09-01T16:35:31Z</time>
      </trkpt>
      <trkpt lat="45.73376" lon="5.83895">
        <ele>674</ele>
        <time>2018-09-01T16:35:31Z</time>
      </trkpt>
      <trkpt lat="45.73408" lon="5.8391">
        <ele>674</ele>
        <time>2018-09-01T16:35:31Z</time>
      </trkpt>
      <trkpt lat="45.73422" lon="5.83926">
        <ele>674</ele>
        <time>2018-09-01T16:35:47Z</time>
      </trkpt>
      <trkpt lat="45.73427" lon="5.8392">
        <ele>674</ele>
        <time>2018-09-01T16:35:47Z</time>
      </trkpt>
      <trkpt lat="45.73433" lon="5.83917">
        <ele>674</ele>
        <time>2018-09-01T16:35:47Z</time>
      </trkpt>
      <trkpt lat="45.73434" lon="5.8391">
        <ele>674</ele>
        <time>2018-09-01T16:35:47Z</time>
      </trkpt>
      <trkpt lat="45.73435" lon="5.83906">
        <ele>674</ele>
        <time>2018-09-01T16:36:03Z</time>
      </trkpt>
      <trkpt lat="45.73436" lon="5.83902">
        <ele>674</ele>
        <time>2018-09-01T16:36:03Z</time>
      </trkpt>
      <trkpt lat="45.73438" lon="5.83898">
        <ele>674</ele>
        <time>2018-09-01T16:36:03Z</time>
      </trkpt>
      <trkpt lat="45.7344" lon="5.83893">
        <ele>674</ele>
        <time>2018-09-01T16:36:03Z</time>
      </trkpt>
      <trkpt lat="45.73442" lon="5.83886">
        <ele>674</ele>
        <time>2018-09-01T16:36:19Z</time>
      </trkpt>
      <trkpt lat="45.73445" lon="5.8388">
        <ele>674</ele>
        <time>2018-09-01T16:36:19Z</time>
      </trkpt>
      <trkpt lat="45.73448" lon="5.83874">
        <ele>696</ele>
        <time>2018-09-01T16:36:19Z</time>
      </trkpt>
      <trkpt lat="45.73449" lon="5.83869">
        <ele>696</ele>
        <time>2018-09-01T16:36:19Z</time>
      </trkpt>
      <trkpt lat="45.73451" lon="5.83862">
        <ele>696</ele>
        <time>2018-09-01T16:36:35Z</time>
      </trkpt>
      <trkpt lat="45.73454" lon="5.83856">
        <ele>696</ele>
        <time>2018-09-01T16:36:35Z</time>
      </trkpt>
      <trkpt lat="45.73454" lon="5.8385">
        <ele>696</ele>
        <time>2018-09-01T16:36:35Z</time>
      </trkpt>
      <trkpt lat="45.73457" lon="5.83834">
        <ele>696</ele>
        <time>2018-09-01T16:36:35Z</time>
      </trkpt>
      <trkpt lat="45.73458" lon="5.8382">
        <ele>696</ele>
        <time>2018-09-01T16:36:51Z</time>
      </trkpt>
      <trkpt lat="45.73455" lon="5.83812">
        <ele>696</ele>
        <time>2018-09-01T16:36:51Z</time>
      </trkpt>
      <trkpt lat="45.73452" lon="5.83805">
        <ele>696</ele>
        <time>2018-09-01T16:36:51Z</time>
      </trkpt>
      <trkpt lat="45.73448" lon="5.83798">
        <ele>696</ele>
        <time>2018-09-01T16:36:51Z</time>
      </trkpt>
      <trkpt lat="45.73443" lon="5.83795">
        <ele>696</ele>
        <time>2018-09-01T16:37:07Z</time>
      </trkpt>
      <trkpt lat="45.73439" lon="5.83794">
        <ele>696</ele>
        <time>2018-09-01T16:37:07Z</time>
      </trkpt>
      <trkpt lat="45.73435" lon="5.83795">
        <ele>696</ele>
        <time>2018-09-01T16:37:07Z</time>
      </trkpt>
      <trkpt lat="45.73433" lon="5.83795">
        <ele>696</ele>
        <time>2018-09-01T16:37:07Z</time>
      </trkpt>
      <trkpt lat="45.73431" lon="5.83792">
        <ele>696</ele>
        <time>2018-09-01T16:37:23Z</time>
      </trkpt>
      <trkpt lat="45.73428" lon="5.83792">
        <ele>696</ele>
        <time>2018-09-01T16:37:23Z</time>
      </trkpt>
      <trkpt lat="45.73422" lon="5.83791">
        <ele>721</ele>
        <time>2018-09-01T16:37:23Z</time>
      </trkpt>
      <trkpt lat="45.73416" lon="5.8379">
        <ele>721</ele>
        <time>2018-09-01T16:37:23Z</time>
      </trkpt>
      <trkpt lat="45.73411" lon="5.83788">
        <ele>721</ele>
        <time>2018-09-01T16:37:39Z</time>
      </trkpt>
      <trkpt lat="45.73408" lon="5.83787">
        <ele>721</ele>
        <time>2018-09-01T16:37:39Z</time>
      </trkpt>
      <trkpt lat="45.73404" lon="5.83785">
        <ele>721</ele>
        <time>2018-09-01T16:37:39Z</time>
      </trkpt>
      <trkpt lat="45.73402" lon="5.83779">
        <ele>721</ele>
        <time>2018-09-01T16:37:39Z</time>
      </trkpt>
      <trkpt lat="45.73404" lon="5.83773">
        <ele>721</ele>
        <time>2018-09-01T16:37:59Z</time>
      </trkpt>
      <trkpt lat="45.73407" lon="5.83769">
        <ele>721</ele>
        <time>2018-09-01T16:37:59Z</time>
      </trkpt>
      <trkpt lat="45.73408" lon="5.83768">
        <ele>721</ele>
        <time>2018-09-01T16:37:59Z</time>
      </trkpt>
      <trkpt lat="45.73409" lon="5.83765">
        <ele>721</ele>
        <time>2018-09-01T16:37:59Z</time>
      </trkpt>
      <trkpt lat="45.73412" lon="5.8376">
        <ele>721</ele>
        <time>2018-09-01T16:37:59Z</time>
      </trkpt>
      <trkpt lat="45.73416" lon="5.83757">
        <ele>721</ele>
        <time>2018-09-01T16:38:15Z</time>
      </trkpt>
      <trkpt lat="45.7342" lon="5.83752">
        <ele>721</ele>
        <time>2018-09-01T16:38:15Z</time>
      </trkpt>
      <trkpt lat="45.73423" lon="5.83747">
        <ele>721</ele>
        <time>2018-09-01T16:38:15Z</time>
      </trkpt>
      <trkpt lat="45.73424" lon="5.83742">
        <ele>721</ele>
        <time>2018-09-01T16:38:15Z</time>
      </trkpt>
      <trkpt lat="45.73427" lon="5.83739">
        <ele>721</ele>
        <time>2018-09-01T16:38:31Z</time>
      </trkpt>
      <trkpt lat="45.73428" lon="5.83738">
        <ele>721</ele>
        <time>2018-09-01T16:38:31Z</time>
      </trkpt>
      <trkpt lat="45.7343" lon="5.83735">
        <ele>721</ele>
        <time>2018-09-01T16:38:31Z</time>
      </trkpt>
      <trkpt lat="45.73436" lon="5.83729">
        <ele>721</ele>
        <time>2018-09-01T16:38:31Z</time>
      </trkpt>
      <trkpt lat="45.73444" lon="5.83722">
        <ele>721</ele>
        <time>2018-09-01T16:38:47Z</time>
      </trkpt>
      <trkpt lat="45.73449" lon="5.83717">
        <ele>721</ele>
        <time>2018-09-01T16:38:47Z</time>
      </trkpt>
      <trkpt lat="45.73451" lon="5.83714">
        <ele>721</ele>
        <time>2018-09-01T16:38:47Z</time>
      </trkpt>
      <trkpt lat="45.73452" lon="5.8371">
        <ele>721</ele>
        <time>2018-09-01T16:38:47Z</time>
      </trkpt>
      <trkpt lat="45.73455" lon="5.83702">
        <ele>745</ele>
        <time>2018-09-01T16:39:03Z</time>
      </trkpt>
      <trkpt lat="45.73458" lon="5.83695">
        <ele>745</ele>
        <time>2018-09-01T16:39:03Z</time>
      </trkpt>
      <trkpt lat="45.7346" lon="5.83691">
        <ele>745</ele>
        <time>2018-09-01T16:39:03Z</time>
      </trkpt>
      <trkpt lat="45.73462" lon="5.83685">
        <ele>745</ele>
        <time>2018-09-01T16:39:03Z</time>
      </trkpt>
      <trkpt lat="45.73467" lon="5.8368">
        <ele>745</ele>
        <time>2018-09-01T16:39:19Z</time>
      </trkpt>
      <trkpt lat="45.73469" lon="5.83674">
        <ele>745</ele>
        <time>2018-09-01T16:39:19Z</time>
      </trkpt>
      <trkpt lat="45.73473" lon="5.83668">
        <ele>745</ele>
        <time>2018-09-01T16:39:19Z</time>
      </trkpt>
      <trkpt lat="45.73478" lon="5.83664">
        <ele>745</ele>
        <time>2018-09-01T16:39:19Z</time>
      </trkpt>
      <trkpt lat="45.73485" lon="5.83657">
        <ele>745</ele>
        <time>2018-09-01T16:39:35Z</time>
      </trkpt>
      <trkpt lat="45.73491" lon="5.83651">
        <ele>745</ele>
        <time>2018-09-01T16:39:35Z</time>
      </trkpt>
      <trkpt lat="45.73493" lon="5.83651">
        <ele>745</ele>
        <time>2018-09-01T16:39:35Z</time>
      </trkpt>
      <trkpt lat="45.73497" lon="5.83648">
        <ele>745</ele>
        <time>2018-09-01T16:39:35Z</time>
      </trkpt>
      <trkpt lat="45.73503" lon="5.83645">
        <ele>745</ele>
        <time>2018-09-01T16:39:51Z</time>
      </trkpt>
      <trkpt lat="45.73507" lon="5.8364">
        <ele>745</ele>
        <time>2018-09-01T16:39:51Z</time>
      </trkpt>
      <trkpt lat="45.73512" lon="5.83634">
        <ele>745</ele>
        <time>2018-09-01T16:39:51Z</time>
      </trkpt>
      <trkpt lat="45.73514" lon="5.83627">
        <ele>745</ele>
        <time>2018-09-01T16:39:51Z</time>
      </trkpt>
      <trkpt lat="45.73515" lon="5.83622">
        <ele>766</ele>
        <time>2018-09-01T16:40:07Z</time>
      </trkpt>
      <trkpt lat="45.73516" lon="5.83617">
        <ele>766</ele>
        <time>2018-09-01T16:40:07Z</time>
      </trkpt>
      <trkpt lat="45.73519" lon="5.83613">
        <ele>766</ele>
        <time>2018-09-01T16:40:07Z</time>
      </trkpt>
      <trkpt lat="45.73522" lon="5.83607">
        <ele>766</ele>
        <time>2018-09-01T16:40:07Z</time>
      </trkpt>
      <trkpt lat="45.73526" lon="5.836">
        <ele>766</ele>
        <time>2018-09-01T16:40:23Z</time>
      </trkpt>
      <trkpt lat="45.73532" lon="5.83596">
        <ele>766</ele>
        <time>2018-09-01T16:40:23Z</time>
      </trkpt>
      <trkpt lat="45.73538" lon="5.83592">
        <ele>766</ele>
        <time>2018-09-01T16:40:23Z</time>
      </trkpt>
      <trkpt lat="45.73543" lon="5.83587">
        <ele>767</ele>
        <time>2018-09-01T16:40:23Z</time>
      </trkpt>
      <trkpt lat="45.73548" lon="5.83582">
        <ele>767</ele>
        <time>2018-09-01T16:40:39Z</time>
      </trkpt>
      <trkpt lat="45.73552" lon="5.83576">
        <ele>767</ele>
        <time>2018-09-01T16:40:39Z</time>
      </trkpt>
      <trkpt lat="45.73557" lon="5.83567">
        <ele>767</ele>
        <time>2018-09-01T16:40:39Z</time>
      </trkpt>
      <trkpt lat="45.73559" lon="5.83558">
        <ele>767</ele>
        <time>2018-09-01T16:40:39Z</time>
      </trkpt>
      <trkpt lat="45.73561" lon="5.83549">
        <ele>767</ele>
        <time>2018-09-01T16:40:55Z</time>
      </trkpt>
      <trkpt lat="45.73565" lon="5.83542">
        <ele>784</ele>
        <time>2018-09-01T16:40:55Z</time>
      </trkpt>
      <trkpt lat="45.73567" lon="5.83532">
        <ele>784</ele>
        <time>2018-09-01T16:40:55Z</time>
      </trkpt>
      <trkpt lat="45.7357" lon="5.83518">
        <ele>784</ele>
        <time>2018-09-01T16:40:55Z</time>
      </trkpt>
      <trkpt lat="45.73572" lon="5.83513">
        <ele>784</ele>
        <time>2018-09-01T16:41:11Z</time>
      </trkpt>
      <trkpt lat="45.73576" lon="5.8351">
        <ele>784</ele>
        <time>2018-09-01T16:41:11Z</time>
      </trkpt>
      <trkpt lat="45.7358" lon="5.83507">
        <ele>784</ele>
        <time>2018-09-01T16:41:11Z</time>
      </trkpt>
      <trkpt lat="45.73585" lon="5.83505">
        <ele>784</ele>
        <time>2018-09-01T16:41:11Z</time>
      </trkpt>
      <trkpt lat="45.73591" lon="5.83501">
        <ele>784</ele>
        <time>2018-09-01T16:41:27Z</time>
      </trkpt>
      <trkpt lat="45.73595" lon="5.83497">
        <ele>784</ele>
        <time>2018-09-01T16:41:27Z</time>
      </trkpt>
      <trkpt lat="45.73597" lon="5.83495">
        <ele>784</ele>
        <time>2018-09-01T16:41:27Z</time>
      </trkpt>
      <trkpt lat="45.73601" lon="5.83492">
        <ele>784</ele>
        <time>2018-09-01T16:41:27Z</time>
      </trkpt>
      <trkpt lat="45.73606" lon="5.83487">
        <ele>784</ele>
        <time>2018-09-01T16:41:43Z</time>
      </trkpt>
      <trkpt lat="45.73611" lon="5.83481">
        <ele>784</ele>
        <time>2018-09-01T16:41:43Z</time>
      </trkpt>
      <trkpt lat="45.73617" lon="5.83477">
        <ele>784</ele>
        <time>2018-09-01T16:41:43Z</time>
      </trkpt>
      <trkpt lat="45.73623" lon="5.83473">
        <ele>784</ele>
        <time>2018-09-01T16:41:43Z</time>
      </trkpt>
      <trkpt lat="45.7363" lon="5.83468">
        <ele>777</ele>
        <time>2018-09-01T16:41:59Z</time>
      </trkpt>
      <trkpt lat="45.73635" lon="5.83463">
        <ele>777</ele>
        <time>2018-09-01T16:41:59Z</time>
      </trkpt>
      <trkpt lat="45.7364" lon="5.83459">
        <ele>777</ele>
        <time>2018-09-01T16:41:59Z</time>
      </trkpt>
      <trkpt lat="45.73645" lon="5.83453">
        <ele>786</ele>
        <time>2018-09-01T16:41:59Z</time>
      </trkpt>
      <trkpt lat="45.73649" lon="5.83447">
        <ele>786</ele>
        <time>2018-09-01T16:42:15Z</time>
      </trkpt>
      <trkpt lat="45.73653" lon="5.83441">
        <ele>786</ele>
        <time>2018-09-01T16:42:15Z</time>
      </trkpt>
      <trkpt lat="45.73655" lon="5.83435">
        <ele>786</ele>
        <time>2018-09-01T16:42:15Z</time>
      </trkpt>
      <trkpt lat="45.73657" lon="5.83428">
        <ele>786</ele>
        <time>2018-09-01T16:42:15Z</time>
      </trkpt>
      <trkpt lat="45.73659" lon="5.83421">
        <ele>786</ele>
        <time>2018-09-01T16:42:31Z</time>
      </trkpt>
      <trkpt lat="45.7366" lon="5.83413">
        <ele>786</ele>
        <time>2018-09-01T16:42:31Z</time>
      </trkpt>
      <trkpt lat="45.73664" lon="5.83408">
        <ele>786</ele>
        <time>2018-09-01T16:42:31Z</time>
      </trkpt>
      <trkpt lat="45.73664" lon="5.83404">
        <ele>786</ele>
        <time>2018-09-01T16:42:31Z</time>
      </trkpt>
      <trkpt lat="45.73662" lon="5.834">
        <ele>786</ele>
        <time>2018-09-01T16:42:47Z</time>
      </trkpt>
      <trkpt lat="45.7366" lon="5.83393">
        <ele>786</ele>
        <time>2018-09-01T16:42:47Z</time>
      </trkpt>
      <trkpt lat="45.7366" lon="5.83387">
        <ele>786</ele>
        <time>2018-09-01T16:42:47Z</time>
      </trkpt>
      <trkpt lat="45.73661" lon="5.83382">
        <ele>786</ele>
        <time>2018-09-01T16:42:47Z</time>
      </trkpt>
      <trkpt lat="45.73662" lon="5.83377">
        <ele>786</ele>
        <time>2018-09-01T16:43:07Z</time>
      </trkpt>
      <trkpt lat="45.73663" lon="5.83375">
        <ele>786</ele>
        <time>2018-09-01T16:43:07Z</time>
      </trkpt>
      <trkpt lat="45.73664" lon="5.83374">
        <ele>789</ele>
        <time>2018-09-01T16:43:07Z</time>
      </trkpt>
      <trkpt lat="45.73666" lon="5.8337">
        <ele>789</ele>
        <time>2018-09-01T16:43:07Z</time>
      </trkpt>
      <trkpt lat="45.73671" lon="5.83364">
        <ele>789</ele>
        <time>2018-09-01T16:43:07Z</time>
      </trkpt>
      <trkpt lat="45.73675" lon="5.83358">
        <ele>789</ele>
        <time>2018-09-01T16:43:23Z</time>
      </trkpt>
      <trkpt lat="45.73678" lon="5.83349">
        <ele>789</ele>
        <time>2018-09-01T16:43:23Z</time>
      </trkpt>
      <trkpt lat="45.7368" lon="5.83342">
        <ele>789</ele>
        <time>2018-09-01T16:43:23Z</time>
      </trkpt>
      <trkpt lat="45.73684" lon="5.83336">
        <ele>789</ele>
        <time>2018-09-01T16:43:23Z</time>
      </trkpt>
      <trkpt lat="45.73687" lon="5.83332">
        <ele>789</ele>
        <time>2018-09-01T16:43:39Z</time>
      </trkpt>
      <trkpt lat="45.73692" lon="5.83327">
        <ele>789</ele>
        <time>2018-09-01T16:43:39Z</time>
      </trkpt>
      <trkpt lat="45.73696" lon="5.83326">
        <ele>789</ele>
        <time>2018-09-01T16:43:39Z</time>
      </trkpt>
      <trkpt lat="45.73698" lon="5.83324">
        <ele>789</ele>
        <time>2018-09-01T16:43:39Z</time>
      </trkpt>
      <trkpt lat="45.73699" lon="5.83322">
        <ele>789</ele>
        <time>2018-09-01T16:43:55Z</time>
      </trkpt>
      <trkpt lat="45.737" lon="5.83322">
        <ele>789</ele>
        <time>2018-09-01T16:43:55Z</time>
      </trkpt>
      <trkpt lat="45.73706" lon="5.83318">
        <ele>789</ele>
        <time>2018-09-01T16:43:55Z</time>
      </trkpt>
      <trkpt lat="45.73711" lon="5.83313">
        <ele>775</ele>
        <time>2018-09-01T16:43:55Z</time>
      </trkpt>
      <trkpt lat="45.73717" lon="5.83308">
        <ele>775</ele>
        <time>2018-09-01T16:44:11Z</time>
      </trkpt>
      <trkpt lat="45.73722" lon="5.83303">
        <ele>775</ele>
        <time>2018-09-01T16:44:11Z</time>
      </trkpt>
      <trkpt lat="45.73726" lon="5.83299">
        <ele>775</ele>
        <time>2018-09-01T16:44:11Z</time>
      </trkpt>
      <trkpt lat="45.73732" lon="5.83292">
        <ele>775</ele>
        <time>2018-09-01T16:44:11Z</time>
      </trkpt>
      <trkpt lat="45.73737" lon="5.83283">
        <ele>786</ele>
        <time>2018-09-01T16:44:27Z</time>
      </trkpt>
      <trkpt lat="45.73742" lon="5.83276">
        <ele>786</ele>
        <time>2018-09-01T16:44:27Z</time>
      </trkpt>
      <trkpt lat="45.7375" lon="5.83275">
        <ele>786</ele>
        <time>2018-09-01T16:44:27Z</time>
      </trkpt>
      <trkpt lat="45.73764" lon="5.83268">
        <ele>786</ele>
        <time>2018-09-01T16:44:27Z</time>
      </trkpt>
      <trkpt lat="45.73775" lon="5.83254">
        <ele>786</ele>
        <time>2018-09-01T16:44:43Z</time>
      </trkpt>
      <trkpt lat="45.73783" lon="5.83252">
        <ele>786</ele>
        <time>2018-09-01T16:44:43Z</time>
      </trkpt>
      <trkpt lat="45.73788" lon="5.83248">
        <ele>786</ele>
        <time>2018-09-01T16:44:43Z</time>
      </trkpt>
      <trkpt lat="45.73793" lon="5.83241">
        <ele>778</ele>
        <time>2018-09-01T16:44:43Z</time>
      </trkpt>
      <trkpt lat="45.73805" lon="5.83232">
        <ele>778</ele>
        <time>2018-09-01T16:44:59Z</time>
      </trkpt>
      <trkpt lat="45.73823" lon="5.832">
        <ele>789</ele>
        <time>2018-09-01T16:44:59Z</time>
      </trkpt>
      <trkpt lat="45.73837" lon="5.83178">
        <ele>789</ele>
        <time>2018-09-01T16:44:59Z</time>
      </trkpt>
      <trkpt lat="45.73851" lon="5.83172">
        <ele>789</ele>
        <time>2018-09-01T16:44:59Z</time>
      </trkpt>
      <trkpt lat="45.73852" lon="5.83166">
        <ele>789</ele>
        <time>2018-09-01T16:45:15Z</time>
      </trkpt>
      <trkpt lat="45.73855" lon="5.83159">
        <ele>789</ele>
        <time>2018-09-01T16:45:15Z</time>
      </trkpt>
      <trkpt lat="45.73858" lon="5.83153">
        <ele>789</ele>
        <time>2018-09-01T16:45:15Z</time>
      </trkpt>
      <trkpt lat="45.73862" lon="5.83146">
        <ele>789</ele>
        <time>2018-09-01T16:45:15Z</time>
      </trkpt>
      <trkpt lat="45.73869" lon="5.83139">
        <ele>789</ele>
        <time>2018-09-01T16:45:31Z</time>
      </trkpt>
      <trkpt lat="45.73877" lon="5.83127">
        <ele>780</ele>
        <time>2018-09-01T16:45:31Z</time>
      </trkpt>
      <trkpt lat="45.73887" lon="5.83116">
        <ele>789</ele>
        <time>2018-09-01T16:45:31Z</time>
      </trkpt>
      <trkpt lat="45.73904" lon="5.83102">
        <ele>789</ele>
        <time>2018-09-01T16:45:31Z</time>
      </trkpt>
      <trkpt lat="45.73915" lon="5.83091">
        <ele>789</ele>
        <time>2018-09-01T16:45:47Z</time>
      </trkpt>
      <trkpt lat="45.73924" lon="5.83082">
        <ele>789</ele>
        <time>2018-09-01T16:45:47Z</time>
      </trkpt>
      <trkpt lat="45.73934" lon="5.83072">
        <ele>789</ele>
        <time>2018-09-01T16:45:47Z</time>
      </trkpt>
      <trkpt lat="45.73945" lon="5.83054">
        <ele>789</ele>
        <time>2018-09-01T16:45:47Z</time>
      </trkpt>
      <trkpt lat="45.73956" lon="5.83038">
        <ele>802</ele>
        <time>2018-09-01T16:46:03Z</time>
      </trkpt>
      <trkpt lat="45.73968" lon="5.83027">
        <ele>788</ele>
        <time>2018-09-01T16:46:03Z</time>
      </trkpt>
      <trkpt lat="45.73976" lon="5.83012">
        <ele>788</ele>
        <time>2018-09-01T16:46:03Z</time>
      </trkpt>
      <trkpt lat="45.73992" lon="5.82995">
        <ele>788</ele>
        <time>2018-09-01T16:46:03Z</time>
      </trkpt>
      <trkpt lat="45.74009" lon="5.82978">
        <ele>788</ele>
        <time>2018-09-01T16:46:19Z</time>
      </trkpt>
      <trkpt lat="45.74018" lon="5.82969">
        <ele>788</ele>
        <time>2018-09-01T16:46:19Z</time>
      </trkpt>
      <trkpt lat="45.74025" lon="5.82962">
        <ele>788</ele>
        <time>2018-09-01T16:46:19Z</time>
      </trkpt>
      <trkpt lat="45.7403" lon="5.82957">
        <ele>801</ele>
        <time>2018-09-01T16:46:19Z</time>
      </trkpt>
      <trkpt lat="45.74038" lon="5.82951">
        <ele>801</ele>
        <time>2018-09-01T16:46:43Z</time>
      </trkpt>
      <trkpt lat="45.7404" lon="5.8295">
        <ele>801</ele>
        <time>2018-09-01T16:46:43Z</time>
      </trkpt>
      <trkpt lat="45.7404" lon="5.82949">
        <ele>801</ele>
        <time>2018-09-01T16:46:43Z</time>
      </trkpt>
      <trkpt lat="45.74041" lon="5.82947">
        <ele>801</ele>
        <time>2018-09-01T16:46:43Z</time>
      </trkpt>
      <trkpt lat="45.74044" lon="5.82942">
        <ele>778</ele>
        <time>2018-09-01T16:46:43Z</time>
      </trkpt>
      <trkpt lat="45.74048" lon="5.8294">
        <ele>778</ele>
        <time>2018-09-01T16:46:59Z</time>
      </trkpt>
      <trkpt lat="45.74051" lon="5.82937">
        <ele>778</ele>
        <time>2018-09-01T16:46:59Z</time>
      </trkpt>
      <trkpt lat="45.74053" lon="5.82933">
        <ele>778</ele>
        <time>2018-09-01T16:46:59Z</time>
      </trkpt>
      <trkpt lat="45.74059" lon="5.82928">
        <ele>778</ele>
        <time>2018-09-01T16:46:59Z</time>
      </trkpt>
      <trkpt lat="45.74064" lon="5.82926">
        <ele>778</ele>
        <time>2018-09-01T16:47:15Z</time>
      </trkpt>
      <trkpt lat="45.74068" lon="5.82924">
        <ele>778</ele>
        <time>2018-09-01T16:47:15Z</time>
      </trkpt>
      <trkpt lat="45.74073" lon="5.82922">
        <ele>778</ele>
        <time>2018-09-01T16:47:15Z</time>
      </trkpt>
      <trkpt lat="45.74079" lon="5.82918">
        <ele>778</ele>
        <time>2018-09-01T16:47:15Z</time>
      </trkpt>
      <trkpt lat="45.74085" lon="5.82918">
        <ele>778</ele>
        <time>2018-09-01T16:47:31Z</time>
      </trkpt>
      <trkpt lat="45.74092" lon="5.8292">
        <ele>778</ele>
        <time>2018-09-01T16:47:31Z</time>
      </trkpt>
      <trkpt lat="45.74098" lon="5.82922">
        <ele>778</ele>
        <time>2018-09-01T16:47:31Z</time>
      </trkpt>
      <trkpt lat="45.74103" lon="5.82923">
        <ele>778</ele>
        <time>2018-09-01T16:47:31Z</time>
      </trkpt>
      <trkpt lat="45.7411" lon="5.82923">
        <ele>778</ele>
        <time>2018-09-01T16:47:47Z</time>
      </trkpt>
      <trkpt lat="45.74116" lon="5.82924">
        <ele>778</ele>
        <time>2018-09-01T16:47:47Z</time>
      </trkpt>
      <trkpt lat="45.74122" lon="5.82925">
        <ele>778</ele>
        <time>2018-09-01T16:47:47Z</time>
      </trkpt>
      <trkpt lat="45.74127" lon="5.82927">
        <ele>754</ele>
        <time>2018-09-01T16:47:47Z</time>
      </trkpt>
      <trkpt lat="45.74132" lon="5.82929">
        <ele>754</ele>
        <time>2018-09-01T16:48:03Z</time>
      </trkpt>
      <trkpt lat="45.74135" lon="5.82929">
        <ele>754</ele>
        <time>2018-09-01T16:48:03Z</time>
      </trkpt>
      <trkpt lat="45.74138" lon="5.82929">
        <ele>754</ele>
        <time>2018-09-01T16:48:03Z</time>
      </trkpt>
      <trkpt lat="45.74142" lon="5.82931">
        <ele>754</ele>
        <time>2018-09-01T16:48:03Z</time>
      </trkpt>
      <trkpt lat="45.74146" lon="5.82933">
        <ele>754</ele>
        <time>2018-09-01T16:48:23Z</time>
      </trkpt>
      <trkpt lat="45.74149" lon="5.82933">
        <ele>754</ele>
        <time>2018-09-01T16:48:23Z</time>
      </trkpt>
      <trkpt lat="45.74153" lon="5.82931">
        <ele>754</ele>
        <time>2018-09-01T16:48:23Z</time>
      </trkpt>
      <trkpt lat="45.74155" lon="5.82931">
        <ele>754</ele>
        <time>2018-09-01T16:48:23Z</time>
      </trkpt>
      <trkpt lat="45.7416" lon="5.82932">
        <ele>754</ele>
        <time>2018-09-01T16:48:23Z</time>
      </trkpt>
      <trkpt lat="45.74164" lon="5.82934">
        <ele>754</ele>
        <time>2018-09-01T16:48:43Z</time>
      </trkpt>
      <trkpt lat="45.74167" lon="5.82936">
        <ele>754</ele>
        <time>2018-09-01T16:48:43Z</time>
      </trkpt>
      <trkpt lat="45.74169" lon="5.82937">
        <ele>754</ele>
        <time>2018-09-01T16:48:43Z</time>
      </trkpt>
      <trkpt lat="45.7417" lon="5.82939">
        <ele>754</ele>
        <time>2018-09-01T16:48:43Z</time>
      </trkpt>
      <trkpt lat="45.74173" lon="5.82941">
        <ele>754</ele>
        <time>2018-09-01T16:48:43Z</time>
      </trkpt>
      <trkpt lat="45.74176" lon="5.82944">
        <ele>754</ele>
        <time>2018-09-01T16:48:59Z</time>
      </trkpt>
      <trkpt lat="45.74179" lon="5.82945">
        <ele>754</ele>
        <time>2018-09-01T16:48:59Z</time>
      </trkpt>
      <trkpt lat="45.74183" lon="5.82945">
        <ele>754</ele>
        <time>2018-09-01T16:48:59Z</time>
      </trkpt>
      <trkpt lat="45.74188" lon="5.82945">
        <ele>754</ele>
        <time>2018-09-01T16:48:59Z</time>
      </trkpt>
      <trkpt lat="45.74192" lon="5.82945">
        <ele>754</ele>
        <time>2018-09-01T16:49:15Z</time>
      </trkpt>
      <trkpt lat="45.74198" lon="5.8295">
        <ele>754</ele>
        <time>2018-09-01T16:49:15Z</time>
      </trkpt>
      <trkpt lat="45.74201" lon="5.82953">
        <ele>754</ele>
        <time>2018-09-01T16:49:15Z</time>
      </trkpt>
      <trkpt lat="45.74205" lon="5.82958">
        <ele>754</ele>
        <time>2018-09-01T16:49:15Z</time>
      </trkpt>
      <trkpt lat="45.74211" lon="5.82962">
        <ele>745</ele>
        <time>2018-09-01T16:49:31Z</time>
      </trkpt>
      <trkpt lat="45.74214" lon="5.82965">
        <ele>745</ele>
        <time>2018-09-01T16:49:31Z</time>
      </trkpt>
      <trkpt lat="45.74221" lon="5.82968">
        <ele>745</ele>
        <time>2018-09-01T16:49:31Z</time>
      </trkpt>
      <trkpt lat="45.74224" lon="5.82968">
        <ele>745</ele>
        <time>2018-09-01T16:49:31Z</time>
      </trkpt>
      <trkpt lat="45.74229" lon="5.8297">
        <ele>745</ele>
        <time>2018-09-01T16:49:47Z</time>
      </trkpt>
      <trkpt lat="45.74235" lon="5.82972">
        <ele>745</ele>
        <time>2018-09-01T16:49:47Z</time>
      </trkpt>
      <trkpt lat="45.74238" lon="5.82972">
        <ele>745</ele>
        <time>2018-09-01T16:49:47Z</time>
      </trkpt>
      <trkpt lat="45.7424" lon="5.82972">
        <ele>745</ele>
        <time>2018-09-01T16:49:47Z</time>
      </trkpt>
      <trkpt lat="45.74244" lon="5.82973">
        <ele>745</ele>
        <time>2018-09-01T16:50:03Z</time>
      </trkpt>
      <trkpt lat="45.74248" lon="5.82975">
        <ele>745</ele>
        <time>2018-09-01T16:50:03Z</time>
      </trkpt>
      <trkpt lat="45.74253" lon="5.82973">
        <ele>745</ele>
        <time>2018-09-01T16:50:03Z</time>
      </trkpt>
      <trkpt lat="45.74259" lon="5.82972">
        <ele>745</ele>
        <time>2018-09-01T16:50:03Z</time>
      </trkpt>
      <trkpt lat="45.74265" lon="5.82971">
        <ele>745</ele>
        <time>2018-09-01T16:50:19Z</time>
      </trkpt>
      <trkpt lat="45.74271" lon="5.8297">
        <ele>745</ele>
        <time>2018-09-01T16:50:19Z</time>
      </trkpt>
      <trkpt lat="45.74276" lon="5.82969">
        <ele>745</ele>
        <time>2018-09-01T16:50:19Z</time>
      </trkpt>
      <trkpt lat="45.74281" lon="5.82966">
        <ele>745</ele>
        <time>2018-09-01T16:50:19Z</time>
      </trkpt>
      <trkpt lat="45.74283" lon="5.82961">
        <ele>745</ele>
        <time>2018-09-01T16:50:39Z</time>
      </trkpt>
      <trkpt lat="45.74286" lon="5.82959">
        <ele>745</ele>
        <time>2018-09-01T16:50:39Z</time>
      </trkpt>
      <trkpt lat="45.74288" lon="5.82959">
        <ele>745</ele>
        <time>2018-09-01T16:50:39Z</time>
      </trkpt>
      <trkpt lat="45.7429" lon="5.82959">
        <ele>745</ele>
        <time>2018-09-01T16:50:39Z</time>
      </trkpt>
      <trkpt lat="45.74294" lon="5.82955">
        <ele>739</ele>
        <time>2018-09-01T16:50:39Z</time>
      </trkpt>
      <trkpt lat="45.74298" lon="5.82948">
        <ele>739</ele>
        <time>2018-09-01T16:50:55Z</time>
      </trkpt>
      <trkpt lat="45.74308" lon="5.82933">
        <ele>739</ele>
        <time>2018-09-01T16:50:55Z</time>
      </trkpt>
      <trkpt lat="45.74319" lon="5.82919">
        <ele>739</ele>
        <time>2018-09-01T16:50:55Z</time>
      </trkpt>
      <trkpt lat="45.74328" lon="5.82913">
        <ele>739</ele>
        <time>2018-09-01T16:50:55Z</time>
      </trkpt>
      <trkpt lat="45.74334" lon="5.82907">
        <ele>739</ele>
        <time>2018-09-01T16:51:11Z</time>
      </trkpt>
      <trkpt lat="45.74341" lon="5.82903">
        <ele>739</ele>
        <time>2018-09-01T16:51:11Z</time>
      </trkpt>
      <trkpt lat="45.74346" lon="5.82901">
        <ele>739</ele>
        <time>2018-09-01T16:51:11Z</time>
      </trkpt>
      <trkpt lat="45.74351" lon="5.829">
        <ele>739</ele>
        <time>2018-09-01T16:51:11Z</time>
      </trkpt>
      <trkpt lat="45.74358" lon="5.82902">
        <ele>739</ele>
        <time>2018-09-01T16:51:27Z</time>
      </trkpt>
      <trkpt lat="45.74363" lon="5.82901">
        <ele>739</ele>
        <time>2018-09-01T16:51:27Z</time>
      </trkpt>
      <trkpt lat="45.74368" lon="5.829">
        <ele>739</ele>
        <time>2018-09-01T16:51:27Z</time>
      </trkpt>
      <trkpt lat="45.74373" lon="5.829">
        <ele>739</ele>
        <time>2018-09-01T16:51:27Z</time>
      </trkpt>
      <trkpt lat="45.74378" lon="5.82896">
        <ele>735</ele>
        <time>2018-09-01T16:51:43Z</time>
      </trkpt>
      <trkpt lat="45.74383" lon="5.82894">
        <ele>735</ele>
        <time>2018-09-01T16:51:43Z</time>
      </trkpt>
      <trkpt lat="45.74389" lon="5.82893">
        <ele>735</ele>
        <time>2018-09-01T16:51:43Z</time>
      </trkpt>
      <trkpt lat="45.74394" lon="5.82893">
        <ele>735</ele>
        <time>2018-09-01T16:51:43Z</time>
      </trkpt>
      <trkpt lat="45.744" lon="5.82894">
        <ele>735</ele>
        <time>2018-09-01T16:51:59Z</time>
      </trkpt>
      <trkpt lat="45.74405" lon="5.82894">
        <ele>735</ele>
        <time>2018-09-01T16:51:59Z</time>
      </trkpt>
      <trkpt lat="45.7441" lon="5.8289">
        <ele>735</ele>
        <time>2018-09-01T16:51:59Z</time>
      </trkpt>
      <trkpt lat="45.74414" lon="5.82889">
        <ele>735</ele>
        <time>2018-09-01T16:51:59Z</time>
      </trkpt>
      <trkpt lat="45.74418" lon="5.82886">
        <ele>735</ele>
        <time>2018-09-01T16:52:15Z</time>
      </trkpt>
      <trkpt lat="45.74422" lon="5.82883">
        <ele>735</ele>
        <time>2018-09-01T16:52:15Z</time>
      </trkpt>
      <trkpt lat="45.74426" lon="5.8288">
        <ele>735</ele>
        <time>2018-09-01T16:52:15Z</time>
      </trkpt>
      <trkpt lat="45.7443" lon="5.82875">
        <ele>735</ele>
        <time>2018-09-01T16:52:15Z</time>
      </trkpt>
      <trkpt lat="45.74435" lon="5.82872">
        <ele>726</ele>
        <time>2018-09-01T16:52:31Z</time>
      </trkpt>
      <trkpt lat="45.74441" lon="5.82873">
        <ele>726</ele>
        <time>2018-09-01T16:52:31Z</time>
      </trkpt>
      <trkpt lat="45.74447" lon="5.82872">
        <ele>726</ele>
        <time>2018-09-01T16:52:31Z</time>
      </trkpt>
      <trkpt lat="45.74453" lon="5.82871">
        <ele>726</ele>
        <time>2018-09-01T16:52:31Z</time>
      </trkpt>
      <trkpt lat="45.7446" lon="5.82873">
        <ele>732</ele>
        <time>2018-09-01T16:52:47Z</time>
      </trkpt>
      <trkpt lat="45.74466" lon="5.82872">
        <ele>732</ele>
        <time>2018-09-01T16:52:47Z</time>
      </trkpt>
      <trkpt lat="45.74471" lon="5.82873">
        <ele>732</ele>
        <time>2018-09-01T16:52:47Z</time>
      </trkpt>
      <trkpt lat="45.74475" lon="5.82875">
        <ele>732</ele>
        <time>2018-09-01T16:52:47Z</time>
      </trkpt>
      <trkpt lat="45.74481" lon="5.82876">
        <ele>729</ele>
        <time>2018-09-01T16:53:03Z</time>
      </trkpt>
      <trkpt lat="45.74486" lon="5.82878">
        <ele>729</ele>
        <time>2018-09-01T16:53:03Z</time>
      </trkpt>
      <trkpt lat="45.74488" lon="5.82878">
        <ele>729</ele>
        <time>2018-09-01T16:53:03Z</time>
      </trkpt>
      <trkpt lat="45.74491" lon="5.82879">
        <ele>729</ele>
        <time>2018-09-01T16:53:03Z</time>
      </trkpt>
      <trkpt lat="45.745" lon="5.82888">
        <ele>729</ele>
        <time>2018-09-01T16:53:23Z</time>
      </trkpt>
      <trkpt lat="45.74502" lon="5.8289">
        <ele>729</ele>
        <time>2018-09-01T16:53:23Z</time>
      </trkpt>
      <trkpt lat="45.74503" lon="5.82891">
        <ele>729</ele>
        <time>2018-09-01T16:53:23Z</time>
      </trkpt>
      <trkpt lat="45.74507" lon="5.82893">
        <ele>729</ele>
        <time>2018-09-01T16:53:23Z</time>
      </trkpt>
      <trkpt lat="45.74511" lon="5.82891">
        <ele>729</ele>
        <time>2018-09-01T16:53:23Z</time>
      </trkpt>
      <trkpt lat="45.74513" lon="5.82888">
        <ele>729</ele>
        <time>2018-09-01T16:53:39Z</time>
      </trkpt>
      <trkpt lat="45.74517" lon="5.82884">
        <ele>729</ele>
        <time>2018-09-01T16:53:39Z</time>
      </trkpt>
      <trkpt lat="45.74522" lon="5.8288">
        <ele>729</ele>
        <time>2018-09-01T16:53:39Z</time>
      </trkpt>
      <trkpt lat="45.74526" lon="5.82877">
        <ele>729</ele>
        <time>2018-09-01T16:53:39Z</time>
      </trkpt>
      <trkpt lat="45.74528" lon="5.82872">
        <ele>732</ele>
        <time>2018-09-01T16:53:55Z</time>
      </trkpt>
      <trkpt lat="45.7453" lon="5.82866">
        <ele>732</ele>
        <time>2018-09-01T16:53:55Z</time>
      </trkpt>
      <trkpt lat="45.74531" lon="5.82861">
        <ele>732</ele>
        <time>2018-09-01T16:53:55Z</time>
      </trkpt>
      <trkpt lat="45.74532" lon="5.82856">
        <ele>732</ele>
        <time>2018-09-01T16:53:55Z</time>
      </trkpt>
      <trkpt lat="45.74532" lon="5.8285">
        <ele>732</ele>
        <time>2018-09-01T16:54:11Z</time>
      </trkpt>
      <trkpt lat="45.74536" lon="5.82846">
        <ele>732</ele>
        <time>2018-09-01T16:54:11Z</time>
      </trkpt>
      <trkpt lat="45.7454" lon="5.82841">
        <ele>732</ele>
        <time>2018-09-01T16:54:11Z</time>
      </trkpt>
      <trkpt lat="45.74543" lon="5.82836">
        <ele>739</ele>
        <time>2018-09-01T16:54:11Z</time>
      </trkpt>
      <trkpt lat="45.74546" lon="5.82829">
        <ele>739</ele>
        <time>2018-09-01T16:54:27Z</time>
      </trkpt>
      <trkpt lat="45.74551" lon="5.82826">
        <ele>739</ele>
        <time>2018-09-01T16:54:27Z</time>
      </trkpt>
      <trkpt lat="45.74555" lon="5.82821">
        <ele>739</ele>
        <time>2018-09-01T16:54:27Z</time>
      </trkpt>
      <trkpt lat="45.74558" lon="5.82815">
        <ele>739</ele>
        <time>2018-09-01T16:54:27Z</time>
      </trkpt>
      <trkpt lat="45.74561" lon="5.8281">
        <ele>739</ele>
        <time>2018-09-01T16:54:43Z</time>
      </trkpt>
      <trkpt lat="45.74564" lon="5.82803">
        <ele>739</ele>
        <time>2018-09-01T16:54:43Z</time>
      </trkpt>
      <trkpt lat="45.74567" lon="5.82797">
        <ele>739</ele>
        <time>2018-09-01T16:54:43Z</time>
      </trkpt>
      <trkpt lat="45.7457" lon="5.82791">
        <ele>749</ele>
        <time>2018-09-01T16:54:43Z</time>
      </trkpt>
      <trkpt lat="45.74573" lon="5.82786">
        <ele>749</ele>
        <time>2018-09-01T16:54:59Z</time>
      </trkpt>
      <trkpt lat="45.74577" lon="5.82781">
        <ele>749</ele>
        <time>2018-09-01T16:54:59Z</time>
      </trkpt>
      <trkpt lat="45.7458" lon="5.82775">
        <ele>749</ele>
        <time>2018-09-01T16:54:59Z</time>
      </trkpt>
      <trkpt lat="45.74584" lon="5.82771">
        <ele>749</ele>
        <time>2018-09-01T16:54:59Z</time>
      </trkpt>
      <trkpt lat="45.74588" lon="5.82767">
        <ele>749</ele>
        <time>2018-09-01T16:55:15Z</time>
      </trkpt>
      <trkpt lat="45.74593" lon="5.82763">
        <ele>749</ele>
        <time>2018-09-01T16:55:15Z</time>
      </trkpt>
      <trkpt lat="45.74596" lon="5.82761">
        <ele>749</ele>
        <time>2018-09-01T16:55:15Z</time>
      </trkpt>
      <trkpt lat="45.74601" lon="5.82761">
        <ele>749</ele>
        <time>2018-09-01T16:55:15Z</time>
      </trkpt>
      <trkpt lat="45.74605" lon="5.82758">
        <ele>749</ele>
        <time>2018-09-01T16:55:31Z</time>
      </trkpt>
      <trkpt lat="45.74612" lon="5.82755">
        <ele>749</ele>
        <time>2018-09-01T16:55:31Z</time>
      </trkpt>
      <trkpt lat="45.74616" lon="5.82752">
        <ele>749</ele>
        <time>2018-09-01T16:55:31Z</time>
      </trkpt>
      <trkpt lat="45.74619" lon="5.82752">
        <ele>749</ele>
        <time>2018-09-01T16:55:31Z</time>
      </trkpt>
      <trkpt lat="45.74621" lon="5.82751">
        <ele>749</ele>
        <time>2018-09-01T16:55:47Z</time>
      </trkpt>
      <trkpt lat="45.74625" lon="5.82751">
        <ele>749</ele>
        <time>2018-09-01T16:55:47Z</time>
      </trkpt>
      <trkpt lat="45.74631" lon="5.82749">
        <ele>750</ele>
        <time>2018-09-01T16:55:47Z</time>
      </trkpt>
      <trkpt lat="45.74638" lon="5.82748">
        <ele>750</ele>
        <time>2018-09-01T16:55:47Z</time>
      </trkpt>
      <trkpt lat="45.74644" lon="5.82745">
        <ele>750</ele>
        <time>2018-09-01T16:56:03Z</time>
      </trkpt>
      <trkpt lat="45.74651" lon="5.82742">
        <ele>750</ele>
        <time>2018-09-01T16:56:03Z</time>
      </trkpt>
      <trkpt lat="45.7466" lon="5.82741">
        <ele>750</ele>
        <time>2018-09-01T16:56:03Z</time>
      </trkpt>
      <trkpt lat="45.74668" lon="5.82741">
        <ele>750</ele>
        <time>2018-09-01T16:56:03Z</time>
      </trkpt>
      <trkpt lat="45.74675" lon="5.82744">
        <ele>750</ele>
        <time>2018-09-01T16:56:19Z</time>
      </trkpt>
      <trkpt lat="45.74681" lon="5.82748">
        <ele>750</ele>
        <time>2018-09-01T16:56:19Z</time>
      </trkpt>
      <trkpt lat="45.74686" lon="5.82749">
        <ele>750</ele>
        <time>2018-09-01T16:56:19Z</time>
      </trkpt>
      <trkpt lat="45.74688" lon="5.82753">
        <ele>750</ele>
        <time>2018-09-01T16:56:19Z</time>
      </trkpt>
      <trkpt lat="45.74692" lon="5.82757">
        <ele>750</ele>
        <time>2018-09-01T16:56:35Z</time>
      </trkpt>
      <trkpt lat="45.74696" lon="5.82762">
        <ele>750</ele>
        <time>2018-09-01T16:56:35Z</time>
      </trkpt>
      <trkpt lat="45.74701" lon="5.82769">
        <ele>750</ele>
        <time>2018-09-01T16:56:35Z</time>
      </trkpt>
      <trkpt lat="45.74706" lon="5.82774">
        <ele>750</ele>
        <time>2018-09-01T16:56:35Z</time>
      </trkpt>
      <trkpt lat="45.74711" lon="5.82776">
        <ele>744</ele>
        <time>2018-09-01T16:56:51Z</time>
      </trkpt>
      <trkpt lat="45.74716" lon="5.82774">
        <ele>744</ele>
        <time>2018-09-01T16:56:51Z</time>
      </trkpt>
      <trkpt lat="45.74718" lon="5.8277">
        <ele>744</ele>
        <time>2018-09-01T16:56:51Z</time>
      </trkpt>
      <trkpt lat="45.74722" lon="5.82767">
        <ele>744</ele>
        <time>2018-09-01T16:56:51Z</time>
      </trkpt>
      <trkpt lat="45.74724" lon="5.82762">
        <ele>744</ele>
        <time>2018-09-01T16:57:07Z</time>
      </trkpt>
      <trkpt lat="45.74727" lon="5.82758">
        <ele>744</ele>
        <time>2018-09-01T16:57:07Z</time>
      </trkpt>
      <trkpt lat="45.74729" lon="5.82752">
        <ele>744</ele>
        <time>2018-09-01T16:57:07Z</time>
      </trkpt>
      <trkpt lat="45.74731" lon="5.82745">
        <ele>744</ele>
        <time>2018-09-01T16:57:07Z</time>
      </trkpt>
      <trkpt lat="45.74733" lon="5.82739">
        <ele>744</ele>
        <time>2018-09-01T16:57:23Z</time>
      </trkpt>
      <trkpt lat="45.74735" lon="5.82734">
        <ele>744</ele>
        <time>2018-09-01T16:57:23Z</time>
      </trkpt>
      <trkpt lat="45.74739" lon="5.82731">
        <ele>744</ele>
        <time>2018-09-01T16:57:23Z</time>
      </trkpt>
      <trkpt lat="45.74743" lon="5.82727">
        <ele>744</ele>
        <time>2018-09-01T16:57:23Z</time>
      </trkpt>
      <trkpt lat="45.74748" lon="5.82722">
        <ele>744</ele>
        <time>2018-09-01T16:57:39Z</time>
      </trkpt>
      <trkpt lat="45.74752" lon="5.82717">
        <ele>744</ele>
        <time>2018-09-01T16:57:39Z</time>
      </trkpt>
      <trkpt lat="45.74757" lon="5.82711">
        <ele>744</ele>
        <time>2018-09-01T16:57:39Z</time>
      </trkpt>
      <trkpt lat="45.74762" lon="5.82705">
        <ele>766</ele>
        <time>2018-09-01T16:57:39Z</time>
      </trkpt>
      <trkpt lat="45.74766" lon="5.827">
        <ele>766</ele>
        <time>2018-09-01T16:57:55Z</time>
      </trkpt>
      <trkpt lat="45.7477" lon="5.827">
        <ele>766</ele>
        <time>2018-09-01T16:57:55Z</time>
      </trkpt>
      <trkpt lat="45.74772" lon="5.82697">
        <ele>766</ele>
        <time>2018-09-01T16:57:55Z</time>
      </trkpt>
      <trkpt lat="45.74777" lon="5.82694">
        <ele>766</ele>
        <time>2018-09-01T16:57:55Z</time>
      </trkpt>
      <trkpt lat="45.74782" lon="5.82691">
        <ele>766</ele>
        <time>2018-09-01T16:58:11Z</time>
      </trkpt>
      <trkpt lat="45.74787" lon="5.82686">
        <ele>766</ele>
        <time>2018-09-01T16:58:11Z</time>
      </trkpt>
      <trkpt lat="45.74793" lon="5.82682">
        <ele>751</ele>
        <time>2018-09-01T16:58:11Z</time>
      </trkpt>
      <trkpt lat="45.74799" lon="5.82677">
        <ele>751</ele>
        <time>2018-09-01T16:58:11Z</time>
      </trkpt>
      <trkpt lat="45.74806" lon="5.82674">
        <ele>751</ele>
        <time>2018-09-01T16:58:27Z</time>
      </trkpt>
      <trkpt lat="45.74818" lon="5.82669">
        <ele>751</ele>
        <time>2018-09-01T16:58:27Z</time>
      </trkpt>
      <trkpt lat="45.74828" lon="5.82652">
        <ele>751</ele>
        <time>2018-09-01T16:58:27Z</time>
      </trkpt>
      <trkpt lat="45.74836" lon="5.8264">
        <ele>751</ele>
        <time>2018-09-01T16:58:27Z</time>
      </trkpt>
      <trkpt lat="45.7484" lon="5.82633">
        <ele>751</ele>
        <time>2018-09-01T16:58:43Z</time>
      </trkpt>
      <trkpt lat="45.74842" lon="5.82625">
        <ele>751</ele>
        <time>2018-09-01T16:58:43Z</time>
      </trkpt>
      <trkpt lat="45.74847" lon="5.82619">
        <ele>773</ele>
        <time>2018-09-01T16:58:43Z</time>
      </trkpt>
      <trkpt lat="45.74849" lon="5.82614">
        <ele>773</ele>
        <time>2018-09-01T16:58:43Z</time>
      </trkpt>
      <trkpt lat="45.74854" lon="5.82611">
        <ele>773</ele>
        <time>2018-09-01T16:58:59Z</time>
      </trkpt>
      <trkpt lat="45.7486" lon="5.82607">
        <ele>773</ele>
        <time>2018-09-01T16:58:59Z</time>
      </trkpt>
      <trkpt lat="45.74866" lon="5.82604">
        <ele>773</ele>
        <time>2018-09-01T16:58:59Z</time>
      </trkpt>
      <trkpt lat="45.74871" lon="5.82601">
        <ele>773</ele>
        <time>2018-09-01T16:58:59Z</time>
      </trkpt>
      <trkpt lat="45.74877" lon="5.82595">
        <ele>751</ele>
        <time>2018-09-01T16:59:39Z</time>
      </trkpt>
      <trkpt lat="45.74877" lon="5.82595">
        <ele>751</ele>
        <time>2018-09-01T16:59:39Z</time>
      </trkpt>
      <trkpt lat="45.74877" lon="5.82595">
        <ele>751</ele>
        <time>2018-09-01T16:59:39Z</time>
      </trkpt>
      <trkpt lat="45.74878" lon="5.82596">
        <ele>751</ele>
        <time>2018-09-01T16:59:39Z</time>
      </trkpt>
      <trkpt lat="45.74879" lon="5.82595">
        <ele>751</ele>
        <time>2018-09-01T16:59:39Z</time>
      </trkpt>
      <trkpt lat="45.74885" lon="5.82596">
        <ele>751</ele>
        <time>2018-09-01T16:59:55Z</time>
      </trkpt>
      <trkpt lat="45.7489" lon="5.82592">
        <ele>751</ele>
        <time>2018-09-01T16:59:55Z</time>
      </trkpt>
      <trkpt lat="45.74891" lon="5.82586">
        <ele>751</ele>
        <time>2018-09-01T16:59:55Z</time>
      </trkpt>
      <trkpt lat="45.74895" lon="5.82584">
        <ele>751</ele>
        <time>2018-09-01T16:59:55Z</time>
      </trkpt>
      <trkpt lat="45.74898" lon="5.82581">
        <ele>751</ele>
        <time>2018-09-01T17:00:11Z</time>
      </trkpt>
      <trkpt lat="45.74903" lon="5.82579">
        <ele>751</ele>
        <time>2018-09-01T17:00:11Z</time>
      </trkpt>
      <trkpt lat="45.74908" lon="5.82575">
        <ele>751</ele>
        <time>2018-09-01T17:00:11Z</time>
      </trkpt>
      <trkpt lat="45.74912" lon="5.82573">
        <ele>751</ele>
        <time>2018-09-01T17:00:11Z</time>
      </trkpt>
      <trkpt lat="45.74914" lon="5.82572">
        <ele>751</ele>
        <time>2018-09-01T17:00:27Z</time>
      </trkpt>
      <trkpt lat="45.74918" lon="5.82569">
        <ele>751</ele>
        <time>2018-09-01T17:00:27Z</time>
      </trkpt>
      <trkpt lat="45.74922" lon="5.82565">
        <ele>751</ele>
        <time>2018-09-01T17:00:27Z</time>
      </trkpt>
      <trkpt lat="45.74925" lon="5.82565">
        <ele>751</ele>
        <time>2018-09-01T17:00:27Z</time>
      </trkpt>
      <trkpt lat="45.74927" lon="5.82566">
        <ele>751</ele>
        <time>2018-09-01T17:00:43Z</time>
      </trkpt>
      <trkpt lat="45.74929" lon="5.82567">
        <ele>751</ele>
        <time>2018-09-01T17:00:43Z</time>
      </trkpt>
      <trkpt lat="45.74935" lon="5.82569">
        <ele>751</ele>
        <time>2018-09-01T17:00:43Z</time>
      </trkpt>
      <trkpt lat="45.7494" lon="5.82572">
        <ele>751</ele>
        <time>2018-09-01T17:00:43Z</time>
      </trkpt>
      <trkpt lat="45.74945" lon="5.82573">
        <ele>751</ele>
        <time>2018-09-01T17:00:59Z</time>
      </trkpt>
      <trkpt lat="45.74951" lon="5.82574">
        <ele>751</ele>
        <time>2018-09-01T17:00:59Z</time>
      </trkpt>
      <trkpt lat="45.74963" lon="5.82587">
        <ele>724</ele>
        <time>2018-09-01T17:00:59Z</time>
      </trkpt>
      <trkpt lat="45.74973" lon="5.82595">
        <ele>724</ele>
        <time>2018-09-01T17:00:59Z</time>
      </trkpt>
      <trkpt lat="45.7498" lon="5.82595">
        <ele>724</ele>
        <time>2018-09-01T17:01:15Z</time>
      </trkpt>
      <trkpt lat="45.74987" lon="5.82595">
        <ele>724</ele>
        <time>2018-09-01T17:01:15Z</time>
      </trkpt>
      <trkpt lat="45.74994" lon="5.82594">
        <ele>724</ele>
        <time>2018-09-01T17:01:15Z</time>
      </trkpt>
      <trkpt lat="45.75001" lon="5.82594">
        <ele>724</ele>
        <time>2018-09-01T17:01:15Z</time>
      </trkpt>
      <trkpt lat="45.75007" lon="5.82594">
        <ele>724</ele>
        <time>2018-09-01T17:01:31Z</time>
      </trkpt>
      <trkpt lat="45.75013" lon="5.82592">
        <ele>724</ele>
        <time>2018-09-01T17:01:31Z</time>
      </trkpt>
      <trkpt lat="45.75019" lon="5.82589">
        <ele>724</ele>
        <time>2018-09-01T17:01:31Z</time>
      </trkpt>
      <trkpt lat="45.75026" lon="5.82585">
        <ele>724</ele>
        <time>2018-09-01T17:01:31Z</time>
      </trkpt>
      <trkpt lat="45.75031" lon="5.8258">
        <ele>724</ele>
        <time>2018-09-01T17:01:47Z</time>
      </trkpt>
      <trkpt lat="45.75035" lon="5.82573">
        <ele>724</ele>
        <time>2018-09-01T17:01:47Z</time>
      </trkpt>
      <trkpt lat="45.7504" lon="5.82567">
        <ele>724</ele>
        <time>2018-09-01T17:01:47Z</time>
      </trkpt>
      <trkpt lat="45.75045" lon="5.82562">
        <ele>713</ele>
        <time>2018-09-01T17:01:47Z</time>
      </trkpt>
      <trkpt lat="45.7505" lon="5.82556">
        <ele>713</ele>
        <time>2018-09-01T17:02:03Z</time>
      </trkpt>
      <trkpt lat="45.75055" lon="5.8255">
        <ele>713</ele>
        <time>2018-09-01T17:02:03Z</time>
      </trkpt>
      <trkpt lat="45.75061" lon="5.82545">
        <ele>713</ele>
        <time>2018-09-01T17:02:03Z</time>
      </trkpt>
      <trkpt lat="45.75066" lon="5.82541">
        <ele>726</ele>
        <time>2018-09-01T17:02:03Z</time>
      </trkpt>
      <trkpt lat="45.75082" lon="5.82538">
        <ele>726</ele>
        <time>2018-09-01T17:02:35Z</time>
      </trkpt>
      <trkpt lat="45.75082" lon="5.82538">
        <ele>726</ele>
        <time>2018-09-01T17:02:35Z</time>
      </trkpt>
      <trkpt lat="45.75082" lon="5.8254">
        <ele>726</ele>
        <time>2018-09-01T17:02:35Z</time>
      </trkpt>
      <trkpt lat="45.75083" lon="5.82541">
        <ele>726</ele>
        <time>2018-09-01T17:02:35Z</time>
      </trkpt>
      <trkpt lat="45.75084" lon="5.82542">
        <ele>713</ele>
        <time>2018-09-01T17:02:35Z</time>
      </trkpt>
      <trkpt lat="45.75092" lon="5.82546">
        <ele>713</ele>
        <time>2018-09-01T17:05:03Z</time>
      </trkpt>
      <trkpt lat="45.75092" lon="5.82546">
        <ele>713</ele>
        <time>2018-09-01T17:05:03Z</time>
      </trkpt>
      <trkpt lat="45.75093" lon="5.82546">
        <ele>713</ele>
        <time>2018-09-01T17:05:03Z</time>
      </trkpt>
      <trkpt lat="45.75094" lon="5.82546">
        <ele>713</ele>
        <time>2018-09-01T17:05:03Z</time>
      </trkpt>
      <trkpt lat="45.75094" lon="5.82547">
        <ele>713</ele>
        <time>2018-09-01T17:05:03Z</time>
      </trkpt>
      <trkpt lat="45.75095" lon="5.82551">
        <ele>713</ele>
        <time>2018-09-01T17:06:55Z</time>
      </trkpt>
      <trkpt lat="45.751" lon="5.82546">
        <ele>713</ele>
        <time>2018-09-01T17:06:55Z</time>
      </trkpt>
      <trkpt lat="45.75104" lon="5.82541">
        <ele>726</ele>
        <time>2018-09-01T17:06:55Z</time>
      </trkpt>
      <trkpt lat="45.75109" lon="5.82538">
        <ele>726</ele>
        <time>2018-09-01T17:06:55Z</time>
      </trkpt>
      <trkpt lat="45.75113" lon="5.82534">
        <ele>726</ele>
        <time>2018-09-01T17:06:55Z</time>
      </trkpt>
      <trkpt lat="45.75117" lon="5.82529">
        <ele>726</ele>
        <time>2018-09-01T17:07:15Z</time>
      </trkpt>
      <trkpt lat="45.75117" lon="5.82529">
        <ele>726</ele>
        <time>2018-09-01T17:07:15Z</time>
      </trkpt>
      <trkpt lat="45.75118" lon="5.82524">
        <ele>726</ele>
        <time>2018-09-01T17:07:15Z</time>
      </trkpt>
      <trkpt lat="45.7512" lon="5.82517">
        <ele>726</ele>
        <time>2018-09-01T17:07:15Z</time>
      </trkpt>
      <trkpt lat="45.75125" lon="5.82515">
        <ele>726</ele>
        <time>2018-09-01T17:07:15Z</time>
      </trkpt>
      <trkpt lat="45.75131" lon="5.82516">
        <ele>716</ele>
        <time>2018-09-01T17:07:59Z</time>
      </trkpt>
      <trkpt lat="45.75137" lon="5.82512">
        <ele>716</ele>
        <time>2018-09-01T17:07:59Z</time>
      </trkpt>
      <trkpt lat="45.75157" lon="5.82494">
        <ele>716</ele>
        <time>2018-09-01T17:07:59Z</time>
      </trkpt>
      <trkpt lat="45.75182" lon="5.82485">
        <ele>716</ele>
        <time>2018-09-01T17:07:59Z</time>
      </trkpt>
      <trkpt lat="45.75207" lon="5.82479">
        <ele>716</ele>
        <time>2018-09-01T17:07:59Z</time>
      </trkpt>
      <trkpt lat="45.75225" lon="5.82475">
        <ele>713</ele>
        <time>2018-09-01T17:08:15Z</time>
      </trkpt>
      <trkpt lat="45.75232" lon="5.82472">
        <ele>713</ele>
        <time>2018-09-01T17:08:15Z</time>
      </trkpt>
      <trkpt lat="45.75237" lon="5.8247">
        <ele>713</ele>
        <time>2018-09-01T17:08:15Z</time>
      </trkpt>
      <trkpt lat="45.75238" lon="5.82472">
        <ele>713</ele>
        <time>2018-09-01T17:08:15Z</time>
      </trkpt>
      <trkpt lat="45.75238" lon="5.82472">
        <ele>713</ele>
        <time>2018-09-01T17:08:31Z</time>
      </trkpt>
      <trkpt lat="45.75239" lon="5.82469">
        <ele>713</ele>
        <time>2018-09-01T17:08:31Z</time>
      </trkpt>
      <trkpt lat="45.75245" lon="5.82467">
        <ele>713</ele>
        <time>2018-09-01T17:08:31Z</time>
      </trkpt>
      <trkpt lat="45.7525" lon="5.82465">
        <ele>713</ele>
        <time>2018-09-01T17:08:31Z</time>
      </trkpt>
      <trkpt lat="45.75256" lon="5.82462">
        <ele>713</ele>
        <time>2018-09-01T17:08:47Z</time>
      </trkpt>
      <trkpt lat="45.75262" lon="5.82459">
        <ele>713</ele>
        <time>2018-09-01T17:08:47Z</time>
      </trkpt>
      <trkpt lat="45.75266" lon="5.82455">
        <ele>728</ele>
        <time>2018-09-01T17:08:47Z</time>
      </trkpt>
      <trkpt lat="45.75269" lon="5.82449">
        <ele>728</ele>
        <time>2018-09-01T17:08:47Z</time>
      </trkpt>
      <trkpt lat="45.75272" lon="5.82442">
        <ele>728</ele>
        <time>2018-09-01T17:09:03Z</time>
      </trkpt>
      <trkpt lat="45.75276" lon="5.82437">
        <ele>728</ele>
        <time>2018-09-01T17:09:03Z</time>
      </trkpt>
      <trkpt lat="45.75279" lon="5.8243">
        <ele>728</ele>
        <time>2018-09-01T17:09:03Z</time>
      </trkpt>
      <trkpt lat="45.75283" lon="5.82425">
        <ele>728</ele>
        <time>2018-09-01T17:09:03Z</time>
      </trkpt>
      <trkpt lat="45.75287" lon="5.82422">
        <ele>728</ele>
        <time>2018-09-01T17:09:19Z</time>
      </trkpt>
      <trkpt lat="45.75292" lon="5.82418">
        <ele>722</ele>
        <time>2018-09-01T17:09:19Z</time>
      </trkpt>
      <trkpt lat="45.75297" lon="5.82415">
        <ele>722</ele>
        <time>2018-09-01T17:09:19Z</time>
      </trkpt>
      <trkpt lat="45.75301" lon="5.82411">
        <ele>722</ele>
        <time>2018-09-01T17:09:19Z</time>
      </trkpt>
      <trkpt lat="45.75306" lon="5.82409">
        <ele>722</ele>
        <time>2018-09-01T17:09:35Z</time>
      </trkpt>
      <trkpt lat="45.7531" lon="5.82403">
        <ele>722</ele>
        <time>2018-09-01T17:09:35Z</time>
      </trkpt>
      <trkpt lat="45.75314" lon="5.82399">
        <ele>722</ele>
        <time>2018-09-01T17:09:35Z</time>
      </trkpt>
      <trkpt lat="45.75319" lon="5.82395">
        <ele>722</ele>
        <time>2018-09-01T17:09:35Z</time>
      </trkpt>
      <trkpt lat="45.75323" lon="5.8239">
        <ele>722</ele>
        <time>2018-09-01T17:09:51Z</time>
      </trkpt>
      <trkpt lat="45.75327" lon="5.82386">
        <ele>722</ele>
        <time>2018-09-01T17:09:51Z</time>
      </trkpt>
      <trkpt lat="45.75332" lon="5.82382">
        <ele>722</ele>
        <time>2018-09-01T17:09:51Z</time>
      </trkpt>
      <trkpt lat="45.75337" lon="5.82378">
        <ele>722</ele>
        <time>2018-09-01T17:09:51Z</time>
      </trkpt>
      <trkpt lat="45.75341" lon="5.82374">
        <ele>732</ele>
        <time>2018-09-01T17:10:07Z</time>
      </trkpt>
      <trkpt lat="45.75345" lon="5.82371">
        <ele>732</ele>
        <time>2018-09-01T17:10:07Z</time>
      </trkpt>
      <trkpt lat="45.75349" lon="5.82367">
        <ele>732</ele>
        <time>2018-09-01T17:10:07Z</time>
      </trkpt>
      <trkpt lat="45.75352" lon="5.82364">
        <ele>732</ele>
        <time>2018-09-01T17:10:07Z</time>
      </trkpt>
      <trkpt lat="45.75357" lon="5.82362">
        <ele>732</ele>
        <time>2018-09-01T17:10:23Z</time>
      </trkpt>
      <trkpt lat="45.75361" lon="5.82359">
        <ele>732</ele>
        <time>2018-09-01T17:10:23Z</time>
      </trkpt>
      <trkpt lat="45.75365" lon="5.82355">
        <ele>732</ele>
        <time>2018-09-01T17:10:23Z</time>
      </trkpt>
      <trkpt lat="45.7537" lon="5.82352">
        <ele>732</ele>
        <time>2018-09-01T17:10:23Z</time>
      </trkpt>
      <trkpt lat="45.75374" lon="5.82348">
        <ele>732</ele>
        <time>2018-09-01T17:10:39Z</time>
      </trkpt>
      <trkpt lat="45.75378" lon="5.82345">
        <ele>722</ele>
        <time>2018-09-01T17:10:39Z</time>
      </trkpt>
      <trkpt lat="45.75383" lon="5.82342">
        <ele>722</ele>
        <time>2018-09-01T17:10:39Z</time>
      </trkpt>
      <trkpt lat="45.75387" lon="5.82338">
        <ele>722</ele>
        <time>2018-09-01T17:10:39Z</time>
      </trkpt>
      <trkpt lat="45.7539" lon="5.82332">
        <ele>722</ele>
        <time>2018-09-01T17:10:55Z</time>
      </trkpt>
      <trkpt lat="45.75394" lon="5.82326">
        <ele>722</ele>
        <time>2018-09-01T17:10:55Z</time>
      </trkpt>
      <trkpt lat="45.75398" lon="5.82321">
        <ele>722</ele>
        <time>2018-09-01T17:10:55Z</time>
      </trkpt>
      <trkpt lat="45.75402" lon="5.82316">
        <ele>722</ele>
        <time>2018-09-01T17:10:55Z</time>
      </trkpt>
      <trkpt lat="45.75407" lon="5.82312">
        <ele>722</ele>
        <time>2018-09-01T17:11:11Z</time>
      </trkpt>
      <trkpt lat="45.75411" lon="5.82307">
        <ele>722</ele>
        <time>2018-09-01T17:11:11Z</time>
      </trkpt>
      <trkpt lat="45.75414" lon="5.823">
        <ele>722</ele>
        <time>2018-09-01T17:11:11Z</time>
      </trkpt>
      <trkpt lat="45.75416" lon="5.82292">
        <ele>722</ele>
        <time>2018-09-01T17:11:11Z</time>
      </trkpt>
      <trkpt lat="45.75418" lon="5.82285">
        <ele>728</ele>
        <time>2018-09-01T17:11:27Z</time>
      </trkpt>
      <trkpt lat="45.75416" lon="5.82277">
        <ele>728</ele>
        <time>2018-09-01T17:11:27Z</time>
      </trkpt>
      <trkpt lat="45.75418" lon="5.82271">
        <ele>728</ele>
        <time>2018-09-01T17:11:27Z</time>
      </trkpt>
      <trkpt lat="45.75421" lon="5.82265">
        <ele>728</ele>
        <time>2018-09-01T17:11:27Z</time>
      </trkpt>
      <trkpt lat="45.75424" lon="5.82261">
        <ele>728</ele>
        <time>2018-09-01T17:11:43Z</time>
      </trkpt>
      <trkpt lat="45.75424" lon="5.82254">
        <ele>728</ele>
        <time>2018-09-01T17:11:43Z</time>
      </trkpt>
      <trkpt lat="45.75426" lon="5.82247">
        <ele>728</ele>
        <time>2018-09-01T17:11:43Z</time>
      </trkpt>
      <trkpt lat="45.75428" lon="5.82241">
        <ele>728</ele>
        <time>2018-09-01T17:11:43Z</time>
      </trkpt>
      <trkpt lat="45.75432" lon="5.82233">
        <ele>728</ele>
        <time>2018-09-01T17:11:59Z</time>
      </trkpt>
      <trkpt lat="45.75435" lon="5.82226">
        <ele>728</ele>
        <time>2018-09-01T17:11:59Z</time>
      </trkpt>
      <trkpt lat="45.7544" lon="5.8222">
        <ele>728</ele>
        <time>2018-09-01T17:11:59Z</time>
      </trkpt>
      <trkpt lat="45.75444" lon="5.82214">
        <ele>728</ele>
        <time>2018-09-01T17:11:59Z</time>
      </trkpt>
      <trkpt lat="45.75447" lon="5.82209">
        <ele>728</ele>
        <time>2018-09-01T17:12:15Z</time>
      </trkpt>
      <trkpt lat="45.7545" lon="5.82203">
        <ele>729</ele>
        <time>2018-09-01T17:12:15Z</time>
      </trkpt>
      <trkpt lat="45.75454" lon="5.82196">
        <ele>729</ele>
        <time>2018-09-01T17:12:15Z</time>
      </trkpt>
      <trkpt lat="45.75456" lon="5.8219">
        <ele>729</ele>
        <time>2018-09-01T17:12:15Z</time>
      </trkpt>
      <trkpt lat="45.75459" lon="5.82182">
        <ele>717</ele>
        <time>2018-09-01T17:12:31Z</time>
      </trkpt>
      <trkpt lat="45.75462" lon="5.82176">
        <ele>717</ele>
        <time>2018-09-01T17:12:31Z</time>
      </trkpt>
      <trkpt lat="45.75464" lon="5.82168">
        <ele>717</ele>
        <time>2018-09-01T17:12:31Z</time>
      </trkpt>
      <trkpt lat="45.75464" lon="5.8216">
        <ele>717</ele>
        <time>2018-09-01T17:12:31Z</time>
      </trkpt>
      <trkpt lat="45.75463" lon="5.82152">
        <ele>717</ele>
        <time>2018-09-01T17:12:47Z</time>
      </trkpt>
      <trkpt lat="45.75463" lon="5.82145">
        <ele>717</ele>
        <time>2018-09-01T17:12:47Z</time>
      </trkpt>
      <trkpt lat="45.75461" lon="5.82138">
        <ele>717</ele>
        <time>2018-09-01T17:12:47Z</time>
      </trkpt>
      <trkpt lat="45.75459" lon="5.82132">
        <ele>717</ele>
        <time>2018-09-01T17:12:47Z</time>
      </trkpt>
      <trkpt lat="45.75456" lon="5.82128">
        <ele>729</ele>
        <time>2018-09-01T17:13:03Z</time>
      </trkpt>
      <trkpt lat="45.75452" lon="5.82126">
        <ele>729</ele>
        <time>2018-09-01T17:13:03Z</time>
      </trkpt>
      <trkpt lat="45.75448" lon="5.82123">
        <ele>722</ele>
        <time>2018-09-01T17:13:03Z</time>
      </trkpt>
      <trkpt lat="45.75446" lon="5.82119">
        <ele>722</ele>
        <time>2018-09-01T17:13:03Z</time>
      </trkpt>
      <trkpt lat="45.75443" lon="5.82115">
        <ele>722</ele>
        <time>2018-09-01T17:13:19Z</time>
      </trkpt>
      <trkpt lat="45.7544" lon="5.82112">
        <ele>722</ele>
        <time>2018-09-01T17:13:19Z</time>
      </trkpt>
      <trkpt lat="45.75437" lon="5.82108">
        <ele>722</ele>
        <time>2018-09-01T17:13:19Z</time>
      </trkpt>
      <trkpt lat="45.75434" lon="5.82103">
        <ele>722</ele>
        <time>2018-09-01T17:13:19Z</time>
      </trkpt>
      <trkpt lat="45.75431" lon="5.82097">
        <ele>722</ele>
        <time>2018-09-01T17:13:35Z</time>
      </trkpt>
      <trkpt lat="45.75429" lon="5.82091">
        <ele>722</ele>
        <time>2018-09-01T17:13:35Z</time>
      </trkpt>
      <trkpt lat="45.75427" lon="5.82084">
        <ele>722</ele>
        <time>2018-09-01T17:13:35Z</time>
      </trkpt>
      <trkpt lat="45.75425" lon="5.82077">
        <ele>722</ele>
        <time>2018-09-01T17:13:35Z</time>
      </trkpt>
      <trkpt lat="45.75424" lon="5.82073">
        <ele>722</ele>
        <time>2018-09-01T17:13:51Z</time>
      </trkpt>
      <trkpt lat="45.75421" lon="5.82068">
        <ele>722</ele>
        <time>2018-09-01T17:13:51Z</time>
      </trkpt>
      <trkpt lat="45.75417" lon="5.82063">
        <ele>722</ele>
        <time>2018-09-01T17:13:51Z</time>
      </trkpt>
      <trkpt lat="45.75413" lon="5.82058">
        <ele>722</ele>
        <time>2018-09-01T17:13:51Z</time>
      </trkpt>
      <trkpt lat="45.75409" lon="5.82055">
        <ele>722</ele>
        <time>2018-09-01T17:14:07Z</time>
      </trkpt>
      <trkpt lat="45.75405" lon="5.82051">
        <ele>722</ele>
        <time>2018-09-01T17:14:07Z</time>
      </trkpt>
      <trkpt lat="45.75401" lon="5.82046">
        <ele>722</ele>
        <time>2018-09-01T17:14:07Z</time>
      </trkpt>
      <trkpt lat="45.75399" lon="5.82039">
        <ele>719</ele>
        <time>2018-09-01T17:14:07Z</time>
      </trkpt>
      <trkpt lat="45.75397" lon="5.82032">
        <ele>719</ele>
        <time>2018-09-01T17:14:23Z</time>
      </trkpt>
      <trkpt lat="45.75397" lon="5.82026">
        <ele>719</ele>
        <time>2018-09-01T17:14:23Z</time>
      </trkpt>
      <trkpt lat="45.75398" lon="5.82018">
        <ele>719</ele>
        <time>2018-09-01T17:14:23Z</time>
      </trkpt>
      <trkpt lat="45.75399" lon="5.8201">
        <ele>719</ele>
        <time>2018-09-01T17:14:23Z</time>
      </trkpt>
      <trkpt lat="45.75401" lon="5.82003">
        <ele>719</ele>
        <time>2018-09-01T17:14:39Z</time>
      </trkpt>
      <trkpt lat="45.75403" lon="5.81996">
        <ele>719</ele>
        <time>2018-09-01T17:14:39Z</time>
      </trkpt>
      <trkpt lat="45.75405" lon="5.81989">
        <ele>719</ele>
        <time>2018-09-01T17:14:39Z</time>
      </trkpt>
      <trkpt lat="45.75409" lon="5.81983">
        <ele>719</ele>
        <time>2018-09-01T17:14:39Z</time>
      </trkpt>
      <trkpt lat="45.75414" lon="5.8198">
        <ele>719</ele>
        <time>2018-09-01T17:14:55Z</time>
      </trkpt>
      <trkpt lat="45.75419" lon="5.81976">
        <ele>719</ele>
        <time>2018-09-01T17:14:55Z</time>
      </trkpt>
      <trkpt lat="45.75424" lon="5.81972">
        <ele>719</ele>
        <time>2018-09-01T17:14:55Z</time>
      </trkpt>
      <trkpt lat="45.75428" lon="5.81968">
        <ele>719</ele>
        <time>2018-09-01T17:14:55Z</time>
      </trkpt>
      <trkpt lat="45.75432" lon="5.81964">
        <ele>719</ele>
        <time>2018-09-01T17:15:11Z</time>
      </trkpt>
      <trkpt lat="45.75435" lon="5.81958">
        <ele>726</ele>
        <time>2018-09-01T17:15:11Z</time>
      </trkpt>
      <trkpt lat="45.75438" lon="5.81951">
        <ele>726</ele>
        <time>2018-09-01T17:15:11Z</time>
      </trkpt>
      <trkpt lat="45.75441" lon="5.81946">
        <ele>726</ele>
        <time>2018-09-01T17:15:11Z</time>
      </trkpt>
      <trkpt lat="45.75446" lon="5.8194">
        <ele>726</ele>
        <time>2018-09-01T17:15:27Z</time>
      </trkpt>
      <trkpt lat="45.75451" lon="5.81935">
        <ele>726</ele>
        <time>2018-09-01T17:15:27Z</time>
      </trkpt>
      <trkpt lat="45.75455" lon="5.81931">
        <ele>726</ele>
        <time>2018-09-01T17:15:27Z</time>
      </trkpt>
      <trkpt lat="45.75459" lon="5.81927">
        <ele>704</ele>
        <time>2018-09-01T17:15:27Z</time>
      </trkpt>
      <trkpt lat="45.75464" lon="5.81924">
        <ele>704</ele>
        <time>2018-09-01T17:15:43Z</time>
      </trkpt>
      <trkpt lat="45.75469" lon="5.8192">
        <ele>704</ele>
        <time>2018-09-01T17:15:43Z</time>
      </trkpt>
      <trkpt lat="45.75474" lon="5.81921">
        <ele>704</ele>
        <time>2018-09-01T17:15:43Z</time>
      </trkpt>
      <trkpt lat="45.75477" lon="5.81926">
        <ele>704</ele>
        <time>2018-09-01T17:15:43Z</time>
      </trkpt>
      <trkpt lat="45.75477" lon="5.81933">
        <ele>704</ele>
        <time>2018-09-01T17:15:59Z</time>
      </trkpt>
      <trkpt lat="45.75478" lon="5.8194">
        <ele>704</ele>
        <time>2018-09-01T17:15:59Z</time>
      </trkpt>
      <trkpt lat="45.75479" lon="5.81947">
        <ele>704</ele>
        <time>2018-09-01T17:15:59Z</time>
      </trkpt>
      <trkpt lat="45.75481" lon="5.81954">
        <ele>704</ele>
        <time>2018-09-01T17:15:59Z</time>
      </trkpt>
      <trkpt lat="45.75483" lon="5.8196">
        <ele>706</ele>
        <time>2018-09-01T17:16:15Z</time>
      </trkpt>
      <trkpt lat="45.75485" lon="5.81965">
        <ele>706</ele>
        <time>2018-09-01T17:16:15Z</time>
      </trkpt>
      <trkpt lat="45.75496" lon="5.81977">
        <ele>706</ele>
        <time>2018-09-01T17:16:15Z</time>
      </trkpt>
      <trkpt lat="45.75505" lon="5.8199">
        <ele>706</ele>
        <time>2018-09-01T17:16:15Z</time>
      </trkpt>
      <trkpt lat="45.7551" lon="5.81997">
        <ele>706</ele>
        <time>2018-09-01T17:16:31Z</time>
      </trkpt>
      <trkpt lat="45.75517" lon="5.82001">
        <ele>706</ele>
        <time>2018-09-01T17:16:31Z</time>
      </trkpt>
      <trkpt lat="45.75522" lon="5.82006">
        <ele>706</ele>
        <time>2018-09-01T17:16:31Z</time>
      </trkpt>
      <trkpt lat="45.75522" lon="5.82006">
        <ele>706</ele>
        <time>2018-09-01T17:16:31Z</time>
      </trkpt>
      <trkpt lat="45.75523" lon="5.82006">
        <ele>706</ele>
        <time>2018-09-01T17:16:59Z</time>
      </trkpt>
      <trkpt lat="45.75524" lon="5.82007">
        <ele>706</ele>
        <time>2018-09-01T17:16:59Z</time>
      </trkpt>
      <trkpt lat="45.75526" lon="5.82007">
        <ele>706</ele>
        <time>2018-09-01T17:16:59Z</time>
      </trkpt>
      <trkpt lat="45.75528" lon="5.82008">
        <ele>706</ele>
        <time>2018-09-01T17:16:59Z</time>
      </trkpt>
      <trkpt lat="45.75533" lon="5.82009">
        <ele>706</ele>
        <time>2018-09-01T17:16:59Z</time>
      </trkpt>
      <trkpt lat="45.7554" lon="5.82012">
        <ele>706</ele>
        <time>2018-09-01T17:17:47Z</time>
      </trkpt>
      <trkpt lat="45.7554" lon="5.82012">
        <ele>706</ele>
        <time>2018-09-01T17:17:47Z</time>
      </trkpt>
      <trkpt lat="45.75541" lon="5.82012">
        <ele>706</ele>
        <time>2018-09-01T17:17:47Z</time>
      </trkpt>
      <trkpt lat="45.75544" lon="5.82013">
        <ele>684</ele>
        <time>2018-09-01T17:17:47Z</time>
      </trkpt>
      <trkpt lat="45.75547" lon="5.82013">
        <ele>684</ele>
        <time>2018-09-01T17:17:47Z</time>
      </trkpt>
      <trkpt lat="45.75551" lon="5.82013">
        <ele>684</ele>
        <time>2018-09-01T17:18:03Z</time>
      </trkpt>
      <trkpt lat="45.75554" lon="5.82013">
        <ele>684</ele>
        <time>2018-09-01T17:18:03Z</time>
      </trkpt>
      <trkpt lat="45.75558" lon="5.82013">
        <ele>684</ele>
        <time>2018-09-01T17:18:03Z</time>
      </trkpt>
      <trkpt lat="45.75561" lon="5.82012">
        <ele>684</ele>
        <time>2018-09-01T17:18:03Z</time>
      </trkpt>
      <trkpt lat="45.75567" lon="5.8201">
        <ele>684</ele>
        <time>2018-09-01T17:18:47Z</time>
      </trkpt>
      <trkpt lat="45.75567" lon="5.8201">
        <ele>684</ele>
        <time>2018-09-01T17:18:47Z</time>
      </trkpt>
      <trkpt lat="45.75568" lon="5.8201">
        <ele>684</ele>
        <time>2018-09-01T17:18:47Z</time>
      </trkpt>
      <trkpt lat="45.75572" lon="5.82009">
        <ele>684</ele>
        <time>2018-09-01T17:18:47Z</time>
      </trkpt>
      <trkpt lat="45.75576" lon="5.82009">
        <ele>684</ele>
        <time>2018-09-01T17:18:47Z</time>
      </trkpt>
      <trkpt lat="45.75581" lon="5.82008">
        <ele>684</ele>
        <time>2018-09-01T17:19:03Z</time>
      </trkpt>
      <trkpt lat="45.75585" lon="5.82007">
        <ele>684</ele>
        <time>2018-09-01T17:19:03Z</time>
      </trkpt>
      <trkpt lat="45.75588" lon="5.82007">
        <ele>684</ele>
        <time>2018-09-01T17:19:03Z</time>
      </trkpt>
      <trkpt lat="45.7559" lon="5.82008">
        <ele>684</ele>
        <time>2018-09-01T17:19:03Z</time>
      </trkpt>
      <trkpt lat="45.75591" lon="5.82008">
        <ele>684</ele>
        <time>2018-09-01T17:19:23Z</time>
      </trkpt>
      <trkpt lat="45.75592" lon="5.82007">
        <ele>684</ele>
        <time>2018-09-01T17:19:23Z</time>
      </trkpt>
      <trkpt lat="45.75594" lon="5.82006">
        <ele>684</ele>
        <time>2018-09-01T17:19:23Z</time>
      </trkpt>
      <trkpt lat="45.75597" lon="5.82005">
        <ele>684</ele>
        <time>2018-09-01T17:19:23Z</time>
      </trkpt>
      <trkpt lat="45.75602" lon="5.82008">
        <ele>684</ele>
        <time>2018-09-01T17:19:23Z</time>
      </trkpt>
      <trkpt lat="45.75606" lon="5.82013">
        <ele>684</ele>
        <time>2018-09-01T17:19:47Z</time>
      </trkpt>
      <trkpt lat="45.75608" lon="5.82013">
        <ele>684</ele>
        <time>2018-09-01T17:19:47Z</time>
      </trkpt>
      <trkpt lat="45.75609" lon="5.82014">
        <ele>684</ele>
        <time>2018-09-01T17:19:47Z</time>
      </trkpt>
      <trkpt lat="45.75611" lon="5.82015">
        <ele>684</ele>
        <time>2018-09-01T17:19:47Z</time>
      </trkpt>
      <trkpt lat="45.75613" lon="5.82015">
        <ele>684</ele>
        <time>2018-09-01T17:19:47Z</time>
      </trkpt>
      <trkpt lat="45.75621" lon="5.82015">
        <ele>684</ele>
        <time>2018-09-01T17:20:35Z</time>
      </trkpt>
      <trkpt lat="45.75621" lon="5.82016">
        <ele>684</ele>
        <time>2018-09-01T17:20:35Z</time>
      </trkpt>
      <trkpt lat="45.75622" lon="5.82016">
        <ele>684</ele>
        <time>2018-09-01T17:20:35Z</time>
      </trkpt>
      <trkpt lat="45.75623" lon="5.82016">
        <ele>684</ele>
        <time>2018-09-01T17:20:35Z</time>
      </trkpt>
      <trkpt lat="45.75626" lon="5.82015">
        <ele>664</ele>
        <time>2018-09-01T17:20:35Z</time>
      </trkpt>
      <trkpt lat="45.7563" lon="5.82014">
        <ele>664</ele>
        <time>2018-09-01T17:20:51Z</time>
      </trkpt>
      <trkpt lat="45.75633" lon="5.82014">
        <ele>664</ele>
        <time>2018-09-01T17:20:51Z</time>
      </trkpt>
      <trkpt lat="45.75637" lon="5.82015">
        <ele>664</ele>
        <time>2018-09-01T17:20:51Z</time>
      </trkpt>
      <trkpt lat="45.75641" lon="5.82016">
        <ele>664</ele>
        <time>2018-09-01T17:20:51Z</time>
      </trkpt>
      <trkpt lat="45.75646" lon="5.82016">
        <ele>664</ele>
        <time>2018-09-01T17:21:07Z</time>
      </trkpt>
      <trkpt lat="45.75649" lon="5.82015">
        <ele>664</ele>
        <time>2018-09-01T17:21:07Z</time>
      </trkpt>
      <trkpt lat="45.75654" lon="5.82016">
        <ele>664</ele>
        <time>2018-09-01T17:21:07Z</time>
      </trkpt>
      <trkpt lat="45.75657" lon="5.82016">
        <ele>664</ele>
        <time>2018-09-01T17:21:07Z</time>
      </trkpt>
      <trkpt lat="45.75658" lon="5.82014">
        <ele>664</ele>
        <time>2018-09-01T17:21:23Z</time>
      </trkpt>
      <trkpt lat="45.75662" lon="5.82014">
        <ele>664</ele>
        <time>2018-09-01T17:21:23Z</time>
      </trkpt>
      <trkpt lat="45.75666" lon="5.82013">
        <ele>664</ele>
        <time>2018-09-01T17:21:23Z</time>
      </trkpt>
      <trkpt lat="45.75671" lon="5.82012">
        <ele>664</ele>
        <time>2018-09-01T17:21:23Z</time>
      </trkpt>
      <trkpt lat="45.75675" lon="5.8201">
        <ele>664</ele>
        <time>2018-09-01T17:21:39Z</time>
      </trkpt>
      <trkpt lat="45.7568" lon="5.82007">
        <ele>664</ele>
        <time>2018-09-01T17:21:39Z</time>
      </trkpt>
      <trkpt lat="45.75684" lon="5.82001">
        <ele>664</ele>
        <time>2018-09-01T17:21:39Z</time>
      </trkpt>
      <trkpt lat="45.75688" lon="5.81994">
        <ele>664</ele>
        <time>2018-09-01T17:21:39Z</time>
      </trkpt>
      <trkpt lat="45.75691" lon="5.81987">
        <ele>664</ele>
        <time>2018-09-01T17:21:55Z</time>
      </trkpt>
      <trkpt lat="45.75693" lon="5.81979">
        <ele>664</ele>
        <time>2018-09-01T17:21:55Z</time>
      </trkpt>
      <trkpt lat="45.75693" lon="5.81972">
        <ele>664</ele>
        <time>2018-09-01T17:21:55Z</time>
      </trkpt>
      <trkpt lat="45.75691" lon="5.81969">
        <ele>664</ele>
        <time>2018-09-01T17:21:55Z</time>
      </trkpt>
      <trkpt lat="45.75693" lon="5.81961">
        <ele>664</ele>
        <time>2018-09-01T17:23:35Z</time>
      </trkpt>
      <trkpt lat="45.75691" lon="5.81959">
        <ele>664</ele>
        <time>2018-09-01T17:23:35Z</time>
      </trkpt>
      <trkpt lat="45.7569" lon="5.81952">
        <ele>655</ele>
        <time>2018-09-01T17:23:35Z</time>
      </trkpt>
      <trkpt lat="45.7569" lon="5.81946">
        <ele>655</ele>
        <time>2018-09-01T17:23:35Z</time>
      </trkpt>
      <trkpt lat="45.75691" lon="5.8194">
        <ele>655</ele>
        <time>2018-09-01T17:23:35Z</time>
      </trkpt>
      <trkpt lat="45.75694" lon="5.81934">
        <ele>655</ele>
        <time>2018-09-01T17:23:51Z</time>
      </trkpt>
      <trkpt lat="45.75698" lon="5.81928">
        <ele>655</ele>
        <time>2018-09-01T17:23:51Z</time>
      </trkpt>
      <trkpt lat="45.75702" lon="5.81922">
        <ele>655</ele>
        <time>2018-09-01T17:23:51Z</time>
      </trkpt>
      <trkpt lat="45.75706" lon="5.81916">
        <ele>655</ele>
        <time>2018-09-01T17:23:51Z</time>
      </trkpt>
      <trkpt lat="45.7571" lon="5.8191">
        <ele>650</ele>
        <time>2018-09-01T17:24:07Z</time>
      </trkpt>
      <trkpt lat="45.75715" lon="5.81906">
        <ele>650</ele>
        <time>2018-09-01T17:24:07Z</time>
      </trkpt>
      <trkpt lat="45.7572" lon="5.81902">
        <ele>650</ele>
        <time>2018-09-01T17:24:07Z</time>
      </trkpt>
      <trkpt lat="45.75727" lon="5.81897">
        <ele>650</ele>
        <time>2018-09-01T17:24:07Z</time>
      </trkpt>
      <trkpt lat="45.75737" lon="5.81888">
        <ele>650</ele>
        <time>2018-09-01T17:24:23Z</time>
      </trkpt>
      <trkpt lat="45.75744" lon="5.81882">
        <ele>650</ele>
        <time>2018-09-01T17:24:23Z</time>
      </trkpt>
      <trkpt lat="45.75749" lon="5.81876">
        <ele>650</ele>
        <time>2018-09-01T17:24:23Z</time>
      </trkpt>
      <trkpt lat="45.75753" lon="5.81871">
        <ele>646</ele>
        <time>2018-09-01T17:24:23Z</time>
      </trkpt>
      <trkpt lat="45.75758" lon="5.81867">
        <ele>646</ele>
        <time>2018-09-01T17:24:39Z</time>
      </trkpt>
      <trkpt lat="45.75764" lon="5.81865">
        <ele>646</ele>
        <time>2018-09-01T17:24:39Z</time>
      </trkpt>
      <trkpt lat="45.75768" lon="5.81867">
        <ele>646</ele>
        <time>2018-09-01T17:24:39Z</time>
      </trkpt>
      <trkpt lat="45.75771" lon="5.81869">
        <ele>646</ele>
        <time>2018-09-01T17:24:39Z</time>
      </trkpt>
      <trkpt lat="45.75774" lon="5.81867">
        <ele>646</ele>
        <time>2018-09-01T17:24:55Z</time>
      </trkpt>
      <trkpt lat="45.75773" lon="5.81862">
        <ele>646</ele>
        <time>2018-09-01T17:24:55Z</time>
      </trkpt>
      <trkpt lat="45.75771" lon="5.81858">
        <ele>646</ele>
        <time>2018-09-01T17:24:55Z</time>
      </trkpt>
      <trkpt lat="45.7577" lon="5.81854">
        <ele>646</ele>
        <time>2018-09-01T17:24:55Z</time>
      </trkpt>
      <trkpt lat="45.7577" lon="5.8185">
        <ele>646</ele>
        <time>2018-09-01T17:25:15Z</time>
      </trkpt>
      <trkpt lat="45.7577" lon="5.81848">
        <ele>646</ele>
        <time>2018-09-01T17:25:15Z</time>
      </trkpt>
      <trkpt lat="45.75769" lon="5.81844">
        <ele>646</ele>
        <time>2018-09-01T17:25:15Z</time>
      </trkpt>
      <trkpt lat="45.75767" lon="5.81839">
        <ele>646</ele>
        <time>2018-09-01T17:25:15Z</time>
      </trkpt>
      <trkpt lat="45.75768" lon="5.81834">
        <ele>646</ele>
        <time>2018-09-01T17:25:15Z</time>
      </trkpt>
      <trkpt lat="45.75767" lon="5.81833">
        <ele>646</ele>
        <time>2018-09-01T17:25:31Z</time>
      </trkpt>
      <trkpt lat="45.75768" lon="5.81831">
        <ele>646</ele>
        <time>2018-09-01T17:25:31Z</time>
      </trkpt>
      <trkpt lat="45.75769" lon="5.81826">
        <ele>646</ele>
        <time>2018-09-01T17:25:31Z</time>
      </trkpt>
      <trkpt lat="45.75772" lon="5.8182">
        <ele>646</ele>
        <time>2018-09-01T17:25:31Z</time>
      </trkpt>
      <trkpt lat="45.75776" lon="5.81817">
        <ele>646</ele>
        <time>2018-09-01T17:25:47Z</time>
      </trkpt>
      <trkpt lat="45.75779" lon="5.81814">
        <ele>646</ele>
        <time>2018-09-01T17:25:47Z</time>
      </trkpt>
      <trkpt lat="45.75782" lon="5.8181">
        <ele>646</ele>
        <time>2018-09-01T17:25:47Z</time>
      </trkpt>
      <trkpt lat="45.75786" lon="5.81808">
        <ele>646</ele>
        <time>2018-09-01T17:25:47Z</time>
      </trkpt>
      <trkpt lat="45.7579" lon="5.81806">
        <ele>646</ele>
        <time>2018-09-01T17:26:03Z</time>
      </trkpt>
      <trkpt lat="45.75793" lon="5.81803">
        <ele>629</ele>
        <time>2018-09-01T17:26:03Z</time>
      </trkpt>
      <trkpt lat="45.75798" lon="5.81801">
        <ele>629</ele>
        <time>2018-09-01T17:26:03Z</time>
      </trkpt>
      <trkpt lat="45.75802" lon="5.81798">
        <ele>629</ele>
        <time>2018-09-01T17:26:03Z</time>
      </trkpt>
      <trkpt lat="45.75804" lon="5.81796">
        <ele>629</ele>
        <time>2018-09-01T17:26:19Z</time>
      </trkpt>
      <trkpt lat="45.75805" lon="5.81795">
        <ele>629</ele>
        <time>2018-09-01T17:26:19Z</time>
      </trkpt>
      <trkpt lat="45.75811" lon="5.81795">
        <ele>629</ele>
        <time>2018-09-01T17:26:19Z</time>
      </trkpt>
      <trkpt lat="45.75816" lon="5.81795">
        <ele>629</ele>
        <time>2018-09-01T17:26:19Z</time>
      </trkpt>
      <trkpt lat="45.75822" lon="5.81796">
        <ele>629</ele>
        <time>2018-09-01T17:26:35Z</time>
      </trkpt>
      <trkpt lat="45.75826" lon="5.81796">
        <ele>629</ele>
        <time>2018-09-01T17:26:35Z</time>
      </trkpt>
      <trkpt lat="45.75829" lon="5.81796">
        <ele>629</ele>
        <time>2018-09-01T17:26:35Z</time>
      </trkpt>
      <trkpt lat="45.75834" lon="5.81797">
        <ele>629</ele>
        <time>2018-09-01T17:26:35Z</time>
      </trkpt>
      <trkpt lat="45.75841" lon="5.818">
        <ele>629</ele>
        <time>2018-09-01T17:26:51Z</time>
      </trkpt>
      <trkpt lat="45.75847" lon="5.81801">
        <ele>629</ele>
        <time>2018-09-01T17:26:51Z</time>
      </trkpt>
      <trkpt lat="45.75853" lon="5.818">
        <ele>629</ele>
        <time>2018-09-01T17:26:51Z</time>
      </trkpt>
      <trkpt lat="45.75859" lon="5.81797">
        <ele>629</ele>
        <time>2018-09-01T17:26:51Z</time>
      </trkpt>
      <trkpt lat="45.75865" lon="5.81796">
        <ele>629</ele>
        <time>2018-09-01T17:27:07Z</time>
      </trkpt>
      <trkpt lat="45.7587" lon="5.81795">
        <ele>629</ele>
        <time>2018-09-01T17:27:07Z</time>
      </trkpt>
      <trkpt lat="45.75878" lon="5.81795">
        <ele>609</ele>
        <time>2018-09-01T17:27:07Z</time>
      </trkpt>
      <trkpt lat="45.75884" lon="5.81795">
        <ele>609</ele>
        <time>2018-09-01T17:27:07Z</time>
      </trkpt>
      <trkpt lat="45.7589" lon="5.81796">
        <ele>609</ele>
        <time>2018-09-01T17:27:23Z</time>
      </trkpt>
      <trkpt lat="45.75895" lon="5.81797">
        <ele>609</ele>
        <time>2018-09-01T17:27:23Z</time>
      </trkpt>
      <trkpt lat="45.75899" lon="5.81794">
        <ele>609</ele>
        <time>2018-09-01T17:27:23Z</time>
      </trkpt>
      <trkpt lat="45.75903" lon="5.81794">
        <ele>609</ele>
        <time>2018-09-01T17:27:23Z</time>
      </trkpt>
      <trkpt lat="45.75908" lon="5.81793">
        <ele>609</ele>
        <time>2018-09-01T17:27:39Z</time>
      </trkpt>
      <trkpt lat="45.75913" lon="5.81791">
        <ele>622</ele>
        <time>2018-09-01T17:27:39Z</time>
      </trkpt>
      <trkpt lat="45.75918" lon="5.81791">
        <ele>622</ele>
        <time>2018-09-01T17:27:39Z</time>
      </trkpt>
      <trkpt lat="45.75923" lon="5.8179">
        <ele>622</ele>
        <time>2018-09-01T17:27:39Z</time>
      </trkpt>
      <trkpt lat="45.75927" lon="5.81789">
        <ele>622</ele>
        <time>2018-09-01T17:27:55Z</time>
      </trkpt>
      <trkpt lat="45.75932" lon="5.8179">
        <ele>622</ele>
        <time>2018-09-01T17:27:55Z</time>
      </trkpt>
      <trkpt lat="45.75935" lon="5.81791">
        <ele>622</ele>
        <time>2018-09-01T17:27:55Z</time>
      </trkpt>
      <trkpt lat="45.75941" lon="5.81792">
        <ele>609</ele>
        <time>2018-09-01T17:27:55Z</time>
      </trkpt>
      <trkpt lat="45.75945" lon="5.81793">
        <ele>609</ele>
        <time>2018-09-01T17:28:11Z</time>
      </trkpt>
      <trkpt lat="45.75949" lon="5.81793">
        <ele>609</ele>
        <time>2018-09-01T17:28:11Z</time>
      </trkpt>
      <trkpt lat="45.75954" lon="5.81791">
        <ele>622</ele>
        <time>2018-09-01T17:28:11Z</time>
      </trkpt>
      <trkpt lat="45.75958" lon="5.81794">
        <ele>609</ele>
        <time>2018-09-01T17:28:11Z</time>
      </trkpt>
      <trkpt lat="45.7596" lon="5.81797">
        <ele>595</ele>
        <time>2018-09-01T17:28:27Z</time>
      </trkpt>
      <trkpt lat="45.75964" lon="5.81799">
        <ele>595</ele>
        <time>2018-09-01T17:28:27Z</time>
      </trkpt>
      <trkpt lat="45.75967" lon="5.81798">
        <ele>595</ele>
        <time>2018-09-01T17:28:27Z</time>
      </trkpt>
      <trkpt lat="45.75972" lon="5.81799">
        <ele>595</ele>
        <time>2018-09-01T17:28:27Z</time>
      </trkpt>
      <trkpt lat="45.75978" lon="5.81801">
        <ele>595</ele>
        <time>2018-09-01T17:28:43Z</time>
      </trkpt>
      <trkpt lat="45.75983" lon="5.81801">
        <ele>595</ele>
        <time>2018-09-01T17:28:43Z</time>
      </trkpt>
      <trkpt lat="45.75987" lon="5.818">
        <ele>595</ele>
        <time>2018-09-01T17:28:43Z</time>
      </trkpt>
      <trkpt lat="45.75991" lon="5.81797">
        <ele>595</ele>
        <time>2018-09-01T17:28:43Z</time>
      </trkpt>
      <trkpt lat="45.75995" lon="5.81797">
        <ele>595</ele>
        <time>2018-09-01T17:28:59Z</time>
      </trkpt>
      <trkpt lat="45.75997" lon="5.81802">
        <ele>595</ele>
        <time>2018-09-01T17:28:59Z</time>
      </trkpt>
      <trkpt lat="45.75998" lon="5.81807">
        <ele>595</ele>
        <time>2018-09-01T17:28:59Z</time>
      </trkpt>
      <trkpt lat="45.75999" lon="5.81812">
        <ele>595</ele>
        <time>2018-09-01T17:28:59Z</time>
      </trkpt>
      <trkpt lat="45.76007" lon="5.81816">
        <ele>595</ele>
        <time>2018-09-01T17:29:23Z</time>
      </trkpt>
      <trkpt lat="45.7601" lon="5.81815">
        <ele>595</ele>
        <time>2018-09-01T17:29:23Z</time>
      </trkpt>
      <trkpt lat="45.7601" lon="5.81815">
        <ele>595</ele>
        <time>2018-09-01T17:29:23Z</time>
      </trkpt>
      <trkpt lat="45.76011" lon="5.81816">
        <ele>595</ele>
        <time>2018-09-01T17:29:23Z</time>
      </trkpt>
      <trkpt lat="45.76015" lon="5.81817">
        <ele>595</ele>
        <time>2018-09-01T17:29:23Z</time>
      </trkpt>
      <trkpt lat="45.76019" lon="5.81823">
        <ele>595</ele>
        <time>2018-09-01T17:29:47Z</time>
      </trkpt>
      <trkpt lat="45.7602" lon="5.81825">
        <ele>595</ele>
        <time>2018-09-01T17:29:47Z</time>
      </trkpt>
      <trkpt lat="45.76022" lon="5.81826">
        <ele>595</ele>
        <time>2018-09-01T17:29:47Z</time>
      </trkpt>
      <trkpt lat="45.76023" lon="5.81828">
        <ele>595</ele>
        <time>2018-09-01T17:29:47Z</time>
      </trkpt>
      <trkpt lat="45.76024" lon="5.81833">
        <ele>595</ele>
        <time>2018-09-01T17:29:47Z</time>
      </trkpt>
      <trkpt lat="45.76023" lon="5.81837">
        <ele>595</ele>
        <time>2018-09-01T17:30:03Z</time>
      </trkpt>
      <trkpt lat="45.76023" lon="5.81843">
        <ele>595</ele>
        <time>2018-09-01T17:30:03Z</time>
      </trkpt>
      <trkpt lat="45.76023" lon="5.81849">
        <ele>595</ele>
        <time>2018-09-01T17:30:03Z</time>
      </trkpt>
      <trkpt lat="45.76023" lon="5.81854">
        <ele>595</ele>
        <time>2018-09-01T17:30:03Z</time>
      </trkpt>
      <trkpt lat="45.76022" lon="5.81858">
        <ele>595</ele>
        <time>2018-09-01T17:30:19Z</time>
      </trkpt>
      <trkpt lat="45.7602" lon="5.81863">
        <ele>595</ele>
        <time>2018-09-01T17:30:19Z</time>
      </trkpt>
      <trkpt lat="45.76017" lon="5.8187">
        <ele>595</ele>
        <time>2018-09-01T17:30:19Z</time>
      </trkpt>
      <trkpt lat="45.76013" lon="5.81875">
        <ele>582</ele>
        <time>2018-09-01T17:30:19Z</time>
      </trkpt>
      <trkpt lat="45.76009" lon="5.81882">
        <ele>582</ele>
        <time>2018-09-01T17:30:35Z</time>
      </trkpt>
      <trkpt lat="45.76004" lon="5.81888">
        <ele>582</ele>
        <time>2018-09-01T17:30:35Z</time>
      </trkpt>
      <trkpt lat="45.75999" lon="5.81891">
        <ele>582</ele>
        <time>2018-09-01T17:30:35Z</time>
      </trkpt>
      <trkpt lat="45.75995" lon="5.81896">
        <ele>582</ele>
        <time>2018-09-01T17:30:35Z</time>
      </trkpt>
      <trkpt lat="45.7599" lon="5.81899">
        <ele>582</ele>
        <time>2018-09-01T17:30:51Z</time>
      </trkpt>
      <trkpt lat="45.75987" lon="5.81902">
        <ele>582</ele>
        <time>2018-09-01T17:30:51Z</time>
      </trkpt>
      <trkpt lat="45.75984" lon="5.81905">
        <ele>582</ele>
        <time>2018-09-01T17:30:51Z</time>
      </trkpt>
      <trkpt lat="45.7598" lon="5.81909">
        <ele>582</ele>
        <time>2018-09-01T17:30:51Z</time>
      </trkpt>
      <trkpt lat="45.75977" lon="5.81912">
        <ele>582</ele>
        <time>2018-09-01T17:31:07Z</time>
      </trkpt>
      <trkpt lat="45.75975" lon="5.81915">
        <ele>582</ele>
        <time>2018-09-01T17:31:07Z</time>
      </trkpt>
      <trkpt lat="45.75973" lon="5.8192">
        <ele>582</ele>
        <time>2018-09-01T17:31:07Z</time>
      </trkpt>
      <trkpt lat="45.75971" lon="5.81924">
        <ele>582</ele>
        <time>2018-09-01T17:31:07Z</time>
      </trkpt>
      <trkpt lat="45.75971" lon="5.8194">
        <ele>582</ele>
        <time>2018-09-01T17:32:35Z</time>
      </trkpt>
      <trkpt lat="45.75971" lon="5.8194">
        <ele>582</ele>
        <time>2018-09-01T17:32:35Z</time>
      </trkpt>
      <trkpt lat="45.75971" lon="5.8194">
        <ele>582</ele>
        <time>2018-09-01T17:32:35Z</time>
      </trkpt>
      <trkpt lat="45.75972" lon="5.8194">
        <ele>582</ele>
        <time>2018-09-01T17:32:35Z</time>
      </trkpt>
      <trkpt lat="45.75974" lon="5.81939">
        <ele>582</ele>
        <time>2018-09-01T17:32:35Z</time>
      </trkpt>
      <trkpt lat="45.75978" lon="5.81939">
        <ele>582</ele>
        <time>2018-09-01T17:32:51Z</time>
      </trkpt>
      <trkpt lat="45.75983" lon="5.81937">
        <ele>582</ele>
        <time>2018-09-01T17:32:51Z</time>
      </trkpt>
      <trkpt lat="45.75987" lon="5.81936">
        <ele>582</ele>
        <time>2018-09-01T17:32:51Z</time>
      </trkpt>
      <trkpt lat="45.75991" lon="5.81935">
        <ele>582</ele>
        <time>2018-09-01T17:32:51Z</time>
      </trkpt>
      <trkpt lat="45.75996" lon="5.81935">
        <ele>582</ele>
        <time>2018-09-01T17:33:07Z</time>
      </trkpt>
      <trkpt lat="45.76003" lon="5.81938">
        <ele>582</ele>
        <time>2018-09-01T17:33:07Z</time>
      </trkpt>
      <trkpt lat="45.76006" lon="5.81943">
        <ele>582</ele>
        <time>2018-09-01T17:33:07Z</time>
      </trkpt>
      <trkpt lat="45.76009" lon="5.81945">
        <ele>582</ele>
        <time>2018-09-01T17:33:07Z</time>
      </trkpt>
      <trkpt lat="45.76013" lon="5.81947">
        <ele>582</ele>
        <time>2018-09-01T17:33:23Z</time>
      </trkpt>
      <trkpt lat="45.76019" lon="5.8195">
        <ele>582</ele>
        <time>2018-09-01T17:33:23Z</time>
      </trkpt>
      <trkpt lat="45.76023" lon="5.81952">
        <ele>582</ele>
        <time>2018-09-01T17:33:23Z</time>
      </trkpt>
      <trkpt lat="45.76029" lon="5.81952">
        <ele>582</ele>
        <time>2018-09-01T17:33:23Z</time>
      </trkpt>
      <trkpt lat="45.76031" lon="5.81952">
        <ele>582</ele>
        <time>2018-09-01T17:33:39Z</time>
      </trkpt>
      <trkpt lat="45.76036" lon="5.81953">
        <ele>582</ele>
        <time>2018-09-01T17:33:39Z</time>
      </trkpt>
      <trkpt lat="45.76038" lon="5.81958">
        <ele>582</ele>
        <time>2018-09-01T17:33:39Z</time>
      </trkpt>
      <trkpt lat="45.76038" lon="5.81961">
        <ele>570</ele>
        <time>2018-09-01T17:33:39Z</time>
      </trkpt>
      <trkpt lat="45.76036" lon="5.81966">
        <ele>570</ele>
        <time>2018-09-01T17:33:55Z</time>
      </trkpt>
      <trkpt lat="45.76032" lon="5.81971">
        <ele>570</ele>
        <time>2018-09-01T17:33:55Z</time>
      </trkpt>
      <trkpt lat="45.76029" lon="5.81976">
        <ele>570</ele>
        <time>2018-09-01T17:33:55Z</time>
      </trkpt>
      <trkpt lat="45.76027" lon="5.81983">
        <ele>570</ele>
        <time>2018-09-01T17:33:55Z</time>
      </trkpt>
      <trkpt lat="45.76025" lon="5.81988">
        <ele>570</ele>
        <time>2018-09-01T17:34:11Z</time>
      </trkpt>
      <trkpt lat="45.76021" lon="5.8199">
        <ele>570</ele>
        <time>2018-09-01T17:34:11Z</time>
      </trkpt>
      <trkpt lat="45.76018" lon="5.81992">
        <ele>570</ele>
        <time>2018-09-01T17:34:11Z</time>
      </trkpt>
      <trkpt lat="45.76016" lon="5.81996">
        <ele>570</ele>
        <time>2018-09-01T17:34:11Z</time>
      </trkpt>
      <trkpt lat="45.76013" lon="5.82">
        <ele>570</ele>
        <time>2018-09-01T17:34:27Z</time>
      </trkpt>
      <trkpt lat="45.76009" lon="5.82005">
        <ele>570</ele>
        <time>2018-09-01T17:34:27Z</time>
      </trkpt>
      <trkpt lat="45.76009" lon="5.82009">
        <ele>570</ele>
        <time>2018-09-01T17:34:27Z</time>
      </trkpt>
      <trkpt lat="45.76008" lon="5.82012">
        <ele>570</ele>
        <time>2018-09-01T17:34:27Z</time>
      </trkpt>
      <trkpt lat="45.76008" lon="5.82013">
        <ele>570</ele>
        <time>2018-09-01T17:34:43Z</time>
      </trkpt>
      <trkpt lat="45.76009" lon="5.82013">
        <ele>570</ele>
        <time>2018-09-01T17:34:43Z</time>
      </trkpt>
      <trkpt lat="45.76012" lon="5.82013">
        <ele>570</ele>
        <time>2018-09-01T17:34:43Z</time>
      </trkpt>
      <trkpt lat="45.76017" lon="5.82014">
        <ele>570</ele>
        <time>2018-09-01T17:34:43Z</time>
      </trkpt>
      <trkpt lat="45.76021" lon="5.8201">
        <ele>570</ele>
        <time>2018-09-01T17:34:59Z</time>
      </trkpt>
      <trkpt lat="45.76026" lon="5.82008">
        <ele>570</ele>
        <time>2018-09-01T17:34:59Z</time>
      </trkpt>
      <trkpt lat="45.76033" lon="5.8201">
        <ele>570</ele>
        <time>2018-09-01T17:34:59Z</time>
      </trkpt>
      <trkpt lat="45.76039" lon="5.8201">
        <ele>570</ele>
        <time>2018-09-01T17:34:59Z</time>
      </trkpt>
      <trkpt lat="45.76044" lon="5.8201">
        <ele>555</ele>
        <time>2018-09-01T17:35:15Z</time>
      </trkpt>
      <trkpt lat="45.76049" lon="5.8201">
        <ele>555</ele>
        <time>2018-09-01T17:35:15Z</time>
      </trkpt>
      <trkpt lat="45.76055" lon="5.82008">
        <ele>555</ele>
        <time>2018-09-01T17:35:15Z</time>
      </trkpt>
      <trkpt lat="45.7606" lon="5.82005">
        <ele>555</ele>
        <time>2018-09-01T17:35:15Z</time>
      </trkpt>
      <trkpt lat="45.76066" lon="5.82004">
        <ele>555</ele>
        <time>2018-09-01T17:35:31Z</time>
      </trkpt>
      <trkpt lat="45.76071" lon="5.82003">
        <ele>555</ele>
        <time>2018-09-01T17:35:31Z</time>
      </trkpt>
      <trkpt lat="45.76075" lon="5.82003">
        <ele>555</ele>
        <time>2018-09-01T17:35:31Z</time>
      </trkpt>
      <trkpt lat="45.76081" lon="5.82005">
        <ele>555</ele>
        <time>2018-09-01T17:35:31Z</time>
      </trkpt>
      <trkpt lat="45.76088" lon="5.82006">
        <ele>555</ele>
        <time>2018-09-01T17:35:51Z</time>
      </trkpt>
      <trkpt lat="45.76091" lon="5.82009">
        <ele>555</ele>
        <time>2018-09-01T17:35:51Z</time>
      </trkpt>
      <trkpt lat="45.76092" lon="5.82009">
        <ele>555</ele>
        <time>2018-09-01T17:35:51Z</time>
      </trkpt>
      <trkpt lat="45.76095" lon="5.8201">
        <ele>555</ele>
        <time>2018-09-01T17:35:51Z</time>
      </trkpt>
      <trkpt lat="45.76098" lon="5.82012">
        <ele>555</ele>
        <time>2018-09-01T17:35:51Z</time>
      </trkpt>
      <trkpt lat="45.761" lon="5.82012">
        <ele>555</ele>
        <time>2018-09-01T17:36:15Z</time>
      </trkpt>
      <trkpt lat="45.761" lon="5.82012">
        <ele>555</ele>
        <time>2018-09-01T17:36:15Z</time>
      </trkpt>
      <trkpt lat="45.76103" lon="5.82013">
        <ele>555</ele>
        <time>2018-09-01T17:36:15Z</time>
      </trkpt>
      <trkpt lat="45.76107" lon="5.82014">
        <ele>555</ele>
        <time>2018-09-01T17:36:15Z</time>
      </trkpt>
      <trkpt lat="45.7611" lon="5.82016">
        <ele>555</ele>
        <time>2018-09-01T17:36:15Z</time>
      </trkpt>
      <trkpt lat="45.76114" lon="5.82017">
        <ele>555</ele>
        <time>2018-09-01T17:36:31Z</time>
      </trkpt>
      <trkpt lat="45.76117" lon="5.8202">
        <ele>555</ele>
        <time>2018-09-01T17:36:31Z</time>
      </trkpt>
      <trkpt lat="45.7612" lon="5.82023">
        <ele>555</ele>
        <time>2018-09-01T17:36:31Z</time>
      </trkpt>
      <trkpt lat="45.76123" lon="5.82026">
        <ele>555</ele>
        <time>2018-09-01T17:36:31Z</time>
      </trkpt>
      <trkpt lat="45.76125" lon="5.82027">
        <ele>555</ele>
        <time>2018-09-01T17:36:47Z</time>
      </trkpt>
      <trkpt lat="45.76127" lon="5.82029">
        <ele>543</ele>
        <time>2018-09-01T17:36:47Z</time>
      </trkpt>
      <trkpt lat="45.76131" lon="5.82031">
        <ele>543</ele>
        <time>2018-09-01T17:36:47Z</time>
      </trkpt>
      <trkpt lat="45.76135" lon="5.82034">
        <ele>543</ele>
        <time>2018-09-01T17:36:47Z</time>
      </trkpt>
      <trkpt lat="45.76139" lon="5.82037">
        <ele>543</ele>
        <time>2018-09-01T17:37:07Z</time>
      </trkpt>
      <trkpt lat="45.76141" lon="5.82038">
        <ele>543</ele>
        <time>2018-09-01T17:37:07Z</time>
      </trkpt>
      <trkpt lat="45.76143" lon="5.8204">
        <ele>543</ele>
        <time>2018-09-01T17:37:07Z</time>
      </trkpt>
      <trkpt lat="45.76146" lon="5.82044">
        <ele>524</ele>
        <time>2018-09-01T17:37:07Z</time>
      </trkpt>
      <trkpt lat="45.76147" lon="5.82046">
        <ele>524</ele>
        <time>2018-09-01T17:37:07Z</time>
      </trkpt>
      <trkpt lat="45.7615" lon="5.82048">
        <ele>524</ele>
        <time>2018-09-01T17:38:03Z</time>
      </trkpt>
      <trkpt lat="45.76151" lon="5.82048">
        <ele>524</ele>
        <time>2018-09-01T17:38:03Z</time>
      </trkpt>
      <trkpt lat="45.76153" lon="5.82049">
        <ele>524</ele>
        <time>2018-09-01T17:38:03Z</time>
      </trkpt>
      <trkpt lat="45.76155" lon="5.8205">
        <ele>524</ele>
        <time>2018-09-01T17:38:03Z</time>
      </trkpt>
      <trkpt lat="45.76157" lon="5.8205">
        <ele>524</ele>
        <time>2018-09-01T17:38:03Z</time>
      </trkpt>
      <trkpt lat="45.76159" lon="5.82051">
        <ele>524</ele>
        <time>2018-09-01T17:38:23Z</time>
      </trkpt>
      <trkpt lat="45.76161" lon="5.82055">
        <ele>524</ele>
        <time>2018-09-01T17:38:23Z</time>
      </trkpt>
      <trkpt lat="45.76162" lon="5.82057">
        <ele>524</ele>
        <time>2018-09-01T17:38:23Z</time>
      </trkpt>
      <trkpt lat="45.76164" lon="5.82057">
        <ele>524</ele>
        <time>2018-09-01T17:38:23Z</time>
      </trkpt>
      <trkpt lat="45.76166" lon="5.82059">
        <ele>524</ele>
        <time>2018-09-01T17:38:23Z</time>
      </trkpt>
      <trkpt lat="45.7617" lon="5.82062">
        <ele>524</ele>
        <time>2018-09-01T17:38:47Z</time>
      </trkpt>
      <trkpt lat="45.76172" lon="5.82064">
        <ele>524</ele>
        <time>2018-09-01T17:38:47Z</time>
      </trkpt>
      <trkpt lat="45.76173" lon="5.82066">
        <ele>524</ele>
        <time>2018-09-01T17:38:47Z</time>
      </trkpt>
      <trkpt lat="45.76175" lon="5.82067">
        <ele>524</ele>
        <time>2018-09-01T17:38:47Z</time>
      </trkpt>
      <trkpt lat="45.76179" lon="5.8207">
        <ele>524</ele>
        <time>2018-09-01T17:38:47Z</time>
      </trkpt>
      <trkpt lat="45.76183" lon="5.82072">
        <ele>524</ele>
        <time>2018-09-01T17:39:03Z</time>
      </trkpt>
      <trkpt lat="45.76187" lon="5.82074">
        <ele>524</ele>
        <time>2018-09-01T17:39:03Z</time>
      </trkpt>
      <trkpt lat="45.76191" lon="5.82075">
        <ele>524</ele>
        <time>2018-09-01T17:39:03Z</time>
      </trkpt>
      <trkpt lat="45.76196" lon="5.82076">
        <ele>524</ele>
        <time>2018-09-01T17:39:03Z</time>
      </trkpt>
      <trkpt lat="45.76201" lon="5.82077">
        <ele>524</ele>
        <time>2018-09-01T17:39:19Z</time>
      </trkpt>
      <trkpt lat="45.76204" lon="5.82079">
        <ele>524</ele>
        <time>2018-09-01T17:39:19Z</time>
      </trkpt>
      <trkpt lat="45.76207" lon="5.82082">
        <ele>524</ele>
        <time>2018-09-01T17:39:19Z</time>
      </trkpt>
      <trkpt lat="45.7621" lon="5.82084">
        <ele>510</ele>
        <time>2018-09-01T17:39:19Z</time>
      </trkpt>
      <trkpt lat="45.76211" lon="5.82084">
        <ele>510</ele>
        <time>2018-09-01T17:39:35Z</time>
      </trkpt>
      <trkpt lat="45.76214" lon="5.82085">
        <ele>510</ele>
        <time>2018-09-01T17:39:35Z</time>
      </trkpt>
      <trkpt lat="45.76218" lon="5.82086">
        <ele>510</ele>
        <time>2018-09-01T17:39:35Z</time>
      </trkpt>
      <trkpt lat="45.76223" lon="5.82089">
        <ele>510</ele>
        <time>2018-09-01T17:39:35Z</time>
      </trkpt>
      <trkpt lat="45.76227" lon="5.82091">
        <ele>510</ele>
        <time>2018-09-01T17:39:51Z</time>
      </trkpt>
      <trkpt lat="45.76231" lon="5.82093">
        <ele>510</ele>
        <time>2018-09-01T17:39:51Z</time>
      </trkpt>
      <trkpt lat="45.76235" lon="5.82094">
        <ele>510</ele>
        <time>2018-09-01T17:39:51Z</time>
      </trkpt>
      <trkpt lat="45.76238" lon="5.82095">
        <ele>510</ele>
        <time>2018-09-01T17:39:51Z</time>
      </trkpt>
      <trkpt lat="45.76242" lon="5.82096">
        <ele>510</ele>
        <time>2018-09-01T17:40:07Z</time>
      </trkpt>
      <trkpt lat="45.76245" lon="5.82097">
        <ele>510</ele>
        <time>2018-09-01T17:40:07Z</time>
      </trkpt>
      <trkpt lat="45.76248" lon="5.821">
        <ele>510</ele>
        <time>2018-09-01T17:40:07Z</time>
      </trkpt>
      <trkpt lat="45.76252" lon="5.82101">
        <ele>510</ele>
        <time>2018-09-01T17:40:07Z</time>
      </trkpt>
      <trkpt lat="45.76256" lon="5.82101">
        <ele>510</ele>
        <time>2018-09-01T17:40:23Z</time>
      </trkpt>
      <trkpt lat="45.76261" lon="5.82103">
        <ele>510</ele>
        <time>2018-09-01T17:40:23Z</time>
      </trkpt>
      <trkpt lat="45.76264" lon="5.82104">
        <ele>510</ele>
        <time>2018-09-01T17:40:23Z</time>
      </trkpt>
      <trkpt lat="45.76266" lon="5.82105">
        <ele>510</ele>
        <time>2018-09-01T17:40:23Z</time>
      </trkpt>
      <trkpt lat="45.76269" lon="5.82105">
        <ele>510</ele>
        <time>2018-09-01T17:40:39Z</time>
      </trkpt>
      <trkpt lat="45.76272" lon="5.82105">
        <ele>510</ele>
        <time>2018-09-01T17:40:39Z</time>
      </trkpt>
      <trkpt lat="45.76275" lon="5.82108">
        <ele>510</ele>
        <time>2018-09-01T17:40:39Z</time>
      </trkpt>
      <trkpt lat="45.76279" lon="5.82112">
        <ele>510</ele>
        <time>2018-09-01T17:40:39Z</time>
      </trkpt>
      <trkpt lat="45.76285" lon="5.82113">
        <ele>510</ele>
        <time>2018-09-01T17:41:03Z</time>
      </trkpt>
      <trkpt lat="45.76286" lon="5.82113">
        <ele>510</ele>
        <time>2018-09-01T17:41:03Z</time>
      </trkpt>
      <trkpt lat="45.76287" lon="5.82113">
        <ele>510</ele>
        <time>2018-09-01T17:41:03Z</time>
      </trkpt>
      <trkpt lat="45.76289" lon="5.82115">
        <ele>510</ele>
        <time>2018-09-01T17:41:03Z</time>
      </trkpt>
      <trkpt lat="45.76291" lon="5.82114">
        <ele>510</ele>
        <time>2018-09-01T17:41:03Z</time>
      </trkpt>
      <trkpt lat="45.76295" lon="5.82115">
        <ele>498</ele>
        <time>2018-09-01T17:41:19Z</time>
      </trkpt>
      <trkpt lat="45.76299" lon="5.82118">
        <ele>498</ele>
        <time>2018-09-01T17:41:19Z</time>
      </trkpt>
      <trkpt lat="45.76301" lon="5.82118">
        <ele>498</ele>
        <time>2018-09-01T17:41:19Z</time>
      </trkpt>
      <trkpt lat="45.76304" lon="5.82119">
        <ele>498</ele>
        <time>2018-09-01T17:41:19Z</time>
      </trkpt>
      <trkpt lat="45.76307" lon="5.8212">
        <ele>498</ele>
        <time>2018-09-01T17:41:35Z</time>
      </trkpt>
      <trkpt lat="45.7631" lon="5.82119">
        <ele>498</ele>
        <time>2018-09-01T17:41:35Z</time>
      </trkpt>
      <trkpt lat="45.76313" lon="5.8212">
        <ele>498</ele>
        <time>2018-09-01T17:41:35Z</time>
      </trkpt>
      <trkpt lat="45.76317" lon="5.82123">
        <ele>498</ele>
        <time>2018-09-01T17:41:35Z</time>
      </trkpt>
      <trkpt lat="45.76321" lon="5.82124">
        <ele>498</ele>
        <time>2018-09-01T17:41:55Z</time>
      </trkpt>
      <trkpt lat="45.76325" lon="5.82125">
        <ele>486</ele>
        <time>2018-09-01T17:41:55Z</time>
      </trkpt>
      <trkpt lat="45.76327" lon="5.82126">
        <ele>486</ele>
        <time>2018-09-01T17:41:55Z</time>
      </trkpt>
      <trkpt lat="45.76329" lon="5.82126">
        <ele>486</ele>
        <time>2018-09-01T17:41:55Z</time>
      </trkpt>
      <trkpt lat="45.76331" lon="5.82127">
        <ele>486</ele>
        <time>2018-09-01T17:41:55Z</time>
      </trkpt>
      <trkpt lat="45.76335" lon="5.82128">
        <ele>486</ele>
        <time>2018-09-01T17:42:11Z</time>
      </trkpt>
      <trkpt lat="45.76339" lon="5.8213">
        <ele>486</ele>
        <time>2018-09-01T17:42:11Z</time>
      </trkpt>
      <trkpt lat="45.76344" lon="5.82131">
        <ele>486</ele>
        <time>2018-09-01T17:42:11Z</time>
      </trkpt>
      <trkpt lat="45.76347" lon="5.82132">
        <ele>486</ele>
        <time>2018-09-01T17:42:11Z</time>
      </trkpt>
      <trkpt lat="45.76351" lon="5.82135">
        <ele>486</ele>
        <time>2018-09-01T17:42:27Z</time>
      </trkpt>
      <trkpt lat="45.76353" lon="5.82136">
        <ele>486</ele>
        <time>2018-09-01T17:42:27Z</time>
      </trkpt>
      <trkpt lat="45.76359" lon="5.82136">
        <ele>486</ele>
        <time>2018-09-01T17:42:27Z</time>
      </trkpt>
      <trkpt lat="45.76364" lon="5.82137">
        <ele>486</ele>
        <time>2018-09-01T17:42:27Z</time>
      </trkpt>
      <trkpt lat="45.76369" lon="5.82138">
        <ele>486</ele>
        <time>2018-09-01T17:42:43Z</time>
      </trkpt>
      <trkpt lat="45.76376" lon="5.82139">
        <ele>476</ele>
        <time>2018-09-01T17:42:43Z</time>
      </trkpt>
      <trkpt lat="45.76382" lon="5.82139">
        <ele>476</ele>
        <time>2018-09-01T17:42:43Z</time>
      </trkpt>
      <trkpt lat="45.76387" lon="5.82141">
        <ele>476</ele>
        <time>2018-09-01T17:42:43Z</time>
      </trkpt>
      <trkpt lat="45.7639" lon="5.82141">
        <ele>476</ele>
        <time>2018-09-01T17:42:59Z</time>
      </trkpt>
      <trkpt lat="45.76393" lon="5.82142">
        <ele>476</ele>
        <time>2018-09-01T17:42:59Z</time>
      </trkpt>
      <trkpt lat="45.76396" lon="5.82143">
        <ele>476</ele>
        <time>2018-09-01T17:42:59Z</time>
      </trkpt>
      <trkpt lat="45.76401" lon="5.82143">
        <ele>476</ele>
        <time>2018-09-01T17:42:59Z</time>
      </trkpt>
      <trkpt lat="45.76408" lon="5.82144">
        <ele>476</ele>
        <time>2018-09-01T17:43:31Z</time>
      </trkpt>
      <trkpt lat="45.76409" lon="5.82144">
        <ele>476</ele>
        <time>2018-09-01T17:43:31Z</time>
      </trkpt>
      <trkpt lat="45.76409" lon="5.82144">
        <ele>476</ele>
        <time>2018-09-01T17:43:31Z</time>
      </trkpt>
      <trkpt lat="45.76409" lon="5.82144">
        <ele>476</ele>
        <time>2018-09-01T17:43:31Z</time>
      </trkpt>
      <trkpt lat="45.76425" lon="5.82149">
        <ele>476</ele>
        <time>2018-09-01T17:43:31Z</time>
      </trkpt>
      <trkpt lat="45.7641" lon="5.82144">
        <ele>476</ele>
        <time>2018-09-01T17:44:03Z</time>
      </trkpt>
      <trkpt lat="45.76412" lon="5.82143">
        <ele>476</ele>
        <time>2018-09-01T17:44:03Z</time>
      </trkpt>
      <trkpt lat="45.76414" lon="5.82143">
        <ele>476</ele>
        <time>2018-09-01T17:44:03Z</time>
      </trkpt>
      <trkpt lat="45.76417" lon="5.82143">
        <ele>476</ele>
        <time>2018-09-01T17:44:03Z</time>
      </trkpt>
      <trkpt lat="45.76419" lon="5.82143">
        <ele>476</ele>
        <time>2018-09-01T17:44:03Z</time>
      </trkpt>
      <trkpt lat="45.76424" lon="5.82144">
        <ele>476</ele>
        <time>2018-09-01T17:45:51Z</time>
      </trkpt>
      <trkpt lat="45.76425" lon="5.82144">
        <ele>476</ele>
        <time>2018-09-01T17:45:51Z</time>
      </trkpt>
      <trkpt lat="45.76427" lon="5.82142">
        <ele>476</ele>
        <time>2018-09-01T17:45:51Z</time>
      </trkpt>
      <trkpt lat="45.76429" lon="5.82142">
        <ele>476</ele>
        <time>2018-09-01T17:45:51Z</time>
      </trkpt>
      <trkpt lat="45.7643" lon="5.82142">
        <ele>476</ele>
        <time>2018-09-01T17:45:51Z</time>
      </trkpt>
      <trkpt lat="45.76431" lon="5.82142">
        <ele>476</ele>
        <time>2018-09-01T17:46:19Z</time>
      </trkpt>
      <trkpt lat="45.76431" lon="5.82142">
        <ele>476</ele>
        <time>2018-09-01T17:46:19Z</time>
      </trkpt>
      <trkpt lat="45.76433" lon="5.82143">
        <ele>476</ele>
        <time>2018-09-01T17:46:19Z</time>
      </trkpt>
      <trkpt lat="45.76437" lon="5.82143">
        <ele>476</ele>
        <time>2018-09-01T17:46:19Z</time>
      </trkpt>
      <trkpt lat="45.76441" lon="5.82144">
        <ele>476</ele>
        <time>2018-09-01T17:46:19Z</time>
      </trkpt>
      <trkpt lat="45.76444" lon="5.82146">
        <ele>476</ele>
        <time>2018-09-01T17:46:35Z</time>
      </trkpt>
      <trkpt lat="45.76448" lon="5.82148">
        <ele>476</ele>
        <time>2018-09-01T17:46:35Z</time>
      </trkpt>
      <trkpt lat="45.76452" lon="5.82149">
        <ele>476</ele>
        <time>2018-09-01T17:46:35Z</time>
      </trkpt>
      <trkpt lat="45.76455" lon="5.8215">
        <ele>476</ele>
        <time>2018-09-01T17:46:35Z</time>
      </trkpt>
      <trkpt lat="45.7646" lon="5.82152">
        <ele>470</ele>
        <time>2018-09-01T17:46:51Z</time>
      </trkpt>
      <trkpt lat="45.76467" lon="5.82154">
        <ele>470</ele>
        <time>2018-09-01T17:46:51Z</time>
      </trkpt>
      <trkpt lat="45.76474" lon="5.82154">
        <ele>470</ele>
        <time>2018-09-01T17:46:51Z</time>
      </trkpt>
      <trkpt lat="45.7648" lon="5.82155">
        <ele>470</ele>
        <time>2018-09-01T17:46:51Z</time>
      </trkpt>
      <trkpt lat="45.76485" lon="5.82157">
        <ele>470</ele>
        <time>2018-09-01T17:47:07Z</time>
      </trkpt>
      <trkpt lat="45.7649" lon="5.82158">
        <ele>470</ele>
        <time>2018-09-01T17:47:07Z</time>
      </trkpt>
      <trkpt lat="45.76494" lon="5.8216">
        <ele>470</ele>
        <time>2018-09-01T17:47:07Z</time>
      </trkpt>
      <trkpt lat="45.76497" lon="5.82161">
        <ele>470</ele>
        <time>2018-09-01T17:47:07Z</time>
      </trkpt>
      <trkpt lat="45.765" lon="5.82162">
        <ele>470</ele>
        <time>2018-09-01T17:47:23Z</time>
      </trkpt>
      <trkpt lat="45.76504" lon="5.82163">
        <ele>470</ele>
        <time>2018-09-01T17:47:23Z</time>
      </trkpt>
      <trkpt lat="45.76508" lon="5.82165">
        <ele>470</ele>
        <time>2018-09-01T17:47:23Z</time>
      </trkpt>
      <trkpt lat="45.76514" lon="5.82166">
        <ele>470</ele>
        <time>2018-09-01T17:47:23Z</time>
      </trkpt>
      <trkpt lat="45.76521" lon="5.82167">
        <ele>470</ele>
        <time>2018-09-01T17:47:39Z</time>
      </trkpt>
      <trkpt lat="45.76528" lon="5.82168">
        <ele>470</ele>
        <time>2018-09-01T17:47:39Z</time>
      </trkpt>
      <trkpt lat="45.76533" lon="5.82171">
        <ele>470</ele>
        <time>2018-09-01T17:47:39Z</time>
      </trkpt>
      <trkpt lat="45.76538" lon="5.82175">
        <ele>470</ele>
        <time>2018-09-01T17:47:39Z</time>
      </trkpt>
      <trkpt lat="45.76543" lon="5.82179">
        <ele>469</ele>
        <time>2018-09-01T17:47:55Z</time>
      </trkpt>
      <trkpt lat="45.76558" lon="5.82186">
        <ele>469</ele>
        <time>2018-09-01T17:47:55Z</time>
      </trkpt>
      <trkpt lat="45.76581" lon="5.82189">
        <ele>469</ele>
        <time>2018-09-01T17:47:55Z</time>
      </trkpt>
      <trkpt lat="45.76601" lon="5.82194">
        <ele>469</ele>
        <time>2018-09-01T17:47:55Z</time>
      </trkpt>
      <trkpt lat="45.76619" lon="5.82197">
        <ele>469</ele>
        <time>2018-09-01T17:48:11Z</time>
      </trkpt>
      <trkpt lat="45.76636" lon="5.82204">
        <ele>468</ele>
        <time>2018-09-01T17:48:11Z</time>
      </trkpt>
      <trkpt lat="45.76646" lon="5.82211">
        <ele>459</ele>
        <time>2018-09-01T17:48:11Z</time>
      </trkpt>
      <trkpt lat="45.76657" lon="5.82221">
        <ele>459</ele>
        <time>2018-09-01T17:48:11Z</time>
      </trkpt>
      <trkpt lat="45.76665" lon="5.82225">
        <ele>459</ele>
        <time>2018-09-01T17:48:27Z</time>
      </trkpt>
      <trkpt lat="45.76675" lon="5.82236">
        <ele>459</ele>
        <time>2018-09-01T17:48:27Z</time>
      </trkpt>
      <trkpt lat="45.76684" lon="5.82252">
        <ele>459</ele>
        <time>2018-09-01T17:48:27Z</time>
      </trkpt>
      <trkpt lat="45.76688" lon="5.82261">
        <ele>459</ele>
        <time>2018-09-01T17:48:27Z</time>
      </trkpt>
      <trkpt lat="45.76696" lon="5.82279">
        <ele>459</ele>
        <time>2018-09-01T17:48:43Z</time>
      </trkpt>
      <trkpt lat="45.76705" lon="5.82293">
        <ele>459</ele>
        <time>2018-09-01T17:48:43Z</time>
      </trkpt>
      <trkpt lat="45.76708" lon="5.823">
        <ele>459</ele>
        <time>2018-09-01T17:48:43Z</time>
      </trkpt>
      <trkpt lat="45.76711" lon="5.82306">
        <ele>473</ele>
        <time>2018-09-01T17:48:43Z</time>
      </trkpt>
      <trkpt lat="45.76715" lon="5.82312">
        <ele>473</ele>
        <time>2018-09-01T17:48:59Z</time>
      </trkpt>
      <trkpt lat="45.76718" lon="5.82319">
        <ele>473</ele>
        <time>2018-09-01T17:48:59Z</time>
      </trkpt>
      <trkpt lat="45.76721" lon="5.82325">
        <ele>473</ele>
        <time>2018-09-01T17:48:59Z</time>
      </trkpt>
      <trkpt lat="45.76724" lon="5.82331">
        <ele>473</ele>
        <time>2018-09-01T17:48:59Z</time>
      </trkpt>
      <trkpt lat="45.76727" lon="5.82337">
        <ele>473</ele>
        <time>2018-09-01T17:49:15Z</time>
      </trkpt>
      <trkpt lat="45.76731" lon="5.82337">
        <ele>473</ele>
        <time>2018-09-01T17:49:15Z</time>
      </trkpt>
      <trkpt lat="45.76736" lon="5.82335">
        <ele>473</ele>
        <time>2018-09-01T17:49:15Z</time>
      </trkpt>
      <trkpt lat="45.76738" lon="5.82335">
        <ele>473</ele>
        <time>2018-09-01T17:49:15Z</time>
      </trkpt>
      <trkpt lat="45.76743" lon="5.82331">
        <ele>473</ele>
        <time>2018-09-01T17:49:31Z</time>
      </trkpt>
      <trkpt lat="45.76748" lon="5.82327">
        <ele>473</ele>
        <time>2018-09-01T17:49:31Z</time>
      </trkpt>
      <trkpt lat="45.76752" lon="5.82321">
        <ele>473</ele>
        <time>2018-09-01T17:49:31Z</time>
      </trkpt>
      <trkpt lat="45.76756" lon="5.82315">
        <ele>473</ele>
        <time>2018-09-01T17:49:31Z</time>
      </trkpt>
      <trkpt lat="45.76759" lon="5.82309">
        <ele>473</ele>
        <time>2018-09-01T17:49:47Z</time>
      </trkpt>
      <trkpt lat="45.76763" lon="5.82302">
        <ele>473</ele>
        <time>2018-09-01T17:49:47Z</time>
      </trkpt>
      <trkpt lat="45.76766" lon="5.82297">
        <ele>473</ele>
        <time>2018-09-01T17:49:47Z</time>
      </trkpt>
      <trkpt lat="45.76771" lon="5.82293">
        <ele>473</ele>
        <time>2018-09-01T17:49:47Z</time>
      </trkpt>
      <trkpt lat="45.76774" lon="5.82288">
        <ele>464</ele>
        <time>2018-09-01T17:50:03Z</time>
      </trkpt>
      <trkpt lat="45.76778" lon="5.82283">
        <ele>464</ele>
        <time>2018-09-01T17:50:03Z</time>
      </trkpt>
      <trkpt lat="45.76782" lon="5.82278">
        <ele>464</ele>
        <time>2018-09-01T17:50:03Z</time>
      </trkpt>
      <trkpt lat="45.76786" lon="5.82273">
        <ele>464</ele>
        <time>2018-09-01T17:50:03Z</time>
      </trkpt>
      <trkpt lat="45.7679" lon="5.82269">
        <ele>464</ele>
        <time>2018-09-01T17:50:19Z</time>
      </trkpt>
      <trkpt lat="45.76795" lon="5.82265">
        <ele>478</ele>
        <time>2018-09-01T17:50:19Z</time>
      </trkpt>
      <trkpt lat="45.768" lon="5.82261">
        <ele>478</ele>
        <time>2018-09-01T17:50:19Z</time>
      </trkpt>
      <trkpt lat="45.76805" lon="5.82257">
        <ele>478</ele>
        <time>2018-09-01T17:50:19Z</time>
      </trkpt>
      <trkpt lat="45.7681" lon="5.82255">
        <ele>478</ele>
        <time>2018-09-01T17:50:35Z</time>
      </trkpt>
      <trkpt lat="45.76815" lon="5.82251">
        <ele>478</ele>
        <time>2018-09-01T17:50:35Z</time>
      </trkpt>
      <trkpt lat="45.76819" lon="5.82247">
        <ele>478</ele>
        <time>2018-09-01T17:50:35Z</time>
      </trkpt>
      <trkpt lat="45.76823" lon="5.82244">
        <ele>478</ele>
        <time>2018-09-01T17:50:35Z</time>
      </trkpt>
      <trkpt lat="45.76828" lon="5.8224">
        <ele>478</ele>
        <time>2018-09-01T17:50:51Z</time>
      </trkpt>
      <trkpt lat="45.76833" lon="5.82237">
        <ele>478</ele>
        <time>2018-09-01T17:50:51Z</time>
      </trkpt>
      <trkpt lat="45.76837" lon="5.82234">
        <ele>478</ele>
        <time>2018-09-01T17:50:51Z</time>
      </trkpt>
      <trkpt lat="45.76842" lon="5.8223">
        <ele>478</ele>
        <time>2018-09-01T17:50:51Z</time>
      </trkpt>
      <trkpt lat="45.76847" lon="5.82227">
        <ele>478</ele>
        <time>2018-09-01T17:51:07Z</time>
      </trkpt>
      <trkpt lat="45.76851" lon="5.82223">
        <ele>478</ele>
        <time>2018-09-01T17:51:07Z</time>
      </trkpt>
      <trkpt lat="45.76856" lon="5.82219">
        <ele>478</ele>
        <time>2018-09-01T17:51:07Z</time>
      </trkpt>
      <trkpt lat="45.76861" lon="5.82216">
        <ele>478</ele>
        <time>2018-09-01T17:51:07Z</time>
      </trkpt>
      <trkpt lat="45.76866" lon="5.82213">
        <ele>478</ele>
        <time>2018-09-01T17:51:23Z</time>
      </trkpt>
      <trkpt lat="45.76871" lon="5.82209">
        <ele>478</ele>
        <time>2018-09-01T17:51:23Z</time>
      </trkpt>
      <trkpt lat="45.76876" lon="5.82205">
        <ele>481</ele>
        <time>2018-09-01T17:51:23Z</time>
      </trkpt>
      <trkpt lat="45.7688" lon="5.82202">
        <ele>481</ele>
        <time>2018-09-01T17:51:23Z</time>
      </trkpt>
      <trkpt lat="45.76885" lon="5.82199">
        <ele>481</ele>
        <time>2018-09-01T17:51:39Z</time>
      </trkpt>
      <trkpt lat="45.7689" lon="5.82196">
        <ele>481</ele>
        <time>2018-09-01T17:51:39Z</time>
      </trkpt>
      <trkpt lat="45.76896" lon="5.82193">
        <ele>481</ele>
        <time>2018-09-01T17:51:39Z</time>
      </trkpt>
      <trkpt lat="45.76902" lon="5.82191">
        <ele>481</ele>
        <time>2018-09-01T17:51:39Z</time>
      </trkpt>
      <trkpt lat="45.76907" lon="5.82188">
        <ele>481</ele>
        <time>2018-09-01T17:51:55Z</time>
      </trkpt>
      <trkpt lat="45.76913" lon="5.82186">
        <ele>481</ele>
        <time>2018-09-01T17:51:55Z</time>
      </trkpt>
      <trkpt lat="45.76918" lon="5.82183">
        <ele>481</ele>
        <time>2018-09-01T17:51:55Z</time>
      </trkpt>
      <trkpt lat="45.76923" lon="5.8218">
        <ele>481</ele>
        <time>2018-09-01T17:51:55Z</time>
      </trkpt>
      <trkpt lat="45.76928" lon="5.82178">
        <ele>481</ele>
        <time>2018-09-01T17:52:11Z</time>
      </trkpt>
      <trkpt lat="45.76934" lon="5.82175">
        <ele>481</ele>
        <time>2018-09-01T17:52:11Z</time>
      </trkpt>
      <trkpt lat="45.76939" lon="5.82173">
        <ele>481</ele>
        <time>2018-09-01T17:52:11Z</time>
      </trkpt>
      <trkpt lat="45.76945" lon="5.8217">
        <ele>481</ele>
        <time>2018-09-01T17:52:11Z</time>
      </trkpt>
      <trkpt lat="45.7695" lon="5.82168">
        <ele>481</ele>
        <time>2018-09-01T17:52:27Z</time>
      </trkpt>
      <trkpt lat="45.76956" lon="5.82165">
        <ele>481</ele>
        <time>2018-09-01T17:52:27Z</time>
      </trkpt>
      <trkpt lat="45.76962" lon="5.82163">
        <ele>495</ele>
        <time>2018-09-01T17:52:27Z</time>
      </trkpt>
      <trkpt lat="45.76968" lon="5.82161">
        <ele>495</ele>
        <time>2018-09-01T17:52:27Z</time>
      </trkpt>
      <trkpt lat="45.76973" lon="5.82157">
        <ele>495</ele>
        <time>2018-09-01T17:52:43Z</time>
      </trkpt>
      <trkpt lat="45.76978" lon="5.82155">
        <ele>495</ele>
        <time>2018-09-01T17:52:43Z</time>
      </trkpt>
      <trkpt lat="45.76983" lon="5.82153">
        <ele>495</ele>
        <time>2018-09-01T17:52:43Z</time>
      </trkpt>
      <trkpt lat="45.76989" lon="5.82151">
        <ele>495</ele>
        <time>2018-09-01T17:52:43Z</time>
      </trkpt>
      <trkpt lat="45.76995" lon="5.82148">
        <ele>495</ele>
        <time>2018-09-01T17:52:59Z</time>
      </trkpt>
      <trkpt lat="45.77001" lon="5.82146">
        <ele>495</ele>
        <time>2018-09-01T17:52:59Z</time>
      </trkpt>
      <trkpt lat="45.77006" lon="5.82144">
        <ele>495</ele>
        <time>2018-09-01T17:52:59Z</time>
      </trkpt>
      <trkpt lat="45.77012" lon="5.82142">
        <ele>495</ele>
        <time>2018-09-01T17:52:59Z</time>
      </trkpt>
      <trkpt lat="45.77018" lon="5.82141">
        <ele>495</ele>
        <time>2018-09-01T17:53:15Z</time>
      </trkpt>
      <trkpt lat="45.77025" lon="5.82139">
        <ele>495</ele>
        <time>2018-09-01T17:53:15Z</time>
      </trkpt>
      <trkpt lat="45.7703" lon="5.82137">
        <ele>495</ele>
        <time>2018-09-01T17:53:15Z</time>
      </trkpt>
      <trkpt lat="45.77036" lon="5.82135">
        <ele>495</ele>
        <time>2018-09-01T17:53:15Z</time>
      </trkpt>
      <trkpt lat="45.77041" lon="5.82131">
        <ele>495</ele>
        <time>2018-09-01T17:53:31Z</time>
      </trkpt>
      <trkpt lat="45.77054" lon="5.82126">
        <ele>511</ele>
        <time>2018-09-01T17:53:31Z</time>
      </trkpt>
      <trkpt lat="45.77064" lon="5.82122">
        <ele>486</ele>
        <time>2018-09-01T17:53:31Z</time>
      </trkpt>
      <trkpt lat="45.77069" lon="5.8212">
        <ele>486</ele>
        <time>2018-09-01T17:53:31Z</time>
      </trkpt>
      <trkpt lat="45.77073" lon="5.82115">
        <ele>486</ele>
        <time>2018-09-01T17:53:47Z</time>
      </trkpt>
      <trkpt lat="45.77075" lon="5.82109">
        <ele>486</ele>
        <time>2018-09-01T17:53:47Z</time>
      </trkpt>
      <trkpt lat="45.77082" lon="5.82098">
        <ele>486</ele>
        <time>2018-09-01T17:53:47Z</time>
      </trkpt>
      <trkpt lat="45.77083" lon="5.82063">
        <ele>486</ele>
        <time>2018-09-01T17:53:47Z</time>
      </trkpt>
      <trkpt lat="45.77079" lon="5.82032">
        <ele>481</ele>
        <time>2018-09-01T17:54:03Z</time>
      </trkpt>
      <trkpt lat="45.77073" lon="5.81999">
        <ele>481</ele>
        <time>2018-09-01T17:54:03Z</time>
      </trkpt>
      <trkpt lat="45.77069" lon="5.81974">
        <ele>481</ele>
        <time>2018-09-01T17:54:03Z</time>
      </trkpt>
      <trkpt lat="45.77068" lon="5.81967">
        <ele>481</ele>
        <time>2018-09-01T17:54:03Z</time>
      </trkpt>
      <trkpt lat="45.77071" lon="5.81962">
        <ele>481</ele>
        <time>2018-09-01T17:54:19Z</time>
      </trkpt>
      <trkpt lat="45.77073" lon="5.81958">
        <ele>484</ele>
        <time>2018-09-01T17:54:19Z</time>
      </trkpt>
      <trkpt lat="45.77084" lon="5.81952">
        <ele>484</ele>
        <time>2018-09-01T17:54:19Z</time>
      </trkpt>
      <trkpt lat="45.77102" lon="5.81945">
        <ele>484</ele>
        <time>2018-09-01T17:54:19Z</time>
      </trkpt>
      <trkpt lat="45.77121" lon="5.81946">
        <ele>484</ele>
        <time>2018-09-01T17:54:35Z</time>
      </trkpt>
      <trkpt lat="45.77146" lon="5.81939">
        <ele>481</ele>
        <time>2018-09-01T17:54:35Z</time>
      </trkpt>
      <trkpt lat="45.77162" lon="5.81932">
        <ele>481</ele>
        <time>2018-09-01T17:54:35Z</time>
      </trkpt>
      <trkpt lat="45.77175" lon="5.81933">
        <ele>481</ele>
        <time>2018-09-01T17:54:35Z</time>
      </trkpt>
      <trkpt lat="45.77184" lon="5.81934">
        <ele>481</ele>
        <time>2018-09-01T17:54:51Z</time>
      </trkpt>
      <trkpt lat="45.77189" lon="5.81936">
        <ele>481</ele>
        <time>2018-09-01T17:54:51Z</time>
      </trkpt>
      <trkpt lat="45.77194" lon="5.81938">
        <ele>481</ele>
        <time>2018-09-01T17:54:51Z</time>
      </trkpt>
      <trkpt lat="45.772" lon="5.8194">
        <ele>481</ele>
        <time>2018-09-01T17:54:51Z</time>
      </trkpt>
      <trkpt lat="45.77206" lon="5.81941">
        <ele>481</ele>
        <time>2018-09-01T17:55:07Z</time>
      </trkpt>
      <trkpt lat="45.7721" lon="5.81941">
        <ele>478</ele>
        <time>2018-09-01T17:55:07Z</time>
      </trkpt>
      <trkpt lat="45.77214" lon="5.81942">
        <ele>478</ele>
        <time>2018-09-01T17:55:07Z</time>
      </trkpt>
      <trkpt lat="45.77219" lon="5.81944">
        <ele>478</ele>
        <time>2018-09-01T17:55:07Z</time>
      </trkpt>
      <trkpt lat="45.77224" lon="5.81946">
        <ele>478</ele>
        <time>2018-09-01T17:55:23Z</time>
      </trkpt>
      <trkpt lat="45.77229" lon="5.81949">
        <ele>478</ele>
        <time>2018-09-01T17:55:23Z</time>
      </trkpt>
      <trkpt lat="45.77233" lon="5.81951">
        <ele>478</ele>
        <time>2018-09-01T17:55:23Z</time>
      </trkpt>
      <trkpt lat="45.77239" lon="5.81955">
        <ele>478</ele>
        <time>2018-09-01T17:55:23Z</time>
      </trkpt>
      <trkpt lat="45.77244" lon="5.81959">
        <ele>478</ele>
        <time>2018-09-01T17:55:39Z</time>
      </trkpt>
      <trkpt lat="45.77248" lon="5.81963">
        <ele>478</ele>
        <time>2018-09-01T17:55:39Z</time>
      </trkpt>
      <trkpt lat="45.77252" lon="5.81966">
        <ele>478</ele>
        <time>2018-09-01T17:55:39Z</time>
      </trkpt>
      <trkpt lat="45.77259" lon="5.81969">
        <ele>478</ele>
        <time>2018-09-01T17:55:39Z</time>
      </trkpt>
      <trkpt lat="45.77265" lon="5.81972">
        <ele>478</ele>
        <time>2018-09-01T17:55:55Z</time>
      </trkpt>
      <trkpt lat="45.7727" lon="5.81973">
        <ele>478</ele>
        <time>2018-09-01T17:55:55Z</time>
      </trkpt>
      <trkpt lat="45.77276" lon="5.81974">
        <ele>478</ele>
        <time>2018-09-01T17:55:55Z</time>
      </trkpt>
      <trkpt lat="45.77282" lon="5.81975">
        <ele>478</ele>
        <time>2018-09-01T17:55:55Z</time>
      </trkpt>
      <trkpt lat="45.77285" lon="5.81976">
        <ele>478</ele>
        <time>2018-09-01T17:56:11Z</time>
      </trkpt>
      <trkpt lat="45.77289" lon="5.81977">
        <ele>478</ele>
        <time>2018-09-01T17:56:11Z</time>
      </trkpt>
      <trkpt lat="45.77293" lon="5.8198">
        <ele>472</ele>
        <time>2018-09-01T17:56:11Z</time>
      </trkpt>
      <trkpt lat="45.773" lon="5.81983">
        <ele>472</ele>
        <time>2018-09-01T17:56:11Z</time>
      </trkpt>
      <trkpt lat="45.77306" lon="5.81986">
        <ele>472</ele>
        <time>2018-09-01T17:56:27Z</time>
      </trkpt>
      <trkpt lat="45.77311" lon="5.81989">
        <ele>472</ele>
        <time>2018-09-01T17:56:27Z</time>
      </trkpt>
      <trkpt lat="45.77317" lon="5.81991">
        <ele>472</ele>
        <time>2018-09-01T17:56:27Z</time>
      </trkpt>
      <trkpt lat="45.77323" lon="5.81992">
        <ele>472</ele>
        <time>2018-09-01T17:56:27Z</time>
      </trkpt>
      <trkpt lat="45.77329" lon="5.81994">
        <ele>472</ele>
        <time>2018-09-01T17:56:43Z</time>
      </trkpt>
      <trkpt lat="45.77334" lon="5.81996">
        <ele>472</ele>
        <time>2018-09-01T17:56:43Z</time>
      </trkpt>
      <trkpt lat="45.77339" lon="5.81998">
        <ele>472</ele>
        <time>2018-09-01T17:56:43Z</time>
      </trkpt>
      <trkpt lat="45.77345" lon="5.81997">
        <ele>472</ele>
        <time>2018-09-01T17:56:43Z</time>
      </trkpt>
      <trkpt lat="45.77351" lon="5.81997">
        <ele>472</ele>
        <time>2018-09-01T17:56:59Z</time>
      </trkpt>
      <trkpt lat="45.77357" lon="5.81997">
        <ele>472</ele>
        <time>2018-09-01T17:56:59Z</time>
      </trkpt>
      <trkpt lat="45.77363" lon="5.81996">
        <ele>472</ele>
        <time>2018-09-01T17:56:59Z</time>
      </trkpt>
      <trkpt lat="45.77368" lon="5.81993">
        <ele>472</ele>
        <time>2018-09-01T17:56:59Z</time>
      </trkpt>
      <trkpt lat="45.77373" lon="5.8199">
        <ele>472</ele>
        <time>2018-09-01T17:57:15Z</time>
      </trkpt>
      <trkpt lat="45.77378" lon="5.81988">
        <ele>458</ele>
        <time>2018-09-01T17:57:15Z</time>
      </trkpt>
      <trkpt lat="45.77383" lon="5.81985">
        <ele>458</ele>
        <time>2018-09-01T17:57:15Z</time>
      </trkpt>
      <trkpt lat="45.77387" lon="5.81981">
        <ele>458</ele>
        <time>2018-09-01T17:57:15Z</time>
      </trkpt>
      <trkpt lat="45.77391" lon="5.81976">
        <ele>458</ele>
        <time>2018-09-01T17:57:31Z</time>
      </trkpt>
      <trkpt lat="45.77392" lon="5.81969">
        <ele>458</ele>
        <time>2018-09-01T17:57:31Z</time>
      </trkpt>
      <trkpt lat="45.77394" lon="5.81962">
        <ele>458</ele>
        <time>2018-09-01T17:57:31Z</time>
      </trkpt>
      <trkpt lat="45.77398" lon="5.81958">
        <ele>449</ele>
        <time>2018-09-01T17:57:31Z</time>
      </trkpt>
      <trkpt lat="45.77403" lon="5.81955">
        <ele>449</ele>
        <time>2018-09-01T17:57:47Z</time>
      </trkpt>
      <trkpt lat="45.77409" lon="5.81956">
        <ele>449</ele>
        <time>2018-09-01T17:57:47Z</time>
      </trkpt>
      <trkpt lat="45.77413" lon="5.8196">
        <ele>458</ele>
        <time>2018-09-01T17:57:47Z</time>
      </trkpt>
      <trkpt lat="45.77418" lon="5.81965">
        <ele>458</ele>
        <time>2018-09-01T17:57:47Z</time>
      </trkpt>
      <trkpt lat="45.77423" lon="5.81968">
        <ele>458</ele>
        <time>2018-09-01T17:58:03Z</time>
      </trkpt>
      <trkpt lat="45.77429" lon="5.81973">
        <ele>458</ele>
        <time>2018-09-01T17:58:03Z</time>
      </trkpt>
      <trkpt lat="45.77434" lon="5.81976">
        <ele>458</ele>
        <time>2018-09-01T17:58:03Z</time>
      </trkpt>
      <trkpt lat="45.7744" lon="5.81978">
        <ele>458</ele>
        <time>2018-09-01T17:58:03Z</time>
      </trkpt>
      <trkpt lat="45.77446" lon="5.81979">
        <ele>458</ele>
        <time>2018-09-01T17:58:19Z</time>
      </trkpt>
      <trkpt lat="45.77452" lon="5.8198">
        <ele>458</ele>
        <time>2018-09-01T17:58:19Z</time>
      </trkpt>
      <trkpt lat="45.77458" lon="5.81982">
        <ele>458</ele>
        <time>2018-09-01T17:58:19Z</time>
      </trkpt>
      <trkpt lat="45.77463" lon="5.81981">
        <ele>449</ele>
        <time>2018-09-01T17:58:19Z</time>
      </trkpt>
      <trkpt lat="45.77469" lon="5.81982">
        <ele>449</ele>
        <time>2018-09-01T17:58:35Z</time>
      </trkpt>
      <trkpt lat="45.77474" lon="5.81985">
        <ele>449</ele>
        <time>2018-09-01T17:58:35Z</time>
      </trkpt>
      <trkpt lat="45.77479" lon="5.81986">
        <ele>449</ele>
        <time>2018-09-01T17:58:35Z</time>
      </trkpt>
      <trkpt lat="45.77485" lon="5.81987">
        <ele>449</ele>
        <time>2018-09-01T17:58:35Z</time>
      </trkpt>
      <trkpt lat="45.77489" lon="5.81988">
        <ele>449</ele>
        <time>2018-09-01T17:58:55Z</time>
      </trkpt>
      <trkpt lat="45.77491" lon="5.81988">
        <ele>449</ele>
        <time>2018-09-01T17:58:55Z</time>
      </trkpt>
      <trkpt lat="45.77492" lon="5.81988">
        <ele>449</ele>
        <time>2018-09-01T17:58:55Z</time>
      </trkpt>
      <trkpt lat="45.77495" lon="5.8199">
        <ele>449</ele>
        <time>2018-09-01T17:58:55Z</time>
      </trkpt>
      <trkpt lat="45.77499" lon="5.81991">
        <ele>449</ele>
        <time>2018-09-01T17:58:55Z</time>
      </trkpt>
      <trkpt lat="45.77503" lon="5.81992">
        <ele>449</ele>
        <time>2018-09-01T17:59:11Z</time>
      </trkpt>
      <trkpt lat="45.77507" lon="5.81993">
        <ele>449</ele>
        <time>2018-09-01T17:59:11Z</time>
      </trkpt>
      <trkpt lat="45.77511" lon="5.81993">
        <ele>449</ele>
        <time>2018-09-01T17:59:11Z</time>
      </trkpt>
      <trkpt lat="45.77515" lon="5.81993">
        <ele>449</ele>
        <time>2018-09-01T17:59:11Z</time>
      </trkpt>
      <trkpt lat="45.77519" lon="5.81993">
        <ele>449</ele>
        <time>2018-09-01T17:59:31Z</time>
      </trkpt>
      <trkpt lat="45.7752" lon="5.81993">
        <ele>449</ele>
        <time>2018-09-01T17:59:31Z</time>
      </trkpt>
      <trkpt lat="45.77524" lon="5.81993">
        <ele>449</ele>
        <time>2018-09-01T17:59:31Z</time>
      </trkpt>
      <trkpt lat="45.77527" lon="5.81993">
        <ele>449</ele>
        <time>2018-09-01T17:59:31Z</time>
      </trkpt>
      <trkpt lat="45.77533" lon="5.81994">
        <ele>449</ele>
        <time>2018-09-01T17:59:31Z</time>
      </trkpt>
      <trkpt lat="45.77539" lon="5.81993">
        <ele>449</ele>
        <time>2018-09-01T17:59:47Z</time>
      </trkpt>
      <trkpt lat="45.77545" lon="5.81988">
        <ele>436</ele>
        <time>2018-09-01T17:59:47Z</time>
      </trkpt>
      <trkpt lat="45.77549" lon="5.81982">
        <ele>436</ele>
        <time>2018-09-01T17:59:47Z</time>
      </trkpt>
      <trkpt lat="45.77555" lon="5.81979">
        <ele>436</ele>
        <time>2018-09-01T17:59:47Z</time>
      </trkpt>
      <trkpt lat="45.7756" lon="5.81979">
        <ele>436</ele>
        <time>2018-09-01T18:00:03Z</time>
      </trkpt>
      <trkpt lat="45.77564" lon="5.81976">
        <ele>436</ele>
        <time>2018-09-01T18:00:03Z</time>
      </trkpt>
      <trkpt lat="45.77567" lon="5.81971">
        <ele>436</ele>
        <time>2018-09-01T18:00:03Z</time>
      </trkpt>
      <trkpt lat="45.77571" lon="5.81966">
        <ele>436</ele>
        <time>2018-09-01T18:00:03Z</time>
      </trkpt>
      <trkpt lat="45.77574" lon="5.81958">
        <ele>421</ele>
        <time>2018-09-01T18:01:15Z</time>
      </trkpt>
      <trkpt lat="45.77575" lon="5.81957">
        <ele>421</ele>
        <time>2018-09-01T18:01:15Z</time>
      </trkpt>
      <trkpt lat="45.77575" lon="5.81958">
        <ele>421</ele>
        <time>2018-09-01T18:01:15Z</time>
      </trkpt>
      <trkpt lat="45.77576" lon="5.81957">
        <ele>421</ele>
        <time>2018-09-01T18:01:15Z</time>
      </trkpt>
      <trkpt lat="45.77581" lon="5.81955">
        <ele>421</ele>
        <time>2018-09-01T18:01:15Z</time>
      </trkpt>
      <trkpt lat="45.77587" lon="5.81954">
        <ele>421</ele>
        <time>2018-09-01T18:01:31Z</time>
      </trkpt>
      <trkpt lat="45.77592" lon="5.81958">
        <ele>421</ele>
        <time>2018-09-01T18:01:31Z</time>
      </trkpt>
      <trkpt lat="45.77596" lon="5.81963">
        <ele>436</ele>
        <time>2018-09-01T18:01:31Z</time>
      </trkpt>
      <trkpt lat="45.77601" lon="5.81966">
        <ele>436</ele>
        <time>2018-09-01T18:01:31Z</time>
      </trkpt>
      <trkpt lat="45.77606" lon="5.8197">
        <ele>436</ele>
        <time>2018-09-01T18:01:47Z</time>
      </trkpt>
      <trkpt lat="45.77611" lon="5.81975">
        <ele>436</ele>
        <time>2018-09-01T18:01:47Z</time>
      </trkpt>
      <trkpt lat="45.77616" lon="5.81978">
        <ele>436</ele>
        <time>2018-09-01T18:01:47Z</time>
      </trkpt>
      <trkpt lat="45.77622" lon="5.81981">
        <ele>436</ele>
        <time>2018-09-01T18:01:47Z</time>
      </trkpt>
      <trkpt lat="45.77628" lon="5.81983">
        <ele>426</ele>
        <time>2018-09-01T18:02:03Z</time>
      </trkpt>
      <trkpt lat="45.77634" lon="5.81985">
        <ele>426</ele>
        <time>2018-09-01T18:02:03Z</time>
      </trkpt>
      <trkpt lat="45.7764" lon="5.81984">
        <ele>426</ele>
        <time>2018-09-01T18:02:03Z</time>
      </trkpt>
      <trkpt lat="45.77646" lon="5.81981">
        <ele>426</ele>
        <time>2018-09-01T18:02:03Z</time>
      </trkpt>
      <trkpt lat="45.7765" lon="5.81977">
        <ele>426</ele>
        <time>2018-09-01T18:02:19Z</time>
      </trkpt>
      <trkpt lat="45.77652" lon="5.81969">
        <ele>426</ele>
        <time>2018-09-01T18:02:19Z</time>
      </trkpt>
      <trkpt lat="45.77651" lon="5.81961">
        <ele>426</ele>
        <time>2018-09-01T18:02:19Z</time>
      </trkpt>
      <trkpt lat="45.77648" lon="5.81954">
        <ele>417</ele>
        <time>2018-09-01T18:02:19Z</time>
      </trkpt>
      <trkpt lat="45.77643" lon="5.81949">
        <ele>417</ele>
        <time>2018-09-01T18:02:35Z</time>
      </trkpt>
      <trkpt lat="45.77638" lon="5.81945">
        <ele>417</ele>
        <time>2018-09-01T18:02:35Z</time>
      </trkpt>
      <trkpt lat="45.77633" lon="5.81943">
        <ele>417</ele>
        <time>2018-09-01T18:02:35Z</time>
      </trkpt>
      <trkpt lat="45.77627" lon="5.81941">
        <ele>417</ele>
        <time>2018-09-01T18:02:35Z</time>
      </trkpt>
      <trkpt lat="45.77622" lon="5.81938">
        <ele>421</ele>
        <time>2018-09-01T18:03:03Z</time>
      </trkpt>
      <trkpt lat="45.77621" lon="5.81937">
        <ele>421</ele>
        <time>2018-09-01T18:03:03Z</time>
      </trkpt>
      <trkpt lat="45.7762" lon="5.81937">
        <ele>421</ele>
        <time>2018-09-01T18:03:03Z</time>
      </trkpt>
      <trkpt lat="45.77617" lon="5.81935">
        <ele>421</ele>
        <time>2018-09-01T18:03:03Z</time>
      </trkpt>
      <trkpt lat="45.77611" lon="5.81934">
        <ele>421</ele>
        <time>2018-09-01T18:03:03Z</time>
      </trkpt>
      <trkpt lat="45.77606" lon="5.81935">
        <ele>421</ele>
        <time>2018-09-01T18:03:19Z</time>
      </trkpt>
      <trkpt lat="45.77601" lon="5.81934">
        <ele>421</ele>
        <time>2018-09-01T18:03:19Z</time>
      </trkpt>
      <trkpt lat="45.77595" lon="5.81931">
        <ele>421</ele>
        <time>2018-09-01T18:03:19Z</time>
      </trkpt>
      <trkpt lat="45.7759" lon="5.81928">
        <ele>421</ele>
        <time>2018-09-01T18:03:19Z</time>
      </trkpt>
      <trkpt lat="45.77585" lon="5.81925">
        <ele>421</ele>
        <time>2018-09-01T18:03:35Z</time>
      </trkpt>
      <trkpt lat="45.77579" lon="5.81923">
        <ele>421</ele>
        <time>2018-09-01T18:03:35Z</time>
      </trkpt>
      <trkpt lat="45.77574" lon="5.8192">
        <ele>421</ele>
        <time>2018-09-01T18:03:35Z</time>
      </trkpt>
      <trkpt lat="45.77569" lon="5.81917">
        <ele>421</ele>
        <time>2018-09-01T18:03:35Z</time>
      </trkpt>
      <trkpt lat="45.77563" lon="5.81913">
        <ele>421</ele>
        <time>2018-09-01T18:03:51Z</time>
      </trkpt>
      <trkpt lat="45.77558" lon="5.8191">
        <ele>421</ele>
        <time>2018-09-01T18:03:51Z</time>
      </trkpt>
      <trkpt lat="45.77553" lon="5.81905">
        <ele>421</ele>
        <time>2018-09-01T18:03:51Z</time>
      </trkpt>
      <trkpt lat="45.77549" lon="5.819">
        <ele>421</ele>
        <time>2018-09-01T18:03:51Z</time>
      </trkpt>
      <trkpt lat="45.77545" lon="5.81894">
        <ele>421</ele>
        <time>2018-09-01T18:04:07Z</time>
      </trkpt>
      <trkpt lat="45.77544" lon="5.81887">
        <ele>421</ele>
        <time>2018-09-01T18:04:07Z</time>
      </trkpt>
      <trkpt lat="45.77542" lon="5.81878">
        <ele>421</ele>
        <time>2018-09-01T18:04:07Z</time>
      </trkpt>
      <trkpt lat="45.77541" lon="5.81871">
        <ele>417</ele>
        <time>2018-09-01T18:04:07Z</time>
      </trkpt>
      <trkpt lat="45.77542" lon="5.81863">
        <ele>410</ele>
        <time>2018-09-01T18:04:23Z</time>
      </trkpt>
      <trkpt lat="45.77542" lon="5.81856">
        <ele>417</ele>
        <time>2018-09-01T18:04:23Z</time>
      </trkpt>
      <trkpt lat="45.77541" lon="5.81848">
        <ele>417</ele>
        <time>2018-09-01T18:04:23Z</time>
      </trkpt>
      <trkpt lat="45.7754" lon="5.8184">
        <ele>417</ele>
        <time>2018-09-01T18:04:23Z</time>
      </trkpt>
      <trkpt lat="45.77539" lon="5.81832">
        <ele>417</ele>
        <time>2018-09-01T18:04:39Z</time>
      </trkpt>
      <trkpt lat="45.77538" lon="5.81824">
        <ele>417</ele>
        <time>2018-09-01T18:04:39Z</time>
      </trkpt>
      <trkpt lat="45.77539" lon="5.81816">
        <ele>417</ele>
        <time>2018-09-01T18:04:39Z</time>
      </trkpt>
      <trkpt lat="45.77538" lon="5.81808">
        <ele>417</ele>
        <time>2018-09-01T18:04:39Z</time>
      </trkpt>
      <trkpt lat="45.77537" lon="5.81801">
        <ele>417</ele>
        <time>2018-09-01T18:04:55Z</time>
      </trkpt>
      <trkpt lat="45.77536" lon="5.81794">
        <ele>417</ele>
        <time>2018-09-01T18:04:55Z</time>
      </trkpt>
      <trkpt lat="45.77535" lon="5.81787">
        <ele>410</ele>
        <time>2018-09-01T18:04:55Z</time>
      </trkpt>
      <trkpt lat="45.77536" lon="5.81779">
        <ele>410</ele>
        <time>2018-09-01T18:04:55Z</time>
      </trkpt>
      <trkpt lat="45.77536" lon="5.81771">
        <ele>410</ele>
        <time>2018-09-01T18:05:11Z</time>
      </trkpt>
      <trkpt lat="45.77535" lon="5.81762">
        <ele>410</ele>
        <time>2018-09-01T18:05:11Z</time>
      </trkpt>
      <trkpt lat="45.77535" lon="5.81753">
        <ele>410</ele>
        <time>2018-09-01T18:05:11Z</time>
      </trkpt>
      <trkpt lat="45.77534" lon="5.81745">
        <ele>410</ele>
        <time>2018-09-01T18:05:11Z</time>
      </trkpt>
      <trkpt lat="45.77533" lon="5.81738">
        <ele>410</ele>
        <time>2018-09-01T18:05:27Z</time>
      </trkpt>
      <trkpt lat="45.77531" lon="5.81732">
        <ele>410</ele>
        <time>2018-09-01T18:05:27Z</time>
      </trkpt>
      <trkpt lat="45.7753" lon="5.81725">
        <ele>410</ele>
        <time>2018-09-01T18:05:27Z</time>
      </trkpt>
      <trkpt lat="45.77527" lon="5.81718">
        <ele>410</ele>
        <time>2018-09-01T18:05:27Z</time>
      </trkpt>
      <trkpt lat="45.77524" lon="5.81711">
        <ele>410</ele>
        <time>2018-09-01T18:05:43Z</time>
      </trkpt>
      <trkpt lat="45.77521" lon="5.81706">
        <ele>402</ele>
        <time>2018-09-01T18:05:43Z</time>
      </trkpt>
      <trkpt lat="45.77517" lon="5.81701">
        <ele>402</ele>
        <time>2018-09-01T18:05:43Z</time>
      </trkpt>
      <trkpt lat="45.77514" lon="5.81695">
        <ele>402</ele>
        <time>2018-09-01T18:05:43Z</time>
      </trkpt>
      <trkpt lat="45.77509" lon="5.8169">
        <ele>402</ele>
        <time>2018-09-01T18:05:59Z</time>
      </trkpt>
      <trkpt lat="45.77505" lon="5.81686">
        <ele>402</ele>
        <time>2018-09-01T18:05:59Z</time>
      </trkpt>
      <trkpt lat="45.775" lon="5.81683">
        <ele>402</ele>
        <time>2018-09-01T18:05:59Z</time>
      </trkpt>
      <trkpt lat="45.77495" lon="5.8168">
        <ele>402</ele>
        <time>2018-09-01T18:05:59Z</time>
      </trkpt>
      <trkpt lat="45.7749" lon="5.81679">
        <ele>402</ele>
        <time>2018-09-01T18:06:15Z</time>
      </trkpt>
      <trkpt lat="45.77485" lon="5.81676">
        <ele>402</ele>
        <time>2018-09-01T18:06:15Z</time>
      </trkpt>
      <trkpt lat="45.7748" lon="5.8167">
        <ele>402</ele>
        <time>2018-09-01T18:06:15Z</time>
      </trkpt>
      <trkpt lat="45.77477" lon="5.81662">
        <ele>402</ele>
        <time>2018-09-01T18:06:15Z</time>
      </trkpt>
      <trkpt lat="45.77476" lon="5.81652">
        <ele>402</ele>
        <time>2018-09-01T18:06:31Z</time>
      </trkpt>
      <trkpt lat="45.77479" lon="5.81644">
        <ele>402</ele>
        <time>2018-09-01T18:06:31Z</time>
      </trkpt>
      <trkpt lat="45.77483" lon="5.81638">
        <ele>402</ele>
        <time>2018-09-01T18:06:31Z</time>
      </trkpt>
      <trkpt lat="45.77488" lon="5.81635">
        <ele>402</ele>
        <time>2018-09-01T18:06:31Z</time>
      </trkpt>
      <trkpt lat="45.77492" lon="5.81631">
        <ele>402</ele>
        <time>2018-09-01T18:06:47Z</time>
      </trkpt>
      <trkpt lat="45.77496" lon="5.81627">
        <ele>402</ele>
        <time>2018-09-01T18:06:47Z</time>
      </trkpt>
      <trkpt lat="45.77501" lon="5.81622">
        <ele>393</ele>
        <time>2018-09-01T18:06:47Z</time>
      </trkpt>
      <trkpt lat="45.77504" lon="5.81616">
        <ele>393</ele>
        <time>2018-09-01T18:06:47Z</time>
      </trkpt>
      <trkpt lat="45.77509" lon="5.8161">
        <ele>393</ele>
        <time>2018-09-01T18:07:03Z</time>
      </trkpt>
      <trkpt lat="45.77511" lon="5.81604">
        <ele>393</ele>
        <time>2018-09-01T18:07:03Z</time>
      </trkpt>
      <trkpt lat="45.77514" lon="5.81596">
        <ele>393</ele>
        <time>2018-09-01T18:07:03Z</time>
      </trkpt>
      <trkpt lat="45.77516" lon="5.81588">
        <ele>393</ele>
        <time>2018-09-01T18:07:03Z</time>
      </trkpt>
      <trkpt lat="45.77519" lon="5.81581">
        <ele>393</ele>
        <time>2018-09-01T18:07:19Z</time>
      </trkpt>
      <trkpt lat="45.77522" lon="5.81575">
        <ele>393</ele>
        <time>2018-09-01T18:07:19Z</time>
      </trkpt>
      <trkpt lat="45.77526" lon="5.81568">
        <ele>393</ele>
        <time>2018-09-01T18:07:19Z</time>
      </trkpt>
      <trkpt lat="45.77529" lon="5.81561">
        <ele>393</ele>
        <time>2018-09-01T18:07:19Z</time>
      </trkpt>
      <trkpt lat="45.77533" lon="5.81555">
        <ele>393</ele>
        <time>2018-09-01T18:07:35Z</time>
      </trkpt>
      <trkpt lat="45.77537" lon="5.8155">
        <ele>393</ele>
        <time>2018-09-01T18:07:35Z</time>
      </trkpt>
      <trkpt lat="45.77541" lon="5.81545">
        <ele>393</ele>
        <time>2018-09-01T18:07:35Z</time>
      </trkpt>
      <trkpt lat="45.77546" lon="5.81541">
        <ele>386</ele>
        <time>2018-09-01T18:07:35Z</time>
      </trkpt>
      <trkpt lat="45.7755" lon="5.81536">
        <ele>386</ele>
        <time>2018-09-01T18:07:51Z</time>
      </trkpt>
      <trkpt lat="45.77555" lon="5.81532">
        <ele>386</ele>
        <time>2018-09-01T18:07:51Z</time>
      </trkpt>
      <trkpt lat="45.77558" lon="5.81527">
        <ele>386</ele>
        <time>2018-09-01T18:07:51Z</time>
      </trkpt>
      <trkpt lat="45.77562" lon="5.81522">
        <ele>386</ele>
        <time>2018-09-01T18:07:51Z</time>
      </trkpt>
      <trkpt lat="45.77567" lon="5.81517">
        <ele>386</ele>
        <time>2018-09-01T18:08:07Z</time>
      </trkpt>
      <trkpt lat="45.7757" lon="5.8151">
        <ele>386</ele>
        <time>2018-09-01T18:08:07Z</time>
      </trkpt>
      <trkpt lat="45.77574" lon="5.81505">
        <ele>386</ele>
        <time>2018-09-01T18:08:07Z</time>
      </trkpt>
      <trkpt lat="45.77578" lon="5.81498">
        <ele>386</ele>
        <time>2018-09-01T18:08:07Z</time>
      </trkpt>
      <trkpt lat="45.77582" lon="5.81492">
        <ele>386</ele>
        <time>2018-09-01T18:08:23Z</time>
      </trkpt>
      <trkpt lat="45.77587" lon="5.81486">
        <ele>386</ele>
        <time>2018-09-01T18:08:23Z</time>
      </trkpt>
      <trkpt lat="45.77591" lon="5.81479">
        <ele>386</ele>
        <time>2018-09-01T18:08:23Z</time>
      </trkpt>
      <trkpt lat="45.77595" lon="5.81472">
        <ele>386</ele>
        <time>2018-09-01T18:08:23Z</time>
      </trkpt>
      <trkpt lat="45.77601" lon="5.81463">
        <ele>386</ele>
        <time>2018-09-01T18:08:39Z</time>
      </trkpt>
      <trkpt lat="45.77601" lon="5.81463">
        <ele>386</ele>
        <time>2018-09-01T18:08:39Z</time>
      </trkpt>
      <trkpt lat="45.77603" lon="5.81458">
        <ele>387</ele>
        <time>2018-09-01T18:08:39Z</time>
      </trkpt>
      <trkpt lat="45.77604" lon="5.8145">
        <ele>387</ele>
        <time>2018-09-01T18:08:39Z</time>
      </trkpt>
      <trkpt lat="45.77602" lon="5.81442">
        <ele>387</ele>
        <time>2018-09-01T18:08:55Z</time>
      </trkpt>
      <trkpt lat="45.776" lon="5.81435">
        <ele>387</ele>
        <time>2018-09-01T18:08:55Z</time>
      </trkpt>
      <trkpt lat="45.77596" lon="5.81429">
        <ele>387</ele>
        <time>2018-09-01T18:08:55Z</time>
      </trkpt>
      <trkpt lat="45.77592" lon="5.81423">
        <ele>387</ele>
        <time>2018-09-01T18:08:55Z</time>
      </trkpt>
      <trkpt lat="45.77588" lon="5.81416">
        <ele>387</ele>
        <time>2018-09-01T18:09:11Z</time>
      </trkpt>
      <trkpt lat="45.77584" lon="5.8141">
        <ele>387</ele>
        <time>2018-09-01T18:09:11Z</time>
      </trkpt>
      <trkpt lat="45.7758" lon="5.81404">
        <ele>387</ele>
        <time>2018-09-01T18:09:11Z</time>
      </trkpt>
      <trkpt lat="45.77576" lon="5.81398">
        <ele>387</ele>
        <time>2018-09-01T18:09:11Z</time>
      </trkpt>
      <trkpt lat="45.77572" lon="5.81392">
        <ele>387</ele>
        <time>2018-09-01T18:09:27Z</time>
      </trkpt>
      <trkpt lat="45.77569" lon="5.81386">
        <ele>387</ele>
        <time>2018-09-01T18:09:27Z</time>
      </trkpt>
      <trkpt lat="45.77565" lon="5.8138">
        <ele>387</ele>
        <time>2018-09-01T18:09:27Z</time>
      </trkpt>
      <trkpt lat="45.77561" lon="5.81375">
        <ele>391</ele>
        <time>2018-09-01T18:09:27Z</time>
      </trkpt>
      <trkpt lat="45.77557" lon="5.81369">
        <ele>391</ele>
        <time>2018-09-01T18:09:43Z</time>
      </trkpt>
      <trkpt lat="45.77553" lon="5.81364">
        <ele>391</ele>
        <time>2018-09-01T18:09:43Z</time>
      </trkpt>
      <trkpt lat="45.77548" lon="5.81359">
        <ele>391</ele>
        <time>2018-09-01T18:09:43Z</time>
      </trkpt>
      <trkpt lat="45.77544" lon="5.81354">
        <ele>391</ele>
        <time>2018-09-01T18:09:43Z</time>
      </trkpt>
      <trkpt lat="45.7754" lon="5.81347">
        <ele>388</ele>
        <time>2018-09-01T18:09:59Z</time>
      </trkpt>
      <trkpt lat="45.77536" lon="5.8134">
        <ele>388</ele>
        <time>2018-09-01T18:09:59Z</time>
      </trkpt>
      <trkpt lat="45.77534" lon="5.81333">
        <ele>388</ele>
        <time>2018-09-01T18:09:59Z</time>
      </trkpt>
      <trkpt lat="45.77533" lon="5.81331">
        <ele>388</ele>
        <time>2018-09-01T18:09:59Z</time>
      </trkpt>
      <trkpt lat="45.77529" lon="5.81327">
        <ele>388</ele>
        <time>2018-09-01T18:11:03Z</time>
      </trkpt>
      <trkpt lat="45.77529" lon="5.81327">
        <ele>388</ele>
        <time>2018-09-01T18:11:03Z</time>
      </trkpt>
      <trkpt lat="45.77529" lon="5.81326">
        <ele>388</ele>
        <time>2018-09-01T18:11:03Z</time>
      </trkpt>
      <trkpt lat="45.77528" lon="5.81321">
        <ele>388</ele>
        <time>2018-09-01T18:11:03Z</time>
      </trkpt>
      <trkpt lat="45.77527" lon="5.81315">
        <ele>388</ele>
        <time>2018-09-01T18:11:03Z</time>
      </trkpt>
      <trkpt lat="45.77525" lon="5.81309">
        <ele>388</ele>
        <time>2018-09-01T18:11:19Z</time>
      </trkpt>
      <trkpt lat="45.77524" lon="5.81302">
        <ele>388</ele>
        <time>2018-09-01T18:11:19Z</time>
      </trkpt>
      <trkpt lat="45.77522" lon="5.81296">
        <ele>388</ele>
        <time>2018-09-01T18:11:19Z</time>
      </trkpt>
      <trkpt lat="45.7752" lon="5.8129">
        <ele>393</ele>
        <time>2018-09-01T18:11:19Z</time>
      </trkpt>
      <trkpt lat="45.7752" lon="5.81287">
        <ele>393</ele>
        <time>2018-09-01T18:11:39Z</time>
      </trkpt>
      <trkpt lat="45.7752" lon="5.81286">
        <ele>393</ele>
        <time>2018-09-01T18:11:39Z</time>
      </trkpt>
      <trkpt lat="45.77519" lon="5.81283">
        <ele>393</ele>
        <time>2018-09-01T18:11:39Z</time>
      </trkpt>
      <trkpt lat="45.77518" lon="5.81278">
        <ele>393</ele>
        <time>2018-09-01T18:11:39Z</time>
      </trkpt>
      <trkpt lat="45.77518" lon="5.81272">
        <ele>393</ele>
        <time>2018-09-01T18:11:39Z</time>
      </trkpt>
      <trkpt lat="45.77518" lon="5.81266">
        <ele>393</ele>
        <time>2018-09-01T18:11:55Z</time>
      </trkpt>
      <trkpt lat="45.77518" lon="5.8126">
        <ele>393</ele>
        <time>2018-09-01T18:11:55Z</time>
      </trkpt>
      <trkpt lat="45.77519" lon="5.81253">
        <ele>393</ele>
        <time>2018-09-01T18:11:55Z</time>
      </trkpt>
      <trkpt lat="45.7752" lon="5.81247">
        <ele>393</ele>
        <time>2018-09-01T18:11:55Z</time>
      </trkpt>
      <trkpt lat="45.77522" lon="5.81242">
        <ele>393</ele>
        <time>2018-09-01T18:12:15Z</time>
      </trkpt>
      <trkpt lat="45.77521" lon="5.81239">
        <ele>393</ele>
        <time>2018-09-01T18:12:15Z</time>
      </trkpt>
      <trkpt lat="45.77518" lon="5.81237">
        <ele>393</ele>
        <time>2018-09-01T18:12:15Z</time>
      </trkpt>
      <trkpt lat="45.77515" lon="5.81234">
        <ele>393</ele>
        <time>2018-09-01T18:12:15Z</time>
      </trkpt>
      <trkpt lat="45.77512" lon="5.81233">
        <ele>393</ele>
        <time>2018-09-01T18:12:15Z</time>
      </trkpt>
    </trkseg>
  </trk>
</gpx>